
Distance (Route):
Temperature : 7.7°C
Humidity : 62.1%
Pressure : 736.0hPa| Receiver | Frames | First received | Last received |
|---|---|---|---|
| DO3MHA-12 | 775 | 2026-09-04 03:57:54 | 2026-09-04 06:19:19 |
| DO3MHA-11 | 727 | 2026-09-04 03:57:52 | 2026-09-04 06:19:30 |
| BAUMI2-15 | 282 | 2026-09-04 04:44:24 | 2026-09-04 06:16:41 |
| OE5MMP-10 | 265 | 2026-09-04 04:37:32 | 2026-09-04 05:45:50 |
| OE5DRO-10 | 212 | 2026-09-04 04:14:03 | 2026-09-04 06:11:49 |
| OE5DXL-15 | 172 | 2026-09-04 04:03:16 | 2026-09-04 06:15:21 |
| OM5KV | 163 | 2026-09-04 05:06:10 | 2026-09-04 05:35:44 |
| OE5WHR-10 | 142 | 2026-09-04 04:29:52 | 2026-09-04 05:52:16 |
| NBG1-10 | 140 | 2026-09-04 04:04:15 | 2026-09-04 06:05:12 |
| DL6DJ-15 | 139 | 2026-09-04 04:07:05 | 2026-09-04 06:07:44 |
| DG1MFX-10 | 139 | 2026-09-04 04:25:03 | 2026-09-04 06:13:43 |
| DM0DOS-11 | 135 | 2026-09-04 05:04:08 | 2026-09-04 05:31:26 |
| DB0UT-7 | 116 | 2026-09-04 04:12:51 | 2026-09-04 05:53:45 |
| OE3JTB-15 | 107 | 2026-09-04 04:15:45 | 2026-09-04 06:03:04 |
| IN3HCDX | 97 | 2026-09-04 04:49:34 | 2026-09-04 06:11:02 |
| DG1MJG | 94 | 2026-09-04 04:01:13 | 2026-09-04 05:55:49 |
| DB0ND-19 | 90 | 2026-09-04 04:07:45 | 2026-09-04 06:00:00 |
| DF1GD-15 | 73 | 2026-09-04 04:42:45 | 2026-09-04 05:41:25 |
| DK5PH-5 | 53 | 2026-09-04 04:52:41 | 2026-09-04 05:34:31 |
| DB0NH | 50 | 2026-09-04 04:07:42 | 2026-09-04 06:03:29 |
| PG1ADW-2 | 47 | 2026-09-04 04:40:21 | 2026-09-04 05:46:35 |
| DF7PN | 40 | 2026-09-04 04:31:11 | 2026-09-04 05:36:25 |
| DL1ZP-14 | 35 | 2026-09-04 04:46:05 | 2026-09-04 05:29:04 |
| S52SK | 33 | 2026-09-04 04:55:28 | 2026-09-04 05:38:08 |
| IN3IJJ | 31 | 2026-09-04 05:00:33 | 2026-09-04 06:08:07 |
| DF2AP-13 | 26 | 2026-09-04 05:08:42 | 2026-09-04 05:32:24 |
| DO8TBO-1 | 23 | 2026-09-04 04:23:04 | 2026-09-04 05:46:29 |
| PETON7-10 | 21 | 2026-09-04 05:17:35 | 2026-09-04 05:27:09 |
| DF3TZ-5 | 19 | 2026-09-04 04:49:37 | 2026-09-04 05:27:23 |
| DH7VM-15 | 17 | 2026-09-04 04:19:20 | 2026-09-04 05:48:31 |
| OE9MKV-15 | 16 | 2026-09-04 05:11:48 | 2026-09-04 05:27:25 |
| DM7RM-13 | 15 | 2026-09-04 04:28:23 | 2026-09-04 04:54:23 |
| OE5REO-15 | 12 | 2026-09-04 05:19:48 | 2026-09-04 05:27:32 |
| IW2NTF | 7 | 2026-09-04 04:53:36 | 2026-09-04 05:46:08 |
| SONDE2-11 | 5 | 2026-09-04 05:22:48 | 2026-09-04 05:27:59 |
| OE5HKT-10 | 1 | 2026-09-04 05:41:20 | 2026-09-04 05:41:20 |
| Receiver | Date | Latitude | Longitude | Direction | Speed | Altitude | Climb | Temperature | Humidity | Pressure | Voltage | Killtimer | Uptime | BKT | XDATA |
|---|---|---|---|---|---|---|---|---|---|---|---|---|---|---|---|
| DO3MHA-11 | 2026-09-04 06:19:30 | 47.15815 | 12.04010 | 141° | 15km/h | 2822m | -3.4m/s | 7.7°C | 62.1% | 736.0hPa | 2.7V | 00:58:15 | 02:40:22 | 00:00:00 | |
| DO3MHA-11 | 2026-09-04 06:19:25 | 47.15827 | 12.03989 | 130° | 18km/h | 2833m | -2.5m/s | 7.6°C | 62.7% | 734.9hPa | 2.7V | 00:58:20 | 02:40:17 | 00:00:00 | |
| DO3MHA-11 | 2026-09-04 06:19:20 | 47.15840 | 12.03962 | 113° | 18km/h | 2844m | -1.4m/s | 7.5°C | 63.3% | 733.9hPa | 2.7V | 00:58:25 | 02:40:12 | 00:00:00 | |
| DO3MHA-12 | 2026-09-04 06:19:19 | 47.15842 | 12.03956 | 110° | 20km/h | 2846m | -1.2m/s | 7.5°C | 63.4% | 733.8hPa | 2.7V | 00:58:26 | 02:40:11 | 00:00:00 | |
| DO3MHA-11 | 2026-09-04 06:19:15 | 47.15845 | 12.03927 | 96° | 24km/h | 2849m | -0.6m/s | 7.4°C | 63.9% | 733.5hPa | 2.7V | 00:58:30 | 02:40:07 | 00:00:00 | |
| DO3MHA-12 | 2026-09-04 06:19:14 | 47.15846 | 12.03919 | 96° | 24km/h | 2850m | -1.3m/s | 7.4°C | 64.0% | 733.5hPa | 2.7V | 00:58:31 | 02:40:06 | 00:00:00 | |
| DO3MHA-11 | 2026-09-04 06:19:10 | 47.15849 | 12.03884 | 101° | 26km/h | 2857m | -2.1m/s | 7.3°C | 64.2% | 732.8hPa | 2.7V | 00:58:35 | 02:40:02 | 00:00:00 | |
| DO3MHA-12 | 2026-09-04 06:19:09 | 47.15851 | 12.03876 | 102° | 26km/h | 2859m | -2.0m/s | 7.3°C | 64.2% | 732.7hPa | 2.7V | 00:58:36 | 02:40:01 | 00:00:00 | |
| DO3MHA-11 | 2026-09-04 06:19:05 | 47.15854 | 12.03837 | 91° | 26km/h | 2866m | -0.4m/s | 7.2°C | 64.5% | 732.0hPa | 2.7V | 00:58:40 | 02:39:57 | 00:00:00 | |
| DO3MHA-12 | 2026-09-04 06:19:04 | 47.15853 | 12.03827 | 88° | 24km/h | 2866m | -0.5m/s | 7.3°C | 64.2% | 731.8hPa | 2.7V | 00:58:41 | 02:39:56 | 00:00:00 | |
| DO3MHA-11 | 2026-09-04 06:19:00 | 47.15849 | 12.03792 | 77° | 22km/h | 2870m | -0.9m/s | 7.4°C | 63.2% | 731.6hPa | 2.7V | 00:58:45 | 02:39:52 | 00:00:00 | |
| DO3MHA-12 | 2026-09-04 06:18:58 | 47.15847 | 12.03774 | 79° | 20km/h | 2873m | -1.1m/s | 7.4°C | 62.6% | 731.6hPa | 2.7V | 00:58:47 | 02:39:50 | 00:00:00 | |
| DO3MHA-11 | 2026-09-04 06:18:55 | 47.15844 | 12.03752 | 90° | 18km/h | 2877m | -1.8m/s | 7.5°C | 61.7% | 731.0hPa | 2.7V | 00:58:50 | 02:39:47 | 00:00:00 | |
| DO3MHA-12 | 2026-09-04 06:18:53 | 47.15846 | 12.03740 | 108° | 20km/h | 2881m | -1.5m/s | 7.7°C | 59.6% | 730.6hPa | 2.7V | 00:58:52 | 02:39:45 | 00:00:00 | |
| DO3MHA-11 | 2026-09-04 06:18:50 | 47.15851 | 12.03721 | 119° | 26km/h | 2887m | -2.6m/s | 7.8°C | 58.6% | 730.2hPa | 2.7V | 00:58:55 | 02:39:42 | 00:00:00 | |
| DO3MHA-12 | 2026-09-04 06:18:48 | 47.15857 | 12.03705 | 117° | 29km/h | 2893m | -3.3m/s | 7.8°C | 57.2% | 729.6hPa | 2.7V | 00:58:57 | 02:39:40 | 00:00:00 | |
| DO3MHA-11 | 2026-09-04 06:18:45 | 47.15867 | 12.03678 | 120° | 35km/h | 2901m | -3.2m/s | 7.4°C | 61.1% | 729.0hPa | 2.7V | 00:59:00 | 02:39:37 | 00:00:00 | |
| DO3MHA-12 | 2026-09-04 06:18:43 | 47.15875 | 12.03656 | 117° | 37km/h | 2907m | -2.8m/s | 7.4°C | 61.1% | 728.4hPa | 2.7V | 00:59:02 | 02:39:35 | 00:00:00 | |
| DO3MHA-11 | 2026-09-04 06:18:40 | 47.15884 | 12.03618 | 103° | 38km/h | 2916m | -2.8m/s | 7.9°C | 55.9% | 727.7hPa | 2.7V | 00:59:05 | 02:39:32 | 00:00:00 | |
| DO3MHA-12 | 2026-09-04 06:18:38 | 47.15887 | 12.03590 | 95° | 37km/h | 2921m | -2.0m/s | 7.9°C | 56.1% | 727.3hPa | 2.7V | 00:59:07 | 02:39:30 | 00:00:00 | |
| DO3MHA-11 | 2026-09-04 06:18:35 | 47.15886 | 12.03548 | 83° | 31km/h | 2926m | -1.9m/s | 7.8°C | 56.8% | 726.5hPa | 2.7V | 00:59:10 | 02:39:27 | 00:00:00 | |
| DO3MHA-12 | 2026-09-04 06:18:33 | 47.15884 | 12.03525 | 82° | 26km/h | 2930m | -1.9m/s | 7.8°C | 57.1% | 726.3hPa | 2.7V | 00:59:12 | 02:39:25 | 00:00:00 | |
| DO3MHA-11 | 2026-09-04 06:18:30 | 47.15881 | 12.03495 | 87° | 24km/h | 2936m | -2.2m/s | 7.8°C | 56.2% | 725.8hPa | 2.7V | 00:59:15 | 02:39:22 | 00:00:00 | |
| DO3MHA-12 | 2026-09-04 06:18:28 | 47.15881 | 12.03477 | 90° | 24km/h | 2940m | -2.3m/s | 7.7°C | 56.3% | 725.4hPa | 2.7V | 00:59:17 | 02:39:20 | 00:00:00 | |
| DO3MHA-11 | 2026-09-04 06:18:25 | 47.15883 | 12.03451 | 100° | 24km/h | 2948m | -2.6m/s | 7.7°C | 56.4% | 725.0hPa | 2.7V | 00:59:20 | 02:39:17 | 00:00:00 | |
| DO3MHA-12 | 2026-09-04 06:18:23 | 47.15885 | 12.03434 | 105° | 24km/h | 2954m | -2.9m/s | 7.6°C | 56.3% | 724.3hPa | 2.7V | 00:59:22 | 02:39:15 | 00:00:00 | |
| DO3MHA-11 | 2026-09-04 06:18:20 | 47.15890 | 12.03410 | 111° | 26km/h | 2963m | -2.9m/s | 7.2°C | 59.2% | 723.6hPa | 2.7V | 00:59:25 | 02:39:12 | 00:00:00 | |
| DO3MHA-12 | 2026-09-04 06:18:18 | 47.15895 | 12.03394 | 116° | 27km/h | 2969m | -2.9m/s | 7.0°C | 59.7% | 723.1hPa | 2.7V | 00:59:27 | 02:39:10 | 00:00:00 | |
| DO3MHA-11 | 2026-09-04 06:18:15 | 47.15903 | 12.03367 | 116° | 29km/h | 2979m | -2.8m/s | 7.2°C | 58.4% | 722.1hPa | 2.7V | 00:59:30 | 02:39:07 | 00:00:00 | |
| DO3MHA-12 | 2026-09-04 06:18:13 | 47.15910 | 12.03347 | 117° | 31km/h | 2985m | -3.2m/s | 7.1°C | 57.9% | 721.7hPa | 2.7V | 00:59:32 | 02:39:05 | 00:00:00 | |
| DO3MHA-11 | 2026-09-04 06:18:10 | 47.15921 | 12.03317 | 119° | 33km/h | 2993m | -3.1m/s | 7.0°C | 59.1% | 720.9hPa | 2.7V | 00:59:35 | 02:39:02 | 00:00:00 | |
| DO3MHA-12 | 2026-09-04 06:18:08 | 47.15928 | 12.03296 | 120° | 35km/h | 3000m | -2.9m/s | 6.9°C | 59.9% | 720.4hPa | 2.7V | 00:59:37 | 02:39:00 | 00:00:00 | |
| DO3MHA-11 | 2026-09-04 06:18:05 | 47.15942 | 12.03262 | 124° | 38km/h | 3010m | -3.4m/s | 6.7°C | 60.2% | 719.6hPa | 2.7V | 00:59:40 | 02:38:57 | 00:00:00 | |
| DO3MHA-12 | 2026-09-04 06:18:03 | 47.15953 | 12.03239 | 123° | 40km/h | 3017m | -3.7m/s | 6.7°C | 59.3% | 718.7hPa | 2.7V | 00:59:42 | 02:38:55 | 00:00:00 | |
| DO3MHA-11 | 2026-09-04 06:18:00 | 47.15967 | 12.03201 | 116° | 40km/h | 3029m | -3.7m/s | 6.6°C | 60.1% | 717.8hPa | 2.7V | 00:59:45 | 02:38:52 | 00:00:00 | |
| DO3MHA-12 | 2026-09-04 06:17:58 | 47.15975 | 12.03173 | 112° | 40km/h | 3036m | -3.0m/s | 6.6°C | 58.9% | 717.2hPa | 2.7V | 00:59:47 | 02:38:50 | 00:00:00 | |
| DO3MHA-11 | 2026-09-04 06:17:55 | 47.15985 | 12.03131 | 106° | 37km/h | 3046m | -3.7m/s | 6.4°C | 60.1% | 716.4hPa | 2.7V | 00:59:50 | 02:38:47 | 00:00:00 | |
| DO3MHA-12 | 2026-09-04 06:17:53 | 47.15990 | 12.03103 | 103° | 35km/h | 3053m | -3.8m/s | 6.3°C | 61.3% | 715.7hPa | 2.7V | 00:59:52 | 02:38:45 | 00:00:00 | |
| DO3MHA-11 | 2026-09-04 06:17:50 | 47.15995 | 12.03064 | 102° | 31km/h | 3064m | -3.8m/s | 6.3°C | 61.0% | 714.7hPa | 2.7V | 00:59:55 | 02:38:42 | 00:00:00 | |
| DO3MHA-12 | 2026-09-04 06:17:48 | 47.15999 | 12.03041 | 105° | 29km/h | 3071m | -3.6m/s | 6.3°C | 59.3% | 714.2hPa | 2.7V | 00:59:57 | 02:38:40 | 00:00:00 | |
| DO3MHA-11 | 2026-09-04 06:17:45 | 47.16006 | 12.03010 | 114° | 27km/h | 3083m | -3.8m/s | 6.4°C | 57.3% | 713.1hPa | 2.7V | 00:00:00 | 02:38:37 | 00:00:00 | |
| DO3MHA-12 | 2026-09-04 06:17:43 | 47.16012 | 12.02992 | 116° | 27km/h | 3090m | -3.5m/s | 6.4°C | 56.9% | 712.5hPa | 2.7V | 00:00:00 | 02:38:35 | 00:00:00 | |
| DO3MHA-11 | 2026-09-04 06:17:40 | 47.16022 | 12.02965 | 122° | 29km/h | 3101m | -3.8m/s | 6.2°C | 57.5% | 711.4hPa | 2.7V | 01:00:00 | 02:38:32 | 00:00:00 | |
| DO3MHA-12 | 2026-09-04 06:17:38 | 47.16030 | 12.02947 | 126° | 31km/h | 3108m | -3.5m/s | 6.2°C | 57.3% | 710.9hPa | 2.7V | 01:00:00 | 02:38:30 | 00:00:00 | |
| DO3MHA-11 | 2026-09-04 06:17:35 | 47.16044 | 12.02921 | 130° | 37km/h | 3120m | -3.9m/s | 6.1°C | 57.5% | 710.0hPa | 2.7V | 00:00:00 | 02:38:27 | 00:00:00 | |
| DO3MHA-12 | 2026-09-04 06:17:33 | 47.16056 | 12.02901 | 130° | 38km/h | 3127m | -3.6m/s | 6.0°C | 57.5% | 709.3hPa | 2.7V | 00:00:00 | 02:38:25 | 00:00:00 | |
| DO3MHA-11 | 2026-09-04 06:17:30 | 47.16074 | 12.02868 | 128° | 42km/h | 3138m | -3.7m/s | 6.0°C | 59.3% | 708.4hPa | 2.7V | 01:00:00 | 02:38:22 | 00:00:00 | |
| DO3MHA-12 | 2026-09-04 06:17:28 | 47.16086 | 12.02843 | 126° | 44km/h | 3146m | -3.9m/s | 5.9°C | 63.8% | 707.7hPa | 2.7V | 01:00:00 | 02:38:20 | 00:00:00 | |
| DO3MHA-11 | 2026-09-04 06:17:25 | 47.16105 | 12.02804 | 125° | 44km/h | 3157m | -3.6m/s | 5.8°C | 64.5% | 706.7hPa | 2.7V | 00:00:00 | 02:38:17 | 00:00:00 | |
| DO3MHA-12 | 2026-09-04 06:17:23 | 47.16118 | 12.02777 | 123° | 46km/h | 3165m | -4.0m/s | 5.8°C | 64.9% | 706.2hPa | 2.7V | 00:00:00 | 02:38:15 | 00:00:00 | |
| DO3MHA-11 | 2026-09-04 06:17:20 | 47.16136 | 12.02734 | 121° | 46km/h | 3176m | -3.9m/s | 5.7°C | 65.4% | 705.1hPa | 2.7V | 01:00:00 | 02:38:12 | 00:00:00 | |
| DO3MHA-12 | 2026-09-04 06:17:18 | 47.16147 | 12.02704 | 118° | 46km/h | 3184m | -3.5m/s | 5.6°C | 65.8% | 704.4hPa | 2.7V | 01:00:00 | 02:38:10 | 00:00:00 | |
| DO3MHA-11 | 2026-09-04 06:17:15 | 47.16162 | 12.02658 | 114° | 44km/h | 3195m | -3.6m/s | 5.5°C | 68.9% | 703.3hPa | 2.7V | 00:00:00 | 02:38:07 | 00:00:00 | |
| DO3MHA-12 | 2026-09-04 06:17:13 | 47.16171 | 12.02626 | 111° | 42km/h | 3203m | -3.7m/s | 5.5°C | 69.4% | 702.8hPa | 2.7V | 00:00:00 | 02:38:05 | 00:00:00 | |
| DO3MHA-11 | 2026-09-04 06:17:10 | 47.16181 | 12.02581 | 107° | 38km/h | 3214m | -3.4m/s | 5.4°C | 69.8% | 701.7hPa | 2.7V | 01:00:00 | 02:38:02 | 00:00:00 | |
| DO3MHA-12 | 2026-09-04 06:17:08 | 47.16186 | 12.02553 | 107° | 35km/h | 3221m | -3.2m/s | 5.4°C | 69.3% | 701.1hPa | 2.7V | 01:00:00 | 02:38:00 | 00:00:00 | |
| DO3MHA-11 | 2026-09-04 06:17:05 | 47.16196 | 12.02516 | 116° | 35km/h | 3231m | -3.6m/s | 5.3°C | 67.2% | 700.4hPa | 2.7V | 00:00:00 | 02:37:57 | 00:00:00 | |
| DO3MHA-11 | 2026-09-04 06:17:00 | 47.16221 | 12.02460 | 127° | 44km/h | 3249m | -3.8m/s | 5.1°C | 69.4% | 698.8hPa | 2.7V | 01:00:00 | 02:37:52 | 00:00:00 | |
| DO3MHA-12 | 2026-09-04 06:16:58 | 47.16234 | 12.02435 | 128° | 47km/h | 3256m | -3.7m/s | 5.1°C | 70.6% | 698.3hPa | 2.7V | 01:00:00 | 02:37:50 | 00:00:00 | |
| DO3MHA-11 | 2026-09-04 06:16:55 | 47.16254 | 12.02393 | 125° | 49km/h | 3268m | -3.9m/s | 5.0°C | 70.9% | 697.2hPa | 2.7V | 00:00:00 | 02:37:47 | 00:00:00 | |
| DO3MHA-12 | 2026-09-04 06:16:53 | 47.16268 | 12.02362 | 123° | 51km/h | 3276m | -3.7m/s | 4.9°C | 71.2% | 696.6hPa | 2.7V | 00:00:00 | 02:37:45 | 00:00:00 | |
| DO3MHA-11 | 2026-09-04 06:16:50 | 47.16287 | 12.02314 | 121° | 51km/h | 3287m | -3.7m/s | 4.9°C | 70.2% | 695.5hPa | 2.7V | 01:00:00 | 02:37:42 | 00:00:00 | |
| DO3MHA-12 | 2026-09-04 06:16:48 | 47.16300 | 12.02281 | 119° | 51km/h | 3294m | -3.7m/s | 4.9°C | 69.7% | 694.9hPa | 2.6V | 01:00:00 | 02:37:40 | 00:00:00 | |
| DO3MHA-11 | 2026-09-04 06:16:45 | 47.16318 | 12.02229 | 115° | 51km/h | 3306m | -3.8m/s | 4.8°C | 69.8% | 694.0hPa | 2.7V | 00:00:00 | 02:37:37 | 00:00:00 | |
| DO3MHA-12 | 2026-09-04 06:16:43 | 47.16328 | 12.02194 | 113° | 49km/h | 3313m | -3.5m/s | 4.8°C | 71.1% | 693.3hPa | 2.7V | 00:00:00 | 02:37:35 | 00:00:00 | |
| BAUMI2-15 | 2026-09-04 06:16:41 | 47.16337 | 12.02159 | 110° | 46km/h | 3320m | -3.6m/s | 4.7°C | 71.7% | 692.9hPa | 2.7V | 00:00:00 | 02:37:33 | 00:00:00 | |
| DO3MHA-11 | 2026-09-04 06:16:40 | 47.16341 | 12.02142 | 109° | 47km/h | 3324m | -3.5m/s | 4.7°C | 71.8% | 692.5hPa | 2.7V | 01:01:00 | 02:37:32 | 00:00:00 | |
| DO3MHA-12 | 2026-09-04 06:16:38 | 47.16349 | 12.02108 | 109° | 44km/h | 3330m | -3.4m/s | 4.6°C | 71.9% | 691.9hPa | 2.7V | 01:01:00 | 02:37:30 | 00:00:00 | |
| DO3MHA-11 | 2026-09-04 06:16:35 | 47.16360 | 12.02060 | 108° | 42km/h | 3341m | -3.5m/s | 4.6°C | 72.4% | 691.2hPa | 2.7V | 00:00:00 | 02:37:27 | 00:00:00 | |
| DO3MHA-12 | 2026-09-04 06:16:33 | 47.16366 | 12.02030 | 108° | 40km/h | 3348m | -3.6m/s | 4.5°C | 73.1% | 690.3hPa | 2.7V | 00:00:00 | 02:37:25 | 00:00:00 | |
| DO3MHA-11 | 2026-09-04 06:16:30 | 47.16376 | 12.01987 | 109° | 38km/h | 3359m | -3.5m/s | 4.5°C | 71.9% | 689.5hPa | 2.7V | 01:01:00 | 02:37:22 | 00:00:00 | |
| DO3MHA-12 | 2026-09-04 06:16:28 | 47.16382 | 12.01959 | 110° | 38km/h | 3366m | -3.7m/s | 4.7°C | 61.1% | 688.8hPa | 2.7V | 01:01:00 | 02:37:20 | 00:00:00 | |
| DO3MHA-11 | 2026-09-04 06:16:25 | 47.16392 | 12.01919 | 113° | 37km/h | 3377m | -3.5m/s | 4.8°C | 55.8% | 688.0hPa | 2.7V | 00:00:00 | 02:37:17 | 00:00:00 | |
| DO3MHA-12 | 2026-09-04 06:16:23 | 47.16400 | 12.01894 | 114° | 37km/h | 3384m | -3.8m/s | 4.8°C | 55.0% | 687.2hPa | 2.7V | 00:00:00 | 02:37:15 | 00:00:00 | |
| DO3MHA-11 | 2026-09-04 06:16:20 | 47.16411 | 12.01858 | 117° | 35km/h | 3395m | -3.8m/s | 4.7°C | 54.0% | 686.4hPa | 2.7V | 01:01:00 | 02:37:12 | 00:00:00 | |
| DO3MHA-12 | 2026-09-04 06:16:18 | 47.16419 | 12.01835 | 118° | 33km/h | 3403m | -3.6m/s | 4.7°C | 53.3% | 685.7hPa | 2.7V | 01:01:00 | 02:37:10 | 00:00:00 | |
| DO3MHA-11 | 2026-09-04 06:16:15 | 47.16432 | 12.01802 | 122° | 33km/h | 3414m | -3.9m/s | 4.9°C | 46.9% | 684.8hPa | 2.7V | 00:00:00 | 02:37:07 | 00:00:00 | |
| DO3MHA-12 | 2026-09-04 06:16:13 | 47.16440 | 12.01781 | 123° | 33km/h | 3422m | -3.9m/s | 5.0°C | 43.0% | 684.2hPa | 2.7V | 00:00:00 | 02:37:05 | 00:00:00 | |
| DO3MHA-11 | 2026-09-04 06:16:10 | 47.16454 | 12.01752 | 127° | 35km/h | 3434m | -3.6m/s | 5.2°C | 37.5% | 683.1hPa | 2.7V | 01:01:00 | 02:37:02 | 00:00:00 | |
| DO3MHA-12 | 2026-09-04 06:16:08 | 47.16465 | 12.01733 | 131° | 37km/h | 3441m | -3.6m/s | 5.3°C | 31.0% | 682.7hPa | 2.7V | 01:01:00 | 02:37:00 | 00:00:00 | |
| BAUMI2-15 | 2026-09-04 06:16:07 | 47.16471 | 12.01724 | 133° | 40km/h | 3444m | -3.4m/s | 5.3°C | 30.2% | 682.1hPa | 2.7V | 01:01:00 | 02:36:59 | 00:00:00 | |
| DO3MHA-11 | 2026-09-04 06:16:00 | 47.16521 | 12.01652 | 137° | 46km/h | 3471m | -3.7m/s | 5.8°C | 13.0% | 680.0hPa | 2.7V | 01:01:00 | 02:36:52 | 00:00:00 | |
| DO3MHA-12 | 2026-09-04 06:15:58 | 47.16538 | 12.01629 | 137° | 46km/h | 3479m | -4.0m/s | 5.8°C | 10.4% | 679.3hPa | 2.7V | 01:01:00 | 02:36:50 | 00:00:00 | |
| DO3MHA-11 | 2026-09-04 06:15:55 | 47.16563 | 12.01593 | 137° | 47km/h | 3491m | -4.1m/s | 5.9°C | 7.1% | 678.5hPa | 2.7V | 00:00:00 | 02:36:47 | 00:00:00 | |
| DO3MHA-12 | 2026-09-04 06:15:53 | 47.16580 | 12.01569 | 136° | 47km/h | 3499m | -3.9m/s | 5.9°C | 6.6% | 677.6hPa | 2.7V | 00:00:00 | 02:36:45 | 00:00:00 | |
| DO3MHA-11 | 2026-09-04 06:15:50 | 47.16605 | 12.01532 | 134° | 49km/h | 3510m | -3.7m/s | 5.9°C | 6.2% | 676.7hPa | 2.7V | 01:01:00 | 02:36:42 | 00:00:00 | |
| DO3MHA-12 | 2026-09-04 06:15:48 | 47.16621 | 12.01505 | 132° | 51km/h | 3517m | -3.5m/s | 5.9°C | 6.2% | 676.2hPa | 2.7V | 01:01:00 | 02:36:40 | 00:00:00 | |
| DO3MHA-11 | 2026-09-04 06:15:45 | 47.16646 | 12.01462 | 129° | 51km/h | 3529m | -3.6m/s | 5.9°C | 6.1% | 675.3hPa | 2.7V | 00:00:00 | 02:36:37 | 00:00:00 | |
| DO3MHA-12 | 2026-09-04 06:15:43 | 47.16662 | 12.01432 | 127° | 51km/h | 3536m | -3.5m/s | 5.9°C | 6.2% | 674.6hPa | 2.7V | 00:00:00 | 02:36:35 | 00:00:00 | |
| DO3MHA-11 | 2026-09-04 06:15:40 | 47.16684 | 12.01385 | 123° | 47km/h | 3546m | -3.1m/s | 5.9°C | 6.6% | 673.7hPa | 2.7V | 01:02:00 | 02:36:32 | 00:00:00 | |
| DO3MHA-12 | 2026-09-04 06:15:38 | 47.16697 | 12.01354 | 121° | 44km/h | 3553m | -3.1m/s | 5.9°C | 6.8% | 673.2hPa | 2.7V | 01:02:00 | 02:36:30 | 00:00:00 | |
| DO3MHA-11 | 2026-09-04 06:15:35 | 47.16714 | 12.01311 | 121° | 40km/h | 3564m | -3.6m/s | 5.9°C | 7.1% | 672.4hPa | 2.7V | 00:00:00 | 02:36:27 | 00:00:00 | |
| DO3MHA-12 | 2026-09-04 06:15:33 | 47.16725 | 12.01284 | 122° | 38km/h | 3572m | -4.0m/s | 5.9°C | 7.5% | 671.7hPa | 2.7V | 00:00:00 | 02:36:25 | 00:00:00 | |
| DO3MHA-11 | 2026-09-04 06:15:30 | 47.16741 | 12.01247 | 125° | 38km/h | 3584m | -4.1m/s | 5.8°C | 8.0% | 670.8hPa | 2.6V | 01:02:00 | 02:36:22 | 00:00:00 | |
| DO3MHA-12 | 2026-09-04 06:15:28 | 47.16752 | 12.01224 | 127° | 38km/h | 3591m | -4.1m/s | 5.8°C | 8.5% | 670.1hPa | 2.6V | 01:02:00 | 02:36:20 | 00:00:00 | |
| DO3MHA-11 | 2026-09-04 06:15:25 | 47.16770 | 12.01192 | 132° | 38km/h | 3604m | -4.0m/s | 5.8°C | 9.6% | 669.1hPa | 2.6V | 00:00:00 | 02:36:17 | 00:00:00 | |
| DO3MHA-12 | 2026-09-04 06:15:23 | 47.16783 | 12.01172 | 136° | 38km/h | 3612m | -3.8m/s | 5.8°C | 9.6% | 668.4hPa | 2.6V | 00:00:00 | 02:36:15 | 00:00:00 | |
| OE5DXL-15 | 2026-09-04 06:15:21 | 47.16797 | 12.01153 | 140° | 46km/h | 3619m | -4.1m/s | 5.7°C | 9.1% | 667.8hPa | 2.6V | 00:00:00 | 02:36:13 | 00:00:00 | |
| DO3MHA-11 | 2026-09-04 06:15:20 | 47.16805 | 12.01143 | 142° | 44km/h | 3623m | -3.7m/s | 5.7°C | 8.9% | 667.5hPa | 2.6V | 01:02:00 | 02:36:12 | 00:00:00 | |
| DO3MHA-12 | 2026-09-04 06:15:18 | 47.16822 | 12.01124 | 142° | 47km/h | 3630m | -3.6m/s | 5.6°C | 8.7% | 666.9hPa | 2.7V | 01:02:00 | 02:36:10 | 00:00:00 | |
| DO3MHA-11 | 2026-09-04 06:15:15 | 47.16849 | 12.01091 | 139° | 51km/h | 3642m | -4.0m/s | 5.6°C | 7.8% | 665.9hPa | 2.7V | 00:00:00 | 02:36:07 | 00:00:00 | |
| DO3MHA-12 | 2026-09-04 06:15:13 | 47.16868 | 12.01066 | 135° | 49km/h | 3650m | -3.5m/s | 5.6°C | 6.9% | 665.2hPa | 2.7V | 00:00:00 | 02:36:05 | 00:00:00 | |
| DO3MHA-11 | 2026-09-04 06:15:10 | 47.16894 | 12.01023 | 129° | 47km/h | 3662m | -4.0m/s | 5.6°C | 6.5% | 664.4hPa | 2.7V | 01:02:00 | 02:36:02 | 00:00:00 | |
| DO3MHA-12 | 2026-09-04 06:15:06 | 47.16922 | 12.00966 | 125° | 42km/h | 3678m | -4.1m/s | 5.5°C | 10.1% | 663.0hPa | 2.7V | 01:02:00 | 02:35:58 | 00:00:00 | |
| DO3MHA-11 | 2026-09-04 06:15:05 | 47.16928 | 12.00953 | 124° | 42km/h | 3682m | -4.1m/s | 5.4°C | 12.1% | 662.6hPa | 2.7V | 00:00:00 | 02:35:57 | 00:00:00 | |
| DO3MHA-12 | 2026-09-04 06:15:01 | 47.16951 | 12.00901 | 124° | 37km/h | 3698m | -4.2m/s | 5.3°C | 14.1% | 661.2hPa | 2.6V | 00:00:00 | 02:35:53 | 00:00:00 | |
| DO3MHA-11 | 2026-09-04 06:15:00 | 47.16957 | 12.00889 | 125° | 35km/h | 3702m | -3.9m/s | 5.3°C | 13.9% | 660.9hPa | 2.7V | 01:02:00 | 02:35:52 | 00:00:00 | |
| DO3MHA-12 | 2026-09-04 06:14:56 | 47.16979 | 12.00847 | 133° | 44km/h | 3718m | -4.2m/s | 5.1°C | 14.7% | 659.7hPa | 2.7V | 01:02:00 | 02:35:48 | 00:00:00 | |
| DO3MHA-11 | 2026-09-04 06:14:55 | 47.16984 | 12.00839 | 136° | 35km/h | 3722m | -4.0m/s | 5.0°C | 20.8% | 659.3hPa | 2.7V | 00:00:00 | 02:35:47 | 00:00:00 | |
| DO3MHA-11 | 2026-09-04 06:14:50 | 47.17019 | 12.00798 | 146° | 42km/h | 3743m | -4.0m/s | 4.8°C | 28.2% | 657.8hPa | 2.7V | 01:02:00 | 02:35:42 | 00:00:00 | |
| DO3MHA-11 | 2026-09-04 06:14:45 | 47.17063 | 12.00751 | 142° | 47km/h | 3763m | -4.3m/s | 4.5°C | 43.1% | 656.0hPa | 2.7V | 00:00:00 | 02:35:37 | 00:00:00 | |
| DO3MHA-12 | 2026-09-04 06:14:42 | 47.17090 | 12.00717 | 138° | 49km/h | 3775m | -4.0m/s | 4.4°C | 45.0% | 655.0hPa | 2.7V | 00:00:00 | 02:35:34 | 00:00:00 | |
| OE5DXL-15 | 2026-09-04 06:14:41 | 47.17099 | 12.00704 | 136° | 46km/h | 3780m | -4.1m/s | 4.3°C | 44.9% | 654.7hPa | 2.7V | 00:00:00 | 00:00:00 | 00:00:00 | |
| DO3MHA-11 | 2026-09-04 06:14:40 | 47.17108 | 12.00691 | 135° | 49km/h | 3783m | -4.3m/s | 4.3°C | 46.7% | 654.3hPa | 2.7V | 01:03:00 | 02:35:32 | 00:00:00 | |
| DO3MHA-12 | 2026-09-04 06:14:36 | 47.17142 | 12.00636 | 130° | 49km/h | 3800m | -4.1m/s | 4.1°C | 49.3% | 653.1hPa | 2.7V | 01:03:00 | 02:35:28 | 00:00:00 | |
| DO3MHA-11 | 2026-09-04 06:14:35 | 47.17150 | 12.00621 | 129° | 49km/h | 3805m | -4.2m/s | 4.1°C | 49.7% | 652.6hPa | 2.7V | 00:00:00 | 02:35:27 | 00:00:00 | |
| DO3MHA-12 | 2026-09-04 06:14:31 | 47.17179 | 12.00562 | 124° | 44km/h | 3822m | -4.2m/s | 3.9°C | 53.0% | 651.3hPa | 2.6V | 00:00:00 | 02:35:23 | 00:00:00 | |
| DO3MHA-11 | 2026-09-04 06:14:30 | 47.17185 | 12.00547 | 122° | 42km/h | 3826m | -4.3m/s | 3.9°C | 53.4% | 651.0hPa | 2.6V | 01:03:00 | 02:35:22 | 00:00:00 | |
| DO3MHA-12 | 2026-09-04 06:14:26 | 47.17207 | 12.00492 | 122° | 37km/h | 3843m | -4.1m/s | 3.7°C | 53.7% | 649.7hPa | 2.6V | 01:03:00 | 02:35:18 | 00:00:00 | |
| DO3MHA-11 | 2026-09-04 06:14:25 | 47.17212 | 12.00480 | 123° | 37km/h | 3847m | -4.0m/s | 3.7°C | 53.4% | 649.2hPa | 2.6V | 00:00:00 | 02:35:17 | 00:00:00 | |
| DO3MHA-12 | 2026-09-04 06:14:21 | 47.17236 | 12.00440 | 137° | 40km/h | 3863m | -4.0m/s | 3.6°C | 49.7% | 648.1hPa | 2.6V | 00:00:00 | 02:35:13 | 00:00:00 | |
| DO3MHA-11 | 2026-09-04 06:14:20 | 47.17243 | 12.00430 | 139° | 42km/h | 3867m | -4.1m/s | 3.6°C | 49.5% | 647.7hPa | 2.7V | 01:03:00 | 02:35:12 | 00:00:00 | |
| DO3MHA-12 | 2026-09-04 06:14:16 | 47.17275 | 12.00391 | 142° | 49km/h | 3884m | -4.2m/s | 3.4°C | 51.2% | 646.4hPa | 2.7V | 01:03:00 | 02:35:08 | 00:00:00 | |
| DO3MHA-11 | 2026-09-04 06:14:15 | 47.17284 | 12.00380 | 141° | 49km/h | 3888m | -4.2m/s | 3.4°C | 53.0% | 646.0hPa | 2.7V | 00:00:00 | 02:35:07 | 00:00:00 | |
| DO3MHA-12 | 2026-09-04 06:14:11 | 47.17322 | 12.00331 | 137° | 53km/h | 3905m | -4.0m/s | 3.3°C | 53.0% | 644.7hPa | 2.7V | 00:00:00 | 02:35:03 | 00:00:00 | |
| DO3MHA-11 | 2026-09-04 06:14:10 | 47.17332 | 12.00318 | 136° | 53km/h | 3909m | -4.4m/s | 3.3°C | 52.6% | 644.4hPa | 2.7V | 01:03:00 | 02:35:02 | 00:00:00 | |
| DO3MHA-12 | 2026-09-04 06:14:06 | 47.17369 | 12.00260 | 130° | 53km/h | 3926m | -4.3m/s | 3.2°C | 51.8% | 643.1hPa | 2.7V | 01:03:00 | 02:34:58 | 00:00:00 | |
| DO3MHA-11 | 2026-09-04 06:14:05 | 47.17377 | 12.00244 | 129° | 53km/h | 3931m | -4.3m/s | 3.2°C | 51.8% | 642.6hPa | 2.7V | 00:00:00 | 02:34:57 | 00:00:00 | |
| DO3MHA-12 | 2026-09-04 06:14:01 | 47.17408 | 12.00180 | 122° | 44km/h | 3947m | -4.0m/s | 3.1°C | 51.4% | 641.4hPa | 2.7V | 00:00:00 | 02:34:53 | 00:00:00 | |
| DO3MHA-11 | 2026-09-04 06:14:00 | 47.17414 | 12.00165 | 121° | 42km/h | 3951m | -3.9m/s | 3.0°C | 51.8% | 641.0hPa | 2.7V | 01:03:00 | 02:34:52 | 00:00:00 | |
| DO3MHA-12 | 2026-09-04 06:13:56 | 47.17438 | 12.00114 | 130° | 40km/h | 3968m | -4.0m/s | 2.9°C | 52.1% | 639.8hPa | 2.7V | 01:03:00 | 02:34:48 | 00:00:00 | |
| DO3MHA-11 | 2026-09-04 06:13:55 | 47.17444 | 12.00103 | 133° | 40km/h | 3972m | -4.4m/s | 2.9°C | 51.9% | 639.5hPa | 2.7V | 00:00:00 | 02:34:47 | 00:00:00 | |
| DO3MHA-12 | 2026-09-04 06:13:51 | 47.17474 | 12.00062 | 141° | 46km/h | 3989m | -4.4m/s | 2.8°C | 51.9% | 638.1hPa | 2.7V | 00:00:00 | 02:34:43 | 00:00:00 | |
| DO3MHA-11 | 2026-09-04 06:13:50 | 47.17482 | 12.00053 | 142° | 47km/h | 3993m | -4.0m/s | 2.8°C | 51.8% | 637.7hPa | 2.7V | 01:03:00 | 02:34:42 | 00:00:00 | |
| DO3MHA-12 | 2026-09-04 06:13:46 | 47.17520 | 12.00010 | 143° | 55km/h | 4010m | -4.2m/s | 2.7°C | 52.3% | 636.5hPa | 2.7V | 01:03:00 | 02:34:38 | 00:00:00 | |
| DO3MHA-11 | 2026-09-04 06:13:45 | 47.17530 | 11.99998 | 141° | 55km/h | 4014m | -4.2m/s | 2.7°C | 52.4% | 636.2hPa | 2.7V | 00:00:00 | 02:34:37 | 00:00:00 | |
| DG1MFX-10 | 2026-09-04 06:13:43 | 47.17541 | 11.99985 | 140° | 55km/h | 4018m | -4.2m/s | 2.7°C | 51.2% | 635.9hPa | 2.7V | 01:04:00 | 00:00:00 | 00:00:00 | |
| DO3MHA-12 | 2026-09-04 06:13:41 | 47.17572 | 11.99942 | 134° | 55km/h | 4030m | -4.1m/s | 2.6°C | 51.8% | 634.9hPa | 2.7V | 00:00:00 | 02:34:33 | 00:00:00 | |
| DO3MHA-11 | 2026-09-04 06:13:40 | 47.17581 | 11.99926 | 131° | 53km/h | 4034m | -3.8m/s | 2.5°C | 51.7% | 634.6hPa | 2.7V | 01:04:00 | 02:34:32 | 00:00:00 | |
| DO3MHA-12 | 2026-09-04 06:13:36 | 47.17614 | 11.99864 | 126° | 46km/h | 4051m | -4.1m/s | 2.4°C | 51.1% | 633.3hPa | 2.7V | 01:04:00 | 02:34:28 | 00:00:00 | |
| DO3MHA-11 | 2026-09-04 06:13:35 | 47.17621 | 11.99850 | 127° | 44km/h | 4055m | -4.0m/s | 2.4°C | 50.9% | 632.9hPa | 2.7V | 00:00:00 | 02:34:27 | 00:00:00 | |
| DO3MHA-12 | 2026-09-04 06:13:31 | 47.17649 | 11.99800 | 133° | 40km/h | 4071m | -4.0m/s | 2.2°C | 50.4% | 631.7hPa | 2.7V | 00:00:00 | 02:34:23 | 00:00:00 | |
| DO3MHA-11 | 2026-09-04 06:13:30 | 47.17656 | 11.99789 | 136° | 40km/h | 4075m | -4.3m/s | 2.2°C | 50.1% | 631.4hPa | 2.7V | 01:04:00 | 02:34:22 | 00:00:00 | |
| DO3MHA-12 | 2026-09-04 06:13:26 | 47.17687 | 11.99751 | 146° | 46km/h | 4092m | -4.4m/s | 2.1°C | 49.3% | 630.0hPa | 2.7V | 01:04:00 | 02:34:18 | 00:00:00 | |
| DO3MHA-11 | 2026-09-04 06:13:25 | 47.17696 | 11.99743 | 148° | 46km/h | 4097m | -4.2m/s | 2.1°C | 49.0% | 629.6hPa | 2.7V | 00:00:00 | 02:34:17 | 00:00:00 | |
| DO3MHA-12 | 2026-09-04 06:13:21 | 47.17736 | 11.99706 | 149° | 53km/h | 4113m | -3.9m/s | 1.9°C | 48.5% | 628.4hPa | 2.7V | 00:00:00 | 02:34:13 | 00:00:00 | |
| DO3MHA-11 | 2026-09-04 06:13:20 | 47.17747 | 11.99696 | 147° | 55km/h | 4117m | -3.8m/s | 1.9°C | 48.2% | 628.1hPa | 2.7V | 01:04:00 | 02:34:12 | 00:00:00 | |
| DO3MHA-12 | 2026-09-04 06:13:16 | 47.17791 | 11.99647 | 139° | 53km/h | 4133m | -4.0m/s | 1.8°C | 47.1% | 626.9hPa | 2.7V | 01:04:00 | 02:34:08 | 00:00:00 | |
| DO3MHA-11 | 2026-09-04 06:13:15 | 47.17801 | 11.99634 | 137° | 51km/h | 4137m | -4.0m/s | 1.8°C | 46.8% | 626.6hPa | 2.7V | 00:00:00 | 02:34:07 | 00:00:00 | |
| DO3MHA-12 | 2026-09-04 06:13:11 | 47.17836 | 11.99578 | 131° | 42km/h | 4154m | -4.0m/s | 1.7°C | 46.4% | 625.4hPa | 2.7V | 00:00:00 | 02:34:03 | 00:00:00 | |
| DO3MHA-11 | 2026-09-04 06:13:10 | 47.17843 | 11.99566 | 132° | 40km/h | 4158m | -4.1m/s | 1.6°C | 46.2% | 625.0hPa | 2.7V | 01:04:00 | 02:34:02 | 00:00:00 | |
| DO3MHA-12 | 2026-09-04 06:13:06 | 47.17872 | 11.99524 | 140° | 38km/h | 4174m | -4.2m/s | 1.5°C | 44.7% | 623.7hPa | 2.7V | 01:04:00 | 02:33:58 | 00:00:00 | |
| DO3MHA-11 | 2026-09-04 06:13:05 | 47.17879 | 11.99515 | 143° | 38km/h | 4178m | -3.9m/s | 1.5°C | 43.4% | 623.4hPa | 2.6V | 00:00:00 | 02:33:57 | 00:00:00 | |
| DO3MHA-12 | 2026-09-04 06:13:01 | 47.17912 | 11.99483 | 150° | 44km/h | 4195m | -4.2m/s | 1.5°C | 39.3% | 622.1hPa | 2.7V | 00:00:00 | 02:33:53 | 00:00:00 | |
| DO3MHA-11 | 2026-09-04 06:13:00 | 47.17921 | 11.99475 | 152° | 46km/h | 4199m | -4.1m/s | 1.4°C | 38.7% | 621.8hPa | 2.7V | 01:04:00 | 02:33:52 | 00:00:00 | |
| DO3MHA-12 | 2026-09-04 06:12:56 | 47.17963 | 11.99444 | 152° | 53km/h | 4215m | -3.9m/s | 1.3°C | 42.1% | 620.4hPa | 2.7V | 01:04:00 | 02:33:48 | 00:00:00 | |
| BAUMI2-15 | 2026-09-04 06:12:55 | 47.17975 | 11.99435 | 152° | 53km/h | 4219m | -4.1m/s | 1.3°C | 42.3% | 620.1hPa | 2.7V | 00:00:00 | 02:33:47 | 00:00:00 | |
| OE5DXL-15 | 2026-09-04 06:12:51 | 47.18021 | 11.99392 | 144° | 46km/h | 4236m | -3.9m/s | 1.1°C | 43.1% | 619.0hPa | 2.7V | 00:00:00 | 00:00:00 | 00:00:00 | |
| DO3MHA-11 | 2026-09-04 06:12:50 | 47.18032 | 11.99380 | 142° | 51km/h | 4239m | -3.8m/s | 1.1°C | 43.3% | 618.7hPa | 2.7V | 01:04:00 | 02:33:42 | 00:00:00 | |
| DO3MHA-12 | 2026-09-04 06:12:46 | 47.18069 | 11.99328 | 135° | 42km/h | 4255m | -3.9m/s | 0.9°C | 44.3% | 617.4hPa | 2.7V | 01:04:00 | 02:33:38 | 00:00:00 | |
| DO3MHA-11 | 2026-09-04 06:12:45 | 47.18077 | 11.99316 | 135° | 40km/h | 4259m | -3.8m/s | 0.9°C | 44.4% | 617.2hPa | 2.7V | 00:00:00 | 02:33:37 | 00:00:00 | |
| DO3MHA-12 | 2026-09-04 06:12:41 | 47.18108 | 11.99275 | 141° | 38km/h | 4275m | -4.2m/s | 0.8°C | 45.6% | 615.8hPa | 2.7V | 00:00:00 | 02:33:33 | 00:00:00 | |
| DO3MHA-11 | 2026-09-04 06:12:40 | 47.18115 | 11.99267 | 143° | 38km/h | 4279m | -4.4m/s | 0.8°C | 45.4% | 615.5hPa | 2.7V | 01:05:00 | 02:33:32 | 00:00:00 | |
| DO3MHA-12 | 2026-09-04 06:12:36 | 47.18147 | 11.99236 | 152° | 42km/h | 4296m | -4.0m/s | 0.8°C | 32.6% | 614.2hPa | 2.7V | 01:05:00 | 02:33:28 | 00:00:00 | |
| DO3MHA-11 | 2026-09-04 06:12:35 | 47.18156 | 11.99229 | 154° | 44km/h | 4301m | -4.2m/s | 0.8°C | 32.0% | 614.0hPa | 2.7V | 00:00:00 | 02:33:27 | 00:00:00 | |
| DO3MHA-12 | 2026-09-04 06:12:31 | 47.18197 | 11.99203 | 158° | 51km/h | 4317m | -4.0m/s | 0.7°C | 30.5% | 612.6hPa | 2.7V | 00:00:00 | 02:33:23 | 00:00:00 | |
| DO3MHA-11 | 2026-09-04 06:12:30 | 47.18209 | 11.99195 | 155° | 53km/h | 4321m | -4.3m/s | 0.7°C | 28.0% | 612.5hPa | 2.7V | 01:05:00 | 02:33:22 | 00:00:00 | |
| DO3MHA-12 | 2026-09-04 06:12:26 | 47.18255 | 11.99157 | 146° | 49km/h | 4337m | -4.1m/s | 0.5°C | 26.8% | 611.2hPa | 2.7V | 01:05:00 | 02:33:18 | 00:00:00 | |
| DO3MHA-11 | 2026-09-04 06:12:25 | 47.18266 | 11.99145 | 143° | 47km/h | 4341m | -4.2m/s | 0.5°C | 26.3% | 610.8hPa | 2.7V | 00:00:00 | 02:33:17 | 00:00:00 | |
| DO3MHA-12 | 2026-09-04 06:12:21 | 47.18303 | 11.99099 | 138° | 40km/h | 4357m | -4.2m/s | 0.4°C | 24.8% | 609.5hPa | 2.7V | 00:00:00 | 02:33:13 | 00:00:00 | |
| DG1MFX-10 | 2026-09-04 06:12:19 | 47.18311 | 11.99088 | 139° | 42km/h | 4362m | -4.1m/s | 0.4°C | 24.0% | 609.4hPa | 2.7V | 01:05:00 | 00:00:00 | 00:00:00 | |
| DO3MHA-12 | 2026-09-04 06:12:16 | 47.18342 | 11.99053 | 148° | 38km/h | 4378m | -3.7m/s | 0.2°C | 24.8% | 608.0hPa | 2.7V | 01:05:00 | 02:33:08 | 00:00:00 | |
| DO3MHA-11 | 2026-09-04 06:12:15 | 47.18350 | 11.99046 | 151° | 38km/h | 4382m | -3.5m/s | 0.1°C | 25.0% | 607.6hPa | 2.7V | 00:00:00 | 02:33:07 | 00:00:00 | |
| DO3MHA-12 | 2026-09-04 06:12:11 | 47.18386 | 11.99022 | 158° | 47km/h | 4398m | -3.9m/s | 0.0°C | 25.0% | 606.4hPa | 2.7V | 00:00:00 | 02:33:03 | 00:00:00 | |
| DO3MHA-11 | 2026-09-04 06:12:10 | 47.18396 | 11.99016 | 159° | 49km/h | 4403m | -4.3m/s | 0.0°C | 25.0% | 606.1hPa | 2.7V | 01:05:00 | 02:33:02 | 00:00:00 | |
| DO3MHA-12 | 2026-09-04 06:12:06 | 47.18441 | 11.98987 | 155° | 53km/h | 4419m | -3.9m/s | -0.0°C | 25.4% | 604.9hPa | 2.7V | 01:05:00 | 02:32:58 | 00:00:00 | |
| DO3MHA-11 | 2026-09-04 06:12:05 | 47.18453 | 11.98978 | 153° | 53km/h | 4423m | -4.4m/s | -0.0°C | 25.7% | 604.6hPa | 2.6V | 00:00:00 | 02:32:57 | 00:00:00 | |
| DO3MHA-12 | 2026-09-04 06:12:01 | 47.18500 | 11.98939 | 149° | 55km/h | 4441m | -4.3m/s | -0.2°C | 27.0% | 603.3hPa | 2.7V | 00:00:00 | 02:32:53 | 00:00:00 | |
| DO3MHA-11 | 2026-09-04 06:12:00 | 47.18512 | 11.98928 | 147° | 55km/h | 4445m | -4.2m/s | -0.2°C | 27.0% | 603.0hPa | 2.7V | 01:05:00 | 02:32:52 | 00:00:00 | |
| DG1MFX-10 | 2026-09-04 06:11:59 | 47.18512 | 11.98928 | 148° | 55km/h | 4445m | -4.3m/s | -0.2°C | 26.2% | 603.1hPa | 2.7V | 01:06:00 | 00:00:00 | 00:00:00 | |
| DO3MHA-12 | 2026-09-04 06:11:56 | 47.18555 | 11.98880 | 139° | 47km/h | 4462m | -3.8m/s | -0.3°C | 27.3% | 601.7hPa | 2.7V | 01:05:00 | 02:32:48 | 00:00:00 | |
| DO3MHA-11 | 2026-09-04 06:11:55 | 47.18565 | 11.98867 | 137° | 46km/h | 4466m | -4.3m/s | -0.3°C | 27.8% | 601.4hPa | 2.7V | 00:00:00 | 02:32:47 | 00:00:00 | |
| DO3MHA-12 | 2026-09-04 06:11:51 | 47.18600 | 11.98820 | 143° | 44km/h | 4481m | -3.9m/s | -0.4°C | 31.2% | 600.2hPa | 2.7V | 00:00:00 | 02:32:43 | 00:00:00 | |
| DO3MHA-11 | 2026-09-04 06:11:50 | 47.18608 | 11.98811 | 147° | 46km/h | 4485m | -4.0m/s | -0.4°C | 32.1% | 599.9hPa | 2.6V | 01:05:00 | 02:32:42 | 00:00:00 | |
| OE5DRO-10 | 2026-09-04 06:11:49 | 47.18618 | 11.98803 | 151° | 55km/h | 4489m | -3.9m/s | -0.4°C | 32.0% | 599.5hPa | 2.6V | 01:05:00 | 00:00:00 | 00:00:00 | |
| DO3MHA-12 | 2026-09-04 06:11:46 | 47.18648 | 11.98780 | 154° | 51km/h | 4501m | -4.0m/s | -0.4°C | 34.8% | 598.7hPa | 2.6V | 01:05:00 | 02:32:38 | 00:00:00 | |
| DO3MHA-11 | 2026-09-04 06:11:45 | 47.18659 | 11.98772 | 155° | 51km/h | 4506m | -4.2m/s | -0.5°C | 34.6% | 598.4hPa | 2.6V | 00:00:00 | 02:32:37 | 00:00:00 | |
| DO3MHA-12 | 2026-09-04 06:11:41 | 47.18706 | 11.98739 | 155° | 58km/h | 4522m | -4.2m/s | -0.4°C | 30.4% | 597.2hPa | 2.6V | 00:00:00 | 02:32:33 | 00:00:00 | |
| DO3MHA-11 | 2026-09-04 06:11:40 | 47.18719 | 11.98730 | 154° | 58km/h | 4527m | -4.4m/s | -0.4°C | 31.6% | 596.8hPa | 2.6V | 01:06:00 | 02:32:32 | 00:00:00 | |
| DG1MFX-10 | 2026-09-04 06:11:38 | 47.18732 | 11.98720 | 154° | 58km/h | 4531m | -3.9m/s | -0.5°C | 31.1% | 596.6hPa | 2.6V | 01:06:00 | 00:00:00 | 00:00:00 | |
| DO3MHA-12 | 2026-09-04 06:11:36 | 47.18772 | 11.98688 | 150° | 62km/h | 4543m | -3.9m/s | -0.5°C | 32.2% | 595.5hPa | 2.6V | 01:06:00 | 02:32:28 | 00:00:00 | |
| DO3MHA-11 | 2026-09-04 06:11:35 | 47.18785 | 11.98675 | 148° | 62km/h | 4547m | -4.1m/s | -0.5°C | 31.9% | 595.2hPa | 2.6V | 00:00:00 | 02:32:27 | 00:00:00 | |
| OE5DRO-10 | 2026-09-04 06:11:33 | 47.18812 | 11.98649 | 144° | 55km/h | 4556m | -4.1m/s | -0.5°C | 30.6% | 594.7hPa | 2.7V | 00:00:00 | 00:00:00 | 00:00:00 | |
| DO3MHA-12 | 2026-09-04 06:11:31 | 47.18836 | 11.98620 | 140° | 58km/h | 4564m | -4.1m/s | -0.6°C | 31.2% | 594.1hPa | 2.6V | 00:00:00 | 02:32:23 | 00:00:00 | |
| DO3MHA-11 | 2026-09-04 06:11:30 | 47.18848 | 11.98606 | 139° | 57km/h | 4568m | -4.1m/s | -0.6°C | 31.7% | 593.7hPa | 2.6V | 01:06:00 | 02:32:22 | 00:00:00 | |
| DO3MHA-12 | 2026-09-04 06:11:26 | 47.18890 | 11.98548 | 137° | 49km/h | 4584m | -4.0m/s | -0.8°C | 33.5% | 592.5hPa | 2.6V | 01:06:00 | 02:32:18 | 00:00:00 | |
| DO3MHA-11 | 2026-09-04 06:11:25 | 47.18899 | 11.98535 | 139° | 49km/h | 4588m | -3.6m/s | -0.8°C | 34.1% | 592.2hPa | 2.6V | 00:00:00 | 02:32:17 | 00:00:00 | |
| DO3MHA-12 | 2026-09-04 06:11:21 | 47.18938 | 11.98492 | 149° | 51km/h | 4604m | -4.0m/s | -1.0°C | 40.4% | 591.0hPa | 2.6V | 00:00:00 | 02:32:13 | 00:00:00 | |
| DO3MHA-11 | 2026-09-04 06:11:20 | 47.18949 | 11.98482 | 151° | 53km/h | 4609m | -4.2m/s | -1.1°C | 43.3% | 590.6hPa | 2.7V | 01:06:00 | 02:32:12 | 00:00:00 | |
| DG1MFX-10 | 2026-09-04 06:11:18 | 47.18960 | 11.98474 | 153° | 51km/h | 4613m | -4.5m/s | -1.2°C | 44.8% | 590.4hPa | 2.7V | 01:06:00 | 00:00:00 | 00:00:00 | |
| OE5DRO-10 | 2026-09-04 06:11:17 | 47.18983 | 11.98456 | 154° | 60km/h | 4621m | -4.3m/s | -1.2°C | 46.7% | 589.7hPa | 2.7V | 01:06:00 | 00:00:00 | 00:00:00 | |
| DO3MHA-12 | 2026-09-04 06:11:16 | 47.18996 | 11.98447 | 153° | 60km/h | 4626m | -4.1m/s | -1.2°C | 45.8% | 589.5hPa | 2.7V | 01:06:00 | 02:32:08 | 00:00:00 | |
| DO3MHA-11 | 2026-09-04 06:11:15 | 47.19009 | 11.98437 | 153° | 62km/h | 4630m | -3.9m/s | -1.2°C | 44.6% | 589.3hPa | 2.7V | 00:00:00 | 02:32:07 | 00:00:00 | |
| DO3MHA-11 | 2026-09-04 06:11:10 | 47.19075 | 11.98374 | 143° | 62km/h | 4650m | -4.2m/s | -1.3°C | 33.8% | 587.6hPa | 2.7V | 01:06:00 | 02:32:02 | 00:00:00 | |
| DO3MHA-12 | 2026-09-04 06:11:06 | 47.19124 | 11.98314 | 138° | 58km/h | 4667m | -4.2m/s | -1.4°C | 31.8% | 586.5hPa | 2.7V | 01:06:00 | 02:31:58 | 00:00:00 | |
| DO3MHA-11 | 2026-09-04 06:11:05 | 47.19135 | 11.98298 | 136° | 57km/h | 4671m | -4.2m/s | -1.4°C | 31.7% | 586.0hPa | 2.7V | 00:00:00 | 02:31:57 | 00:00:00 | |
| IN3HCDX | 2026-09-04 06:11:02 | 47.19156 | 11.98267 | 135° | 57km/h | 4680m | -4.3m/s | -1.5°C | 30.3% | 585.6hPa | 2.6V | 00:00:00 | 00:00:00 | 00:00:00 | |
| DO3MHA-11 | 2026-09-04 06:11:00 | 47.19183 | 11.98225 | 134° | 47km/h | 4692m | -4.3m/s | -1.6°C | 30.5% | 584.6hPa | 2.6V | 01:06:00 | 02:31:52 | 00:00:00 | |
| DG1MFX-10 | 2026-09-04 06:10:57 | 47.19201 | 11.98200 | 138° | 46km/h | 4701m | -4.2m/s | -1.7°C | 29.0% | 583.9hPa | 2.6V | 01:07:00 | 00:00:00 | 00:00:00 | |
| DO3MHA-12 | 2026-09-04 06:10:56 | 47.19218 | 11.98178 | 144° | 47km/h | 4710m | -4.6m/s | -1.7°C | 29.4% | 583.3hPa | 2.6V | 01:06:00 | 02:31:48 | 00:00:00 | |
| DO3MHA-11 | 2026-09-04 06:10:55 | 47.19227 | 11.98168 | 147° | 49km/h | 4714m | -4.4m/s | -1.7°C | 29.6% | 583.0hPa | 2.6V | 00:00:00 | 02:31:47 | 00:00:00 | |
| DO3MHA-12 | 2026-09-04 06:10:51 | 47.19271 | 11.98131 | 151° | 58km/h | 4731m | -4.2m/s | -1.9°C | 29.9% | 581.6hPa | 2.6V | 00:00:00 | 02:31:43 | 00:00:00 | |
| DO3MHA-11 | 2026-09-04 06:10:50 | 47.19283 | 11.98121 | 151° | 60km/h | 4736m | -4.2m/s | -1.9°C | 29.7% | 581.5hPa | 2.6V | 01:06:00 | 02:31:42 | 00:00:00 | |
| DO3MHA-12 | 2026-09-04 06:10:46 | 47.19334 | 11.98072 | 144° | 62km/h | 4753m | -4.4m/s | -2.0°C | 30.4% | 580.2hPa | 2.6V | 01:06:00 | 02:31:38 | 00:00:00 | |
| DO3MHA-11 | 2026-09-04 06:10:45 | 47.19346 | 11.98058 | 143° | 62km/h | 4757m | -4.2m/s | -2.1°C | 30.7% | 579.8hPa | 2.6V | 00:00:00 | 02:31:37 | 00:00:00 | |
| DO3MHA-12 | 2026-09-04 06:10:41 | 47.19392 | 11.97997 | 135° | 55km/h | 4774m | -4.1m/s | -2.2°C | 31.3% | 578.6hPa | 2.6V | 00:00:00 | 02:31:33 | 00:00:00 | |
| DO3MHA-11 | 2026-09-04 06:10:40 | 47.19403 | 11.97981 | 133° | 53km/h | 4778m | -4.3m/s | -2.3°C | 31.5% | 578.3hPa | 2.6V | 01:07:00 | 02:31:32 | 00:00:00 | |
| DO3MHA-12 | 2026-09-04 06:10:36 | 47.19438 | 11.97924 | 133° | 46km/h | 4795m | -4.2m/s | -2.4°C | 32.2% | 577.0hPa | 2.6V | 01:07:00 | 02:31:28 | 00:00:00 | |
| DO3MHA-11 | 2026-09-04 06:10:35 | 47.19446 | 11.97911 | 136° | 46km/h | 4799m | -4.0m/s | -2.5°C | 32.6% | 576.6hPa | 2.7V | 00:00:00 | 02:31:27 | 00:00:00 | |
| DO3MHA-12 | 2026-09-04 06:10:31 | 47.19480 | 11.97868 | 145° | 49km/h | 4817m | -4.6m/s | -2.6°C | 33.4% | 575.4hPa | 2.7V | 00:00:00 | 02:31:23 | 00:00:00 | |
| DO3MHA-11 | 2026-09-04 06:10:30 | 47.19490 | 11.97858 | 148° | 51km/h | 4821m | -4.3m/s | -2.7°C | 33.6% | 575.1hPa | 2.7V | 01:07:00 | 02:31:22 | 00:00:00 | |
| OE5DRO-10 | 2026-09-04 06:10:29 | 47.19500 | 11.97849 | 149° | 58km/h | 4825m | -4.0m/s | -2.7°C | 33.5% | 574.8hPa | 2.7V | 00:00:00 | 00:00:00 | 00:00:00 | |
| DO3MHA-12 | 2026-09-04 06:10:26 | 47.19534 | 11.97820 | 151° | 58km/h | 4838m | -4.4m/s | -2.8°C | 33.8% | 573.9hPa | 2.7V | 01:07:00 | 02:31:18 | 00:00:00 | |
| DO3MHA-11 | 2026-09-04 06:10:25 | 47.19547 | 11.97809 | 150° | 60km/h | 4842m | -4.2m/s | -2.9°C | 34.4% | 573.6hPa | 2.7V | 00:00:00 | 02:31:17 | 00:00:00 | |
| OE5DXL-15 | 2026-09-04 06:10:21 | 47.19598 | 11.97759 | 143° | 58km/h | 4860m | -4.4m/s | -3.0°C | 35.7% | 572.3hPa | 2.7V | 01:07:00 | 00:00:00 | 00:00:00 | |
| DO3MHA-11 | 2026-09-04 06:10:20 | 47.19610 | 11.97745 | 141° | 62km/h | 4865m | -4.4m/s | -3.1°C | 35.9% | 571.9hPa | 2.7V | 01:07:00 | 02:31:12 | 00:00:00 | |
| DO3MHA-12 | 2026-09-04 06:10:16 | 47.19657 | 11.97681 | 135° | 58km/h | 4883m | -4.7m/s | -3.2°C | 36.1% | 570.7hPa | 2.7V | 01:07:00 | 02:31:08 | 00:00:00 | |
| DO3MHA-11 | 2026-09-04 06:10:15 | 47.19668 | 11.97665 | 133° | 57km/h | 4887m | -4.5m/s | -3.3°C | 37.8% | 570.3hPa | 2.7V | 00:00:00 | 02:31:07 | 00:00:00 | |
| OE5DRO-10 | 2026-09-04 06:10:13 | 47.19688 | 11.97632 | 132° | 53km/h | 4896m | -4.6m/s | -3.4°C | 42.9% | 569.7hPa | 2.7V | 01:07:00 | 00:00:00 | 00:00:00 | |
| IN3HCDX | 2026-09-04 06:10:12 | 47.19688 | 11.97632 | 132° | 58km/h | 4896m | -4.6m/s | -3.5°C | 41.4% | 569.8hPa | 2.7V | 01:08:00 | 00:00:00 | 00:00:00 | |
| DO3MHA-12 | 2026-09-04 06:10:11 | 47.19706 | 11.97601 | 131° | 49km/h | 4905m | -4.4m/s | -3.5°C | 44.7% | 569.1hPa | 2.7V | 00:00:00 | 02:31:03 | 00:00:00 | |
| DO3MHA-11 | 2026-09-04 06:10:10 | 47.19714 | 11.97586 | 131° | 47km/h | 4910m | -4.5m/s | -3.6°C | 45.1% | 568.7hPa | 2.7V | 01:07:00 | 02:31:02 | 00:00:00 | |
| DO3MHA-12 | 2026-09-04 06:10:06 | 47.19749 | 11.97536 | 142° | 51km/h | 4926m | -4.2m/s | -3.8°C | 51.0% | 567.5hPa | 2.7V | 01:07:00 | 02:30:58 | 00:00:00 | |
| DO3MHA-11 | 2026-09-04 06:10:05 | 47.19758 | 11.97525 | 145° | 53km/h | 4931m | -4.2m/s | -3.8°C | 53.7% | 567.2hPa | 2.7V | 00:00:00 | 02:30:57 | 00:00:00 | |
| DO3MHA-12 | 2026-09-04 06:10:01 | 47.19803 | 11.97482 | 147° | 62km/h | 4948m | -4.4m/s | -3.9°C | 52.9% | 566.0hPa | 2.6V | 00:00:00 | 02:30:53 | 00:00:00 | |
| DO3MHA-11 | 2026-09-04 06:10:00 | 47.19816 | 11.97469 | 146° | 62km/h | 4952m | -4.4m/s | -3.9°C | 48.1% | 565.7hPa | 2.6V | 01:07:00 | 02:30:52 | 00:00:00 | |
| OE5DRO-10 | 2026-09-04 06:09:57 | 47.19854 | 11.97428 | 142° | 60km/h | 4966m | -4.6m/s | -4.0°C | 45.5% | 564.7hPa | 2.6V | 00:00:00 | 00:00:00 | 00:00:00 | |
| DO3MHA-12 | 2026-09-04 06:09:56 | 47.19867 | 11.97413 | 141° | 66km/h | 4971m | -4.4m/s | -3.9°C | 43.7% | 564.4hPa | 2.6V | 01:07:00 | 02:30:48 | 00:00:00 | |
| DO3MHA-11 | 2026-09-04 06:09:55 | 47.19879 | 11.97397 | 139° | 66km/h | 4975m | -4.7m/s | -4.0°C | 43.0% | 564.0hPa | 2.6V | 00:00:00 | 02:30:47 | 00:00:00 | |
| BAUMI2-15 | 2026-09-04 06:09:53 | 47.19903 | 11.97364 | 135° | 64km/h | 4984m | -4.4m/s | -4.0°C | 38.4% | 563.3hPa | 2.6V | 01:07:00 | 02:30:45 | 00:00:00 | |
| DO3MHA-12 | 2026-09-04 06:09:51 | 47.19926 | 11.97329 | 132° | 62km/h | 4993m | -4.6m/s | -4.0°C | 35.5% | 562.6hPa | 2.6V | 00:00:00 | 02:30:43 | 00:00:00 | |
| DO3MHA-11 | 2026-09-04 06:09:50 | 47.19937 | 11.97310 | 131° | 60km/h | 4998m | -4.4m/s | -4.0°C | 35.5% | 562.4hPa | 2.6V | 01:07:00 | 02:30:42 | 00:00:00 | |
| IN3HCDX | 2026-09-04 06:09:49 | 47.19937 | 11.97310 | 131° | 64km/h | 4998m | -4.4m/s | -4.1°C | 34.2% | 562.4hPa | 2.7V | 01:08:00 | 00:00:00 | 00:00:00 | |
| BAUMI2-15 | 2026-09-04 06:09:48 | 47.19957 | 11.97275 | 129° | 57km/h | 5006m | -4.3m/s | -4.1°C | 32.8% | 561.8hPa | 2.7V | 00:00:00 | 02:30:40 | 00:00:00 | |
| DO3MHA-12 | 2026-09-04 06:09:46 | 47.19975 | 11.97240 | 128° | 53km/h | 5015m | -4.5m/s | -4.1°C | 34.0% | 561.2hPa | 2.7V | 01:07:00 | 02:30:38 | 00:00:00 | |
| DO3MHA-11 | 2026-09-04 06:09:45 | 47.19984 | 11.97223 | 129° | 53km/h | 5020m | -4.2m/s | -4.2°C | 35.6% | 560.9hPa | 2.7V | 00:00:00 | 02:30:37 | 00:00:00 | |
| BAUMI2-15 | 2026-09-04 06:09:43 | 47.20001 | 11.97193 | 132° | 51km/h | 5029m | -4.2m/s | -4.3°C | 43.3% | 560.1hPa | 2.7V | 01:08:00 | 02:30:35 | 00:00:00 | |
| OE5DRO-10 | 2026-09-04 06:09:41 | 47.20019 | 11.97166 | 137° | 62km/h | 5037m | -4.0m/s | -4.4°C | 48.7% | 559.5hPa | 2.7V | 01:08:00 | 00:00:00 | 00:00:00 | |
| BAUMI2-15 | 2026-09-04 06:09:38 | 47.20049 | 11.97127 | 141° | 58km/h | 5051m | -4.2m/s | -4.5°C | 52.9% | 558.7hPa | 2.7V | 00:00:00 | 02:30:30 | 00:00:00 | |
| DO3MHA-12 | 2026-09-04 06:09:36 | 47.20071 | 11.97102 | 142° | 64km/h | 5060m | -4.3m/s | -4.6°C | 53.7% | 558.0hPa | 2.7V | 00:00:00 | 02:30:28 | 00:00:00 | |
| DO3MHA-11 | 2026-09-04 06:09:35 | 47.20083 | 11.97088 | 143° | 66km/h | 5064m | -4.5m/s | -4.6°C | 54.0% | 557.7hPa | 2.7V | 01:08:00 | 02:30:27 | 00:00:00 | |
| DG1MFX-10 | 2026-09-04 06:09:34 | 47.20083 | 11.97088 | 144° | 60km/h | 5064m | -4.6m/s | -4.7°C | 52.2% | 557.7hPa | 2.7V | 01:08:00 | 00:00:00 | 00:00:00 | |
| BAUMI2-15 | 2026-09-04 06:09:33 | 47.20108 | 11.97061 | 143° | 66km/h | 5073m | -4.6m/s | -4.7°C | 54.6% | 557.1hPa | 2.7V | 01:08:00 | 02:30:25 | 00:00:00 | |
| BAUMI2-15 | 2026-09-04 06:09:28 | 47.20172 | 11.96981 | 137° | 69km/h | 5096m | -4.3m/s | -4.9°C | 57.6% | 555.4hPa | 2.7V | 00:00:00 | 02:30:20 | 00:00:00 | |
| DO3MHA-12 | 2026-09-04 06:09:26 | 47.20197 | 11.96945 | 134° | 64km/h | 5104m | -4.4m/s | -5.0°C | 58.7% | 554.8hPa | 2.6V | 01:08:00 | 02:30:18 | 00:00:00 | |
| DO3MHA-11 | 2026-09-04 06:09:25 | 47.20208 | 11.96926 | 132° | 62km/h | 5109m | -4.7m/s | -5.1°C | 58.8% | 554.5hPa | 2.6V | 00:00:00 | 02:30:17 | 00:00:00 | |
| BAUMI2-15 | 2026-09-04 06:09:23 | 47.20231 | 11.96887 | 129° | 64km/h | 5119m | -4.7m/s | -5.2°C | 59.5% | 553.9hPa | 2.7V | 01:08:00 | 02:30:15 | 00:00:00 | |
| OE5DXL-15 | 2026-09-04 06:09:21 | 47.20251 | 11.96849 | 127° | 64km/h | 5128m | -4.5m/s | -5.2°C | 60.1% | 553.2hPa | 2.7V | 01:08:00 | 00:00:00 | 00:00:00 | |
| BAUMI2-15 | 2026-09-04 06:09:18 | 47.20280 | 11.96794 | 128° | 57km/h | 5141m | -4.2m/s | -5.4°C | 61.3% | 552.2hPa | 2.6V | 00:00:00 | 02:30:10 | 00:00:00 | |
| DO3MHA-12 | 2026-09-04 06:09:16 | 47.20298 | 11.96761 | 132° | 60km/h | 5150m | -4.4m/s | -5.4°C | 61.1% | 551.6hPa | 2.6V | 00:00:00 | 02:30:08 | 00:00:00 | |
| DO3MHA-11 | 2026-09-04 06:09:15 | 47.20307 | 11.96747 | 135° | 62km/h | 5154m | -4.3m/s | -5.5°C | 60.2% | 551.3hPa | 2.6V | 01:08:00 | 02:30:07 | 00:00:00 | |
| DG1MFX-10 | 2026-09-04 06:09:14 | 47.20307 | 11.96747 | 136° | 55km/h | 5154m | -4.3m/s | -5.5°C | 58.2% | 551.3hPa | 2.6V | 01:09:00 | 00:00:00 | 00:00:00 | |
| BAUMI2-15 | 2026-09-04 06:09:13 | 47.20328 | 11.96718 | 140° | 60km/h | 5162m | -4.2m/s | -5.5°C | 57.4% | 550.7hPa | 2.6V | 01:08:00 | 02:30:05 | 00:00:00 | |
| OE5DRO-10 | 2026-09-04 06:09:09 | 47.20376 | 11.96662 | 142° | 68km/h | 5180m | -4.2m/s | -5.6°C | 53.9% | 549.4hPa | 2.7V | 01:08:00 | 00:00:00 | 00:00:00 | |
| BAUMI2-15 | 2026-09-04 06:09:08 | 47.20388 | 11.96647 | 142° | 69km/h | 5185m | -4.7m/s | -5.7°C | 55.1% | 549.1hPa | 2.7V | 00:00:00 | 02:30:00 | 00:00:00 | |
| DO3MHA-12 | 2026-09-04 06:09:06 | 47.20415 | 11.96615 | 140° | 69km/h | 5195m | -4.7m/s | -5.7°C | 52.2% | 548.5hPa | 2.7V | 01:08:00 | 02:29:58 | 00:00:00 | |
| DO3MHA-11 | 2026-09-04 06:09:05 | 47.20429 | 11.96598 | 138° | 69km/h | 5200m | -5.0m/s | -5.8°C | 51.5% | 548.1hPa | 2.7V | 00:00:00 | 02:29:57 | 00:00:00 | |
| IN3HCDX | 2026-09-04 06:09:04 | 47.20442 | 11.96580 | 137° | 73km/h | 5204m | -4.6m/s | -5.9°C | 50.9% | 547.9hPa | 2.7V | 00:00:00 | 00:00:00 | 00:00:00 | |
| BAUMI2-15 | 2026-09-04 06:09:03 | 47.20455 | 11.96561 | 135° | 71km/h | 5209m | -4.7m/s | -5.9°C | 55.4% | 547.6hPa | 2.7V | 01:08:00 | 02:29:55 | 00:00:00 | |
| BAUMI2-15 | 2026-09-04 06:08:58 | 47.20512 | 11.96462 | 128° | 62km/h | 5232m | -4.7m/s | -6.1°C | 64.8% | 546.0hPa | 2.7V | 00:00:00 | 02:29:50 | 00:00:00 | |
| DO3MHA-12 | 2026-09-04 06:08:56 | 47.20532 | 11.96424 | 129° | 58km/h | 5241m | -4.7m/s | -6.2°C | 67.2% | 545.3hPa | 2.7V | 00:00:00 | 02:29:48 | 00:00:00 | |
| DO3MHA-11 | 2026-09-04 06:08:55 | 47.20542 | 11.96407 | 129° | 58km/h | 5246m | -4.3m/s | -6.2°C | 67.5% | 545.0hPa | 2.6V | 01:08:00 | 02:29:47 | 00:00:00 | |
| BAUMI2-15 | 2026-09-04 06:08:53 | 47.20560 | 11.96374 | 133° | 57km/h | 5254m | -4.6m/s | -6.3°C | 68.0% | 544.4hPa | 2.6V | 01:08:00 | 02:29:45 | 00:00:00 | |
| OE5DXL-15 | 2026-09-04 06:08:51 | 47.20580 | 11.96345 | 136° | 68km/h | 5263m | -3.8m/s | -6.4°C | 68.8% | 543.8hPa | 2.6V | 00:00:00 | 00:00:00 | 00:00:00 | |
| BAUMI2-15 | 2026-09-04 06:08:48 | 47.20613 | 11.96303 | 142° | 64km/h | 5276m | -4.3m/s | -6.5°C | 69.8% | 542.8hPa | 2.6V | 00:00:00 | 02:29:40 | 00:00:00 | |
| DO3MHA-12 | 2026-09-04 06:08:46 | 47.20637 | 11.96275 | 143° | 68km/h | 5285m | -4.1m/s | -6.6°C | 70.8% | 542.0hPa | 2.6V | 01:08:00 | 02:29:38 | 00:00:00 | |
| DO3MHA-11 | 2026-09-04 06:08:45 | 47.20650 | 11.96261 | 143° | 69km/h | 5289m | -4.4m/s | -6.6°C | 71.1% | 541.8hPa | 2.6V | 00:00:00 | 02:29:37 | 00:00:00 | |
| BAUMI2-15 | 2026-09-04 06:08:43 | 47.20677 | 11.96230 | 142° | 69km/h | 5298m | -4.3m/s | -6.7°C | 71.8% | 541.3hPa | 2.6V | 01:09:00 | 02:29:35 | 00:00:00 | |
| IN3HCDX | 2026-09-04 06:08:42 | 47.20677 | 11.96230 | 142° | 69km/h | 5298m | -4.4m/s | -6.8°C | 69.3% | 541.3hPa | 2.7V | 01:09:00 | 00:00:00 | 00:00:00 | |
| BAUMI2-15 | 2026-09-04 06:08:38 | 47.20743 | 11.96145 | 139° | 68km/h | 5320m | -4.4m/s | -6.9°C | 73.9% | 539.7hPa | 2.7V | 00:00:00 | 02:29:30 | 00:00:00 | |
| OE5DRO-10 | 2026-09-04 06:08:37 | 47.20756 | 11.96128 | 140° | 71km/h | 5325m | -4.4m/s | -7.0°C | 74.4% | 539.5hPa | 2.7V | 01:09:00 | 00:00:00 | 00:00:00 | |
| DO3MHA-12 | 2026-09-04 06:08:36 | 47.20770 | 11.96112 | 141° | 69km/h | 5329m | -4.4m/s | -7.0°C | 74.3% | 539.1hPa | 2.7V | 00:00:00 | 02:29:28 | 00:00:00 | |
| DO3MHA-11 | 2026-09-04 06:08:35 | 47.20783 | 11.96096 | 142° | 69km/h | 5333m | -4.4m/s | -7.0°C | 74.2% | 538.9hPa | 2.7V | 01:09:00 | 02:29:27 | 00:00:00 | |
| BAUMI2-15 | 2026-09-04 06:08:33 | 47.20811 | 11.96064 | 143° | 69km/h | 5343m | -5.3m/s | -7.1°C | 73.1% | 538.1hPa | 2.7V | 01:09:00 | 02:29:25 | 00:00:00 | |
| DG1MFX-10 | 2026-09-04 06:08:32 | 47.20811 | 11.96064 | 144° | 69km/h | 5343m | -5.4m/s | -7.2°C | 70.4% | 538.1hPa | 2.7V | 01:09:00 | 00:00:00 | 00:00:00 | |
| BAUMI2-15 | 2026-09-04 06:08:28 | 47.20881 | 11.95985 | 143° | 71km/h | 5368m | -4.9m/s | -7.3°C | 72.6% | 536.4hPa | 2.7V | 00:00:00 | 02:29:20 | 00:00:00 | |
| DO3MHA-12 | 2026-09-04 06:08:26 | 47.20910 | 11.95953 | 143° | 73km/h | 5377m | -4.7m/s | -7.4°C | 72.4% | 535.8hPa | 2.7V | 01:09:00 | 02:29:18 | 00:00:00 | |
| DO3MHA-11 | 2026-09-04 06:08:25 | 47.20924 | 11.95937 | 143° | 73km/h | 5382m | -5.1m/s | -7.4°C | 72.2% | 535.4hPa | 2.6V | 00:00:00 | 02:29:17 | 00:00:00 | |
| OE5DXL-15 | 2026-09-04 06:08:21 | 47.20982 | 11.95871 | 141° | 71km/h | 5401m | -4.6m/s | -7.6°C | 72.2% | 534.2hPa | 2.6V | 01:09:00 | 00:00:00 | 00:00:00 | |
| BAUMI2-15 | 2026-09-04 06:08:18 | 47.21024 | 11.95819 | 140° | 73km/h | 5415m | -5.2m/s | -7.7°C | 71.6% | 533.1hPa | 2.6V | 00:00:00 | 02:29:10 | 00:00:00 | |
| DO3MHA-12 | 2026-09-04 06:08:16 | 47.21052 | 11.95784 | 139° | 69km/h | 5424m | -4.5m/s | -7.7°C | 71.3% | 532.6hPa | 2.6V | 00:00:00 | 02:29:08 | 00:00:00 | |
| DO3MHA-11 | 2026-09-04 06:08:15 | 47.21066 | 11.95766 | 138° | 69km/h | 5429m | -4.5m/s | -7.8°C | 71.4% | 532.2hPa | 2.6V | 01:09:00 | 02:29:07 | 00:00:00 | |
| BAUMI2-15 | 2026-09-04 06:08:13 | 47.21092 | 11.95730 | 136° | 69km/h | 5438m | -4.2m/s | -7.8°C | 70.9% | 531.7hPa | 2.6V | 01:09:00 | 02:29:05 | 00:00:00 | |
| DG1MFX-10 | 2026-09-04 06:08:11 | 47.21104 | 11.95712 | 137° | 69km/h | 5442m | -4.8m/s | -7.9°C | 68.1% | 531.4hPa | 2.7V | 01:09:00 | 00:00:00 | 00:00:00 | |
| BAUMI2-15 | 2026-09-04 06:08:08 | 47.21154 | 11.95641 | 136° | 69km/h | 5461m | -4.6m/s | -8.0°C | 70.9% | 530.0hPa | 2.7V | 00:00:00 | 02:29:00 | 00:00:00 | |
| IN3IJJ | 2026-09-04 06:08:07 | 47.21154 | 11.95640 | 136° | 68km/h | 5461m | -4.6m/s | -8.1°C | 68.2% | 530.1hPa | 2.7V | 00:00:00 | 00:00:00 | 00:00:00 | |
| DO3MHA-11 | 2026-09-04 06:08:05 | 47.21190 | 11.95586 | 135° | 71km/h | 5477m | -4.9m/s | -8.1°C | 70.0% | 529.2hPa | 2.7V | 00:00:00 | 02:28:57 | 00:00:00 | |
| IN3HCDX | 2026-09-04 06:08:00 | 47.21241 | 11.95514 | 138° | 71km/h | 5496m | -4.5m/s | -8.3°C | 67.1% | 527.7hPa | 2.7V | 01:09:00 | 00:00:00 | 00:00:00 | |
| DO3MHA-12 | 2026-09-04 06:07:56 | 47.21309 | 11.95424 | 140° | 73km/h | 5519m | -4.7m/s | -8.4°C | 69.3% | 526.2hPa | 2.7V | 00:00:00 | 02:28:48 | 00:00:00 | |
| DO3MHA-11 | 2026-09-04 06:07:55 | 47.21324 | 11.95406 | 140° | 73km/h | 5524m | -4.6m/s | -8.5°C | 69.1% | 525.8hPa | 2.6V | 01:09:00 | 02:28:47 | 00:00:00 | |
| OE5DXL-15 | 2026-09-04 06:07:51 | 47.21380 | 11.95334 | 139° | 69km/h | 5543m | -4.3m/s | -8.6°C | 67.8% | 524.6hPa | 2.7V | 00:00:00 | 00:00:00 | 00:00:00 | |
| DG1MFX-10 | 2026-09-04 06:07:50 | 47.21380 | 11.95334 | 139° | 73km/h | 5543m | -4.4m/s | -8.7°C | 65.2% | 524.6hPa | 2.7V | 01:10:00 | 00:00:00 | 00:00:00 | |
| OE5DRO-10 | 2026-09-04 06:07:49 | 47.21408 | 11.95298 | 138° | 71km/h | 5553m | -5.3m/s | -8.7°C | 67.9% | 523.9hPa | 2.7V | 00:00:00 | 00:00:00 | 00:00:00 | |
| DO3MHA-12 | 2026-09-04 06:07:46 | 47.21448 | 11.95242 | 137° | 71km/h | 5567m | -4.5m/s | -8.8°C | 68.2% | 522.9hPa | 2.7V | 01:09:00 | 02:28:38 | 00:00:00 | |
| DO3MHA-11 | 2026-09-04 06:07:45 | 47.21461 | 11.95223 | 136° | 69km/h | 5572m | -4.9m/s | -8.9°C | 68.5% | 522.6hPa | 2.7V | 00:00:00 | 02:28:37 | 00:00:00 | |
| DL6DJ-15 | 2026-09-04 06:07:44 | 47.21525 | 11.95130 | 134° | 69km/h | 5596m | -5.2m/s | -9.1°C | 66.6% | 521.1hPa | 2.7V | 00:00:00 | 00:00:00 | 00:00:00 | |
| IN3HCDX | 2026-09-04 06:07:40 | 47.21524 | 11.95130 | 135° | 69km/h | 5596m | -5.2m/s | -9.1°C | 66.6% | 521.1hPa | 2.7V | 01:10:00 | 00:00:00 | 00:00:00 | |
| DO3MHA-12 | 2026-09-04 06:07:36 | 47.21573 | 11.95056 | 134° | 69km/h | 5616m | -4.3m/s | -9.2°C | 68.8% | 519.8hPa | 2.7V | 00:00:00 | 02:28:28 | 00:00:00 | |
| DO3MHA-11 | 2026-09-04 06:07:35 | 47.21584 | 11.95038 | 134° | 69km/h | 5621m | -4.3m/s | -9.2°C | 68.3% | 519.3hPa | 2.7V | 01:10:00 | 02:28:27 | 00:00:00 | |
| OE5DRO-10 | 2026-09-04 06:07:33 | 47.21608 | 11.95001 | 134° | 68km/h | 5630m | -5.5m/s | -9.2°C | 64.6% | 518.7hPa | 2.7V | 01:10:00 | 00:00:00 | 00:00:00 | |
| DG1MFX-10 | 2026-09-04 06:07:30 | 47.21632 | 11.94963 | 133° | 69km/h | 5640m | -5.1m/s | -9.3°C | 62.1% | 518.2hPa | 2.7V | 01:10:00 | 00:00:00 | 00:00:00 | |
| DO3MHA-12 | 2026-09-04 06:07:26 | 47.21690 | 11.94869 | 132° | 66km/h | 5665m | -4.9m/s | -9.5°C | 65.5% | 516.5hPa | 2.7V | 01:10:00 | 02:28:18 | 00:00:00 | |
| DO3MHA-11 | 2026-09-04 06:07:25 | 47.21702 | 11.94850 | 132° | 66km/h | 5670m | -4.8m/s | -9.5°C | 65.5% | 516.3hPa | 2.6V | 00:00:00 | 02:28:17 | 00:00:00 | |
| OE5DXL-15 | 2026-09-04 06:07:21 | 47.21747 | 11.94777 | 132° | 64km/h | 5687m | -4.8m/s | -9.7°C | 65.4% | 515.0hPa | 2.6V | 01:10:00 | 00:00:00 | 00:00:00 | |
| IN3HCDX | 2026-09-04 06:07:18 | 47.21769 | 11.94740 | 134° | 66km/h | 5697m | -4.6m/s | -9.7°C | 61.3% | 514.4hPa | 2.6V | 01:10:00 | 00:00:00 | 00:00:00 | |
| OE5DRO-10 | 2026-09-04 06:07:17 | 47.21792 | 11.94706 | 136° | 64km/h | 5706m | -5.0m/s | -9.7°C | 62.6% | 513.7hPa | 2.6V | 00:00:00 | 00:00:00 | 00:00:00 | |
| DO3MHA-12 | 2026-09-04 06:07:16 | 47.21804 | 11.94689 | 137° | 64km/h | 5711m | -4.4m/s | -9.8°C | 62.5% | 513.4hPa | 2.6V | 00:00:00 | 02:28:08 | 00:00:00 | |
| DO3MHA-11 | 2026-09-04 06:07:15 | 47.21816 | 11.94672 | 137° | 64km/h | 5715m | -4.8m/s | -9.8°C | 62.6% | 513.2hPa | 2.6V | 01:10:00 | 02:28:07 | 00:00:00 | |
| IN3IJJ | 2026-09-04 06:07:13 | 47.21828 | 11.94656 | 138° | 64km/h | 5720m | -4.6m/s | -9.9°C | 60.2% | 512.9hPa | 2.6V | 00:00:00 | 00:00:00 | 00:00:00 | |
| DG1MFX-10 | 2026-09-04 06:07:09 | 47.21875 | 11.94591 | 138° | 64km/h | 5738m | -4.7m/s | -10.0°C | 59.6% | 511.6hPa | 2.6V | 01:10:00 | 00:00:00 | 00:00:00 | |
| DO3MHA-12 | 2026-09-04 06:07:06 | 47.21922 | 11.94526 | 137° | 62km/h | 5758m | -5.0m/s | -10.1°C | 62.4% | 510.3hPa | 2.6V | 01:10:00 | 02:27:58 | 00:00:00 | |
| DO3MHA-11 | 2026-09-04 06:07:05 | 47.21933 | 11.94510 | 137° | 62km/h | 5762m | -4.4m/s | -10.1°C | 62.3% | 509.9hPa | 2.6V | 00:00:00 | 02:27:57 | 00:00:00 | |
| OE5DRO-10 | 2026-09-04 06:07:01 | 47.21979 | 11.94445 | 135° | 66km/h | 5781m | -5.0m/s | -10.2°C | 59.0% | 508.7hPa | 2.6V | 01:10:00 | 00:00:00 | 00:00:00 | |
| IN3HCDX | 2026-09-04 06:06:58 | 47.22001 | 11.94412 | 136° | 62km/h | 5791m | -4.6m/s | -10.3°C | 55.8% | 508.1hPa | 2.6V | 01:11:00 | 00:00:00 | 00:00:00 | |
| DO3MHA-12 | 2026-09-04 06:06:56 | 47.22033 | 11.94362 | 132° | 66km/h | 5805m | -4.9m/s | -10.3°C | 57.6% | 507.0hPa | 2.6V | 00:00:00 | 02:27:48 | 00:00:00 | |
| DO3MHA-11 | 2026-09-04 06:06:55 | 47.22044 | 11.94344 | 132° | 68km/h | 5809m | -4.3m/s | -10.4°C | 57.4% | 506.7hPa | 2.7V | 01:10:00 | 02:27:47 | 00:00:00 | |
| OE5DXL-15 | 2026-09-04 06:06:51 | 47.22086 | 11.94271 | 130° | 66km/h | 5828m | -4.7m/s | -10.5°C | 53.5% | 505.5hPa | 2.7V | 00:00:00 | 00:00:00 | 00:00:00 | |
| DG1MFX-10 | 2026-09-04 06:06:48 | 47.22108 | 11.94232 | 131° | 68km/h | 5838m | -4.6m/s | -10.6°C | 51.1% | 504.9hPa | 2.7V | 00:00:00 | 00:00:00 | 00:00:00 | |
| DO3MHA-12 | 2026-09-04 06:06:46 | 47.22142 | 11.94173 | 132° | 71km/h | 5852m | -4.6m/s | -10.6°C | 53.6% | 503.9hPa | 2.7V | 01:10:00 | 02:27:38 | 00:00:00 | |
| DO3MHA-11 | 2026-09-04 06:06:45 | 47.22154 | 11.94153 | 132° | 71km/h | 5857m | -4.8m/s | -10.7°C | 53.5% | 503.7hPa | 2.7V | 00:00:00 | 02:27:37 | 00:00:00 | |
| IN3HCDX | 2026-09-04 06:06:37 | 47.22239 | 11.94014 | 133° | 71km/h | 5891m | -5.7m/s | -11.0°C | 51.3% | 501.5hPa | 2.7V | 01:11:00 | 00:00:00 | 00:00:00 | |
| DO3MHA-12 | 2026-09-04 06:06:36 | 47.22262 | 11.93974 | 131° | 64km/h | 5902m | -4.8m/s | -11.1°C | 53.7% | 500.8hPa | 2.7V | 00:00:00 | 02:27:28 | 00:00:00 | |
| IN3IJJ | 2026-09-04 06:06:33 | 47.22285 | 11.93935 | 131° | 68km/h | 5911m | -5.0m/s | -11.2°C | 51.1% | 500.3hPa | 2.7V | 01:11:00 | 00:00:00 | 00:00:00 | |
| OE5DRO-10 | 2026-09-04 06:06:29 | 47.22338 | 11.93846 | 134° | 60km/h | 5935m | -4.7m/s | -11.3°C | 52.0% | 498.7hPa | 2.7V | 01:11:00 | 00:00:00 | 00:00:00 | |
| DG1MFX-10 | 2026-09-04 06:06:28 | 47.22338 | 11.93846 | 134° | 60km/h | 5935m | -4.8m/s | -11.4°C | 49.7% | 498.7hPa | 2.7V | 00:00:00 | 00:00:00 | 00:00:00 | |
| DO3MHA-12 | 2026-09-04 06:06:26 | 47.22369 | 11.93798 | 135° | 60km/h | 5950m | -4.7m/s | -11.4°C | 49.5% | 497.7hPa | 2.7V | 01:11:00 | 02:27:18 | 00:00:00 | |
| DO3MHA-11 | 2026-09-04 06:06:25 | 47.22380 | 11.93782 | 135° | 60km/h | 5955m | -4.5m/s | -11.4°C | 47.5% | 497.5hPa | 2.7V | 00:00:00 | 02:27:17 | 00:00:00 | |
| OE5DXL-15 | 2026-09-04 06:06:21 | 47.22422 | 11.93717 | 134° | 62km/h | 5974m | -4.5m/s | -11.4°C | 42.5% | 496.3hPa | 2.7V | 01:11:00 | 00:00:00 | 00:00:00 | |
| DO3MHA-12 | 2026-09-04 06:06:16 | 47.22474 | 11.93632 | 132° | 62km/h | 5999m | -4.6m/s | -11.4°C | 40.5% | 494.7hPa | 2.7V | 00:00:00 | 02:27:08 | 00:00:00 | |
| DO3MHA-11 | 2026-09-04 06:06:15 | 47.22484 | 11.93615 | 132° | 62km/h | 6004m | -5.0m/s | -11.5°C | 40.5% | 494.2hPa | 2.7V | 01:11:00 | 02:27:07 | 00:00:00 | |
| OE5DRO-10 | 2026-09-04 06:06:13 | 47.22505 | 11.93580 | 132° | 62km/h | 6015m | -4.9m/s | -11.5°C | 40.6% | 493.7hPa | 2.7V | 00:00:00 | 00:00:00 | 00:00:00 | |
| DL6DJ-15 | 2026-09-04 06:06:11 | 47.22547 | 11.93511 | 130° | 62km/h | 6034m | -4.6m/s | -11.7°C | 38.5% | 492.5hPa | 2.7V | 00:00:00 | 00:00:00 | 00:00:00 | |
| DO3MHA-12 | 2026-09-04 06:06:06 | 47.22577 | 11.93458 | 131° | 62km/h | 6048m | -4.2m/s | -11.7°C | 39.7% | 491.5hPa | 2.7V | 01:11:00 | 02:26:58 | 00:00:00 | |
| DO3MHA-11 | 2026-09-04 06:06:05 | 47.22587 | 11.93441 | 131° | 62km/h | 6053m | -4.7m/s | -11.8°C | 39.3% | 491.2hPa | 2.7V | 00:00:00 | 02:26:57 | 00:00:00 | |
| BAUMI2-15 | 2026-09-04 06:05:58 | 47.22659 | 11.93317 | 130° | 60km/h | 6086m | -4.9m/s | -12.0°C | 38.4% | 488.9hPa | 2.7V | 00:00:00 | 02:26:50 | 00:00:00 | |
| OE5DRO-10 | 2026-09-04 06:05:57 | 47.22669 | 11.93300 | 131° | 58km/h | 6091m | -5.5m/s | -12.0°C | 37.0% | 488.6hPa | 2.6V | 01:11:00 | 00:00:00 | 00:00:00 | |
| DO3MHA-12 | 2026-09-04 06:05:56 | 47.22679 | 11.93282 | 131° | 58km/h | 6097m | -5.4m/s | -12.0°C | 35.7% | 488.4hPa | 2.6V | 00:00:00 | 02:26:48 | 00:00:00 | |
| DO3MHA-11 | 2026-09-04 06:05:55 | 47.22689 | 11.93265 | 132° | 58km/h | 6102m | -5.4m/s | -12.0°C | 34.7% | 488.0hPa | 2.6V | 01:11:00 | 02:26:47 | 00:00:00 | |
| BAUMI2-15 | 2026-09-04 06:05:53 | 47.22709 | 11.93232 | 132° | 58km/h | 6112m | -4.4m/s | -12.0°C | 33.5% | 487.3hPa | 2.7V | 01:11:00 | 02:26:45 | 00:00:00 | |
| OE5DXL-15 | 2026-09-04 06:05:51 | 47.22729 | 11.93199 | 133° | 60km/h | 6122m | -4.6m/s | -12.1°C | 33.9% | 486.8hPa | 2.7V | 00:00:00 | 00:00:00 | 00:00:00 | |
| BAUMI2-15 | 2026-09-04 06:05:48 | 47.22758 | 11.93151 | 132° | 58km/h | 6137m | -4.8m/s | -12.1°C | 33.5% | 485.8hPa | 2.7V | 00:00:00 | 02:26:40 | 00:00:00 | |
| DO3MHA-12 | 2026-09-04 06:05:46 | 47.22778 | 11.93118 | 132° | 58km/h | 6146m | -4.8m/s | -12.1°C | 32.4% | 485.1hPa | 2.7V | 01:11:00 | 02:26:38 | 00:00:00 | |
| DO3MHA-11 | 2026-09-04 06:05:45 | 47.22788 | 11.93101 | 132° | 58km/h | 6151m | -4.8m/s | -12.2°C | 32.4% | 484.8hPa | 2.7V | 00:00:00 | 02:26:37 | 00:00:00 | |
| BAUMI2-15 | 2026-09-04 06:05:43 | 47.22807 | 11.93069 | 131° | 58km/h | 6162m | -4.9m/s | -12.2°C | 32.6% | 484.2hPa | 2.7V | 01:12:00 | 02:26:35 | 00:00:00 | |
| OE5DRO-10 | 2026-09-04 06:05:41 | 47.22826 | 11.93036 | 131° | 60km/h | 6171m | -4.8m/s | -12.3°C | 32.6% | 483.5hPa | 2.7V | 00:00:00 | 00:00:00 | 00:00:00 | |
| BAUMI2-15 | 2026-09-04 06:05:38 | 47.22855 | 11.92985 | 130° | 58km/h | 6186m | -4.8m/s | -12.4°C | 32.7% | 482.7hPa | 2.7V | 00:00:00 | 02:26:30 | 00:00:00 | |
| DO3MHA-12 | 2026-09-04 06:05:36 | 47.22874 | 11.92951 | 130° | 60km/h | 6197m | -4.9m/s | -12.5°C | 32.9% | 482.0hPa | 2.7V | 00:00:00 | 02:26:28 | 00:00:00 | |
| DO3MHA-11 | 2026-09-04 06:05:35 | 47.22883 | 11.92934 | 128° | 60km/h | 6201m | -5.0m/s | -12.6°C | 32.9% | 481.6hPa | 2.7V | 01:12:00 | 02:26:27 | 00:00:00 | |
| IN3HCDX | 2026-09-04 06:05:34 | 47.22884 | 11.92934 | 129° | 58km/h | 6201m | -5.1m/s | -12.6°C | 31.2% | 481.7hPa | 2.7V | 01:12:00 | 00:00:00 | 00:00:00 | |
| BAUMI2-15 | 2026-09-04 06:05:33 | 47.22902 | 11.92899 | 128° | 60km/h | 6212m | -4.8m/s | -12.7°C | 33.2% | 481.0hPa | 2.7V | 01:12:00 | 02:26:25 | 00:00:00 | |
| IN3IJJ | 2026-09-04 06:05:29 | 47.22930 | 11.92847 | 128° | 60km/h | 6226m | -5.0m/s | -12.9°C | 32.0% | 480.0hPa | 2.7V | 00:00:00 | 00:00:00 | 00:00:00 | |
| BAUMI2-15 | 2026-09-04 06:05:28 | 47.22948 | 11.92810 | 127° | 62km/h | 6237m | -5.3m/s | -12.9°C | 33.5% | 479.3hPa | 2.7V | 00:00:00 | 02:26:20 | 00:00:00 | |
| DO3MHA-12 | 2026-09-04 06:05:26 | 47.22966 | 11.92773 | 126° | 64km/h | 6247m | -4.6m/s | -13.0°C | 33.1% | 478.8hPa | 2.7V | 01:12:00 | 02:26:18 | 00:00:00 | |
| DO3MHA-11 | 2026-09-04 06:05:25 | 47.22975 | 11.92754 | 126° | 66km/h | 6252m | -4.8m/s | -13.0°C | 32.8% | 478.4hPa | 2.6V | 00:00:00 | 02:26:17 | 00:00:00 | |
| DG1MFX-10 | 2026-09-04 06:05:24 | 47.22975 | 11.92754 | 126° | 62km/h | 6252m | -4.9m/s | -13.0°C | 31.1% | 478.5hPa | 2.6V | 01:12:00 | 00:00:00 | 00:00:00 | |
| BAUMI2-15 | 2026-09-04 06:05:23 | 47.22994 | 11.92715 | 125° | 66km/h | 6262m | -4.9m/s | -13.0°C | 32.0% | 477.7hPa | 2.6V | 01:12:00 | 02:26:15 | 00:00:00 | |
| OE5DXL-15 | 2026-09-04 06:05:21 | 47.23013 | 11.92676 | 125° | 62km/h | 6272m | -4.9m/s | -13.1°C | 32.0% | 477.1hPa | 2.6V | 01:12:00 | 00:00:00 | 00:00:00 | |
| BAUMI2-15 | 2026-09-04 06:05:18 | 47.23041 | 11.92615 | 125° | 66km/h | 6287m | -4.9m/s | -13.2°C | 32.2% | 476.1hPa | 2.6V | 00:00:00 | 02:26:10 | 00:00:00 | |
| DO3MHA-12 | 2026-09-04 06:05:16 | 47.23060 | 11.92574 | 125° | 66km/h | 6297m | -4.9m/s | -13.3°C | 32.5% | 475.5hPa | 2.6V | 00:00:00 | 02:26:08 | 00:00:00 | |
| DO3MHA-11 | 2026-09-04 06:05:15 | 47.23069 | 11.92554 | 124° | 66km/h | 6302m | -5.3m/s | -13.3°C | 32.6% | 475.1hPa | 2.6V | 01:12:00 | 02:26:07 | 00:00:00 | |
| BAUMI2-15 | 2026-09-04 06:05:13 | 47.23088 | 11.92513 | 123° | 66km/h | 6313m | -5.9m/s | -13.4°C | 32.6% | 474.5hPa | 2.6V | 01:12:00 | 02:26:05 | 00:00:00 | |
| NBG1-10 | 2026-09-04 06:05:12 | 47.23097 | 11.92492 | 123° | 60km/h | 6319m | -5.3m/s | -13.5°C | 32.8% | 474.3hPa | 2.6V | 00:00:00 | 02:26:04 | 00:00:00 | |
| DL6DJ-15 | 2026-09-04 06:05:09 | 47.23132 | 11.92411 | 121° | 64km/h | 6339m | -5.0m/s | -13.6°C | 30.0% | 472.8hPa | 2.6V | 00:00:00 | 00:00:00 | 00:00:00 | |
| BAUMI2-15 | 2026-09-04 06:05:08 | 47.23132 | 11.92410 | 122° | 64km/h | 6339m | -4.9m/s | -13.5°C | 31.6% | 472.7hPa | 2.6V | 00:00:00 | 02:26:00 | 00:00:00 | |
| DO3MHA-12 | 2026-09-04 06:05:06 | 47.23149 | 11.92370 | 121° | 60km/h | 6349m | -5.4m/s | -13.5°C | 29.6% | 472.2hPa | 2.6V | 01:12:00 | 02:25:58 | 00:00:00 | |
| DO3MHA-11 | 2026-09-04 06:05:05 | 47.23157 | 11.92349 | 121° | 60km/h | 6354m | -4.9m/s | -13.5°C | 28.8% | 471.9hPa | 2.6V | 00:00:00 | 02:25:57 | 00:00:00 | |
| BAUMI2-15 | 2026-09-04 06:05:03 | 47.23173 | 11.92309 | 120° | 60km/h | 6365m | -6.0m/s | -13.5°C | 28.0% | 471.3hPa | 2.6V | 01:12:00 | 02:25:55 | 00:00:00 | |
| BAUMI2-15 | 2026-09-04 06:04:58 | 47.23209 | 11.92211 | 118° | 55km/h | 6393m | -5.5m/s | -13.5°C | 25.6% | 469.6hPa | 2.6V | 00:00:00 | 02:25:50 | 00:00:00 | |
| IN3IJJ | 2026-09-04 06:04:57 | 47.23209 | 11.92211 | 119° | 57km/h | 6393m | -5.5m/s | -13.6°C | 24.2% | 469.7hPa | 2.6V | 00:00:00 | 00:00:00 | 00:00:00 | |
| DO3MHA-12 | 2026-09-04 06:04:56 | 47.23223 | 11.92175 | 120° | 55km/h | 6404m | -5.1m/s | -13.6°C | 24.7% | 468.9hPa | 2.6V | 00:00:00 | 02:25:48 | 00:00:00 | |
| DO3MHA-11 | 2026-09-04 06:04:55 | 47.23230 | 11.92158 | 121° | 57km/h | 6409m | -5.4m/s | -13.6°C | 24.9% | 468.7hPa | 2.6V | 01:12:00 | 02:25:47 | 00:00:00 | |
| BAUMI2-15 | 2026-09-04 06:04:53 | 47.23244 | 11.92124 | 126° | 55km/h | 6420m | -5.1m/s | -13.6°C | 25.2% | 468.0hPa | 2.6V | 01:12:00 | 02:25:45 | 00:00:00 | |
| OE5DXL-15 | 2026-09-04 06:04:51 | 47.23261 | 11.92092 | 131° | 62km/h | 6430m | -4.7m/s | -13.7°C | 25.1% | 467.4hPa | 2.6V | 00:00:00 | 00:00:00 | 00:00:00 | |
| BAUMI2-15 | 2026-09-04 06:04:48 | 47.23290 | 11.92045 | 133° | 60km/h | 6445m | -5.1m/s | -13.6°C | 24.2% | 466.4hPa | 2.6V | 00:00:00 | 02:25:40 | 00:00:00 | |
| DO3MHA-12 | 2026-09-04 06:04:46 | 47.23310 | 11.92012 | 133° | 66km/h | 6456m | -5.1m/s | -13.4°C | 18.7% | 465.7hPa | 2.6V | 01:12:00 | 02:25:38 | 00:00:00 | |
| DO3MHA-11 | 2026-09-04 06:04:45 | 47.23320 | 11.91996 | 132° | 66km/h | 6461m | -5.4m/s | -13.3°C | 17.5% | 465.4hPa | 2.6V | 00:00:00 | 02:25:37 | 00:00:00 | |
| BAUMI2-15 | 2026-09-04 06:04:43 | 47.23340 | 11.91960 | 129° | 68km/h | 6472m | -4.8m/s | -13.2°C | 16.9% | 464.7hPa | 2.6V | 01:13:00 | 02:25:35 | 00:00:00 | |
| DG1MFX-10 | 2026-09-04 06:04:42 | 47.23340 | 11.91960 | 130° | 64km/h | 6472m | -4.8m/s | -13.3°C | 15.9% | 464.8hPa | 2.6V | 01:13:00 | 00:00:00 | 00:00:00 | |
| NBG1-10 | 2026-09-04 06:04:39 | 47.23377 | 11.91877 | 120° | 64km/h | 6493m | -5.5m/s | -13.2°C | 14.8% | 463.5hPa | 2.6V | 01:13:00 | 02:25:31 | 00:00:00 | |
| BAUMI2-15 | 2026-09-04 06:04:38 | 47.23386 | 11.91855 | 120° | 68km/h | 6498m | -5.0m/s | -13.2°C | 14.3% | 463.2hPa | 2.6V | 00:00:00 | 02:25:30 | 00:00:00 | |
| DL6DJ-15 | 2026-09-04 06:04:37 | 47.23402 | 11.91810 | 117° | 68km/h | 6508m | -4.9m/s | -13.3°C | 13.4% | 462.5hPa | 2.6V | 00:00:00 | 00:00:00 | 00:00:00 | |
| DO3MHA-12 | 2026-09-04 06:04:36 | 47.23402 | 11.91810 | 118° | 62km/h | 6508m | -4.9m/s | -13.2°C | 14.4% | 462.4hPa | 2.6V | 00:00:00 | 02:25:28 | 00:00:00 | |
| OE5DRO-10 | 2026-09-04 06:04:34 | 47.23418 | 11.91766 | 117° | 60km/h | 6518m | -5.0m/s | -13.3°C | 14.2% | 461.9hPa | 2.6V | 00:00:00 | 00:00:00 | 00:00:00 | |
| BAUMI2-15 | 2026-09-04 06:04:33 | 47.23425 | 11.91744 | 117° | 62km/h | 6523m | -5.2m/s | -13.3°C | 14.1% | 461.4hPa | 2.6V | 01:13:00 | 02:25:25 | 00:00:00 | |
| IN3HCDX | 2026-09-04 06:04:30 | 47.23439 | 11.91701 | 116° | 62km/h | 6534m | -5.3m/s | -13.3°C | 12.7% | 460.9hPa | 2.6V | 01:13:00 | 00:00:00 | 00:00:00 | |
| BAUMI2-15 | 2026-09-04 06:04:28 | 47.23458 | 11.91642 | 117° | 55km/h | 6549m | -4.8m/s | -13.2°C | 11.5% | 459.9hPa | 2.6V | 00:00:00 | 02:25:20 | 00:00:00 | |
| DO3MHA-12 | 2026-09-04 06:04:26 | 47.23471 | 11.91605 | 120° | 58km/h | 6560m | -5.6m/s | -13.1°C | 10.2% | 459.3hPa | 2.6V | 01:13:00 | 02:25:18 | 00:00:00 | |
| BAUMI2-15 | 2026-09-04 06:04:23 | 47.23493 | 11.91554 | 125° | 58km/h | 6576m | -5.1m/s | -13.0°C | 9.3% | 458.3hPa | 2.6V | 01:13:00 | 02:25:15 | 00:00:00 | |
| OE5DXL-15 | 2026-09-04 06:04:21 | 47.23510 | 11.91520 | 129° | 62km/h | 6587m | -5.5m/s | -13.0°C | 9.2% | 457.7hPa | 2.6V | 01:13:00 | 00:00:00 | 00:00:00 | |
| BAUMI2-15 | 2026-09-04 06:04:18 | 47.23539 | 11.91467 | 130° | 69km/h | 6603m | -5.9m/s | -13.1°C | 9.0% | 456.8hPa | 2.6V | 00:00:00 | 02:25:10 | 00:00:00 | |
| DO3MHA-12 | 2026-09-04 06:04:16 | 47.23561 | 11.91428 | 128° | 69km/h | 6614m | -5.4m/s | -13.2°C | 8.7% | 456.2hPa | 2.6V | 00:00:00 | 02:25:08 | 00:00:00 | |
| OE5DRO-10 | 2026-09-04 06:04:15 | 47.23571 | 11.91407 | 127° | 64km/h | 6619m | -5.5m/s | -13.2°C | 8.5% | 455.7hPa | 2.6V | 01:13:00 | 00:00:00 | 00:00:00 | |
| BAUMI2-15 | 2026-09-04 06:04:13 | 47.23592 | 11.91363 | 123° | 71km/h | 6629m | -5.1m/s | -13.1°C | 8.1% | 455.2hPa | 2.6V | 01:13:00 | 02:25:05 | 00:00:00 | |
| IN3HCDX | 2026-09-04 06:04:10 | 47.23619 | 11.91294 | 118° | 69km/h | 6644m | -5.3m/s | -13.0°C | 6.4% | 454.4hPa | 2.6V | 01:14:00 | 00:00:00 | 00:00:00 | |
| BAUMI2-15 | 2026-09-04 06:04:08 | 47.23634 | 11.91249 | 115° | 64km/h | 6655m | -5.2m/s | -13.0°C | 6.9% | 453.6hPa | 2.6V | 00:00:00 | 02:25:00 | 00:00:00 | |
| DO3MHA-12 | 2026-09-04 06:04:06 | 47.23647 | 11.91204 | 114° | 57km/h | 6665m | -5.3m/s | -13.0°C | 6.9% | 453.1hPa | 2.6V | 01:13:00 | 02:24:58 | 00:00:00 | |
| DO3MHA-11 | 2026-09-04 06:04:05 | 47.23653 | 11.91183 | 114° | 57km/h | 6670m | -4.9m/s | -13.0°C | 6.9% | 452.7hPa | 2.6V | 00:00:00 | 02:24:57 | 00:00:00 | |
| BAUMI2-15 | 2026-09-04 06:04:03 | 47.23666 | 11.91142 | 115° | 57km/h | 6681m | -5.2m/s | -13.1°C | 6.9% | 452.2hPa | 2.6V | 01:13:00 | 02:24:55 | 00:00:00 | |
| IN3IJJ | 2026-09-04 06:04:01 | 47.23672 | 11.91122 | 116° | 57km/h | 6685m | -5.0m/s | -13.2°C | 6.3% | 451.9hPa | 2.6V | 00:00:00 | 00:00:00 | 00:00:00 | |
| DG1MFX-10 | 2026-09-04 06:04:00 | 47.23678 | 11.91103 | 116° | 57km/h | 6691m | -5.3m/s | -13.2°C | 6.2% | 451.5hPa | 2.6V | 00:00:00 | 00:00:00 | 00:00:00 | |
| DO3MHA-12 | 2026-09-04 06:03:56 | 47.23711 | 11.91016 | 124° | 57km/h | 6717m | -5.0m/s | -13.2°C | 6.6% | 449.9hPa | 2.6V | 00:00:00 | 02:24:48 | 00:00:00 | |
| DO3MHA-11 | 2026-09-04 06:03:55 | 47.23718 | 11.91000 | 126° | 58km/h | 6722m | -5.2m/s | -13.2°C | 6.5% | 449.7hPa | 2.6V | 01:13:00 | 02:24:47 | 00:00:00 | |
| IN3HCDX | 2026-09-04 06:03:48 | 47.23771 | 11.90904 | 130° | 62km/h | 6751m | -4.6m/s | -13.2°C | 5.5% | 448.0hPa | 2.6V | 01:14:00 | 00:00:00 | 00:00:00 | |
| DO3MHA-12 | 2026-09-04 06:03:46 | 47.23801 | 11.90845 | 125° | 68km/h | 6766m | -5.6m/s | -13.1°C | 6.0% | 447.1hPa | 2.6V | 01:13:00 | 02:24:38 | 00:00:00 | |
| DO3MHA-11 | 2026-09-04 06:03:45 | 47.23811 | 11.90824 | 124° | 66km/h | 6771m | -5.4m/s | -13.1°C | 6.0% | 446.8hPa | 2.6V | 00:00:00 | 02:24:37 | 00:00:00 | |
| DG1MFX-10 | 2026-09-04 06:03:39 | 47.23857 | 11.90718 | 124° | 66km/h | 6796m | -4.9m/s | -13.3°C | 5.4% | 445.4hPa | 2.6V | 00:00:00 | 00:00:00 | 00:00:00 | |
| OE5DRO-10 | 2026-09-04 06:03:37 | 47.23885 | 11.90658 | 125° | 68km/h | 6810m | -4.5m/s | -13.4°C | 6.0% | 444.5hPa | 2.6V | 01:14:00 | 00:00:00 | 00:00:00 | |
| DO3MHA-12 | 2026-09-04 06:03:36 | 47.23894 | 11.90639 | 126° | 66km/h | 6815m | -4.9m/s | -13.4°C | 6.0% | 444.2hPa | 2.6V | 00:00:00 | 02:24:28 | 00:00:00 | |
| DO3MHA-11 | 2026-09-04 06:03:35 | 47.23904 | 11.90620 | 126° | 68km/h | 6820m | -4.9m/s | -13.5°C | 6.0% | 444.0hPa | 2.6V | 01:14:00 | 02:24:27 | 00:00:00 | |
| NBG1-10 | 2026-09-04 06:03:33 | 47.23923 | 11.90581 | 126° | 64km/h | 6831m | -5.7m/s | -13.5°C | 6.1% | 443.4hPa | 2.6V | 01:14:00 | 02:24:25 | 00:00:00 | |
| DB0NH | 2026-09-04 06:03:29 | 47.23960 | 11.90498 | 122° | 68km/h | 6851m | -5.3m/s | -13.6°C | 5.9% | 442.2hPa | 2.6V | 00:00:00 | 02:24:21 | 00:00:00 | |
| IN3HCDX | 2026-09-04 06:03:27 | 47.23969 | 11.90476 | 122° | 69km/h | 6856m | -5.0m/s | -13.7°C | 5.3% | 441.9hPa | 2.6V | 00:00:00 | 00:00:00 | 00:00:00 | |
| DO3MHA-12 | 2026-09-04 06:03:26 | 47.23986 | 11.90431 | 118° | 68km/h | 6866m | -4.7m/s | -13.7°C | 5.6% | 441.2hPa | 2.6V | 01:14:00 | 02:24:18 | 00:00:00 | |
| DO3MHA-11 | 2026-09-04 06:03:25 | 47.23994 | 11.90408 | 116° | 68km/h | 6871m | -5.4m/s | -13.7°C | 5.6% | 441.0hPa | 2.6V | 00:00:00 | 02:24:17 | 00:00:00 | |
| OE5DXL-15 | 2026-09-04 06:03:21 | 47.24022 | 11.90314 | 112° | 58km/h | 6893m | -5.0m/s | -13.8°C | 5.8% | 439.8hPa | 2.6V | 01:14:00 | 00:00:00 | 00:00:00 | |
| OE5DRO-10 | 2026-09-04 06:03:18 | 47.24040 | 11.90243 | 109° | 60km/h | 6908m | -5.0m/s | -13.9°C | 8.0% | 438.9hPa | 2.6V | 00:00:00 | 00:00:00 | 00:00:00 | |
| DO3MHA-12 | 2026-09-04 06:03:16 | 47.24050 | 11.90196 | 108° | 62km/h | 6918m | -5.0m/s | -14.0°C | 8.0% | 438.3hPa | 2.6V | 00:00:00 | 02:24:08 | 00:00:00 | |
| DO3MHA-11 | 2026-09-04 06:03:15 | 47.24055 | 11.90173 | 108° | 62km/h | 6923m | -4.9m/s | -14.1°C | 8.3% | 438.0hPa | 2.6V | 01:14:00 | 02:24:07 | 00:00:00 | |
| DG1MFX-10 | 2026-09-04 06:03:13 | 47.24060 | 11.90150 | 108° | 64km/h | 6928m | -5.3m/s | -14.2°C | 7.8% | 437.8hPa | 2.6V | 01:14:00 | 00:00:00 | 00:00:00 | |
| DO3MHA-12 | 2026-09-04 06:03:06 | 47.24094 | 11.89977 | 107° | 55km/h | 6968m | -4.8m/s | -14.4°C | 9.1% | 435.4hPa | 2.6V | 01:14:00 | 02:23:58 | 00:00:00 | |
| DO3MHA-11 | 2026-09-04 06:03:05 | 47.24098 | 11.89956 | 106° | 53km/h | 6973m | -4.9m/s | -14.5°C | 9.2% | 435.1hPa | 2.6V | 00:00:00 | 02:23:57 | 00:00:00 | |
| OE3JTB-15 | 2026-09-04 06:03:04 | 47.24102 | 11.89936 | 106° | 51km/h | 6978m | -4.8m/s | -14.5°C | 9.4% | 434.8hPa | 2.6V | 01:14:00 | 02:23:56 | 00:00:00 | |
| NBG1-10 | 2026-09-04 06:03:00 | 47.24118 | 11.89859 | 108° | 53km/h | 6998m | -5.1m/s | -14.7°C | 10.0% | 433.7hPa | 2.6V | 00:00:00 | 02:23:52 | 00:00:00 | |
| OE5DRO-10 | 2026-09-04 06:02:59 | 47.24122 | 11.89841 | 109° | 51km/h | 7003m | -4.9m/s | -14.8°C | 10.1% | 433.4hPa | 2.6V | 01:14:00 | 00:00:00 | 00:00:00 | |
| DO3MHA-12 | 2026-09-04 06:02:56 | 47.24135 | 11.89787 | 112° | 49km/h | 7018m | -5.0m/s | -14.9°C | 10.3% | 432.6hPa | 2.6V | 00:00:00 | 02:23:48 | 00:00:00 | |
| DO3MHA-11 | 2026-09-04 06:02:55 | 47.24140 | 11.89770 | 113° | 49km/h | 7023m | -5.1m/s | -15.0°C | 10.4% | 432.2hPa | 2.6V | 01:14:00 | 02:23:47 | 00:00:00 | |
| DG1MFX-10 | 2026-09-04 06:02:52 | 47.24150 | 11.89736 | 115° | 49km/h | 7033m | -5.1m/s | -15.1°C | 9.5% | 431.7hPa | 2.6V | 01:14:00 | 00:00:00 | 00:00:00 | |
| OE5DXL-15 | 2026-09-04 06:02:51 | 47.24160 | 11.89703 | 117° | 58km/h | 7043m | -5.2m/s | -15.1°C | 9.6% | 431.1hPa | 2.6V | 00:00:00 | 00:00:00 | 00:00:00 | |
| DO3MHA-12 | 2026-09-04 06:02:46 | 47.24192 | 11.89623 | 123° | 53km/h | 7069m | -4.9m/s | -15.3°C | 10.0% | 429.8hPa | 2.6V | 01:14:00 | 02:23:38 | 00:00:00 | |
| DO3MHA-11 | 2026-09-04 06:02:45 | 47.24199 | 11.89607 | 124° | 53km/h | 7074m | -4.8m/s | -15.4°C | 10.3% | 429.3hPa | 2.6V | 00:00:00 | 02:23:37 | 00:00:00 | |
| OE5DRO-10 | 2026-09-04 06:02:40 | 47.24237 | 11.89527 | 127° | 62km/h | 7099m | -4.9m/s | -15.6°C | 11.6% | 428.0hPa | 2.6V | 00:00:00 | 00:00:00 | 00:00:00 | |
| DO3MHA-12 | 2026-09-04 06:02:36 | 47.24270 | 11.89462 | 128° | 53km/h | 7119m | -5.1m/s | -15.8°C | 10.8% | 426.8hPa | 2.6V | 00:00:00 | 02:23:28 | 00:00:00 | |
| DO3MHA-11 | 2026-09-04 06:02:35 | 47.24279 | 11.89445 | 128° | 55km/h | 7124m | -5.2m/s | -15.8°C | 10.8% | 426.5hPa | 2.6V | 01:15:00 | 02:23:27 | 00:00:00 | |
| DL6DJ-15 | 2026-09-04 06:02:33 | 47.24297 | 11.89411 | 128° | 58km/h | 7134m | -5.2m/s | -15.9°C | 10.5% | 426.0hPa | 2.6V | 00:00:00 | 00:00:00 | 00:00:00 | |
| DG1MFX-10 | 2026-09-04 06:02:32 | 47.24297 | 11.89411 | 130° | 58km/h | 7134m | -5.2m/s | -15.9°C | 10.5% | 426.0hPa | 2.6V | 01:15:00 | 00:00:00 | 00:00:00 | |
| IN3IJJ | 2026-09-04 06:02:30 | 47.24316 | 11.89377 | 130° | 60km/h | 7145m | -5.3m/s | -16.0°C | 11.3% | 425.5hPa | 2.6V | 00:00:00 | 00:00:00 | 00:00:00 | |
| NBG1-10 | 2026-09-04 06:02:27 | 47.24356 | 11.89303 | 128° | 58km/h | 7165m | -4.8m/s | -16.1°C | 12.8% | 424.2hPa | 2.6V | 01:15:00 | 02:23:19 | 00:00:00 | |
| IN3HCDX | 2026-09-04 06:02:24 | 47.24376 | 11.89262 | 126° | 69km/h | 7175m | -5.1m/s | -16.3°C | 11.8% | 423.7hPa | 2.5V | 01:15:00 | 00:00:00 | 00:00:00 | |
| OE5DXL-15 | 2026-09-04 06:02:21 | 47.24413 | 11.89172 | 118° | 57km/h | 7195m | -4.6m/s | -16.4°C | 12.9% | 422.6hPa | 2.5V | 01:15:00 | 00:00:00 | 00:00:00 | |
| DG1MFX-10 | 2026-09-04 06:02:12 | 47.24462 | 11.89000 | 114° | 57km/h | 7233m | -5.0m/s | -16.8°C | 11.7% | 420.4hPa | 2.5V | 01:15:00 | 00:00:00 | 00:00:00 | |
| IN3IJJ | 2026-09-04 06:02:07 | 47.24490 | 11.88909 | 118° | 53km/h | 7257m | -4.9m/s | -17.0°C | 11.7% | 419.1hPa | 2.5V | 00:00:00 | 00:00:00 | 00:00:00 | |
| DO3MHA-11 | 2026-09-04 06:02:05 | 47.24509 | 11.88858 | 120° | 53km/h | 7272m | -4.9m/s | -17.1°C | 13.8% | 418.3hPa | 2.5V | 00:00:00 | 02:22:57 | 00:00:00 | |
| OE5DRO-10 | 2026-09-04 06:02:02 | 47.24530 | 11.88810 | 125° | 64km/h | 7287m | -5.0m/s | -17.2°C | 15.6% | 417.4hPa | 2.6V | 00:00:00 | 00:00:00 | 00:00:00 | |
| DO3MHA-12 | 2026-09-04 06:02:01 | 47.24537 | 11.88795 | 127° | 58km/h | 7292m | -5.0m/s | -17.2°C | 15.6% | 417.0hPa | 2.6V | 01:15:00 | 02:22:53 | 00:00:00 | |
| BAUMI2-15 | 2026-09-04 06:01:58 | 47.24562 | 11.88749 | 132° | 58km/h | 7307m | -4.9m/s | -17.3°C | 15.4% | 416.3hPa | 2.5V | 00:00:00 | 02:22:50 | 00:00:00 | |
| DO3MHA-11 | 2026-09-04 06:01:55 | 47.24592 | 11.88701 | 134° | 68km/h | 7323m | -5.2m/s | -17.4°C | 12.7% | 415.4hPa | 2.6V | 01:15:00 | 02:22:47 | 00:00:00 | |
| NBG1-10 | 2026-09-04 06:01:54 | 47.24603 | 11.88684 | 134° | 64km/h | 7328m | -4.8m/s | -17.4°C | 12.1% | 415.2hPa | 2.6V | 00:00:00 | 02:22:46 | 00:00:00 | |
| BAUMI2-15 | 2026-09-04 06:01:53 | 47.24614 | 11.88668 | 134° | 68km/h | 7333m | -5.2m/s | -17.4°C | 11.5% | 414.9hPa | 2.6V | 01:15:00 | 02:22:45 | 00:00:00 | |
| DB0NH | 2026-09-04 06:01:52 | 47.24626 | 11.88650 | 134° | 64km/h | 7338m | -5.1m/s | -17.4°C | 11.5% | 414.6hPa | 2.6V | 01:15:00 | 02:22:44 | 00:00:00 | |
| DO3MHA-12 | 2026-09-04 06:01:51 | 47.24637 | 11.88632 | 134° | 71km/h | 7343m | -4.9m/s | -17.5°C | 11.6% | 414.3hPa | 2.6V | 00:00:00 | 02:22:43 | 00:00:00 | |
| BAUMI2-15 | 2026-09-04 06:01:48 | 47.24673 | 11.88574 | 131° | 73km/h | 7358m | -4.9m/s | -17.6°C | 12.1% | 413.5hPa | 2.6V | 00:00:00 | 02:22:40 | 00:00:00 | |
| DO3MHA-11 | 2026-09-04 06:01:45 | 47.24707 | 11.88511 | 127° | 69km/h | 7373m | -4.9m/s | -17.7°C | 12.3% | 412.6hPa | 2.6V | 00:00:00 | 02:22:37 | 00:00:00 | |
| BAUMI2-15 | 2026-09-04 06:01:43 | 47.24728 | 11.88467 | 123° | 71km/h | 7383m | -4.9m/s | -17.8°C | 12.5% | 412.0hPa | 2.6V | 01:16:00 | 02:22:35 | 00:00:00 | |
| DO3MHA-12 | 2026-09-04 06:01:41 | 47.24747 | 11.88420 | 120° | 64km/h | 7393m | -4.7m/s | -17.9°C | 12.4% | 411.5hPa | 2.6V | 01:16:00 | 02:22:33 | 00:00:00 | |
| BAUMI2-15 | 2026-09-04 06:01:38 | 47.24772 | 11.88352 | 117° | 62km/h | 7407m | -4.8m/s | -18.0°C | 12.4% | 410.8hPa | 2.6V | 00:00:00 | 02:22:30 | 00:00:00 | |
| DO3MHA-11 | 2026-09-04 06:01:35 | 47.24793 | 11.88288 | 116° | 55km/h | 7422m | -4.9m/s | -18.1°C | 12.5% | 409.9hPa | 2.6V | 01:16:00 | 02:22:27 | 00:00:00 | |
| BAUMI2-15 | 2026-09-04 06:01:33 | 47.24806 | 11.88250 | 118° | 53km/h | 7432m | -5.2m/s | -18.2°C | 12.6% | 409.4hPa | 2.6V | 01:16:00 | 02:22:25 | 00:00:00 | |
| IN3IJJ | 2026-09-04 06:01:32 | 47.24806 | 11.88250 | 119° | 57km/h | 7432m | -5.3m/s | -18.3°C | 11.5% | 409.5hPa | 2.6V | 00:00:00 | 00:00:00 | 00:00:00 | |
| DO3MHA-12 | 2026-09-04 06:01:31 | 47.24820 | 11.88215 | 122° | 55km/h | 7443m | -5.1m/s | -18.3°C | 12.5% | 408.8hPa | 2.6V | 00:00:00 | 02:22:23 | 00:00:00 | |
| DG1MFX-10 | 2026-09-04 06:01:30 | 47.24820 | 11.88215 | 122° | 53km/h | 7443m | -5.2m/s | -18.3°C | 11.5% | 408.8hPa | 2.5V | 01:16:00 | 00:00:00 | 00:00:00 | |
| BAUMI2-15 | 2026-09-04 06:01:28 | 47.24842 | 11.88167 | 129° | 55km/h | 7458m | -4.9m/s | -18.4°C | 12.7% | 408.0hPa | 2.5V | 00:00:00 | 02:22:20 | 00:00:00 | |
| DO3MHA-11 | 2026-09-04 06:01:25 | 47.24869 | 11.88123 | 135° | 66km/h | 7472m | -4.7m/s | -18.5°C | 12.8% | 407.2hPa | 2.6V | 00:00:00 | 02:22:17 | 00:00:00 | |
| OE5DRO-10 | 2026-09-04 06:01:24 | 47.24879 | 11.88109 | 137° | 69km/h | 7477m | -5.1m/s | -18.6°C | 12.8% | 406.9hPa | 2.6V | 00:00:00 | 00:00:00 | 00:00:00 | |
| BAUMI2-15 | 2026-09-04 06:01:23 | 47.24890 | 11.88094 | 137° | 66km/h | 7482m | -5.1m/s | -18.6°C | 12.9% | 406.6hPa | 2.5V | 01:16:00 | 02:22:15 | 00:00:00 | |
| DB0NH | 2026-09-04 06:01:22 | 47.24901 | 11.88078 | 138° | 60km/h | 7487m | -5.0m/s | -18.6°C | 12.9% | 406.3hPa | 2.5V | 00:00:00 | 02:22:14 | 00:00:00 | |
| IN3HCDX | 2026-09-04 06:01:21 | 47.24913 | 11.88062 | 137° | 66km/h | 7492m | -5.2m/s | -18.7°C | 11.7% | 406.1hPa | 2.6V | 00:00:00 | 00:00:00 | 00:00:00 | |
| BAUMI2-15 | 2026-09-04 06:01:18 | 47.24950 | 11.88008 | 134° | 73km/h | 7508m | -4.9m/s | -18.8°C | 13.0% | 405.3hPa | 2.6V | 00:00:00 | 02:22:10 | 00:00:00 | |
| DO3MHA-11 | 2026-09-04 06:01:15 | 47.24986 | 11.87947 | 129° | 69km/h | 7523m | -5.0m/s | -18.9°C | 13.1% | 404.4hPa | 2.6V | 01:16:00 | 02:22:07 | 00:00:00 | |
| BAUMI2-15 | 2026-09-04 06:01:13 | 47.25008 | 11.87903 | 125° | 71km/h | 7533m | -5.1m/s | -19.0°C | 13.2% | 403.8hPa | 2.6V | 01:16:00 | 02:22:05 | 00:00:00 | |
| DO3MHA-12 | 2026-09-04 06:01:11 | 47.25029 | 11.87857 | 122° | 64km/h | 7543m | -5.0m/s | -19.1°C | 13.3% | 403.3hPa | 2.5V | 00:00:00 | 02:22:03 | 00:00:00 | |
| DG1MFX-10 | 2026-09-04 06:01:10 | 47.25029 | 11.87857 | 123° | 71km/h | 7543m | -5.0m/s | -19.2°C | 12.2% | 403.3hPa | 2.5V | 01:16:00 | 00:00:00 | 00:00:00 | |
| BAUMI2-15 | 2026-09-04 06:01:08 | 47.25055 | 11.87790 | 119° | 64km/h | 7558m | -5.2m/s | -19.2°C | 13.4% | 402.6hPa | 2.5V | 00:00:00 | 02:22:00 | 00:00:00 | |
| DO3MHA-11 | 2026-09-04 06:01:05 | 47.25077 | 11.87726 | 118° | 55km/h | 7573m | -5.2m/s | -19.3°C | 13.4% | 401.6hPa | 2.5V | 00:00:00 | 02:21:57 | 00:00:00 | |
| BAUMI2-15 | 2026-09-04 06:01:03 | 47.25092 | 11.87687 | 119° | 55km/h | 7583m | -5.0m/s | -19.4°C | 13.5% | 401.2hPa | 2.6V | 01:16:00 | 02:21:55 | 00:00:00 | |
| DL6DJ-15 | 2026-09-04 06:01:00 | 47.25113 | 11.87632 | 121° | 53km/h | 7598m | -4.9m/s | -19.6°C | 12.4% | 400.4hPa | 2.6V | 00:00:00 | 00:00:00 | 00:00:00 | |
| IN3HCDX | 2026-09-04 06:00:59 | 47.25112 | 11.87632 | 122° | 53km/h | 7598m | -4.9m/s | -19.6°C | 12.4% | 400.4hPa | 2.6V | 01:17:00 | 00:00:00 | 00:00:00 | |
| BAUMI2-15 | 2026-09-04 06:00:58 | 47.25127 | 11.87599 | 125° | 53km/h | 7608m | -5.1m/s | -19.7°C | 13.7% | 399.8hPa | 2.6V | 00:00:00 | 02:21:50 | 00:00:00 | |
| DO3MHA-11 | 2026-09-04 06:00:55 | 47.25151 | 11.87553 | 130° | 57km/h | 7623m | -5.2m/s | -19.8°C | 13.7% | 399.0hPa | 2.5V | 01:16:00 | 02:21:47 | 00:00:00 | |
| OE3JTB-15 | 2026-09-04 06:00:54 | 47.25159 | 11.87538 | 131° | 60km/h | 7629m | -5.0m/s | -19.8°C | 13.8% | 398.7hPa | 2.5V | 01:16:00 | 00:00:00 | 00:00:00 | |
| BAUMI2-15 | 2026-09-04 06:00:53 | 47.25168 | 11.87523 | 132° | 57km/h | 7634m | -5.0m/s | -19.9°C | 13.9% | 398.4hPa | 2.6V | 01:16:00 | 02:21:45 | 00:00:00 | |
| DG1MFX-10 | 2026-09-04 06:00:51 | 47.25186 | 11.87493 | 133° | 55km/h | 7643m | -4.5m/s | -20.0°C | 12.7% | 397.9hPa | 2.6V | 00:00:00 | 00:00:00 | 00:00:00 | |
| IN3IJJ | 2026-09-04 06:00:49 | 47.25196 | 11.87478 | 132° | 57km/h | 7648m | -4.8m/s | -20.0°C | 12.6% | 397.7hPa | 2.6V | 00:00:00 | 00:00:00 | 00:00:00 | |
| NBG1-10 | 2026-09-04 06:00:48 | 47.25215 | 11.87444 | 129° | 62km/h | 7658m | -5.1m/s | -20.1°C | 14.1% | 397.1hPa | 2.6V | 00:00:00 | 02:21:40 | 00:00:00 | |
| OE5DRO-10 | 2026-09-04 06:00:46 | 47.25234 | 11.87408 | 128° | 62km/h | 7668m | -5.2m/s | -20.2°C | 14.2% | 396.6hPa | 2.5V | 00:00:00 | 00:00:00 | 00:00:00 | |
| DO3MHA-11 | 2026-09-04 06:00:45 | 47.25243 | 11.87390 | 129° | 62km/h | 7673m | -4.6m/s | -20.2°C | 14.4% | 396.4hPa | 2.5V | 00:00:00 | 02:21:37 | 00:00:00 | |
| DO3MHA-12 | 2026-09-04 06:00:41 | 47.25282 | 11.87318 | 128° | 64km/h | 7691m | -4.5m/s | -20.4°C | 16.1% | 395.4hPa | 2.5V | 01:17:00 | 02:21:33 | 00:00:00 | |
| BAUMI2-15 | 2026-09-04 06:00:38 | 47.25311 | 11.87263 | 129° | 64km/h | 7704m | -4.4m/s | -20.5°C | 16.6% | 394.6hPa | 2.5V | 00:00:00 | 02:21:30 | 00:00:00 | |
| DO3MHA-11 | 2026-09-04 06:00:35 | 47.25341 | 11.87207 | 129° | 62km/h | 7718m | -4.5m/s | -20.6°C | 15.5% | 393.9hPa | 2.5V | 01:17:00 | 02:21:27 | 00:00:00 | |
| BAUMI2-15 | 2026-09-04 06:00:33 | 47.25361 | 11.87170 | 129° | 62km/h | 7727m | -4.7m/s | -20.7°C | 15.1% | 393.5hPa | 2.6V | 01:17:00 | 02:21:25 | 00:00:00 | |
| DO3MHA-12 | 2026-09-04 06:00:31 | 47.25381 | 11.87134 | 129° | 62km/h | 7736m | -4.7m/s | -20.7°C | 15.2% | 393.0hPa | 2.6V | 00:00:00 | 02:21:23 | 00:00:00 | |
| DG1MFX-10 | 2026-09-04 06:00:30 | 47.25391 | 11.87115 | 129° | 62km/h | 7741m | -4.7m/s | -20.8°C | 14.0% | 392.8hPa | 2.5V | 00:00:00 | 00:00:00 | 00:00:00 | |
| DL6DJ-15 | 2026-09-04 06:00:29 | 47.25401 | 11.87097 | 128° | 60km/h | 7746m | -4.7m/s | -20.9°C | 14.2% | 392.4hPa | 2.5V | 00:00:00 | 00:00:00 | 00:00:00 | |
| BAUMI2-15 | 2026-09-04 06:00:28 | 47.25410 | 11.87079 | 128° | 62km/h | 7751m | -4.6m/s | -20.9°C | 15.8% | 392.2hPa | 2.5V | 00:00:00 | 02:21:20 | 00:00:00 | |
| OE5DRO-10 | 2026-09-04 06:00:27 | 47.25420 | 11.87061 | 128° | 62km/h | 7755m | -4.7m/s | -20.9°C | 15.9% | 392.0hPa | 2.6V | 01:17:00 | 00:00:00 | 00:00:00 | |
| DO3MHA-11 | 2026-09-04 06:00:25 | 47.25439 | 11.87025 | 128° | 62km/h | 7764m | -4.7m/s | -21.0°C | 16.1% | 391.5hPa | 2.5V | 00:00:00 | 02:21:17 | 00:00:00 | |
| BAUMI2-15 | 2026-09-04 06:00:23 | 47.25458 | 11.86989 | 128° | 62km/h | 7774m | -4.6m/s | -21.0°C | 16.3% | 391.0hPa | 2.5V | 01:17:00 | 02:21:15 | 00:00:00 | |
| DO3MHA-12 | 2026-09-04 06:00:21 | 47.25477 | 11.86953 | 129° | 62km/h | 7783m | -4.5m/s | -21.1°C | 16.3% | 390.5hPa | 2.5V | 01:17:00 | 02:21:13 | 00:00:00 | |
| BAUMI2-15 | 2026-09-04 06:00:18 | 47.25506 | 11.86899 | 128° | 62km/h | 7796m | -4.6m/s | -21.2°C | 15.8% | 389.7hPa | 2.5V | 00:00:00 | 02:21:10 | 00:00:00 | |
| IN3HCDX | 2026-09-04 06:00:17 | 47.25506 | 11.86899 | 129° | 62km/h | 7796m | -4.7m/s | -21.2°C | 14.3% | 389.8hPa | 2.5V | 01:17:00 | 00:00:00 | 00:00:00 | |
| NBG1-10 | 2026-09-04 06:00:15 | 47.25535 | 11.86845 | 129° | 58km/h | 7810m | -4.3m/s | -21.3°C | 15.6% | 388.9hPa | 2.5V | 01:17:00 | 02:21:07 | 00:00:00 | |
| BAUMI2-15 | 2026-09-04 06:00:13 | 47.25554 | 11.86809 | 128° | 60km/h | 7820m | -4.9m/s | -21.4°C | 15.6% | 388.3hPa | 2.5V | 01:17:00 | 02:21:05 | 00:00:00 | |
| DO3MHA-12 | 2026-09-04 06:00:11 | 47.25572 | 11.86773 | 128° | 60km/h | 7829m | -4.7m/s | -21.5°C | 15.7% | 388.0hPa | 2.5V | 00:00:00 | 02:21:03 | 00:00:00 | |
| BAUMI2-15 | 2026-09-04 06:00:08 | 47.25600 | 11.86719 | 127° | 60km/h | 7843m | -4.5m/s | -21.6°C | 15.5% | 387.3hPa | 2.5V | 00:00:00 | 02:21:00 | 00:00:00 | |
| DO3MHA-11 | 2026-09-04 06:00:05 | 47.25627 | 11.86666 | 128° | 58km/h | 7857m | -4.5m/s | -21.7°C | 17.0% | 386.6hPa | 2.5V | 00:00:00 | 02:20:57 | 00:00:00 | |
| IN3IJJ | 2026-09-04 06:00:04 | 47.25627 | 11.86666 | 128° | 60km/h | 7857m | -4.6m/s | -21.7°C | 15.5% | 386.6hPa | 2.5V | 00:00:00 | 00:00:00 | 00:00:00 | |
| BAUMI2-15 | 2026-09-04 06:00:03 | 47.25645 | 11.86631 | 127° | 58km/h | 7867m | -4.4m/s | -21.8°C | 20.1% | 386.0hPa | 2.5V | 01:17:00 | 02:20:55 | 00:00:00 | |
| DB0ND-19 | 2026-09-04 06:00:00 | 47.25681 | 11.86561 | 126° | 57km/h | 7885m | -4.5m/s | -22.0°C | 19.8% | 385.1hPa | 2.5V | 00:00:00 | 00:00:00 | 00:00:00 | |
| DL6DJ-15 | 2026-09-04 05:59:58 | 47.25689 | 11.86544 | 126° | 57km/h | 7890m | -4.9m/s | -22.0°C | 19.3% | 384.9hPa | 2.5V | 00:00:00 | 00:00:00 | 00:00:00 | |
| IN3HCDX | 2026-09-04 05:59:56 | 47.25698 | 11.86526 | 127° | 58km/h | 7895m | -4.8m/s | -22.0°C | 19.0% | 384.7hPa | 2.5V | 01:18:00 | 00:00:00 | 00:00:00 | |
| DO3MHA-11 | 2026-09-04 05:59:55 | 47.25715 | 11.86492 | 127° | 58km/h | 7905m | -4.6m/s | -22.0°C | 19.7% | 384.1hPa | 2.5V | 01:17:00 | 02:20:47 | 00:00:00 | |
| OE3JTB-15 | 2026-09-04 05:59:54 | 47.25724 | 11.86474 | 126° | 57km/h | 7910m | -4.7m/s | -22.0°C | 19.8% | 383.8hPa | 2.5V | 01:17:00 | 02:20:46 | 00:00:00 | |
| DO3MHA-12 | 2026-09-04 05:59:51 | 47.25750 | 11.86422 | 126° | 57km/h | 7924m | -4.7m/s | -22.2°C | 19.9% | 383.1hPa | 2.5V | 00:00:00 | 02:20:43 | 00:00:00 | |
| OE5DRO-10 | 2026-09-04 05:59:49 | 47.25767 | 11.86387 | 126° | 57km/h | 7933m | -4.7m/s | -22.2°C | 19.7% | 382.6hPa | 2.5V | 01:17:00 | 00:00:00 | 00:00:00 | |
| DO3MHA-11 | 2026-09-04 05:59:45 | 47.25801 | 11.86318 | 126° | 57km/h | 7953m | -4.5m/s | -22.4°C | 19.2% | 381.6hPa | 2.5V | 00:00:00 | 02:20:37 | 00:00:00 | |
| NBG1-10 | 2026-09-04 05:59:42 | 47.25826 | 11.86267 | 127° | 57km/h | 7967m | -4.6m/s | -22.5°C | 18.8% | 380.8hPa | 2.5V | 00:00:00 | 02:20:34 | 00:00:00 | |
| DO3MHA-12 | 2026-09-04 05:59:41 | 47.25834 | 11.86250 | 127° | 55km/h | 7971m | -4.6m/s | -22.5°C | 18.5% | 380.6hPa | 2.5V | 01:18:00 | 02:20:33 | 00:00:00 | |
| DO3MHA-11 | 2026-09-04 05:59:35 | 47.25883 | 11.86151 | 126° | 55km/h | 8000m | -4.5m/s | -22.7°C | 22.2% | 379.1hPa | 2.5V | 01:18:00 | 02:20:27 | 00:00:00 | |
| DO3MHA-12 | 2026-09-04 05:59:31 | 47.25916 | 11.86084 | 126° | 55km/h | 8019m | -4.8m/s | -22.9°C | 22.8% | 378.1hPa | 2.6V | 00:00:00 | 02:20:23 | 00:00:00 | |
| OE5DRO-10 | 2026-09-04 05:59:30 | 47.25924 | 11.86067 | 126° | 57km/h | 8024m | -4.6m/s | -22.9°C | 22.7% | 377.8hPa | 2.6V | 00:00:00 | 00:00:00 | 00:00:00 | |
| DB0ND-19 | 2026-09-04 05:59:29 | 47.25941 | 11.86034 | 126° | 55km/h | 8034m | -4.9m/s | -23.1°C | 20.7% | 377.4hPa | 2.5V | 00:00:00 | 00:00:00 | 00:00:00 | |
| DL6DJ-15 | 2026-09-04 05:59:27 | 47.25949 | 11.86017 | 126° | 55km/h | 8038m | -4.8m/s | -23.1°C | 20.8% | 377.1hPa | 2.5V | 00:00:00 | 00:00:00 | 00:00:00 | |
| DO3MHA-11 | 2026-09-04 05:59:25 | 47.25966 | 11.85984 | 128° | 57km/h | 8048m | -4.8m/s | -23.2°C | 23.2% | 376.6hPa | 2.5V | 00:00:00 | 02:20:17 | 00:00:00 | |
| DO3MHA-12 | 2026-09-04 05:59:21 | 47.26000 | 11.85920 | 129° | 57km/h | 8068m | -4.6m/s | -23.3°C | 21.8% | 375.7hPa | 2.5V | 01:18:00 | 02:20:13 | 00:00:00 | |
| IN3IJJ | 2026-09-04 05:59:17 | 47.26036 | 11.85855 | 130° | 57km/h | 8087m | -5.1m/s | -23.5°C | 18.8% | 374.6hPa | 2.5V | 00:00:00 | 00:00:00 | 00:00:00 | |
| DO3MHA-11 | 2026-09-04 05:59:15 | 47.26054 | 11.85822 | 130° | 57km/h | 8097m | -4.7m/s | -23.5°C | 20.7% | 374.1hPa | 2.5V | 01:18:00 | 02:20:07 | 00:00:00 | |
| DO3MHA-12 | 2026-09-04 05:59:11 | 47.26090 | 11.85757 | 130° | 55km/h | 8117m | -4.8m/s | -23.6°C | 23.1% | 373.1hPa | 2.5V | 00:00:00 | 02:20:03 | 00:00:00 | |
| NBG1-10 | 2026-09-04 05:59:09 | 47.26108 | 11.85724 | 130° | 55km/h | 8126m | -4.7m/s | -23.7°C | 24.1% | 372.6hPa | 2.5V | 01:18:00 | 02:20:01 | 00:00:00 | |
| DO3MHA-11 | 2026-09-04 05:59:05 | 47.26144 | 11.85661 | 130° | 55km/h | 8146m | -4.8m/s | -23.8°C | 23.7% | 371.5hPa | 2.6V | 00:00:00 | 02:19:57 | 00:00:00 | |
| DL6DJ-15 | 2026-09-04 05:58:58 | 47.26234 | 11.85507 | 131° | 55km/h | 8196m | -5.0m/s | -24.2°C | 19.4% | 369.1hPa | 2.6V | 00:00:00 | 00:00:00 | 00:00:00 | |
| DO3MHA-11 | 2026-09-04 05:58:55 | 47.26234 | 11.85507 | 132° | 55km/h | 8196m | -4.9m/s | -24.2°C | 21.4% | 369.1hPa | 2.6V | 01:18:00 | 02:19:47 | 00:00:00 | |
| IN3HCDX | 2026-09-04 05:58:54 | 47.26234 | 11.85507 | 132° | 55km/h | 8196m | -5.0m/s | -24.2°C | 19.4% | 369.1hPa | 2.6V | 01:19:00 | 00:00:00 | 00:00:00 | |
| IN3IJJ | 2026-09-04 05:58:53 | 47.26243 | 11.85492 | 132° | 55km/h | 8201m | -4.8m/s | -24.2°C | 18.5% | 368.8hPa | 2.6V | 00:00:00 | 00:00:00 | 00:00:00 | |
| OE5DRO-10 | 2026-09-04 05:58:52 | 47.26262 | 11.85461 | 133° | 55km/h | 8211m | -4.9m/s | -24.2°C | 18.2% | 368.3hPa | 2.6V | 00:00:00 | 00:00:00 | 00:00:00 | |
| DO3MHA-12 | 2026-09-04 05:58:51 | 47.26271 | 11.85446 | 133° | 55km/h | 8216m | -4.9m/s | -24.2°C | 18.1% | 368.1hPa | 2.6V | 00:00:00 | 02:19:43 | 00:00:00 | |
| DG1MFX-10 | 2026-09-04 05:58:48 | 47.26290 | 11.85416 | 133° | 55km/h | 8226m | -4.9m/s | -24.3°C | 16.0% | 367.6hPa | 2.6V | 00:00:00 | 00:00:00 | 00:00:00 | |
| DO3MHA-11 | 2026-09-04 05:58:45 | 47.26327 | 11.85355 | 133° | 55km/h | 8245m | -4.6m/s | -24.3°C | 17.2% | 366.6hPa | 2.6V | 00:00:00 | 02:19:37 | 00:00:00 | |
| DO3MHA-12 | 2026-09-04 05:58:41 | 47.26364 | 11.85296 | 134° | 55km/h | 8265m | -5.0m/s | -24.5°C | 18.2% | 365.6hPa | 2.6V | 01:19:00 | 02:19:33 | 00:00:00 | |
| OE3JTB-15 | 2026-09-04 05:58:36 | 47.26412 | 11.85221 | 134° | 57km/h | 8291m | -5.0m/s | -24.7°C | 19.0% | 364.4hPa | 2.6V | 01:19:00 | 00:00:00 | 00:00:00 | |
| DO3MHA-11 | 2026-09-04 05:58:35 | 47.26422 | 11.85206 | 135° | 57km/h | 8295m | -4.8m/s | -24.7°C | 19.0% | 364.0hPa | 2.6V | 01:19:00 | 02:19:27 | 00:00:00 | |
| OE5DRO-10 | 2026-09-04 05:58:33 | 47.26442 | 11.85177 | 135° | 57km/h | 8306m | -5.0m/s | -24.8°C | 19.1% | 363.5hPa | 2.5V | 01:19:00 | 00:00:00 | 00:00:00 | |
| DO3MHA-12 | 2026-09-04 05:58:31 | 47.26462 | 11.85147 | 135° | 57km/h | 8316m | -4.7m/s | -24.9°C | 19.2% | 363.1hPa | 2.6V | 00:00:00 | 02:19:23 | 00:00:00 | |
| DB0ND-19 | 2026-09-04 05:58:27 | 47.26511 | 11.85073 | 133° | 57km/h | 8340m | -5.1m/s | -25.1°C | 17.2% | 361.9hPa | 2.6V | 00:00:00 | 00:00:00 | 00:00:00 | |
| DL6DJ-15 | 2026-09-04 05:58:25 | 47.26531 | 11.85042 | 133° | 57km/h | 8351m | -5.1m/s | -25.2°C | 16.9% | 361.4hPa | 2.6V | 00:00:00 | 00:00:00 | 00:00:00 | |
| OE5DXL-15 | 2026-09-04 05:58:21 | 47.26561 | 11.84996 | 134° | 60km/h | 8366m | -5.2m/s | -25.2°C | 18.3% | 360.6hPa | 2.6V | 01:19:00 | 00:00:00 | 00:00:00 | |
| DO3MHA-11 | 2026-09-04 05:58:15 | 47.26621 | 11.84902 | 134° | 58km/h | 8396m | -4.8m/s | -25.4°C | 17.6% | 359.0hPa | 2.6V | 01:19:00 | 02:19:07 | 00:00:00 | |
| OE5DRO-10 | 2026-09-04 05:58:14 | 47.26631 | 11.84886 | 133° | 60km/h | 8401m | -5.2m/s | -25.5°C | 17.5% | 358.8hPa | 2.6V | 00:00:00 | 00:00:00 | 00:00:00 | |
| IN3HCDX | 2026-09-04 05:58:12 | 47.26641 | 11.84870 | 134° | 58km/h | 8406m | -5.0m/s | -25.5°C | 15.3% | 358.6hPa | 2.6V | 01:20:00 | 00:00:00 | 00:00:00 | |
| NBG1-10 | 2026-09-04 05:58:08 | 47.26692 | 11.84789 | 132° | 64km/h | 8432m | -4.9m/s | -25.7°C | 16.1% | 357.3hPa | 2.6V | 00:00:00 | 02:19:00 | 00:00:00 | |
| OE3JTB-15 | 2026-09-04 05:58:07 | 47.26702 | 11.84772 | 132° | 62km/h | 8437m | -5.1m/s | -25.7°C | 16.1% | 357.0hPa | 2.6V | 00:00:00 | 02:18:59 | 00:00:00 | |
| DO3MHA-11 | 2026-09-04 05:58:05 | 47.26721 | 11.84738 | 131° | 60km/h | 8447m | -5.0m/s | -25.7°C | 16.4% | 356.5hPa | 2.6V | 00:00:00 | 02:18:57 | 00:00:00 | |
| IN3IJJ | 2026-09-04 05:58:03 | 47.26731 | 11.84721 | 132° | 60km/h | 8452m | -5.1m/s | -25.8°C | 14.8% | 356.4hPa | 2.5V | 00:00:00 | 00:00:00 | 00:00:00 | |
| DB0ND-19 | 2026-09-04 05:57:56 | 47.26821 | 11.84566 | 129° | 60km/h | 8498m | -5.3m/s | -26.2°C | 17.2% | 354.1hPa | 2.5V | 00:00:00 | 00:00:00 | 00:00:00 | |
| DL6DJ-15 | 2026-09-04 05:57:54 | 47.26841 | 11.84531 | 129° | 60km/h | 8508m | -5.1m/s | -26.2°C | 17.9% | 353.5hPa | 2.5V | 00:00:00 | 00:00:00 | 00:00:00 | |
| BAUMI2-15 | 2026-09-04 05:57:53 | 47.26841 | 11.84530 | 130° | 62km/h | 8508m | -5.1m/s | -26.2°C | 20.0% | 353.5hPa | 2.5V | 01:19:00 | 02:18:45 | 00:00:00 | |
| DO3MHA-12 | 2026-09-04 05:57:51 | 47.26861 | 11.84495 | 130° | 62km/h | 8519m | -5.0m/s | -26.3°C | 20.5% | 352.9hPa | 2.5V | 00:00:00 | 02:18:43 | 00:00:00 | |
| BAUMI2-15 | 2026-09-04 05:57:48 | 47.26890 | 11.84441 | 130° | 62km/h | 8534m | -5.3m/s | -26.4°C | 21.5% | 352.3hPa | 2.5V | 00:00:00 | 02:18:40 | 00:00:00 | |
| DO3MHA-11 | 2026-09-04 05:57:45 | 47.26920 | 11.84387 | 129° | 64km/h | 8550m | -5.0m/s | -26.6°C | 22.0% | 351.5hPa | 2.5V | 00:00:00 | 02:18:37 | 00:00:00 | |
| DG1MFX-10 | 2026-09-04 05:57:44 | 47.26920 | 11.84387 | 130° | 62km/h | 8550m | -5.1m/s | -26.6°C | 19.9% | 351.6hPa | 2.5V | 01:20:00 | 00:00:00 | 00:00:00 | |
| IN3IJJ | 2026-09-04 05:57:43 | 47.26940 | 11.84351 | 130° | 64km/h | 8560m | -5.1m/s | -26.7°C | 20.2% | 351.0hPa | 2.5V | 00:00:00 | 00:00:00 | 00:00:00 | |
| DO3MHA-12 | 2026-09-04 05:57:41 | 47.26960 | 11.84314 | 129° | 64km/h | 8571m | -5.0m/s | -26.7°C | 22.9% | 350.4hPa | 2.5V | 01:20:00 | 02:18:33 | 00:00:00 | |
| OE3JTB-15 | 2026-09-04 05:57:38 | 47.26990 | 11.84259 | 130° | 64km/h | 8586m | -4.8m/s | -26.9°C | 24.0% | 349.7hPa | 2.5V | 01:20:00 | 00:00:00 | 00:00:00 | |
| OE5DRO-10 | 2026-09-04 05:57:36 | 47.27010 | 11.84223 | 130° | 64km/h | 8596m | -5.2m/s | -27.0°C | 24.4% | 349.3hPa | 2.6V | 00:00:00 | 00:00:00 | 00:00:00 | |
| BAUMI2-15 | 2026-09-04 05:57:33 | 47.27041 | 11.84168 | 129° | 64km/h | 8612m | -5.2m/s | -27.1°C | 25.2% | 348.5hPa | 2.6V | 01:20:00 | 02:18:25 | 00:00:00 | |
| DO3MHA-12 | 2026-09-04 05:57:31 | 47.27061 | 11.84132 | 130° | 64km/h | 8622m | -5.1m/s | -27.3°C | 25.5% | 348.0hPa | 2.6V | 00:00:00 | 02:18:23 | 00:00:00 | |
| IN3HCDX | 2026-09-04 05:57:30 | 47.27061 | 11.84132 | 130° | 64km/h | 8622m | -5.1m/s | -27.3°C | 23.1% | 348.0hPa | 2.5V | 01:20:00 | 00:00:00 | 00:00:00 | |
| BAUMI2-15 | 2026-09-04 05:57:28 | 47.27092 | 11.84076 | 130° | 64km/h | 8638m | -5.0m/s | -27.4°C | 25.9% | 347.2hPa | 2.5V | 00:00:00 | 02:18:20 | 00:00:00 | |
| DO3MHA-11 | 2026-09-04 05:57:25 | 47.27123 | 11.84021 | 130° | 64km/h | 8654m | -5.1m/s | -27.5°C | 26.2% | 346.5hPa | 2.5V | 00:00:00 | 02:18:17 | 00:00:00 | |
| DG1MFX-10 | 2026-09-04 05:57:24 | 47.27123 | 11.84021 | 130° | 64km/h | 8654m | -5.2m/s | -27.6°C | 23.7% | 346.5hPa | 2.5V | 01:20:00 | 00:00:00 | 00:00:00 | |
| BAUMI2-15 | 2026-09-04 05:57:23 | 47.27143 | 11.83984 | 130° | 64km/h | 8664m | -5.2m/s | -27.6°C | 26.4% | 346.0hPa | 2.5V | 01:20:00 | 02:18:15 | 00:00:00 | |
| DL6DJ-15 | 2026-09-04 05:57:22 | 47.27154 | 11.83965 | 129° | 64km/h | 8669m | -5.1m/s | -27.7°C | 24.1% | 345.7hPa | 2.5V | 00:00:00 | 00:00:00 | 00:00:00 | |
| DO3MHA-12 | 2026-09-04 05:57:21 | 47.27164 | 11.83947 | 130° | 66km/h | 8674m | -5.1m/s | -27.7°C | 26.7% | 345.4hPa | 2.5V | 01:20:00 | 02:18:13 | 00:00:00 | |
| BAUMI2-15 | 2026-09-04 05:57:18 | 47.27195 | 11.83891 | 130° | 66km/h | 8690m | -5.1m/s | -27.9°C | 27.0% | 344.7hPa | 2.5V | 00:00:00 | 02:18:10 | 00:00:00 | |
| OE5DRO-10 | 2026-09-04 05:57:17 | 47.27206 | 11.83873 | 130° | 66km/h | 8695m | -5.1m/s | -27.9°C | 27.1% | 344.4hPa | 2.5V | 01:20:00 | 00:00:00 | 00:00:00 | |
| DO3MHA-11 | 2026-09-04 05:57:15 | 47.27227 | 11.83835 | 130° | 66km/h | 8705m | -5.1m/s | -28.0°C | 27.4% | 344.0hPa | 2.5V | 01:20:00 | 02:18:07 | 00:00:00 | |
| BAUMI2-15 | 2026-09-04 05:57:13 | 47.27248 | 11.83797 | 130° | 66km/h | 8715m | -5.2m/s | -28.1°C | 27.6% | 343.4hPa | 2.5V | 01:20:00 | 02:18:05 | 00:00:00 | |
| DO3MHA-12 | 2026-09-04 05:57:11 | 47.27269 | 11.83760 | 131° | 68km/h | 8726m | -5.2m/s | -28.2°C | 28.0% | 343.0hPa | 2.6V | 00:00:00 | 02:18:03 | 00:00:00 | |
| OE3JTB-15 | 2026-09-04 05:57:09 | 47.27291 | 11.83722 | 131° | 68km/h | 8736m | -5.2m/s | -28.3°C | 28.3% | 342.5hPa | 2.6V | 00:00:00 | 00:00:00 | 00:00:00 | |
| BAUMI2-15 | 2026-09-04 05:57:08 | 47.27302 | 11.83703 | 131° | 68km/h | 8742m | -5.4m/s | -28.4°C | 28.4% | 342.2hPa | 2.6V | 00:00:00 | 02:18:00 | 00:00:00 | |
| NBG1-10 | 2026-09-04 05:57:07 | 47.27313 | 11.83684 | 131° | 68km/h | 8747m | -5.3m/s | -28.4°C | 28.5% | 342.0hPa | 2.6V | 01:20:00 | 02:17:59 | 00:00:00 | |
| DO3MHA-11 | 2026-09-04 05:57:05 | 47.27335 | 11.83646 | 130° | 68km/h | 8758m | -5.1m/s | -28.5°C | 28.8% | 341.5hPa | 2.6V | 00:00:00 | 02:17:57 | 00:00:00 | |
| BAUMI2-15 | 2026-09-04 05:57:03 | 47.27356 | 11.83608 | 129° | 68km/h | 8768m | -5.4m/s | -28.6°C | 29.0% | 340.9hPa | 2.6V | 01:20:00 | 02:17:55 | 00:00:00 | |
| DG1MFX-10 | 2026-09-04 05:57:02 | 47.27357 | 11.83608 | 130° | 68km/h | 8768m | -5.5m/s | -28.7°C | 26.2% | 341.0hPa | 2.6V | 01:20:00 | 00:00:00 | 00:00:00 | |
| DO3MHA-12 | 2026-09-04 05:57:01 | 47.27378 | 11.83569 | 129° | 68km/h | 8779m | -5.4m/s | -28.7°C | 29.2% | 340.5hPa | 2.6V | 01:20:00 | 02:17:53 | 00:00:00 | |
| BAUMI2-15 | 2026-09-04 05:56:58 | 47.27409 | 11.83511 | 129° | 68km/h | 8795m | -5.4m/s | -28.8°C | 29.1% | 339.7hPa | 2.5V | 00:00:00 | 02:17:50 | 00:00:00 | |
| DO3MHA-11 | 2026-09-04 05:56:55 | 47.27441 | 11.83451 | 129° | 68km/h | 8811m | -5.2m/s | -29.0°C | 29.0% | 338.9hPa | 2.5V | 01:20:00 | 02:17:47 | 00:00:00 | |
| BAUMI2-15 | 2026-09-04 05:56:53 | 47.27462 | 11.83412 | 129° | 68km/h | 8822m | -5.5m/s | -29.1°C | 29.0% | 338.3hPa | 2.5V | 01:20:00 | 02:17:45 | 00:00:00 | |
| DO3MHA-12 | 2026-09-04 05:56:51 | 47.27483 | 11.83372 | 128° | 68km/h | 8833m | -5.2m/s | -29.2°C | 29.4% | 337.9hPa | 2.5V | 00:00:00 | 02:17:43 | 00:00:00 | |
| BAUMI2-15 | 2026-09-04 05:56:48 | 47.27513 | 11.83312 | 126° | 68km/h | 8849m | -5.5m/s | -29.3°C | 29.9% | 337.1hPa | 2.5V | 00:00:00 | 02:17:40 | 00:00:00 | |
| DO3MHA-11 | 2026-09-04 05:56:45 | 47.27543 | 11.83251 | 126° | 68km/h | 8865m | -5.5m/s | -29.4°C | 30.6% | 336.3hPa | 2.5V | 00:00:00 | 02:17:37 | 00:00:00 | |
| BAUMI2-15 | 2026-09-04 05:56:43 | 47.27562 | 11.83211 | 126° | 68km/h | 8876m | -5.5m/s | -29.5°C | 30.8% | 335.9hPa | 2.5V | 01:21:00 | 02:17:35 | 00:00:00 | |
| DG1MFX-10 | 2026-09-04 05:56:42 | 47.27562 | 11.83210 | 126° | 68km/h | 8876m | -5.5m/s | -29.5°C | 27.8% | 335.9hPa | 2.5V | 01:21:00 | 00:00:00 | 00:00:00 | |
| DO3MHA-12 | 2026-09-04 05:56:41 | 47.27582 | 11.83169 | 125° | 68km/h | 8887m | -5.4m/s | -29.6°C | 31.0% | 335.4hPa | 2.5V | 01:21:00 | 02:17:33 | 00:00:00 | |
| OE5DRO-10 | 2026-09-04 05:56:39 | 47.27601 | 11.83128 | 125° | 69km/h | 8898m | -5.4m/s | -29.7°C | 31.3% | 334.8hPa | 2.5V | 01:21:00 | 00:00:00 | 00:00:00 | |
| BAUMI2-15 | 2026-09-04 05:56:38 | 47.27610 | 11.83107 | 124° | 68km/h | 8904m | -5.3m/s | -29.8°C | 31.4% | 334.5hPa | 2.6V | 00:00:00 | 02:17:30 | 00:00:00 | |
| OE3JTB-15 | 2026-09-04 05:56:37 | 47.27620 | 11.83086 | 125° | 68km/h | 8909m | -5.3m/s | -29.8°C | 31.4% | 334.3hPa | 2.6V | 01:21:00 | 02:17:29 | 00:00:00 | |
| DO3MHA-11 | 2026-09-04 05:56:35 | 47.27640 | 11.83045 | 125° | 69km/h | 8920m | -5.4m/s | -29.9°C | 31.8% | 333.8hPa | 2.6V | 01:21:00 | 02:17:27 | 00:00:00 | |
| NBG1-10 | 2026-09-04 05:56:34 | 47.27649 | 11.83024 | 125° | 69km/h | 8925m | -5.3m/s | -29.9°C | 31.9% | 333.6hPa | 2.6V | 00:00:00 | 02:17:26 | 00:00:00 | |
| BAUMI2-15 | 2026-09-04 05:56:33 | 47.27659 | 11.83003 | 125° | 69km/h | 8931m | -5.3m/s | -30.0°C | 32.0% | 333.3hPa | 2.5V | 01:21:00 | 02:17:25 | 00:00:00 | |
| DO3MHA-12 | 2026-09-04 05:56:31 | 47.27679 | 11.82960 | 124° | 69km/h | 8942m | -5.3m/s | -30.1°C | 32.1% | 332.8hPa | 2.5V | 00:00:00 | 02:17:23 | 00:00:00 | |
| BAUMI2-15 | 2026-09-04 05:56:28 | 47.27708 | 11.82896 | 125° | 69km/h | 8958m | -5.4m/s | -30.2°C | 32.4% | 332.0hPa | 2.5V | 00:00:00 | 02:17:20 | 00:00:00 | |
| IN3HCDX | 2026-09-04 05:56:27 | 47.27708 | 11.82896 | 125° | 69km/h | 8958m | -5.4m/s | -30.2°C | 29.2% | 332.1hPa | 2.5V | 01:21:00 | 00:00:00 | 00:00:00 | |
| DO3MHA-11 | 2026-09-04 05:56:25 | 47.27737 | 11.82831 | 123° | 69km/h | 8974m | -5.3m/s | -30.3°C | 32.4% | 331.3hPa | 2.5V | 00:00:00 | 02:17:17 | 00:00:00 | |
| DB0ND-19 | 2026-09-04 05:56:22 | 47.27766 | 11.82766 | 122° | 69km/h | 8990m | -5.3m/s | -30.5°C | 29.0% | 330.4hPa | 2.5V | 00:00:00 | 00:00:00 | 00:00:00 | |
| OE5DXL-15 | 2026-09-04 05:56:21 | 47.27775 | 11.82745 | 123° | 71km/h | 8996m | -5.6m/s | -30.5°C | 32.1% | 330.3hPa | 2.5V | 01:21:00 | 00:00:00 | 00:00:00 | |
| OE5DRO-10 | 2026-09-04 05:56:20 | 47.27785 | 11.82723 | 123° | 69km/h | 9002m | -5.4m/s | -30.5°C | 31.9% | 330.0hPa | 2.5V | 00:00:00 | 00:00:00 | 00:00:00 | |
| BAUMI2-15 | 2026-09-04 05:56:18 | 47.27804 | 11.82679 | 123° | 69km/h | 9012m | -5.4m/s | -30.6°C | 31.4% | 329.5hPa | 2.5V | 00:00:00 | 02:17:10 | 00:00:00 | |
| DO3MHA-11 | 2026-09-04 05:56:15 | 47.27832 | 11.82613 | 123° | 69km/h | 9028m | -5.5m/s | -30.7°C | 31.1% | 328.7hPa | 2.5V | 01:21:00 | 02:17:07 | 00:00:00 | |
| BAUMI2-15 | 2026-09-04 05:56:13 | 47.27851 | 11.82568 | 122° | 69km/h | 9039m | -5.6m/s | -30.8°C | 31.5% | 328.2hPa | 2.5V | 01:21:00 | 02:17:05 | 00:00:00 | |
| DO3MHA-12 | 2026-09-04 05:56:11 | 47.27869 | 11.82524 | 122° | 71km/h | 9051m | -5.4m/s | -30.9°C | 31.1% | 327.7hPa | 2.5V | 00:00:00 | 02:17:03 | 00:00:00 | |
| OE3JTB-15 | 2026-09-04 05:56:08 | 47.27896 | 11.82457 | 121° | 71km/h | 9067m | -5.5m/s | -31.0°C | 30.4% | 327.0hPa | 2.5V | 00:00:00 | 00:00:00 | 00:00:00 | |
| IN3HCDX | 2026-09-04 05:56:07 | 47.27896 | 11.82457 | 121° | 69km/h | 9067m | -5.6m/s | -31.1°C | 27.3% | 327.0hPa | 2.6V | 01:21:00 | 00:00:00 | 00:00:00 | |
| DO3MHA-11 | 2026-09-04 05:56:05 | 47.27923 | 11.82389 | 121° | 71km/h | 9083m | -5.1m/s | -31.1°C | 31.3% | 326.2hPa | 2.6V | 00:00:00 | 02:16:57 | 00:00:00 | |
| BAUMI2-15 | 2026-09-04 05:56:03 | 47.27941 | 11.82343 | 120° | 69km/h | 9093m | -5.3m/s | -31.2°C | 31.5% | 325.7hPa | 2.5V | 01:21:00 | 02:16:55 | 00:00:00 | |
| DO3MHA-12 | 2026-09-04 05:56:01 | 47.27959 | 11.82297 | 119° | 71km/h | 9104m | -5.8m/s | -31.3°C | 31.4% | 325.2hPa | 2.5V | 01:21:00 | 02:16:53 | 00:00:00 | |
| DO3MHA-11 | 2026-09-04 05:55:55 | 47.28010 | 11.82159 | 118° | 71km/h | 9138m | -5.7m/s | -31.6°C | 31.5% | 323.6hPa | 2.6V | 01:21:00 | 02:16:47 | 00:00:00 | |
| DO3MHA-12 | 2026-09-04 05:55:51 | 47.28043 | 11.82066 | 118° | 69km/h | 9160m | -5.5m/s | -31.8°C | 31.2% | 322.8hPa | 2.6V | 00:00:00 | 02:16:43 | 00:00:00 | |
| DG1MJG | 2026-09-04 05:55:49 | 47.28060 | 11.82019 | 119° | 71km/h | 9171m | -5.6m/s | -31.9°C | 27.7% | 322.2hPa | 2.6V | 01:22:00 | 00:00:00 | 00:00:00 | |
| IN3HCDX | 2026-09-04 05:55:46 | 47.28076 | 11.81973 | 118° | 69km/h | 9182m | -5.5m/s | -32.0°C | 27.5% | 321.8hPa | 2.6V | 00:00:00 | 00:00:00 | 00:00:00 | |
| DO3MHA-11 | 2026-09-04 05:55:45 | 47.28092 | 11.81927 | 117° | 69km/h | 9193m | -5.4m/s | -32.1°C | 30.5% | 321.1hPa | 2.6V | 00:00:00 | 02:16:37 | 00:00:00 | |
| OE5DRO-10 | 2026-09-04 05:55:42 | 47.28116 | 11.81857 | 117° | 69km/h | 9209m | -5.5m/s | -32.2°C | 30.9% | 320.4hPa | 2.6V | 00:00:00 | 00:00:00 | 00:00:00 | |
| DO3MHA-12 | 2026-09-04 05:55:41 | 47.28124 | 11.81833 | 117° | 71km/h | 9215m | -5.6m/s | -32.2°C | 31.2% | 320.2hPa | 2.5V | 01:22:00 | 02:16:33 | 00:00:00 | |
| OE3JTB-15 | 2026-09-04 05:55:39 | 47.28139 | 11.81786 | 116° | 69km/h | 9226m | -5.5m/s | -32.3°C | 31.7% | 319.7hPa | 2.5V | 01:22:00 | 00:00:00 | 00:00:00 | |
| DO3MHA-11 | 2026-09-04 05:55:35 | 47.28170 | 11.81691 | 115° | 69km/h | 9248m | -5.3m/s | -32.5°C | 31.5% | 318.7hPa | 2.5V | 01:22:00 | 02:16:27 | 00:00:00 | |
| DO3MHA-12 | 2026-09-04 05:55:31 | 47.28198 | 11.81596 | 114° | 68km/h | 9270m | -5.5m/s | -32.7°C | 30.6% | 317.7hPa | 2.6V | 00:00:00 | 02:16:23 | 00:00:00 | |
| NBG1-10 | 2026-09-04 05:55:28 | 47.28219 | 11.81525 | 114° | 68km/h | 9286m | -5.4m/s | -32.8°C | 30.4% | 317.0hPa | 2.5V | 00:00:00 | 02:16:20 | 00:00:00 | |
| DO3MHA-11 | 2026-09-04 05:55:25 | 47.28240 | 11.81456 | 114° | 68km/h | 9302m | -5.4m/s | -32.9°C | 29.9% | 316.2hPa | 2.5V | 00:00:00 | 02:16:17 | 00:00:00 | |
| OE5DRO-10 | 2026-09-04 05:55:23 | 47.28253 | 11.81409 | 114° | 68km/h | 9313m | -5.3m/s | -33.0°C | 29.0% | 315.8hPa | 2.5V | 01:22:00 | 00:00:00 | 00:00:00 | |
| DO3MHA-12 | 2026-09-04 05:55:21 | 47.28267 | 11.81362 | 113° | 68km/h | 9324m | -5.6m/s | -33.0°C | 27.9% | 315.2hPa | 2.5V | 01:22:00 | 02:16:13 | 00:00:00 | |
| DG1MFX-10 | 2026-09-04 05:55:20 | 47.28267 | 11.81362 | 114° | 68km/h | 9324m | -5.7m/s | -33.1°C | 24.7% | 315.3hPa | 2.5V | 00:00:00 | 00:00:00 | 00:00:00 | |
| DL6DJ-15 | 2026-09-04 05:55:18 | 47.28286 | 11.81292 | 111° | 68km/h | 9339m | -5.3m/s | -33.2°C | 24.4% | 314.6hPa | 2.5V | 00:00:00 | 00:00:00 | 00:00:00 | |
| DG1MJG | 2026-09-04 05:55:17 | 47.28286 | 11.81292 | 113° | 69km/h | 9340m | -5.3m/s | -33.2°C | 24.4% | 314.6hPa | 2.5V | 01:22:00 | 00:00:00 | 00:00:00 | |
| DO3MHA-11 | 2026-09-04 05:55:15 | 47.28305 | 11.81220 | 112° | 68km/h | 9356m | -5.2m/s | -33.2°C | 27.8% | 313.8hPa | 2.5V | 01:22:00 | 02:16:07 | 00:00:00 | |
| DO3MHA-12 | 2026-09-04 05:55:11 | 47.28330 | 11.81126 | 111° | 68km/h | 9377m | -5.3m/s | -33.4°C | 29.6% | 312.9hPa | 2.5V | 00:00:00 | 02:16:03 | 00:00:00 | |
| OE3JTB-15 | 2026-09-04 05:55:09 | 47.28342 | 11.81079 | 111° | 68km/h | 9388m | -5.5m/s | -33.5°C | 29.8% | 312.4hPa | 2.5V | 00:00:00 | 02:16:01 | 00:00:00 | |
| DO3MHA-11 | 2026-09-04 05:55:05 | 47.28366 | 11.80985 | 110° | 68km/h | 9409m | -5.6m/s | -33.7°C | 28.7% | 311.4hPa | 2.5V | 00:00:00 | 02:15:57 | 00:00:00 | |
| OE5DRO-10 | 2026-09-04 05:55:04 | 47.28371 | 11.80962 | 110° | 68km/h | 9415m | -5.7m/s | -33.7°C | 28.0% | 311.2hPa | 2.5V | 00:00:00 | 00:00:00 | 00:00:00 | |
| DB0ND-19 | 2026-09-04 05:54:49 | 47.28466 | 11.80581 | 110° | 68km/h | 9502m | -5.3m/s | -34.4°C | 27.3% | 307.4hPa | 2.5V | 00:00:00 | 00:00:00 | 00:00:00 | |
| DL6DJ-15 | 2026-09-04 05:54:47 | 47.28472 | 11.80558 | 110° | 68km/h | 9507m | -5.4m/s | -34.4°C | 27.4% | 307.2hPa | 2.5V | 00:00:00 | 00:00:00 | 00:00:00 | |
| DG1MJG | 2026-09-04 05:54:46 | 47.28471 | 11.80558 | 111° | 68km/h | 9507m | -5.4m/s | -34.4°C | 27.4% | 307.2hPa | 2.5V | 01:23:00 | 00:00:00 | 00:00:00 | |
| DO3MHA-11 | 2026-09-04 05:54:45 | 47.28483 | 11.80510 | 110° | 68km/h | 9518m | -5.4m/s | -34.5°C | 31.2% | 306.7hPa | 2.5V | 00:00:00 | 02:15:37 | 00:00:00 | |
| DO3MHA-12 | 2026-09-04 05:54:41 | 47.28506 | 11.80416 | 110° | 68km/h | 9539m | -5.1m/s | -34.7°C | 31.7% | 305.6hPa | 2.5V | 01:23:00 | 02:15:33 | 00:00:00 | |
| OE3JTB-15 | 2026-09-04 05:54:40 | 47.28512 | 11.80392 | 110° | 68km/h | 9545m | -5.3m/s | -34.7°C | 31.8% | 305.5hPa | 2.5V | 01:23:00 | 00:00:00 | 00:00:00 | |
| DG1MFX-10 | 2026-09-04 05:54:39 | 47.28512 | 11.80392 | 111° | 68km/h | 9545m | -5.4m/s | -34.8°C | 28.2% | 305.5hPa | 2.5V | 01:23:00 | 00:00:00 | 00:00:00 | |
| DO3MHA-11 | 2026-09-04 05:54:35 | 47.28542 | 11.80274 | 111° | 68km/h | 9571m | -5.1m/s | -35.0°C | 32.5% | 304.3hPa | 2.5V | 01:23:00 | 02:15:27 | 00:00:00 | |
| NBG1-10 | 2026-09-04 05:54:33 | 47.28554 | 11.80227 | 111° | 66km/h | 9581m | -5.3m/s | -35.1°C | 32.6% | 303.9hPa | 2.6V | 01:23:00 | 02:15:25 | 00:00:00 | |
| DO3MHA-12 | 2026-09-04 05:54:31 | 47.28566 | 11.80180 | 112° | 68km/h | 9592m | -5.3m/s | -35.2°C | 32.8% | 303.4hPa | 2.5V | 00:00:00 | 02:15:23 | 00:00:00 | |
| OE5DRO-10 | 2026-09-04 05:54:26 | 47.28597 | 11.80064 | 112° | 66km/h | 9619m | -5.3m/s | -35.4°C | 32.9% | 302.2hPa | 2.6V | 00:00:00 | 00:00:00 | 00:00:00 | |
| DO3MHA-11 | 2026-09-04 05:54:25 | 47.28603 | 11.80041 | 112° | 66km/h | 9625m | -5.5m/s | -35.5°C | 33.0% | 302.0hPa | 2.6V | 00:00:00 | 02:15:17 | 00:00:00 | |
| OE5DXL-15 | 2026-09-04 05:54:21 | 47.28628 | 11.79949 | 113° | 64km/h | 9646m | -5.2m/s | -35.7°C | 32.1% | 301.1hPa | 2.6V | 01:23:00 | 00:00:00 | 00:00:00 | |
| IN3HCDX | 2026-09-04 05:54:20 | 47.28628 | 11.79949 | 113° | 66km/h | 9646m | -5.3m/s | -35.7°C | 28.3% | 301.1hPa | 2.5V | 01:23:00 | 00:00:00 | 00:00:00 | |
| DG1MFX-10 | 2026-09-04 05:54:19 | 47.28634 | 11.79926 | 113° | 66km/h | 9651m | -5.4m/s | -35.8°C | 28.3% | 300.9hPa | 2.5V | 01:23:00 | 00:00:00 | 00:00:00 | |
| DL6DJ-15 | 2026-09-04 05:54:16 | 47.28660 | 11.79835 | 113° | 66km/h | 9673m | -5.5m/s | -36.0°C | 27.7% | 299.9hPa | 2.5V | 00:00:00 | 00:00:00 | 00:00:00 | |
| DO3MHA-11 | 2026-09-04 05:54:15 | 47.28667 | 11.79813 | 113° | 66km/h | 9679m | -5.3m/s | -36.0°C | 31.3% | 299.7hPa | 2.5V | 01:23:00 | 02:15:07 | 00:00:00 | |
| DO3MHA-12 | 2026-09-04 05:54:11 | 47.28693 | 11.79723 | 114° | 64km/h | 9700m | -5.2m/s | -36.2°C | 29.7% | 298.8hPa | 2.5V | 00:00:00 | 02:15:03 | 00:00:00 | |
| OE5DRO-10 | 2026-09-04 05:54:07 | 47.28720 | 11.79636 | 116° | 62km/h | 9721m | -5.2m/s | -36.3°C | 28.3% | 297.8hPa | 2.5V | 01:23:00 | 00:00:00 | 00:00:00 | |
| DO3MHA-11 | 2026-09-04 05:54:05 | 47.28734 | 11.79592 | 116° | 64km/h | 9732m | -5.3m/s | -36.4°C | 27.3% | 297.3hPa | 2.5V | 00:00:00 | 02:14:57 | 00:00:00 | |
| DO3MHA-12 | 2026-09-04 05:54:01 | 47.28762 | 11.79507 | 116° | 62km/h | 9754m | -5.5m/s | -36.6°C | 26.1% | 296.5hPa | 2.6V | 01:23:00 | 02:14:53 | 00:00:00 | |
| NBG1-10 | 2026-09-04 05:54:00 | 47.28769 | 11.79486 | 116° | 62km/h | 9760m | -5.3m/s | -36.6°C | 25.8% | 296.2hPa | 2.5V | 00:00:00 | 02:14:52 | 00:00:00 | |
| IN3HCDX | 2026-09-04 05:53:59 | 47.28769 | 11.79486 | 117° | 64km/h | 9760m | -5.4m/s | -36.7°C | 22.5% | 296.2hPa | 2.5V | 01:24:00 | 00:00:00 | 00:00:00 | |
| DG1MFX-10 | 2026-09-04 05:53:58 | 47.28775 | 11.79464 | 116° | 62km/h | 9765m | -5.3m/s | -36.7°C | 22.2% | 296.1hPa | 2.5V | 01:24:00 | 00:00:00 | 00:00:00 | |
| BAUMI2-15 | 2026-09-04 05:53:57 | 47.28789 | 11.79422 | 116° | 62km/h | 9776m | -5.2m/s | -36.8°C | 24.8% | 295.6hPa | 2.5V | 00:00:00 | 02:14:49 | 00:00:00 | |
| DO3MHA-11 | 2026-09-04 05:53:55 | 47.28803 | 11.79380 | 116° | 62km/h | 9787m | -5.2m/s | -36.8°C | 24.3% | 295.0hPa | 2.6V | 01:23:00 | 02:14:47 | 00:00:00 | |
| BAUMI2-15 | 2026-09-04 05:53:52 | 47.28823 | 11.79318 | 116° | 62km/h | 9803m | -5.2m/s | -37.0°C | 24.2% | 294.4hPa | 2.6V | 01:23:00 | 02:14:44 | 00:00:00 | |
| DO3MHA-12 | 2026-09-04 05:53:51 | 47.28830 | 11.79297 | 117° | 62km/h | 9808m | -5.2m/s | -37.0°C | 24.1% | 294.2hPa | 2.6V | 00:00:00 | 02:14:43 | 00:00:00 | |
| OE5DRO-10 | 2026-09-04 05:53:48 | 47.28851 | 11.79235 | 117° | 62km/h | 9824m | -5.4m/s | -37.1°C | 25.2% | 293.4hPa | 2.6V | 00:00:00 | 00:00:00 | 00:00:00 | |
| BAUMI2-15 | 2026-09-04 05:53:47 | 47.28858 | 11.79214 | 117° | 62km/h | 9829m | -5.4m/s | -37.2°C | 25.7% | 293.2hPa | 2.5V | 00:00:00 | 02:14:39 | 00:00:00 | |
| DB0UT-7 | 2026-09-04 05:53:45 | 47.28872 | 11.79173 | 117° | 62km/h | 9840m | -5.2m/s | -37.3°C | 26.1% | 292.8hPa | 2.5V | 01:24:00 | 02:14:37 | 00:00:00 | |
| BAUMI2-15 | 2026-09-04 05:53:42 | 47.28893 | 11.79112 | 117° | 62km/h | 9856m | -5.4m/s | -37.4°C | 26.7% | 292.1hPa | 2.5V | 01:24:00 | 02:14:34 | 00:00:00 | |
| DO3MHA-12 | 2026-09-04 05:53:41 | 47.28900 | 11.79092 | 118° | 62km/h | 9861m | -5.3m/s | -37.5°C | 26.8% | 291.9hPa | 2.5V | 01:24:00 | 02:14:33 | 00:00:00 | |
| BAUMI2-15 | 2026-09-04 05:53:37 | 47.28929 | 11.79011 | 118° | 62km/h | 9883m | -5.4m/s | -37.6°C | 27.2% | 291.0hPa | 2.5V | 00:00:00 | 02:14:29 | 00:00:00 | |
| IN3HCDX | 2026-09-04 05:53:36 | 47.28929 | 11.79011 | 119° | 62km/h | 9883m | -5.4m/s | -37.7°C | 23.6% | 291.0hPa | 2.5V | 01:24:00 | 00:00:00 | 00:00:00 | |
| DO3MHA-11 | 2026-09-04 05:53:35 | 47.28943 | 11.78971 | 118° | 62km/h | 9893m | -5.3m/s | -37.8°C | 27.3% | 290.5hPa | 2.5V | 01:24:00 | 02:14:27 | 00:00:00 | |
| DB0NH | 2026-09-04 05:53:34 | 47.28951 | 11.78950 | 118° | 62km/h | 9898m | -5.3m/s | -37.8°C | 27.1% | 290.2hPa | 2.5V | 00:00:00 | 02:14:26 | 00:00:00 | |
| BAUMI2-15 | 2026-09-04 05:53:32 | 47.28965 | 11.78910 | 118° | 62km/h | 9909m | -5.3m/s | -37.9°C | 27.4% | 289.8hPa | 2.5V | 01:24:00 | 02:14:24 | 00:00:00 | |
| DO3MHA-12 | 2026-09-04 05:53:31 | 47.28972 | 11.78890 | 118° | 62km/h | 9915m | -5.5m/s | -38.0°C | 27.5% | 289.6hPa | 2.5V | 00:00:00 | 02:14:23 | 00:00:00 | |
| OE5DRO-10 | 2026-09-04 05:53:29 | 47.28987 | 11.78850 | 119° | 62km/h | 9926m | -5.2m/s | -38.1°C | 27.8% | 289.1hPa | 2.6V | 01:24:00 | 00:00:00 | 00:00:00 | |
| NBG1-10 | 2026-09-04 05:53:27 | 47.29001 | 11.78810 | 119° | 62km/h | 9936m | -5.2m/s | -38.2°C | 28.1% | 288.7hPa | 2.6V | 01:24:00 | 02:14:19 | 00:00:00 | |
| DO3MHA-11 | 2026-09-04 05:53:25 | 47.29016 | 11.78769 | 119° | 62km/h | 9947m | -5.3m/s | -38.2°C | 28.4% | 288.2hPa | 2.6V | 00:00:00 | 02:14:17 | 00:00:00 | |
| BAUMI2-15 | 2026-09-04 05:53:22 | 47.29038 | 11.78709 | 119° | 62km/h | 9963m | -5.4m/s | -38.4°C | 28.8% | 287.5hPa | 2.6V | 01:24:00 | 02:14:14 | 00:00:00 | |
| DO3MHA-12 | 2026-09-04 05:53:21 | 47.29046 | 11.78689 | 119° | 62km/h | 9968m | -5.4m/s | -38.5°C | 29.0% | 287.3hPa | 2.6V | 01:24:00 | 02:14:13 | 00:00:00 | |
| BAUMI2-15 | 2026-09-04 05:53:17 | 47.29075 | 11.78609 | 119° | 62km/h | 9990m | -5.3m/s | -38.7°C | 29.5% | 286.5hPa | 2.6V | 00:00:00 | 02:14:09 | 00:00:00 | |
| DB0UT-7 | 2026-09-04 05:53:15 | 47.29090 | 11.78568 | 119° | 64km/h | 10001m | -5.7m/s | -38.8°C | 29.6% | 286.0hPa | 2.6V | 00:00:00 | 00:00:00 | 00:00:00 | |
| DL6DJ-15 | 2026-09-04 05:53:14 | 47.29106 | 11.78528 | 119° | 60km/h | 10011m | -5.2m/s | -38.9°C | 26.0% | 285.6hPa | 2.6V | 00:00:00 | 00:00:00 | 00:00:00 | |
| OE3JTB-15 | 2026-09-04 05:53:13 | 47.29106 | 11.78528 | 120° | 64km/h | 10011m | -5.2m/s | -38.9°C | 30.0% | 285.6hPa | 2.6V | 00:00:00 | 00:00:00 | 00:00:00 | |
| BAUMI2-15 | 2026-09-04 05:53:12 | 47.29113 | 11.78508 | 119° | 62km/h | 10017m | -5.5m/s | -38.9°C | 30.2% | 285.4hPa | 2.5V | 01:24:00 | 02:14:04 | 00:00:00 | |
| DO3MHA-12 | 2026-09-04 05:53:11 | 47.29121 | 11.78487 | 120° | 62km/h | 10022m | -5.4m/s | -39.0°C | 30.2% | 285.1hPa | 2.5V | 00:00:00 | 02:14:03 | 00:00:00 | |
| OE5DRO-10 | 2026-09-04 05:53:10 | 47.29129 | 11.78467 | 119° | 64km/h | 10028m | -5.3m/s | -39.1°C | 30.4% | 284.9hPa | 2.5V | 00:00:00 | 00:00:00 | 00:00:00 | |
| BAUMI2-15 | 2026-09-04 05:53:07 | 47.29151 | 11.78406 | 120° | 64km/h | 10044m | -5.3m/s | -39.2°C | 30.4% | 284.2hPa | 2.5V | 00:00:00 | 02:13:59 | 00:00:00 | |
| DO3MHA-11 | 2026-09-04 05:53:05 | 47.29167 | 11.78365 | 120° | 64km/h | 10055m | -5.1m/s | -39.3°C | 30.5% | 283.8hPa | 2.5V | 00:00:00 | 02:13:57 | 00:00:00 | |
| DB0NH | 2026-09-04 05:53:04 | 47.29175 | 11.78345 | 120° | 64km/h | 10060m | -5.3m/s | -39.3°C | 30.5% | 283.5hPa | 2.6V | 01:24:00 | 02:13:56 | 00:00:00 | |
| BAUMI2-15 | 2026-09-04 05:53:02 | 47.29190 | 11.78304 | 120° | 64km/h | 10071m | -5.2m/s | -39.4°C | 30.4% | 283.1hPa | 2.6V | 01:24:00 | 02:13:54 | 00:00:00 | |
| DO3MHA-12 | 2026-09-04 05:53:01 | 47.29198 | 11.78283 | 120° | 64km/h | 10076m | -5.4m/s | -39.5°C | 30.5% | 282.9hPa | 2.6V | 01:24:00 | 02:13:53 | 00:00:00 | |
| BAUMI2-15 | 2026-09-04 05:52:57 | 47.29230 | 11.78201 | 120° | 64km/h | 10097m | -5.5m/s | -39.7°C | 30.4% | 282.0hPa | 2.6V | 00:00:00 | 02:13:49 | 00:00:00 | |
| DG1MFX-10 | 2026-09-04 05:52:56 | 47.29230 | 11.78201 | 121° | 64km/h | 10097m | -5.5m/s | -39.7°C | 26.3% | 282.1hPa | 2.5V | 01:25:00 | 00:00:00 | 00:00:00 | |
| DO3MHA-11 | 2026-09-04 05:52:55 | 47.29247 | 11.78160 | 121° | 64km/h | 10108m | -5.1m/s | -39.8°C | 30.3% | 281.5hPa | 2.5V | 01:24:00 | 02:13:47 | 00:00:00 | |
| NBG1-10 | 2026-09-04 05:52:54 | 47.29255 | 11.78139 | 121° | 64km/h | 10114m | -5.5m/s | -39.8°C | 30.4% | 281.3hPa | 2.5V | 00:00:00 | 02:13:46 | 00:00:00 | |
| BAUMI2-15 | 2026-09-04 05:52:52 | 47.29271 | 11.78099 | 121° | 64km/h | 10124m | -5.1m/s | -39.9°C | 30.3% | 280.9hPa | 2.5V | 01:24:00 | 02:13:44 | 00:00:00 | |
| DO3MHA-12 | 2026-09-04 05:52:51 | 47.29280 | 11.78078 | 122° | 64km/h | 10129m | -5.2m/s | -40.0°C | 30.1% | 280.7hPa | 2.5V | 00:00:00 | 02:13:43 | 00:00:00 | |
| BAUMI2-15 | 2026-09-04 05:52:47 | 47.29313 | 11.77997 | 122° | 64km/h | 10150m | -5.2m/s | -40.1°C | 29.5% | 279.8hPa | 2.5V | 00:00:00 | 02:13:39 | 00:00:00 | |
| DB0UT-7 | 2026-09-04 05:52:45 | 47.29329 | 11.77957 | 122° | 64km/h | 10161m | -5.4m/s | -40.2°C | 29.4% | 279.4hPa | 2.5V | 01:25:00 | 02:13:37 | 00:00:00 | |
| OE3JTB-15 | 2026-09-04 05:52:44 | 47.29338 | 11.77937 | 122° | 64km/h | 10166m | -5.3m/s | -40.3°C | 29.3% | 279.1hPa | 2.5V | 01:25:00 | 00:00:00 | 00:00:00 | |
| DL6DJ-15 | 2026-09-04 05:52:43 | 47.29355 | 11.77896 | 121° | 64km/h | 10177m | -5.4m/s | -40.4°C | 25.4% | 278.8hPa | 2.5V | 00:00:00 | 00:00:00 | 00:00:00 | |
| BAUMI2-15 | 2026-09-04 05:52:42 | 47.29355 | 11.77896 | 122° | 64km/h | 10177m | -5.3m/s | -40.3°C | 29.5% | 278.7hPa | 2.5V | 01:25:00 | 02:13:34 | 00:00:00 | |
| DO3MHA-12 | 2026-09-04 05:52:41 | 47.29363 | 11.77876 | 122° | 64km/h | 10182m | -5.3m/s | -40.4°C | 29.6% | 278.5hPa | 2.6V | 01:25:00 | 02:13:33 | 00:00:00 | |
| BAUMI2-15 | 2026-09-04 05:52:37 | 47.29397 | 11.77795 | 122° | 64km/h | 10203m | -5.2m/s | -40.6°C | 30.0% | 277.6hPa | 2.6V | 00:00:00 | 02:13:29 | 00:00:00 | |
| DG1MFX-10 | 2026-09-04 05:52:36 | 47.29397 | 11.77795 | 123° | 64km/h | 10203m | -5.2m/s | -40.6°C | 25.9% | 277.7hPa | 2.6V | 01:25:00 | 00:00:00 | 00:00:00 | |
| DB0NH | 2026-09-04 05:52:34 | 47.29422 | 11.77735 | 122° | 66km/h | 10219m | -5.2m/s | -40.8°C | 30.3% | 277.0hPa | 2.6V | 00:00:00 | 02:13:26 | 00:00:00 | |
| BAUMI2-15 | 2026-09-04 05:52:32 | 47.29439 | 11.77695 | 122° | 64km/h | 10230m | -5.3m/s | -40.9°C | 30.3% | 276.5hPa | 2.5V | 01:25:00 | 02:13:24 | 00:00:00 | |
| DO3MHA-12 | 2026-09-04 05:52:31 | 47.29448 | 11.77675 | 123° | 64km/h | 10235m | -5.4m/s | -40.9°C | 30.3% | 276.3hPa | 2.5V | 00:00:00 | 02:13:23 | 00:00:00 | |
| BAUMI2-15 | 2026-09-04 05:52:27 | 47.29483 | 11.77595 | 124° | 64km/h | 10256m | -5.3m/s | -41.1°C | 29.8% | 275.5hPa | 2.5V | 00:00:00 | 02:13:19 | 00:00:00 | |
| IN3HCDX | 2026-09-04 05:52:26 | 47.29483 | 11.77595 | 125° | 64km/h | 10256m | -5.3m/s | -41.1°C | 25.6% | 275.5hPa | 2.6V | 01:26:00 | 00:00:00 | 00:00:00 | |
| DO3MHA-11 | 2026-09-04 05:52:25 | 47.29501 | 11.77555 | 125° | 64km/h | 10267m | -5.1m/s | -41.2°C | 29.6% | 275.0hPa | 2.6V | 00:00:00 | 02:13:17 | 00:00:00 | |
| BAUMI2-15 | 2026-09-04 05:52:22 | 47.29530 | 11.77496 | 126° | 64km/h | 10283m | -5.4m/s | -41.3°C | 29.1% | 274.4hPa | 2.6V | 01:25:00 | 02:13:14 | 00:00:00 | |
| OE5DXL-15 | 2026-09-04 05:52:21 | 47.29539 | 11.77477 | 126° | 66km/h | 10288m | -5.3m/s | -41.4°C | 28.9% | 274.2hPa | 2.6V | 01:25:00 | 00:00:00 | 00:00:00 | |
| BAUMI2-15 | 2026-09-04 05:52:17 | 47.29577 | 11.77399 | 126° | 66km/h | 10309m | -5.4m/s | -41.5°C | 28.1% | 273.3hPa | 2.6V | 00:00:00 | 02:13:09 | 00:00:00 | |
| OE5WHR-10 | 2026-09-04 05:52:16 | 47.29587 | 11.77379 | 127° | 66km/h | 10315m | -5.4m/s | -41.6°C | 27.8% | 273.1hPa | 2.6V | 01:25:00 | 00:00:00 | 00:00:00 | |
| DO3MHA-11 | 2026-09-04 05:52:15 | 47.29597 | 11.77360 | 127° | 66km/h | 10320m | -5.4m/s | -41.7°C | 27.6% | 272.8hPa | 2.6V | 01:25:00 | 02:13:07 | 00:00:00 | |
| DG1MJG | 2026-09-04 05:52:14 | 47.29597 | 11.77360 | 127° | 64km/h | 10320m | -5.4m/s | -41.7°C | 23.5% | 272.9hPa | 2.6V | 01:26:00 | 00:00:00 | 00:00:00 | |
| OE5DRO-10 | 2026-09-04 05:52:13 | 47.29616 | 11.77321 | 127° | 66km/h | 10331m | -5.5m/s | -41.7°C | 27.1% | 272.4hPa | 2.6V | 01:25:00 | 00:00:00 | 00:00:00 | |
| DL6DJ-15 | 2026-09-04 05:52:12 | 47.29636 | 11.77282 | 127° | 64km/h | 10342m | -5.2m/s | -41.8°C | 22.6% | 272.0hPa | 2.6V | 00:00:00 | 00:00:00 | 00:00:00 | |
| DO3MHA-12 | 2026-09-04 05:52:11 | 47.29636 | 11.77282 | 128° | 66km/h | 10342m | -5.2m/s | -41.8°C | 26.6% | 272.0hPa | 2.6V | 00:00:00 | 02:13:03 | 00:00:00 | |
| BAUMI2-15 | 2026-09-04 05:52:07 | 47.29676 | 11.77204 | 128° | 66km/h | 10363m | -5.4m/s | -41.9°C | 26.9% | 271.2hPa | 2.6V | 00:00:00 | 02:12:59 | 00:00:00 | |
| IN3HCDX | 2026-09-04 05:52:06 | 47.29686 | 11.77185 | 128° | 66km/h | 10368m | -5.5m/s | -42.0°C | 23.0% | 271.0hPa | 2.6V | 01:26:00 | 00:00:00 | 00:00:00 | |
| DO3MHA-11 | 2026-09-04 05:52:05 | 47.29695 | 11.77165 | 128° | 66km/h | 10374m | -5.5m/s | -42.0°C | 27.1% | 270.7hPa | 2.6V | 00:00:00 | 02:12:57 | 00:00:00 | |
| BAUMI2-15 | 2026-09-04 05:52:02 | 47.29725 | 11.77107 | 128° | 66km/h | 10390m | -5.3m/s | -42.1°C | 27.2% | 270.2hPa | 2.5V | 01:25:00 | 02:12:54 | 00:00:00 | |
| DO3MHA-12 | 2026-09-04 05:52:01 | 47.29736 | 11.77087 | 128° | 66km/h | 10396m | -5.4m/s | -42.2°C | 27.3% | 270.0hPa | 2.5V | 01:25:00 | 02:12:53 | 00:00:00 | |
| DO3MHA-11 | 2026-09-04 05:51:55 | 47.29797 | 11.76972 | 128° | 66km/h | 10428m | -5.4m/s | -42.5°C | 28.0% | 268.6hPa | 2.5V | 01:25:00 | 02:12:47 | 00:00:00 | |
| DG1MFX-10 | 2026-09-04 05:51:54 | 47.29797 | 11.76972 | 129° | 66km/h | 10428m | -5.4m/s | -42.5°C | 23.7% | 268.7hPa | 2.5V | 01:26:00 | 00:00:00 | 00:00:00 | |
| DO3MHA-12 | 2026-09-04 05:51:51 | 47.29838 | 11.76894 | 128° | 66km/h | 10449m | -5.2m/s | -42.6°C | 28.3% | 267.8hPa | 2.5V | 00:00:00 | 02:12:43 | 00:00:00 | |
| OE5WHR-10 | 2026-09-04 05:51:49 | 47.29858 | 11.76856 | 129° | 68km/h | 10460m | -5.2m/s | -42.7°C | 28.5% | 267.3hPa | 2.5V | 00:00:00 | 02:12:41 | 00:00:00 | |
| NBG1-10 | 2026-09-04 05:51:48 | 47.29869 | 11.76836 | 129° | 68km/h | 10465m | -5.3m/s | -42.8°C | 28.4% | 267.2hPa | 2.5V | 00:00:00 | 02:12:40 | 00:00:00 | |
| OE3JTB-15 | 2026-09-04 05:51:46 | 47.29890 | 11.76798 | 129° | 68km/h | 10476m | -5.3m/s | -42.9°C | 28.6% | 266.7hPa | 2.5V | 01:25:00 | 00:00:00 | 00:00:00 | |
| DO3MHA-11 | 2026-09-04 05:51:45 | 47.29900 | 11.76778 | 129° | 68km/h | 10481m | -5.2m/s | -42.9°C | 28.8% | 266.5hPa | 2.6V | 00:00:00 | 02:12:37 | 00:00:00 | |
| IN3HCDX | 2026-09-04 05:51:44 | 47.29900 | 11.76778 | 130° | 66km/h | 10481m | -5.3m/s | -43.0°C | 24.4% | 266.5hPa | 2.6V | 01:26:00 | 00:00:00 | 00:00:00 | |
| DB0ND-19 | 2026-09-04 05:51:43 | 47.29921 | 11.76740 | 128° | 66km/h | 10492m | -5.5m/s | -43.1°C | 24.5% | 266.2hPa | 2.6V | 00:00:00 | 00:00:00 | 00:00:00 | |
| DL6DJ-15 | 2026-09-04 05:51:41 | 47.29953 | 11.76682 | 128° | 66km/h | 10508m | -5.3m/s | -43.2°C | 25.0% | 265.4hPa | 2.6V | 00:00:00 | 00:00:00 | 00:00:00 | |
| DO3MHA-11 | 2026-09-04 05:51:35 | 47.30006 | 11.76584 | 129° | 68km/h | 10535m | -5.2m/s | -43.4°C | 30.3% | 264.4hPa | 2.6V | 01:26:00 | 02:12:27 | 00:00:00 | |
| DG1MFX-10 | 2026-09-04 05:51:34 | 47.30006 | 11.76584 | 130° | 68km/h | 10535m | -5.3m/s | -43.5°C | 25.7% | 264.4hPa | 2.5V | 01:26:00 | 00:00:00 | 00:00:00 | |
| DO3MHA-12 | 2026-09-04 05:51:31 | 47.30049 | 11.76505 | 130° | 64km/h | 10556m | -5.2m/s | -43.6°C | 31.0% | 263.5hPa | 2.5V | 00:00:00 | 02:12:23 | 00:00:00 | |
| OE5WHR-10 | 2026-09-04 05:51:28 | 47.30082 | 11.76447 | 130° | 68km/h | 10572m | -5.3m/s | -43.7°C | 31.8% | 262.9hPa | 2.5V | 01:26:00 | 00:00:00 | 00:00:00 | |
| DO3MHA-11 | 2026-09-04 05:51:25 | 47.30115 | 11.76389 | 131° | 66km/h | 10588m | -5.4m/s | -43.9°C | 32.6% | 262.3hPa | 2.5V | 00:00:00 | 02:12:17 | 00:00:00 | |
| IN3HCDX | 2026-09-04 05:51:23 | 47.30126 | 11.76370 | 131° | 68km/h | 10594m | -5.5m/s | -44.0°C | 27.8% | 262.1hPa | 2.5V | 01:26:00 | 00:00:00 | 00:00:00 | |
| OE5DXL-15 | 2026-09-04 05:51:21 | 47.30160 | 11.76313 | 131° | 66km/h | 10610m | -5.3m/s | -44.1°C | 32.3% | 261.4hPa | 2.5V | 01:26:00 | 00:00:00 | 00:00:00 | |
| OE3JTB-15 | 2026-09-04 05:51:17 | 47.30203 | 11.76237 | 131° | 64km/h | 10631m | -5.4m/s | -44.3°C | 32.7% | 260.6hPa | 2.6V | 00:00:00 | 00:00:00 | 00:00:00 | |
| NBG1-10 | 2026-09-04 05:51:16 | 47.30225 | 11.76199 | 131° | 64km/h | 10642m | -5.4m/s | -44.4°C | 32.7% | 260.2hPa | 2.6V | 01:26:00 | 02:12:07 | 00:00:00 | |
| DB0UT-7 | 2026-09-04 05:51:15 | 47.30225 | 11.76199 | 131° | 64km/h | 10642m | -5.4m/s | -44.4°C | 32.7% | 260.2hPa | 2.5V | 00:00:00 | 00:00:00 | 00:00:00 | |
| DG1MJG | 2026-09-04 05:51:13 | 47.30247 | 11.76162 | 132° | 66km/h | 10653m | -5.1m/s | -44.5°C | 27.6% | 259.8hPa | 2.5V | 01:26:00 | 00:00:00 | 00:00:00 | |
| DB0ND-19 | 2026-09-04 05:51:12 | 47.30258 | 11.76143 | 130° | 66km/h | 10658m | -5.3m/s | -44.5°C | 27.5% | 259.6hPa | 2.5V | 00:00:00 | 00:00:00 | 00:00:00 | |
| OE5WHR-10 | 2026-09-04 05:51:07 | 47.30312 | 11.76051 | 132° | 64km/h | 10685m | -5.5m/s | -44.7°C | 33.5% | 258.4hPa | 2.5V | 00:00:00 | 00:00:00 | 00:00:00 | |
| IN3HCDX | 2026-09-04 05:51:02 | 47.30355 | 11.75978 | 131° | 64km/h | 10708m | -5.3m/s | -45.0°C | 28.8% | 257.7hPa | 2.5V | 01:26:00 | 00:00:00 | 00:00:00 | |
| OE5DRO-10 | 2026-09-04 05:50:57 | 47.30418 | 11.75869 | 131° | 62km/h | 10741m | -5.3m/s | -45.2°C | 34.7% | 256.4hPa | 2.5V | 01:26:00 | 00:00:00 | 00:00:00 | |
| DO3MHA-11 | 2026-09-04 05:50:55 | 47.30439 | 11.75834 | 131° | 62km/h | 10752m | -5.3m/s | -45.3°C | 34.9% | 256.0hPa | 2.5V | 01:26:00 | 02:11:47 | 00:00:00 | |
| DG1MFX-10 | 2026-09-04 05:50:52 | 47.30460 | 11.75798 | 132° | 62km/h | 10762m | -5.5m/s | -45.5°C | 29.6% | 255.6hPa | 2.5V | 01:26:00 | 00:00:00 | 00:00:00 | |
| OE5DXL-15 | 2026-09-04 05:50:51 | 47.30480 | 11.75763 | 131° | 60km/h | 10773m | -5.5m/s | -45.5°C | 35.1% | 255.1hPa | 2.5V | 00:00:00 | 00:00:00 | 00:00:00 | |
| OE3JTB-15 | 2026-09-04 05:50:47 | 47.30521 | 11.75693 | 131° | 60km/h | 10795m | -5.5m/s | -45.7°C | 35.2% | 254.3hPa | 2.5V | 01:26:00 | 02:11:39 | 00:00:00 | |
| OE5WHR-10 | 2026-09-04 05:50:46 | 47.30531 | 11.75676 | 131° | 60km/h | 10801m | -5.6m/s | -45.8°C | 35.0% | 254.1hPa | 2.5V | 01:26:00 | 02:11:38 | 00:00:00 | |
| DB0UT-7 | 2026-09-04 05:50:45 | 47.30541 | 11.75659 | 131° | 60km/h | 10807m | -5.5m/s | -45.8°C | 35.1% | 253.8hPa | 2.5V | 01:27:00 | 02:11:37 | 00:00:00 | |
| NBG1-10 | 2026-09-04 05:50:42 | 47.30570 | 11.75607 | 130° | 60km/h | 10823m | -5.5m/s | -46.0°C | 34.8% | 253.2hPa | 2.5V | 00:00:00 | 02:11:34 | 00:00:00 | |
| DB0ND-19 | 2026-09-04 05:50:41 | 47.30580 | 11.75590 | 129° | 60km/h | 10828m | -5.4m/s | -46.1°C | 29.2% | 253.1hPa | 2.5V | 00:00:00 | 00:00:00 | 00:00:00 | |
| DO3MHA-11 | 2026-09-04 05:50:38 | 47.30610 | 11.75537 | 130° | 60km/h | 10845m | -5.6m/s | -46.2°C | 33.9% | 252.4hPa | 2.5V | 00:00:00 | 02:11:30 | 00:00:00 | |
| DG1MFX-10 | 2026-09-04 05:50:32 | 47.30659 | 11.75451 | 131° | 60km/h | 10873m | -5.4m/s | -46.5°C | 27.6% | 251.4hPa | 2.5V | 01:27:00 | 00:00:00 | 00:00:00 | |
| DO3MHA-11 | 2026-09-04 05:50:28 | 47.30707 | 11.75366 | 130° | 58km/h | 10901m | -5.5m/s | -46.7°C | 32.8% | 250.3hPa | 2.5V | 01:27:00 | 02:11:20 | 00:00:00 | |
| DO3MHA-12 | 2026-09-04 05:50:27 | 47.30717 | 11.75349 | 130° | 58km/h | 10906m | -5.6m/s | -46.7°C | 33.0% | 250.1hPa | 2.5V | 01:27:00 | 02:11:19 | 00:00:00 | |
| OE5WHR-10 | 2026-09-04 05:50:25 | 47.30736 | 11.75316 | 130° | 64km/h | 10918m | -5.6m/s | -46.8°C | 33.0% | 249.7hPa | 2.5V | 00:00:00 | 00:00:00 | 00:00:00 | |
| OE5DXL-15 | 2026-09-04 05:50:21 | 47.30774 | 11.75248 | 130° | 58km/h | 10940m | -5.4m/s | -47.0°C | 33.1% | 248.8hPa | 2.5V | 01:27:00 | 00:00:00 | 00:00:00 | |
| IN3HCDX | 2026-09-04 05:50:20 | 47.30774 | 11.75248 | 131° | 58km/h | 10940m | -5.5m/s | -47.1°C | 27.7% | 248.9hPa | 2.5V | 01:27:00 | 00:00:00 | 00:00:00 | |
| OE5DRO-10 | 2026-09-04 05:50:19 | 47.30793 | 11.75215 | 130° | 58km/h | 10951m | -5.3m/s | -47.1°C | 33.3% | 248.4hPa | 2.5V | 01:27:00 | 00:00:00 | 00:00:00 | |
| DO3MHA-11 | 2026-09-04 05:50:18 | 47.30803 | 11.75198 | 131° | 58km/h | 10957m | -5.5m/s | -47.2°C | 33.3% | 248.2hPa | 2.5V | 00:00:00 | 02:11:10 | 00:00:00 | |
| DO3MHA-12 | 2026-09-04 05:50:16 | 47.30822 | 11.75165 | 131° | 58km/h | 10968m | -5.5m/s | -47.3°C | 33.4% | 247.8hPa | 2.5V | 00:00:00 | 02:11:08 | 00:00:00 | |
| DB0UT-7 | 2026-09-04 05:50:15 | 47.30832 | 11.75149 | 131° | 60km/h | 10973m | -5.5m/s | -47.4°C | 33.5% | 247.6hPa | 2.5V | 00:00:00 | 00:00:00 | 00:00:00 | |
| DG1MJG | 2026-09-04 05:50:11 | 47.30871 | 11.75083 | 133° | 58km/h | 10995m | -5.4m/s | -47.6°C | 27.9% | 246.8hPa | 2.5V | 01:27:00 | 00:00:00 | 00:00:00 | |
| IN3IJJ | 2026-09-04 05:50:10 | 47.30871 | 11.75083 | 133° | 58km/h | 10995m | -5.4m/s | -47.6°C | 27.9% | 246.8hPa | 2.5V | 01:27:00 | 00:00:00 | 00:00:00 | |
| NBG1-10 | 2026-09-04 05:50:09 | 47.30890 | 11.75051 | 133° | 60km/h | 11006m | -5.8m/s | -47.7°C | 33.5% | 246.3hPa | 2.5V | 01:27:00 | 02:11:01 | 00:00:00 | |
| DO3MHA-11 | 2026-09-04 05:50:07 | 47.30910 | 11.75019 | 133° | 60km/h | 11018m | -5.4m/s | -47.8°C | 33.7% | 245.9hPa | 2.5V | 01:27:00 | 02:10:59 | 00:00:00 | |
| DO3MHA-12 | 2026-09-04 05:50:06 | 47.30920 | 11.75003 | 133° | 60km/h | 11023m | -5.8m/s | -47.8°C | 33.9% | 245.7hPa | 2.5V | 01:27:00 | 02:10:58 | 00:00:00 | |
| OE5DRO-10 | 2026-09-04 05:50:00 | 47.30983 | 11.74906 | 135° | 60km/h | 11058m | -5.3m/s | -48.1°C | 34.7% | 244.4hPa | 2.5V | 00:00:00 | 00:00:00 | 00:00:00 | |
| IN3HCDX | 2026-09-04 05:49:59 | 47.30983 | 11.74906 | 136° | 60km/h | 11058m | -5.4m/s | -48.2°C | 29.0% | 244.5hPa | 2.6V | 00:00:00 | 00:00:00 | 00:00:00 | |
| DO3MHA-11 | 2026-09-04 05:49:57 | 47.31015 | 11.74858 | 135° | 60km/h | 11075m | -5.3m/s | -48.3°C | 35.4% | 243.8hPa | 2.6V | 00:00:00 | 02:10:49 | 00:00:00 | |
| DO3MHA-12 | 2026-09-04 05:49:56 | 47.31025 | 11.74842 | 135° | 60km/h | 11080m | -6.2m/s | -48.3°C | 35.5% | 243.6hPa | 2.6V | 00:00:00 | 02:10:48 | 00:00:00 | |
| BAUMI2-15 | 2026-09-04 05:49:52 | 47.31068 | 11.74779 | 136° | 60km/h | 11103m | -5.6m/s | -48.5°C | 35.1% | 242.8hPa | 2.6V | 01:27:00 | 02:10:44 | 00:00:00 | |
| OE5DXL-15 | 2026-09-04 05:49:51 | 47.31079 | 11.74764 | 135° | 60km/h | 11109m | -5.8m/s | -48.6°C | 34.7% | 242.5hPa | 2.6V | 00:00:00 | 00:00:00 | 00:00:00 | |
| DG1MFX-10 | 2026-09-04 05:49:50 | 47.31079 | 11.74764 | 136° | 60km/h | 11109m | -5.9m/s | -48.6°C | 28.9% | 242.6hPa | 2.5V | 01:28:00 | 00:00:00 | 00:00:00 | |
| OE3JTB-15 | 2026-09-04 05:49:49 | 47.31101 | 11.74732 | 137° | 60km/h | 11120m | -5.3m/s | -48.7°C | 33.7% | 242.1hPa | 2.5V | 01:27:00 | 00:00:00 | 00:00:00 | |
| DO3MHA-11 | 2026-09-04 05:49:47 | 47.31123 | 11.74701 | 138° | 60km/h | 11132m | -5.4m/s | -48.7°C | 33.1% | 241.7hPa | 2.5V | 01:27:00 | 02:10:39 | 00:00:00 | |
| DO3MHA-12 | 2026-09-04 05:49:46 | 47.31134 | 11.74685 | 136° | 60km/h | 11137m | -6.0m/s | -48.8°C | 33.2% | 241.5hPa | 2.5V | 01:27:00 | 02:10:38 | 00:00:00 | |
| DB0UT-7 | 2026-09-04 05:49:45 | 47.31145 | 11.74670 | 137° | 60km/h | 11143m | -5.9m/s | -48.8°C | 33.4% | 241.3hPa | 2.5V | 01:28:00 | 02:10:37 | 00:00:00 | |
| BAUMI2-15 | 2026-09-04 05:49:42 | 47.31179 | 11.74623 | 137° | 60km/h | 11161m | -6.1m/s | -49.0°C | 34.1% | 240.6hPa | 2.5V | 01:28:00 | 02:10:34 | 00:00:00 | |
| OE5DRO-10 | 2026-09-04 05:49:41 | 47.31190 | 11.74607 | 138° | 60km/h | 11167m | -5.8m/s | -49.1°C | 34.4% | 240.5hPa | 2.5V | 01:28:00 | 00:00:00 | 00:00:00 | |
| DG1MJG | 2026-09-04 05:49:39 | 47.31201 | 11.74592 | 138° | 60km/h | 11173m | -5.4m/s | -49.2°C | 28.7% | 240.3hPa | 2.5V | 01:28:00 | 00:00:00 | 00:00:00 | |
| DO3MHA-11 | 2026-09-04 05:49:37 | 47.31235 | 11.74546 | 138° | 62km/h | 11190m | -5.8m/s | -49.3°C | 35.4% | 239.6hPa | 2.5V | 00:00:00 | 02:10:29 | 00:00:00 | |
| DO3MHA-12 | 2026-09-04 05:49:36 | 47.31246 | 11.74530 | 137° | 62km/h | 11196m | -5.5m/s | -49.3°C | 35.5% | 239.4hPa | 2.5V | 00:00:00 | 02:10:28 | 00:00:00 | |
| NBG1-10 | 2026-09-04 05:49:35 | 47.31258 | 11.74515 | 138° | 62km/h | 11201m | -5.6m/s | -49.4°C | 36.2% | 239.2hPa | 2.6V | 00:00:00 | 02:10:27 | 00:00:00 | |
| BAUMI2-15 | 2026-09-04 05:49:32 | 47.31292 | 11.74469 | 137° | 62km/h | 11218m | -5.9m/s | -49.5°C | 38.7% | 238.6hPa | 2.5V | 01:28:00 | 02:10:24 | 00:00:00 | |
| DO3MHA-11 | 2026-09-04 05:49:27 | 47.31349 | 11.74392 | 138° | 60km/h | 11247m | -5.8m/s | -49.8°C | 42.2% | 237.6hPa | 2.5V | 01:28:00 | 02:10:19 | 00:00:00 | |
| DO3MHA-12 | 2026-09-04 05:49:26 | 47.31361 | 11.74377 | 139° | 60km/h | 11253m | -5.4m/s | -49.8°C | 42.8% | 237.3hPa | 2.5V | 01:28:00 | 02:10:18 | 00:00:00 | |
| BAUMI2-15 | 2026-09-04 05:49:22 | 47.31406 | 11.74317 | 139° | 60km/h | 11276m | -5.4m/s | -50.1°C | 46.0% | 236.5hPa | 2.5V | 01:28:00 | 02:10:14 | 00:00:00 | |
| OE5DXL-15 | 2026-09-04 05:49:21 | 47.31418 | 11.74302 | 138° | 62km/h | 11282m | -5.7m/s | -50.1°C | 46.6% | 236.3hPa | 2.5V | 01:28:00 | 00:00:00 | 00:00:00 | |
| OE3JTB-15 | 2026-09-04 05:49:20 | 47.31429 | 11.74287 | 139° | 62km/h | 11287m | -5.4m/s | -50.2°C | 47.2% | 236.0hPa | 2.5V | 00:00:00 | 02:10:12 | 00:00:00 | |
| IN3HCDX | 2026-09-04 05:49:18 | 47.31441 | 11.74271 | 138° | 60km/h | 11293m | -6.0m/s | -50.3°C | 40.2% | 235.9hPa | 2.5V | 00:00:00 | 00:00:00 | 00:00:00 | |
| DO3MHA-11 | 2026-09-04 05:49:17 | 47.31464 | 11.74241 | 139° | 62km/h | 11304m | -5.4m/s | -50.3°C | 48.9% | 235.4hPa | 2.5V | 00:00:00 | 02:10:09 | 00:00:00 | |
| DO3MHA-12 | 2026-09-04 05:49:16 | 47.31475 | 11.74225 | 138° | 62km/h | 11310m | -5.7m/s | -50.4°C | 49.4% | 235.3hPa | 2.5V | 00:00:00 | 02:10:08 | 00:00:00 | |
| DB0UT-7 | 2026-09-04 05:49:15 | 47.31487 | 11.74210 | 139° | 62km/h | 11316m | -5.7m/s | -50.4°C | 50.0% | 235.0hPa | 2.5V | 00:00:00 | 00:00:00 | 00:00:00 | |
| BAUMI2-15 | 2026-09-04 05:49:12 | 47.31523 | 11.74164 | 139° | 62km/h | 11333m | -5.4m/s | -50.6°C | 52.7% | 234.4hPa | 2.6V | 01:28:00 | 02:10:04 | 00:00:00 | |
| DB0ND-19 | 2026-09-04 05:49:08 | 47.31570 | 11.74103 | 139° | 60km/h | 11355m | -5.4m/s | -50.9°C | 47.3% | 233.7hPa | 2.5V | 00:00:00 | 00:00:00 | 00:00:00 | |
| DO3MHA-12 | 2026-09-04 05:49:06 | 47.31594 | 11.74073 | 140° | 62km/h | 11367m | -5.6m/s | -50.9°C | 56.0% | 233.2hPa | 2.5V | 01:28:00 | 02:09:58 | 00:00:00 | |
| DL6DJ-15 | 2026-09-04 05:49:05 | 47.31606 | 11.74058 | 139° | 60km/h | 11372m | -5.5m/s | -51.0°C | 47.5% | 233.0hPa | 2.6V | 00:00:00 | 00:00:00 | 00:00:00 | |
| OE5DRO-10 | 2026-09-04 05:49:03 | 47.31629 | 11.74027 | 139° | 64km/h | 11384m | -5.9m/s | -51.1°C | 55.5% | 232.6hPa | 2.6V | 01:28:00 | 00:00:00 | 00:00:00 | |
| NBG1-10 | 2026-09-04 05:49:02 | 47.31641 | 11.74012 | 140° | 64km/h | 11390m | -5.5m/s | -51.1°C | 55.3% | 232.3hPa | 2.5V | 01:28:00 | 02:09:54 | 00:00:00 | |
| DO3MHA-11 | 2026-09-04 05:48:57 | 47.31701 | 11.73936 | 140° | 64km/h | 11419m | -5.9m/s | -51.4°C | 54.3% | 231.3hPa | 2.5V | 00:00:00 | 02:09:49 | 00:00:00 | |
| DO3MHA-12 | 2026-09-04 05:48:56 | 47.31713 | 11.73921 | 140° | 64km/h | 11425m | -5.5m/s | -51.4°C | 54.1% | 231.1hPa | 2.5V | 00:00:00 | 02:09:48 | 00:00:00 | |
| BAUMI2-15 | 2026-09-04 05:48:52 | 47.31762 | 11.73860 | 140° | 64km/h | 11448m | -5.9m/s | -51.7°C | 52.7% | 230.4hPa | 2.5V | 01:28:00 | 02:09:44 | 00:00:00 | |
| OE5DXL-15 | 2026-09-04 05:48:51 | 47.31775 | 11.73845 | 140° | 66km/h | 11454m | -5.7m/s | -51.7°C | 52.2% | 230.1hPa | 2.5V | 00:00:00 | 00:00:00 | 00:00:00 | |
| DO3MHA-11 | 2026-09-04 05:48:47 | 47.31824 | 11.73783 | 140° | 64km/h | 11477m | -5.3m/s | -51.9°C | 49.5% | 229.3hPa | 2.5V | 01:28:00 | 02:09:39 | 00:00:00 | |
| DO3MHA-12 | 2026-09-04 05:48:46 | 47.31837 | 11.73768 | 140° | 64km/h | 11482m | -5.5m/s | -51.9°C | 49.0% | 229.1hPa | 2.5V | 01:28:00 | 02:09:38 | 00:00:00 | |
| DB0UT-7 | 2026-09-04 05:48:45 | 47.31849 | 11.73752 | 139° | 66km/h | 11488m | -5.8m/s | -52.0°C | 48.7% | 228.9hPa | 2.5V | 01:29:00 | 02:09:37 | 00:00:00 | |
| OE5DRO-10 | 2026-09-04 05:48:44 | 47.31861 | 11.73736 | 140° | 66km/h | 11494m | -5.3m/s | -52.0°C | 49.2% | 228.7hPa | 2.5V | 00:00:00 | 00:00:00 | 00:00:00 | |
| BAUMI2-15 | 2026-09-04 05:48:42 | 47.31886 | 11.73704 | 139° | 64km/h | 11505m | -6.2m/s | -52.1°C | 50.7% | 228.3hPa | 2.5V | 01:29:00 | 02:09:34 | 00:00:00 | |
| DO3MHA-11 | 2026-09-04 05:48:37 | 47.31948 | 11.73627 | 141° | 66km/h | 11534m | -5.5m/s | -52.3°C | 54.5% | 227.3hPa | 2.5V | 00:00:00 | 02:09:29 | 00:00:00 | |
| DO3MHA-12 | 2026-09-04 05:48:36 | 47.31961 | 11.73611 | 140° | 66km/h | 11540m | -6.1m/s | -52.4°C | 54.9% | 227.1hPa | 2.6V | 00:00:00 | 02:09:28 | 00:00:00 | |
| DL6DJ-15 | 2026-09-04 05:48:34 | 47.31986 | 11.73580 | 140° | 64km/h | 11551m | -5.4m/s | -52.5°C | 46.9% | 226.8hPa | 2.5V | 00:00:00 | 00:00:00 | 00:00:00 | |
| BAUMI2-15 | 2026-09-04 05:48:32 | 47.32011 | 11.73549 | 141° | 66km/h | 11563m | -5.8m/s | -52.6°C | 56.1% | 226.3hPa | 2.5V | 01:29:00 | 02:09:24 | 00:00:00 | |
| DH7VM-15 | 2026-09-04 05:48:31 | 47.32011 | 11.73549 | 141° | 66km/h | 11563m | -5.9m/s | -52.6°C | 47.3% | 226.4hPa | 2.5V | 00:00:00 | 00:00:00 | 00:00:00 | |
| NBG1-10 | 2026-09-04 05:48:29 | 47.32048 | 11.73502 | 139° | 66km/h | 11580m | -5.4m/s | -52.7°C | 57.1% | 225.7hPa | 2.5V | 00:00:00 | 02:09:21 | 00:00:00 | |
| DO3MHA-11 | 2026-09-04 05:48:27 | 47.32073 | 11.73470 | 139° | 66km/h | 11591m | -5.9m/s | -52.8°C | 57.4% | 225.3hPa | 2.5V | 01:29:00 | 02:09:19 | 00:00:00 | |
| DO3MHA-12 | 2026-09-04 05:48:26 | 47.32085 | 11.73453 | 139° | 66km/h | 11597m | -5.6m/s | -52.9°C | 57.8% | 225.0hPa | 2.5V | 01:29:00 | 02:09:18 | 00:00:00 | |
| OE5DRO-10 | 2026-09-04 05:48:25 | 47.32098 | 11.73437 | 139° | 66km/h | 11603m | -5.6m/s | -53.0°C | 58.1% | 224.9hPa | 2.5V | 01:29:00 | 00:00:00 | 00:00:00 | |
| OE3JTB-15 | 2026-09-04 05:48:22 | 47.32135 | 11.73388 | 139° | 68km/h | 11620m | -5.8m/s | -53.1°C | 59.0% | 224.2hPa | 2.5V | 00:00:00 | 00:00:00 | 00:00:00 | |
| OE5DXL-15 | 2026-09-04 05:48:21 | 47.32148 | 11.73372 | 139° | 68km/h | 11626m | -5.9m/s | -53.2°C | 59.2% | 224.0hPa | 2.5V | 01:29:00 | 00:00:00 | 00:00:00 | |
| OE5WHR-10 | 2026-09-04 05:48:19 | 47.32173 | 11.73340 | 139° | 68km/h | 11637m | -5.3m/s | -53.3°C | 59.6% | 223.7hPa | 2.5V | 01:29:00 | 00:00:00 | 00:00:00 | |
| DO3MHA-11 | 2026-09-04 05:48:17 | 47.32197 | 11.73307 | 139° | 66km/h | 11649m | -5.4m/s | -53.4°C | 60.2% | 223.3hPa | 2.5V | 00:00:00 | 02:09:09 | 00:00:00 | |
| DO3MHA-12 | 2026-09-04 05:48:16 | 47.32210 | 11.73290 | 138° | 66km/h | 11655m | -5.9m/s | -53.4°C | 60.3% | 223.1hPa | 2.5V | 00:00:00 | 02:09:08 | 00:00:00 | |
| DB0UT-7 | 2026-09-04 05:48:15 | 47.32222 | 11.73273 | 138° | 68km/h | 11661m | -5.9m/s | -53.5°C | 60.5% | 222.8hPa | 2.5V | 00:00:00 | 00:00:00 | 00:00:00 | |
| BAUMI2-15 | 2026-09-04 05:48:12 | 47.32259 | 11.73224 | 138° | 66km/h | 11678m | -6.0m/s | -53.6°C | 61.0% | 222.2hPa | 2.5V | 01:29:00 | 02:09:04 | 00:00:00 | |
| DO3MHA-11 | 2026-09-04 05:48:07 | 47.32320 | 11.73139 | 137° | 68km/h | 11706m | -6.0m/s | -53.9°C | 61.5% | 221.3hPa | 2.5V | 01:29:00 | 02:08:59 | 00:00:00 | |
| DO3MHA-12 | 2026-09-04 05:48:06 | 47.32332 | 11.73122 | 137° | 68km/h | 11713m | -5.9m/s | -53.9°C | 61.6% | 221.1hPa | 2.5V | 01:29:00 | 02:08:58 | 00:00:00 | |
| DL6DJ-15 | 2026-09-04 05:48:03 | 47.32370 | 11.73070 | 137° | 66km/h | 11730m | -5.7m/s | -54.2°C | 51.2% | 220.5hPa | 2.5V | 00:00:00 | 00:00:00 | 00:00:00 | |
| BAUMI2-15 | 2026-09-04 05:48:02 | 47.32382 | 11.73053 | 137° | 73km/h | 11736m | -6.1m/s | -54.2°C | 60.6% | 220.2hPa | 2.5V | 01:29:00 | 02:08:54 | 00:00:00 | |
| OE5WHR-10 | 2026-09-04 05:47:58 | 47.32433 | 11.72984 | 137° | 75km/h | 11759m | -5.6m/s | -54.4°C | 59.9% | 219.5hPa | 2.5V | 00:00:00 | 02:08:50 | 00:00:00 | |
| DO3MHA-11 | 2026-09-04 05:47:57 | 47.32446 | 11.72966 | 137° | 69km/h | 11765m | -5.6m/s | -54.4°C | 59.8% | 219.3hPa | 2.5V | 00:00:00 | 02:08:49 | 00:00:00 | |
| DO3MHA-12 | 2026-09-04 05:47:56 | 47.32458 | 11.72948 | 137° | 69km/h | 11770m | -5.5m/s | -54.4°C | 59.5% | 219.1hPa | 2.5V | 00:00:00 | 02:08:48 | 00:00:00 | |
| IN3HCDX | 2026-09-04 05:47:54 | 47.32471 | 11.72931 | 138° | 69km/h | 11776m | -5.7m/s | -54.5°C | 49.6% | 218.9hPa | 2.5V | 00:00:00 | 00:00:00 | 00:00:00 | |
| OE3JTB-15 | 2026-09-04 05:47:53 | 47.32497 | 11.72894 | 136° | 73km/h | 11788m | -6.1m/s | -54.6°C | 59.3% | 218.5hPa | 2.5V | 01:29:00 | 02:08:45 | 00:00:00 | |
| OE5DXL-15 | 2026-09-04 05:47:51 | 47.32522 | 11.72858 | 136° | 73km/h | 11800m | -5.7m/s | -54.7°C | 59.3% | 218.1hPa | 2.5V | 00:00:00 | 00:00:00 | 00:00:00 | |
| DO3MHA-11 | 2026-09-04 05:47:47 | 47.32573 | 11.72786 | 136° | 71km/h | 11823m | -5.4m/s | -54.9°C | 59.6% | 217.4hPa | 2.5V | 01:29:00 | 02:08:39 | 00:00:00 | |
| DO3MHA-12 | 2026-09-04 05:47:46 | 47.32586 | 11.72768 | 136° | 71km/h | 11829m | -6.0m/s | -54.9°C | 59.7% | 217.1hPa | 2.5V | 01:29:00 | 02:08:38 | 00:00:00 | |
| DB0UT-7 | 2026-09-04 05:47:45 | 47.32599 | 11.72749 | 136° | 71km/h | 11835m | -5.5m/s | -55.0°C | 59.7% | 216.9hPa | 2.5V | 01:30:00 | 02:08:37 | 00:00:00 | |
| DO3MHA-11 | 2026-09-04 05:47:37 | 47.32702 | 11.72599 | 135° | 73km/h | 11881m | -5.5m/s | -55.4°C | 60.8% | 215.4hPa | 2.5V | 00:00:00 | 02:08:29 | 00:00:00 | |
| DO3MHA-12 | 2026-09-04 05:47:36 | 47.32714 | 11.72580 | 135° | 75km/h | 11887m | -5.7m/s | -55.5°C | 61.1% | 215.1hPa | 2.6V | 00:00:00 | 02:08:28 | 00:00:00 | |
| DB0ND-19 | 2026-09-04 05:47:35 | 47.32727 | 11.72561 | 133° | 71km/h | 11892m | -6.2m/s | -55.6°C | 51.2% | 215.0hPa | 2.5V | 00:00:00 | 00:00:00 | 00:00:00 | |
| IN3HCDX | 2026-09-04 05:47:33 | 47.32740 | 11.72541 | 135° | 73km/h | 11898m | -5.3m/s | -55.6°C | 51.4% | 214.8hPa | 2.5V | 00:00:00 | 00:00:00 | 00:00:00 | |
| DL6DJ-15 | 2026-09-04 05:47:32 | 47.32766 | 11.72502 | 133° | 73km/h | 11910m | -5.8m/s | -55.7°C | 51.5% | 214.4hPa | 2.5V | 00:00:00 | 00:00:00 | 00:00:00 | |
| OE5DRO-10 | 2026-09-04 05:47:28 | 47.32819 | 11.72423 | 135° | 77km/h | 11933m | -5.9m/s | -55.9°C | 62.1% | 213.5hPa | 2.5V | 00:00:00 | 00:00:00 | 00:00:00 | |
| DO3MHA-11 | 2026-09-04 05:47:27 | 47.32832 | 11.72403 | 136° | 77km/h | 11939m | -5.8m/s | -56.0°C | 62.3% | 213.3hPa | 2.5V | 01:30:00 | 02:08:19 | 00:00:00 | |
| DO3MHA-12 | 2026-09-04 05:47:26 | 47.32846 | 11.72383 | 137° | 77km/h | 11945m | -5.7m/s | -56.0°C | 62.2% | 213.2hPa | 2.5V | 01:30:00 | 02:08:18 | 00:00:00 | |
| DG1MFX-10 | 2026-09-04 05:47:25 | 47.32846 | 11.72383 | 137° | 77km/h | 11945m | -5.8m/s | -56.1°C | 51.9% | 213.2hPa | 2.5V | 01:31:00 | 00:00:00 | 00:00:00 | |
| OE3JTB-15 | 2026-09-04 05:47:24 | 47.32874 | 11.72343 | 137° | 77km/h | 11956m | -5.6m/s | -56.1°C | 61.8% | 212.8hPa | 2.5V | 00:00:00 | 00:00:00 | 00:00:00 | |
| NBG1-10 | 2026-09-04 05:47:23 | 47.32888 | 11.72323 | 136° | 77km/h | 11962m | -6.1m/s | -56.1°C | 61.8% | 212.5hPa | 2.6V | 00:00:00 | 02:08:15 | 00:00:00 | |
| OE5DXL-15 | 2026-09-04 05:47:21 | 47.32916 | 11.72284 | 136° | 77km/h | 11974m | -5.7m/s | -56.2°C | 61.5% | 212.1hPa | 2.6V | 01:30:00 | 00:00:00 | 00:00:00 | |
| DO3MHA-11 | 2026-09-04 05:47:17 | 47.32971 | 11.72205 | 136° | 77km/h | 11998m | -6.0m/s | -56.4°C | 60.7% | 211.4hPa | 2.6V | 00:00:00 | 02:08:09 | 00:00:00 | |
| DO3MHA-12 | 2026-09-04 05:47:16 | 47.32985 | 11.72185 | 137° | 77km/h | 12004m | -5.6m/s | -56.4°C | 60.7% | 211.2hPa | 2.6V | 00:00:00 | 02:08:08 | 00:00:00 | |
| DB0UT-7 | 2026-09-04 05:47:15 | 47.32999 | 11.72165 | 137° | 78km/h | 12010m | -6.0m/s | -56.4°C | 60.9% | 211.0hPa | 2.6V | 00:00:00 | 00:00:00 | 00:00:00 | |
| IN3HCDX | 2026-09-04 05:47:12 | 47.33027 | 11.72126 | 137° | 77km/h | 12022m | -5.9m/s | -56.6°C | 51.1% | 210.6hPa | 2.6V | 01:31:00 | 00:00:00 | 00:00:00 | |
| OE5DRO-10 | 2026-09-04 05:47:09 | 47.33084 | 11.72046 | 137° | 78km/h | 12046m | -6.0m/s | -56.8°C | 62.7% | 209.8hPa | 2.6V | 01:30:00 | 00:00:00 | 00:00:00 | |
| DO3MHA-11 | 2026-09-04 05:47:07 | 47.33112 | 11.72007 | 137° | 78km/h | 12058m | -6.1m/s | -56.9°C | 63.2% | 209.4hPa | 2.5V | 01:30:00 | 02:07:59 | 00:00:00 | |
| DO3MHA-12 | 2026-09-04 05:47:06 | 47.33127 | 11.71987 | 137° | 78km/h | 12063m | -5.5m/s | -56.9°C | 63.6% | 209.2hPa | 2.5V | 01:30:00 | 02:07:58 | 00:00:00 | |
| DG1MFX-10 | 2026-09-04 05:47:05 | 47.33126 | 11.71987 | 137° | 77km/h | 12063m | -5.6m/s | -57.0°C | 52.9% | 209.2hPa | 2.5V | 01:31:00 | 00:00:00 | 00:00:00 | |
| IN3IJJ | 2026-09-04 05:47:01 | 47.33183 | 11.71908 | 137° | 77km/h | 12087m | -6.0m/s | -57.2°C | 53.7% | 208.5hPa | 2.5V | 00:00:00 | 00:00:00 | 00:00:00 | |
| OE5WHR-10 | 2026-09-04 05:47:00 | 47.33212 | 11.71868 | 137° | 78km/h | 12099m | -6.0m/s | -57.3°C | 65.2% | 208.0hPa | 2.5V | 01:30:00 | 00:00:00 | 00:00:00 | |
| DO3MHA-11 | 2026-09-04 05:46:57 | 47.33256 | 11.71808 | 137° | 78km/h | 12117m | -6.3m/s | -57.5°C | 66.2% | 207.4hPa | 2.5V | 00:00:00 | 02:07:49 | 00:00:00 | |
| DO3MHA-12 | 2026-09-04 05:46:56 | 47.33270 | 11.71788 | 138° | 78km/h | 12123m | -5.6m/s | -57.5°C | 66.4% | 207.3hPa | 2.5V | 00:00:00 | 02:07:48 | 00:00:00 | |
| OE3JTB-15 | 2026-09-04 05:46:55 | 47.33285 | 11.71769 | 138° | 80km/h | 12129m | -6.0m/s | -57.6°C | 66.7% | 207.1hPa | 2.5V | 01:30:00 | 00:00:00 | 00:00:00 | |
| IN3HCDX | 2026-09-04 05:46:52 | 47.33329 | 11.71710 | 139° | 78km/h | 12147m | -5.8m/s | -57.8°C | 55.9% | 206.5hPa | 2.5V | 01:31:00 | 00:00:00 | 00:00:00 | |
| OE5DXL-15 | 2026-09-04 05:46:51 | 47.33344 | 11.71690 | 138° | 80km/h | 12152m | -5.6m/s | -57.8°C | 67.6% | 206.3hPa | 2.5V | 00:00:00 | 00:00:00 | 00:00:00 | |
| NBG1-10 | 2026-09-04 05:46:50 | 47.33358 | 11.71670 | 138° | 78km/h | 12158m | -6.1m/s | -57.9°C | 67.9% | 206.1hPa | 2.6V | 01:30:00 | 02:07:42 | 00:00:00 | |
| DO3MHA-11 | 2026-09-04 05:46:47 | 47.33402 | 11.71611 | 138° | 80km/h | 12176m | -6.0m/s | -58.0°C | 68.5% | 205.5hPa | 2.6V | 01:30:00 | 02:07:39 | 00:00:00 | |
| DO3MHA-12 | 2026-09-04 05:46:46 | 47.33417 | 11.71591 | 138° | 80km/h | 12182m | -5.7m/s | -58.1°C | 68.8% | 205.3hPa | 2.6V | 01:30:00 | 02:07:38 | 00:00:00 | |
| DB0UT-7 | 2026-09-04 05:46:44 | 47.33447 | 11.71551 | 138° | 82km/h | 12194m | -5.8m/s | -58.2°C | 68.9% | 204.9hPa | 2.6V | 01:31:00 | 02:07:36 | 00:00:00 | |
| OE5WHR-10 | 2026-09-04 05:46:39 | 47.33520 | 11.71450 | 137° | 80km/h | 12225m | -6.0m/s | -58.4°C | 69.0% | 203.9hPa | 2.6V | 00:00:00 | 00:00:00 | 00:00:00 | |
| DO3MHA-11 | 2026-09-04 05:46:37 | 47.33550 | 11.71409 | 138° | 82km/h | 12237m | -5.7m/s | -58.5°C | 69.2% | 203.5hPa | 2.6V | 00:00:00 | 02:07:29 | 00:00:00 | |
| PG1ADW-2 | 2026-09-04 05:46:35 | 47.33580 | 11.71368 | 138° | 80km/h | 12249m | -5.7m/s | -58.6°C | 69.3% | 203.1hPa | 2.5V | 01:31:00 | 00:00:00 | 00:00:00 | |
| DG1MJG | 2026-09-04 05:46:34 | 47.33580 | 11.71368 | 139° | 80km/h | 12249m | -5.8m/s | 0°C | 0% | 203.2hPa | 2.5V | 00:00:00 | 00:00:00 | 00:00:00 | |
| DB0ND-19 | 2026-09-04 05:46:33 | 47.33626 | 11.71306 | 137° | 80km/h | 12268m | -6.4m/s | -58.9°C | 57.4% | 202.6hPa | 2.5V | 00:00:00 | 00:00:00 | 00:00:00 | |
| OE5DRO-10 | 2026-09-04 05:46:31 | 47.33642 | 11.71286 | 139° | 80km/h | 12274m | -5.6m/s | -58.9°C | 69.5% | 202.4hPa | 2.5V | 01:31:00 | 00:00:00 | 00:00:00 | |
| DL6DJ-15 | 2026-09-04 05:46:30 | 47.33657 | 11.71266 | 138° | 82km/h | 12279m | -6.5m/s | -59.0°C | 57.4% | 202.2hPa | 2.5V | 00:00:00 | 00:00:00 | 00:00:00 | |
| DO8TBO-1 | 2026-09-04 05:46:29 | 47.33673 | 11.71245 | 139° | 91km/h | 12286m | -5.9m/s | -59.0°C | 69.2% | 201.9hPa | 2.5V | 01:31:00 | 02:07:21 | 00:00:00 | |
| DO3MHA-11 | 2026-09-04 05:46:27 | 47.33704 | 11.71205 | 140° | 80km/h | 12298m | -6.4m/s | -59.1°C | 69.1% | 201.5hPa | 2.5V | 01:31:00 | 02:07:19 | 00:00:00 | |
| DO3MHA-12 | 2026-09-04 05:46:26 | 47.33720 | 11.71185 | 140° | 80km/h | 12304m | -5.5m/s | -59.1°C | 68.8% | 201.4hPa | 2.5V | 01:31:00 | 02:07:18 | 00:00:00 | |
| DG1MFX-10 | 2026-09-04 05:46:23 | 47.33751 | 11.71145 | 140° | 80km/h | 12316m | -5.7m/s | -59.2°C | 56.5% | 201.0hPa | 2.5V | 01:31:00 | 00:00:00 | 00:00:00 | |
| OE5DXL-15 | 2026-09-04 05:46:21 | 47.33797 | 11.71088 | 140° | 78km/h | 12334m | -5.8m/s | -59.3°C | 67.4% | 200.4hPa | 2.5V | 01:31:00 | 00:00:00 | 00:00:00 | |
| OE5WHR-10 | 2026-09-04 05:46:18 | 47.33843 | 11.71031 | 140° | 78km/h | 12353m | -6.2m/s | -59.4°C | 66.8% | 199.8hPa | 2.5V | 01:31:00 | 02:07:10 | 00:00:00 | |
| DO3MHA-11 | 2026-09-04 05:46:17 | 47.33858 | 11.71012 | 141° | 78km/h | 12358m | -5.8m/s | -59.5°C | 66.8% | 199.6hPa | 2.5V | 00:00:00 | 02:07:09 | 00:00:00 | |
| DO3MHA-12 | 2026-09-04 05:46:16 | 47.33873 | 11.70994 | 140° | 78km/h | 12365m | -6.3m/s | -59.5°C | 66.9% | 199.4hPa | 2.5V | 00:00:00 | 02:07:08 | 00:00:00 | |
| PG1ADW-2 | 2026-09-04 05:46:12 | 47.33935 | 11.70919 | 141° | 78km/h | 12389m | -5.8m/s | -59.7°C | 66.8% | 198.6hPa | 2.5V | 00:00:00 | 00:00:00 | 00:00:00 | |
| IN3HCDX | 2026-09-04 05:46:10 | 47.33950 | 11.70900 | 141° | 78km/h | 12395m | -6.4m/s | -59.8°C | 54.7% | 198.4hPa | 2.6V | 01:31:00 | 00:00:00 | 00:00:00 | |
| IW2NTF | 2026-09-04 05:46:08 | 47.34072 | 11.70754 | 142° | 77km/h | 12445m | -6m/s | 0°C | 0% | 0hPa | 2.6V | 00:00:00 | 02:06:55 | 00:00:00 | |
| DO3MHA-11 | 2026-09-04 05:46:07 | 47.34011 | 11.70826 | 141° | 77km/h | 12420m | -5.7m/s | -59.9°C | 65.9% | 197.6hPa | 2.5V | 01:31:00 | 02:06:59 | 00:00:00 | |
| DO3MHA-12 | 2026-09-04 05:46:06 | 47.34026 | 11.70808 | 142° | 77km/h | 12426m | -6.3m/s | -59.9°C | 65.7% | 197.4hPa | 2.5V | 01:31:00 | 02:06:58 | 00:00:00 | |
| DG1MFX-10 | 2026-09-04 05:46:03 | 47.34057 | 11.70772 | 143° | 77km/h | 12439m | -6.5m/s | -60.0°C | 53.9% | 197.1hPa | 2.5V | 01:31:00 | 00:00:00 | 00:00:00 | |
| DL6DJ-15 | 2026-09-04 05:45:59 | 47.34135 | 11.70684 | 141° | 77km/h | 12469m | -6.3m/s | -60.3°C | 53.9% | 196.1hPa | 2.5V | 00:00:00 | 00:00:00 | 00:00:00 | |
| DO3MHA-11 | 2026-09-04 05:45:57 | 47.34166 | 11.70649 | 143° | 78km/h | 12482m | -6.4m/s | -60.4°C | 65.7% | 195.7hPa | 2.5V | 00:00:00 | 02:06:49 | 00:00:00 | |
| DO3MHA-12 | 2026-09-04 05:45:56 | 47.34181 | 11.70631 | 143° | 78km/h | 12488m | -6.2m/s | -60.4°C | 65.8% | 195.5hPa | 2.5V | 00:00:00 | 02:06:48 | 00:00:00 | |
| BAUMI2-15 | 2026-09-04 05:45:55 | 47.34197 | 11.70613 | 143° | 78km/h | 12494m | -5.9m/s | -60.5°C | 65.8% | 195.4hPa | 2.5V | 00:00:00 | 02:06:47 | 00:00:00 | |
| OE5DRO-10 | 2026-09-04 05:45:53 | 47.34228 | 11.70578 | 144° | 78km/h | 12507m | -5.9m/s | -60.6°C | 65.7% | 194.9hPa | 2.6V | 01:31:00 | 00:00:00 | 00:00:00 | |
| PG1ADW-2 | 2026-09-04 05:45:52 | 47.34244 | 11.70560 | 143° | 78km/h | 12513m | -6.1m/s | -60.6°C | 65.6% | 194.7hPa | 2.6V | 01:31:00 | 02:06:44 | 00:00:00 | |
| OE5DXL-15 | 2026-09-04 05:45:51 | 47.34260 | 11.70543 | 145° | 78km/h | 12519m | -6.0m/s | -60.7°C | 65.5% | 194.6hPa | 2.6V | 00:00:00 | 00:00:00 | 00:00:00 | |
| OE5MMP-10 | 2026-09-04 05:45:50 | 47.34276 | 11.70525 | 144° | 78km/h | 12525m | -6.0m/s | -60.7°C | 65.5% | 194.3hPa | 2.6V | 00:00:00 | 02:06:42 | 00:00:00 | |
| IN3HCDX | 2026-09-04 05:45:49 | 47.34276 | 11.70525 | 145° | 78km/h | 12525m | -6.1m/s | -60.8°C | 53.3% | 194.4hPa | 2.6V | 01:31:00 | 00:00:00 | 00:00:00 | |
| DO3MHA-11 | 2026-09-04 05:45:47 | 47.34324 | 11.70475 | 146° | 77km/h | 12543m | -6.5m/s | -60.9°C | 65.5% | 193.7hPa | 2.6V | 01:31:00 | 02:06:39 | 00:00:00 | |
| DO3MHA-12 | 2026-09-04 05:45:46 | 47.34340 | 11.70459 | 146° | 77km/h | 12550m | -5.7m/s | -61.0°C | 65.5% | 193.6hPa | 2.6V | 01:31:00 | 02:06:38 | 00:00:00 | |
| BAUMI2-15 | 2026-09-04 05:45:42 | 47.34405 | 11.70395 | 146° | 78km/h | 12574m | -6.2m/s | -61.2°C | 65.3% | 192.8hPa | 2.6V | 00:00:00 | 02:06:34 | 00:00:00 | |
| DO3MHA-11 | 2026-09-04 05:45:37 | 47.34486 | 11.70314 | 146° | 80km/h | 12605m | -6.2m/s | -61.5°C | 65.3% | 191.9hPa | 2.6V | 00:00:00 | 02:06:29 | 00:00:00 | |
| DO3MHA-12 | 2026-09-04 05:45:36 | 47.34503 | 11.70297 | 147° | 80km/h | 12611m | -5.9m/s | -61.5°C | 65.1% | 191.7hPa | 2.6V | 00:00:00 | 02:06:28 | 00:00:00 | |
| OE5MMP-10 | 2026-09-04 05:45:35 | 47.34519 | 11.70281 | 146° | 80km/h | 12618m | -6.4m/s | -61.6°C | 64.9% | 191.5hPa | 2.5V | 01:32:00 | 02:06:27 | 00:00:00 | |
| OE5DRO-10 | 2026-09-04 05:45:34 | 47.34536 | 11.70264 | 147° | 80km/h | 12624m | -5.9m/s | -61.6°C | 64.8% | 191.3hPa | 2.5V | 00:00:00 | 00:00:00 | 00:00:00 | |
| BAUMI2-15 | 2026-09-04 05:45:32 | 47.34569 | 11.70231 | 146° | 80km/h | 12636m | -6.1m/s | -61.7°C | 64.5% | 190.9hPa | 2.5V | 00:00:00 | 02:06:24 | 00:00:00 | |
| NBG1-10 | 2026-09-04 05:45:30 | 47.34602 | 11.70198 | 147° | 82km/h | 12649m | -6.1m/s | -61.8°C | 64.2% | 190.5hPa | 2.5V | 00:00:00 | 02:06:22 | 00:00:00 | |
| OE3JTB-15 | 2026-09-04 05:45:28 | 47.34636 | 11.70164 | 147° | 82km/h | 12661m | -6.3m/s | -61.9°C | 64.0% | 190.1hPa | 2.5V | 00:00:00 | 00:00:00 | 00:00:00 | |
| DO3MHA-11 | 2026-09-04 05:45:27 | 47.34653 | 11.70148 | 147° | 80km/h | 12667m | -5.8m/s | -62.0°C | 64.0% | 190.0hPa | 2.5V | 01:32:00 | 02:06:19 | 00:00:00 | |
| DO3MHA-12 | 2026-09-04 05:45:26 | 47.34670 | 11.70131 | 147° | 80km/h | 12674m | -6.6m/s | -62.1°C | 64.1% | 189.7hPa | 2.5V | 01:32:00 | 02:06:18 | 00:00:00 | |
| DG1MFX-10 | 2026-09-04 05:45:23 | 47.34720 | 11.70080 | 146° | 80km/h | 12692m | -6.2m/s | -62.3°C | 51.5% | 189.2hPa | 2.5V | 01:32:00 | 00:00:00 | 00:00:00 | |
| BAUMI2-15 | 2026-09-04 05:45:22 | 47.34737 | 11.70063 | 146° | 82km/h | 12699m | -6.5m/s | -62.3°C | 64.1% | 189.0hPa | 2.5V | 00:00:00 | 02:06:14 | 00:00:00 | |
| OE5DXL-15 | 2026-09-04 05:45:21 | 47.34754 | 11.70046 | 146° | 82km/h | 12705m | -6.0m/s | -62.3°C | 64.0% | 188.8hPa | 2.6V | 01:32:00 | 00:00:00 | 00:00:00 | |
| DO3MHA-11 | 2026-09-04 05:45:17 | 47.34823 | 11.69979 | 147° | 82km/h | 12730m | -6.2m/s | -62.5°C | 63.9% | 188.0hPa | 2.6V | 00:00:00 | 02:06:09 | 00:00:00 | |
| OE5DRO-10 | 2026-09-04 05:45:16 | 47.34857 | 11.69945 | 147° | 82km/h | 12742m | -6.6m/s | -62.6°C | 63.6% | 187.6hPa | 2.6V | 01:32:00 | 00:00:00 | 00:00:00 | |
| OE5WHR-10 | 2026-09-04 05:45:15 | 47.34857 | 11.69945 | 147° | 82km/h | 12742m | -6.6m/s | -62.6°C | 63.6% | 187.6hPa | 2.5V | 00:00:00 | 02:06:07 | 00:00:00 | |
| BAUMI2-15 | 2026-09-04 05:45:12 | 47.34908 | 11.69895 | 148° | 82km/h | 12762m | -6.1m/s | -62.8°C | 63.4% | 187.1hPa | 2.5V | 00:00:00 | 02:06:04 | 00:00:00 | |
| PG1ADW-2 | 2026-09-04 05:45:08 | 47.34979 | 11.69829 | 148° | 84km/h | 12787m | -6.6m/s | -62.9°C | 62.6% | 186.3hPa | 2.5V | 01:32:00 | 00:00:00 | 00:00:00 | |
| DO3MHA-11 | 2026-09-04 05:45:07 | 47.34997 | 11.69813 | 149° | 84km/h | 12793m | -6.0m/s | -63.0°C | 62.4% | 186.1hPa | 2.5V | 01:32:00 | 02:05:59 | 00:00:00 | |
| DO3MHA-12 | 2026-09-04 05:45:06 | 47.35014 | 11.69797 | 149° | 84km/h | 12800m | -6.5m/s | -63.0°C | 62.3% | 185.9hPa | 2.5V | 01:32:00 | 02:05:58 | 00:00:00 | |
| OE5MMP-10 | 2026-09-04 05:45:04 | 47.35051 | 11.69765 | 149° | 84km/h | 12812m | -6.5m/s | -63.1°C | 62.5% | 185.5hPa | 2.6V | 00:00:00 | 02:05:56 | 00:00:00 | |
| DL6DJ-15 | 2026-09-04 05:44:57 | 47.35197 | 11.69640 | 150° | 82km/h | 12864m | -6.1m/s | -63.6°C | 49.2% | 184.1hPa | 2.6V | 00:00:00 | 00:00:00 | 00:00:00 | |
| DO3MHA-12 | 2026-09-04 05:44:56 | 47.35197 | 11.69640 | 151° | 86km/h | 12864m | -6.1m/s | -63.6°C | 62.0% | 184.0hPa | 2.6V | 00:00:00 | 02:05:48 | 00:00:00 | |
| OE5WHR-10 | 2026-09-04 05:44:54 | 47.35234 | 11.69609 | 150° | 89km/h | 12877m | -6.7m/s | -63.7°C | 61.6% | 183.6hPa | 2.6V | 01:32:00 | 00:00:00 | 00:00:00 | |
| BAUMI2-15 | 2026-09-04 05:44:52 | 47.35272 | 11.69577 | 150° | 86km/h | 12890m | -6.3m/s | -63.8°C | 61.6% | 183.2hPa | 2.5V | 00:00:00 | 02:05:44 | 00:00:00 | |
| OE5DXL-15 | 2026-09-04 05:44:51 | 47.35290 | 11.69561 | 151° | 89km/h | 12896m | -6.1m/s | -63.8°C | 61.4% | 183.0hPa | 2.6V | 00:00:00 | 00:00:00 | 00:00:00 | |
| DG1MJG | 2026-09-04 05:44:50 | 47.35290 | 11.69561 | 151° | 86km/h | 12896m | -6.1m/s | -63.9°C | 48.6% | 183.1hPa | 2.6V | 01:33:00 | 00:00:00 | 00:00:00 | |
| OE5MMP-10 | 2026-09-04 05:44:48 | 47.35347 | 11.69512 | 151° | 91km/h | 12916m | -6.1m/s | -64.0°C | 60.3% | 182.5hPa | 2.6V | 01:32:00 | 02:05:40 | 00:00:00 | |
| DO3MHA-11 | 2026-09-04 05:44:47 | 47.35367 | 11.69496 | 151° | 89km/h | 12922m | -6.4m/s | -64.1°C | 60.2% | 182.3hPa | 2.6V | 01:32:00 | 02:05:39 | 00:00:00 | |
| DO3MHA-12 | 2026-09-04 05:44:46 | 47.35386 | 11.69480 | 151° | 89km/h | 12928m | -6.4m/s | -64.1°C | 59.8% | 182.0hPa | 2.6V | 01:32:00 | 02:05:38 | 00:00:00 | |
| BAUMI2-15 | 2026-09-04 05:44:42 | 47.35465 | 11.69416 | 152° | 91km/h | 12955m | -6.3m/s | -64.3°C | 59.4% | 181.3hPa | 2.6V | 00:00:00 | 02:05:34 | 00:00:00 | |
| DG1MFX-10 | 2026-09-04 05:44:40 | 47.35485 | 11.69399 | 152° | 91km/h | 12962m | -6.5m/s | -64.4°C | 46.8% | 181.2hPa | 2.6V | 01:33:00 | 00:00:00 | 00:00:00 | |
| IN3IJJ | 2026-09-04 05:44:39 | 47.35505 | 11.69384 | 153° | 89km/h | 12968m | -6.2m/s | -64.4°C | 46.6% | 181.0hPa | 2.6V | 00:00:00 | 00:00:00 | 00:00:00 | |
| DO3MHA-11 | 2026-09-04 05:44:37 | 47.35566 | 11.69336 | 153° | 91km/h | 12987m | -6.3m/s | -64.4°C | 59.0% | 180.4hPa | 2.6V | 00:00:00 | 02:05:29 | 00:00:00 | |
| DO3MHA-12 | 2026-09-04 05:44:36 | 47.35586 | 11.69321 | 153° | 91km/h | 12993m | -6.4m/s | -64.5°C | 58.9% | 180.1hPa | 2.5V | 00:00:00 | 02:05:28 | 00:00:00 | |
| OE5WHR-10 | 2026-09-04 05:44:33 | 47.35647 | 11.69275 | 154° | 91km/h | 13013m | -6.1m/s | -64.5°C | 58.4% | 179.6hPa | 2.5V | 00:00:00 | 00:00:00 | 00:00:00 | |
| BAUMI2-15 | 2026-09-04 05:44:32 | 47.35668 | 11.69260 | 154° | 91km/h | 13019m | -6.8m/s | -64.6°C | 58.1% | 179.4hPa | 2.5V | 00:00:00 | 02:05:24 | 00:00:00 | |
| OE3JTB-15 | 2026-09-04 05:44:30 | 47.35709 | 11.69229 | 154° | 93km/h | 13032m | -6.5m/s | -64.6°C | 58.2% | 179.0hPa | 2.5V | 00:00:00 | 00:00:00 | 00:00:00 | |
| DB0ND-19 | 2026-09-04 05:44:29 | 47.35750 | 11.69199 | 153° | 91km/h | 13044m | -6.1m/s | -64.8°C | 45.3% | 178.7hPa | 2.6V | 00:00:00 | 00:00:00 | 00:00:00 | |
| DO3MHA-11 | 2026-09-04 05:44:27 | 47.35771 | 11.69184 | 154° | 91km/h | 13050m | -6.4m/s | -64.8°C | 57.7% | 178.4hPa | 2.6V | 01:33:00 | 02:05:19 | 00:00:00 | |
| DO3MHA-12 | 2026-09-04 05:44:26 | 47.35792 | 11.69169 | 155° | 91km/h | 13057m | -5.9m/s | -64.8°C | 57.8% | 178.3hPa | 2.6V | 01:33:00 | 02:05:18 | 00:00:00 | |
| IN3HCDX | 2026-09-04 05:44:25 | 47.35792 | 11.69169 | 155° | 91km/h | 13057m | -5.9m/s | -64.9°C | 45.2% | 178.3hPa | 2.6V | 01:33:00 | 00:00:00 | 00:00:00 | |
| NBG1-10 | 2026-09-04 05:44:24 | 47.35834 | 11.69140 | 155° | 93km/h | 13069m | -6.4m/s | -64.9°C | 57.6% | 178.0hPa | 2.6V | 00:00:00 | 02:05:16 | 00:00:00 | |
| BAUMI2-15 | 2026-09-04 05:44:22 | 47.35875 | 11.69111 | 155° | 91km/h | 13082m | -6.3m/s | -65.0°C | 57.8% | 177.6hPa | 2.6V | 00:00:00 | 02:05:14 | 00:00:00 | |
| OE5DXL-15 | 2026-09-04 05:44:21 | 47.35895 | 11.69096 | 155° | 93km/h | 13089m | -6.7m/s | -65.1°C | 57.7% | 177.4hPa | 2.5V | 01:33:00 | 00:00:00 | 00:00:00 | |
| DG1MFX-10 | 2026-09-04 05:44:20 | 47.35895 | 11.69096 | 155° | 91km/h | 13089m | -6.7m/s | -65.1°C | 45.0% | 177.4hPa | 2.5V | 01:33:00 | 00:00:00 | 00:00:00 | |
| IN3IJJ | 2026-09-04 05:44:19 | 47.35937 | 11.69067 | 155° | 91km/h | 13102m | -6.7m/s | -65.3°C | 44.9% | 177.0hPa | 2.5V | 00:00:00 | 00:00:00 | 00:00:00 | |
| OE5DRO-10 | 2026-09-04 05:44:18 | 47.35958 | 11.69052 | 155° | 93km/h | 13109m | -6.4m/s | -65.3°C | 57.8% | 176.8hPa | 2.5V | 00:00:00 | 00:00:00 | 00:00:00 | |
| DO3MHA-11 | 2026-09-04 05:44:17 | 47.35979 | 11.69037 | 155° | 93km/h | 13115m | -6.4m/s | -65.3°C | 57.6% | 176.6hPa | 2.6V | 00:00:00 | 02:05:09 | 00:00:00 | |
| DO3MHA-12 | 2026-09-04 05:44:16 | 47.36000 | 11.69023 | 155° | 93km/h | 13122m | -6.5m/s | -65.3°C | 57.6% | 176.4hPa | 2.6V | 00:00:00 | 02:05:08 | 00:00:00 | |
| OE5WHR-10 | 2026-09-04 05:44:12 | 47.36085 | 11.68964 | 155° | 93km/h | 13148m | -6.8m/s | -65.6°C | 57.4% | 175.6hPa | 2.6V | 01:33:00 | 02:05:04 | 00:00:00 | |
| DO3MHA-12 | 2026-09-04 05:44:06 | 47.36214 | 11.68873 | 154° | 95km/h | 13187m | -6.5m/s | -65.9°C | 57.1% | 174.5hPa | 2.6V | 01:33:00 | 02:04:58 | 00:00:00 | |
| IN3HCDX | 2026-09-04 05:44:05 | 47.36214 | 11.68873 | 155° | 95km/h | 13187m | -6.6m/s | -65.9°C | 44.1% | 174.5hPa | 2.6V | 01:33:00 | 00:00:00 | 00:00:00 | |
| DB0ND-19 | 2026-09-04 05:43:58 | 47.36407 | 11.68733 | 154° | 93km/h | 13245m | -6.8m/s | -66.3°C | 45.0% | 172.9hPa | 2.6V | 00:00:00 | 00:00:00 | 00:00:00 | |
| DL6DJ-15 | 2026-09-04 05:43:54 | 47.36472 | 11.68690 | 156° | 91km/h | 13266m | -6.4m/s | -66.5°C | 45.2% | 172.3hPa | 2.6V | 00:00:00 | 00:00:00 | 00:00:00 | |
| DB0UT-7 | 2026-09-04 05:43:51 | 47.36537 | 11.68650 | 158° | 86km/h | 13285m | -7.0m/s | -66.5°C | 59.2% | 171.8hPa | 2.6V | 00:00:00 | 00:00:00 | 00:00:00 | |
| DG1MJG | 2026-09-04 05:43:49 | 47.36558 | 11.68637 | 159° | 93km/h | 13292m | -6.1m/s | -66.6°C | 45.8% | 171.6hPa | 2.6V | 01:34:00 | 00:00:00 | 00:00:00 | |
| DO3MHA-11 | 2026-09-04 05:43:47 | 47.36624 | 11.68597 | 158° | 89km/h | 13312m | -6.3m/s | -66.6°C | 60.6% | 170.9hPa | 2.6V | 01:33:00 | 02:04:39 | 00:00:00 | |
| DO3MHA-12 | 2026-09-04 05:43:46 | 47.36646 | 11.68584 | 157° | 89km/h | 13318m | -6.4m/s | -66.6°C | 60.6% | 170.8hPa | 2.6V | 01:33:00 | 02:04:38 | 00:00:00 | |
| IN3HCDX | 2026-09-04 05:43:44 | 47.36667 | 11.68571 | 158° | 91km/h | 13324m | -6.2m/s | -66.7°C | 46.8% | 170.6hPa | 2.6V | 01:34:00 | 00:00:00 | 00:00:00 | |
| OE5MMP-10 | 2026-09-04 05:43:40 | 47.36771 | 11.68506 | 157° | 82km/h | 13356m | -6.6m/s | -66.1°C | 55.9% | 169.7hPa | 2.6V | 01:34:00 | 02:04:32 | 00:00:00 | |
| DG1MFX-10 | 2026-09-04 05:43:39 | 47.36771 | 11.68506 | 157° | 86km/h | 13356m | -6.7m/s | -66.2°C | 42.9% | 169.7hPa | 2.6V | 01:34:00 | 00:00:00 | 00:00:00 | |
| DO3MHA-11 | 2026-09-04 05:43:37 | 47.36831 | 11.68467 | 156° | 84km/h | 13376m | -6.7m/s | -66.3°C | 56.3% | 169.1hPa | 2.6V | 00:00:00 | 02:04:29 | 00:00:00 | |
| DO3MHA-12 | 2026-09-04 05:43:36 | 47.36851 | 11.68453 | 157° | 84km/h | 13383m | -6.3m/s | -66.3°C | 56.6% | 168.9hPa | 2.5V | 00:00:00 | 02:04:28 | 00:00:00 | |
| OE3JTB-15 | 2026-09-04 05:43:32 | 47.36930 | 11.68400 | 155° | 78km/h | 13409m | -6.8m/s | -66.1°C | 55.9% | 168.3hPa | 2.6V | 00:00:00 | 02:04:24 | 00:00:00 | |
| OE5WHR-10 | 2026-09-04 05:43:29 | 47.36986 | 11.68361 | 155° | 80km/h | 13428m | -6.7m/s | -66.1°C | 55.0% | 167.6hPa | 2.6V | 01:34:00 | 00:00:00 | 00:00:00 | |
| DO3MHA-11 | 2026-09-04 05:43:27 | 47.37023 | 11.68335 | 154° | 78km/h | 13442m | -6.2m/s | -66.1°C | 54.4% | 167.3hPa | 2.6V | 01:34:00 | 02:04:19 | 00:00:00 | |
| DO3MHA-12 | 2026-09-04 05:43:26 | 47.37041 | 11.68321 | 154° | 78km/h | 13448m | -6.7m/s | -66.1°C | 54.3% | 167.1hPa | 2.6V | 01:34:00 | 02:04:18 | 00:00:00 | |
| DL6DJ-15 | 2026-09-04 05:43:23 | 47.37095 | 11.68281 | 152° | 78km/h | 13468m | -6.8m/s | -66.0°C | 40.0% | 166.7hPa | 2.6V | 00:00:00 | 00:00:00 | 00:00:00 | |
| OE5DXL-15 | 2026-09-04 05:43:21 | 47.37130 | 11.68254 | 152° | 77km/h | 13481m | -6.6m/s | -66.0°C | 51.9% | 166.2hPa | 2.6V | 01:34:00 | 00:00:00 | 00:00:00 | |
| DG1MFX-10 | 2026-09-04 05:43:19 | 47.37147 | 11.68239 | 152° | 78km/h | 13488m | -6.7m/s | -66.0°C | 38.9% | 166.1hPa | 2.6V | 01:34:00 | 00:00:00 | 00:00:00 | |
| NBG1-10 | 2026-09-04 05:43:18 | 47.37182 | 11.68211 | 150° | 88km/h | 13501m | -7.0m/s | -66.0°C | 50.2% | 165.7hPa | 2.6V | 00:00:00 | 02:04:10 | 00:00:00 | |
| DO3MHA-11 | 2026-09-04 05:43:17 | 47.37199 | 11.68196 | 150° | 77km/h | 13508m | -6.7m/s | -66.0°C | 50.0% | 165.4hPa | 2.6V | 00:00:00 | 02:04:09 | 00:00:00 | |
| DO3MHA-12 | 2026-09-04 05:43:16 | 47.37216 | 11.68182 | 150° | 77km/h | 13515m | -6.5m/s | -66.0°C | 49.7% | 165.2hPa | 2.6V | 00:00:00 | 02:04:08 | 00:00:00 | |
| DO3MHA-11 | 2026-09-04 05:43:07 | 47.37360 | 11.68042 | 143° | 77km/h | 13576m | -7.1m/s | -65.7°C | 42.8% | 163.6hPa | 2.6V | 01:34:00 | 02:03:59 | 00:00:00 | |
| DO3MHA-12 | 2026-09-04 05:43:06 | 47.37375 | 11.68024 | 143° | 77km/h | 13583m | -6.6m/s | -65.7°C | 42.1% | 163.4hPa | 2.5V | 01:34:00 | 02:03:58 | 00:00:00 | |
| OE3JTB-15 | 2026-09-04 05:43:03 | 47.37421 | 11.67971 | 141° | 82km/h | 13604m | -6.7m/s | -65.6°C | 40.5% | 162.9hPa | 2.5V | 01:34:00 | 00:00:00 | 00:00:00 | |
| IN3HCDX | 2026-09-04 05:43:02 | 47.37421 | 11.67971 | 141° | 77km/h | 13604m | -6.8m/s | -65.7°C | 29.9% | 162.9hPa | 2.6V | 01:35:00 | 00:00:00 | 00:00:00 | |
| DB0ND-19 | 2026-09-04 05:42:56 | 47.37555 | 11.67798 | 137° | 80km/h | 13665m | -6.8m/s | -65.7°C | 27.2% | 161.4hPa | 2.6V | 00:00:00 | 00:00:00 | 00:00:00 | |
| DL6DJ-15 | 2026-09-04 05:42:52 | 47.37585 | 11.67758 | 137° | 80km/h | 13679m | -6.9m/s | -65.9°C | 26.9% | 161.0hPa | 2.6V | 00:00:00 | 00:00:00 | 00:00:00 | |
| DB0UT-7 | 2026-09-04 05:42:51 | 47.37601 | 11.67737 | 138° | 88km/h | 13686m | -6.7m/s | -65.9°C | 36.9% | 160.7hPa | 2.6V | 00:00:00 | 00:00:00 | 00:00:00 | |
| DO8TBO-1 | 2026-09-04 05:42:50 | 47.37616 | 11.67716 | 137° | 88km/h | 13692m | -7.0m/s | -65.9°C | 36.7% | 160.6hPa | 2.6V | 00:00:00 | 02:03:42 | 00:00:00 | |
| DG1MJG | 2026-09-04 05:42:49 | 47.37616 | 11.67716 | 137° | 82km/h | 13692m | -7.0m/s | -66.0°C | 26.6% | 160.6hPa | 2.6V | 01:35:00 | 00:00:00 | 00:00:00 | |
| DO3MHA-11 | 2026-09-04 05:42:47 | 47.37662 | 11.67653 | 137° | 86km/h | 13713m | -6.6m/s | -66.1°C | 36.3% | 160.0hPa | 2.6V | 01:34:00 | 02:03:39 | 00:00:00 | |
| DO3MHA-12 | 2026-09-04 05:42:46 | 47.37677 | 11.67632 | 137° | 86km/h | 13720m | -7.0m/s | -66.1°C | 35.9% | 159.9hPa | 2.6V | 01:34:00 | 02:03:38 | 00:00:00 | |
| OE5WHR-10 | 2026-09-04 05:42:44 | 47.37708 | 11.67589 | 137° | 89km/h | 13733m | -6.7m/s | -66.2°C | 35.7% | 159.5hPa | 2.6V | 00:00:00 | 02:03:36 | 00:00:00 | |
| OE5DRO-10 | 2026-09-04 05:42:43 | 47.37724 | 11.67568 | 137° | 89km/h | 13740m | -6.4m/s | -66.3°C | 35.6% | 159.3hPa | 2.6V | 01:35:00 | 00:00:00 | 00:00:00 | |
| IN3HCDX | 2026-09-04 05:42:41 | 47.37740 | 11.67546 | 137° | 86km/h | 13747m | -7.1m/s | -66.4°C | 25.4% | 159.2hPa | 2.6V | 01:35:00 | 00:00:00 | 00:00:00 | |
| DG1MFX-10 | 2026-09-04 05:42:38 | 47.37788 | 11.67478 | 138° | 88km/h | 13767m | -6.8m/s | -66.6°C | 24.6% | 158.6hPa | 2.6V | 01:35:00 | 00:00:00 | 00:00:00 | |
| DO3MHA-11 | 2026-09-04 05:42:37 | 47.37820 | 11.67433 | 138° | 91km/h | 13781m | -6.7m/s | -66.6°C | 34.0% | 158.2hPa | 2.6V | 00:00:00 | 02:03:29 | 00:00:00 | |
| DO3MHA-12 | 2026-09-04 05:42:36 | 47.37837 | 11.67410 | 137° | 91km/h | 13788m | -7.0m/s | -66.7°C | 33.9% | 158.0hPa | 2.6V | 00:00:00 | 02:03:28 | 00:00:00 | |
| OE3JTB-15 | 2026-09-04 05:42:34 | 47.37871 | 11.67364 | 138° | 91km/h | 13802m | -6.9m/s | -66.8°C | 33.4% | 157.7hPa | 2.5V | 00:00:00 | 00:00:00 | 00:00:00 | |
| DO3MHA-11 | 2026-09-04 05:42:27 | 47.37990 | 11.67206 | 140° | 91km/h | 13850m | -6.8m/s | -67.1°C | 33.0% | 156.5hPa | 2.5V | 01:35:00 | 02:03:19 | 00:00:00 | |
| DO3MHA-12 | 2026-09-04 05:42:26 | 47.38008 | 11.67183 | 140° | 91km/h | 13857m | -6.5m/s | -67.1°C | 32.6% | 156.2hPa | 2.5V | 01:35:00 | 02:03:18 | 00:00:00 | |
| OE5DRO-10 | 2026-09-04 05:42:24 | 47.38044 | 11.67140 | 142° | 91km/h | 13870m | -6.6m/s | -67.1°C | 31.8% | 155.9hPa | 2.5V | 00:00:00 | 00:00:00 | 00:00:00 | |
| OE5WHR-10 | 2026-09-04 05:42:23 | 47.38062 | 11.67118 | 143° | 89km/h | 13877m | -7.0m/s | -67.2°C | 31.4% | 155.7hPa | 2.5V | 01:35:00 | 00:00:00 | 00:00:00 | |
| NBG1-10 | 2026-09-04 05:42:22 | 47.38081 | 11.67098 | 144° | 88km/h | 13884m | -6.8m/s | -67.1°C | 30.9% | 155.5hPa | 2.5V | 01:35:00 | 02:03:14 | 00:00:00 | |
| DB0UT-7 | 2026-09-04 05:42:21 | 47.38100 | 11.67077 | 145° | 88km/h | 13891m | -7.2m/s | -67.1°C | 30.4% | 155.3hPa | 2.5V | 01:35:00 | 02:03:13 | 00:00:00 | |
| DO8TBO-1 | 2026-09-04 05:42:20 | 47.38119 | 11.67058 | 145° | 88km/h | 13898m | -6.6m/s | -67.1°C | 30.0% | 155.2hPa | 2.5V | 01:35:00 | 02:03:12 | 00:00:00 | |
| DO3MHA-11 | 2026-09-04 05:42:17 | 47.38176 | 11.66998 | 145° | 91km/h | 13919m | -7.1m/s | -67.1°C | 29.1% | 154.7hPa | 2.6V | 00:00:00 | 02:03:09 | 00:00:00 | |
| DO3MHA-12 | 2026-09-04 05:42:16 | 47.38195 | 11.66978 | 145° | 89km/h | 13926m | -6.6m/s | -67.1°C | 28.8% | 154.5hPa | 2.6V | 00:00:00 | 02:03:08 | 00:00:00 | |
| OE5MMP-10 | 2026-09-04 05:42:12 | 47.38271 | 11.66899 | 145° | 89km/h | 13954m | -7.3m/s | -66.9°C | 26.9% | 153.7hPa | 2.6V | 00:00:00 | 02:03:04 | 00:00:00 | |
| DO3MHA-11 | 2026-09-04 05:42:07 | 47.38362 | 11.66804 | 146° | 86km/h | 13989m | -6.7m/s | -66.2°C | 23.2% | 152.9hPa | 2.6V | 01:35:00 | 02:02:59 | 00:00:00 | |
| DO3MHA-12 | 2026-09-04 05:42:06 | 47.38380 | 11.66786 | 145° | 84km/h | 13996m | -7.1m/s | -65.8°C | 22.0% | 152.7hPa | 2.6V | 01:35:00 | 02:02:58 | 00:00:00 | |
| OE3JTB-15 | 2026-09-04 05:42:05 | 47.38398 | 11.66767 | 144° | 88km/h | 14003m | -7.2m/s | -65.8°C | 21.6% | 152.5hPa | 2.5V | 01:35:00 | 02:02:57 | 00:00:00 | |
| DB0ND-19 | 2026-09-04 05:41:54 | 47.38598 | 11.66531 | 137° | 84km/h | 14088m | -6.9m/s | -65.1°C | 10.7% | 150.4hPa | 2.5V | 00:00:00 | 00:00:00 | 00:00:00 | |
| OE5DXL-15 | 2026-09-04 05:41:51 | 47.38630 | 11.66488 | 138° | 89km/h | 14102m | -6.7m/s | -64.9°C | 17.0% | 150.0hPa | 2.5V | 00:00:00 | 00:00:00 | 00:00:00 | |
| DO8TBO-1 | 2026-09-04 05:41:50 | 47.38646 | 11.66467 | 138° | 88km/h | 14109m | -7.4m/s | -64.9°C | 16.8% | 149.8hPa | 2.5V | 00:00:00 | 02:02:42 | 00:00:00 | |
| BAUMI2-15 | 2026-09-04 05:41:49 | 47.38663 | 11.66445 | 139° | 89km/h | 14117m | -7.0m/s | -64.9°C | 16.6% | 149.7hPa | 2.5V | 00:00:00 | 02:02:41 | 00:00:00 | |
| OE5MMP-10 | 2026-09-04 05:41:47 | 47.38697 | 11.66400 | 139° | 89km/h | 14131m | -7.2m/s | -65.0°C | 16.5% | 149.3hPa | 2.6V | 00:00:00 | 02:02:39 | 00:00:00 | |
| DO3MHA-12 | 2026-09-04 05:41:46 | 47.38714 | 11.66379 | 140° | 89km/h | 14138m | -6.8m/s | -65.0°C | 16.3% | 149.1hPa | 2.6V | 01:35:00 | 02:02:38 | 00:00:00 | |
| BAUMI2-15 | 2026-09-04 05:41:44 | 47.38749 | 11.66335 | 140° | 88km/h | 14152m | -7.1m/s | -65.0°C | 16.0% | 148.8hPa | 2.6V | 01:36:00 | 02:02:36 | 00:00:00 | |
| IN3HCDX | 2026-09-04 05:41:39 | 47.38833 | 11.66228 | 139° | 89km/h | 14187m | -7.3m/s | -65.1°C | 8.9% | 148.0hPa | 2.6V | 00:00:00 | 00:00:00 | 00:00:00 | |
| DO3MHA-11 | 2026-09-04 05:41:37 | 47.38867 | 11.66183 | 138° | 91km/h | 14202m | -7.1m/s | -65.0°C | 15.1% | 147.6hPa | 2.6V | 00:00:00 | 02:02:29 | 00:00:00 | |
| DO3MHA-12 | 2026-09-04 05:41:36 | 47.38884 | 11.66160 | 139° | 89km/h | 14209m | -6.9m/s | -64.9°C | 15.0% | 147.4hPa | 2.6V | 00:00:00 | 02:02:28 | 00:00:00 | |
| OE5MMP-10 | 2026-09-04 05:41:34 | 47.38919 | 11.66114 | 138° | 91km/h | 14223m | -7.5m/s | -64.7°C | 14.5% | 147.0hPa | 2.5V | 01:36:00 | 02:02:26 | 00:00:00 | |
| BAUMI2-15 | 2026-09-04 05:41:29 | 47.39004 | 11.66002 | 139° | 86km/h | 14260m | -7.2m/s | -64.2°C | 13.5% | 146.2hPa | 2.5V | 00:00:00 | 02:02:21 | 00:00:00 | |
| DO3MHA-11 | 2026-09-04 05:41:27 | 47.39037 | 11.65958 | 139° | 84km/h | 14275m | -7.1m/s | -64.0°C | 13.1% | 145.8hPa | 2.5V | 01:36:00 | 02:02:19 | 00:00:00 | |
| DO3MHA-12 | 2026-09-04 05:41:26 | 47.39053 | 11.65937 | 137° | 84km/h | 14282m | -7.4m/s | -64.0°C | 13.0% | 145.7hPa | 2.5V | 01:36:00 | 02:02:18 | 00:00:00 | |
| DF1GD-15 | 2026-09-04 05:41:25 | 47.39053 | 11.65937 | 138° | 86km/h | 14282m | -7.5m/s | -64.0°C | 7.2% | 145.7hPa | 2.5V | 00:00:00 | 00:00:00 | 00:00:00 | |
| BAUMI2-15 | 2026-09-04 05:41:24 | 47.39085 | 11.65893 | 137° | 84km/h | 14297m | -7.2m/s | -63.9°C | 12.8% | 145.3hPa | 2.5V | 01:36:00 | 02:02:16 | 00:00:00 | |
| DB0ND-19 | 2026-09-04 05:41:23 | 47.39116 | 11.65849 | 135° | 84km/h | 14311m | -7.5m/s | -63.8°C | 6.8% | 145.0hPa | 2.5V | 00:00:00 | 00:00:00 | 00:00:00 | |
| DB0UT-7 | 2026-09-04 05:41:21 | 47.39131 | 11.65827 | 137° | 80km/h | 14319m | -7.2m/s | -63.7°C | 12.3% | 144.8hPa | 2.5V | 01:36:00 | 02:02:13 | 00:00:00 | |
| OE5HKT-10 | 2026-09-04 05:41:20 | 47.39147 | 11.65806 | 137° | 78km/h | 14326m | -7.1m/s | 0°C | 0% | 0hPa | 2.5V | 00:00:00 | 02:02:12 | 00:00:00 | |
| BAUMI2-15 | 2026-09-04 05:41:19 | 47.39162 | 11.65785 | 138° | 78km/h | 14334m | -7.5m/s | -63.7°C | 12.3% | 144.5hPa | 2.5V | 00:00:00 | 02:02:11 | 00:00:00 | |
| DO3MHA-11 | 2026-09-04 05:41:17 | 47.39192 | 11.65744 | 139° | 78km/h | 14348m | -6.9m/s | -63.5°C | 12.1% | 144.1hPa | 2.5V | 00:00:00 | 02:02:09 | 00:00:00 | |
| DO3MHA-12 | 2026-09-04 05:41:16 | 47.39206 | 11.65725 | 139° | 77km/h | 14355m | -7.4m/s | -63.4°C | 12.0% | 143.9hPa | 2.5V | 00:00:00 | 02:02:08 | 00:00:00 | |
| OE5WHR-10 | 2026-09-04 05:41:14 | 47.39236 | 11.65687 | 139° | 82km/h | 14369m | -7.3m/s | -63.3°C | 11.9% | 143.6hPa | 2.5V | 00:00:00 | 00:00:00 | 00:00:00 | |
| OE5MMP-10 | 2026-09-04 05:41:12 | 47.39265 | 11.65649 | 138° | 78km/h | 14384m | -7.4m/s | -63.2°C | 11.6% | 143.2hPa | 2.6V | 00:00:00 | 02:02:04 | 00:00:00 | |
| BAUMI2-15 | 2026-09-04 05:41:09 | 47.39307 | 11.65590 | 136° | 78km/h | 14406m | -7.8m/s | -63.2°C | 11.7% | 142.8hPa | 2.6V | 00:00:00 | 02:02:01 | 00:00:00 | |
| OE5DRO-10 | 2026-09-04 05:41:08 | 47.39322 | 11.65570 | 136° | 84km/h | 14414m | -7.4m/s | -63.2°C | 11.6% | 142.6hPa | 2.6V | 00:00:00 | 00:00:00 | 00:00:00 | |
| DO3MHA-11 | 2026-09-04 05:41:07 | 47.39336 | 11.65549 | 136° | 80km/h | 14421m | -7.5m/s | -63.2°C | 11.6% | 142.4hPa | 2.6V | 01:36:00 | 02:01:59 | 00:00:00 | |
| DO3MHA-12 | 2026-09-04 05:41:06 | 47.39350 | 11.65529 | 136° | 82km/h | 14429m | -7.4m/s | -63.2°C | 11.5% | 142.3hPa | 2.6V | 01:36:00 | 02:01:58 | 00:00:00 | |
| BAUMI2-15 | 2026-09-04 05:41:04 | 47.39379 | 11.65488 | 136° | 80km/h | 14444m | -7.6m/s | -62.9°C | 11.2% | 141.9hPa | 2.5V | 01:36:00 | 02:01:56 | 00:00:00 | |
| DL6DJ-15 | 2026-09-04 05:40:48 | 47.39635 | 11.65150 | 141° | 88km/h | 14563m | -7.7m/s | -63.0°C | 5.8% | 139.2hPa | 2.5V | 00:00:00 | 00:00:00 | 00:00:00 | |
| DO3MHA-11 | 2026-09-04 05:40:47 | 47.39652 | 11.65130 | 143° | 82km/h | 14571m | -7.3m/s | -63.0°C | 11.1% | 139.0hPa | 2.5V | 01:36:00 | 02:01:39 | 00:00:00 | |
| DO3MHA-12 | 2026-09-04 05:40:46 | 47.39669 | 11.65110 | 142° | 80km/h | 14578m | -7.7m/s | -63.0°C | 11.1% | 138.8hPa | 2.5V | 01:36:00 | 02:01:38 | 00:00:00 | |
| BAUMI2-15 | 2026-09-04 05:40:44 | 47.39703 | 11.65069 | 141° | 82km/h | 14594m | -8.0m/s | -63.0°C | 10.9% | 138.4hPa | 2.5V | 01:37:00 | 02:01:36 | 00:00:00 | |
| NBG1-10 | 2026-09-04 05:40:43 | 47.39719 | 11.65050 | 142° | 77km/h | 14602m | -8.0m/s | -62.9°C | 10.6% | 138.3hPa | 2.5V | 00:00:00 | 02:01:35 | 00:00:00 | |
| BAUMI2-15 | 2026-09-04 05:40:39 | 47.39783 | 11.64975 | 142° | 77km/h | 14633m | -7.6m/s | -62.6°C | 9.8% | 137.6hPa | 2.5V | 00:00:00 | 02:01:31 | 00:00:00 | |
| OE5MMP-10 | 2026-09-04 05:40:38 | 47.39799 | 11.64957 | 143° | 75km/h | 14640m | -7.6m/s | -62.5°C | 9.7% | 137.4hPa | 2.5V | 01:37:00 | 02:01:30 | 00:00:00 | |
| DO3MHA-11 | 2026-09-04 05:40:37 | 47.39814 | 11.64940 | 143° | 75km/h | 14648m | -7.5m/s | -62.3°C | 9.4% | 137.3hPa | 2.5V | 00:00:00 | 02:01:29 | 00:00:00 | |
| DO3MHA-12 | 2026-09-04 05:40:36 | 47.39829 | 11.64922 | 142° | 75km/h | 14656m | -7.8m/s | -62.1°C | 9.0% | 137.1hPa | 2.5V | 00:00:00 | 02:01:28 | 00:00:00 | |
| BAUMI2-15 | 2026-09-04 05:40:34 | 47.39858 | 11.64888 | 141° | 75km/h | 14671m | -7.4m/s | -62.0°C | 8.8% | 136.7hPa | 2.6V | 01:37:00 | 02:01:26 | 00:00:00 | |
| OE5WHR-10 | 2026-09-04 05:40:31 | 47.39902 | 11.64834 | 141° | 77km/h | 14695m | -7.5m/s | -61.8°C | 8.6% | 136.3hPa | 2.6V | 00:00:00 | 02:01:23 | 00:00:00 | |
| OE5DRO-10 | 2026-09-04 05:40:30 | 47.39916 | 11.64817 | 139° | 77km/h | 14702m | -7.8m/s | -61.7°C | 8.4% | 136.1hPa | 2.6V | 00:00:00 | 00:00:00 | 00:00:00 | |
| BAUMI2-15 | 2026-09-04 05:40:29 | 47.39930 | 11.64798 | 139° | 75km/h | 14710m | -8.1m/s | -61.6°C | 8.3% | 135.9hPa | 2.6V | 00:00:00 | 02:01:21 | 00:00:00 | |
| OE5MMP-10 | 2026-09-04 05:40:27 | 47.39959 | 11.64762 | 140° | 77km/h | 14726m | -7.9m/s | -61.4°C | 8.1% | 135.5hPa | 2.6V | 00:00:00 | 02:01:19 | 00:00:00 | |
| DO3MHA-12 | 2026-09-04 05:40:26 | 47.39973 | 11.64745 | 141° | 73km/h | 14735m | -8.2m/s | -61.3°C | 8.0% | 135.4hPa | 2.6V | 01:37:00 | 02:01:18 | 00:00:00 | |
| BAUMI2-15 | 2026-09-04 05:40:24 | 47.40003 | 11.64709 | 141° | 77km/h | 14750m | -8.0m/s | -61.0°C | 7.7% | 135.0hPa | 2.6V | 01:37:00 | 02:01:16 | 00:00:00 | |
| DB0ND-19 | 2026-09-04 05:40:20 | 47.40062 | 11.64636 | 139° | 77km/h | 14782m | -8.2m/s | -60.9°C | 3.3% | 134.4hPa | 2.6V | 00:00:00 | 00:00:00 | 00:00:00 | |
| BAUMI2-15 | 2026-09-04 05:40:19 | 47.40077 | 11.64617 | 140° | 78km/h | 14791m | -7.9m/s | -60.8°C | 7.5% | 134.1hPa | 2.6V | 00:00:00 | 02:01:11 | 00:00:00 | |
| IN3IJJ | 2026-09-04 05:40:18 | 47.40077 | 11.64617 | 141° | 78km/h | 14791m | -8.0m/s | -60.9°C | 3.3% | 134.2hPa | 2.6V | 00:00:00 | 00:00:00 | 00:00:00 | |
| OE5MMP-10 | 2026-09-04 05:40:17 | 47.40107 | 11.64579 | 140° | 84km/h | 14807m | -8.1m/s | -60.7°C | 7.3% | 133.8hPa | 2.6V | 01:37:00 | 02:01:09 | 00:00:00 | |
| DO8TBO-1 | 2026-09-04 05:40:16 | 47.40122 | 11.64560 | 139° | 84km/h | 14815m | -8.0m/s | -60.7°C | 7.3% | 133.7hPa | 2.6V | 01:37:00 | 02:01:08 | 00:00:00 | |
| DG1MJG | 2026-09-04 05:40:15 | 47.40122 | 11.64560 | 140° | 80km/h | 14815m | -8.1m/s | -60.7°C | 3.2% | 133.7hPa | 2.6V | 01:37:00 | 00:00:00 | 00:00:00 | |
| BAUMI2-15 | 2026-09-04 05:40:14 | 47.40153 | 11.64521 | 140° | 80km/h | 14831m | -8.1m/s | -60.7°C | 7.3% | 133.3hPa | 2.6V | 01:37:00 | 02:01:06 | 00:00:00 | |
| IN3HCDX | 2026-09-04 05:40:13 | 47.40153 | 11.64521 | 140° | 80km/h | 14831m | -8.1m/s | -60.8°C | 3.1% | 133.3hPa | 2.6V | 01:37:00 | 00:00:00 | 00:00:00 | |
| OE5DRO-10 | 2026-09-04 05:40:11 | 47.40199 | 11.64463 | 141° | 84km/h | 14855m | -7.5m/s | -60.6°C | 7.2% | 132.8hPa | 2.6V | 01:37:00 | 00:00:00 | 00:00:00 | |
| BAUMI2-15 | 2026-09-04 05:40:10 | 47.40231 | 11.64425 | 141° | 84km/h | 14871m | -7.9m/s | -60.6°C | 7.0% | 132.4hPa | 2.6V | 00:00:00 | 02:01:01 | 00:00:00 | |
| OE3JTB-15 | 2026-09-04 05:40:09 | 47.40231 | 11.64425 | 141° | 82km/h | 14871m | -7.9m/s | -60.6°C | 7.0% | 132.4hPa | 2.6V | 01:37:00 | 00:00:00 | 00:00:00 | |
| PG1ADW-2 | 2026-09-04 05:40:07 | 47.40263 | 11.64386 | 140° | 84km/h | 14887m | -8.0m/s | -60.6°C | 7.1% | 132.1hPa | 2.6V | 00:00:00 | 00:00:00 | 00:00:00 | |
| BAUMI2-15 | 2026-09-04 05:40:04 | 47.40312 | 11.64324 | 141° | 88km/h | 14911m | -8.1m/s | -60.6°C | 7.0% | 131.6hPa | 2.6V | 01:37:00 | 02:00:56 | 00:00:00 | |
| DG1MFX-10 | 2026-09-04 05:39:53 | 47.40490 | 11.64136 | 148° | 84km/h | 14993m | -8.1m/s | -60.8°C | 2.9% | 129.9hPa | 2.6V | 01:37:00 | 00:00:00 | 00:00:00 | |
| DO3MHA-11 | 2026-09-04 05:39:52 | 47.40525 | 11.64102 | 148° | 75km/h | 15009m | -7.9m/s | -60.6°C | 6.9% | 129.6hPa | 2.6V | 01:37:00 | 02:00:44 | 00:00:00 | |
| OE5DXL-15 | 2026-09-04 05:39:51 | 47.40543 | 11.64085 | 149° | 68km/h | 15017m | -7.7m/s | -60.5°C | 6.9% | 129.3hPa | 2.6V | 00:00:00 | 00:00:00 | 00:00:00 | |
| OE5WHR-10 | 2026-09-04 05:39:49 | 47.40578 | 11.64053 | 148° | 71km/h | 15033m | -7.9m/s | -60.4°C | 6.8% | 129.0hPa | 2.6V | 00:00:00 | 00:00:00 | 00:00:00 | |
| PG1ADW-2 | 2026-09-04 05:39:47 | 47.40612 | 11.64021 | 148° | 69km/h | 15048m | -7.5m/s | -60.3°C | 6.8% | 128.7hPa | 2.6V | 01:37:00 | 00:00:00 | 00:00:00 | |
| DO8TBO-1 | 2026-09-04 05:39:46 | 47.40629 | 11.64005 | 147° | 64km/h | 15056m | -7.9m/s | -60.3°C | 6.8% | 128.6hPa | 2.6V | 00:00:00 | 02:00:38 | 00:00:00 | |
| DG1MJG | 2026-09-04 05:39:45 | 47.40628 | 11.64005 | 148° | 78km/h | 15056m | -8.0m/s | -60.3°C | 2.7% | 128.6hPa | 2.6V | 01:38:00 | 00:00:00 | 00:00:00 | |
| OE5MMP-10 | 2026-09-04 05:39:44 | 47.40662 | 11.63974 | 148° | 71km/h | 15072m | -8.2m/s | -60.2°C | 6.7% | 128.2hPa | 2.6V | 01:38:00 | 02:00:36 | 00:00:00 | |
| OE3JTB-15 | 2026-09-04 05:39:40 | 47.40726 | 11.63914 | 149° | 60km/h | 15105m | -8.0m/s | -59.9°C | 6.6% | 127.5hPa | 2.6V | 00:00:00 | 00:00:00 | 00:00:00 | |
| DO3MHA-12 | 2026-09-04 05:39:37 | 47.40772 | 11.63873 | 148° | 64km/h | 15130m | -8.2m/s | -59.8°C | 6.5% | 127.0hPa | 2.6V | 00:00:00 | 02:00:29 | 00:00:00 | |
| DO3MHA-11 | 2026-09-04 05:39:36 | 47.40786 | 11.63860 | 148° | 62km/h | 15138m | -8.3m/s | -59.8°C | 6.5% | 126.9hPa | 2.6V | 00:00:00 | 02:00:28 | 00:00:00 | |
| OE5MMP-10 | 2026-09-04 05:39:34 | 47.40814 | 11.63834 | 148° | 58km/h | 15154m | -7.8m/s | -59.7°C | 6.4% | 126.5hPa | 2.6V | 00:00:00 | 02:00:26 | 00:00:00 | |
| OE5DRO-10 | 2026-09-04 05:39:33 | 47.40827 | 11.63821 | 147° | 58km/h | 15162m | -8.1m/s | -59.7°C | 6.4% | 126.4hPa | 2.6V | 01:38:00 | 00:00:00 | 00:00:00 | |
| IN3HCDX | 2026-09-04 05:39:32 | 47.40841 | 11.63808 | 147° | 64km/h | 15171m | -7.9m/s | -59.6°C | 2.4% | 126.3hPa | 2.5V | 01:38:00 | 00:00:00 | 00:00:00 | |
| OE5WHR-10 | 2026-09-04 05:39:28 | 47.40892 | 11.63756 | 147° | 55km/h | 15203m | -7.8m/s | -59.2°C | 6.1% | 125.6hPa | 2.5V | 01:38:00 | 02:00:20 | 00:00:00 | |
| DO3MHA-12 | 2026-09-04 05:39:27 | 47.40905 | 11.63744 | 147° | 57km/h | 15210m | -7.5m/s | -59.2°C | 6.0% | 125.4hPa | 2.5V | 01:38:00 | 02:00:19 | 00:00:00 | |
| DO3MHA-11 | 2026-09-04 05:39:26 | 47.40917 | 11.63732 | 147° | 57km/h | 15218m | -7.8m/s | -59.1°C | 6.0% | 125.2hPa | 2.6V | 01:38:00 | 02:00:18 | 00:00:00 | |
| DF1GD-15 | 2026-09-04 05:39:25 | 47.40917 | 11.63732 | 148° | 58km/h | 15218m | -7.9m/s | -59.2°C | 2.4% | 125.3hPa | 2.6V | 01:38:00 | 00:00:00 | 00:00:00 | |
| OE5MMP-10 | 2026-09-04 05:39:23 | 47.40953 | 11.63696 | 147° | 55km/h | 15243m | -8.0m/s | -59.2°C | 5.9% | 124.7hPa | 2.6V | 01:38:00 | 02:00:15 | 00:00:00 | |
| DB0UT-7 | 2026-09-04 05:39:21 | 47.40977 | 11.63673 | 147° | 55km/h | 15260m | -7.8m/s | -59.2°C | 5.9% | 124.4hPa | 2.6V | 01:38:00 | 02:00:13 | 00:00:00 | |
| DO3MHA-12 | 2026-09-04 05:39:17 | 47.41022 | 11.63626 | 144° | 55km/h | 15292m | -7.8m/s | -59.3°C | 5.9% | 123.8hPa | 2.6V | 00:00:00 | 02:00:09 | 00:00:00 | |
| DO3MHA-11 | 2026-09-04 05:39:16 | 47.41033 | 11.63614 | 143° | 55km/h | 15300m | -8.3m/s | -59.3°C | 5.9% | 123.6hPa | 2.6V | 00:00:00 | 02:00:08 | 00:00:00 | |
| DL6DJ-15 | 2026-09-04 05:39:15 | 47.41044 | 11.63601 | 142° | 53km/h | 15308m | -7.8m/s | -59.4°C | 2.3% | 123.5hPa | 2.6V | 00:00:00 | 00:00:00 | 00:00:00 | |
| OE5DRO-10 | 2026-09-04 05:39:14 | 47.41055 | 11.63589 | 143° | 55km/h | 15316m | -7.8m/s | -59.4°C | 6.0% | 123.3hPa | 2.6V | 00:00:00 | 00:00:00 | 00:00:00 | |
| OE5MMP-10 | 2026-09-04 05:39:13 | 47.41066 | 11.63577 | 143° | 55km/h | 15323m | -7.6m/s | -59.4°C | 6.0% | 123.1hPa | 2.6V | 00:00:00 | 02:00:05 | 00:00:00 | |
| OE3JTB-15 | 2026-09-04 05:39:11 | 47.41087 | 11.63552 | 142° | 53km/h | 15340m | -7.7m/s | -59.5°C | 6.0% | 122.8hPa | 2.6V | 01:38:00 | 02:00:03 | 00:00:00 | |
| IN3HCDX | 2026-09-04 05:39:10 | 47.41087 | 11.63552 | 143° | 53km/h | 15340m | -7.8m/s | -59.5°C | 2.3% | 122.8hPa | 2.6V | 01:38:00 | 00:00:00 | 00:00:00 | |
| OE5WHR-10 | 2026-09-04 05:39:07 | 47.41130 | 11.63500 | 141° | 53km/h | 15372m | -7.7m/s | -59.3°C | 5.9% | 122.2hPa | 2.6V | 00:00:00 | 00:00:00 | 00:00:00 | |
| DO3MHA-11 | 2026-09-04 05:39:06 | 47.41141 | 11.63486 | 141° | 55km/h | 15380m | -8.4m/s | -59.3°C | 5.9% | 122.0hPa | 2.5V | 01:38:00 | 01:59:58 | 00:00:00 | |
| NBG1-10 | 2026-09-04 05:39:04 | 47.41163 | 11.63460 | 142° | 51km/h | 15397m | -8.5m/s | -59.2°C | 5.9% | 121.7hPa | 2.5V | 01:38:00 | 01:59:56 | 00:00:00 | |
| OE5MMP-10 | 2026-09-04 05:39:03 | 47.41175 | 11.63447 | 144° | 55km/h | 15405m | -7.9m/s | -59.2°C | 5.9% | 121.6hPa | 2.5V | 01:38:00 | 01:59:55 | 00:00:00 | |
| DO3MHA-12 | 2026-09-04 05:38:57 | 47.41245 | 11.63380 | 150° | 53km/h | 15454m | -7.9m/s | -59.4°C | 6.0% | 120.6hPa | 2.5V | 00:00:00 | 01:59:49 | 00:00:00 | |
| DO3MHA-11 | 2026-09-04 05:38:56 | 47.41257 | 11.63369 | 149° | 51km/h | 15463m | -8.5m/s | -59.5°C | 6.1% | 120.4hPa | 2.6V | 00:00:00 | 01:59:48 | 00:00:00 | |
| OE5DRO-10 | 2026-09-04 05:38:55 | 47.41268 | 11.63359 | 148° | 51km/h | 15471m | -8.0m/s | -59.5°C | 6.1% | 120.3hPa | 2.6V | 01:38:00 | 00:00:00 | 00:00:00 | |
| OE5MMP-10 | 2026-09-04 05:38:53 | 47.41290 | 11.63337 | 146° | 51km/h | 15487m | -8.1m/s | -59.5°C | 6.1% | 120.0hPa | 2.6V | 00:00:00 | 01:59:45 | 00:00:00 | |
| OE5DXL-15 | 2026-09-04 05:38:51 | 47.41312 | 11.63314 | 143° | 51km/h | 15503m | -8.3m/s | -59.4°C | 6.0% | 119.6hPa | 2.6V | 00:00:00 | 00:00:00 | 00:00:00 | |
| IN3HCDX | 2026-09-04 05:38:49 | 47.41323 | 11.63303 | 145° | 51km/h | 15512m | -7.9m/s | -59.5°C | 2.2% | 119.6hPa | 2.6V | 01:39:00 | 00:00:00 | 00:00:00 | |
| IW2NTF | 2026-09-04 05:38:48 | 47.41391 | 11.63220 | 139° | 49km/h | 15569m | -8.3m/s | 0°C | 0% | 0hPa | 2.6V | 00:00:00 | 01:59:35 | 00:00:00 | |
| DO3MHA-12 | 2026-09-04 05:38:47 | 47.41353 | 11.63267 | 141° | 49km/h | 15536m | -7.9m/s | -59.5°C | 6.0% | 119.0hPa | 2.6V | 01:38:00 | 01:59:39 | 00:00:00 | |
| OE5WHR-10 | 2026-09-04 05:38:46 | 47.41363 | 11.63256 | 141° | 49km/h | 15544m | -7.9m/s | -59.5°C | 6.0% | 118.9hPa | 2.6V | 01:38:00 | 00:00:00 | 00:00:00 | |
| DL6DJ-15 | 2026-09-04 05:38:44 | 47.41382 | 11.63232 | 139° | 47km/h | 15560m | -8.7m/s | -59.4°C | 2.2% | 118.6hPa | 2.6V | 00:00:00 | 00:00:00 | 00:00:00 | |
| OE5MMP-10 | 2026-09-04 05:38:43 | 47.41391 | 11.63220 | 140° | 49km/h | 15569m | -8.2m/s | -59.3°C | 5.9% | 118.4hPa | 2.6V | 01:39:00 | 01:59:35 | 00:00:00 | |
| OE3JTB-15 | 2026-09-04 05:38:42 | 47.41400 | 11.63208 | 140° | 51km/h | 15577m | -8.3m/s | -59.3°C | 6.0% | 118.2hPa | 2.6V | 00:00:00 | 00:00:00 | 00:00:00 | |
| DO3MHA-12 | 2026-09-04 05:38:37 | 47.41447 | 11.63147 | 138° | 51km/h | 15619m | -8.6m/s | -59.1°C | 5.8% | 117.5hPa | 2.6V | 00:00:00 | 01:59:29 | 00:00:00 | |
| DO3MHA-11 | 2026-09-04 05:38:36 | 47.41456 | 11.63135 | 138° | 51km/h | 15627m | -8.2m/s | -59.0°C | 5.8% | 117.3hPa | 2.6V | 00:00:00 | 01:59:28 | 00:00:00 | |
| OE5MMP-10 | 2026-09-04 05:38:32 | 47.41492 | 11.63084 | 137° | 51km/h | 15661m | -8.6m/s | -59.0°C | 5.7% | 116.6hPa | 2.6V | 00:00:00 | 01:59:24 | 00:00:00 | |
| NBG1-10 | 2026-09-04 05:38:31 | 47.41502 | 11.63071 | 137° | 55km/h | 15669m | -8.1m/s | -59.0°C | 5.7% | 116.5hPa | 2.6V | 00:00:00 | 01:59:23 | 00:00:00 | |
| DG1MFX-10 | 2026-09-04 05:38:30 | 47.41501 | 11.63071 | 137° | 51km/h | 15669m | -8.1m/s | -59.1°C | 2.1% | 116.6hPa | 2.6V | 01:39:00 | 00:00:00 | 00:00:00 | |
| DH7VM-15 | 2026-09-04 05:38:29 | 47.41511 | 11.63058 | 137° | 51km/h | 15678m | -8.3m/s | -59.1°C | 2.0% | 116.4hPa | 2.6V | 00:00:00 | 00:00:00 | 00:00:00 | |
| IN3IJJ | 2026-09-04 05:38:28 | 47.41520 | 11.63044 | 136° | 51km/h | 15686m | -8.7m/s | -59.1°C | 2.1% | 116.2hPa | 2.6V | 00:00:00 | 00:00:00 | 00:00:00 | |
| DO3MHA-12 | 2026-09-04 05:38:27 | 47.41539 | 11.63018 | 137° | 53km/h | 15703m | -7.9m/s | -59.2°C | 5.7% | 115.9hPa | 2.6V | 01:39:00 | 01:59:19 | 00:00:00 | |
| DO3MHA-11 | 2026-09-04 05:38:26 | 47.41549 | 11.63004 | 137° | 53km/h | 15711m | -8.6m/s | -59.3°C | 5.7% | 115.7hPa | 2.6V | 01:39:00 | 01:59:18 | 00:00:00 | |
| OE5WHR-10 | 2026-09-04 05:38:25 | 47.41558 | 11.62991 | 136° | 55km/h | 15720m | -8.3m/s | -59.4°C | 5.7% | 115.6hPa | 2.6V | 00:00:00 | 01:59:17 | 00:00:00 | |
| OE5MMP-10 | 2026-09-04 05:38:22 | 47.41586 | 11.62951 | 136° | 55km/h | 15745m | -8.2m/s | -59.5°C | 5.8% | 115.1hPa | 2.6V | 01:39:00 | 01:59:14 | 00:00:00 | |
| DB0UT-7 | 2026-09-04 05:38:21 | 47.41595 | 11.62938 | 136° | 53km/h | 15753m | -8.1m/s | -59.6°C | 5.8% | 115.0hPa | 2.6V | 01:39:00 | 01:59:13 | 00:00:00 | |
| IN3HCDX | 2026-09-04 05:38:18 | 47.41615 | 11.62910 | 138° | 55km/h | 15769m | -8.3m/s | -59.7°C | 2.1% | 114.7hPa | 2.6V | 01:39:00 | 00:00:00 | 00:00:00 | |
| DO3MHA-12 | 2026-09-04 05:38:17 | 47.41636 | 11.62881 | 137° | 58km/h | 15786m | -8.6m/s | -59.7°C | 5.8% | 114.4hPa | 2.6V | 00:00:00 | 01:59:09 | 00:00:00 | |
| DO3MHA-11 | 2026-09-04 05:38:16 | 47.41646 | 11.62867 | 138° | 58km/h | 15795m | -8.8m/s | -59.8°C | 5.9% | 114.2hPa | 2.6V | 00:00:00 | 01:59:08 | 00:00:00 | |
| DF1GD-15 | 2026-09-04 05:38:15 | 47.41646 | 11.62867 | 138° | 57km/h | 15795m | -8.8m/s | -59.8°C | 2.1% | 114.2hPa | 2.6V | 00:00:00 | 00:00:00 | 00:00:00 | |
| OE3JTB-15 | 2026-09-04 05:38:13 | 47.41679 | 11.62823 | 138° | 51km/h | 15821m | -8.2m/s | -59.9°C | 6.0% | 113.8hPa | 2.6V | 01:39:00 | 00:00:00 | 00:00:00 | |
| OE5MMP-10 | 2026-09-04 05:38:12 | 47.41690 | 11.62809 | 139° | 57km/h | 15829m | -8.4m/s | -59.9°C | 6.1% | 113.6hPa | 2.6V | 00:00:00 | 01:59:04 | 00:00:00 | |
| DG1MFX-10 | 2026-09-04 05:38:10 | 47.41701 | 11.62794 | 140° | 60km/h | 15838m | -8.7m/s | -60.0°C | 2.2% | 113.4hPa | 2.6V | 01:39:00 | 00:00:00 | 00:00:00 | |
| S52SK | 2026-09-04 05:38:08 | 47.41723 | 11.62767 | 143° | 57km/h | 15855m | -8.5m/s | -60.1°C | 2.1% | 113.2hPa | 2.6V | 00:00:00 | 00:00:00 | 00:00:00 | |
| DO3MHA-12 | 2026-09-04 05:38:07 | 47.41747 | 11.62742 | 144° | 53km/h | 15872m | -7.8m/s | -60.1°C | 6.2% | 112.8hPa | 2.6V | 01:39:00 | 01:58:59 | 00:00:00 | |
| DO3MHA-11 | 2026-09-04 05:38:06 | 47.41758 | 11.62730 | 145° | 53km/h | 15880m | -8.7m/s | -60.1°C | 6.3% | 112.7hPa | 2.6V | 01:39:00 | 01:58:58 | 00:00:00 | |
| OE5WHR-10 | 2026-09-04 05:38:04 | 47.41779 | 11.62706 | 143° | 47km/h | 15897m | -8.4m/s | -60.1°C | 6.2% | 112.4hPa | 2.6V | 01:39:00 | 00:00:00 | 00:00:00 | |
| S52SK | 2026-09-04 05:38:03 | 47.41779 | 11.62706 | 143° | 53km/h | 15897m | -8.4m/s | -60.2°C | 2.2% | 112.4hPa | 2.6V | 00:00:00 | 00:00:00 | 00:00:00 | |
| DB0ND-19 | 2026-09-04 05:37:45 | 47.41939 | 11.62466 | 131° | 44km/h | 16059m | -8.7m/s | -58.4°C | 1.8% | 109.5hPa | 2.6V | 00:00:00 | 00:00:00 | 00:00:00 | |
| OE3JTB-15 | 2026-09-04 05:37:44 | 47.41947 | 11.62454 | 134° | 49km/h | 16068m | -8.5m/s | -58.3°C | 5.3% | 109.3hPa | 2.6V | 00:00:00 | 01:58:36 | 00:00:00 | |
| BAUMI2-15 | 2026-09-04 05:37:43 | 47.41954 | 11.62442 | 133° | 47km/h | 16076m | -8.4m/s | -58.3°C | 5.3% | 109.2hPa | 2.6V | 01:40:00 | 01:58:35 | 00:00:00 | |
| DL6DJ-15 | 2026-09-04 05:37:42 | 47.41962 | 11.62429 | 131° | 46km/h | 16085m | -8.6m/s | -58.3°C | 1.7% | 109.1hPa | 2.6V | 00:00:00 | 00:00:00 | 00:00:00 | |
| OE5DRO-10 | 2026-09-04 05:37:39 | 47.41986 | 11.62390 | 131° | 53km/h | 16111m | -8.4m/s | -58.3°C | 5.3% | 108.5hPa | 2.6V | 01:40:00 | 00:00:00 | 00:00:00 | |
| BAUMI2-15 | 2026-09-04 05:37:38 | 47.41994 | 11.62376 | 130° | 51km/h | 16119m | -8.6m/s | -58.4°C | 5.3% | 108.4hPa | 2.7V | 00:00:00 | 01:58:30 | 00:00:00 | |
| DO3MHA-12 | 2026-09-04 05:37:37 | 47.42002 | 11.62361 | 129° | 53km/h | 16128m | -8.2m/s | -58.4°C | 5.3% | 108.3hPa | 2.7V | 00:00:00 | 01:58:29 | 00:00:00 | |
| OE5MMP-10 | 2026-09-04 05:37:36 | 47.42010 | 11.62347 | 127° | 53km/h | 16136m | -8.4m/s | -58.5°C | 5.3% | 108.1hPa | 2.7V | 01:40:00 | 01:58:28 | 00:00:00 | |
| DF1GD-15 | 2026-09-04 05:37:34 | 47.42018 | 11.62331 | 127° | 53km/h | 16145m | -9.0m/s | -58.6°C | 1.8% | 108.0hPa | 2.7V | 01:40:00 | 00:00:00 | 00:00:00 | |
| BAUMI2-15 | 2026-09-04 05:37:33 | 47.42034 | 11.62300 | 127° | 55km/h | 16163m | -8.3m/s | -58.7°C | 5.5% | 107.6hPa | 2.7V | 01:40:00 | 01:58:25 | 00:00:00 | |
| BAUMI2-15 | 2026-09-04 05:37:28 | 47.42077 | 11.62220 | 130° | 53km/h | 16205m | -8.4m/s | -58.6°C | 5.6% | 107.0hPa | 2.6V | 00:00:00 | 01:58:20 | 00:00:00 | |
| DO3MHA-12 | 2026-09-04 05:37:27 | 47.42086 | 11.62204 | 131° | 49km/h | 16214m | -8.4m/s | -58.6°C | 5.5% | 106.8hPa | 2.6V | 01:40:00 | 01:58:19 | 00:00:00 | |
| OE5MMP-10 | 2026-09-04 05:37:26 | 47.42095 | 11.62189 | 131° | 49km/h | 16222m | -8.4m/s | -58.5°C | 5.4% | 106.7hPa | 2.5V | 00:00:00 | 01:58:18 | 00:00:00 | |
| NBG1-10 | 2026-09-04 05:37:25 | 47.42103 | 11.62174 | 133° | 46km/h | 16231m | -8.6m/s | -58.5°C | 5.4% | 106.5hPa | 2.5V | 00:00:00 | 01:58:17 | 00:00:00 | |
| DH7VM-15 | 2026-09-04 05:37:23 | 47.42112 | 11.62160 | 134° | 51km/h | 16239m | -8.4m/s | -58.5°C | 1.7% | 106.4hPa | 2.5V | 01:40:00 | 00:00:00 | 00:00:00 | |
| OE5WHR-10 | 2026-09-04 05:37:22 | 47.42130 | 11.62132 | 135° | 46km/h | 16256m | -8.6m/s | -58.5°C | 5.4% | 106.1hPa | 2.5V | 01:40:00 | 01:58:14 | 00:00:00 | |
| OE5DXL-15 | 2026-09-04 05:37:21 | 47.42139 | 11.62120 | 138° | 46km/h | 16265m | -8.4m/s | -58.5°C | 5.5% | 105.9hPa | 2.5V | 01:40:00 | 00:00:00 | 00:00:00 | |
| OE5DRO-10 | 2026-09-04 05:37:20 | 47.42148 | 11.62108 | 138° | 44km/h | 16273m | -8.3m/s | -58.5°C | 5.4% | 105.9hPa | 2.5V | 00:00:00 | 00:00:00 | 00:00:00 | |
| DO3MHA-12 | 2026-09-04 05:37:17 | 47.42174 | 11.62074 | 139° | 44km/h | 16298m | -8.8m/s | -58.3°C | 5.3% | 105.4hPa | 2.5V | 00:00:00 | 01:58:09 | 00:00:00 | |
| OE5MMP-10 | 2026-09-04 05:37:16 | 47.42182 | 11.62063 | 137° | 44km/h | 16307m | -8.4m/s | -58.3°C | 5.3% | 105.2hPa | 2.5V | 01:40:00 | 01:58:08 | 00:00:00 | |
| OE3JTB-15 | 2026-09-04 05:37:15 | 47.42190 | 11.62052 | 138° | 46km/h | 16316m | -8.0m/s | -58.2°C | 5.2% | 105.1hPa | 2.6V | 01:40:00 | 00:00:00 | 00:00:00 | |
| DB0ND-19 | 2026-09-04 05:37:14 | 47.42197 | 11.62041 | 134° | 40km/h | 16324m | -8.5m/s | -58.2°C | 1.7% | 105.0hPa | 2.6V | 00:00:00 | 00:00:00 | 00:00:00 | |
| BAUMI2-15 | 2026-09-04 05:37:12 | 47.42211 | 11.62019 | 133° | 44km/h | 16341m | -8.2m/s | -58.1°C | 5.3% | 104.7hPa | 2.6V | 01:40:00 | 01:58:04 | 00:00:00 | |
| DL6DJ-15 | 2026-09-04 05:37:11 | 47.42218 | 11.62008 | 132° | 40km/h | 16349m | -8.5m/s | -58.0°C | 1.7% | 104.6hPa | 2.6V | 00:00:00 | 00:00:00 | 00:00:00 | |
| DO8TBO-1 | 2026-09-04 05:37:09 | 47.42250 | 11.61960 | 136° | 24km/h | 16383m | -8.9m/s | -57.6°C | 5.0% | 104.0hPa | 2.6V | 00:00:00 | 01:57:59 | 00:00:00 | |
| DO3MHA-12 | 2026-09-04 05:37:07 | 47.42250 | 11.61960 | 136° | 46km/h | 16383m | -8.9m/s | -57.6°C | 5.0% | 104.0hPa | 2.6V | 01:40:00 | 01:57:59 | 00:00:00 | |
| DO3MHA-11 | 2026-09-04 05:37:06 | 47.42258 | 11.61947 | 136° | 46km/h | 16392m | -8.5m/s | -57.7°C | 5.0% | 103.8hPa | 2.6V | 01:40:00 | 01:57:58 | 00:00:00 | |
| BAUMI2-15 | 2026-09-04 05:37:02 | 47.42291 | 11.61900 | 134° | 46km/h | 16425m | -8.5m/s | -57.8°C | 5.1% | 103.3hPa | 2.6V | 01:40:00 | 01:57:54 | 00:00:00 | |
| DB0NH | 2026-09-04 05:37:01 | 47.42299 | 11.61888 | 132° | 35km/h | 16433m | -8.5m/s | -57.8°C | 5.1% | 103.1hPa | 2.6V | 00:00:00 | 01:57:53 | 00:00:00 | |
| DO3MHA-12 | 2026-09-04 05:36:57 | 47.42328 | 11.61834 | 126° | 47km/h | 16467m | -8.7m/s | -57.7°C | 5.1% | 102.6hPa | 2.6V | 00:00:00 | 01:57:49 | 00:00:00 | |
| OE5MMP-10 | 2026-09-04 05:36:56 | 47.42336 | 11.61819 | 127° | 47km/h | 16476m | -8.3m/s | -57.6°C | 5.1% | 102.4hPa | 2.6V | 01:40:00 | 01:57:48 | 00:00:00 | |
| IN3HCDX | 2026-09-04 05:36:55 | 47.42336 | 11.61819 | 128° | 49km/h | 16476m | -8.4m/s | -57.7°C | 1.6% | 102.5hPa | 2.6V | 01:41:00 | 00:00:00 | 00:00:00 | |
| BAUMI2-15 | 2026-09-04 05:36:52 | 47.42366 | 11.61760 | 130° | 47km/h | 16510m | -8.3m/s | -57.4°C | 5.0% | 101.9hPa | 2.6V | 01:40:00 | 01:57:44 | 00:00:00 | |
| DB0UT-7 | 2026-09-04 05:36:51 | 47.42374 | 11.61747 | 131° | 31km/h | 16519m | -8.1m/s | -57.3°C | 5.0% | 101.8hPa | 2.6V | 00:00:00 | 00:00:00 | 00:00:00 | |
| DO3MHA-12 | 2026-09-04 05:36:47 | 47.42405 | 11.61697 | 137° | 38km/h | 16552m | -8.1m/s | -57.4°C | 5.0% | 101.2hPa | 2.6V | 01:40:00 | 01:57:39 | 00:00:00 | |
| DO3MHA-11 | 2026-09-04 05:36:46 | 47.42413 | 11.61686 | 136° | 37km/h | 16560m | -8.6m/s | -57.4°C | 5.0% | 101.1hPa | 2.6V | 01:40:00 | 01:57:38 | 00:00:00 | |
| DB0ND-19 | 2026-09-04 05:36:43 | 47.42436 | 11.61655 | 140° | 38km/h | 16586m | -8.6m/s | -57.2°C | 1.5% | 100.8hPa | 2.6V | 00:00:00 | 00:00:00 | 00:00:00 | |
| BAUMI2-15 | 2026-09-04 05:36:42 | 47.42443 | 11.61646 | 141° | 35km/h | 16594m | -8.8m/s | -57.0°C | 4.8% | 100.5hPa | 2.6V | 01:41:00 | 01:57:34 | 00:00:00 | |
| DG1MJG | 2026-09-04 05:36:41 | 47.42443 | 11.61646 | 142° | 38km/h | 16594m | -8.9m/s | -57.0°C | 1.5% | 100.6hPa | 2.6V | 01:41:00 | 00:00:00 | 00:00:00 | |
| DL6DJ-15 | 2026-09-04 05:36:40 | 47.42464 | 11.61621 | 140° | 33km/h | 16621m | -8.7m/s | -56.9°C | 1.4% | 100.2hPa | 2.6V | 00:00:00 | 00:00:00 | 00:00:00 | |
| DO3MHA-12 | 2026-09-04 05:36:37 | 47.42476 | 11.61606 | 139° | 26km/h | 16638m | -8.6m/s | -56.7°C | 4.8% | 99.9hPa | 2.6V | 00:00:00 | 01:57:29 | 00:00:00 | |
| OE5MMP-10 | 2026-09-04 05:36:36 | 47.42482 | 11.61598 | 137° | 26km/h | 16647m | -8.6m/s | -56.6°C | 4.7% | 99.7hPa | 2.6V | 01:41:00 | 01:57:28 | 00:00:00 | |
| IN3HCDX | 2026-09-04 05:36:34 | 47.42487 | 11.61590 | 139° | 29km/h | 16656m | -8.5m/s | -56.6°C | 1.4% | 99.6hPa | 2.6V | 01:41:00 | 00:00:00 | 00:00:00 | |
| DF1GD-15 | 2026-09-04 05:36:33 | 47.42492 | 11.61583 | 137° | 27km/h | 16665m | -9.0m/s | -56.5°C | 1.4% | 99.5hPa | 2.6V | 01:41:00 | 00:00:00 | 00:00:00 | |
| BAUMI2-15 | 2026-09-04 05:36:32 | 47.42502 | 11.61570 | 138° | 24km/h | 16683m | -8.3m/s | -56.3°C | 4.6% | 99.2hPa | 2.6V | 01:41:00 | 01:57:24 | 00:00:00 | |
| DO3MHA-12 | 2026-09-04 05:36:27 | 47.42524 | 11.61540 | 135° | 20km/h | 16727m | -8.9m/s | -56.2°C | 4.5% | 98.5hPa | 2.6V | 01:41:00 | 01:57:19 | 00:00:00 | |
| DO3MHA-11 | 2026-09-04 05:36:26 | 47.42527 | 11.61534 | 131° | 18km/h | 16736m | -9.0m/s | -56.2°C | 4.4% | 98.3hPa | 2.6V | 01:41:00 | 01:57:18 | 00:00:00 | |
| DF7PN | 2026-09-04 05:36:25 | 47.42538 | 11.61517 | 130° | 18km/h | 16763m | -9.2m/s | -56.3°C | 1.4% | 98.0hPa | 2.6V | 00:00:00 | 00:00:00 | 00:00:00 | |
| OE5DRO-10 | 2026-09-04 05:36:23 | 47.42538 | 11.61517 | 131° | 18km/h | 16763m | -9.1m/s | -56.3°C | 4.5% | 98.0hPa | 2.6V | 01:41:00 | 00:00:00 | 00:00:00 | |
| BAUMI2-15 | 2026-09-04 05:36:22 | 47.42540 | 11.61511 | 128° | 18km/h | 16772m | -8.7m/s | -56.3°C | 4.5% | 97.8hPa | 2.6V | 01:41:00 | 01:57:14 | 00:00:00 | |
| OE5DXL-15 | 2026-09-04 05:36:21 | 47.42543 | 11.61506 | 126° | 20km/h | 16781m | -9.0m/s | -56.4°C | 4.5% | 97.6hPa | 2.6V | 01:41:00 | 00:00:00 | 00:00:00 | |
| OE5WHR-10 | 2026-09-04 05:36:19 | 47.42548 | 11.61495 | 125° | 18km/h | 16799m | -9.6m/s | -56.5°C | 4.5% | 97.4hPa | 2.7V | 00:00:00 | 01:57:11 | 00:00:00 | |
| DO3MHA-12 | 2026-09-04 05:36:17 | 47.42553 | 11.61484 | 120° | 16km/h | 16818m | -9.1m/s | -56.6°C | 4.5% | 97.0hPa | 2.7V | 00:00:00 | 01:57:09 | 00:00:00 | |
| OE5MMP-10 | 2026-09-04 05:36:16 | 47.42555 | 11.61478 | 116° | 16km/h | 16827m | -9.0m/s | -56.7°C | 4.5% | 96.9hPa | 2.7V | 01:41:00 | 01:57:08 | 00:00:00 | |
| DF1GD-15 | 2026-09-04 05:36:13 | 47.42558 | 11.61467 | 112° | 16km/h | 16845m | -8.9m/s | -56.9°C | 1.4% | 96.7hPa | 2.6V | 01:42:00 | 00:00:00 | 00:00:00 | |
| BAUMI2-15 | 2026-09-04 05:36:12 | 47.42561 | 11.61456 | 107° | 16km/h | 16864m | -9.6m/s | -57.0°C | 4.6% | 96.4hPa | 2.6V | 01:41:00 | 01:57:04 | 00:00:00 | |
| DG1MJG | 2026-09-04 05:36:10 | 47.42562 | 11.61449 | 104° | 16km/h | 16873m | -9.3m/s | -57.1°C | 1.4% | 96.3hPa | 2.6V | 01:42:00 | 00:00:00 | 00:00:00 | |
| DL6DJ-15 | 2026-09-04 05:36:09 | 47.42565 | 11.61431 | 92° | 16km/h | 16900m | -9.1m/s | -57.3°C | 1.4% | 95.8hPa | 2.6V | 00:00:00 | 00:00:00 | 00:00:00 | |
| DO3MHA-12 | 2026-09-04 05:36:07 | 47.42565 | 11.61425 | 93° | 20km/h | 16909m | -9.2m/s | -57.3°C | 4.7% | 95.7hPa | 2.6V | 01:41:00 | 01:56:59 | 00:00:00 | |
| OE5MMP-10 | 2026-09-04 05:36:06 | 47.42565 | 11.61418 | 90° | 20km/h | 16918m | -9.3m/s | -57.4°C | 4.7% | 95.5hPa | 2.6V | 00:00:00 | 01:56:58 | 00:00:00 | |
| DG1MFX-10 | 2026-09-04 05:36:05 | 47.42565 | 11.61418 | 91° | 18km/h | 16918m | -9.3m/s | -57.4°C | 1.5% | 95.5hPa | 2.6V | 01:42:00 | 00:00:00 | 00:00:00 | |
| OE5DRO-10 | 2026-09-04 05:36:04 | 47.42564 | 11.61404 | 89° | 24km/h | 16937m | -8.8m/s | -57.5°C | 4.7% | 95.2hPa | 2.6V | 00:00:00 | 00:00:00 | 00:00:00 | |
| DF7PN | 2026-09-04 05:35:54 | 47.42559 | 11.61325 | 80° | 22km/h | 17029m | -9.6m/s | -58.3°C | 1.5% | 93.9hPa | 2.6V | 00:00:00 | 00:00:00 | 00:00:00 | |
| S52SK | 2026-09-04 05:35:53 | 47.42559 | 11.61325 | 82° | 24km/h | 17029m | -9.6m/s | -58.3°C | 1.5% | 93.9hPa | 2.6V | 00:00:00 | 00:00:00 | 00:00:00 | |
| DF1GD-15 | 2026-09-04 05:35:52 | 47.42558 | 11.61316 | 80° | 22km/h | 17039m | -9.6m/s | -58.3°C | 1.5% | 93.8hPa | 2.6V | 01:42:00 | 00:00:00 | 00:00:00 | |
| DB0UT-7 | 2026-09-04 05:35:51 | 47.42556 | 11.61299 | 75° | 26km/h | 17058m | -9.2m/s | -58.5°C | 5.0% | 93.5hPa | 2.6V | 00:00:00 | 00:00:00 | 00:00:00 | |
| OE3JTB-15 | 2026-09-04 05:35:48 | 47.42550 | 11.61270 | 76° | 26km/h | 17086m | -9.8m/s | -58.7°C | 5.0% | 93.0hPa | 2.6V | 00:00:00 | 00:00:00 | 00:00:00 | |
| DO3MHA-12 | 2026-09-04 05:35:47 | 47.42548 | 11.61260 | 76° | 27km/h | 17096m | -8.9m/s | -58.8°C | 5.0% | 92.9hPa | 2.7V | 01:41:00 | 01:56:39 | 00:00:00 | |
| DO3MHA-11 | 2026-09-04 05:35:46 | 47.42547 | 11.61250 | 77° | 27km/h | 17105m | -9.3m/s | -58.9°C | 5.0% | 92.8hPa | 2.7V | 01:41:00 | 01:56:38 | 00:00:00 | |
| OE5DRO-10 | 2026-09-04 05:35:45 | 47.42545 | 11.61240 | 79° | 26km/h | 17114m | -9.0m/s | -59.0°C | 5.1% | 92.6hPa | 2.7V | 01:42:00 | 00:00:00 | 00:00:00 | |
| OM5KV | 2026-09-04 05:35:44 | 47.42545 | 11.61240 | 79° | 29km/h | 17114m | -9.1m/s | -59.0°C | 1.6% | 92.7hPa | 2.6V | 00:00:00 | 00:00:00 | 00:00:00 | |
| OM5KV | 2026-09-04 05:35:42 | 47.42542 | 11.61219 | 84° | 29km/h | 17133m | -9.5m/s | -59.2°C | 1.5% | 92.4hPa | 2.6V | 00:00:00 | 00:00:00 | 00:00:00 | |
| DG1MJG | 2026-09-04 05:35:40 | 47.42541 | 11.61198 | 85° | 27km/h | 17152m | -9.5m/s | -59.3°C | 1.6% | 92.1hPa | 2.6V | 01:42:00 | 00:00:00 | 00:00:00 | |
| DL6DJ-15 | 2026-09-04 05:35:38 | 47.42540 | 11.61159 | 92° | 24km/h | 17190m | -9.2m/s | -59.4°C | 1.6% | 91.6hPa | 2.6V | 00:00:00 | 00:00:00 | 00:00:00 | |
| DO3MHA-12 | 2026-09-04 05:35:37 | 47.42540 | 11.61159 | 93° | 24km/h | 17190m | -9.2m/s | -59.4°C | 5.2% | 91.5hPa | 2.6V | 00:00:00 | 01:56:29 | 00:00:00 | |
| OE5MMP-10 | 2026-09-04 05:35:36 | 47.42541 | 11.61149 | 97° | 24km/h | 17200m | -9.8m/s | -59.4°C | 5.2% | 91.4hPa | 2.6V | 01:42:00 | 01:56:28 | 00:00:00 | |
| OM5KV | 2026-09-04 05:35:35 | 47.42541 | 11.61149 | 98° | 26km/h | 17200m | -9.8m/s | -59.4°C | 1.5% | 91.4hPa | 2.6V | 00:00:00 | 00:00:00 | 00:00:00 | |
| OM5KV | 2026-09-04 05:35:32 | 47.42544 | 11.61122 | 103° | 24km/h | 17228m | -9.7m/s | -59.5°C | 1.5% | 91.0hPa | 2.6V | 00:00:00 | 00:00:00 | 00:00:00 | |
| DF1GD-15 | 2026-09-04 05:35:31 | 47.42545 | 11.61114 | 104° | 24km/h | 17238m | -10.0m/s | -59.5°C | 1.6% | 90.8hPa | 2.6V | 01:43:00 | 00:00:00 | 00:00:00 | |
| OM5KV | 2026-09-04 05:35:30 | 47.42547 | 11.61105 | 106° | 26km/h | 17248m | -10.0m/s | -59.5°C | 1.5% | 90.7hPa | 2.6V | 00:00:00 | 00:00:00 | 00:00:00 | |
| OM5KV | 2026-09-04 05:35:28 | 47.42550 | 11.61088 | 108° | 24km/h | 17268m | -10.0m/s | -59.6°C | 1.5% | 90.4hPa | 2.6V | 00:00:00 | 00:00:00 | 00:00:00 | |
| DO3MHA-12 | 2026-09-04 05:35:27 | 47.42555 | 11.61071 | 112° | 26km/h | 17287m | -9.9m/s | -59.7°C | 5.1% | 90.1hPa | 2.6V | 01:42:00 | 01:56:19 | 00:00:00 | |
| OE5MMP-10 | 2026-09-04 05:35:26 | 47.42557 | 11.61062 | 112° | 26km/h | 17297m | -10.0m/s | -59.7°C | 5.1% | 90.0hPa | 2.6V | 00:00:00 | 01:56:18 | 00:00:00 | |
| DG1MFX-10 | 2026-09-04 05:35:24 | 47.42559 | 11.61054 | 119° | 24km/h | 17307m | -10.0m/s | -59.9°C | 1.6% | 89.8hPa | 2.6V | 01:43:00 | 00:00:00 | 00:00:00 | |
| DF7PN | 2026-09-04 05:35:23 | 47.42566 | 11.61037 | 121° | 26km/h | 17326m | -9.8m/s | -60.0°C | 1.5% | 89.6hPa | 2.6V | 00:00:00 | 00:00:00 | 00:00:00 | |
| OE5DXL-15 | 2026-09-04 05:35:21 | 47.42573 | 11.61020 | 127° | 31km/h | 17346m | -9.9m/s | -60.1°C | 5.3% | 89.3hPa | 2.6V | 01:42:00 | 00:00:00 | 00:00:00 | |
| OE3JTB-15 | 2026-09-04 05:35:19 | 47.42582 | 11.61004 | 129° | 33km/h | 17365m | -9.6m/s | -60.2°C | 5.3% | 89.0hPa | 2.6V | 01:42:00 | 00:00:00 | 00:00:00 | |
| DO3MHA-12 | 2026-09-04 05:35:17 | 47.42590 | 11.60989 | 129° | 26km/h | 17385m | -9.6m/s | -60.4°C | 5.4% | 88.7hPa | 2.6V | 00:00:00 | 01:56:09 | 00:00:00 | |
| OE5MMP-10 | 2026-09-04 05:35:16 | 47.42594 | 11.60981 | 129° | 26km/h | 17395m | -9.6m/s | -60.4°C | 5.5% | 88.6hPa | 2.6V | 01:42:00 | 01:56:08 | 00:00:00 | |
| NBG1-10 | 2026-09-04 05:35:13 | 47.42606 | 11.60961 | 130° | 35km/h | 17424m | -9.5m/s | -60.5°C | 5.5% | 88.1hPa | 2.6V | 00:00:00 | 01:56:05 | 00:00:00 | |
| DF1GD-15 | 2026-09-04 05:35:10 | 47.42614 | 11.60946 | 129° | 24km/h | 17443m | -9.3m/s | -60.4°C | 1.6% | 87.9hPa | 2.6V | 01:43:00 | 00:00:00 | 00:00:00 | |
| DG1MJG | 2026-09-04 05:35:09 | 47.42617 | 11.60939 | 124° | 24km/h | 17453m | -10.1m/s | -60.4°C | 1.5% | 87.8hPa | 2.6V | 01:43:00 | 00:00:00 | 00:00:00 | |
| DL6DJ-15 | 2026-09-04 05:35:07 | 47.42629 | 11.60906 | 113° | 26km/h | 17492m | -9.7m/s | -60.6°C | 1.5% | 87.2hPa | 2.6V | 00:00:00 | 00:00:00 | 00:00:00 | |
| DO3MHA-11 | 2026-09-04 05:35:06 | 47.42629 | 11.60906 | 114° | 35km/h | 17492m | -9.7m/s | -60.5°C | 5.5% | 87.2hPa | 2.6V | 01:42:00 | 01:55:58 | 00:00:00 | |
| DG1MFX-10 | 2026-09-04 05:35:04 | 47.42632 | 11.60896 | 112° | 29km/h | 17502m | -9.9m/s | -60.6°C | 1.6% | 87.1hPa | 2.6V | 01:43:00 | 00:00:00 | 00:00:00 | |
| DF7PN | 2026-09-04 05:34:52 | 47.42659 | 11.60712 | 108° | 40km/h | 17631m | -9.9m/s | -60.2°C | 1.5% | 85.3hPa | 2.6V | 00:00:00 | 00:00:00 | 00:00:00 | |
| OE5DXL-15 | 2026-09-04 05:34:51 | 47.42662 | 11.60698 | 110° | 37km/h | 17641m | -10.1m/s | -60.0°C | 5.4% | 85.1hPa | 2.6V | 00:00:00 | 00:00:00 | 00:00:00 | |
| OE3JTB-15 | 2026-09-04 05:34:50 | 47.42666 | 11.60684 | 112° | 37km/h | 17651m | -10.4m/s | -59.8°C | 5.3% | 85.0hPa | 2.7V | 00:00:00 | 01:55:42 | 00:00:00 | |
| IN3HCDX | 2026-09-04 05:34:49 | 47.42666 | 11.60684 | 112° | 40km/h | 17651m | -10.4m/s | -59.9°C | 1.4% | 85.0hPa | 2.7V | 01:43:00 | 00:00:00 | 00:00:00 | |
| OE5DRO-10 | 2026-09-04 05:34:48 | 47.42674 | 11.60657 | 114° | 37km/h | 17671m | -10.7m/s | -59.5°C | 5.2% | 84.7hPa | 2.7V | 00:00:00 | 00:00:00 | 00:00:00 | |
| DO3MHA-12 | 2026-09-04 05:34:47 | 47.42677 | 11.60644 | 114° | 38km/h | 17682m | -10.2m/s | -59.5°C | 5.2% | 84.5hPa | 2.6V | 01:42:00 | 01:55:39 | 00:00:00 | |
| OE5MMP-10 | 2026-09-04 05:34:46 | 47.42681 | 11.60631 | 116° | 38km/h | 17692m | -9.9m/s | -59.5°C | 5.2% | 84.4hPa | 2.6V | 00:00:00 | 01:55:38 | 00:00:00 | |
| DG1MFX-10 | 2026-09-04 05:34:44 | 47.42685 | 11.60619 | 115° | 37km/h | 17702m | -10.3m/s | -59.6°C | 1.4% | 84.3hPa | 2.6V | 01:43:00 | 00:00:00 | 00:00:00 | |
| NBG1-10 | 2026-09-04 05:34:40 | 47.42708 | 11.60559 | 128° | 40km/h | 17753m | -10.4m/s | -59.5°C | 5.2% | 83.6hPa | 2.6V | 01:43:00 | 01:55:32 | 00:00:00 | |
| DB0ND-19 | 2026-09-04 05:34:39 | 47.42715 | 11.60548 | 131° | 38km/h | 17763m | -10.0m/s | -59.5°C | 1.4% | 83.5hPa | 2.6V | 00:00:00 | 00:00:00 | 00:00:00 | |
| S52SK | 2026-09-04 05:34:38 | 47.42715 | 11.60548 | 132° | 38km/h | 17763m | -10.0m/s | -59.5°C | 1.4% | 83.5hPa | 2.6V | 00:00:00 | 00:00:00 | 00:00:00 | |
| DO3MHA-12 | 2026-09-04 05:34:37 | 47.42728 | 11.60527 | 135° | 35km/h | 17784m | -10.6m/s | -59.4°C | 5.1% | 83.2hPa | 2.6V | 00:00:00 | 01:55:29 | 00:00:00 | |
| OE5MMP-10 | 2026-09-04 05:34:36 | 47.42734 | 11.60518 | 135° | 35km/h | 17795m | -10.4m/s | -59.3°C | 5.1% | 83.1hPa | 2.6V | 01:43:00 | 01:55:28 | 00:00:00 | |
| DL6DJ-15 | 2026-09-04 05:34:35 | 47.42741 | 11.60508 | 134° | 35km/h | 17805m | -10.8m/s | -59.2°C | 1.3% | 83.0hPa | 2.6V | 00:00:00 | 00:00:00 | 00:00:00 | |
| OE5WHR-10 | 2026-09-04 05:34:34 | 47.42747 | 11.60499 | 134° | 37km/h | 17816m | -10.4m/s | -59.1°C | 4.9% | 82.8hPa | 2.6V | 01:43:00 | 00:00:00 | 00:00:00 | |
| S52SK | 2026-09-04 05:34:32 | 47.42752 | 11.60490 | 135° | 35km/h | 17826m | -10.0m/s | -59.0°C | 1.3% | 82.7hPa | 2.6V | 00:00:00 | 00:00:00 | 00:00:00 | |
| DK5PH-5 | 2026-09-04 05:34:31 | 47.42764 | 11.60470 | 129° | 42km/h | 17848m | -10.7m/s | -59.0°C | 4.9% | 82.3hPa | 2.6V | 00:00:00 | 01:55:23 | 00:00:00 | |
| OE5DRO-10 | 2026-09-04 05:34:29 | 47.42774 | 11.60451 | 126° | 40km/h | 17869m | -10.6m/s | -59.0°C | 5.0% | 82.1hPa | 2.7V | 01:43:00 | 00:00:00 | 00:00:00 | |
| IN3HCDX | 2026-09-04 05:34:28 | 47.42774 | 11.60451 | 127° | 35km/h | 17869m | -10.7m/s | -59.1°C | 1.3% | 82.1hPa | 2.7V | 00:00:00 | 00:00:00 | 00:00:00 | |
| DO3MHA-12 | 2026-09-04 05:34:27 | 47.42784 | 11.60430 | 123° | 37km/h | 17890m | -10.1m/s | -59.0°C | 4.9% | 81.8hPa | 2.7V | 01:43:00 | 01:55:19 | 00:00:00 | |
| DO3MHA-11 | 2026-09-04 05:34:26 | 47.42788 | 11.60420 | 123° | 38km/h | 17901m | -9.8m/s | -58.9°C | 4.9% | 81.7hPa | 2.7V | 01:43:00 | 01:55:18 | 00:00:00 | |
| DG1MFX-10 | 2026-09-04 05:34:24 | 47.42793 | 11.60408 | 121° | 37km/h | 17911m | -10.8m/s | -58.8°C | 1.3% | 81.6hPa | 2.7V | 00:00:00 | 00:00:00 | 00:00:00 | |
| OE5DXL-15 | 2026-09-04 05:34:21 | 47.42811 | 11.60360 | 120° | 47km/h | 17953m | -10.3m/s | -58.6°C | 4.8% | 81.0hPa | 2.7V | 01:43:00 | 00:00:00 | 00:00:00 | |
| DO3MHA-12 | 2026-09-04 05:34:17 | 47.42829 | 11.60309 | 115° | 49km/h | 17996m | -10.5m/s | -58.9°C | 4.9% | 80.4hPa | 2.7V | 00:00:00 | 01:55:09 | 00:00:00 | |
| OE5MMP-10 | 2026-09-04 05:34:16 | 47.42833 | 11.60294 | 113° | 51km/h | 18006m | -10.1m/s | -58.9°C | 4.9% | 80.3hPa | 2.7V | 01:43:00 | 01:55:08 | 00:00:00 | |
| OE5WHR-10 | 2026-09-04 05:34:13 | 47.42846 | 11.60245 | 114° | 51km/h | 18038m | -10.6m/s | -58.9°C | 4.9% | 79.9hPa | 2.7V | 00:00:00 | 01:55:05 | 00:00:00 | |
| OE5DRO-10 | 2026-09-04 05:34:10 | 47.42864 | 11.60192 | 120° | 49km/h | 18070m | -10.1m/s | -58.8°C | 4.9% | 79.5hPa | 2.7V | 00:00:00 | 00:00:00 | 00:00:00 | |
| DB0ND-19 | 2026-09-04 05:34:08 | 47.42879 | 11.60157 | 122° | 53km/h | 18091m | -10.6m/s | -58.8°C | 1.2% | 79.2hPa | 2.7V | 00:00:00 | 00:00:00 | 00:00:00 | |
| DO3MHA-12 | 2026-09-04 05:34:07 | 47.42886 | 11.60140 | 123° | 51km/h | 18102m | -10.2m/s | -58.8°C | 5.0% | 79.1hPa | 2.7V | 01:43:00 | 01:54:59 | 00:00:00 | |
| OE5MMP-10 | 2026-09-04 05:34:06 | 47.42893 | 11.60124 | 124° | 49km/h | 18112m | -10.4m/s | -58.8°C | 5.0% | 79.0hPa | 2.7V | 00:00:00 | 01:54:58 | 00:00:00 | |
| DG1MFX-10 | 2026-09-04 05:34:04 | 47.42900 | 11.60108 | 124° | 51km/h | 18122m | -10.2m/s | -58.9°C | 1.3% | 78.9hPa | 2.7V | 00:00:00 | 00:00:00 | 00:00:00 | |
| DF7PN | 2026-09-04 05:33:50 | 47.43035 | 11.59924 | 154° | 35km/h | 18295m | -10.8m/s | -57.9°C | 1.1% | 76.8hPa | 2.7V | 00:00:00 | 00:00:00 | 00:00:00 | |
| DO3MHA-12 | 2026-09-04 05:33:47 | 47.43049 | 11.59914 | 154° | 31km/h | 18318m | -10.5m/s | -57.8°C | 4.6% | 76.4hPa | 2.7V | 01:43:00 | 01:54:39 | 00:00:00 | |
| DO3MHA-11 | 2026-09-04 05:33:46 | 47.43056 | 11.59909 | 153° | 31km/h | 18328m | -10.3m/s | -57.7°C | 4.6% | 76.3hPa | 2.7V | 01:43:00 | 01:54:38 | 00:00:00 | |
| BAUMI2-15 | 2026-09-04 05:33:42 | 47.43081 | 11.59888 | 154° | 31km/h | 18372m | -10.9m/s | -57.3°C | 4.4% | 0hPa | 2.7V | 01:44:00 | 01:54:34 | 00:00:00 | |
| DG1MFX-10 | 2026-09-04 05:33:40 | 47.43088 | 11.59884 | 157° | 31km/h | 18382m | -10.6m/s | -57.4°C | 1.1% | 75.7hPa | 2.7V | 01:44:00 | 00:00:00 | 00:00:00 | |
| DG1MJG | 2026-09-04 05:33:38 | 47.43103 | 11.59875 | 162° | 31km/h | 18404m | -11.1m/s | -57.3°C | 1.0% | 75.4hPa | 2.7V | 01:44:00 | 00:00:00 | 00:00:00 | |
| DO3MHA-12 | 2026-09-04 05:33:37 | 47.43118 | 11.59868 | 166° | 27km/h | 18426m | -11.2m/s | -57.3°C | 4.5% | 75.1hPa | 2.7V | 00:00:00 | 01:54:29 | 00:00:00 | |
| OE5MMP-10 | 2026-09-04 05:33:36 | 47.43125 | 11.59865 | 166° | 27km/h | 18438m | -10.8m/s | -57.4°C | 4.5% | 75.0hPa | 2.7V | 01:44:00 | 01:54:28 | 00:00:00 | |
| OM5KV | 2026-09-04 05:33:35 | 47.43125 | 11.59865 | 167° | 26km/h | 18438m | -10.8m/s | -57.4°C | 1.1% | 75.0hPa | 2.7V | 00:00:00 | 00:00:00 | 00:00:00 | |
| NBG1-10 | 2026-09-04 05:33:34 | 47.43136 | 11.59860 | 160° | 27km/h | 18460m | -11.4m/s | -57.4°C | 4.6% | 74.7hPa | 2.7V | 01:44:00 | 01:54:26 | 00:00:00 | |
| DL6DJ-15 | 2026-09-04 05:33:33 | 47.43142 | 11.59857 | 157° | 22km/h | 18471m | -10.8m/s | -57.4°C | 1.1% | 74.6hPa | 2.7V | 00:00:00 | 00:00:00 | 00:00:00 | |
| BAUMI2-15 | 2026-09-04 05:33:32 | 47.43147 | 11.59853 | 149° | 29km/h | 18482m | -11.4m/s | -57.2°C | 4.6% | 74.5hPa | 2.7V | 01:44:00 | 01:54:24 | 00:00:00 | |
| OE5WHR-10 | 2026-09-04 05:33:31 | 47.43152 | 11.59848 | 145° | 31km/h | 18493m | -11.1m/s | -57.2°C | 4.6% | 74.3hPa | 2.7V | 00:00:00 | 00:00:00 | 00:00:00 | |
| DK5PH-5 | 2026-09-04 05:33:30 | 47.43158 | 11.59842 | 143° | 29km/h | 18505m | -11.3m/s | -57.3°C | 4.7% | 74.2hPa | 2.7V | 00:00:00 | 01:54:22 | 00:00:00 | |
| S52SK | 2026-09-04 05:33:28 | 47.43163 | 11.59836 | 142° | 31km/h | 18516m | -10.9m/s | -57.4°C | 1.1% | 74.1hPa | 2.7V | 00:00:00 | 00:00:00 | 00:00:00 | |
| DO3MHA-12 | 2026-09-04 05:33:27 | 47.43177 | 11.59820 | 142° | 37km/h | 18538m | -11.3m/s | -57.4°C | 4.7% | 73.8hPa | 2.7V | 01:44:00 | 01:54:19 | 00:00:00 | |
| OE5MMP-10 | 2026-09-04 05:33:26 | 47.43184 | 11.59812 | 145° | 37km/h | 18549m | -11.5m/s | -57.5°C | 4.8% | 73.6hPa | 2.7V | 00:00:00 | 01:54:18 | 00:00:00 | |
| OE3JTB-15 | 2026-09-04 05:33:23 | 47.43209 | 11.59788 | 152° | 24km/h | 18583m | -11.1m/s | -57.6°C | 4.9% | 73.3hPa | 2.7V | 01:44:00 | 01:54:15 | 00:00:00 | |
| BAUMI2-15 | 2026-09-04 05:33:22 | 47.43218 | 11.59781 | 152° | 35km/h | 18595m | -11.4m/s | -57.5°C | 4.9% | 73.1hPa | 2.7V | 01:44:00 | 01:54:14 | 00:00:00 | |
| DB0UT-7 | 2026-09-04 05:33:21 | 47.43227 | 11.59774 | 156° | 22km/h | 18606m | -11.2m/s | -57.2°C | 4.8% | 73.0hPa | 2.7V | 01:44:00 | 01:54:13 | 00:00:00 | |
| DG1MFX-10 | 2026-09-04 05:33:20 | 47.43227 | 11.59774 | 157° | 38km/h | 18606m | -11.3m/s | -57.3°C | 1.2% | 73.1hPa | 2.7V | 01:44:00 | 00:00:00 | 00:00:00 | |
| DO3MHA-12 | 2026-09-04 05:33:17 | 47.43257 | 11.59756 | 158° | 26km/h | 18652m | -11.1m/s | -56.5°C | 4.5% | 72.5hPa | 2.7V | 00:00:00 | 01:54:09 | 00:00:00 | |
| DO3MHA-11 | 2026-09-04 05:33:16 | 47.43263 | 11.59752 | 154° | 26km/h | 18664m | -11.6m/s | -56.4°C | 4.5% | 72.4hPa | 2.7V | 00:00:00 | 01:54:08 | 00:00:00 | |
| OE5DRO-10 | 2026-09-04 05:33:13 | 47.43280 | 11.59738 | 146° | 20km/h | 18698m | -11.5m/s | -56.1°C | 4.6% | 71.9hPa | 2.6V | 01:44:00 | 00:00:00 | 00:00:00 | |
| BAUMI2-15 | 2026-09-04 05:33:12 | 47.43285 | 11.59732 | 146° | 26km/h | 18710m | -11.3m/s | -56.0°C | 4.5% | 71.8hPa | 2.6V | 01:44:00 | 01:54:04 | 00:00:00 | |
| OM5KV | 2026-09-04 05:33:11 | 47.43285 | 11.59732 | 147° | 26km/h | 18710m | -11.3m/s | -56.0°C | 1.0% | 71.9hPa | 2.6V | 00:00:00 | 00:00:00 | 00:00:00 | |
| OM5KV | 2026-09-04 05:33:10 | 47.43291 | 11.59727 | 146° | 26km/h | 18721m | -11.6m/s | -55.8°C | 1.0% | 71.7hPa | 2.6V | 00:00:00 | 00:00:00 | 00:00:00 | |
| DO3MHA-12 | 2026-09-04 05:33:07 | 47.43313 | 11.59707 | 155° | 20km/h | 18768m | -11.4m/s | -55.3°C | 4.3% | 71.2hPa | 2.6V | 01:44:00 | 01:53:59 | 00:00:00 | |
| DO3MHA-11 | 2026-09-04 05:33:06 | 47.43319 | 11.59704 | 158° | 18km/h | 18779m | -11.2m/s | -55.2°C | 4.3% | 71.0hPa | 2.6V | 01:44:00 | 01:53:58 | 00:00:00 | |
| IN3HCDX | 2026-09-04 05:33:05 | 47.43319 | 11.59704 | 159° | 24km/h | 18779m | -11.2m/s | -55.3°C | 1.0% | 71.1hPa | 2.6V | 01:44:00 | 00:00:00 | 00:00:00 | |
| OM5KV | 2026-09-04 05:33:03 | 47.43329 | 11.59698 | 162° | 22km/h | 18802m | -11.3m/s | -54.9°C | 1.0% | 70.8hPa | 2.6V | 00:00:00 | 00:00:00 | 00:00:00 | |
| BAUMI2-15 | 2026-09-04 05:33:02 | 47.43339 | 11.59694 | 167° | 16km/h | 18825m | -11.5m/s | -54.6°C | 4.0% | 70.5hPa | 2.6V | 01:44:00 | 01:53:54 | 00:00:00 | |
| NBG1-10 | 2026-09-04 05:33:01 | 47.43343 | 11.59692 | 167° | 7km/h | 18837m | -11.5m/s | -54.5°C | 4.0% | 70.4hPa | 2.6V | 00:00:00 | 01:53:53 | 00:00:00 | |
| DK5PH-5 | 2026-09-04 05:33:00 | 47.43347 | 11.59691 | 168° | 7km/h | 18849m | -11.6m/s | -54.3°C | 3.9% | 70.3hPa | 2.6V | 01:44:00 | 01:53:52 | 00:00:00 | |
| DG1MFX-10 | 2026-09-04 05:32:59 | 47.43347 | 11.59691 | 168° | 16km/h | 18849m | -11.7m/s | -54.4°C | 1.0% | 70.3hPa | 2.6V | 01:45:00 | 00:00:00 | 00:00:00 | |
| DO3MHA-12 | 2026-09-04 05:32:57 | 47.43359 | 11.59688 | 176° | 9km/h | 18884m | -11.7m/s | -53.6°C | 3.6% | 69.9hPa | 2.6V | 00:00:00 | 01:53:49 | 00:00:00 | |
| OE5MMP-10 | 2026-09-04 05:32:56 | 47.43363 | 11.59688 | 182° | 9km/h | 18895m | -11.2m/s | -53.5°C | 3.6% | 69.8hPa | 2.7V | 01:44:00 | 01:53:48 | 00:00:00 | |
| OE5DRO-10 | 2026-09-04 05:32:54 | 47.43369 | 11.59689 | 195° | 5km/h | 18919m | -11.5m/s | -53.4°C | 3.5% | 69.5hPa | 2.7V | 00:00:00 | 00:00:00 | 00:00:00 | |
| OM5KV | 2026-09-04 05:32:53 | 47.43369 | 11.59689 | 196° | 13km/h | 18919m | -11.6m/s | -53.4°C | 0.8% | 69.6hPa | 2.6V | 01:45:00 | 00:00:00 | 00:00:00 | |
| BAUMI2-15 | 2026-09-04 05:32:52 | 47.43374 | 11.59691 | 204° | 7km/h | 18942m | -11.2m/s | -53.4°C | 3.5% | 69.3hPa | 2.6V | 01:44:00 | 01:53:44 | 00:00:00 | |
| DB0UT-7 | 2026-09-04 05:32:51 | 47.43376 | 11.59692 | 203° | 7km/h | 18954m | -11.9m/s | -53.5°C | 3.5% | 69.1hPa | 2.6V | 00:00:00 | 00:00:00 | 00:00:00 | |
| OE5WHR-10 | 2026-09-04 05:32:49 | 47.43379 | 11.59695 | 230° | 5km/h | 18978m | -11.6m/s | -53.6°C | 3.5% | 68.9hPa | 2.6V | 00:00:00 | 00:00:00 | 00:00:00 | |
| OM5KV | 2026-09-04 05:32:48 | 47.43380 | 11.59695 | 231° | 5km/h | 18978m | -11.7m/s | -53.7°C | 0.8% | 68.9hPa | 2.7V | 01:45:00 | 00:00:00 | 00:00:00 | |
| DO3MHA-12 | 2026-09-04 05:32:47 | 47.43381 | 11.59698 | 238° | 2km/h | 19002m | -11.3m/s | -53.8°C | 3.6% | 68.6hPa | 2.7V | 01:44:00 | 01:53:39 | 00:00:00 | |
| DO3MHA-11 | 2026-09-04 05:32:46 | 47.43382 | 11.59699 | 230° | 2km/h | 19013m | -11.3m/s | -53.8°C | 3.6% | 68.5hPa | 2.7V | 01:44:00 | 01:53:38 | 00:00:00 | |
| IN3HCDX | 2026-09-04 05:32:44 | 47.43382 | 11.59700 | 224° | 4km/h | 19025m | -11.7m/s | -54.0°C | 0.9% | 68.5hPa | 2.6V | 01:45:00 | 00:00:00 | 00:00:00 | |
| BAUMI2-15 | 2026-09-04 05:32:42 | 47.43383 | 11.59702 | 225° | 2km/h | 19059m | -11.9m/s | -54.2°C | 3.7% | 68.0hPa | 2.6V | 01:45:00 | 01:53:34 | 00:00:00 | |
| OM5KV | 2026-09-04 05:32:41 | 47.43383 | 11.59702 | 0° | 0km/h | 19059m | -12.0m/s | -54.3°C | 0.9% | 68.1hPa | 2.6V | 01:45:00 | 00:00:00 | 00:00:00 | |
| OM5KV | 2026-09-04 05:32:39 | 47.43384 | 11.59703 | 230° | 2km/h | 19095m | -11.5m/s | -54.5°C | 0.9% | 67.7hPa | 2.6V | 01:45:00 | 00:00:00 | 00:00:00 | |
| DG1MFX-10 | 2026-09-04 05:32:38 | 47.43384 | 11.59703 | 230° | 2km/h | 19095m | -11.5m/s | -54.5°C | 0.9% | 67.7hPa | 2.6V | 01:45:00 | 00:00:00 | 00:00:00 | |
| DO3MHA-12 | 2026-09-04 05:32:37 | 47.43384 | 11.59705 | 343° | 9km/h | 19118m | -11.9m/s | -54.7°C | 3.8% | 67.4hPa | 2.6V | 00:00:00 | 01:53:29 | 00:00:00 | |
| OE5MMP-10 | 2026-09-04 05:32:36 | 47.43383 | 11.59705 | 4° | 11km/h | 19130m | -11.7m/s | -54.7°C | 3.8% | 67.3hPa | 2.6V | 01:45:00 | 01:53:28 | 00:00:00 | |
| OE5DRO-10 | 2026-09-04 05:32:35 | 47.43382 | 11.59705 | 6° | 13km/h | 19141m | -11.4m/s | -54.8°C | 3.9% | 67.1hPa | 2.6V | 01:45:00 | 00:00:00 | 00:00:00 | |
| OM5KV | 2026-09-04 05:32:34 | 47.43382 | 11.59705 | 7° | 5km/h | 19141m | -11.4m/s | -54.9°C | 0.9% | 67.2hPa | 2.6V | 01:45:00 | 00:00:00 | 00:00:00 | |
| BAUMI2-15 | 2026-09-04 05:32:32 | 47.43376 | 11.59701 | 37° | 13km/h | 19176m | -11.0m/s | -55.1°C | 4.0% | 66.8hPa | 2.6V | 01:45:00 | 01:53:24 | 00:00:00 | |
| DL6DJ-15 | 2026-09-04 05:32:31 | 47.43374 | 11.59699 | 42° | 11km/h | 19187m | -11.5m/s | -55.2°C | 1.0% | 66.7hPa | 2.6V | 00:00:00 | 00:00:00 | 00:00:00 | |
| DK5PH-5 | 2026-09-04 05:32:30 | 47.43371 | 11.59695 | 41° | 16km/h | 19198m | -11.6m/s | -55.2°C | 4.0% | 66.5hPa | 2.6V | 00:00:00 | 01:53:22 | 00:00:00 | |
| NBG1-10 | 2026-09-04 05:32:28 | 47.43367 | 11.59688 | 51° | 16km/h | 19223m | -11.8m/s | -55.4°C | 4.1% | 66.3hPa | 2.6V | 01:45:00 | 01:53:20 | 00:00:00 | |
| DO3MHA-12 | 2026-09-04 05:32:27 | 47.43364 | 11.59684 | 50° | 15km/h | 19234m | -12.0m/s | -55.4°C | 4.1% | 66.2hPa | 2.6V | 01:45:00 | 01:53:19 | 00:00:00 | |
| DO3MHA-11 | 2026-09-04 05:32:26 | 47.43362 | 11.59681 | 60° | 15km/h | 19247m | -12.1m/s | -55.4°C | 4.2% | 66.0hPa | 2.7V | 01:45:00 | 01:53:18 | 00:00:00 | |
| OE3JTB-15 | 2026-09-04 05:32:25 | 47.43361 | 11.59677 | 60° | 18km/h | 19259m | -11.8m/s | -55.4°C | 4.2% | 65.9hPa | 2.7V | 01:45:00 | 00:00:00 | 00:00:00 | |
| DF2AP-13 | 2026-09-04 05:32:24 | 47.43359 | 11.59673 | 67° | 18km/h | 19271m | -11.5m/s | -55.2°C | 4.1% | 65.8hPa | 2.7V | 01:45:00 | 01:53:16 | 00:00:00 | |
| IN3HCDX | 2026-09-04 05:32:23 | 47.43359 | 11.59673 | 68° | 11km/h | 19271m | -11.5m/s | -55.3°C | 1.0% | 65.8hPa | 2.7V | 01:45:00 | 00:00:00 | 00:00:00 | |
| BAUMI2-15 | 2026-09-04 05:32:22 | 47.43357 | 11.59664 | 73° | 15km/h | 19294m | -11.4m/s | -54.9°C | 4.0% | 65.5hPa | 2.7V | 01:45:00 | 01:53:14 | 00:00:00 | |
| OE5DXL-15 | 2026-09-04 05:32:21 | 47.43356 | 11.59660 | 76° | 18km/h | 19306m | -12.1m/s | -54.8°C | 4.0% | 65.4hPa | 2.7V | 01:45:00 | 00:00:00 | 00:00:00 | |
| DG1MFX-10 | 2026-09-04 05:32:18 | 47.43355 | 11.59649 | 82° | 16km/h | 19330m | -11.8m/s | -55.0°C | 1.0% | 65.2hPa | 2.7V | 01:45:00 | 00:00:00 | 00:00:00 | |
| DF7PN | 2026-09-04 05:32:17 | 47.43354 | 11.59629 | 92° | 18km/h | 19364m | -11.6m/s | -55.2°C | 1.0% | 64.9hPa | 2.7V | 00:00:00 | 00:00:00 | 00:00:00 | |
| OE5MMP-10 | 2026-09-04 05:32:16 | 47.43354 | 11.59629 | 93° | 20km/h | 19364m | -11.6m/s | -55.1°C | 4.1% | 64.8hPa | 2.7V | 01:45:00 | 01:53:08 | 00:00:00 | |
| OM5KV | 2026-09-04 05:32:15 | 47.43354 | 11.59629 | 93° | 20km/h | 19364m | -11.6m/s | -55.2°C | 1.0% | 64.9hPa | 2.6V | 01:45:00 | 00:00:00 | 00:00:00 | |
| OM5KV | 2026-09-04 05:32:14 | 47.43354 | 11.59621 | 95° | 22km/h | 19376m | -12.0m/s | -55.2°C | 1.0% | 64.7hPa | 2.6V | 01:45:00 | 00:00:00 | 00:00:00 | |
| S52SK | 2026-09-04 05:32:13 | 47.43355 | 11.59613 | 96° | 20km/h | 19388m | -12.3m/s | -55.1°C | 0.9% | 64.6hPa | 2.6V | 00:00:00 | 00:00:00 | 00:00:00 | |
| BAUMI2-15 | 2026-09-04 05:32:12 | 47.43356 | 11.59598 | 93° | 22km/h | 19411m | -11.5m/s | -55.1°C | 4.0% | 64.3hPa | 2.6V | 01:45:00 | 01:53:04 | 00:00:00 | |
| OM5KV | 2026-09-04 05:32:09 | 47.43357 | 11.59582 | 95° | 22km/h | 19435m | -12.1m/s | -55.1°C | 0.9% | 64.2hPa | 2.6V | 01:46:00 | 00:00:00 | 00:00:00 | |
| DO3MHA-12 | 2026-09-04 05:32:07 | 47.43358 | 11.59558 | 91° | 16km/h | 19471m | -11.6m/s | -54.8°C | 3.9% | 63.7hPa | 2.6V | 01:45:00 | 01:52:59 | 00:00:00 | |
| OE5MMP-10 | 2026-09-04 05:32:06 | 47.43358 | 11.59551 | 90° | 16km/h | 19483m | -12.0m/s | -54.7°C | 3.8% | 63.6hPa | 2.6V | 00:00:00 | 01:52:58 | 00:00:00 | |
| DF1GD-15 | 2026-09-04 05:32:05 | 47.43358 | 11.59551 | 90° | 20km/h | 19483m | -12.1m/s | -54.7°C | 0.9% | 63.7hPa | 2.6V | 01:46:00 | 00:00:00 | 00:00:00 | |
| OM5KV | 2026-09-04 05:32:04 | 47.43357 | 11.59537 | 85° | 16km/h | 19507m | -11.9m/s | -54.7°C | 0.9% | 63.5hPa | 2.6V | 01:46:00 | 00:00:00 | 00:00:00 | |
| IN3HCDX | 2026-09-04 05:32:03 | 47.43357 | 11.59537 | 85° | 16km/h | 19507m | -11.9m/s | -54.7°C | 0.9% | 63.5hPa | 2.6V | 01:46:00 | 00:00:00 | 00:00:00 | |
| BAUMI2-15 | 2026-09-04 05:32:02 | 47.43355 | 11.59525 | 76° | 16km/h | 19531m | -12.2m/s | -54.8°C | 3.8% | 63.2hPa | 2.6V | 01:45:00 | 01:52:54 | 00:00:00 | |
| DK5PH-5 | 2026-09-04 05:32:00 | 47.43353 | 11.59513 | 82° | 13km/h | 19555m | -11.7m/s | -55.1°C | 3.9% | 63.0hPa | 2.6V | 01:45:00 | 01:52:52 | 00:00:00 | |
| DG1MFX-10 | 2026-09-04 05:31:58 | 47.43353 | 11.59508 | 77° | 15km/h | 19567m | -11.7m/s | -55.2°C | 1.0% | 62.8hPa | 2.6V | 01:46:00 | 00:00:00 | 00:00:00 | |
| DO3MHA-12 | 2026-09-04 05:31:57 | 47.43353 | 11.59497 | 99° | 16km/h | 19590m | -11.7m/s | -55.4°C | 4.0% | 62.6hPa | 2.6V | 00:00:00 | 01:52:49 | 00:00:00 | |
| DO3MHA-11 | 2026-09-04 05:31:56 | 47.43353 | 11.59491 | 105° | 15km/h | 19602m | -11.5m/s | -55.5°C | 4.1% | 62.4hPa | 2.7V | 00:00:00 | 01:52:48 | 00:00:00 | |
| OE3JTB-15 | 2026-09-04 05:31:55 | 47.43355 | 11.59485 | 114° | 13km/h | 19614m | -12.5m/s | -55.6°C | 4.1% | 62.3hPa | 2.7V | 00:00:00 | 01:52:47 | 00:00:00 | |
| DF2AP-13 | 2026-09-04 05:31:54 | 47.43357 | 11.59480 | 117° | 13km/h | 19627m | -12.5m/s | -55.7°C | 4.1% | 62.2hPa | 2.7V | 00:00:00 | 01:52:46 | 00:00:00 | |
| OM5KV | 2026-09-04 05:31:53 | 47.43357 | 11.59480 | 118° | 18km/h | 19627m | -12.5m/s | -55.7°C | 1.0% | 62.2hPa | 2.6V | 01:46:00 | 00:00:00 | 00:00:00 | |
| OM5KV | 2026-09-04 05:31:52 | 47.43359 | 11.59474 | 127° | 16km/h | 19639m | -12.4m/s | -55.8°C | 1.0% | 62.2hPa | 2.6V | 01:46:00 | 00:00:00 | 00:00:00 | |
| OE5DXL-15 | 2026-09-04 05:31:51 | 47.43365 | 11.59465 | 134° | 13km/h | 19664m | -12.1m/s | -56.0°C | 4.2% | 61.9hPa | 2.6V | 00:00:00 | 01:52:43 | 00:00:00 | |
| DO3MHA-12 | 2026-09-04 05:31:47 | 47.43375 | 11.59450 | 136° | 7km/h | 19712m | -12.4m/s | -56.1°C | 4.3% | 61.4hPa | 2.6V | 01:45:00 | 01:52:39 | 00:00:00 | |
| DO3MHA-11 | 2026-09-04 05:31:46 | 47.43377 | 11.59447 | 119° | 7km/h | 19725m | -12.9m/s | -56.0°C | 4.2% | 61.3hPa | 2.6V | 01:45:00 | 01:52:38 | 00:00:00 | |
| DF1GD-15 | 2026-09-04 05:31:44 | 47.43378 | 11.59444 | 117° | 7km/h | 19737m | -12.2m/s | -55.9°C | 1.0% | 61.2hPa | 2.6V | 01:46:00 | 00:00:00 | 00:00:00 | |
| IN3HCDX | 2026-09-04 05:31:42 | 47.43378 | 11.59440 | 85° | 5km/h | 19762m | -12.5m/s | -55.6°C | 1.0% | 60.9hPa | 2.6V | 01:46:00 | 00:00:00 | 00:00:00 | |
| OM5KV | 2026-09-04 05:31:40 | 47.43377 | 11.59437 | 49° | 5km/h | 19787m | -13.1m/s | -55.6°C | 0.9% | 60.7hPa | 2.6V | 01:46:00 | 00:00:00 | 00:00:00 | |
| OE5DRO-10 | 2026-09-04 05:31:38 | 47.43374 | 11.59432 | 49° | 15km/h | 19825m | -12.3m/s | -55.7°C | 4.1% | 60.3hPa | 2.6V | 00:00:00 | 00:00:00 | 00:00:00 | |
| DO3MHA-12 | 2026-09-04 05:31:37 | 47.43373 | 11.59430 | 48° | 16km/h | 19838m | -13.2m/s | -55.8°C | 4.1% | 60.2hPa | 2.6V | 00:00:00 | 01:52:29 | 00:00:00 | |
| OE5MMP-10 | 2026-09-04 05:31:36 | 47.43371 | 11.59427 | 50° | 16km/h | 19850m | -12.6m/s | -55.9°C | 4.1% | 60.1hPa | 2.6V | 01:46:00 | 01:52:28 | 00:00:00 | |
| DG1MJG | 2026-09-04 05:31:35 | 47.43371 | 11.59427 | 50° | 11km/h | 19850m | -12.7m/s | -56.0°C | 1.0% | 60.1hPa | 2.6V | 01:46:00 | 00:00:00 | 00:00:00 | |
| OM5KV | 2026-09-04 05:31:32 | 47.43364 | 11.59414 | 53° | 18km/h | 19889m | -12.8m/s | -56.2°C | 1.0% | 59.8hPa | 2.6V | 01:46:00 | 00:00:00 | 00:00:00 | |
| DK5PH-5 | 2026-09-04 05:31:30 | 47.43356 | 11.59397 | 58° | 11km/h | 19926m | -12.1m/s | -56.4°C | 4.2% | 59.3hPa | 2.6V | 00:00:00 | 01:52:22 | 00:00:00 | |
| DL6DJ-15 | 2026-09-04 05:31:29 | 47.43353 | 11.59391 | 57° | 16km/h | 19938m | -12.9m/s | -56.5°C | 1.0% | 59.3hPa | 2.7V | 00:00:00 | 00:00:00 | 00:00:00 | |
| DO3MHA-12 | 2026-09-04 05:31:27 | 47.43349 | 11.59380 | 63° | 11km/h | 19964m | -12.9m/s | -56.6°C | 4.3% | 59.0hPa | 2.7V | 01:46:00 | 01:52:19 | 00:00:00 | |
| DM0DOS-11 | 2026-09-04 05:31:26 | 47.43344 | 11.59353 | 86° | 9km/h | 20041m | -12.8m/s | -56.4°C | 4.2% | 58.3hPa | 2.7V | 01:46:24 | 01:52:13 | 00:00:00 | |
| OE5MMP-10 | 2026-09-04 05:31:26 | 47.43347 | 11.59375 | 67° | 11km/h | 19977m | -12.8m/s | -56.6°C | 4.3% | 58.9hPa | 2.7V | 00:00:00 | 01:52:18 | 00:00:00 | |
| OE5WHR-10 | 2026-09-04 05:31:25 | 47.43346 | 11.59370 | 73° | 11km/h | 19990m | -12.4m/s | -56.6°C | 4.3% | 58.8hPa | 2.7V | 00:00:00 | 00:00:00 | 00:00:00 | |
| DF2AP-13 | 2026-09-04 05:31:24 | 47.43345 | 11.59365 | 74° | 11km/h | 20003m | -12.8m/s | -56.6°C | 4.3% | 58.6hPa | 2.7V | 01:46:00 | 01:52:16 | 00:00:00 | |
| DF1GD-15 | 2026-09-04 05:31:23 | 47.43345 | 11.59365 | 75° | 13km/h | 20003m | -12.8m/s | -56.6°C | 1.0% | 58.7hPa | 2.7V | 01:46:00 | 00:00:00 | 00:00:00 | |
| NBG1-10 | 2026-09-04 05:31:22 | 47.43344 | 11.59356 | 85° | 13km/h | 20028m | -13.0m/s | -56.5°C | 4.3% | 58.4hPa | 2.7V | 01:46:00 | 01:52:14 | 00:00:00 | |
| DB0UT-7 | 2026-09-04 05:31:21 | 47.43344 | 11.59353 | 87° | 13km/h | 20042m | -12.8m/s | -56.4°C | 4.2% | 58.3hPa | 2.7V | 01:46:00 | 01:52:13 | 00:00:00 | |
| OM5KV | 2026-09-04 05:31:20 | 47.43344 | 11.59353 | 88° | 9km/h | 20042m | -12.8m/s | -56.4°C | 1.0% | 58.3hPa | 2.7V | 01:46:00 | 00:00:00 | 00:00:00 | |
| OE5DRO-10 | 2026-09-04 05:31:19 | 47.43344 | 11.59347 | 89° | 11km/h | 20067m | -12.6m/s | -56.5°C | 4.3% | 58.1hPa | 2.7V | 01:46:00 | 00:00:00 | 00:00:00 | |
| DO3MHA-12 | 2026-09-04 05:31:17 | 47.43344 | 11.59342 | 76° | 11km/h | 20092m | -12.9m/s | -56.4°C | 4.3% | 57.8hPa | 2.7V | 00:00:00 | 01:52:09 | 00:00:00 | |
| DO3MHA-11 | 2026-09-04 05:31:16 | 47.43343 | 11.59339 | 73° | 11km/h | 20105m | -13.1m/s | -56.4°C | 4.2% | 57.7hPa | 2.7V | 00:00:00 | 01:52:08 | 00:00:00 | |
| DM0DOS-11 | 2026-09-04 05:31:15 | 47.43339 | 11.59322 | 72° | 11km/h | 20169m | -12.8m/s | -56.2°C | 4.1% | 57.1hPa | 2.7V | 01:46:34 | 01:52:03 | 00:00:00 | |
| OM5KV | 2026-09-04 05:31:13 | 47.43342 | 11.59332 | 65° | 11km/h | 20131m | -12.9m/s | -56.3°C | 1.0% | 57.5hPa | 2.6V | 01:47:00 | 00:00:00 | 00:00:00 | |
| OM5KV | 2026-09-04 05:31:11 | 47.43339 | 11.59322 | 74° | 11km/h | 20169m | -12.8m/s | -56.3°C | 0.9% | 57.1hPa | 2.6V | 01:47:00 | 00:00:00 | 00:00:00 | |
| S52SK | 2026-09-04 05:31:10 | 47.43339 | 11.59322 | 74° | 11km/h | 20169m | -12.8m/s | -56.3°C | 0.9% | 57.1hPa | 2.6V | 00:00:00 | 00:00:00 | 00:00:00 | |
| DO3MHA-12 | 2026-09-04 05:31:07 | 47.43336 | 11.59305 | 82° | 11km/h | 20222m | -13.3m/s | -56.5°C | 4.2% | 56.6hPa | 2.6V | 01:46:00 | 01:51:59 | 00:00:00 | |
| DM0DOS-11 | 2026-09-04 05:31:07 | 47.43336 | 11.59281 | 88° | 11km/h | 20300m | -13.1m/s | -56.6°C | 4.2% | 56hPa | 2.7V | 01:46:44 | 01:51:53 | 00:00:00 | |
| DO3MHA-11 | 2026-09-04 05:31:06 | 47.43336 | 11.59301 | 87° | 11km/h | 20235m | -12.8m/s | -56.5°C | 4.3% | 56.5hPa | 2.6V | 01:46:00 | 01:51:58 | 00:00:00 | |
| OE5WHR-10 | 2026-09-04 05:31:04 | 47.43336 | 11.59293 | 91° | 20km/h | 20261m | -12.8m/s | -56.6°C | 4.3% | 56.3hPa | 2.6V | 01:46:00 | 01:51:56 | 00:00:00 | |
| DB0ND-19 | 2026-09-04 05:31:02 | 47.43336 | 11.59285 | 91° | 9km/h | 20287m | -12.9m/s | -56.6°C | 1.0% | 56.1hPa | 2.6V | 00:00:00 | 00:00:00 | 00:00:00 | |
| DL6DJ-15 | 2026-09-04 05:30:58 | 47.43334 | 11.59268 | 75° | 13km/h | 20339m | -13.1m/s | -56.8°C | 1.0% | 55.6hPa | 2.6V | 00:00:00 | 00:00:00 | 00:00:00 | |
| DO3MHA-12 | 2026-09-04 05:30:57 | 47.43333 | 11.59263 | 78° | 22km/h | 20352m | -13.0m/s | -56.8°C | 4.3% | 55.5hPa | 2.6V | 00:00:00 | 01:51:49 | 00:00:00 | |
| DM0DOS-11 | 2026-09-04 05:30:56 | 47.43332 | 11.59215 | 96° | 26km/h | 20433m | -13.4m/s | -57.1°C | 4.5% | 54.8hPa | 2.6V | 01:46:54 | 01:51:43 | 00:00:00 | |
| OE5MMP-10 | 2026-09-04 05:30:56 | 47.43332 | 11.59257 | 81° | 24km/h | 20365m | -13.6m/s | -56.9°C | 4.3% | 55.4hPa | 2.6V | 01:46:00 | 01:51:48 | 00:00:00 | |
| DF2AP-13 | 2026-09-04 05:30:54 | 47.43332 | 11.59241 | 90° | 27km/h | 20392m | -13.1m/s | -56.8°C | 4.3% | 55.1hPa | 2.6V | 00:00:00 | 01:51:46 | 00:00:00 | |
| OM5KV | 2026-09-04 05:30:53 | 47.43332 | 11.59241 | 90° | 22km/h | 20392m | -13.1m/s | -56.9°C | 1.0% | 55.2hPa | 2.6V | 01:47:00 | 00:00:00 | 00:00:00 | |
| OE5DXL-15 | 2026-09-04 05:30:51 | 47.43332 | 11.59215 | 97° | 27km/h | 20433m | -13.4m/s | -57.1°C | 4.5% | 54.8hPa | 2.6V | 00:00:00 | 00:00:00 | 00:00:00 | |
| NBG1-10 | 2026-09-04 05:30:49 | 47.43334 | 11.59196 | 101° | 26km/h | 20459m | -13.0m/s | -57.0°C | 4.5% | 54.5hPa | 2.6V | 00:00:00 | 01:51:41 | 00:00:00 | |
| DO3MHA-12 | 2026-09-04 05:30:47 | 47.43337 | 11.59178 | 104° | 26km/h | 20485m | -13.1m/s | -56.8°C | 4.5% | 54.3hPa | 2.6V | 01:46:00 | 01:51:39 | 00:00:00 | |
| DM0DOS-11 | 2026-09-04 05:30:46 | 47.43349 | 11.59126 | 114° | 26km/h | 20565m | -13.4m/s | -56.7°C | 4.6% | 53.7hPa | 2.6V | 01:47:04 | 01:51:33 | 00:00:00 | |
| OE5MMP-10 | 2026-09-04 05:30:46 | 47.43338 | 11.59169 | 107° | 27km/h | 20498m | -12.9m/s | -56.7°C | 4.5% | 54.2hPa | 2.6V | 00:00:00 | 01:51:38 | 00:00:00 | |
| OM5KV | 2026-09-04 05:30:45 | 47.43338 | 11.59169 | 107° | 26km/h | 20498m | -13.0m/s | -56.8°C | 1.0% | 54.3hPa | 2.7V | 01:47:00 | 00:00:00 | 00:00:00 | |
| OE5WHR-10 | 2026-09-04 05:30:43 | 47.43344 | 11.59143 | 112° | 29km/h | 20538m | -13.5m/s | -56.5°C | 4.4% | 53.9hPa | 2.7V | 00:00:00 | 00:00:00 | 00:00:00 | |
| OM5KV | 2026-09-04 05:30:42 | 47.43344 | 11.59143 | 113° | 26km/h | 20538m | -13.5m/s | -56.5°C | 1.0% | 53.9hPa | 2.7V | 01:47:00 | 00:00:00 | 00:00:00 | |
| OE5DRO-10 | 2026-09-04 05:30:41 | 47.43349 | 11.59126 | 115° | 29km/h | 20565m | -13.3m/s | -56.7°C | 4.6% | 53.7hPa | 2.7V | 01:47:00 | 00:00:00 | 00:00:00 | |
| PG1ADW-2 | 2026-09-04 05:30:39 | 47.43356 | 11.59108 | 122° | 29km/h | 20593m | -13.5m/s | -56.8°C | 4.6% | 53.4hPa | 2.7V | 00:00:00 | 00:00:00 | 00:00:00 | |
| OM5KV | 2026-09-04 05:30:38 | 47.43356 | 11.59108 | 123° | 29km/h | 20593m | -13.6m/s | -56.9°C | 1.0% | 53.5hPa | 2.6V | 01:47:00 | 00:00:00 | 00:00:00 | |
| DO3MHA-12 | 2026-09-04 05:30:37 | 47.43365 | 11.59089 | 130° | 31km/h | 20620m | -13.3m/s | -56.8°C | 4.6% | 53.2hPa | 2.6V | 00:00:00 | 01:51:29 | 00:00:00 | |
| DM0DOS-11 | 2026-09-04 05:30:36 | 47.43403 | 11.59044 | 151° | 31km/h | 20701m | -13m/s | -55.7°C | 4.2% | 52.5hPa | 2.6V | 01:47:14 | 01:51:23 | 00:00:00 | |
| DO3MHA-11 | 2026-09-04 05:30:36 | 47.43370 | 11.59080 | 133° | 31km/h | 20633m | -13.4m/s | -56.8°C | 4.6% | 53.1hPa | 2.6V | 00:00:00 | 01:51:28 | 00:00:00 | |
| OM5KV | 2026-09-04 05:30:35 | 47.43370 | 11.59080 | 134° | 33km/h | 20633m | -13.4m/s | -56.8°C | 1.0% | 53.1hPa | 2.6V | 01:47:00 | 00:00:00 | 00:00:00 | |
| DG1MJG | 2026-09-04 05:30:34 | 47.43376 | 11.59071 | 139° | 33km/h | 20647m | -13.5m/s | -56.7°C | 1.0% | 53.0hPa | 2.6V | 01:47:00 | 00:00:00 | 00:00:00 | |
| DB0ND-19 | 2026-09-04 05:30:31 | 47.43403 | 11.59044 | 151° | 31km/h | 20701m | -13.0m/s | -55.7°C | 0.9% | 52.6hPa | 2.6V | 00:00:00 | 00:00:00 | 00:00:00 | |
| DK5PH-5 | 2026-09-04 05:30:30 | 47.43410 | 11.59038 | 153° | 18km/h | 20714m | -13.3m/s | -55.5°C | 4.2% | 52.4hPa | 2.6V | 00:00:00 | 01:51:22 | 00:00:00 | |
| OE3JTB-15 | 2026-09-04 05:30:28 | 47.43423 | 11.59028 | 153° | 16km/h | 20741m | -13.6m/s | -55.3°C | 4.1% | 52.2hPa | 2.6V | 01:47:00 | 01:51:20 | 00:00:00 | |
| DO3MHA-12 | 2026-09-04 05:30:27 | 47.43429 | 11.59023 | 153° | 22km/h | 20755m | -13.9m/s | -55.3°C | 4.1% | 52.1hPa | 2.6V | 01:47:00 | 01:51:19 | 00:00:00 | |
| DM0DOS-11 | 2026-09-04 05:30:26 | 47.43466 | 11.58999 | 160° | 18km/h | 20836m | -13.3m/s | -54.9°C | 4% | 51.5hPa | 2.6V | 01:47:24 | 01:51:13 | 00:00:00 | |
| OE5MMP-10 | 2026-09-04 05:30:26 | 47.43436 | 11.59018 | 153° | 20km/h | 20769m | -13.8m/s | -55.3°C | 4.1% | 51.9hPa | 2.7V | 00:00:00 | 01:51:18 | 00:00:00 | |
| OM5KV | 2026-09-04 05:30:25 | 47.43436 | 11.59018 | 153° | 29km/h | 20769m | -13.8m/s | -55.3°C | 0.9% | 52.0hPa | 2.7V | 01:48:00 | 00:00:00 | 00:00:00 | |
| DF2AP-13 | 2026-09-04 05:30:24 | 47.43449 | 11.59009 | 157° | 16km/h | 20796m | -13.8m/s | -55.2°C | 4.1% | 51.7hPa | 2.7V | 01:47:00 | 01:51:16 | 00:00:00 | |
| OE5WHR-10 | 2026-09-04 05:30:22 | 47.43461 | 11.59002 | 161° | 15km/h | 20823m | -13.3m/s | -54.9°C | 4.0% | 51.5hPa | 2.6V | 01:47:00 | 00:00:00 | 00:00:00 | |
| OE5DXL-15 | 2026-09-04 05:30:21 | 47.43466 | 11.58999 | 161° | 18km/h | 20836m | -13.2m/s | -54.9°C | 4.0% | 51.4hPa | 2.6V | 01:47:00 | 00:00:00 | 00:00:00 | |
| PG1ADW-2 | 2026-09-04 05:30:19 | 47.43473 | 11.58995 | 149° | 15km/h | 20863m | -13.7m/s | -54.8°C | 4.0% | 51.2hPa | 2.7V | 01:47:00 | 00:00:00 | 00:00:00 | |
| OM5KV | 2026-09-04 05:30:18 | 47.43473 | 11.58995 | 150° | 11km/h | 20863m | -13.8m/s | -54.9°C | 0.8% | 51.2hPa | 2.7V | 01:48:00 | 00:00:00 | 00:00:00 | |
| DO3MHA-12 | 2026-09-04 05:30:17 | 47.43476 | 11.58990 | 108° | 13km/h | 20890m | -13.2m/s | -54.9°C | 4.0% | 51.0hPa | 2.7V | 00:00:00 | 01:51:09 | 00:00:00 | |
| DM0DOS-11 | 2026-09-04 05:30:16 | 47.43474 | 11.58963 | 93° | 16km/h | 20971m | -13.5m/s | -54.7°C | 3.9% | 50.4hPa | 2.7V | 01:47:34 | 01:51:03 | 00:00:00 | |
| DO3MHA-11 | 2026-09-04 05:30:16 | 47.43476 | 11.58987 | 89° | 15km/h | 20904m | -13.4m/s | -54.8°C | 3.9% | 50.9hPa | 2.6V | 00:00:00 | 01:51:08 | 00:00:00 | |
| OM5KV | 2026-09-04 05:30:12 | 47.43475 | 11.58975 | 81° | 15km/h | 20944m | -13.5m/s | -54.9°C | 0.9% | 50.6hPa | 2.6V | 01:48:00 | 00:00:00 | 00:00:00 | |
| OM5KV | 2026-09-04 05:30:11 | 47.43474 | 11.58969 | 86° | 16km/h | 20958m | -13.4m/s | -54.9°C | 0.8% | 50.5hPa | 2.6V | 01:48:00 | 00:00:00 | 00:00:00 | |
| DB0NH | 2026-09-04 05:30:09 | 47.43475 | 11.58951 | 99° | 16km/h | 20998m | -13.5m/s | -54.6°C | 3.9% | 50.1hPa | 2.6V | 01:47:00 | 01:51:01 | 00:00:00 | |
| DO3MHA-12 | 2026-09-04 05:30:07 | 47.43476 | 11.58940 | 97° | 20km/h | 21025m | -13.4m/s | -54.5°C | 3.9% | 49.9hPa | 2.6V | 01:47:00 | 01:50:59 | 00:00:00 | |
| DM0DOS-11 | 2026-09-04 05:30:06 | 47.43473 | 11.58899 | 80° | 24km/h | 21107m | -14.1m/s | -54.5°C | 3.7% | 49.3hPa | 2.6V | 01:47:44 | 01:50:53 | 00:00:00 | |
| OE5MMP-10 | 2026-09-04 05:30:06 | 47.43476 | 11.58934 | 90° | 22km/h | 21039m | -13.7m/s | -54.4°C | 3.8% | 49.8hPa | 2.7V | 00:00:00 | 01:50:58 | 00:00:00 | |
| OM5KV | 2026-09-04 05:30:05 | 47.43476 | 11.58934 | 90° | 15km/h | 21039m | -13.7m/s | -54.4°C | 0.8% | 49.8hPa | 2.7V | 01:48:00 | 00:00:00 | 00:00:00 | |
| DG1MJG | 2026-09-04 05:30:04 | 47.43476 | 11.58929 | 87° | 16km/h | 21053m | -13.7m/s | -54.3°C | 0.8% | 49.8hPa | 2.7V | 00:00:00 | 00:00:00 | 00:00:00 | |
| OE5DRO-10 | 2026-09-04 05:30:03 | 47.43475 | 11.58916 | 79° | 20km/h | 21080m | -13.3m/s | -54.3°C | 3.7% | 49.5hPa | 2.7V | 01:47:00 | 00:00:00 | 00:00:00 | |
| OM5KV | 2026-09-04 05:30:02 | 47.43475 | 11.58916 | 79° | 20km/h | 21080m | -13.4m/s | -54.3°C | 0.8% | 49.6hPa | 2.6V | 01:48:00 | 00:00:00 | 00:00:00 | |
| OE5WHR-10 | 2026-09-04 05:30:01 | 47.43473 | 11.58899 | 81° | 16km/h | 21107m | -14.1m/s | -54.5°C | 3.7% | 49.3hPa | 2.6V | 00:00:00 | 01:50:53 | 00:00:00 | |
| DK5PH-5 | 2026-09-04 05:30:00 | 47.43472 | 11.58890 | 84° | 15km/h | 21121m | -13.9m/s | -54.6°C | 3.8% | 49.2hPa | 2.6V | 01:47:00 | 01:50:52 | 00:00:00 | |
| PG1ADW-2 | 2026-09-04 05:29:59 | 47.43471 | 11.58880 | 85° | 16km/h | 21135m | -13.5m/s | -54.7°C | 3.8% | 49.1hPa | 2.7V | 00:00:00 | 00:00:00 | 00:00:00 | |
| BAUMI2-15 | 2026-09-04 05:29:58 | 47.43471 | 11.58871 | 92° | 24km/h | 21148m | -13.5m/s | -54.7°C | 3.9% | 49.0hPa | 2.7V | 00:00:00 | 01:50:50 | 00:00:00 | |
| DO3MHA-12 | 2026-09-04 05:29:57 | 47.43471 | 11.58862 | 91° | 20km/h | 21162m | -13.8m/s | -54.8°C | 3.8% | 48.9hPa | 2.7V | 00:00:00 | 01:50:49 | 00:00:00 | |
| DM0DOS-11 | 2026-09-04 05:29:56 | 47.43475 | 11.58816 | 99° | 18km/h | 21247m | -14.2m/s | -55°C | 3.9% | 48.3hPa | 2.7V | 01:47:54 | 01:50:43 | 00:00:00 | |
| DG1MFX-10 | 2026-09-04 05:29:56 | 47.43471 | 11.58853 | 97° | 24km/h | 21176m | -14.2m/s | -54.9°C | 0.9% | 48.8hPa | 2.6V | 01:48:00 | 00:00:00 | 00:00:00 | |
| S52SK | 2026-09-04 05:29:55 | 47.43471 | 11.58853 | 97° | 24km/h | 21176m | -14.2m/s | -54.9°C | 0.8% | 48.8hPa | 2.6V | 00:00:00 | 00:00:00 | 00:00:00 | |
| BAUMI2-15 | 2026-09-04 05:29:53 | 47.43473 | 11.58829 | 100° | 18km/h | 21218m | -14.5m/s | -55.0°C | 3.9% | 48.5hPa | 2.6V | 01:47:00 | 01:50:45 | 00:00:00 | |
| OM5KV | 2026-09-04 05:29:52 | 47.43473 | 11.58829 | 100° | 20km/h | 21218m | -14.5m/s | -55.1°C | 0.8% | 48.5hPa | 2.6V | 01:48:00 | 00:00:00 | 00:00:00 | |
| OE5DXL-15 | 2026-09-04 05:29:51 | 47.43475 | 11.58816 | 100° | 13km/h | 21247m | -14.2m/s | -54.9°C | 3.9% | 48.3hPa | 2.6V | 00:00:00 | 00:00:00 | 00:00:00 | |
| OM5KV | 2026-09-04 05:29:50 | 47.43475 | 11.58816 | 100° | 18km/h | 21247m | -14.2m/s | -55.0°C | 0.8% | 48.3hPa | 2.6V | 01:48:00 | 00:00:00 | 00:00:00 | |
| BAUMI2-15 | 2026-09-04 05:29:48 | 47.43477 | 11.58799 | 103° | 11km/h | 21288m | -13.9m/s | -54.9°C | 3.9% | 47.9hPa | 2.6V | 00:00:00 | 01:50:40 | 00:00:00 | |
| DO3MHA-12 | 2026-09-04 05:29:47 | 47.43478 | 11.58794 | 107° | 11km/h | 21302m | -13.9m/s | -55.0°C | 3.9% | 47.8hPa | 2.7V | 01:47:00 | 01:50:39 | 00:00:00 | |
| DM0DOS-11 | 2026-09-04 05:29:46 | 47.43485 | 11.58773 | 116° | 9km/h | 21387m | -14m/s | -55.2°C | 4% | 47.2hPa | 2.7V | 01:48:04 | 01:50:33 | 00:00:00 | |
| DO3MHA-11 | 2026-09-04 05:29:46 | 47.43479 | 11.58790 | 115° | 11km/h | 21316m | -14.2m/s | -55.1°C | 4.0% | 47.7hPa | 2.7V | 01:47:00 | 01:50:38 | 00:00:00 | |
| OM5KV | 2026-09-04 05:29:45 | 47.43479 | 11.58790 | 115° | 11km/h | 21316m | -14.2m/s | -55.2°C | 0.8% | 47.8hPa | 2.7V | 01:48:00 | 00:00:00 | 00:00:00 | |
| OE5DRO-10 | 2026-09-04 05:29:44 | 47.43481 | 11.58784 | 117° | 13km/h | 21345m | -14.0m/s | -55.2°C | 4.0% | 47.5hPa | 2.7V | 00:00:00 | 00:00:00 | 00:00:00 | |
| NBG1-10 | 2026-09-04 05:29:43 | 47.43482 | 11.58780 | 125° | 16km/h | 21359m | -13.6m/s | -55.3°C | 4.0% | 47.4hPa | 2.7V | 00:00:00 | 01:50:35 | 00:00:00 | |
| OM5KV | 2026-09-04 05:29:42 | 47.43482 | 11.58780 | 125° | 9km/h | 21359m | -13.7m/s | -55.3°C | 0.8% | 47.4hPa | 2.7V | 01:48:00 | 00:00:00 | 00:00:00 | |
| OM5KV | 2026-09-04 05:29:41 | 47.43484 | 11.58777 | 118° | 11km/h | 21373m | -14.1m/s | -55.3°C | 0.8% | 47.3hPa | 2.7V | 01:48:00 | 00:00:00 | 00:00:00 | |
| OE5WHR-10 | 2026-09-04 05:29:40 | 47.43486 | 11.58770 | 121° | 15km/h | 21401m | -13.9m/s | -55.1°C | 4.0% | 47.1hPa | 2.7V | 01:48:00 | 00:00:00 | 00:00:00 | |
| DB0NH | 2026-09-04 05:29:39 | 47.43488 | 11.58766 | 121° | 9km/h | 21415m | -14.2m/s | -55.1°C | 4.0% | 47.0hPa | 2.6V | 00:00:00 | 01:50:31 | 00:00:00 | |
| BAUMI2-15 | 2026-09-04 05:29:38 | 47.43489 | 11.58763 | 126° | 11km/h | 21429m | -13.6m/s | -55.0°C | 4.0% | 46.9hPa | 2.7V | 00:00:00 | 01:50:30 | 00:00:00 | |
| DO3MHA-12 | 2026-09-04 05:29:37 | 47.43491 | 11.58759 | 122° | 15km/h | 21443m | -14.3m/s | -54.8°C | 3.9% | 46.8hPa | 2.7V | 00:00:00 | 01:50:29 | 00:00:00 | |
| DM0DOS-11 | 2026-09-04 05:29:36 | 47.43499 | 11.58734 | 113° | 16km/h | 21528m | -13.8m/s | -55.1°C | 4% | 46.2hPa | 2.7V | 01:48:14 | 01:50:23 | 00:00:00 | |
| OE5MMP-10 | 2026-09-04 05:29:36 | 47.43492 | 11.58756 | 122° | 15km/h | 21457m | -14.1m/s | -54.6°C | 3.8% | 46.7hPa | 2.6V | 01:48:00 | 01:50:28 | 00:00:00 | |
| DG1MFX-10 | 2026-09-04 05:29:35 | 47.43492 | 11.58756 | 123° | 11km/h | 21457m | -14.1m/s | -54.7°C | 0.8% | 46.7hPa | 2.6V | 01:48:00 | 00:00:00 | 00:00:00 | |
| BAUMI2-15 | 2026-09-04 05:29:33 | 47.43496 | 11.58744 | 112° | 16km/h | 21500m | -13.6m/s | -55.0°C | 4.0% | 46.3hPa | 2.6V | 01:48:00 | 01:50:25 | 00:00:00 | |
| DK5PH-5 | 2026-09-04 05:29:30 | 47.43501 | 11.58728 | 115° | 20km/h | 21542m | -14.2m/s | -55.0°C | 4.0% | 46.0hPa | 2.6V | 00:00:00 | 01:50:22 | 00:00:00 | |
| BAUMI2-15 | 2026-09-04 05:29:28 | 47.43505 | 11.58716 | 121° | 16km/h | 21570m | -14.0m/s | -55.0°C | 4.0% | 45.8hPa | 2.6V | 00:00:00 | 01:50:20 | 00:00:00 | |
| DO3MHA-12 | 2026-09-04 05:29:27 | 47.43507 | 11.58710 | 127° | 16km/h | 21584m | -13.8m/s | -55.0°C | 4.0% | 45.8hPa | 2.6V | 01:48:00 | 01:50:19 | 00:00:00 | |
| OE5MMP-10 | 2026-09-04 05:29:26 | 47.43510 | 11.58705 | 129° | 16km/h | 21598m | -13.9m/s | -55.1°C | 4.0% | 45.6hPa | 2.6V | 00:00:00 | 01:50:18 | 00:00:00 | |
| DL6DJ-15 | 2026-09-04 05:29:25 | 47.43513 | 11.58701 | 134° | 15km/h | 21612m | -14.0m/s | -55.2°C | 0.8% | 45.6hPa | 2.6V | 00:00:00 | 00:00:00 | 00:00:00 | |
| BAUMI2-15 | 2026-09-04 05:29:23 | 47.43517 | 11.58693 | 131° | 15km/h | 21640m | -14.0m/s | -55.3°C | 4.1% | 45.3hPa | 2.6V | 01:48:00 | 01:50:15 | 00:00:00 | |
| DM0DOS-11 | 2026-09-04 05:29:21 | 47.43535 | 11.58657 | 132° | 24km/h | 21739m | -14.3m/s | -55°C | 4% | 44.7hPa | 2.6V | 01:48:29 | 01:50:08 | 00:00:00 | |
| OE5DXL-15 | 2026-09-04 05:29:21 | 47.43521 | 11.58686 | 123° | 20km/h | 21669m | -14.1m/s | -55.3°C | 4.1% | 45.1hPa | 2.6V | 01:48:00 | 00:00:00 | 00:00:00 | |
| OE5WHR-10 | 2026-09-04 05:29:19 | 47.43525 | 11.58675 | 124° | 22km/h | 21697m | -14.6m/s | -55.1°C | 4.1% | 44.9hPa | 2.6V | 00:00:00 | 00:00:00 | 00:00:00 | |
| BAUMI2-15 | 2026-09-04 05:29:18 | 47.43528 | 11.58669 | 126° | 24km/h | 21712m | -14.1m/s | -55.0°C | 4.1% | 44.8hPa | 2.6V | 00:00:00 | 01:50:10 | 00:00:00 | |
| DO3MHA-12 | 2026-09-04 05:29:17 | 47.43531 | 11.58663 | 129° | 26km/h | 21726m | -14.0m/s | -55.0°C | 4.1% | 44.7hPa | 2.6V | 00:00:00 | 01:50:09 | 00:00:00 | |
| DO3MHA-11 | 2026-09-04 05:29:16 | 47.43535 | 11.58657 | 133° | 26km/h | 21740m | -14.3m/s | -54.9°C | 4.0% | 44.6hPa | 2.6V | 00:00:00 | 01:50:08 | 00:00:00 | |
| DG1MFX-10 | 2026-09-04 05:29:14 | 47.43539 | 11.58650 | 136° | 26km/h | 21754m | -14.2m/s | -55.0°C | 0.9% | 44.6hPa | 2.6V | 01:48:00 | 00:00:00 | 00:00:00 | |
| BAUMI2-15 | 2026-09-04 05:29:13 | 47.43549 | 11.58636 | 140° | 26km/h | 21783m | -14.4m/s | -54.8°C | 4.0% | 44.3hPa | 2.6V | 01:48:00 | 01:50:05 | 00:00:00 | |
| OM5KV | 2026-09-04 05:29:11 | 47.43555 | 11.58630 | 145° | 27km/h | 21797m | -15.0m/s | -54.8°C | 0.8% | 44.3hPa | 2.6V | 01:48:00 | 00:00:00 | 00:00:00 | |
| NBG1-10 | 2026-09-04 05:29:10 | 47.43566 | 11.58618 | 146° | 18km/h | 21827m | -14.2m/s | -54.8°C | 4.0% | 44.0hPa | 2.6V | 01:48:00 | 01:50:02 | 00:00:00 | |
| DM0DOS-11 | 2026-09-04 05:29:08 | 47.43600 | 11.58589 | 163° | 20km/h | 21929m | -14.9m/s | -54.1°C | 3.7% | 43.4hPa | 2.6V | 01:48:42 | 01:49:55 | 00:00:00 | |
| BAUMI2-15 | 2026-09-04 05:29:08 | 47.43576 | 11.58608 | 146° | 22km/h | 21856m | -14.4m/s | -54.7°C | 3.9% | 43.8hPa | 2.6V | 00:00:00 | 01:50:00 | 00:00:00 | |
| DO3MHA-12 | 2026-09-04 05:29:07 | 47.43580 | 11.58603 | 148° | 18km/h | 21871m | -14.6m/s | -54.6°C | 3.9% | 43.7hPa | 2.6V | 01:48:00 | 01:49:59 | 00:00:00 | |
| OE5MMP-10 | 2026-09-04 05:29:06 | 47.43585 | 11.58599 | 150° | 18km/h | 21886m | -14.9m/s | -54.4°C | 3.8% | 43.6hPa | 2.6V | 00:00:00 | 01:49:58 | 00:00:00 | |
| OM5KV | 2026-09-04 05:29:05 | 47.43586 | 11.58599 | 151° | 22km/h | 21886m | -15.0m/s | -54.4°C | 0.8% | 43.7hPa | 2.6V | 01:48:00 | 00:00:00 | 00:00:00 | |
| DL1ZP-14 | 2026-09-04 05:29:04 | 47.43600 | 11.58589 | 163° | 18km/h | 21929m | -14.9m/s | -54.1°C | 0.7% | 43.4hPa | 2.6V | 00:00:00 | 00:00:00 | 00:00:00 | |
| BAUMI2-15 | 2026-09-04 05:29:03 | 47.43600 | 11.58589 | 164° | 18km/h | 21930m | -14.8m/s | -54.1°C | 3.7% | 43.3hPa | 2.6V | 01:48:00 | 01:49:55 | 00:00:00 | |
| DK5PH-5 | 2026-09-04 05:29:00 | 47.43613 | 11.58586 | 180° | 16km/h | 21974m | -14.7m/s | -54.1°C | 3.7% | 43.0hPa | 2.6V | 01:48:00 | 01:49:52 | 00:00:00 | |
| PG1ADW-2 | 2026-09-04 05:28:59 | 47.43618 | 11.58586 | 184° | 15km/h | 21989m | -14.8m/s | -54.1°C | 3.7% | 42.9hPa | 2.6V | 01:48:00 | 00:00:00 | 00:00:00 | |
| BAUMI2-15 | 2026-09-04 05:28:58 | 47.43622 | 11.58586 | 185° | 15km/h | 22004m | -15.6m/s | -54.1°C | 3.7% | 42.8hPa | 2.6V | 00:00:00 | 01:49:50 | 00:00:00 | |
| DO3MHA-12 | 2026-09-04 05:28:57 | 47.43626 | 11.58587 | 185° | 13km/h | 22019m | -14.9m/s | -54.1°C | 3.7% | 42.7hPa | 2.6V | 00:00:00 | 01:49:49 | 00:00:00 | |
| OE5MMP-10 | 2026-09-04 05:28:56 | 47.43630 | 11.58587 | 180° | 13km/h | 22034m | -15.0m/s | -54.2°C | 3.7% | 42.6hPa | 2.6V | 01:48:00 | 01:49:48 | 00:00:00 | |
| OM5KV | 2026-09-04 05:28:55 | 47.43629 | 11.58587 | 181° | 15km/h | 22034m | -15.0m/s | -54.2°C | 0.7% | 42.7hPa | 2.6V | 01:48:00 | 00:00:00 | 00:00:00 | |
| DM0DOS-11 | 2026-09-04 05:28:54 | 47.43642 | 11.58584 | 156° | 11km/h | 22094m | -14.8m/s | -54.5°C | 3.9% | 42.2hPa | 2.6V | 01:48:53 | 01:49:44 | 00:00:00 | |
| DL6DJ-15 | 2026-09-04 05:28:54 | 47.43640 | 11.58586 | 164° | 11km/h | 22079m | -15.1m/s | -54.5°C | 0.7% | 42.4hPa | 2.6V | 00:00:00 | 00:00:00 | 00:00:00 | |
| BAUMI2-15 | 2026-09-04 05:28:53 | 47.43640 | 11.58586 | 165° | 13km/h | 22080m | -15.0m/s | -54.4°C | 3.8% | 42.3hPa | 2.6V | 01:48:00 | 01:49:45 | 00:00:00 | |
| DB0UT-7 | 2026-09-04 05:28:51 | 47.43645 | 11.58582 | 145° | 18km/h | 22109m | -14.8m/s | -54.4°C | 3.9% | 42.1hPa | 2.6V | 00:00:00 | 00:00:00 | 00:00:00 | |
| OM5KV | 2026-09-04 05:28:50 | 47.43645 | 11.58582 | 146° | 11km/h | 22109m | -14.8m/s | -54.5°C | 0.8% | 42.2hPa | 2.6V | 01:48:00 | 00:00:00 | 00:00:00 | |
| OM5KV | 2026-09-04 05:28:49 | 47.43647 | 11.58579 | 132° | 13km/h | 22124m | -15.0m/s | -54.5°C | 0.8% | 42.1hPa | 2.6V | 01:48:00 | 00:00:00 | 00:00:00 | |
| OE3JTB-15 | 2026-09-04 05:28:48 | 47.43651 | 11.58571 | 118° | 18km/h | 22154m | -14.8m/s | -54.6°C | 4.0% | 41.8hPa | 2.6V | 01:48:00 | 00:00:00 | 00:00:00 | |
| DO3MHA-12 | 2026-09-04 05:28:47 | 47.43653 | 11.58565 | 117° | 18km/h | 22169m | -14.9m/s | -54.6°C | 4.0% | 41.7hPa | 2.6V | 01:48:00 | 01:49:39 | 00:00:00 | |
| OE5MMP-10 | 2026-09-04 05:28:46 | 47.43655 | 11.58560 | 117° | 18km/h | 22184m | -15.1m/s | -54.7°C | 4.0% | 41.6hPa | 2.6V | 00:00:00 | 01:49:38 | 00:00:00 | |
| OM5KV | 2026-09-04 05:28:45 | 47.43655 | 11.58560 | 117° | 16km/h | 22184m | -15.2m/s | -54.7°C | 0.8% | 41.7hPa | 2.6V | 01:49:00 | 00:00:00 | 00:00:00 | |
| DM0DOS-11 | 2026-09-04 05:28:43 | 47.43666 | 11.58539 | 140° | 18km/h | 22246m | -15.7m/s | -54.9°C | 4.2% | 41.3hPa | 2.6V | 01:49:03 | 01:49:34 | 00:00:00 | |
| BAUMI2-15 | 2026-09-04 05:28:43 | 47.43662 | 11.58544 | 133° | 18km/h | 22231m | -15.6m/s | -54.9°C | 4.1% | 41.4hPa | 2.6V | 01:49:00 | 01:49:35 | 00:00:00 | |
| PG1ADW-2 | 2026-09-04 05:28:39 | 47.43678 | 11.58528 | 156° | 18km/h | 22293m | -15.4m/s | -54.6°C | 4.1% | 40.9hPa | 2.6V | 00:00:00 | 00:00:00 | 00:00:00 | |
| BAUMI2-15 | 2026-09-04 05:28:38 | 47.43683 | 11.58525 | 158° | 20km/h | 22309m | -15.6m/s | -54.6°C | 4.1% | 40.8hPa | 2.6V | 00:00:00 | 01:49:30 | 00:00:00 | |
| DO3MHA-12 | 2026-09-04 05:28:37 | 47.43688 | 11.58522 | 161° | 18km/h | 22324m | -15.5m/s | -54.4°C | 4.1% | 40.8hPa | 2.6V | 00:00:00 | 01:49:29 | 00:00:00 | |
| DO3MHA-11 | 2026-09-04 05:28:36 | 47.43693 | 11.58519 | 161° | 18km/h | 22340m | -15.7m/s | -54.3°C | 4.0% | 40.6hPa | 2.6V | 00:00:00 | 01:49:28 | 00:00:00 | |
| DF1GD-15 | 2026-09-04 05:28:35 | 47.43693 | 11.58519 | 162° | 20km/h | 22340m | -15.8m/s | -54.3°C | 0.8% | 40.7hPa | 2.6V | 01:49:00 | 00:00:00 | 00:00:00 | |
| DG1MFX-10 | 2026-09-04 05:28:34 | 47.43697 | 11.58517 | 163° | 18km/h | 22356m | -15.3m/s | -54.1°C | 0.8% | 40.6hPa | 2.6V | 01:49:00 | 00:00:00 | 00:00:00 | |
| DM0DOS-11 | 2026-09-04 05:28:33 | 47.43710 | 11.58512 | 170° | 16km/h | 22401m | -15.3m/s | -53.6°C | 3.7% | 40.3hPa | 2.6V | 01:49:13 | 01:49:24 | 00:00:00 | |
| DL1ZP-14 | 2026-09-04 05:28:33 | 47.43710 | 11.58512 | 170° | 16km/h | 22401m | -15.3m/s | -53.6°C | 0.7% | 40.3hPa | 2.6V | 00:00:00 | 00:00:00 | 00:00:00 | |
| DK5PH-5 | 2026-09-04 05:28:30 | 47.43719 | 11.58510 | 178° | 11km/h | 22432m | -15.6m/s | -53.3°C | 3.6% | 40.0hPa | 2.7V | 00:00:00 | 01:49:22 | 00:00:00 | |
| OM5KV | 2026-09-04 05:28:28 | 47.43727 | 11.58511 | 186° | 18km/h | 22463m | -15.8m/s | -53.2°C | 0.7% | 39.9hPa | 2.6V | 01:49:00 | 00:00:00 | 00:00:00 | |
| DO3MHA-12 | 2026-09-04 05:28:27 | 47.43732 | 11.58512 | 190° | 16km/h | 22479m | -15.5m/s | -53.1°C | 3.6% | 39.7hPa | 2.6V | 01:49:00 | 01:49:19 | 00:00:00 | |
| DO3MHA-11 | 2026-09-04 05:28:26 | 47.43737 | 11.58513 | 195° | 16km/h | 22494m | -15.7m/s | -52.9°C | 3.5% | 39.6hPa | 2.6V | 01:49:00 | 01:49:18 | 00:00:00 | |
| DM0DOS-11 | 2026-09-04 05:28:23 | 47.43754 | 11.58524 | 211° | 18km/h | 22557m | -15.9m/s | -53°C | 3.5% | 39.3hPa | 2.6V | 01:49:23 | 01:49:14 | 00:00:00 | |
| DL6DJ-15 | 2026-09-04 05:28:23 | 47.43754 | 11.58524 | 211° | 16km/h | 22558m | -15.9m/s | -53.0°C | 0.6% | 39.3hPa | 2.6V | 00:00:00 | 00:00:00 | 00:00:00 | |
| OE5DXL-15 | 2026-09-04 05:28:21 | 47.43758 | 11.58528 | 217° | 13km/h | 22573m | -15.7m/s | -53.0°C | 3.5% | 39.2hPa | 2.6V | 01:49:00 | 00:00:00 | 00:00:00 | |
| OM5KV | 2026-09-04 05:28:20 | 47.43758 | 11.58528 | 218° | 16km/h | 22573m | -15.8m/s | -53.1°C | 0.7% | 39.2hPa | 2.6V | 01:49:00 | 00:00:00 | 00:00:00 | |
| PG1ADW-2 | 2026-09-04 05:28:19 | 47.43764 | 11.58536 | 224° | 9km/h | 22605m | -15.7m/s | -53.2°C | 3.6% | 39.0hPa | 2.6V | 01:49:00 | 01:49:11 | 00:00:00 | |
| BAUMI2-15 | 2026-09-04 05:28:18 | 47.43767 | 11.58539 | 224° | 9km/h | 22621m | -15.8m/s | -53.2°C | 3.7% | 38.9hPa | 2.6V | 00:00:00 | 01:49:10 | 00:00:00 | |
| DO3MHA-12 | 2026-09-04 05:28:17 | 47.43769 | 11.58542 | 227° | 5km/h | 22637m | -15.7m/s | -53.2°C | 3.6% | 38.8hPa | 2.6V | 00:00:00 | 01:49:09 | 00:00:00 | |
| OE5MMP-10 | 2026-09-04 05:28:16 | 47.43771 | 11.58545 | 228° | 5km/h | 22653m | -15.6m/s | -53.1°C | 3.6% | 38.7hPa | 2.6V | 01:49:00 | 01:49:08 | 00:00:00 | |
| OM5KV | 2026-09-04 05:28:15 | 47.43771 | 11.58545 | 229° | 11km/h | 22653m | -15.6m/s | -53.2°C | 0.7% | 38.7hPa | 2.7V | 01:49:00 | 00:00:00 | 00:00:00 | |
| DF1GD-15 | 2026-09-04 05:28:14 | 47.43772 | 11.58548 | 230° | 9km/h | 22668m | -15.7m/s | -53.2°C | 0.7% | 38.7hPa | 2.7V | 01:49:00 | 00:00:00 | 00:00:00 | |
| BAUMI2-15 | 2026-09-04 05:28:13 | 47.43774 | 11.58552 | 229° | 4km/h | 22700m | -16.1m/s | -53.2°C | 3.6% | 38.4hPa | 2.7V | 01:49:00 | 01:49:05 | 00:00:00 | |
| DM0DOS-11 | 2026-09-04 05:28:11 | 47.43776 | 11.58554 | 197° | 2km/h | 22748m | -16m/s | -53.3°C | 3.8% | 38.2hPa | 2.7V | 01:49:35 | 01:49:02 | 00:00:00 | |
| OE5DRO-10 | 2026-09-04 05:28:09 | 47.43777 | 11.58554 | 164° | 15km/h | 22764m | -15.9m/s | -53.1°C | 3.7% | 38.0hPa | 2.6V | 01:49:00 | 00:00:00 | 00:00:00 | |
| BAUMI2-15 | 2026-09-04 05:28:08 | 47.43778 | 11.58554 | 160° | 7km/h | 22780m | -15.9m/s | -52.9°C | 3.5% | 37.9hPa | 2.6V | 00:00:00 | 01:49:00 | 00:00:00 | |
| DO3MHA-12 | 2026-09-04 05:28:07 | 47.43779 | 11.58553 | 154° | 13km/h | 22796m | -15.9m/s | -52.9°C | 3.5% | 37.8hPa | 2.6V | 01:49:00 | 01:48:59 | 00:00:00 | |
| OE5MMP-10 | 2026-09-04 05:28:06 | 47.43780 | 11.58552 | 160° | 15km/h | 22812m | -16.3m/s | -52.9°C | 3.6% | 37.7hPa | 2.6V | 00:00:00 | 01:48:58 | 00:00:00 | |
| OM5KV | 2026-09-04 05:28:05 | 47.43780 | 11.58552 | 160° | 7km/h | 22812m | -16.4m/s | -53.0°C | 0.7% | 37.8hPa | 2.6V | 01:49:00 | 00:00:00 | 00:00:00 | |
| NBG1-10 | 2026-09-04 05:28:04 | 47.43784 | 11.58550 | 158° | 20km/h | 22846m | -16.2m/s | -53.0°C | 3.6% | 37.6hPa | 2.6V | 01:49:00 | 01:48:56 | 00:00:00 | |
| BAUMI2-15 | 2026-09-04 05:28:03 | 47.43786 | 11.58548 | 158° | 15km/h | 22862m | -15.6m/s | -53.0°C | 3.6% | 37.4hPa | 2.6V | 01:49:00 | 01:48:55 | 00:00:00 | |
| DM0DOS-11 | 2026-09-04 05:28:02 | 47.43811 | 11.58534 | 160° | 22km/h | 22958m | -16.3m/s | -53.4°C | 3.9% | 36.9hPa | 2.6V | 01:49:48 | 01:48:49 | 00:00:00 | |
| DL1ZP-14 | 2026-09-04 05:28:01 | 47.43793 | 11.58545 | 157° | 15km/h | 22893m | -16.1m/s | -53.1°C | 0.7% | 37.3hPa | 2.6V | 00:00:00 | 00:00:00 | 00:00:00 | |
| SONDE2-11 | 2026-09-04 05:27:59 | 47.43801 | 11.58540 | 158° | 18km/h | 22926m | -16.5m/s | -53.2°C | -1.0% | 37.1hPa | 2.6V | 00:00:00 | 00:00:00 | 00:00:00 | |
| DB0ND-19 | 2026-09-04 05:27:56 | 47.43821 | 11.58529 | 163° | 20km/h | 22991m | -16.3m/s | -53.2°C | 0.7% | 36.8hPa | 2.6V | 00:00:00 | 00:00:00 | 00:00:00 | |
| DL6DJ-15 | 2026-09-04 05:27:52 | 47.43843 | 11.58524 | 182° | 24km/h | 23058m | -16.6m/s | -52.6°C | 0.7% | 36.4hPa | 2.6V | 00:00:00 | 00:00:00 | 00:00:00 | |
| OE5DXL-15 | 2026-09-04 05:27:51 | 47.43843 | 11.58524 | 183° | 18km/h | 23058m | -16.5m/s | -52.6°C | 3.6% | 36.3hPa | 2.6V | 00:00:00 | 00:00:00 | 00:00:00 | |
| DM0DOS-11 | 2026-09-04 05:27:50 | 47.43868 | 11.58533 | 202° | 27km/h | 23124m | -16.5m/s | -52.4°C | 3.5% | 36hPa | 2.6V | 01:49:58 | 01:48:39 | 00:00:00 | |
| OE5DRO-10 | 2026-09-04 05:27:50 | 47.43849 | 11.58525 | 187° | 22km/h | 23074m | -16.4m/s | -52.5°C | 3.6% | 36.2hPa | 2.6V | 00:00:00 | 00:00:00 | 00:00:00 | |
| DO3MHA-12 | 2026-09-04 05:27:47 | 47.43868 | 11.58532 | 203° | 26km/h | 23124m | -16.5m/s | -52.3°C | 3.5% | 36.0hPa | 2.6V | 01:49:00 | 01:48:39 | 00:00:00 | |
| DO3MHA-11 | 2026-09-04 05:27:46 | 47.43875 | 11.58537 | 209° | 24km/h | 23140m | -16.6m/s | -52.3°C | 3.4% | 35.9hPa | 2.6V | 01:49:00 | 01:48:38 | 00:00:00 | |
| DM0DOS-11 | 2026-09-04 05:27:42 | 47.43917 | 11.58591 | 238° | 16km/h | 23291m | -16.5m/s | -52.3°C | 3.4% | 35.1hPa | 2.6V | 01:50:08 | 01:48:29 | 00:00:00 | |
| OM5KV | 2026-09-04 05:27:41 | 47.43898 | 11.58561 | 221° | 27km/h | 23207m | -16.9m/s | -52.2°C | 0.6% | 35.5hPa | 2.6V | 01:50:00 | 00:00:00 | 00:00:00 | |
| OM5KV | 2026-09-04 05:27:40 | 47.43903 | 11.58567 | 224° | 26km/h | 23224m | -17.0m/s | -52.2°C | 0.6% | 35.5hPa | 2.6V | 01:50:00 | 00:00:00 | 00:00:00 | |
| PG1ADW-2 | 2026-09-04 05:27:39 | 47.43912 | 11.58580 | 230° | 13km/h | 23258m | -17.0m/s | -52.2°C | 3.4% | 35.2hPa | 2.6V | 01:50:00 | 00:00:00 | 00:00:00 | |
| DO3MHA-12 | 2026-09-04 05:27:37 | 47.43917 | 11.58591 | 239° | 9km/h | 23291m | -16.5m/s | -52.3°C | 3.4% | 35.1hPa | 2.7V | 00:00:00 | 01:48:29 | 00:00:00 | |
| OM5KV | 2026-09-04 05:27:36 | 47.43919 | 11.58596 | 245° | 15km/h | 23308m | -16.9m/s | -52.3°C | 0.6% | 35.0hPa | 2.7V | 01:50:00 | 00:00:00 | 00:00:00 | |
| OE5WHR-10 | 2026-09-04 05:27:34 | 47.43921 | 11.58604 | 255° | 13km/h | 23342m | -17.0m/s | -52.2°C | 3.5% | 34.8hPa | 2.7V | 01:50:00 | 00:00:00 | 00:00:00 | |
| DF1GD-15 | 2026-09-04 05:27:33 | 47.43921 | 11.58604 | 255° | 9km/h | 23342m | -17.0m/s | -52.3°C | 0.7% | 34.8hPa | 2.6V | 01:50:00 | 00:00:00 | 00:00:00 | |
| OE5REO-15 | 2026-09-04 05:27:32 | 47.43921 | 11.58610 | 266° | 7km/h | 23376m | -17.4m/s | -52.2°C | 0.6% | 34.6hPa | 2.6V | 01:50:00 | 00:00:00 | 00:00:00 | |
| NBG1-10 | 2026-09-04 05:27:31 | 47.43922 | 11.58613 | 264° | 15km/h | 23393m | -17.1m/s | -52.2°C | 3.5% | 34.5hPa | 2.6V | 00:00:00 | 01:48:23 | 00:00:00 | |
| DM0DOS-11 | 2026-09-04 05:27:30 | 47.43924 | 11.58625 | 248° | 9km/h | 23461m | -16.9m/s | -51.8°C | 3.3% | 34.2hPa | 2.6V | 01:50:18 | 01:48:19 | 00:00:00 | |
| DK5PH-5 | 2026-09-04 05:27:30 | 47.43922 | 11.58616 | 259° | 15km/h | 23410m | -17.2m/s | -52.1°C | 3.4% | 34.4hPa | 2.6V | 00:00:00 | 01:48:22 | 00:00:00 | |
| DO3MHA-12 | 2026-09-04 05:27:27 | 47.43924 | 11.58625 | 249° | 13km/h | 23461m | -16.8m/s | -51.8°C | 3.3% | 34.1hPa | 2.6V | 01:50:00 | 01:48:19 | 00:00:00 | |
| OE5MMP-10 | 2026-09-04 05:27:26 | 47.43925 | 11.58628 | 252° | 13km/h | 23478m | -17.2m/s | -51.9°C | 3.4% | 34.0hPa | 2.6V | 00:00:00 | 01:48:18 | 00:00:00 | |
| OE9MKV-15 | 2026-09-04 05:27:25 | 47.43926 | 11.58632 | 252° | 16km/h | 23496m | -17.5m/s | -51.9°C | 3.3% | 33.9hPa | 2.6V | 01:50:00 | 01:48:17 | 00:00:00 | |
| OM5KV | 2026-09-04 05:27:24 | 47.43926 | 11.58632 | 252° | 11km/h | 23496m | -17.6m/s | -51.9°C | 0.6% | 34.0hPa | 2.6V | 01:50:00 | 00:00:00 | 00:00:00 | |
| DF3TZ-5 | 2026-09-04 05:27:23 | 47.43930 | 11.58656 | 257° | 13km/h | 23580m | -17.1m/s | 0°C | -1.0% | 33.5hPa | 2.6V | 00:00:00 | 00:00:00 | 00:00:00 | |
| DM0DOS-11 | 2026-09-04 05:27:22 | 47.43933 | 11.58672 | 255° | 16km/h | 23632m | -17.4m/s | -52.4°C | 3.5% | 33.3hPa | 2.6V | 01:50:28 | 01:48:09 | 00:00:00 | |
| OE5DXL-15 | 2026-09-04 05:27:21 | 47.43929 | 11.58651 | 262° | 15km/h | 23563m | -16.9m/s | -52.0°C | 3.4% | 33.6hPa | 2.7V | 01:50:00 | 00:00:00 | 00:00:00 | |
| DL6DJ-15 | 2026-09-04 05:27:20 | 47.43930 | 11.58656 | 257° | 13km/h | 23580m | -17.1m/s | -52.1°C | 0.6% | 33.5hPa | 2.6V | 00:00:00 | 00:00:00 | 00:00:00 | |
| OM5KV | 2026-09-04 05:27:19 | 47.43930 | 11.58661 | 258° | 15km/h | 23597m | -17.3m/s | -52.3°C | 0.6% | 33.4hPa | 2.6V | 01:50:00 | 00:00:00 | 00:00:00 | |
| DO3MHA-12 | 2026-09-04 05:27:17 | 47.43932 | 11.58672 | 256° | 18km/h | 23632m | -17.4m/s | -52.3°C | 3.5% | 33.2hPa | 2.6V | 00:00:00 | 01:48:09 | 00:00:00 | |
| OE3JTB-15 | 2026-09-04 05:27:16 | 47.43934 | 11.58678 | 256° | 15km/h | 23649m | -17.2m/s | -52.3°C | 3.5% | 33.2hPa | 2.6V | 00:00:00 | 00:00:00 | 00:00:00 | |
| OE5REO-15 | 2026-09-04 05:27:15 | 47.43933 | 11.58678 | 256° | 16km/h | 23649m | -17.2m/s | -52.3°C | 0.6% | 33.2hPa | 2.6V | 01:50:00 | 00:00:00 | 00:00:00 | |
| OM5KV | 2026-09-04 05:27:14 | 47.43934 | 11.58684 | 258° | 16km/h | 23667m | -17.3m/s | -52.4°C | 0.6% | 33.1hPa | 2.6V | 01:50:00 | 00:00:00 | 00:00:00 | |
| OE5WHR-10 | 2026-09-04 05:27:13 | 47.43936 | 11.58697 | 264° | 15km/h | 23701m | -17.0m/s | -52.4°C | 3.5% | 32.8hPa | 2.6V | 00:00:00 | 00:00:00 | 00:00:00 | |
| OE5DRO-10 | 2026-09-04 05:27:12 | 47.43936 | 11.58704 | 268° | 15km/h | 23718m | -17.3m/s | -52.4°C | 3.5% | 32.8hPa | 2.6V | 00:00:00 | 00:00:00 | 00:00:00 | |
| DG1MFX-10 | 2026-09-04 05:27:11 | 47.43936 | 11.58704 | 268° | 18km/h | 23718m | -17.3m/s | -52.5°C | 0.7% | 32.8hPa | 2.6V | 01:50:00 | 00:00:00 | 00:00:00 | |
| DM0DOS-11 | 2026-09-04 05:27:10 | 47.43934 | 11.58737 | 280° | 18km/h | 23804m | -17.4m/s | -52.3°C | 3.5% | 32.4hPa | 2.6V | 01:50:38 | 01:47:59 | 00:00:00 | |
| PETON7-10 | 2026-09-04 05:27:09 | 47.43936 | 11.58723 | 279° | 13km/h | 23770m | -17.4m/s | -52.5°C | 3.6% | 32.5hPa | 2.6V | 01:50:00 | 00:00:00 | 00:00:00 | |
| OM5KV | 2026-09-04 05:27:08 | 47.43936 | 11.58723 | 280° | 18km/h | 23770m | -17.5m/s | -52.6°C | 0.7% | 32.6hPa | 2.6V | 01:50:00 | 00:00:00 | 00:00:00 | |
| DO3MHA-12 | 2026-09-04 05:27:07 | 47.43934 | 11.58737 | 281° | 16km/h | 23805m | -17.3m/s | -52.2°C | 3.5% | 32.3hPa | 2.6V | 01:50:00 | 01:47:59 | 00:00:00 | |
| DO3MHA-11 | 2026-09-04 05:27:06 | 47.43933 | 11.58743 | 281° | 16km/h | 23822m | -17.5m/s | -52.1°C | 3.4% | 32.3hPa | 2.6V | 01:50:00 | 01:47:58 | 00:00:00 | |
| DM0DOS-11 | 2026-09-04 05:27:02 | 47.43917 | 11.58788 | 329° | 11km/h | 23980m | -17.8m/s | -52.1°C | 3.4% | 31.5hPa | 2.6V | 01:50:48 | 01:47:49 | 00:00:00 | |
| DL1ZP-14 | 2026-09-04 05:26:59 | 47.43922 | 11.58782 | 314° | 13km/h | 23944m | -17.1m/s | -51.9°C | 0.6% | 31.7hPa | 2.7V | 00:00:00 | 00:00:00 | 00:00:00 | |
| DB0ND-19 | 2026-09-04 05:26:54 | 47.43907 | 11.58793 | 337° | 4km/h | 24069m | -17.9m/s | -52.2°C | 0.6% | 31.1hPa | 2.7V | 00:00:00 | 00:00:00 | 00:00:00 | |
| OE5DRO-10 | 2026-09-04 05:26:53 | 47.43908 | 11.58793 | 355° | 5km/h | 24051m | -17.9m/s | -52.2°C | 3.4% | 31.1hPa | 2.7V | 01:50:00 | 00:00:00 | 00:00:00 | |
| OE5WHR-10 | 2026-09-04 05:26:52 | 47.43907 | 11.58793 | 338° | 5km/h | 24069m | -17.9m/s | -52.2°C | 3.4% | 31.1hPa | 2.7V | 01:50:00 | 01:47:44 | 00:00:00 | |
| DB0UT-7 | 2026-09-04 05:26:51 | 47.43906 | 11.58794 | 329° | 7km/h | 24087m | -18.1m/s | -52.2°C | 3.5% | 31.0hPa | 2.7V | 00:00:00 | 00:00:00 | 00:00:00 | |
| DM0DOS-11 | 2026-09-04 05:26:50 | 47.43900 | 11.58796 | 356° | 7km/h | 24158m | -17.6m/s | -52.3°C | 3.5% | 30.7hPa | 2.6V | 01:50:58 | 01:47:39 | 00:00:00 | |
| IN3IJJ | 2026-09-04 05:26:49 | 47.43905 | 11.58795 | 333° | 5km/h | 24105m | -17.8m/s | -52.3°C | 0.6% | 30.9hPa | 2.6V | 01:51:00 | 00:00:00 | 00:00:00 | |
| IN3HCDX | 2026-09-04 05:26:48 | 47.43903 | 11.58795 | 332° | 7km/h | 24122m | -17.3m/s | -52.3°C | 0.6% | 30.8hPa | 2.6V | 01:51:00 | 00:00:00 | 00:00:00 | |
| DO3MHA-12 | 2026-09-04 05:26:47 | 47.43900 | 11.58796 | 357° | 5km/h | 24158m | -17.6m/s | -52.2°C | 3.5% | 30.6hPa | 2.6V | 01:50:00 | 01:47:39 | 00:00:00 | |
| OE5MMP-10 | 2026-09-04 05:26:46 | 47.43898 | 11.58796 | 18° | 5km/h | 24176m | -18.2m/s | -52.2°C | 3.5% | 30.5hPa | 2.6V | 00:00:00 | 01:47:38 | 00:00:00 | |
| PG1ADW-2 | 2026-09-04 05:26:44 | 47.43894 | 11.58793 | 45° | 13km/h | 24212m | -17.8m/s | -52.1°C | 3.5% | 30.4hPa | 2.6V | 01:51:00 | 01:47:36 | 00:00:00 | |
| DM0DOS-11 | 2026-09-04 05:26:42 | 47.43887 | 11.58786 | 313° | 2km/h | 24340m | -18.6m/s | -51.6°C | 3.4% | 29.8hPa | 2.6V | 01:51:08 | 01:47:29 | 00:00:00 | |
| OM5KV | 2026-09-04 05:26:39 | 47.43889 | 11.58787 | 46° | 5km/h | 24285m | -17.9m/s | -52.0°C | 0.6% | 30.1hPa | 2.7V | 01:51:00 | 00:00:00 | 00:00:00 | |
| OM5KV | 2026-09-04 05:26:38 | 47.43888 | 11.58786 | 54° | 2km/h | 24304m | -18.7m/s | -51.8°C | 0.6% | 30.0hPa | 2.7V | 01:51:00 | 00:00:00 | 00:00:00 | |
| DO3MHA-12 | 2026-09-04 05:26:37 | 47.43887 | 11.58786 | 314° | 7km/h | 24340m | -18.6m/s | -51.6°C | 3.4% | 29.8hPa | 2.7V | 00:00:00 | 01:47:29 | 00:00:00 | |
| PETON7-10 | 2026-09-04 05:26:36 | 47.43887 | 11.58786 | 326° | 9km/h | 24359m | -19.2m/s | -51.5°C | 3.4% | 29.7hPa | 2.7V | 01:51:00 | 00:00:00 | 00:00:00 | |
| DF7PN | 2026-09-04 05:26:35 | 47.43886 | 11.58787 | 326° | 4km/h | 24378m | -18.7m/s | -51.5°C | 0.6% | -1.0hPa | 2.6V | 00:00:00 | 00:00:00 | 00:00:00 | |
| OE5DRO-10 | 2026-09-04 05:26:34 | 47.43885 | 11.58787 | 358° | 13km/h | 24397m | -18.8m/s | -51.5°C | 3.3% | 29.5hPa | 2.6V | 00:00:00 | 00:00:00 | 00:00:00 | |
| DF2AP-13 | 2026-09-04 05:26:33 | 47.43884 | 11.58787 | 38° | 15km/h | 24417m | -19.8m/s | -51.5°C | 3.4% | 29.5hPa | 2.6V | 01:51:00 | 01:47:25 | 00:00:00 | |
| OE5WHR-10 | 2026-09-04 05:26:31 | 47.43881 | 11.58782 | 65° | 15km/h | 24457m | -18.5m/s | -51.5°C | 3.4% | 29.3hPa | 2.6V | 00:00:00 | 00:00:00 | 00:00:00 | |
| DM0DOS-11 | 2026-09-04 05:26:30 | 47.43873 | 11.58764 | 45° | 13km/h | 24536m | -20.4m/s | -51.6°C | 3.3% | 28.9hPa | 2.6V | 01:51:18 | 01:47:19 | 00:00:00 | |
| DK5PH-5 | 2026-09-04 05:26:30 | 47.43880 | 11.58778 | 66° | 16km/h | 24476m | -19.3m/s | -51.5°C | 3.3% | 29.2hPa | 2.6V | 00:00:00 | 01:47:22 | 00:00:00 | |
| DL1ZP-14 | 2026-09-04 05:26:28 | 47.43876 | 11.58768 | 52° | 13km/h | 24516m | -19.7m/s | -51.6°C | 0.6% | 29.0hPa | 2.6V | 00:00:00 | 00:00:00 | 00:00:00 | |
| DO3MHA-12 | 2026-09-04 05:26:27 | 47.43873 | 11.58764 | 46° | 13km/h | 24537m | -20.4m/s | -51.5°C | 3.3% | 28.9hPa | 2.6V | 01:51:00 | 01:47:19 | 00:00:00 | |
| DO3MHA-11 | 2026-09-04 05:26:26 | 47.43871 | 11.58761 | 38° | 13km/h | 24557m | -20.1m/s | -51.6°C | 3.4% | 28.8hPa | 2.7V | 01:51:00 | 01:47:18 | 00:00:00 | |
| OE9MKV-15 | 2026-09-04 05:26:25 | 47.43868 | 11.58758 | 19° | 16km/h | 24576m | -18.0m/s | -51.6°C | 3.4% | 28.7hPa | 2.7V | 01:51:00 | 01:47:17 | 00:00:00 | |
| S52SK | 2026-09-04 05:26:24 | 47.43867 | 11.58758 | 20° | 15km/h | 24576m | -18.0m/s | -51.7°C | 0.6% | 28.8hPa | 2.6V | 01:51:00 | 00:00:00 | 00:00:00 | |
| OM5KV | 2026-09-04 05:26:23 | 47.43864 | 11.58757 | 14° | 11km/h | 24595m | -18.9m/s | -51.7°C | 0.6% | 28.7hPa | 2.6V | 01:51:00 | 00:00:00 | 00:00:00 | |
| DM0DOS-11 | 2026-09-04 05:26:22 | 47.43858 | 11.58729 | 109° | 18km/h | 24731m | -19.8m/s | -51.5°C | 3.3% | 28.1hPa | 2.6V | 01:51:28 | 01:47:09 | 00:00:00 | |
| DB0UT-7 | 2026-09-04 05:26:21 | 47.43858 | 11.58751 | 67° | 18km/h | 24653m | -19.5m/s | -51.7°C | 3.4% | 28.4hPa | 2.6V | 01:51:00 | 01:47:13 | 00:00:00 | |
| DG1MJG | 2026-09-04 05:26:20 | 47.43858 | 11.58751 | 68° | 9km/h | 24653m | -19.6m/s | -51.8°C | 0.6% | 28.4hPa | 2.6V | 01:51:00 | 00:00:00 | 00:00:00 | |
| DB0NH | 2026-09-04 05:26:19 | 47.43857 | 11.58742 | 89° | 18km/h | 24692m | -18.8m/s | -51.6°C | 3.4% | 28.2hPa | 2.6V | 01:51:00 | 01:47:11 | 00:00:00 | |
| OE3JTB-15 | 2026-09-04 05:26:18 | 47.43857 | 11.58736 | 96° | 18km/h | 24711m | -19.0m/s | -51.5°C | 3.3% | 28.1hPa | 2.6V | 00:00:00 | 00:00:00 | 00:00:00 | |
| DO3MHA-12 | 2026-09-04 05:26:17 | 47.43858 | 11.58729 | 110° | 16km/h | 24731m | -19.8m/s | -51.4°C | 3.3% | 28.0hPa | 2.6V | 00:00:00 | 01:47:09 | 00:00:00 | |
| OE5MMP-10 | 2026-09-04 05:26:16 | 47.43859 | 11.58723 | 111° | 16km/h | 24751m | -20.4m/s | -51.4°C | 3.3% | 28.0hPa | 2.6V | 01:51:00 | 01:47:08 | 00:00:00 | |
| OE5DRO-10 | 2026-09-04 05:26:15 | 47.43862 | 11.58718 | 134° | 18km/h | 24772m | -22.7m/s | -51.3°C | 3.3% | 27.9hPa | 2.7V | 01:51:00 | 00:00:00 | 00:00:00 | |
| S52SK | 2026-09-04 05:26:12 | 47.43867 | 11.58710 | 153° | 15km/h | 24816m | -21.5m/s | -51.4°C | 0.6% | 27.8hPa | 2.6V | 00:00:00 | 00:00:00 | 00:00:00 | |
| OE5REO-15 | 2026-09-04 05:26:11 | 47.43871 | 11.58707 | 152° | 15km/h | 24837m | -19.2m/s | -51.5°C | 0.6% | 27.6hPa | 2.6V | 01:52:00 | 00:00:00 | 00:00:00 | |
| DM0DOS-11 | 2026-09-04 05:26:10 | 47.43889 | 11.58693 | 146° | 20km/h | 24936m | -20.3m/s | -51.3°C | 3.3% | 27.2hPa | 2.6V | 01:51:38 | 01:46:59 | 00:00:00 | |
| OE5WHR-10 | 2026-09-04 05:26:10 | 47.43878 | 11.58702 | 153° | 18km/h | 24875m | -19.7m/s | -51.4°C | 3.3% | 27.4hPa | 2.6V | 01:51:00 | 00:00:00 | 00:00:00 | |
| DG1MFX-10 | 2026-09-04 05:26:09 | 47.43878 | 11.58702 | 154° | 15km/h | 24875m | -19.7m/s | -51.5°C | 0.6% | 27.5hPa | 2.6V | 01:52:00 | 00:00:00 | 00:00:00 | |
| DO3MHA-12 | 2026-09-04 05:26:07 | 47.43889 | 11.58692 | 147° | 20km/h | 24936m | -20.3m/s | -51.2°C | 3.3% | 27.1hPa | 2.6V | 01:51:00 | 01:46:59 | 00:00:00 | |
| OE5MMP-10 | 2026-09-04 05:26:06 | 47.43893 | 11.58688 | 146° | 20km/h | 24956m | -19.2m/s | -51.2°C | 3.3% | 27.1hPa | 2.6V | 00:00:00 | 01:46:58 | 00:00:00 | |
| PETON7-10 | 2026-09-04 05:26:05 | 47.43897 | 11.58684 | 155° | 18km/h | 24976m | -19.9m/s | -51.3°C | 3.3% | 27.0hPa | 2.6V | 01:51:00 | 01:46:57 | 00:00:00 | |
| OM5KV | 2026-09-04 05:26:04 | 47.43897 | 11.58684 | 155° | 20km/h | 24976m | -20.0m/s | -51.3°C | 0.6% | 27.0hPa | 2.6V | 01:52:00 | 00:00:00 | 00:00:00 | |
| DF2AP-13 | 2026-09-04 05:26:03 | 47.43908 | 11.58679 | 162° | 18km/h | 25016m | -19.9m/s | -51.4°C | 3.4% | 26.8hPa | 2.6V | 00:00:00 | 01:46:55 | 00:00:00 | |
| IN3IJJ | 2026-09-04 05:26:02 | 47.43908 | 11.58679 | 163° | 22km/h | 25016m | -20.0m/s | -51.5°C | 0.6% | 26.9hPa | 2.6V | 00:00:00 | 00:00:00 | 00:00:00 | |
| DM0DOS-11 | 2026-09-04 05:26:02 | 47.43938 | 11.58673 | 180° | 15km/h | 25138m | -20m/s | -51.7°C | 3.5% | 26.3hPa | 2.6V | 01:51:48 | 01:46:49 | 00:00:00 | |
| DL1ZP-14 | 2026-09-04 05:25:57 | 47.43938 | 11.58673 | 180° | 15km/h | 25138m | -20.0m/s | -51.7°C | 0.6% | 26.4hPa | 2.6V | 00:00:00 | 00:00:00 | 00:00:00 | |
| SONDE2-11 | 2026-09-04 05:25:55 | 47.43959 | 11.58693 | 228° | 18km/h | 25267m | -22.6m/s | -51.4°C | -1.0% | 25.9hPa | 2.7V | 00:00:00 | 00:00:00 | 00:00:00 | |
| DH7VM-15 | 2026-09-04 05:25:54 | 47.43949 | 11.58679 | 215° | 16km/h | 25200m | -21.2m/s | -51.5°C | 0.6% | 26.1hPa | 2.7V | 00:00:00 | 00:00:00 | 00:00:00 | |
| OM5KV | 2026-09-04 05:25:53 | 47.43949 | 11.58679 | 215° | 16km/h | 25200m | -21.2m/s | -51.5°C | 0.6% | 26.1hPa | 2.7V | 01:52:00 | 00:00:00 | 00:00:00 | |
| BAUMI2-15 | 2026-09-04 05:25:52 | 47.43956 | 11.58688 | 229° | 18km/h | 25245m | -22.6m/s | -51.3°C | 3.3% | 25.9hPa | 2.7V | 01:51:00 | 01:46:44 | 00:00:00 | |
| OE5DXL-15 | 2026-09-04 05:25:51 | 47.43959 | 11.58693 | 229° | 15km/h | 25268m | -22.5m/s | -51.3°C | 3.3% | 25.8hPa | 2.7V | 00:00:00 | 00:00:00 | 00:00:00 | |
| DM0DOS-11 | 2026-09-04 05:25:50 | 47.43971 | 11.58710 | 215° | 15km/h | 25358m | -22.3m/s | -51.3°C | 3.3% | 25.5hPa | 2.6V | 01:51:58 | 01:46:39 | 00:00:00 | |
| OE3JTB-15 | 2026-09-04 05:25:49 | 47.43965 | 11.58703 | 222° | 18km/h | 25312m | -20.5m/s | -51.3°C | 3.4% | 25.6hPa | 2.6V | 01:51:00 | 00:00:00 | 00:00:00 | |
| DO3MHA-12 | 2026-09-04 05:25:47 | 47.43971 | 11.58710 | 216° | 16km/h | 25358m | -22.3m/s | -51.2°C | 3.3% | 25.5hPa | 2.6V | 01:51:00 | 01:46:39 | 00:00:00 | |
| DO3MHA-11 | 2026-09-04 05:25:46 | 47.43975 | 11.58713 | 201° | 16km/h | 25380m | -19.8m/s | -51.2°C | 3.4% | 25.3hPa | 2.6V | 01:51:00 | 01:46:38 | 00:00:00 | |
| DM0DOS-11 | 2026-09-04 05:25:42 | 47.44011 | 11.58713 | 230° | 5km/h | 25574m | -23.8m/s | -50.7°C | 3.3% | 24.7hPa | 2.6V | 01:52:08 | 01:46:29 | 00:00:00 | |
| BAUMI2-15 | 2026-09-04 05:25:42 | 47.43992 | 11.58712 | 173° | 16km/h | 25463m | -21.1m/s | -51.1°C | 3.3% | 25.0hPa | 2.6V | 01:52:00 | 01:46:34 | 00:00:00 | |
| OM5KV | 2026-09-04 05:25:40 | 47.43997 | 11.58712 | 175° | 22km/h | 25484m | -21.5m/s | -51.1°C | 0.6% | 25.0hPa | 2.6V | 01:52:00 | 00:00:00 | 00:00:00 | |
| OE5REO-15 | 2026-09-04 05:25:38 | 47.44006 | 11.58711 | 192° | 13km/h | 25529m | -23.6m/s | -51.0°C | 0.6% | 24.8hPa | 2.6V | 01:52:00 | 00:00:00 | 00:00:00 | |
| DO3MHA-12 | 2026-09-04 05:25:37 | 47.44010 | 11.58713 | 231° | 15km/h | 25574m | -23.7m/s | -50.7°C | 3.3% | 24.6hPa | 2.6V | 00:00:00 | 01:46:29 | 00:00:00 | |
| OE5MMP-10 | 2026-09-04 05:25:36 | 47.44011 | 11.58715 | 240° | 15km/h | 25598m | -22.9m/s | -50.7°C | 3.3% | 24.5hPa | 2.6V | 01:52:00 | 01:46:28 | 00:00:00 | |
| DF2AP-13 | 2026-09-04 05:25:33 | 47.44010 | 11.58729 | 287° | 11km/h | 25668m | -21.1m/s | -51.0°C | 3.4% | 24.3hPa | 2.6V | 01:52:00 | 01:46:25 | 00:00:00 | |
| PETON7-10 | 2026-09-04 05:25:32 | 47.44008 | 11.58734 | 300° | 9km/h | 25690m | -21.3m/s | -51.0°C | 3.4% | 24.1hPa | 2.7V | 01:52:00 | 00:00:00 | 00:00:00 | |
| DM0DOS-11 | 2026-09-04 05:25:31 | 47.44001 | 11.58764 | 341° | 5km/h | 25852m | -28.5m/s | -50.5°C | 3.1% | 23.7hPa | 2.7V | 01:52:19 | 01:46:18 | 00:00:00 | |
| DK5PH-5 | 2026-09-04 05:25:30 | 47.44005 | 11.58747 | 290° | 9km/h | 25737m | -29.2m/s | -50.6°C | 3.2% | 24.0hPa | 2.7V | 00:00:00 | 01:46:22 | 00:00:00 | |
| DF1GD-15 | 2026-09-04 05:25:29 | 47.44005 | 11.58747 | 290° | 18km/h | 25737m | -29.2m/s | -50.7°C | 0.6% | 24.1hPa | 2.6V | 01:52:00 | 00:00:00 | 00:00:00 | |
| OE5WHR-10 | 2026-09-04 05:25:28 | 47.44003 | 11.58759 | 289° | 9km/h | 25795m | -26.9m/s | -50.5°C | 3.2% | 23.8hPa | 2.6V | 01:52:00 | 00:00:00 | 00:00:00 | |
| DO3MHA-12 | 2026-09-04 05:25:27 | 47.44002 | 11.58763 | 292° | 7km/h | 25824m | -29.9m/s | -50.5°C | 3.1% | 23.7hPa | 2.6V | 01:52:00 | 01:46:19 | 00:00:00 | |
| OE5MMP-10 | 2026-09-04 05:25:26 | 47.44001 | 11.58764 | 342° | 7km/h | 25853m | -28.4m/s | -50.5°C | 3.1% | 23.6hPa | 2.6V | 00:00:00 | 01:46:18 | 00:00:00 | |
| OE9MKV-15 | 2026-09-04 05:25:24 | 47.43998 | 11.58762 | 48° | 11km/h | 25904m | -25.4m/s | -50.4°C | 3.1% | 23.4hPa | 2.6V | 01:52:00 | 01:46:16 | 00:00:00 | |
| BAUMI2-15 | 2026-09-04 05:25:22 | 47.43994 | 11.58753 | 65° | 7km/h | 25956m | -26.8m/s | -50.4°C | 3.1% | 23.2hPa | 2.6V | 01:52:00 | 01:46:14 | 00:00:00 | |
| DM0DOS-11 | 2026-09-04 05:25:21 | 47.43991 | 11.58752 | 256° | 2km/h | 26108m | -7.3m/s | -50.1°C | 3.2% | 22.6hPa | 2.6V | 01:52:29 | 01:46:08 | 00:00:00 | |
| OE5DXL-15 | 2026-09-04 05:25:21 | 47.43993 | 11.58749 | 61° | 9km/h | 25982m | -26.7m/s | -50.3°C | 3.0% | 23.1hPa | 2.6V | 01:52:00 | 00:00:00 | 00:00:00 | |
| OE5REO-15 | 2026-09-04 05:25:20 | 47.43993 | 11.58749 | 62° | 13km/h | 25982m | -26.8m/s | -50.4°C | 0.5% | 23.2hPa | 2.6V | 01:53:00 | 00:00:00 | 00:00:00 | |
| DG1MJG | 2026-09-04 05:25:19 | 47.43992 | 11.58749 | 252° | 4km/h | 26047m | -31.9m/s | -50.1°C | 0.5% | 23.0hPa | 2.6V | 01:53:00 | 00:00:00 | 00:00:00 | |
| OE5DRO-10 | 2026-09-04 05:25:18 | 47.43992 | 11.58750 | 304° | 9km/h | 26075m | -24.9m/s | -50.1°C | 3.1% | 22.7hPa | 2.6V | 00:00:00 | 00:00:00 | 00:00:00 | |
| DO3MHA-12 | 2026-09-04 05:25:17 | 47.43992 | 11.58751 | 289° | 9km/h | 26096m | -17.1m/s | -50.1°C | 3.2% | 22.6hPa | 2.6V | 00:00:00 | 01:46:09 | 00:00:00 | |
| DO3MHA-11 | 2026-09-04 05:25:16 | 47.43992 | 11.58752 | 257° | 9km/h | 26108m | -7.3m/s | -50.1°C | 3.2% | 22.6hPa | 2.6V | 00:00:00 | 01:46:08 | 00:00:00 | |
| BAUMI2-15 | 2026-09-04 05:25:12 | 47.43995 | 11.58755 | 193° | 13km/h | 26094m | 5.2m/s | -50.1°C | 3.1% | 22.6hPa | 2.7V | 01:52:00 | 01:46:04 | 00:00:00 | |
| DM0DOS-11 | 2026-09-04 05:25:11 | 47.44009 | 11.58769 | 311° | 2km/h | 26060m | 5.1m/s | -50.2°C | 3.1% | 22.8hPa | 2.7V | 01:52:39 | 01:45:58 | 00:00:00 | |
| OM5KV | 2026-09-04 05:25:10 | 47.43998 | 11.58756 | 202° | 13km/h | 26089m | 5.7m/s | -50.2°C | 0.5% | 22.7hPa | 2.6V | 01:53:00 | 00:00:00 | 00:00:00 | |
| DF1GD-15 | 2026-09-04 05:25:09 | 47.44001 | 11.58758 | 213° | 15km/h | 26083m | 6.5m/s | -50.2°C | 0.6% | 22.7hPa | 2.6V | 01:53:00 | 00:00:00 | 00:00:00 | |
| DG1MFX-10 | 2026-09-04 05:25:08 | 47.44004 | 11.58762 | 222° | 15km/h | 26077m | 4.8m/s | -50.2°C | 0.6% | 22.7hPa | 2.6V | 01:53:00 | 00:00:00 | 00:00:00 | |
| OE5WHR-10 | 2026-09-04 05:25:07 | 47.44008 | 11.58768 | 228° | 9km/h | 26066m | 6.2m/s | -50.2°C | 3.1% | 22.7hPa | 2.6V | 00:00:00 | 00:00:00 | 00:00:00 | |
| OE5MMP-10 | 2026-09-04 05:25:06 | 47.44008 | 11.58769 | 312° | 11km/h | 26061m | 5.0m/s | -50.2°C | 3.1% | 22.8hPa | 2.6V | 00:00:00 | 01:45:58 | 00:00:00 | |
| PETON7-10 | 2026-09-04 05:25:05 | 47.44008 | 11.58769 | 349° | 11km/h | 26056m | 5.1m/s | -50.1°C | 3.1% | 22.8hPa | 2.6V | 00:00:00 | 01:45:57 | 00:00:00 | |
| DF2AP-13 | 2026-09-04 05:25:03 | 47.44003 | 11.58772 | 331° | 11km/h | 26043m | 5.5m/s | -50.2°C | 3.1% | 22.8hPa | 2.6V | 00:00:00 | 01:45:55 | 00:00:00 | |
| BAUMI2-15 | 2026-09-04 05:25:02 | 47.44000 | 11.58775 | 323° | 13km/h | 26038m | 4.3m/s | -50.2°C | 3.1% | 22.9hPa | 2.6V | 01:52:00 | 01:45:54 | 00:00:00 | |
| DK5PH-5 | 2026-09-04 05:25:00 | 47.43995 | 11.58781 | 318° | 11km/h | 26028m | 5.9m/s | -50.3°C | 3.1% | 22.9hPa | 2.7V | 01:52:00 | 01:45:52 | 00:00:00 | |
| OE5DRO-10 | 2026-09-04 05:24:59 | 47.43993 | 11.58784 | 313° | 9km/h | 26023m | 5.5m/s | -50.4°C | 3.1% | 22.9hPa | 2.7V | 01:52:00 | 00:00:00 | 00:00:00 | |
| DM0DOS-11 | 2026-09-04 05:24:58 | 47.43991 | 11.58811 | 270° | 11km/h | 25989m | 6.7m/s | -50.5°C | 3.1% | 23.1hPa | 2.7V | 01:52:52 | 01:45:45 | 00:00:00 | |
| DL1ZP-14 | 2026-09-04 05:24:55 | 47.43991 | 11.58800 | 268° | 15km/h | 26001m | 5.3m/s | -50.5°C | 0.5% | 23.0hPa | 2.7V | 00:00:00 | 00:00:00 | 00:00:00 | |
| SONDE2-11 | 2026-09-04 05:24:53 | 47.43990 | 11.58814 | 280° | 5km/h | 25983m | 5.4m/s | -50.6°C | -1.0% | -1.0hPa | 2.7V | 00:00:00 | 00:00:00 | 00:00:00 | |
| BAUMI2-15 | 2026-09-04 05:24:52 | 47.43990 | 11.58814 | 281° | 5km/h | 25984m | 5.4m/s | -50.5°C | 3.2% | 23.0hPa | 2.7V | 01:52:00 | 01:45:44 | 00:00:00 | |
| DB0UT-7 | 2026-09-04 05:24:51 | 47.43990 | 11.58816 | 296° | 11km/h | 25978m | 5.0m/s | -50.6°C | 3.2% | 23.0hPa | 2.7V | 00:00:00 | 00:00:00 | 00:00:00 | |
| PETON7-10 | 2026-09-04 05:24:49 | 47.43989 | 11.58819 | 302° | 13km/h | 25966m | 5.5m/s | -50.5°C | 3.2% | 23.1hPa | 2.7V | 01:52:00 | 00:00:00 | 00:00:00 | |
| OE5REO-15 | 2026-09-04 05:24:48 | 47.43989 | 11.58819 | 303° | 7km/h | 25966m | 5.5m/s | -50.5°C | 0.5% | 23.2hPa | 2.6V | 01:53:00 | 00:00:00 | 00:00:00 | |
| DO3MHA-12 | 2026-09-04 05:24:47 | 47.43987 | 11.58823 | 327° | 11km/h | 25955m | 6.8m/s | -50.4°C | 3.2% | 23.1hPa | 2.6V | 01:52:00 | 01:45:39 | 00:00:00 | |
| DM0DOS-11 | 2026-09-04 05:24:46 | 47.43983 | 11.58829 | 293° | 13km/h | 25933m | 6.6m/s | -50.4°C | 3.2% | 23.2hPa | 2.6V | 01:53:02 | 01:45:35 | 00:00:00 | |
| OE5WHR-10 | 2026-09-04 05:24:46 | 47.43986 | 11.58823 | 346° | 11km/h | 25949m | 5.1m/s | -50.4°C | 3.2% | 23.2hPa | 2.7V | 01:52:00 | 01:45:38 | 00:00:00 | |
| IN3HCDX | 2026-09-04 05:24:45 | 47.43984 | 11.58824 | 325° | 4km/h | 25944m | 4.2m/s | -50.4°C | 0.5% | 23.2hPa | 2.7V | 01:53:00 | 00:00:00 | 00:00:00 | |
| BAUMI2-15 | 2026-09-04 05:24:42 | 47.43981 | 11.58834 | 290° | 16km/h | 25927m | 5.7m/s | -50.4°C | 3.1% | 23.2hPa | 2.7V | 01:53:00 | 01:45:34 | 00:00:00 | |
| OM5KV | 2026-09-04 05:24:41 | 47.43981 | 11.58834 | 290° | 16km/h | 25927m | 5.7m/s | -50.5°C | 0.5% | 23.3hPa | 2.7V | 01:53:00 | 00:00:00 | 00:00:00 | |
| OE5DRO-10 | 2026-09-04 05:24:40 | 47.43979 | 11.58847 | 286° | 13km/h | 25915m | 6.5m/s | -50.5°C | 3.2% | 23.3hPa | 2.7V | 00:00:00 | 00:00:00 | 00:00:00 | |
| DM0DOS-11 | 2026-09-04 05:24:38 | 47.43966 | 11.58874 | 325° | 7km/h | 25876m | 5.1m/s | -50.6°C | 3.2% | 23.5hPa | 2.7V | 01:53:12 | 01:45:25 | 00:00:00 | |
| OM5KV | 2026-09-04 05:24:37 | 47.43975 | 11.58861 | 304° | 15km/h | 25899m | 6.2m/s | -50.5°C | 0.6% | 23.4hPa | 2.6V | 01:53:00 | 00:00:00 | 00:00:00 | |
| OE5MMP-10 | 2026-09-04 05:24:36 | 47.43973 | 11.58866 | 311° | 11km/h | 25893m | 5.3m/s | -50.4°C | 3.2% | 23.4hPa | 2.6V | 01:53:00 | 01:45:28 | 00:00:00 | |
| DO3MHA-11 | 2026-09-04 05:24:35 | 47.43970 | 11.58869 | 316° | 11km/h | 25888m | 5.1m/s | -50.5°C | 3.2% | 23.4hPa | 2.6V | 00:00:00 | 01:45:27 | 00:00:00 | |
| PETON7-10 | 2026-09-04 05:24:34 | 47.43968 | 11.58872 | 322° | 11km/h | 25882m | 6.7m/s | -50.5°C | 3.2% | 23.4hPa | 2.6V | 00:00:00 | 00:00:00 | 00:00:00 | |
| DF2AP-13 | 2026-09-04 05:24:33 | 47.43966 | 11.58874 | 326° | 13km/h | 25876m | 5.1m/s | -50.5°C | 3.2% | 23.4hPa | 2.6V | 01:53:00 | 01:45:25 | 00:00:00 | |
| BAUMI2-15 | 2026-09-04 05:24:32 | 47.43965 | 11.58876 | 324° | 11km/h | 25871m | 5.3m/s | -50.5°C | 3.2% | 23.4hPa | 2.6V | 01:53:00 | 01:45:24 | 00:00:00 | |
| OM5KV | 2026-09-04 05:24:31 | 47.43965 | 11.58876 | 325° | 9km/h | 25871m | 5.4m/s | -50.6°C | 0.6% | 23.5hPa | 2.6V | 01:53:00 | 00:00:00 | 00:00:00 | |
| DK5PH-5 | 2026-09-04 05:24:30 | 47.43961 | 11.58882 | 309° | 13km/h | 25859m | 4.9m/s | -50.7°C | 3.2% | 23.5hPa | 2.6V | 00:00:00 | 01:45:22 | 00:00:00 | |
| DO3MHA-12 | 2026-09-04 05:24:27 | 47.43957 | 11.58893 | 281° | 11km/h | 25842m | 5.4m/s | -50.6°C | 3.1% | 23.5hPa | 2.6V | 01:53:00 | 01:45:19 | 00:00:00 | |
| DM0DOS-11 | 2026-09-04 05:24:26 | 47.43955 | 11.58911 | 278° | 13km/h | 25820m | 5.1m/s | -50.7°C | 3.2% | 23.7hPa | 2.7V | 01:53:22 | 01:45:15 | 00:00:00 | |
| OE5MMP-10 | 2026-09-04 05:24:26 | 47.43956 | 11.58897 | 279° | 11km/h | 25837m | 5.0m/s | -50.5°C | 3.1% | 23.6hPa | 2.7V | 00:00:00 | 01:45:18 | 00:00:00 | |
| OE5WHR-10 | 2026-09-04 05:24:25 | 47.43956 | 11.58902 | 282° | 13km/h | 25831m | 6.4m/s | -50.6°C | 3.2% | 23.6hPa | 2.7V | 00:00:00 | 00:00:00 | 00:00:00 | |
| DL1ZP-14 | 2026-09-04 05:24:24 | 47.43955 | 11.58907 | 282° | 13km/h | 25825m | 5.1m/s | -50.7°C | 0.6% | 23.7hPa | 2.7V | 00:00:00 | 00:00:00 | 00:00:00 | |
| OE9MKV-15 | 2026-09-04 05:24:23 | 47.43955 | 11.58911 | 279° | 9km/h | 25820m | 5.1m/s | -50.7°C | 3.2% | 23.6hPa | 2.6V | 01:53:00 | 01:45:15 | 00:00:00 | |
| BAUMI2-15 | 2026-09-04 05:24:22 | 47.43955 | 11.58915 | 269° | 9km/h | 25814m | 6.5m/s | -50.6°C | 3.2% | 23.6hPa | 2.6V | 01:53:00 | 01:45:14 | 00:00:00 | |
| OE5DXL-15 | 2026-09-04 05:24:21 | 47.43955 | 11.58919 | 260° | 13km/h | 25809m | 5.0m/s | -50.6°C | 3.2% | 23.6hPa | 2.6V | 01:53:00 | 00:00:00 | 00:00:00 | |
| PETON7-10 | 2026-09-04 05:24:19 | 47.43955 | 11.58924 | 272° | 15km/h | 25798m | 6.0m/s | -50.6°C | 3.2% | 23.7hPa | 2.7V | 01:53:00 | 01:45:11 | 00:00:00 | |
| DB0ND-19 | 2026-09-04 05:24:18 | 47.43955 | 11.58928 | 274° | 9km/h | 25792m | 5.0m/s | -50.7°C | 0.6% | 23.8hPa | 2.7V | 00:00:00 | 00:00:00 | 00:00:00 | |
| DO3MHA-12 | 2026-09-04 05:24:17 | 47.43955 | 11.58931 | 267° | 15km/h | 25786m | 6.1m/s | -50.7°C | 3.3% | 23.7hPa | 2.7V | 00:00:00 | 01:45:09 | 00:00:00 | |
| DM0DOS-11 | 2026-09-04 05:24:16 | 47.43956 | 11.58946 | 280° | 16km/h | 25764m | 6m/s | -50.8°C | 3.1% | 23.9hPa | 2.7V | 01:53:32 | 01:45:05 | 00:00:00 | |
| OE5MMP-10 | 2026-09-04 05:24:16 | 47.43955 | 11.58934 | 256° | 16km/h | 25781m | 5.5m/s | -50.7°C | 3.2% | 23.8hPa | 2.6V | 01:53:00 | 01:45:08 | 00:00:00 | |
| DO3MHA-11 | 2026-09-04 05:24:15 | 47.43956 | 11.58937 | 258° | 16km/h | 25776m | 4.5m/s | -50.7°C | 3.2% | 23.8hPa | 2.6V | 00:00:00 | 01:45:07 | 00:00:00 | |
| DL6DJ-15 | 2026-09-04 05:24:14 | 47.43956 | 11.58941 | 271° | 11km/h | 25770m | 6.0m/s | -50.8°C | 0.5% | 23.9hPa | 2.7V | 00:00:00 | 00:00:00 | 00:00:00 | |
| NBG1-10 | 2026-09-04 05:24:13 | 47.43956 | 11.58946 | 281° | 13km/h | 25764m | 6.0m/s | -50.8°C | 3.1% | 23.8hPa | 2.7V | 00:00:00 | 01:45:05 | 00:00:00 | |
| BAUMI2-15 | 2026-09-04 05:24:12 | 47.43955 | 11.58953 | 285° | 20km/h | 25759m | 5.3m/s | -50.9°C | 3.2% | 23.8hPa | 2.7V | 01:53:00 | 01:45:04 | 00:00:00 | |
| DM0DOS-11 | 2026-09-04 05:24:08 | 47.43949 | 11.59003 | 212° | 4km/h | 25709m | 5.3m/s | -51.2°C | 3.4% | 24.1hPa | 2.7V | 01:53:42 | 01:44:55 | 00:00:00 | |
| DO3MHA-12 | 2026-09-04 05:24:07 | 47.43950 | 11.58988 | 284° | 11km/h | 25732m | 5.5m/s | -51.0°C | 3.2% | 24.0hPa | 2.7V | 01:53:00 | 01:44:59 | 00:00:00 | |
| OE5MMP-10 | 2026-09-04 05:24:06 | 47.43949 | 11.58995 | 286° | 11km/h | 25726m | 4.4m/s | -51.1°C | 3.3% | 24.0hPa | 2.7V | 00:00:00 | 01:44:58 | 00:00:00 | |
| DO3MHA-11 | 2026-09-04 05:24:05 | 47.43949 | 11.58999 | 284° | 11km/h | 25721m | 5.6m/s | -51.2°C | 3.3% | 24.0hPa | 2.7V | 01:53:00 | 01:44:57 | 00:00:00 | |
| PETON7-10 | 2026-09-04 05:24:04 | 47.43948 | 11.59002 | 269° | 11km/h | 25715m | 6.1m/s | -51.2°C | 3.4% | 24.0hPa | 2.7V | 00:00:00 | 00:00:00 | 00:00:00 | |
| DF2AP-13 | 2026-09-04 05:24:03 | 47.43949 | 11.59003 | 213° | 11km/h | 25710m | 5.3m/s | -51.2°C | 3.4% | 24.0hPa | 2.7V | 00:00:00 | 01:44:55 | 00:00:00 | |
| BAUMI2-15 | 2026-09-04 05:24:02 | 47.43949 | 11.59004 | 209° | 9km/h | 25704m | 5.3m/s | -51.1°C | 3.4% | 24.0hPa | 2.6V | 01:53:00 | 01:44:54 | 00:00:00 | |
| DK5PH-5 | 2026-09-04 05:24:00 | 47.43952 | 11.59009 | 247° | 13km/h | 25693m | 5.3m/s | -51.2°C | 3.5% | 24.1hPa | 2.6V | 01:53:00 | 01:44:52 | 00:00:00 | |
| OE5REO-15 | 2026-09-04 05:23:59 | 47.43952 | 11.59009 | 247° | 11km/h | 25693m | 5.4m/s | -51.3°C | 0.6% | 24.1hPa | 2.7V | 01:54:00 | 00:00:00 | 00:00:00 | |
| DO3MHA-12 | 2026-09-04 05:23:57 | 47.43957 | 11.59023 | 234° | 11km/h | 25677m | 5.6m/s | -51.1°C | 3.3% | 24.2hPa | 2.7V | 00:00:00 | 01:44:49 | 00:00:00 | |
| DM0DOS-11 | 2026-09-04 05:23:56 | 47.43964 | 11.59038 | 227° | 7km/h | 25655m | 5.2m/s | -50.9°C | 3.2% | 24.3hPa | 2.7V | 01:53:52 | 01:44:45 | 00:00:00 | |
| OE5MMP-10 | 2026-09-04 05:23:56 | 47.43959 | 11.59027 | 232° | 9km/h | 25672m | 4.8m/s | -51.0°C | 3.3% | 24.1hPa | 2.7V | 01:53:00 | 01:44:48 | 00:00:00 | |
| DO3MHA-11 | 2026-09-04 05:23:55 | 47.43961 | 11.59032 | 237° | 9km/h | 25666m | 6.0m/s | -50.9°C | 3.2% | 24.2hPa | 2.7V | 00:00:00 | 01:44:47 | 00:00:00 | |
| OE5DXL-15 | 2026-09-04 05:23:51 | 47.43967 | 11.59039 | 164° | 15km/h | 25644m | 4.7m/s | -50.9°C | 3.2% | 24.3hPa | 2.7V | 00:00:00 | 00:00:00 | 00:00:00 | |
| OM5KV | 2026-09-04 05:23:50 | 47.43967 | 11.59039 | 164° | 9km/h | 25644m | 4.8m/s | -50.9°C | 0.6% | 24.3hPa | 2.7V | 01:54:00 | 00:00:00 | 00:00:00 | |
| PETON7-10 | 2026-09-04 05:23:48 | 47.43974 | 11.59036 | 188° | 13km/h | 25629m | 5.3m/s | -50.9°C | 3.2% | 24.3hPa | 2.7V | 01:53:00 | 00:00:00 | 00:00:00 | |
| DO3MHA-12 | 2026-09-04 05:23:47 | 47.43975 | 11.59037 | 209° | 15km/h | 25624m | 5.2m/s | -50.9°C | 3.2% | 24.4hPa | 2.7V | 01:53:00 | 01:44:39 | 00:00:00 | |
| OE5MMP-10 | 2026-09-04 05:23:46 | 47.43977 | 11.59039 | 211° | 15km/h | 25618m | 5.8m/s | -50.9°C | 3.2% | 24.4hPa | 2.7V | 00:00:00 | 01:44:38 | 00:00:00 | |
| DM0DOS-11 | 2026-09-04 05:23:45 | 47.43985 | 11.59045 | 214° | 15km/h | 25602m | 5m/s | -50.9°C | 3.2% | 24.5hPa | 2.6V | 01:54:02 | 01:44:35 | 00:00:00 | |
| DB0NH | 2026-09-04 05:23:45 | 47.43979 | 11.59040 | 205° | 15km/h | 25612m | 5.7m/s | -50.8°C | 3.2% | 24.4hPa | 2.6V | 00:00:00 | 01:44:37 | 00:00:00 | |
| OM5KV | 2026-09-04 05:23:44 | 47.43979 | 11.59040 | 206° | 11km/h | 25612m | 5.7m/s | -50.8°C | 0.5% | 24.4hPa | 2.6V | 01:54:00 | 00:00:00 | 00:00:00 | |
| OE5WHR-10 | 2026-09-04 05:23:43 | 47.43985 | 11.59045 | 215° | 16km/h | 25602m | 4.9m/s | -50.8°C | 3.2% | 24.5hPa | 2.6V | 00:00:00 | 01:44:35 | 00:00:00 | |
| IN3IJJ | 2026-09-04 05:23:41 | 47.43988 | 11.59049 | 224° | 16km/h | 25597m | 6.2m/s | -50.9°C | 0.6% | 24.5hPa | 2.6V | 00:00:00 | 00:00:00 | 00:00:00 | |
| NBG1-10 | 2026-09-04 05:23:40 | 47.43994 | 11.59057 | 219° | 15km/h | 25586m | 5.1m/s | -50.9°C | 3.3% | 24.5hPa | 2.6V | 01:54:00 | 01:44:32 | 00:00:00 | |
| DM0DOS-11 | 2026-09-04 05:23:38 | 47.44019 | 11.59063 | 172° | 13km/h | 25547m | 5.3m/s | -51.2°C | 3.3% | 24.7hPa | 2.7V | 01:54:12 | 01:44:25 | 00:00:00 | |
| DO3MHA-12 | 2026-09-04 05:23:37 | 47.44006 | 11.59063 | 188° | 15km/h | 25570m | 5.6m/s | -51.0°C | 3.2% | 24.5hPa | 2.7V | 00:00:00 | 01:44:29 | 00:00:00 | |
| OE5MMP-10 | 2026-09-04 05:23:36 | 47.44009 | 11.59064 | 188° | 15km/h | 25564m | 5.9m/s | -51.0°C | 3.3% | 24.6hPa | 2.7V | 01:54:00 | 01:44:28 | 00:00:00 | |
| DO3MHA-11 | 2026-09-04 05:23:35 | 47.44012 | 11.59064 | 182° | 15km/h | 25558m | 4.7m/s | -51.1°C | 3.3% | 24.6hPa | 2.7V | 00:00:00 | 01:44:27 | 00:00:00 | |
| OM5KV | 2026-09-04 05:23:34 | 47.44012 | 11.59064 | 183° | 11km/h | 25558m | 4.7m/s | -51.1°C | 0.6% | 24.6hPa | 2.7V | 01:54:00 | 00:00:00 | 00:00:00 | |
| DF2AP-13 | 2026-09-04 05:23:33 | 47.44019 | 11.59063 | 173° | 15km/h | 25547m | 5.3m/s | -51.1°C | 3.3% | 24.6hPa | 2.7V | 01:54:00 | 01:44:25 | 00:00:00 | |
| PETON7-10 | 2026-09-04 05:23:32 | 47.44022 | 11.59063 | 180° | 15km/h | 25543m | 4.7m/s | -51.2°C | 3.3% | 24.7hPa | 2.7V | 00:00:00 | 01:44:24 | 00:00:00 | |
| DK5PH-5 | 2026-09-04 05:23:30 | 47.44028 | 11.59066 | 215° | 13km/h | 25531m | 5.4m/s | -51.2°C | 3.3% | 24.7hPa | 2.7V | 00:00:00 | 01:44:22 | 00:00:00 | |
| OE5REO-15 | 2026-09-04 05:23:28 | 47.44031 | 11.59069 | 225° | 15km/h | 25526m | 4.5m/s | -51.3°C | 0.6% | 24.8hPa | 2.7V | 01:54:00 | 00:00:00 | 00:00:00 | |
| DO3MHA-12 | 2026-09-04 05:23:27 | 47.44038 | 11.59077 | 215° | 15km/h | 25516m | 6.0m/s | -51.3°C | 3.2% | 24.8hPa | 2.7V | 01:54:00 | 01:44:19 | 00:00:00 | |
| OE5MMP-10 | 2026-09-04 05:23:26 | 47.44042 | 11.59082 | 210° | 15km/h | 25510m | 4.9m/s | -51.2°C | 3.3% | 24.8hPa | 2.6V | 00:00:00 | 01:44:18 | 00:00:00 | |
| DM0DOS-11 | 2026-09-04 05:23:25 | 47.44056 | 11.59095 | 219° | 18km/h | 25494m | 4.9m/s | -51.2°C | 3.4% | 24.9hPa | 2.6V | 01:54:22 | 01:44:15 | 00:00:00 | |
| DO3MHA-11 | 2026-09-04 05:23:25 | 47.44047 | 11.59086 | 211° | 13km/h | 25505m | 4.8m/s | -51.2°C | 3.2% | 24.8hPa | 2.6V | 01:54:00 | 01:44:17 | 00:00:00 | |
| OE5DRO-10 | 2026-09-04 05:23:24 | 47.44052 | 11.59090 | 216° | 13km/h | 25500m | 6.0m/s | -51.1°C | 3.3% | 24.8hPa | 2.6V | 00:00:00 | 00:00:00 | 00:00:00 | |
| IN3HCDX | 2026-09-04 05:23:23 | 47.44052 | 11.59090 | 216° | 22km/h | 25500m | 6.1m/s | -51.2°C | 0.6% | 24.9hPa | 2.7V | 01:54:00 | 00:00:00 | 00:00:00 | |
| OE5WHR-10 | 2026-09-04 05:23:22 | 47.44059 | 11.59099 | 220° | 11km/h | 25490m | 4.4m/s | -51.2°C | 3.4% | 24.9hPa | 2.7V | 01:54:00 | 00:00:00 | 00:00:00 | |
| DB0UT-7 | 2026-09-04 05:23:21 | 47.44062 | 11.59101 | 212° | 13km/h | 25484m | 6.4m/s | -51.2°C | 3.4% | 24.9hPa | 2.7V | 01:54:00 | 01:44:13 | 00:00:00 | |
| SONDE2-11 | 2026-09-04 05:23:20 | 47.44067 | 11.59106 | 249° | 4km/h | 25468m | 6.4m/s | -51.2°C | -1.0% | -1.0hPa | 2.7V | 00:00:00 | 00:00:00 | 00:00:00 | |
| DM0DOS-11 | 2026-09-04 05:23:18 | 47.44071 | 11.59120 | 212° | 15km/h | 25435m | 6.1m/s | -51.4°C | 3.3% | 25.1hPa | 2.7V | 01:54:33 | 01:44:04 | 00:00:00 | |
| DO3MHA-12 | 2026-09-04 05:23:17 | 47.44067 | 11.59108 | 288° | 13km/h | 25462m | 5.3m/s | -51.2°C | 3.3% | 25.0hPa | 2.7V | 00:00:00 | 01:44:09 | 00:00:00 | |
| OE5MMP-10 | 2026-09-04 05:23:16 | 47.44066 | 11.59110 | 293° | 15km/h | 25457m | 4.7m/s | -51.2°C | 3.3% | 25.0hPa | 2.7V | 01:54:00 | 01:44:08 | 00:00:00 | |
| DB0NH | 2026-09-04 05:23:15 | 47.44066 | 11.59112 | 273° | 13km/h | 25452m | 5.8m/s | -51.3°C | 3.3% | 25.0hPa | 2.6V | 01:54:00 | 01:44:07 | 00:00:00 | |
| OM5KV | 2026-09-04 05:23:14 | 47.44066 | 11.59112 | 274° | 7km/h | 25452m | 5.8m/s | -51.3°C | 0.6% | 25.1hPa | 2.6V | 00:00:00 | 00:00:00 | 00:00:00 | |
| OE5REO-15 | 2026-09-04 05:23:13 | 47.44068 | 11.59117 | 216° | 11km/h | 25441m | 4.7m/s | -51.4°C | 0.6% | 25.1hPa | 2.6V | 01:54:00 | 00:00:00 | 00:00:00 | |
| DL6DJ-15 | 2026-09-04 05:23:12 | 47.44071 | 11.59120 | 212° | 13km/h | 25435m | 6.1m/s | -51.4°C | 0.6% | 25.1hPa | 2.6V | 00:00:00 | 00:00:00 | 00:00:00 | |
| DM0DOS-11 | 2026-09-04 05:23:07 | 47.44103 | 11.59125 | 145° | 4km/h | 25382m | 5.1m/s | -51.5°C | 3.3% | 25.4hPa | 2.6V | 01:54:43 | 01:43:54 | 00:00:00 | |
| DO3MHA-12 | 2026-09-04 05:23:07 | 47.44092 | 11.59129 | 173° | 11km/h | 25408m | 4.4m/s | -51.4°C | 3.4% | 25.1hPa | 2.6V | 01:54:00 | 01:43:59 | 00:00:00 | |
| OE5MMP-10 | 2026-09-04 05:23:06 | 47.44096 | 11.59128 | 167° | 11km/h | 25404m | 5.5m/s | -51.4°C | 3.3% | 25.2hPa | 2.6V | 00:00:00 | 01:43:58 | 00:00:00 | |
| DO3MHA-11 | 2026-09-04 05:23:05 | 47.44099 | 11.59127 | 163° | 13km/h | 25398m | 6.0m/s | -51.4°C | 3.3% | 25.2hPa | 2.6V | 01:54:00 | 01:43:57 | 00:00:00 | |
| DG1MFX-10 | 2026-09-04 05:23:04 | 47.44099 | 11.59127 | 164° | 9km/h | 25398m | 6.1m/s | -51.4°C | 0.6% | 25.3hPa | 2.6V | 01:54:00 | 00:00:00 | 00:00:00 | |
| DF2AP-13 | 2026-09-04 05:23:03 | 47.44102 | 11.59125 | 150° | 15km/h | 25387m | 4.2m/s | -51.4°C | 3.4% | 25.2hPa | 2.6V | 00:00:00 | 01:43:55 | 00:00:00 | |
| IN3HCDX | 2026-09-04 05:23:02 | 47.44102 | 11.59125 | 150° | 4km/h | 25387m | 4.2m/s | -51.5°C | 0.6% | 25.3hPa | 2.6V | 01:54:00 | 00:00:00 | 00:00:00 | |
| DF7PN | 2026-09-04 05:22:58 | 47.44124 | 11.59135 | 214° | 22km/h | 25351m | 4.7m/s | -51.6°C | 0.6% | 25.5hPa | 2.6V | 00:00:00 | 00:00:00 | 00:00:00 | |
| DM0DOS-11 | 2026-09-04 05:22:57 | 47.44138 | 11.59144 | 193° | 9km/h | 25328m | 6.5m/s | -51.6°C | 3.3% | 25.5hPa | 2.6V | 01:54:53 | 01:43:44 | 00:00:00 | |
| DL1ZP-14 | 2026-09-04 05:22:51 | 47.44141 | 11.59145 | 158° | 4km/h | 25318m | 5.1m/s | -51.6°C | 0.6% | 25.6hPa | 2.7V | 00:00:00 | 00:00:00 | 00:00:00 | |
| SONDE2-11 | 2026-09-04 05:22:48 | 47.44144 | 11.59142 | 155° | 9km/h | 25306m | 5.3m/s | 0°C | -1.0% | -1.0hPa | 2.6V | 00:00:00 | 00:00:00 | 00:00:00 | |
| DO3MHA-12 | 2026-09-04 05:22:47 | 47.44147 | 11.59141 | 172° | 20km/h | 25301m | 5.4m/s | -51.5°C | 3.3% | 25.6hPa | 2.6V | 01:54:00 | 01:43:39 | 00:00:00 | |
| OE5MMP-10 | 2026-09-04 05:22:46 | 47.44150 | 11.59141 | 193° | 20km/h | 25295m | 6.3m/s | -51.5°C | 3.4% | 25.6hPa | 2.6V | 00:00:00 | 01:43:38 | 00:00:00 | |
| DM0DOS-11 | 2026-09-04 05:22:45 | 47.44170 | 11.59151 | 192° | 26km/h | 25272m | 5.5m/s | -51.5°C | 3.4% | 25.8hPa | 2.6V | 01:55:03 | 01:43:34 | 00:00:00 | |
| DO3MHA-11 | 2026-09-04 05:22:45 | 47.44154 | 11.59143 | 205° | 20km/h | 25289m | 5.1m/s | -51.4°C | 3.4% | 25.6hPa | 2.7V | 01:55:00 | 01:43:37 | 00:00:00 | |
| PETON7-10 | 2026-09-04 05:22:44 | 47.44158 | 11.59146 | 204° | 20km/h | 25284m | 4.9m/s | -51.5°C | 3.4% | 25.7hPa | 2.7V | 01:55:00 | 01:43:36 | 00:00:00 | |
| OM5KV | 2026-09-04 05:22:43 | 47.44158 | 11.59146 | 205° | 22km/h | 25284m | 5.0m/s | -51.5°C | 0.6% | 25.7hPa | 2.7V | 01:55:00 | 00:00:00 | 00:00:00 | |
| DF1GD-15 | 2026-09-04 05:22:42 | 47.44164 | 11.59149 | 199° | 24km/h | 25278m | 6.7m/s | -51.5°C | 0.7% | 25.8hPa | 2.7V | 01:55:00 | 00:00:00 | 00:00:00 | |
| DL6DJ-15 | 2026-09-04 05:22:41 | 47.44182 | 11.59155 | 193° | 22km/h | 25261m | 6.3m/s | -51.5°C | 0.6% | 25.8hPa | 2.7V | 00:00:00 | 00:00:00 | 00:00:00 | |
| OE5WHR-10 | 2026-09-04 05:22:40 | 47.44182 | 11.59155 | 194° | 18km/h | 25262m | 6.3m/s | -51.5°C | 3.3% | 25.8hPa | 2.7V | 01:55:00 | 01:43:32 | 00:00:00 | |
| S52SK | 2026-09-04 05:22:39 | 47.44182 | 11.59155 | 195° | 24km/h | 25262m | 6.3m/s | -51.5°C | 0.6% | 25.8hPa | 2.7V | 00:00:00 | 00:00:00 | 00:00:00 | |
| DM0DOS-11 | 2026-09-04 05:22:37 | 47.44209 | 11.59164 | 209° | 13km/h | 25216m | 4.5m/s | -51.5°C | 3.3% | 26hPa | 2.7V | 01:55:13 | 01:43:24 | 00:00:00 | |
| DO3MHA-12 | 2026-09-04 05:22:37 | 47.44195 | 11.59161 | 192° | 15km/h | 25246m | 5.9m/s | -51.7°C | 3.4% | 25.8hPa | 2.7V | 00:00:00 | 01:43:29 | 00:00:00 | |
| OE5MMP-10 | 2026-09-04 05:22:36 | 47.44198 | 11.59162 | 178° | 16km/h | 25240m | 6.1m/s | -51.6°C | 3.3% | 25.8hPa | 2.7V | 01:55:00 | 01:43:28 | 00:00:00 | |
| DO3MHA-11 | 2026-09-04 05:22:35 | 47.44201 | 11.59161 | 174° | 16km/h | 25234m | 5.4m/s | -51.6°C | 3.3% | 25.9hPa | 2.7V | 00:00:00 | 01:43:27 | 00:00:00 | |
| NBG1-10 | 2026-09-04 05:22:34 | 47.44203 | 11.59161 | 181° | 20km/h | 25228m | 5.8m/s | -51.5°C | 3.3% | 25.9hPa | 2.7V | 01:55:00 | 01:43:26 | 00:00:00 | |
| DF2AP-13 | 2026-09-04 05:22:33 | 47.44206 | 11.59162 | 201° | 20km/h | 25222m | 5.8m/s | -51.5°C | 3.3% | 25.9hPa | 2.7V | 01:55:00 | 01:43:25 | 00:00:00 | |
| DK5PH-5 | 2026-09-04 05:22:30 | 47.44216 | 11.59169 | 200° | 20km/h | 25206m | 6.0m/s | -51.5°C | 3.4% | 26.0hPa | 2.6V | 00:00:00 | 01:43:22 | 00:00:00 | |
| PETON7-10 | 2026-09-04 05:22:29 | 47.44221 | 11.59171 | 197° | 20km/h | 25200m | 5.5m/s | -51.6°C | 3.4% | 25.9hPa | 2.6V | 00:00:00 | 00:00:00 | 00:00:00 | |
| DM0DOS-11 | 2026-09-04 05:22:27 | 47.44260 | 11.59187 | 187° | 22km/h | 25160m | 4.9m/s | -51.7°C | 3.4% | 26.2hPa | 2.7V | 01:55:23 | 01:43:14 | 00:00:00 | |
| DO3MHA-12 | 2026-09-04 05:22:27 | 47.44232 | 11.59176 | 202° | 22km/h | 25189m | 6.2m/s | -51.6°C | 3.4% | 26.1hPa | 2.7V | 01:55:00 | 01:43:19 | 00:00:00 | |
| OE5MMP-10 | 2026-09-04 05:22:26 | 47.44238 | 11.59180 | 204° | 20km/h | 25183m | 5.0m/s | -51.6°C | 3.4% | 26.1hPa | 2.7V | 00:00:00 | 01:43:18 | 00:00:00 | |
| DO3MHA-11 | 2026-09-04 05:22:25 | 47.44243 | 11.59182 | 200° | 20km/h | 25178m | 5.3m/s | -51.7°C | 3.4% | 26.1hPa | 2.7V | 01:55:00 | 01:43:17 | 00:00:00 | |
| DG1MFX-10 | 2026-09-04 05:22:23 | 47.44249 | 11.59185 | 194° | 22km/h | 25172m | 6.6m/s | -51.8°C | 0.6% | 26.2hPa | 2.7V | 01:55:00 | 00:00:00 | 00:00:00 | |
| OE9MKV-15 | 2026-09-04 05:22:22 | 47.44260 | 11.59187 | 188° | 20km/h | 25161m | 4.9m/s | -51.6°C | 3.4% | 26.2hPa | 2.7V | 01:55:00 | 01:43:14 | 00:00:00 | |
| DB0UT-7 | 2026-09-04 05:22:21 | 47.44265 | 11.59188 | 194° | 20km/h | 25155m | 6.6m/s | -51.7°C | 3.4% | 26.2hPa | 2.7V | 01:55:00 | 01:43:13 | 00:00:00 | |
| DL1ZP-14 | 2026-09-04 05:22:20 | 47.44274 | 11.59194 | 204° | 18km/h | 25144m | 4.5m/s | -51.8°C | 0.6% | 26.3hPa | 2.6V | 00:00:00 | 00:00:00 | 00:00:00 | |
| OE5WHR-10 | 2026-09-04 05:22:19 | 47.44274 | 11.59193 | 205° | 18km/h | 25144m | 4.4m/s | -51.7°C | 3.4% | 26.2hPa | 2.6V | 00:00:00 | 00:00:00 | 00:00:00 | |
| OM5KV | 2026-09-04 05:22:18 | 47.44274 | 11.59193 | 206° | 18km/h | 25144m | 4.5m/s | -51.8°C | 0.6% | 26.3hPa | 2.7V | 01:55:00 | 00:00:00 | 00:00:00 | |
| DM0DOS-11 | 2026-09-04 05:22:17 | 47.44306 | 11.59205 | 183° | 18km/h | 25104m | 5m/s | -51.6°C | 3.4% | 26.4hPa | 2.7V | 01:55:33 | 01:43:04 | 00:00:00 | |
| DO3MHA-12 | 2026-09-04 05:22:17 | 47.44283 | 11.59198 | 194° | 20km/h | 25133m | 5.8m/s | -51.6°C | 3.4% | 26.3hPa | 2.7V | 00:00:00 | 01:43:09 | 00:00:00 | |
| OE5MMP-10 | 2026-09-04 05:22:16 | 47.44288 | 11.59200 | 190° | 20km/h | 25127m | 5.3m/s | -51.6°C | 3.4% | 26.3hPa | 2.7V | 01:55:00 | 01:43:08 | 00:00:00 | |
| DO3MHA-11 | 2026-09-04 05:22:15 | 47.44292 | 11.59201 | 190° | 20km/h | 25121m | 6.0m/s | -51.7°C | 3.4% | 26.3hPa | 2.6V | 00:00:00 | 01:43:07 | 00:00:00 | |
| DB0NH | 2026-09-04 05:22:14 | 47.44297 | 11.59202 | 194° | 22km/h | 25115m | 6.0m/s | -51.7°C | 3.4% | 26.4hPa | 2.6V | 01:55:00 | 01:43:06 | 00:00:00 | |
| OM5KV | 2026-09-04 05:22:12 | 47.44301 | 11.59204 | 193° | 18km/h | 25110m | 4.8m/s | -51.7°C | 0.6% | 26.4hPa | 2.7V | 01:55:00 | 00:00:00 | 00:00:00 | |
| DL6DJ-15 | 2026-09-04 05:22:10 | 47.44316 | 11.59203 | 166° | 22km/h | 25093m | 5.7m/s | -51.5°C | 0.6% | 26.4hPa | 2.7V | 00:00:00 | 00:00:00 | 00:00:00 | |
| OE5DRO-10 | 2026-09-04 05:22:08 | 47.44327 | 11.59199 | 172° | 22km/h | 25080m | 6.7m/s | -51.5°C | 3.4% | 26.5hPa | 2.7V | 00:00:00 | 00:00:00 | 00:00:00 | |
| DO3MHA-12 | 2026-09-04 05:22:07 | 47.44333 | 11.59198 | 176° | 18km/h | 25075m | 4.9m/s | -51.4°C | 3.4% | 26.5hPa | 2.7V | 01:55:00 | 01:42:59 | 00:00:00 | |
| OE5MMP-10 | 2026-09-04 05:22:06 | 47.44338 | 11.59198 | 175° | 18km/h | 25070m | 5.2m/s | -51.5°C | 3.4% | 26.5hPa | 2.7V | 00:00:00 | 01:42:58 | 00:00:00 | |
| DM0DOS-11 | 2026-09-04 05:22:05 | 47.44360 | 11.59191 | 178° | 13km/h | 25041m | 5.4m/s | -51.4°C | 3.4% | 26.7hPa | 2.7V | 01:55:44 | 01:42:53 | 00:00:00 | |
| DO3MHA-11 | 2026-09-04 05:22:05 | 47.44343 | 11.59197 | 169° | 18km/h | 25064m | 6.3m/s | -51.5°C | 3.4% | 26.6hPa | 2.7V | 01:55:00 | 01:42:57 | 00:00:00 | |
| DF2AP-13 | 2026-09-04 05:22:03 | 47.44352 | 11.59193 | 164° | 20km/h | 25053m | 4.8m/s | -51.5°C | 3.4% | 26.6hPa | 2.7V | 00:00:00 | 01:42:55 | 00:00:00 | |
| DF1GD-15 | 2026-09-04 05:22:02 | 47.44352 | 11.59193 | 164° | 16km/h | 25053m | 4.9m/s | -51.5°C | 0.6% | 26.7hPa | 2.7V | 01:55:00 | 00:00:00 | 00:00:00 | |
| NBG1-10 | 2026-09-04 05:22:01 | 47.44359 | 11.59191 | 179° | 20km/h | 25041m | 5.3m/s | -51.4°C | 3.4% | 26.7hPa | 2.7V | 00:00:00 | 01:42:53 | 00:00:00 | |
| DK5PH-5 | 2026-09-04 05:22:00 | 47.44363 | 11.59191 | 175° | 20km/h | 25036m | 4.9m/s | -51.4°C | 3.4% | 26.7hPa | 2.6V | 01:55:00 | 01:42:52 | 00:00:00 | |
| PETON7-10 | 2026-09-04 05:21:59 | 47.44366 | 11.59190 | 166° | 22km/h | 25030m | 6.3m/s | -51.4°C | 3.4% | 26.7hPa | 2.6V | 00:00:00 | 01:42:51 | 00:00:00 | |
| OE5WHR-10 | 2026-09-04 05:21:58 | 47.44371 | 11.59187 | 155° | 22km/h | 25024m | 5.6m/s | -51.4°C | 3.4% | 26.7hPa | 2.6V | 01:55:00 | 00:00:00 | 00:00:00 | |
| DO3MHA-12 | 2026-09-04 05:21:57 | 47.44375 | 11.59184 | 152° | 26km/h | 25019m | 4.7m/s | -51.5°C | 3.4% | 26.8hPa | 2.6V | 00:00:00 | 01:42:49 | 00:00:00 | |
| OE5MMP-10 | 2026-09-04 05:21:56 | 47.44380 | 11.59180 | 155° | 24km/h | 25014m | 6.0m/s | -51.5°C | 3.4% | 26.8hPa | 2.7V | 01:55:00 | 01:42:48 | 00:00:00 | |
| DO3MHA-11 | 2026-09-04 05:21:55 | 47.44386 | 11.59176 | 162° | 24km/h | 25008m | 6.1m/s | -51.4°C | 3.3% | 26.8hPa | 2.7V | 00:00:00 | 01:42:47 | 00:00:00 | |
| OM5KV | 2026-09-04 05:21:54 | 47.44386 | 11.59176 | 162° | 26km/h | 25008m | 6.1m/s | -51.4°C | 0.6% | 26.8hPa | 2.7V | 01:56:00 | 00:00:00 | 00:00:00 | |
| DM0DOS-11 | 2026-09-04 05:21:52 | 47.44412 | 11.59164 | 156° | 27km/h | 24984m | 5.5m/s | -51.3°C | 3.3% | 26.9hPa | 2.7V | 01:55:54 | 01:42:43 | 00:00:00 | |
| DL1ZP-14 | 2026-09-04 05:21:49 | 47.44429 | 11.59154 | 162° | 18km/h | 24967m | 5.0m/s | -51.3°C | 0.6% | 27.0hPa | 2.6V | 00:00:00 | 00:00:00 | 00:00:00 | |
| DO3MHA-12 | 2026-09-04 05:21:47 | 47.44434 | 11.59152 | 157° | 18km/h | 24962m | 5.2m/s | -51.3°C | 3.4% | 27.0hPa | 2.7V | 01:55:00 | 01:42:39 | 00:00:00 | |
| OE5MMP-10 | 2026-09-04 05:21:46 | 47.44438 | 11.59149 | 149° | 18km/h | 24956m | 6.7m/s | -51.3°C | 3.4% | 27.0hPa | 2.7V | 00:00:00 | 01:42:38 | 00:00:00 | |
| OM5KV | 2026-09-04 05:21:45 | 47.44438 | 11.59149 | 149° | 18km/h | 24956m | 6.7m/s | -51.3°C | 0.6% | 27.0hPa | 2.6V | 01:56:00 | 00:00:00 | 00:00:00 | |
| DG1MJG | 2026-09-04 05:21:44 | 47.44445 | 11.59140 | 139° | 16km/h | 24945m | 5.7m/s | -51.2°C | 0.6% | 27.1hPa | 2.6V | 01:56:00 | 00:00:00 | 00:00:00 | |
| OM5KV | 2026-09-04 05:21:43 | 47.44445 | 11.59140 | 139° | 16km/h | 24945m | 5.7m/s | -51.2°C | 0.6% | 27.1hPa | 2.6V | 01:56:00 | 00:00:00 | 00:00:00 | |
| DM0DOS-11 | 2026-09-04 05:21:42 | 47.44453 | 11.59129 | 136° | 16km/h | 24928m | 5.5m/s | -51.1°C | 3.2% | 27.2hPa | 2.6V | 01:56:04 | 01:42:33 | 00:00:00 | |
| BAUMI2-15 | 2026-09-04 05:21:42 | 47.44451 | 11.59133 | 139° | 18km/h | 24933m | 4.4m/s | -51.1°C | 3.2% | 27.1hPa | 2.6V | 01:56:00 | 01:42:34 | 00:00:00 | |
| DF1GD-15 | 2026-09-04 05:21:41 | 47.44451 | 11.59133 | 139° | 15km/h | 24933m | 4.4m/s | -51.1°C | 0.6% | 27.1hPa | 2.6V | 01:56:00 | 00:00:00 | 00:00:00 | |
| OE5REO-15 | 2026-09-04 05:21:38 | 47.44460 | 11.59119 | 136° | 22km/h | 24916m | 5.5m/s | -51.2°C | 0.6% | 27.2hPa | 2.6V | 01:56:00 | 00:00:00 | 00:00:00 | |
| DO3MHA-12 | 2026-09-04 05:21:37 | 47.44469 | 11.59108 | 148° | 18km/h | 24905m | 6.3m/s | -51.3°C | 3.4% | 27.3hPa | 2.6V | 00:00:00 | 01:42:29 | 00:00:00 | |
| OE5MMP-10 | 2026-09-04 05:21:36 | 47.44473 | 11.59104 | 154° | 16km/h | 24899m | 4.8m/s | -51.4°C | 3.4% | 27.3hPa | 2.6V | 01:56:00 | 01:42:28 | 00:00:00 | |
| IN3IJJ | 2026-09-04 05:21:35 | 47.44473 | 11.59104 | 155° | 22km/h | 24899m | 4.9m/s | -51.4°C | 0.6% | 27.3hPa | 2.6V | 00:00:00 | 00:00:00 | 00:00:00 | |
| DO3MHA-11 | 2026-09-04 05:21:34 | 47.44483 | 11.59097 | 147° | 16km/h | 24888m | 6.3m/s | -51.5°C | 3.5% | 27.3hPa | 2.6V | 00:00:00 | 01:42:26 | 00:00:00 | |
| DM0DOS-11 | 2026-09-04 05:21:32 | 47.44494 | 11.59084 | 147° | 16km/h | 24870m | 6.6m/s | -51.4°C | 3.4% | 27.4hPa | 2.6V | 01:56:14 | 01:42:23 | 00:00:00 | |
| DK5PH-5 | 2026-09-04 05:21:30 | 47.44497 | 11.59082 | 154° | 13km/h | 24865m | 5.1m/s | -51.4°C | 3.4% | 27.4hPa | 2.6V | 00:00:00 | 01:42:22 | 00:00:00 | |
| PETON7-10 | 2026-09-04 05:21:29 | 47.44500 | 11.59079 | 150° | 16km/h | 24859m | 5.2m/s | -51.3°C | 3.3% | 27.4hPa | 2.6V | 00:00:00 | 00:00:00 | 00:00:00 | |
| NBG1-10 | 2026-09-04 05:21:28 | 47.44503 | 11.59076 | 138° | 13km/h | 24854m | 6.5m/s | -51.3°C | 3.3% | 27.4hPa | 2.6V | 01:56:00 | 01:42:20 | 00:00:00 | |
| DO3MHA-12 | 2026-09-04 05:21:27 | 47.44506 | 11.59072 | 132° | 18km/h | 24848m | 5.7m/s | -51.4°C | 3.3% | 27.5hPa | 2.6V | 01:56:00 | 01:42:19 | 00:00:00 | |
| OE5MMP-10 | 2026-09-04 05:21:26 | 47.44508 | 11.59068 | 134° | 18km/h | 24842m | 5.4m/s | -51.4°C | 3.3% | 27.5hPa | 2.6V | 00:00:00 | 01:42:18 | 00:00:00 | |
| DO3MHA-11 | 2026-09-04 05:21:24 | 47.44516 | 11.59060 | 148° | 16km/h | 24831m | 4.8m/s | -51.4°C | 3.3% | 27.5hPa | 2.6V | 01:56:00 | 01:42:16 | 00:00:00 | |
| DM0DOS-11 | 2026-09-04 05:21:22 | 47.44529 | 11.59045 | 141° | 24km/h | 24813m | 5.2m/s | -51.4°C | 3.3% | 27.7hPa | 2.6V | 01:56:24 | 01:42:13 | 00:00:00 | |
| BAUMI2-15 | 2026-09-04 05:21:22 | 47.44525 | 11.59050 | 142° | 18km/h | 24819m | 6.3m/s | -51.4°C | 3.3% | 27.6hPa | 2.6V | 01:56:00 | 01:42:14 | 00:00:00 | |
| OE5DXL-15 | 2026-09-04 05:21:21 | 47.44529 | 11.59045 | 142° | 11km/h | 24813m | 5.2m/s | -51.4°C | 3.3% | 27.6hPa | 2.6V | 01:56:00 | 00:00:00 | 00:00:00 | |
| DF1GD-15 | 2026-09-04 05:21:20 | 47.44529 | 11.59045 | 142° | 24km/h | 24813m | 5.2m/s | -51.4°C | 0.6% | 27.7hPa | 2.7V | 01:56:00 | 00:00:00 | 00:00:00 | |
| DL1ZP-14 | 2026-09-04 05:21:18 | 47.44542 | 11.59031 | 129° | 9km/h | 24791m | 6.2m/s | -51.4°C | 0.6% | 27.8hPa | 2.7V | 00:00:00 | 00:00:00 | 00:00:00 | |
| DO3MHA-12 | 2026-09-04 05:21:17 | 47.44542 | 11.59031 | 130° | 9km/h | 24791m | 6.1m/s | -51.3°C | 3.4% | 27.7hPa | 2.7V | 00:00:00 | 01:42:09 | 00:00:00 | |
| OE5MMP-10 | 2026-09-04 05:21:16 | 47.44543 | 11.59028 | 116° | 9km/h | 24785m | 5.8m/s | -51.3°C | 3.4% | 27.7hPa | 2.7V | 01:56:00 | 01:42:08 | 00:00:00 | |
| OM5KV | 2026-09-04 05:21:15 | 47.44543 | 11.59028 | 116° | 9km/h | 24785m | 5.8m/s | -51.4°C | 0.6% | 27.8hPa | 2.7V | 01:56:00 | 00:00:00 | 00:00:00 | |
| DB0NH | 2026-09-04 05:21:14 | 47.44545 | 11.59022 | 117° | 9km/h | 24773m | 6.6m/s | -51.4°C | 3.4% | 27.8hPa | 2.7V | 01:56:00 | 01:42:06 | 00:00:00 | |
| DG1MJG | 2026-09-04 05:21:13 | 47.44545 | 11.59022 | 117° | 7km/h | 24773m | 6.6m/s | -51.5°C | 0.6% | 27.9hPa | 2.7V | 01:56:00 | 00:00:00 | 00:00:00 | |
| DM0DOS-11 | 2026-09-04 05:21:12 | 47.44548 | 11.59016 | 129° | 11km/h | 24756m | 6.2m/s | -51.5°C | 3.3% | 27.9hPa | 2.7V | 01:56:34 | 01:42:03 | 00:00:00 | |
| BAUMI2-15 | 2026-09-04 05:21:12 | 47.44547 | 11.59019 | 136° | 11km/h | 24762m | 5.3m/s | -51.4°C | 3.3% | 27.8hPa | 2.7V | 01:56:00 | 01:42:04 | 00:00:00 | |
| OE5DRO-10 | 2026-09-04 05:21:11 | 47.44548 | 11.59016 | 130° | 9km/h | 24756m | 6.2m/s | -51.4°C | 3.3% | 27.9hPa | 2.7V | 01:56:00 | 00:00:00 | 00:00:00 | |
| IN3IJJ | 2026-09-04 05:21:10 | 47.44548 | 11.59016 | 131° | 11km/h | 24756m | 6.3m/s | -51.5°C | 0.6% | 27.9hPa | 2.7V | 00:00:00 | 00:00:00 | 00:00:00 | |
| DL6DJ-15 | 2026-09-04 05:21:08 | 47.44555 | 11.59004 | 123° | 5km/h | 24733m | 5.1m/s | -51.6°C | 0.6% | 28.0hPa | 2.7V | 00:00:00 | 00:00:00 | 00:00:00 | |
| DO3MHA-12 | 2026-09-04 05:21:07 | 47.44555 | 11.59003 | 124° | 9km/h | 24733m | 5.0m/s | -51.5°C | 3.3% | 27.9hPa | 2.7V | 01:56:00 | 01:41:59 | 00:00:00 | |
| OE5MMP-10 | 2026-09-04 05:21:06 | 47.44556 | 11.59001 | 101° | 11km/h | 24728m | 5.2m/s | -51.6°C | 3.3% | 28.0hPa | 2.7V | 00:00:00 | 01:41:58 | 00:00:00 | |
| OM5KV | 2026-09-04 05:21:05 | 47.44556 | 11.59001 | 102° | 5km/h | 24728m | 5.3m/s | -51.6°C | 0.6% | 28.0hPa | 2.7V | 01:57:00 | 00:00:00 | 00:00:00 | |
| DO3MHA-11 | 2026-09-04 05:21:04 | 47.44555 | 11.58995 | 75° | 11km/h | 24716m | 5.5m/s | -51.7°C | 3.4% | 28.0hPa | 2.7V | 01:56:00 | 01:41:56 | 00:00:00 | |
| DM0DOS-11 | 2026-09-04 05:21:02 | 47.44551 | 11.58984 | 53° | 9km/h | 24699m | 5.4m/s | -51.8°C | 3.5% | 28.1hPa | 2.7V | 01:56:44 | 01:41:53 | 00:00:00 | |
| DF7PN | 2026-09-04 05:20:53 | 47.44547 | 11.58957 | 83° | 7km/h | 24656m | 5.8m/s | -51.8°C | 0.6% | 28.3hPa | 2.6V | 00:00:00 | 00:00:00 | 00:00:00 | |
| DM0DOS-11 | 2026-09-04 05:20:52 | 47.44546 | 11.58950 | 82° | 11km/h | 24644m | 5.1m/s | -51.7°C | 3.4% | 28.4hPa | 2.6V | 01:56:54 | 01:41:43 | 00:00:00 | |
| DL1ZP-14 | 2026-09-04 05:20:47 | 47.44541 | 11.58933 | 61° | 11km/h | 24617m | 6.0m/s | -51.6°C | 0.6% | 28.5hPa | 2.6V | 00:00:00 | 00:00:00 | 00:00:00 | |
| OE5MMP-10 | 2026-09-04 05:20:46 | 47.44541 | 11.58932 | 62° | 13km/h | 24617m | 5.9m/s | -51.6°C | 3.4% | 28.5hPa | 2.6V | 00:00:00 | 01:41:38 | 00:00:00 | |
| DO3MHA-11 | 2026-09-04 05:20:44 | 47.44537 | 11.58924 | 50° | 11km/h | 24607m | 4.7m/s | -51.6°C | 3.4% | 28.5hPa | 2.7V | 01:57:00 | 01:41:36 | 00:00:00 | |
| OM5KV | 2026-09-04 05:20:43 | 47.44537 | 11.58924 | 51° | 15km/h | 24607m | 4.8m/s | -51.6°C | 0.6% | 28.6hPa | 2.7V | 01:57:00 | 00:00:00 | 00:00:00 | |
| BAUMI2-15 | 2026-09-04 05:20:42 | 47.44532 | 11.58918 | 24° | 11km/h | 24596m | 5.8m/s | -51.4°C | 3.4% | 28.5hPa | 2.7V | 01:57:00 | 01:41:34 | 00:00:00 | |
| DM0DOS-11 | 2026-09-04 05:20:42 | 47.44529 | 11.58916 | 23° | 13km/h | 24589m | 5.2m/s | -51.5°C | 3.4% | 28.6hPa | 2.6V | 01:57:04 | 01:41:33 | 00:00:00 | |
| DB0ND-19 | 2026-09-04 05:20:41 | 47.44529 | 11.58916 | 23° | 11km/h | 24590m | 5.2m/s | -51.5°C | 0.6% | 28.6hPa | 2.7V | 00:00:00 | 00:00:00 | 00:00:00 | |
| DF1GD-15 | 2026-09-04 05:20:39 | 47.44527 | 11.58914 | 33° | 13km/h | 24584m | 6.2m/s | -51.5°C | 0.7% | 28.7hPa | 2.7V | 01:57:00 | 00:00:00 | 00:00:00 | |
| DO3MHA-12 | 2026-09-04 05:20:37 | 47.44520 | 11.58907 | 30° | 7km/h | 24568m | 6.1m/s | -51.3°C | 3.4% | 28.7hPa | 2.7V | 00:00:00 | 01:41:29 | 00:00:00 | |
| OE5MMP-10 | 2026-09-04 05:20:36 | 47.44518 | 11.58905 | 34° | 7km/h | 24562m | 5.1m/s | -51.3°C | 3.4% | 28.7hPa | 2.7V | 01:57:00 | 01:41:28 | 00:00:00 | |
| DM0DOS-11 | 2026-09-04 05:20:35 | 47.44513 | 11.58892 | 48° | 5km/h | 24535m | 5.7m/s | -51.4°C | 3.4% | 28.9hPa | 2.7V | 01:57:14 | 01:41:23 | 00:00:00 | |
| DO3MHA-11 | 2026-09-04 05:20:34 | 47.44516 | 11.58900 | 70° | 7km/h | 24550m | 5.6m/s | -51.3°C | 3.4% | 28.8hPa | 2.7V | 00:00:00 | 01:41:26 | 00:00:00 | |
| DF2AP-13 | 2026-09-04 05:20:33 | 47.44515 | 11.58897 | 75° | 7km/h | 24546m | 3.9m/s | -51.3°C | 3.5% | 28.8hPa | 2.7V | 01:57:00 | 01:41:25 | 00:00:00 | |
| BAUMI2-15 | 2026-09-04 05:20:32 | 47.44514 | 11.58894 | 68° | 7km/h | 24541m | 5.3m/s | -51.4°C | 3.4% | 28.8hPa | 2.7V | 01:57:00 | 01:41:24 | 00:00:00 | |
| DK5PH-5 | 2026-09-04 05:20:30 | 47.44512 | 11.58890 | 30° | 7km/h | 24530m | 5.1m/s | -51.3°C | 3.3% | 28.9hPa | 2.7V | 00:00:00 | 01:41:22 | 00:00:00 | |
| PETON7-10 | 2026-09-04 05:20:29 | 47.44511 | 11.58889 | 34° | 7km/h | 24525m | 5.7m/s | -51.3°C | 3.4% | 28.9hPa | 2.7V | 00:00:00 | 01:41:21 | 00:00:00 | |
| IN3IJJ | 2026-09-04 05:20:28 | 47.44511 | 11.58889 | 34° | 5km/h | 24525m | 5.7m/s | -51.4°C | 0.6% | 28.9hPa | 2.7V | 01:57:00 | 00:00:00 | 00:00:00 | |
| DO3MHA-12 | 2026-09-04 05:20:27 | 47.44508 | 11.58886 | 39° | 7km/h | 24513m | 5.0m/s | -51.4°C | 3.4% | 28.9hPa | 2.7V | 01:57:00 | 01:41:19 | 00:00:00 | |
| DM0DOS-11 | 2026-09-04 05:20:26 | 47.44498 | 11.58873 | 74° | 11km/h | 24481m | 4.8m/s | -51.3°C | 3.3% | 29.1hPa | 2.7V | 01:57:24 | 01:41:13 | 00:00:00 | |
| OE5MMP-10 | 2026-09-04 05:20:26 | 47.44506 | 11.58884 | 25° | 7km/h | 24507m | 6.4m/s | -51.3°C | 3.4% | 28.9hPa | 2.7V | 00:00:00 | 01:41:18 | 00:00:00 | |
| DO3MHA-11 | 2026-09-04 05:20:24 | 47.44502 | 11.58882 | 25° | 5km/h | 24497m | 4.4m/s | -51.3°C | 3.4% | 29.0hPa | 2.7V | 01:57:00 | 01:41:16 | 00:00:00 | |
| NBG1-10 | 2026-09-04 05:20:22 | 47.44499 | 11.58877 | 65° | 7km/h | 24486m | 5.2m/s | -51.3°C | 3.4% | 29.0hPa | 2.7V | 01:57:00 | 01:41:14 | 00:00:00 | |
| DB0UT-7 | 2026-09-04 05:20:21 | 47.44497 | 11.58873 | 75° | 7km/h | 24481m | 4.7m/s | -51.3°C | 3.3% | 29.1hPa | 2.7V | 01:57:00 | 01:41:13 | 00:00:00 | |
| S52SK | 2026-09-04 05:20:20 | 47.44498 | 11.58873 | 76° | 11km/h | 24481m | 4.8m/s | -51.3°C | 0.6% | 29.1hPa | 2.7V | 01:57:00 | 00:00:00 | 00:00:00 | |
| DG1MFX-10 | 2026-09-04 05:20:19 | 47.44497 | 11.58870 | 83° | 7km/h | 24475m | 5.9m/s | -51.4°C | 0.7% | 29.1hPa | 2.7V | 01:57:00 | 00:00:00 | 00:00:00 | |
| DF1GD-15 | 2026-09-04 05:20:18 | 47.44497 | 11.58867 | 86° | 4km/h | 24470m | 6.1m/s | -51.4°C | 0.7% | 29.2hPa | 2.7V | 01:57:00 | 00:00:00 | 00:00:00 | |
| OM5KV | 2026-09-04 05:20:17 | 47.44497 | 11.58866 | 0° | 0km/h | 24459m | 5.2m/s | -51.4°C | 0.6% | 29.2hPa | 2.7V | 01:57:00 | 00:00:00 | 00:00:00 | |
| OE5MMP-10 | 2026-09-04 05:20:16 | 47.44497 | 11.58866 | 98° | 5km/h | 24453m | 5.8m/s | -51.3°C | 3.4% | 29.2hPa | 2.7V | 01:57:00 | 01:41:08 | 00:00:00 | |
| S52SK | 2026-09-04 05:20:15 | 47.44497 | 11.58866 | 0° | 0km/h | 24453m | 5.9m/s | -51.4°C | 0.6% | 29.3hPa | 2.6V | 00:00:00 | 00:00:00 | 00:00:00 | |
| PETON7-10 | 2026-09-04 05:20:14 | 47.44496 | 11.58865 | 4° | 7km/h | 24443m | 5.5m/s | 0°C | 0% | 0hPa | 2.6V | 00:00:00 | 00:00:00 | 00:00:00 | |
| OE5WHR-10 | 2026-09-04 05:20:13 | 47.44494 | 11.58866 | 349° | 7km/h | 24437m | 5.9m/s | -51.3°C | 3.3% | 29.2hPa | 2.6V | 00:00:00 | 00:00:00 | 00:00:00 | |
| BAUMI2-15 | 2026-09-04 05:20:12 | 47.44492 | 11.58866 | 353° | 7km/h | 24432m | 4.2m/s | -51.2°C | 3.3% | 29.3hPa | 2.7V | 01:57:00 | 01:41:04 | 00:00:00 | |
| DB0ND-19 | 2026-09-04 05:20:10 | 47.44488 | 11.58865 | 31° | 7km/h | 24421m | 5.6m/s | -51.3°C | 0.6% | 29.4hPa | 2.7V | 00:00:00 | 00:00:00 | 00:00:00 | |
| OM5KV | 2026-09-04 05:20:09 | 47.44488 | 11.58865 | 32° | 7km/h | 24421m | 5.6m/s | -51.3°C | 0.6% | 29.4hPa | 2.7V | 01:58:00 | 00:00:00 | 00:00:00 | |
| IN3IJJ | 2026-09-04 05:20:08 | 47.44486 | 11.58864 | 46° | 7km/h | 24416m | 5.1m/s | -51.3°C | 0.6% | 29.4hPa | 2.7V | 00:00:00 | 00:00:00 | 00:00:00 | |
| DO3MHA-12 | 2026-09-04 05:20:07 | 47.44484 | 11.58860 | 34° | 9km/h | 24404m | 5.2m/s | -51.3°C | 3.4% | 29.4hPa | 2.7V | 01:57:00 | 01:40:59 | 00:00:00 | |
| DL6DJ-15 | 2026-09-04 05:20:06 | 47.44481 | 11.58857 | 60° | 5km/h | 24394m | 6.3m/s | -51.4°C | 0.6% | 29.5hPa | 2.7V | 00:00:00 | 00:00:00 | 00:00:00 | |
| OE5REO-15 | 2026-09-04 05:20:04 | 47.44481 | 11.58857 | 61° | 7km/h | 24394m | 6.3m/s | -51.4°C | 0.6% | 29.5hPa | 2.7V | 01:58:00 | 00:00:00 | 00:00:00 | |
| DF2AP-13 | 2026-09-04 05:20:03 | 47.44480 | 11.58853 | 48° | 5km/h | 24384m | 4.8m/s | -51.3°C | 3.3% | 29.5hPa | 2.7V | 00:00:00 | 01:40:55 | 00:00:00 | |
| BAUMI2-15 | 2026-09-04 05:20:02 | 47.44478 | 11.58851 | 16° | 11km/h | 24378m | 6.4m/s | -51.3°C | 3.4% | 29.5hPa | 2.7V | 01:57:00 | 01:40:54 | 00:00:00 | |
| DK5PH-5 | 2026-09-04 05:20:00 | 47.44473 | 11.58852 | 354° | 5km/h | 24368m | 3.9m/s | -51.1°C | 3.3% | 29.6hPa | 2.7V | 01:57:00 | 01:40:52 | 00:00:00 | |
| PETON7-10 | 2026-09-04 05:19:59 | 47.44470 | 11.58852 | 2° | 5km/h | 24363m | 5.9m/s | 0°C | 0% | 0hPa | 2.7V | 00:00:00 | 00:00:00 | 00:00:00 | |
| OM5KV | 2026-09-04 05:19:58 | 47.44470 | 11.58852 | 2° | 13km/h | 24363m | 5.9m/s | -51.2°C | 0.6% | 29.7hPa | 2.7V | 01:58:00 | 00:00:00 | 00:00:00 | |
| DO3MHA-12 | 2026-09-04 05:19:57 | 47.44465 | 11.58851 | 20° | 5km/h | 24353m | 4.4m/s | -51.2°C | 3.3% | 29.7hPa | 2.7V | 00:00:00 | 01:40:49 | 00:00:00 | |
| OE5MMP-10 | 2026-09-04 05:19:56 | 47.44463 | 11.58850 | 16° | 5km/h | 24348m | 5.2m/s | -51.2°C | 3.3% | 29.7hPa | 2.7V | 01:57:00 | 01:40:48 | 00:00:00 | |
| OE5DRO-10 | 2026-09-04 05:19:55 | 47.44462 | 11.58849 | 9° | 4km/h | 24343m | 5.4m/s | -51.3°C | 3.3% | 29.7hPa | 2.7V | 01:57:00 | 00:00:00 | 00:00:00 | |
| DO3MHA-11 | 2026-09-04 05:19:54 | 47.44460 | 11.58849 | 15° | 4km/h | 24337m | 4.7m/s | -51.4°C | 3.3% | 29.7hPa | 2.7V | 00:00:00 | 01:40:46 | 00:00:00 | |
| OE5WHR-10 | 2026-09-04 05:19:52 | 47.44459 | 11.58846 | 92° | 4km/h | 24327m | 6.4m/s | -51.5°C | 3.4% | 29.8hPa | 2.7V | 01:57:00 | 00:00:00 | 00:00:00 | |
| DB0UT-7 | 2026-09-04 05:19:51 | 47.44460 | 11.58844 | 107° | 5km/h | 24322m | 4.5m/s | -51.4°C | 3.3% | 29.8hPa | 2.7V | 00:00:00 | 00:00:00 | 00:00:00 | |
| NBG1-10 | 2026-09-04 05:19:49 | 47.44461 | 11.58839 | 128° | 5km/h | 24311m | 5.7m/s | -51.5°C | 3.3% | 29.9hPa | 2.7V | 00:00:00 | 01:40:41 | 00:00:00 | |
| OE5REO-15 | 2026-09-04 05:19:48 | 47.44461 | 11.58839 | 128° | 4km/h | 24311m | 5.7m/s | -51.5°C | 0.6% | 29.9hPa | 2.7V | 01:58:00 | 00:00:00 | 00:00:00 | |
| DO3MHA-12 | 2026-09-04 05:19:47 | 47.44462 | 11.58838 | 146° | 4km/h | 24300m | 6.3m/s | -51.5°C | 3.3% | 29.9hPa | 2.7V | 01:57:00 | 01:40:39 | 00:00:00 | |
| OE5MMP-10 | 2026-09-04 05:19:46 | 47.44462 | 11.58837 | 67° | 4km/h | 24294m | 5.0m/s | -51.5°C | 3.3% | 29.9hPa | 2.7V | 00:00:00 | 01:40:38 | 00:00:00 | |
| PETON7-10 | 2026-09-04 05:19:44 | 47.44461 | 11.58838 | 320° | 5km/h | 24284m | 6.4m/s | 0°C | 0% | 0hPa | 2.6V | 00:00:00 | 01:40:36 | 00:00:00 | |
| DG1MJG | 2026-09-04 05:19:41 | 47.44458 | 11.58841 | 335° | 7km/h | 24273m | 5.3m/s | -51.8°C | 0.6% | 30.1hPa | 2.6V | 01:58:00 | 00:00:00 | 00:00:00 | |
| OM5KV | 2026-09-04 05:19:40 | 47.44457 | 11.58842 | 11° | 4km/h | 24267m | 6.3m/s | -51.7°C | 0.6% | 30.1hPa | 2.6V | 01:58:00 | 00:00:00 | 00:00:00 | |
| DB0ND-19 | 2026-09-04 05:19:39 | 47.44456 | 11.58839 | 101° | 4km/h | 24257m | 4.9m/s | -51.8°C | 0.6% | 30.1hPa | 2.6V | 00:00:00 | 00:00:00 | 00:00:00 | |
| DG1MFX-10 | 2026-09-04 05:19:38 | 47.44456 | 11.58839 | 103° | 4km/h | 24257m | 4.9m/s | -51.8°C | 0.7% | 30.1hPa | 2.6V | 01:58:00 | 00:00:00 | 00:00:00 | |
| DO3MHA-12 | 2026-09-04 05:19:37 | 47.44457 | 11.58837 | 160° | 7km/h | 24246m | 4.8m/s | -51.8°C | 3.4% | 30.1hPa | 2.6V | 00:00:00 | 01:40:29 | 00:00:00 | |
| OE5MMP-10 | 2026-09-04 05:19:36 | 47.44458 | 11.58837 | 163° | 7km/h | 24242m | 4.3m/s | -51.8°C | 3.4% | 30.2hPa | 2.6V | 01:58:00 | 01:40:28 | 00:00:00 | |
| OM5KV | 2026-09-04 05:19:35 | 47.44458 | 11.58837 | 163° | 2km/h | 24242m | 4.3m/s | -51.9°C | 0.7% | 30.2hPa | 2.6V | 01:58:00 | 00:00:00 | 00:00:00 | |
| DO3MHA-11 | 2026-09-04 05:19:34 | 47.44458 | 11.58835 | 92° | 9km/h | 24231m | 5.0m/s | -51.9°C | 3.4% | 30.2hPa | 2.6V | 00:00:00 | 01:40:26 | 00:00:00 | |
| DF1GD-15 | 2026-09-04 05:19:33 | 47.44458 | 11.58835 | 93° | 4km/h | 24231m | 5.0m/s | -52.0°C | 0.7% | 30.3hPa | 2.6V | 01:58:00 | 00:00:00 | 00:00:00 | |
| DF2AP-13 | 2026-09-04 05:19:31 | 47.44455 | 11.58834 | 344° | 7km/h | 24215m | 5.4m/s | -52.0°C | 3.4% | 30.3hPa | 2.6V | 01:58:00 | 01:40:23 | 00:00:00 | |
| DK5PH-5 | 2026-09-04 05:19:30 | 47.44453 | 11.58835 | 345° | 7km/h | 24210m | 4.9m/s | -52.0°C | 3.4% | 30.3hPa | 2.6V | 00:00:00 | 01:40:22 | 00:00:00 | |
| PETON7-10 | 2026-09-04 05:19:29 | 47.44449 | 11.58836 | 354° | 7km/h | 24204m | 6.3m/s | 0°C | 0% | 0hPa | 2.6V | 00:00:00 | 00:00:00 | 00:00:00 | |
| DO3MHA-12 | 2026-09-04 05:19:27 | 47.44443 | 11.58836 | 7° | 5km/h | 24194m | 3.9m/s | -52.0°C | 3.4% | 30.4hPa | 2.6V | 01:58:00 | 01:40:19 | 00:00:00 | |
| OE5MMP-10 | 2026-09-04 05:19:26 | 47.44440 | 11.58836 | 358° | 5km/h | 24190m | 5.3m/s | -52.1°C | 3.4% | 30.4hPa | 2.6V | 00:00:00 | 01:40:18 | 00:00:00 | |
| DO3MHA-11 | 2026-09-04 05:19:24 | 47.44437 | 11.58838 | 289° | 5km/h | 24179m | 5.2m/s | -52.1°C | 3.5% | 30.5hPa | 2.6V | 01:58:00 | 01:40:16 | 00:00:00 | |
| OM5KV | 2026-09-04 05:19:23 | 47.44437 | 11.58838 | 290° | 5km/h | 24179m | 5.2m/s | -52.2°C | 0.7% | 30.5hPa | 2.6V | 01:59:00 | 00:00:00 | 00:00:00 | |
| OE9MKV-15 | 2026-09-04 05:19:22 | 47.44438 | 11.58840 | 208° | 7km/h | 24169m | 6.1m/s | -52.2°C | 3.5% | 30.5hPa | 2.6V | 01:58:00 | 01:40:14 | 00:00:00 | |
| DB0UT-7 | 2026-09-04 05:19:21 | 47.44439 | 11.58840 | 149° | 7km/h | 24163m | 5.2m/s | -52.2°C | 3.5% | 30.5hPa | 2.6V | 01:58:00 | 01:40:13 | 00:00:00 | |
| OM5KV | 2026-09-04 05:19:20 | 47.44439 | 11.58840 | 149° | 4km/h | 24163m | 5.3m/s | -52.2°C | 0.7% | 30.6hPa | 2.6V | 01:59:00 | 00:00:00 | 00:00:00 | |
| DO3MHA-12 | 2026-09-04 05:19:17 | 47.44442 | 11.58836 | 105° | 7km/h | 24143m | 4.0m/s | -52.3°C | 3.6% | 30.7hPa | 2.6V | 00:00:00 | 01:40:09 | 00:00:00 | |
| NBG1-10 | 2026-09-04 05:19:16 | 47.44442 | 11.58834 | 78° | 9km/h | 24138m | 5.5m/s | -52.4°C | 3.5% | 30.7hPa | 2.6V | 01:58:00 | 01:40:08 | 00:00:00 | |
| DO3MHA-11 | 2026-09-04 05:19:14 | 47.44440 | 11.58830 | 54° | 9km/h | 24127m | 4.9m/s | -52.2°C | 3.5% | 30.7hPa | 2.6V | 00:00:00 | 01:40:06 | 00:00:00 | |
| DL1ZP-14 | 2026-09-04 05:19:13 | 47.44439 | 11.58828 | 33° | 5km/h | 24122m | 5.8m/s | -52.3°C | 0.7% | 30.8hPa | 2.7V | 00:00:00 | 00:00:00 | 00:00:00 | |
| DF1GD-15 | 2026-09-04 05:19:12 | 47.44439 | 11.58828 | 34° | 7km/h | 24122m | 5.8m/s | -52.3°C | 0.7% | 30.8hPa | 2.6V | 01:59:00 | 00:00:00 | 00:00:00 | |
| S52SK | 2026-09-04 05:19:11 | 47.44437 | 11.58827 | 353° | 7km/h | 24116m | 5.7m/s | -52.2°C | 0.7% | 30.8hPa | 2.6V | 00:00:00 | 00:00:00 | 00:00:00 | |
| OE5WHR-10 | 2026-09-04 05:19:10 | 47.44433 | 11.58830 | 338° | 9km/h | 24105m | 6.2m/s | -52.2°C | 3.5% | 30.8hPa | 2.6V | 01:58:00 | 00:00:00 | 00:00:00 | |
| DG1MJG | 2026-09-04 05:19:09 | 47.44433 | 11.58830 | 338° | 11km/h | 24105m | 6.2m/s | -52.3°C | 0.7% | 30.9hPa | 2.6V | 01:59:00 | 00:00:00 | 00:00:00 | |
| DB0ND-19 | 2026-09-04 05:19:08 | 47.44428 | 11.58833 | 337° | 11km/h | 24094m | 5.1m/s | -52.3°C | 0.7% | 30.9hPa | 2.6V | 00:00:00 | 00:00:00 | 00:00:00 | |
| DO3MHA-12 | 2026-09-04 05:19:07 | 47.44425 | 11.58835 | 327° | 9km/h | 24089m | 6.1m/s | -52.3°C | 3.5% | 30.9hPa | 2.6V | 01:58:00 | 01:39:59 | 00:00:00 | |
| OE5MMP-10 | 2026-09-04 05:19:06 | 47.44423 | 11.58838 | 322° | 9km/h | 24083m | 4.7m/s | -52.4°C | 3.5% | 30.9hPa | 2.6V | 00:00:00 | 01:39:58 | 00:00:00 | |
| OM5KV | 2026-09-04 05:19:05 | 47.44423 | 11.58838 | 323° | 11km/h | 24083m | 4.7m/s | -52.5°C | 0.7% | 31.0hPa | 2.6V | 01:59:00 | 00:00:00 | 00:00:00 | |
| DO3MHA-11 | 2026-09-04 05:19:04 | 47.44418 | 11.58841 | 349° | 9km/h | 24073m | 5.8m/s | -52.4°C | 3.6% | 31.0hPa | 2.6V | 01:58:00 | 01:39:56 | 00:00:00 | |
| DL6DJ-15 | 2026-09-04 05:19:03 | 47.44416 | 11.58842 | 356° | 7km/h | 24067m | 4.7m/s | -52.4°C | 0.7% | 31.0hPa | 2.6V | 00:00:00 | 00:00:00 | 00:00:00 | |
| DF2AP-13 | 2026-09-04 05:19:01 | 47.44412 | 11.58843 | 333° | 13km/h | 24056m | 5.2m/s | -52.4°C | 3.6% | 31.0hPa | 2.6V | 00:00:00 | 01:39:53 | 00:00:00 | |
| DK5PH-5 | 2026-09-04 05:19:00 | 47.44411 | 11.58844 | 328° | 13km/h | 24051m | 4.6m/s | -52.3°C | 3.5% | 31.1hPa | 2.6V | 01:58:00 | 01:39:52 | 00:00:00 | |
| OM5KV | 2026-09-04 05:18:59 | 47.44411 | 11.58844 | 328° | 7km/h | 24051m | 4.6m/s | -52.3°C | 0.7% | 31.1hPa | 2.6V | 01:59:00 | 00:00:00 | 00:00:00 | |
| OE5DRO-10 | 2026-09-04 05:18:58 | 47.44408 | 11.58846 | 340° | 11km/h | 24040m | 5.1m/s | -52.2°C | 3.5% | 31.1hPa | 2.6V | 00:00:00 | 00:00:00 | 00:00:00 | |
| DO3MHA-12 | 2026-09-04 05:18:57 | 47.44406 | 11.58847 | 326° | 11km/h | 24035m | 5.0m/s | -52.3°C | 3.5% | 31.1hPa | 2.6V | 00:00:00 | 01:39:49 | 00:00:00 | |
| OE5MMP-10 | 2026-09-04 05:18:56 | 47.44405 | 11.58850 | 308° | 11km/h | 24030m | 6.1m/s | -52.2°C | 3.5% | 31.2hPa | 2.6V | 01:58:00 | 01:39:48 | 00:00:00 | |
| OM5KV | 2026-09-04 05:18:55 | 47.44405 | 11.58850 | 308° | 11km/h | 24030m | 6.1m/s | -52.3°C | 0.7% | 31.2hPa | 2.6V | 01:59:00 | 00:00:00 | 00:00:00 | |
| DO3MHA-11 | 2026-09-04 05:18:54 | 47.44402 | 11.58858 | 294° | 11km/h | 24020m | 4.3m/s | -52.2°C | 3.5% | 31.2hPa | 2.6V | 00:00:00 | 01:39:46 | 00:00:00 | |
| OM5KV | 2026-09-04 05:18:53 | 47.44402 | 11.58858 | 295° | 13km/h | 24020m | 4.3m/s | -52.2°C | 0.7% | 31.3hPa | 2.6V | 01:59:00 | 00:00:00 | 00:00:00 | |
| OE9MKV-15 | 2026-09-04 05:18:52 | 47.44399 | 11.58864 | 312° | 16km/h | 24010m | 4.6m/s | -52.2°C | 3.6% | 31.3hPa | 2.6V | 00:00:00 | 01:39:44 | 00:00:00 | |
| OE5DXL-15 | 2026-09-04 05:18:51 | 47.44397 | 11.58867 | 313° | 16km/h | 24005m | 5.2m/s | -52.2°C | 3.6% | 31.3hPa | 2.6V | 00:00:00 | 00:00:00 | 00:00:00 | |
| OM5KV | 2026-09-04 05:18:50 | 47.44397 | 11.58867 | 313° | 11km/h | 24005m | 5.2m/s | -52.3°C | 0.7% | 31.3hPa | 2.6V | 01:59:00 | 00:00:00 | 00:00:00 | |
| OE5WHR-10 | 2026-09-04 05:18:49 | 47.44393 | 11.58874 | 311° | 15km/h | 23994m | 5.2m/s | -52.2°C | 3.6% | 31.3hPa | 2.6V | 00:00:00 | 00:00:00 | 00:00:00 | |
| DO3MHA-12 | 2026-09-04 05:18:47 | 47.44389 | 11.58880 | 318° | 13km/h | 23982m | 5.3m/s | -52.1°C | 3.5% | 31.4hPa | 2.6V | 01:58:00 | 01:39:39 | 00:00:00 | |
| OE5MMP-10 | 2026-09-04 05:18:46 | 47.44388 | 11.58882 | 310° | 15km/h | 23977m | 4.8m/s | -52.1°C | 3.5% | 31.4hPa | 2.6V | 00:00:00 | 01:39:38 | 00:00:00 | |
| DO3MHA-11 | 2026-09-04 05:18:44 | 47.44386 | 11.58888 | 285° | 16km/h | 23966m | 5.3m/s | -52.1°C | 3.5% | 31.5hPa | 2.7V | 01:59:00 | 01:39:36 | 00:00:00 | |
| NBG1-10 | 2026-09-04 05:18:43 | 47.44385 | 11.58893 | 282° | 18km/h | 23961m | 4.6m/s | -52.1°C | 3.5% | 31.5hPa | 2.7V | 00:00:00 | 01:39:35 | 00:00:00 | |
| DL1ZP-14 | 2026-09-04 05:18:42 | 47.44385 | 11.58898 | 283° | 11km/h | 23955m | 6.2m/s | -52.2°C | 0.7% | 31.6hPa | 2.7V | 00:00:00 | 00:00:00 | 00:00:00 | |
| OM5KV | 2026-09-04 05:18:41 | 47.44385 | 11.58897 | 285° | 13km/h | 23955m | 6.2m/s | -52.2°C | 0.7% | 31.6hPa | 2.6V | 01:59:00 | 00:00:00 | 00:00:00 | |
| OE5DRO-10 | 2026-09-04 05:18:39 | 47.44381 | 11.58912 | 291° | 20km/h | 23939m | 6.5m/s | -52.1°C | 3.5% | 31.6hPa | 2.6V | 01:59:00 | 00:00:00 | 00:00:00 | |
| IN3IJJ | 2026-09-04 05:18:38 | 47.44381 | 11.58912 | 291° | 18km/h | 23939m | 6.6m/s | 0°C | 0% | 31.7hPa | 2.6V | 00:00:00 | 00:00:00 | 00:00:00 | |
| DO3MHA-12 | 2026-09-04 05:18:37 | 47.44377 | 11.58926 | 293° | 20km/h | 23929m | 4.2m/s | -52.0°C | 3.4% | 31.7hPa | 2.6V | 00:00:00 | 01:39:29 | 00:00:00 | |
| OE5MMP-10 | 2026-09-04 05:18:36 | 47.44375 | 11.58933 | 298° | 18km/h | 23924m | 6.1m/s | -52.0°C | 3.4% | 31.7hPa | 2.6V | 01:59:00 | 01:39:28 | 00:00:00 | |
| DF3TZ-5 | 2026-09-04 05:18:35 | 47.44371 | 11.58944 | 297° | 15km/h | 23913m | 4.3m/s | 0°C | -1.0% | -1.0hPa | 2.6V | 00:00:00 | 00:00:00 | 00:00:00 | |
| DO3MHA-11 | 2026-09-04 05:18:34 | 47.44371 | 11.58944 | 298° | 20km/h | 23913m | 4.3m/s | -52.0°C | 3.4% | 31.7hPa | 2.6V | 00:00:00 | 01:39:26 | 00:00:00 | |
| OE3JTB-15 | 2026-09-04 05:18:33 | 47.44369 | 11.58949 | 293° | 20km/h | 23908m | 5.7m/s | -52.0°C | 3.5% | 31.8hPa | 2.6V | 01:59:00 | 00:00:00 | 00:00:00 | |
| DL6DJ-15 | 2026-09-04 05:18:32 | 47.44368 | 11.58956 | 281° | 18km/h | 23902m | 5.5m/s | -52.1°C | 0.7% | 31.8hPa | 2.6V | 00:00:00 | 00:00:00 | 00:00:00 | |
| DF2AP-13 | 2026-09-04 05:18:31 | 47.44368 | 11.58963 | 272° | 20km/h | 23898m | 4.4m/s | -52.1°C | 3.5% | 31.8hPa | 2.6V | 01:59:00 | 01:39:23 | 00:00:00 | |
| OM5KV | 2026-09-04 05:18:30 | 47.44368 | 11.58963 | 273° | 22km/h | 23898m | 4.4m/s | -52.1°C | 0.7% | 31.9hPa | 2.6V | 02:00:00 | 00:00:00 | 00:00:00 | |
| OE5WHR-10 | 2026-09-04 05:18:28 | 47.44369 | 11.58987 | 261° | 18km/h | 23882m | 5.4m/s | -51.9°C | 3.5% | 31.9hPa | 2.6V | 01:59:00 | 01:39:20 | 00:00:00 | |
| DO3MHA-12 | 2026-09-04 05:18:27 | 47.44370 | 11.58994 | 269° | 20km/h | 23877m | 4.5m/s | -51.9°C | 3.5% | 31.9hPa | 2.6V | 01:59:00 | 01:39:19 | 00:00:00 | |
| OE5MMP-10 | 2026-09-04 05:18:26 | 47.44369 | 11.59001 | 279° | 20km/h | 23872m | 5.7m/s | -51.9°C | 3.5% | 31.9hPa | 2.6V | 00:00:00 | 01:39:18 | 00:00:00 | |
| OM5KV | 2026-09-04 05:18:25 | 47.44369 | 11.59001 | 280° | 20km/h | 23872m | 5.8m/s | -51.9°C | 0.7% | 32.0hPa | 2.6V | 02:00:00 | 00:00:00 | 00:00:00 | |
| DO3MHA-11 | 2026-09-04 05:18:24 | 47.44366 | 11.59016 | 299° | 18km/h | 23861m | 4.5m/s | -52.0°C | 3.5% | 32.0hPa | 2.6V | 01:59:00 | 01:39:16 | 00:00:00 | |
| OE5DXL-15 | 2026-09-04 05:18:21 | 47.44356 | 11.59037 | 311° | 16km/h | 23845m | 4.9m/s | -52.0°C | 3.3% | 32.1hPa | 2.6V | 01:59:00 | 00:00:00 | 00:00:00 | |
| OE5DRO-10 | 2026-09-04 05:18:20 | 47.44353 | 11.59042 | 308° | 18km/h | 23840m | 5.1m/s | -52.0°C | 3.4% | 32.1hPa | 2.6V | 00:00:00 | 00:00:00 | 00:00:00 | |
| DF7PN | 2026-09-04 05:18:18 | 47.44347 | 11.59060 | 278° | 15km/h | 23824m | 5.4m/s | -52.2°C | 0.7% | 32.2hPa | 2.6V | 00:00:00 | 00:00:00 | 00:00:00 | |
| DO3MHA-12 | 2026-09-04 05:18:17 | 47.44347 | 11.59060 | 279° | 18km/h | 23824m | 5.3m/s | -52.2°C | 3.3% | 32.2hPa | 2.6V | 00:00:00 | 01:39:09 | 00:00:00 | |
| OE5MMP-10 | 2026-09-04 05:18:16 | 47.44347 | 11.59065 | 268° | 18km/h | 23819m | 6.0m/s | -52.3°C | 3.4% | 32.2hPa | 2.6V | 01:59:00 | 01:39:08 | 00:00:00 | |
| DG1MFX-10 | 2026-09-04 05:18:15 | 47.44347 | 11.59065 | 269° | 13km/h | 23819m | 6.0m/s | -52.3°C | 0.7% | 32.3hPa | 2.6V | 02:00:00 | 00:00:00 | 00:00:00 | |
| DO3MHA-11 | 2026-09-04 05:18:14 | 47.44348 | 11.59076 | 264° | 18km/h | 23808m | 5.7m/s | -52.5°C | 3.6% | 32.3hPa | 2.6V | 00:00:00 | 01:39:06 | 00:00:00 | |
| DL1ZP-14 | 2026-09-04 05:18:11 | 47.44347 | 11.59097 | 283° | 20km/h | 23793m | 5.5m/s | -52.6°C | 0.7% | 32.4hPa | 2.6V | 00:00:00 | 00:00:00 | 00:00:00 | |
| IN3HCDX | 2026-09-04 05:18:10 | 47.44345 | 11.59104 | 293° | 18km/h | 23787m | 5.7m/s | -52.6°C | 0.7% | 32.4hPa | 2.7V | 02:00:00 | 00:00:00 | 00:00:00 | |
| OM5KV | 2026-09-04 05:18:09 | 47.44345 | 11.59104 | 293° | 18km/h | 23787m | 5.7m/s | -52.6°C | 0.7% | 32.4hPa | 2.7V | 02:00:00 | 00:00:00 | 00:00:00 | |
| DG1MJG | 2026-09-04 05:18:08 | 47.44343 | 11.59110 | 302° | 18km/h | 23782m | 5.0m/s | -52.7°C | 0.7% | 32.5hPa | 2.7V | 02:00:00 | 00:00:00 | 00:00:00 | |
| DO3MHA-12 | 2026-09-04 05:18:07 | 47.44338 | 11.59122 | 299° | 16km/h | 23772m | 5.5m/s | -52.5°C | 3.6% | 32.5hPa | 2.7V | 01:59:00 | 01:38:59 | 00:00:00 | |
| DM0DOS-11 | 2026-09-04 05:18:06 | 47.44341 | 11.59157 | 237° | 18km/h | 23739m | 5.5m/s | -52.5°C | 3.6% | 32.6hPa | 2.7V | 01:59:44 | 01:38:53 | 00:00:00 | |
| OE5MMP-10 | 2026-09-04 05:18:06 | 47.44336 | 11.59129 | 290° | 16km/h | 23766m | 4.6m/s | -52.6°C | 3.6% | 32.5hPa | 2.6V | 00:00:00 | 01:38:58 | 00:00:00 | |
| DO3MHA-11 | 2026-09-04 05:18:04 | 47.44335 | 11.59142 | 260° | 15km/h | 23756m | 5.8m/s | -52.5°C | 3.6% | 32.5hPa | 2.6V | 01:59:00 | 01:38:56 | 00:00:00 | |
| OM5KV | 2026-09-04 05:18:03 | 47.44335 | 11.59142 | 260° | 15km/h | 23756m | 5.9m/s | -52.5°C | 0.7% | 32.6hPa | 2.6V | 02:00:00 | 00:00:00 | 00:00:00 | |
| OM5KV | 2026-09-04 05:18:02 | 47.44336 | 11.59147 | 242° | 15km/h | 23750m | 5.1m/s | -52.6°C | 0.7% | 32.6hPa | 2.6V | 02:00:00 | 00:00:00 | 00:00:00 | |
| DL6DJ-15 | 2026-09-04 05:18:01 | 47.44341 | 11.59157 | 237° | 18km/h | 23739m | 5.5m/s | -52.5°C | 0.7% | 32.6hPa | 2.6V | 00:00:00 | 00:00:00 | 00:00:00 | |
| DF7PN | 2026-09-04 05:17:47 | 47.44346 | 11.59230 | 226° | 13km/h | 23659m | 6.7m/s | -52.5°C | 0.7% | 33.1hPa | 2.6V | 00:00:00 | 00:00:00 | 00:00:00 | |
| OE5WHR-10 | 2026-09-04 05:17:46 | 47.44346 | 11.59230 | 227° | 11km/h | 23659m | 6.6m/s | -52.4°C | 3.6% | 33.0hPa | 2.6V | 01:59:00 | 00:00:00 | 00:00:00 | |
| DO3MHA-11 | 2026-09-04 05:17:44 | 47.44351 | 11.59237 | 225° | 15km/h | 23649m | 5.2m/s | -52.4°C | 3.6% | 33.1hPa | 2.6V | 02:00:00 | 01:38:36 | 00:00:00 | |
| PG1ADW-2 | 2026-09-04 05:17:43 | 47.44354 | 11.59242 | 234° | 13km/h | 23643m | 5.8m/s | -52.4°C | 3.7% | 33.1hPa | 2.7V | 00:00:00 | 01:38:35 | 00:00:00 | |
| OE5DRO-10 | 2026-09-04 05:17:42 | 47.44357 | 11.59247 | 245° | 11km/h | 23638m | 4.6m/s | -52.4°C | 3.7% | 33.1hPa | 2.7V | 02:00:00 | 00:00:00 | 00:00:00 | |
| BAUMI2-15 | 2026-09-04 05:17:41 | 47.44358 | 11.59253 | 253° | 13km/h | 23633m | 4.6m/s | -52.4°C | 3.6% | 33.2hPa | 2.6V | 00:00:00 | 01:38:33 | 00:00:00 | |
| DL1ZP-14 | 2026-09-04 05:17:40 | 47.44359 | 11.59259 | 256° | 13km/h | 23628m | 5.7m/s | -52.4°C | 0.7% | 33.2hPa | 2.6V | 00:00:00 | 00:00:00 | 00:00:00 | |
| OM5KV | 2026-09-04 05:17:39 | 47.44359 | 11.59259 | 257° | 15km/h | 23628m | 5.7m/s | -52.4°C | 0.7% | 33.2hPa | 2.6V | 02:00:00 | 00:00:00 | 00:00:00 | |
| DO3MHA-12 | 2026-09-04 05:17:37 | 47.44361 | 11.59272 | 257° | 9km/h | 23612m | 6.0m/s | -52.3°C | 3.6% | 33.2hPa | 2.6V | 00:00:00 | 01:38:29 | 00:00:00 | |
| OE5MMP-10 | 2026-09-04 05:17:36 | 47.44362 | 11.59277 | 251° | 9km/h | 23607m | 4.8m/s | -52.2°C | 3.6% | 33.3hPa | 2.6V | 00:00:00 | 01:38:28 | 00:00:00 | |
| PETON7-10 | 2026-09-04 05:17:35 | 47.44364 | 11.59281 | 243° | 15km/h | 23602m | 4.6m/s | 0°C | 0% | 0hPa | 2.6V | 00:00:00 | 00:00:00 | 00:00:00 | |
| DO3MHA-11 | 2026-09-04 05:17:34 | 47.44365 | 11.59284 | 231° | 9km/h | 23596m | 6.3m/s | -52.2°C | 3.6% | 33.3hPa | 2.6V | 00:00:00 | 01:38:26 | 00:00:00 | |
| OE3JTB-15 | 2026-09-04 05:17:33 | 47.44367 | 11.59287 | 222° | 9km/h | 23591m | 5.3m/s | -52.1°C | 3.5% | 33.4hPa | 2.6V | 02:00:00 | 00:00:00 | 00:00:00 | |
| BAUMI2-15 | 2026-09-04 05:17:31 | 47.44370 | 11.59291 | 229° | 7km/h | 23580m | 5.9m/s | -52.1°C | 3.5% | 33.4hPa | 2.7V | 02:00:00 | 01:38:23 | 00:00:00 | |
| DK5PH-5 | 2026-09-04 05:17:30 | 47.44371 | 11.59294 | 244° | 9km/h | 23574m | 5.0m/s | -52.1°C | 3.5% | 33.4hPa | 2.6V | 00:00:00 | 01:38:22 | 00:00:00 | |
| IN3HCDX | 2026-09-04 05:17:29 | 47.44372 | 11.59297 | 253° | 7km/h | 23569m | 5.7m/s | -52.2°C | 0.7% | 33.5hPa | 2.6V | 02:00:00 | 00:00:00 | 00:00:00 | |
| OM5KV | 2026-09-04 05:17:28 | 47.44372 | 11.59297 | 253° | 7km/h | 23569m | 5.7m/s | -52.2°C | 0.7% | 33.5hPa | 2.6V | 02:00:00 | 00:00:00 | 00:00:00 | |
| DO3MHA-12 | 2026-09-04 05:17:27 | 47.44372 | 11.59301 | 272° | 11km/h | 23558m | 4.3m/s | -52.1°C | 3.5% | 33.5hPa | 2.6V | 02:00:00 | 01:38:19 | 00:00:00 | |
| OE5WHR-10 | 2026-09-04 05:17:25 | 47.44372 | 11.59309 | 273° | 11km/h | 23548m | 5.8m/s | -52.1°C | 3.5% | 33.6hPa | 2.7V | 00:00:00 | 01:38:17 | 00:00:00 | |
| OM5KV | 2026-09-04 05:17:24 | 47.44372 | 11.59314 | 272° | 15km/h | 23542m | 4.8m/s | -52.1°C | 0.7% | 33.6hPa | 2.7V | 02:00:00 | 00:00:00 | 00:00:00 | |
| OE5DRO-10 | 2026-09-04 05:17:23 | 47.44372 | 11.59319 | 272° | 11km/h | 23537m | 6.1m/s | -52.0°C | 3.6% | 33.6hPa | 2.7V | 00:00:00 | 00:00:00 | 00:00:00 | |
| PG1ADW-2 | 2026-09-04 05:17:22 | 47.44372 | 11.59323 | 266° | 13km/h | 23531m | 5.4m/s | -52.0°C | 3.6% | 33.7hPa | 2.7V | 00:00:00 | 00:00:00 | 00:00:00 | |
| DB0UT-7 | 2026-09-04 05:17:21 | 47.44372 | 11.59327 | 260° | 9km/h | 23527m | 4.1m/s | -52.0°C | 3.5% | 33.7hPa | 2.7V | 00:00:00 | 01:38:13 | 00:00:00 | |
| DF7PN | 2026-09-04 05:17:16 | 47.44373 | 11.59340 | 348° | 4km/h | 23495m | 5.1m/s | -52.0°C | 0.7% | 33.9hPa | 2.7V | 00:00:00 | 00:00:00 | 00:00:00 | |
| DO3MHA-11 | 2026-09-04 05:17:14 | 47.44372 | 11.59340 | 336° | 13km/h | 23489m | 6.3m/s | -51.9°C | 3.5% | 33.9hPa | 2.7V | 02:00:00 | 01:38:06 | 00:00:00 | |
| OM5KV | 2026-09-04 05:17:13 | 47.44372 | 11.59340 | 336° | 5km/h | 23489m | 6.3m/s | -51.9°C | 0.7% | 34.0hPa | 2.6V | 02:00:00 | 00:00:00 | 00:00:00 | |
| OM5KV | 2026-09-04 05:17:12 | 47.44371 | 11.59342 | 313° | 7km/h | 23483m | 5.5m/s | -51.9°C | 0.7% | 34.0hPa | 2.6V | 02:00:00 | 00:00:00 | 00:00:00 | |
| BAUMI2-15 | 2026-09-04 05:17:11 | 47.44368 | 11.59347 | 309° | 13km/h | 23473m | 6.2m/s | -51.9°C | 3.4% | 34.0hPa | 2.6V | 00:00:00 | 01:38:03 | 00:00:00 | |
| DF1GD-15 | 2026-09-04 05:17:10 | 47.44368 | 11.59347 | 309° | 9km/h | 23473m | 6.2m/s | -51.9°C | 0.7% | 34.1hPa | 2.6V | 02:00:00 | 00:00:00 | 00:00:00 | |
| DL1ZP-14 | 2026-09-04 05:17:09 | 47.44365 | 11.59354 | 296° | 13km/h | 23462m | 4.2m/s | -52.0°C | 0.7% | 34.1hPa | 2.6V | 00:00:00 | 00:00:00 | 00:00:00 | |
| DO3MHA-12 | 2026-09-04 05:17:07 | 47.44363 | 11.59365 | 277° | 11km/h | 23452m | 5.5m/s | -52.0°C | 3.5% | 34.1hPa | 2.6V | 00:00:00 | 01:37:59 | 00:00:00 | |
| OE5MMP-10 | 2026-09-04 05:17:06 | 47.44362 | 11.59372 | 273° | 9km/h | 23446m | 4.9m/s | -52.1°C | 3.5% | 34.1hPa | 2.6V | 00:00:00 | 01:37:58 | 00:00:00 | |
| OE5WHR-10 | 2026-09-04 05:17:04 | 47.44361 | 11.59384 | 287° | 9km/h | 23435m | 5.4m/s | -52.2°C | 3.5% | 34.2hPa | 2.6V | 02:00:00 | 00:00:00 | 00:00:00 | |
| DM0DOS-11 | 2026-09-04 05:17:02 | 47.44356 | 11.59401 | 259° | 9km/h | 23391m | 5.9m/s | -52.1°C | 3.5% | 34.5hPa | 2.7V | 02:00:49 | 01:37:48 | 00:00:00 | |
| DL6DJ-15 | 2026-09-04 05:16:59 | 47.44358 | 11.59394 | 329° | 5km/h | 23407m | 5.8m/s | -52.2°C | 0.7% | 34.4hPa | 2.6V | 00:00:00 | 00:00:00 | 00:00:00 | |
| DO3MHA-12 | 2026-09-04 05:16:57 | 47.44356 | 11.59397 | 287° | 11km/h | 23397m | 5.8m/s | -52.0°C | 3.5% | 34.3hPa | 2.6V | 02:00:00 | 01:37:49 | 00:00:00 | |
| OE5MMP-10 | 2026-09-04 05:16:56 | 47.44356 | 11.59401 | 260° | 11km/h | 23392m | 5.8m/s | -52.0°C | 3.5% | 34.4hPa | 2.7V | 00:00:00 | 01:37:48 | 00:00:00 | |
| PG1ADW-2 | 2026-09-04 05:16:55 | 47.44356 | 11.59404 | 250° | 16km/h | 23386m | 5.0m/s | -52.0°C | 3.5% | 34.5hPa | 2.7V | 02:00:00 | 00:00:00 | 00:00:00 | |
| DO3MHA-11 | 2026-09-04 05:16:54 | 47.44358 | 11.59408 | 252° | 11km/h | 23380m | 6.5m/s | -52.1°C | 3.6% | 34.4hPa | 2.6V | 00:00:00 | 01:37:46 | 00:00:00 | |
| DM0DOS-11 | 2026-09-04 05:16:51 | 47.44366 | 11.59439 | 244° | 11km/h | 23335m | 6.2m/s | -52.2°C | 3.6% | 34.8hPa | 2.6V | 02:00:59 | 01:37:38 | 00:00:00 | |
| OE5DXL-15 | 2026-09-04 05:16:51 | 47.44360 | 11.59420 | 242° | 20km/h | 23364m | 6.4m/s | -52.1°C | 3.6% | 34.6hPa | 2.6V | 02:00:00 | 00:00:00 | 00:00:00 | |
| DF1GD-15 | 2026-09-04 05:16:50 | 47.44360 | 11.59420 | 242° | 13km/h | 23364m | 6.5m/s | -52.2°C | 0.8% | 34.6hPa | 2.6V | 02:01:00 | 00:00:00 | 00:00:00 | |
| S52SK | 2026-09-04 05:16:48 | 47.44364 | 11.59429 | 241° | 11km/h | 23352m | 6.0m/s | -52.1°C | 0.7% | 34.6hPa | 2.6V | 00:00:00 | 00:00:00 | 00:00:00 | |
| DO3MHA-12 | 2026-09-04 05:16:47 | 47.44366 | 11.59435 | 252° | 16km/h | 23341m | 4.1m/s | -52.1°C | 3.6% | 34.7hPa | 2.6V | 00:00:00 | 01:37:39 | 00:00:00 | |
| OE5MMP-10 | 2026-09-04 05:16:46 | 47.44367 | 11.59439 | 245° | 18km/h | 23336m | 6.2m/s | -52.1°C | 3.6% | 34.7hPa | 2.6V | 02:00:00 | 01:37:38 | 00:00:00 | |
| DF7PN | 2026-09-04 05:16:45 | 47.44370 | 11.59448 | 246° | 15km/h | 23324m | 5.4m/s | -52.2°C | 0.7% | 34.8hPa | 2.6V | 00:00:00 | 00:00:00 | 00:00:00 | |
| DO3MHA-11 | 2026-09-04 05:16:44 | 47.44369 | 11.59448 | 247° | 18km/h | 23324m | 5.3m/s | -52.2°C | 3.6% | 34.8hPa | 2.6V | 02:01:00 | 01:37:36 | 00:00:00 | |
| OE5WHR-10 | 2026-09-04 05:16:43 | 47.44371 | 11.59453 | 253° | 22km/h | 23318m | 6.1m/s | -52.2°C | 3.6% | 34.8hPa | 2.7V | 00:00:00 | 00:00:00 | 00:00:00 | |
| S52SK | 2026-09-04 05:16:42 | 47.44371 | 11.59453 | 254° | 16km/h | 23318m | 6.2m/s | -52.3°C | 0.7% | 34.8hPa | 2.7V | 00:00:00 | 00:00:00 | 00:00:00 | |
| DM0DOS-11 | 2026-09-04 05:16:41 | 47.44390 | 11.59496 | 231° | 16km/h | 23281m | 4.4m/s | -52°C | 3.5% | 35.1hPa | 2.7V | 02:01:09 | 01:37:28 | 00:00:00 | |
| BAUMI2-15 | 2026-09-04 05:16:41 | 47.44374 | 11.59467 | 247° | 22km/h | 23307m | 6.2m/s | -52.1°C | 3.5% | 34.9hPa | 2.7V | 00:00:00 | 01:37:33 | 00:00:00 | |
| DL1ZP-14 | 2026-09-04 05:16:38 | 47.44384 | 11.59486 | 226° | 20km/h | 23292m | 5.7m/s | -52.1°C | 0.7% | 35.0hPa | 2.7V | 00:00:00 | 00:00:00 | 00:00:00 | |
| DO3MHA-12 | 2026-09-04 05:16:37 | 47.44387 | 11.59492 | 229° | 22km/h | 23286m | 5.6m/s | -52.1°C | 3.6% | 35.0hPa | 2.6V | 00:00:00 | 01:37:29 | 00:00:00 | |
| OE5MMP-10 | 2026-09-04 05:16:36 | 47.44390 | 11.59496 | 232° | 22km/h | 23281m | 4.3m/s | -52.0°C | 3.5% | 35.0hPa | 2.6V | 00:00:00 | 01:37:28 | 00:00:00 | |
| DO3MHA-11 | 2026-09-04 05:16:34 | 47.44395 | 11.59506 | 231° | 24km/h | 23271m | 5.7m/s | -52.0°C | 3.5% | 35.1hPa | 2.6V | 00:00:00 | 01:37:26 | 00:00:00 | |
| DB0ND-19 | 2026-09-04 05:16:33 | 47.44399 | 11.59512 | 230° | 22km/h | 23265m | 5.5m/s | -52.0°C | 0.7% | 35.1hPa | 2.6V | 00:00:00 | 00:00:00 | 00:00:00 | |
| DM0DOS-11 | 2026-09-04 05:16:31 | 47.44426 | 11.59562 | 221° | 26km/h | 23227m | 5.6m/s | -52°C | 3.5% | 35.4hPa | 2.6V | 02:01:19 | 01:37:18 | 00:00:00 | |
| NBG1-10 | 2026-09-04 05:16:31 | 47.44406 | 11.59526 | 236° | 26km/h | 23254m | 6.3m/s | -52.0°C | 3.5% | 35.1hPa | 2.7V | 00:00:00 | 01:37:23 | 00:00:00 | |
| DK5PH-5 | 2026-09-04 05:16:30 | 47.44409 | 11.59533 | 237° | 26km/h | 23249m | 4.8m/s | -51.9°C | 3.5% | 35.2hPa | 2.7V | 02:01:00 | 01:37:22 | 00:00:00 | |
| DF1GD-15 | 2026-09-04 05:16:29 | 47.44409 | 11.59533 | 238° | 24km/h | 23249m | 4.9m/s | -52.0°C | 0.7% | 35.2hPa | 2.6V | 02:01:00 | 00:00:00 | 00:00:00 | |
| DL6DJ-15 | 2026-09-04 05:16:28 | 47.44417 | 11.59548 | 227° | 26km/h | 23237m | 6.0m/s | -52.0°C | 0.7% | 35.3hPa | 2.6V | 00:00:00 | 00:00:00 | 00:00:00 | |
| DO3MHA-12 | 2026-09-04 05:16:27 | 47.44421 | 11.59555 | 224° | 24km/h | 23232m | 4.6m/s | -51.9°C | 3.5% | 35.3hPa | 2.6V | 02:01:00 | 01:37:19 | 00:00:00 | |
| OE5MMP-10 | 2026-09-04 05:16:26 | 47.44426 | 11.59562 | 222° | 24km/h | 23227m | 5.5m/s | -51.9°C | 3.5% | 35.3hPa | 2.6V | 00:00:00 | 01:37:18 | 00:00:00 | |
| DO3MHA-11 | 2026-09-04 05:16:24 | 47.44435 | 11.59573 | 222° | 26km/h | 23216m | 4.5m/s | -51.9°C | 3.5% | 35.4hPa | 2.6V | 00:00:00 | 01:37:16 | 00:00:00 | |
| OM5KV | 2026-09-04 05:16:23 | 47.44435 | 11.59573 | 222° | 22km/h | 23216m | 4.5m/s | -52.0°C | 0.7% | 35.4hPa | 2.6V | 02:01:00 | 00:00:00 | 00:00:00 | |
| OE5WHR-10 | 2026-09-04 05:16:22 | 47.44444 | 11.59584 | 218° | 26km/h | 23206m | 6.2m/s | -51.9°C | 3.4% | 35.4hPa | 2.6V | 00:00:00 | 01:37:14 | 00:00:00 | |
| DM0DOS-11 | 2026-09-04 05:16:21 | 47.44473 | 11.59623 | 221° | 31km/h | 23171m | 5.3m/s | -52°C | 3.5% | 35.6hPa | 2.6V | 02:01:29 | 01:37:08 | 00:00:00 | |
| OE5DXL-15 | 2026-09-04 05:16:21 | 47.44449 | 11.59590 | 219° | 24km/h | 23200m | 5.6m/s | -51.9°C | 3.5% | 35.5hPa | 2.6V | 00:00:00 | 00:00:00 | 00:00:00 | |
| OE9MKV-15 | 2026-09-04 05:16:19 | 47.44458 | 11.59602 | 226° | 24km/h | 23188m | 5.8m/s | -51.9°C | 3.4% | 35.5hPa | 2.6V | 00:00:00 | 01:37:11 | 00:00:00 | |
| DO3MHA-12 | 2026-09-04 05:16:17 | 47.44468 | 11.59616 | 224° | 27km/h | 23177m | 6.1m/s | -52.0°C | 3.5% | 35.6hPa | 2.6V | 00:00:00 | 01:37:09 | 00:00:00 | |
| OE5MMP-10 | 2026-09-04 05:16:16 | 47.44473 | 11.59623 | 222° | 27km/h | 23171m | 5.3m/s | -51.9°C | 3.5% | 35.6hPa | 2.6V | 02:01:00 | 01:37:08 | 00:00:00 | |
| OM5KV | 2026-09-04 05:16:14 | 47.44479 | 11.59630 | 221° | 31km/h | 23166m | 4.2m/s | -52.0°C | 0.7% | 35.7hPa | 2.7V | 02:01:00 | 00:00:00 | 00:00:00 | |
| PG1ADW-2 | 2026-09-04 05:16:13 | 47.44490 | 11.59645 | 218° | 24km/h | 23155m | 5.1m/s | -52.0°C | 3.5% | 35.7hPa | 2.7V | 00:00:00 | 01:37:05 | 00:00:00 | |
| DM0DOS-11 | 2026-09-04 05:16:12 | 47.44532 | 11.59665 | 196° | 22km/h | 23117m | 4.4m/s | -52.2°C | 3.5% | 36hPa | 2.7V | 02:01:39 | 01:36:58 | 00:00:00 | |
| BAUMI2-15 | 2026-09-04 05:16:11 | 47.44501 | 11.59654 | 204° | 26km/h | 23145m | 5.9m/s | -52.1°C | 3.5% | 35.8hPa | 2.7V | 00:00:00 | 01:37:03 | 00:00:00 | |
| OM5KV | 2026-09-04 05:16:10 | 47.44501 | 11.59654 | 204° | 24km/h | 23145m | 5.9m/s | -52.1°C | 0.7% | 35.8hPa | 2.7V | 02:01:00 | 00:00:00 | 00:00:00 | |
| DF1GD-15 | 2026-09-04 05:16:08 | 47.44514 | 11.59659 | 192° | 26km/h | 23134m | 5.1m/s | -52.1°C | 0.7% | 35.8hPa | 2.7V | 02:01:00 | 00:00:00 | 00:00:00 | |
| DO3MHA-12 | 2026-09-04 05:16:07 | 47.44526 | 11.59663 | 194° | 22km/h | 23122m | 5.6m/s | -52.1°C | 3.5% | 35.9hPa | 2.7V | 00:00:00 | 01:36:59 | 00:00:00 | |
| OE5MMP-10 | 2026-09-04 05:16:06 | 47.44532 | 11.59665 | 197° | 22km/h | 23118m | 4.4m/s | -52.2°C | 3.5% | 35.9hPa | 2.7V | 00:00:00 | 01:36:58 | 00:00:00 | |
| OE3JTB-15 | 2026-09-04 05:16:05 | 47.44537 | 11.59668 | 196° | 24km/h | 23112m | 5.7m/s | -52.2°C | 3.5% | 35.9hPa | 2.7V | 02:01:00 | 00:00:00 | 00:00:00 | |
| DO3MHA-11 | 2026-09-04 05:16:04 | 47.44543 | 11.59670 | 193° | 22km/h | 23107m | 5.7m/s | -52.2°C | 3.5% | 36.0hPa | 2.6V | 00:00:00 | 01:36:56 | 00:00:00 | |
| OM5KV | 2026-09-04 05:16:03 | 47.44543 | 11.59670 | 194° | 26km/h | 23107m | 5.8m/s | -52.2°C | 0.7% | 36.0hPa | 2.6V | 02:01:00 | 00:00:00 | 00:00:00 | |
| DB0ND-19 | 2026-09-04 05:16:02 | 47.44576 | 11.59677 | 175° | 20km/h | 23073m | 5.0m/s | -52.2°C | 0.7% | 36.2hPa | 2.6V | 00:00:00 | 00:00:00 | 00:00:00 | |
| DM0DOS-11 | 2026-09-04 05:16:01 | 47.44585 | 11.59676 | 175° | 18km/h | 23061m | 5.3m/s | -52.3°C | 3.5% | 36.3hPa | 2.6V | 02:01:49 | 01:36:48 | 00:00:00 | |
| DF3TZ-5 | 2026-09-04 05:15:59 | 47.44571 | 11.59678 | 180° | 20km/h | 23079m | 6.7m/s | 0°C | -1.0% | -1.0hPa | 2.6V | 00:00:00 | 00:00:00 | 00:00:00 | |
| NBG1-10 | 2026-09-04 05:15:58 | 47.44576 | 11.59677 | 176° | 22km/h | 23073m | 5.0m/s | -52.2°C | 3.5% | 36.2hPa | 2.6V | 00:00:00 | 01:36:50 | 00:00:00 | |
| DO3MHA-12 | 2026-09-04 05:15:57 | 47.44581 | 11.59677 | 175° | 24km/h | 23067m | 5.9m/s | -52.2°C | 3.5% | 36.2hPa | 2.6V | 02:01:00 | 01:36:49 | 00:00:00 | |
| OE5MMP-10 | 2026-09-04 05:15:56 | 47.44585 | 11.59676 | 176° | 26km/h | 23062m | 5.2m/s | -52.2°C | 3.5% | 36.2hPa | 2.6V | 00:00:00 | 01:36:48 | 00:00:00 | |
| DO3MHA-11 | 2026-09-04 05:15:54 | 47.44596 | 11.59675 | 177° | 26km/h | 23052m | 6.4m/s | -52.3°C | 3.4% | 36.3hPa | 2.6V | 00:00:00 | 01:36:46 | 00:00:00 | |
| PG1ADW-2 | 2026-09-04 05:15:53 | 47.44602 | 11.59674 | 176° | 24km/h | 23046m | 5.4m/s | -52.4°C | 3.5% | 36.3hPa | 2.6V | 02:01:00 | 00:00:00 | 00:00:00 | |
| DG1MFX-10 | 2026-09-04 05:15:52 | 47.44602 | 11.59674 | 177° | 27km/h | 23046m | 5.5m/s | -52.4°C | 0.8% | 36.4hPa | 2.7V | 02:02:00 | 00:00:00 | 00:00:00 | |
| DM0DOS-11 | 2026-09-04 05:15:51 | 47.44649 | 11.59669 | 164° | 24km/h | 23008m | 4.6m/s | -52.9°C | 3.5% | 36.6hPa | 2.7V | 02:01:59 | 01:36:38 | 00:00:00 | |
| DB0UT-7 | 2026-09-04 05:15:51 | 47.44617 | 11.59673 | 178° | 20km/h | 23036m | 6.0m/s | -52.4°C | 3.5% | 36.4hPa | 2.6V | 00:00:00 | 00:00:00 | 00:00:00 | |
| OM5KV | 2026-09-04 05:15:50 | 47.44617 | 11.59673 | 179° | 29km/h | 23036m | 6.1m/s | -52.5°C | 0.7% | 36.4hPa | 2.6V | 02:02:00 | 00:00:00 | 00:00:00 | |
| OE5DRO-10 | 2026-09-04 05:15:48 | 47.44636 | 11.59672 | 177° | 20km/h | 23019m | 5.4m/s | -52.6°C | 3.5% | 36.5hPa | 2.6V | 02:01:00 | 00:00:00 | 00:00:00 | |
| OE5MMP-10 | 2026-09-04 05:15:46 | 47.44649 | 11.59669 | 165° | 20km/h | 23008m | 4.6m/s | -52.8°C | 3.5% | 36.5hPa | 2.7V | 02:01:00 | 01:36:38 | 00:00:00 | |
| DO3MHA-11 | 2026-09-04 05:15:44 | 47.44659 | 11.59664 | 150° | 20km/h | 22997m | 5.5m/s | -53.0°C | 3.7% | 36.6hPa | 2.6V | 02:02:00 | 01:36:36 | 00:00:00 | |
| OM5KV | 2026-09-04 05:15:43 | 47.44659 | 11.59664 | 150° | 18km/h | 22997m | 5.5m/s | -53.1°C | 0.8% | 36.7hPa | 2.6V | 02:02:00 | 00:00:00 | 00:00:00 | |
| DF7PN | 2026-09-04 05:15:42 | 47.44667 | 11.59656 | 146° | 18km/h | 22986m | 5.8m/s | -53.2°C | 0.8% | 36.7hPa | 2.6V | 00:00:00 | 00:00:00 | 00:00:00 | |
| DM0DOS-11 | 2026-09-04 05:15:41 | 47.44697 | 11.59643 | 176° | 22km/h | 22953m | 6.5m/s | -53.2°C | 3.8% | 36.9hPa | 2.6V | 02:02:09 | 01:36:28 | 00:00:00 | |
| OE5WHR-10 | 2026-09-04 05:15:40 | 47.44677 | 11.59649 | 160° | 16km/h | 22976m | 4.5m/s | -53.2°C | 3.8% | 36.7hPa | 2.6V | 00:00:00 | 00:00:00 | 00:00:00 | |
| S52SK | 2026-09-04 05:15:38 | 47.44682 | 11.59646 | 166° | 20km/h | 22970m | 6.0m/s | -53.2°C | 0% | 0hPa | 2.6V | 02:02:00 | 00:00:00 | 00:00:00 | |
| DO3MHA-12 | 2026-09-04 05:15:37 | 47.44692 | 11.59644 | 177° | 20km/h | 22959m | 5.2m/s | -53.2°C | 3.8% | 36.8hPa | 2.6V | 00:00:00 | 01:36:29 | 00:00:00 | |
| OE5MMP-10 | 2026-09-04 05:15:36 | 47.44697 | 11.59643 | 177° | 20km/h | 22954m | 6.4m/s | -53.2°C | 3.8% | 36.8hPa | 2.6V | 00:00:00 | 01:36:28 | 00:00:00 | |
| DO3MHA-11 | 2026-09-04 05:15:34 | 47.44708 | 11.59642 | 170° | 18km/h | 22943m | 5.3m/s | -53.2°C | 3.7% | 36.9hPa | 2.6V | 00:00:00 | 01:36:26 | 00:00:00 | |
| PG1ADW-2 | 2026-09-04 05:15:33 | 47.44713 | 11.59640 | 164° | 16km/h | 22937m | 6.2m/s | -53.1°C | 3.7% | 36.9hPa | 2.6V | 00:00:00 | 00:00:00 | 00:00:00 | |
| S52SK | 2026-09-04 05:15:32 | 47.44713 | 11.59640 | 164° | 18km/h | 22937m | 6.2m/s | -53.1°C | 0% | 0hPa | 2.6V | 02:02:00 | 00:00:00 | 00:00:00 | |
| DM0DOS-11 | 2026-09-04 05:15:31 | 47.44741 | 11.59617 | 148° | 15km/h | 22900m | 5.6m/s | -52.9°C | 3.6% | 37.2hPa | 2.6V | 02:02:19 | 01:36:18 | 00:00:00 | |
| DK5PH-5 | 2026-09-04 05:15:30 | 47.44725 | 11.59631 | 150° | 13km/h | 22922m | 6.1m/s | -52.9°C | 3.6% | 37.0hPa | 2.7V | 00:00:00 | 01:36:22 | 00:00:00 | |
| OE5DRO-10 | 2026-09-04 05:15:29 | 47.44729 | 11.59628 | 151° | 15km/h | 22916m | 5.2m/s | -52.9°C | 3.6% | 37.0hPa | 2.7V | 00:00:00 | 00:00:00 | 00:00:00 | |
| DO3MHA-12 | 2026-09-04 05:15:27 | 47.44738 | 11.59620 | 150° | 13km/h | 22906m | 5.3m/s | -52.9°C | 3.7% | 37.1hPa | 2.7V | 02:02:00 | 01:36:19 | 00:00:00 | |
| OE5MMP-10 | 2026-09-04 05:15:26 | 47.44741 | 11.59617 | 149° | 13km/h | 22901m | 5.6m/s | -52.9°C | 3.6% | 37.1hPa | 2.6V | 00:00:00 | 01:36:18 | 00:00:00 | |
| NBG1-10 | 2026-09-04 05:15:25 | 47.44744 | 11.59615 | 155° | 11km/h | 22896m | 4.5m/s | -52.9°C | 3.7% | 37.2hPa | 2.6V | 02:02:00 | 01:36:17 | 00:00:00 | |
| DO3MHA-11 | 2026-09-04 05:15:24 | 47.44747 | 11.59614 | 169° | 15km/h | 22891m | 5.1m/s | -53.0°C | 3.7% | 37.2hPa | 2.6V | 00:00:00 | 01:36:16 | 00:00:00 | |
| IN3HCDX | 2026-09-04 05:15:23 | 47.44747 | 11.59614 | 169° | 11km/h | 22891m | 5.1m/s | -53.0°C | 0.8% | 37.3hPa | 2.6V | 02:02:00 | 00:00:00 | 00:00:00 | |
| OE5DXL-15 | 2026-09-04 05:15:21 | 47.44756 | 11.59613 | 177° | 11km/h | 22875m | 5.2m/s | -52.9°C | 3.7% | 37.3hPa | 2.6V | 02:02:00 | 00:00:00 | 00:00:00 | |
| OM5KV | 2026-09-04 05:15:20 | 47.44756 | 11.59613 | 177° | 13km/h | 22875m | 5.2m/s | -53.0°C | 0.8% | 37.3hPa | 2.6V | 02:02:00 | 00:00:00 | 00:00:00 | |
| OE5WHR-10 | 2026-09-04 05:15:19 | 47.44761 | 11.59610 | 149° | 11km/h | 22864m | 5.3m/s | -53.0°C | 3.7% | 37.3hPa | 2.6V | 00:00:00 | 01:36:11 | 00:00:00 | |
| OE9MKV-15 | 2026-09-04 05:15:18 | 47.44764 | 11.59608 | 145° | 11km/h | 22858m | 6.3m/s | -53.0°C | 3.6% | 37.4hPa | 2.6V | 00:00:00 | 01:36:10 | 00:00:00 | |
| DO3MHA-12 | 2026-09-04 05:15:17 | 47.44767 | 11.59604 | 142° | 11km/h | 22852m | 5.2m/s | -53.1°C | 3.6% | 37.4hPa | 2.6V | 00:00:00 | 01:36:09 | 00:00:00 | |
| OE5MMP-10 | 2026-09-04 05:15:16 | 47.44770 | 11.59599 | 134° | 11km/h | 22847m | 4.4m/s | -53.1°C | 3.6% | 37.4hPa | 2.6V | 02:02:00 | 01:36:08 | 00:00:00 | |
| OM5KV | 2026-09-04 05:15:15 | 47.44773 | 11.59594 | 125° | 18km/h | 22842m | 6.5m/s | -53.2°C | 0.7% | 37.5hPa | 2.7V | 02:02:00 | 00:00:00 | 00:00:00 | |
| DO3MHA-11 | 2026-09-04 05:15:14 | 47.44775 | 11.59589 | 119° | 7km/h | 22836m | 4.8m/s | -53.2°C | 3.6% | 37.5hPa | 2.7V | 02:02:00 | 01:36:06 | 00:00:00 | |
| PG1ADW-2 | 2026-09-04 05:15:13 | 47.44777 | 11.59584 | 123° | 9km/h | 22831m | 5.4m/s | -53.2°C | 3.6% | 37.6hPa | 2.6V | 00:00:00 | 00:00:00 | 00:00:00 | |
| DF7PN | 2026-09-04 05:15:11 | 47.44781 | 11.59579 | 156° | 7km/h | 22820m | 4.5m/s | -53.2°C | 0.8% | 37.7hPa | 2.6V | 00:00:00 | 00:00:00 | 00:00:00 | |
| OE5DRO-10 | 2026-09-04 05:15:10 | 47.44783 | 11.59578 | 182° | 9km/h | 22815m | 5.8m/s | -53.1°C | 3.6% | 37.6hPa | 2.6V | 00:00:00 | 00:00:00 | 00:00:00 | |
| OM5KV | 2026-09-04 05:15:09 | 47.44783 | 11.59578 | 182° | 5km/h | 22815m | 5.8m/s | -53.2°C | 0.8% | 37.7hPa | 2.6V | 02:03:00 | 00:00:00 | 00:00:00 | |
| OM5KV | 2026-09-04 05:15:08 | 47.44784 | 11.59579 | 253° | 4km/h | 22809m | 6.0m/s | -53.2°C | 0.8% | 37.7hPa | 2.6V | 02:03:00 | 00:00:00 | 00:00:00 | |
| DO3MHA-12 | 2026-09-04 05:15:07 | 47.44784 | 11.59582 | 264° | 9km/h | 22799m | 5.7m/s | -53.4°C | 3.8% | 37.7hPa | 2.6V | 00:00:00 | 01:35:59 | 00:00:00 | |
| OE5MMP-10 | 2026-09-04 05:15:06 | 47.44784 | 11.59584 | 237° | 9km/h | 22793m | 5.5m/s | -53.4°C | 3.8% | 37.7hPa | 2.6V | 00:00:00 | 01:35:58 | 00:00:00 | |
| DL1ZP-14 | 2026-09-04 05:15:05 | 47.44786 | 11.59586 | 178° | 2km/h | 22783m | 6.0m/s | -53.5°C | 0.8% | 37.9hPa | 2.6V | 00:00:00 | 00:00:00 | 00:00:00 | |
| OM5KV | 2026-09-04 05:15:04 | 47.44786 | 11.59586 | 180° | 4km/h | 22783m | 6.0m/s | -53.5°C | 0.8% | 37.9hPa | 2.6V | 02:03:00 | 00:00:00 | 00:00:00 | |
| OE3JTB-15 | 2026-09-04 05:15:03 | 47.44787 | 11.59585 | 139° | 11km/h | 22778m | 4.3m/s | -53.5°C | 3.8% | 37.8hPa | 2.6V | 00:00:00 | 01:35:55 | 00:00:00 | |
| IN3HCDX | 2026-09-04 05:15:02 | 47.44787 | 11.59585 | 140° | 7km/h | 22778m | 4.3m/s | -53.5°C | 0.8% | 37.9hPa | 2.6V | 00:00:00 | 00:00:00 | 00:00:00 | |
| DM0DOS-11 | 2026-09-04 05:15:00 | 47.44803 | 11.59572 | 171° | 7km/h | 22747m | 4.7m/s | -53.6°C | 3.8% | 38.1hPa | 2.6V | 02:02:48 | 01:35:49 | 00:00:00 | |
| DL6DJ-15 | 2026-09-04 05:14:55 | 47.44806 | 11.59574 | 216° | 7km/h | 22738m | 6.1m/s | -53.6°C | 0.8% | 38.1hPa | 2.7V | 00:00:00 | 00:00:00 | 00:00:00 | |
| DO3MHA-11 | 2026-09-04 05:14:54 | 47.44808 | 11.59576 | 228° | 9km/h | 22732m | 5.3m/s | -53.5°C | 3.8% | 38.1hPa | 2.7V | 00:00:00 | 01:35:46 | 00:00:00 | |
| PG1ADW-2 | 2026-09-04 05:14:53 | 47.44810 | 11.59579 | 239° | 15km/h | 22727m | 5.1m/s | -53.4°C | 3.7% | 38.1hPa | 2.7V | 02:02:00 | 01:35:45 | 00:00:00 | |
| NBG1-10 | 2026-09-04 05:14:52 | 47.44811 | 11.59583 | 249° | 16km/h | 22721m | 5.9m/s | -53.4°C | 3.7% | 38.2hPa | 2.6V | 00:00:00 | 01:35:44 | 00:00:00 | |
| OE5DXL-15 | 2026-09-04 05:14:51 | 47.44812 | 11.59586 | 253° | 16km/h | 22716m | 4.3m/s | -53.4°C | 3.7% | 38.2hPa | 2.6V | 00:00:00 | 00:00:00 | 00:00:00 | |
| DM0DOS-11 | 2026-09-04 05:14:50 | 47.44818 | 11.59596 | 203° | 11km/h | 22696m | 4.8m/s | -53.6°C | 3.8% | 38.4hPa | 2.6V | 02:02:58 | 01:35:39 | 00:00:00 | |
| OE9MKV-15 | 2026-09-04 05:14:48 | 47.44816 | 11.59594 | 210° | 16km/h | 22701m | 4.5m/s | -53.5°C | 3.8% | 38.3hPa | 2.6V | 00:00:00 | 01:35:40 | 00:00:00 | |
| DO3MHA-12 | 2026-09-04 05:14:47 | 47.44818 | 11.59596 | 204° | 13km/h | 22696m | 4.8m/s | -53.6°C | 3.8% | 38.3hPa | 2.6V | 00:00:00 | 01:35:39 | 00:00:00 | |
| OE5MMP-10 | 2026-09-04 05:14:46 | 47.44821 | 11.59597 | 204° | 15km/h | 22691m | 6.1m/s | -53.6°C | 3.8% | 38.4hPa | 2.6V | 02:02:00 | 01:35:38 | 00:00:00 | |
| DO3MHA-11 | 2026-09-04 05:14:44 | 47.44825 | 11.59599 | 195° | 16km/h | 22681m | 4.9m/s | -53.7°C | 3.8% | 38.4hPa | 2.7V | 02:03:00 | 01:35:36 | 00:00:00 | |
| IN3HCDX | 2026-09-04 05:14:42 | 47.44831 | 11.59602 | 198° | 15km/h | 22670m | 5.4m/s | -53.7°C | 0.8% | 38.6hPa | 2.6V | 00:00:00 | 00:00:00 | 00:00:00 | |
| OM5KV | 2026-09-04 05:14:41 | 47.44831 | 11.59602 | 198° | 15km/h | 22670m | 5.4m/s | -53.7°C | 0.8% | 38.6hPa | 2.6V | 02:03:00 | 00:00:00 | 00:00:00 | |
| DM0DOS-11 | 2026-09-04 05:14:40 | 47.44849 | 11.59620 | 212° | 22km/h | 22643m | 4.9m/s | -53.6°C | 3.8% | 38.7hPa | 2.6V | 02:03:08 | 01:35:29 | 00:00:00 | |
| OM5KV | 2026-09-04 05:14:38 | 47.44840 | 11.59610 | 221° | 18km/h | 22654m | 4.4m/s | -53.6°C | 0.8% | 38.7hPa | 2.6V | 02:03:00 | 00:00:00 | 00:00:00 | |
| DO3MHA-12 | 2026-09-04 05:14:37 | 47.44849 | 11.59620 | 213° | 20km/h | 22643m | 4.8m/s | -53.5°C | 3.8% | 38.7hPa | 2.6V | 00:00:00 | 01:35:29 | 00:00:00 | |
| OE5MMP-10 | 2026-09-04 05:14:36 | 47.44854 | 11.59624 | 212° | 20km/h | 22638m | 4.9m/s | -53.5°C | 3.7% | 38.7hPa | 2.6V | 00:00:00 | 01:35:28 | 00:00:00 | |
| OM5KV | 2026-09-04 05:14:35 | 47.44854 | 11.59624 | 213° | 22km/h | 22638m | 5.0m/s | -53.5°C | 0.8% | 38.7hPa | 2.6V | 02:03:00 | 00:00:00 | 00:00:00 | |
| DO3MHA-11 | 2026-09-04 05:14:34 | 47.44863 | 11.59631 | 201° | 20km/h | 22628m | 4.6m/s | -53.4°C | 3.7% | 38.7hPa | 2.6V | 00:00:00 | 01:35:26 | 00:00:00 | |
| PG1ADW-2 | 2026-09-04 05:14:33 | 47.44868 | 11.59633 | 191° | 18km/h | 22623m | 6.2m/s | -53.4°C | 3.8% | 38.8hPa | 2.6V | 00:00:00 | 00:00:00 | 00:00:00 | |
| OE5DRO-10 | 2026-09-04 05:14:32 | 47.44873 | 11.59634 | 179° | 18km/h | 22617m | 5.1m/s | -53.4°C | 3.7% | 38.8hPa | 2.6V | 00:00:00 | 00:00:00 | 00:00:00 | |
| OM5KV | 2026-09-04 05:14:31 | 47.44873 | 11.59634 | 179° | 22km/h | 22617m | 5.1m/s | -53.4°C | 0.8% | 38.8hPa | 2.6V | 02:03:00 | 00:00:00 | 00:00:00 | |
| DM0DOS-11 | 2026-09-04 05:14:30 | 47.44897 | 11.59631 | 189° | 18km/h | 22593m | 5.2m/s | -53.4°C | 3.7% | 39hPa | 2.6V | 02:03:18 | 01:35:19 | 00:00:00 | |
| DK5PH-5 | 2026-09-04 05:14:30 | 47.44883 | 11.59632 | 171° | 16km/h | 22608m | 5.5m/s | -53.4°C | 3.7% | 38.9hPa | 2.6V | 00:00:00 | 01:35:22 | 00:00:00 | |
| DO3MHA-12 | 2026-09-04 05:14:27 | 47.44897 | 11.59631 | 190° | 18km/h | 22593m | 5.1m/s | -53.3°C | 3.7% | 39.0hPa | 2.6V | 02:03:00 | 01:35:19 | 00:00:00 | |
| OE5MMP-10 | 2026-09-04 05:14:26 | 47.44901 | 11.59632 | 192° | 18km/h | 22588m | 5.6m/s | -53.3°C | 3.7% | 39.0hPa | 2.6V | 00:00:00 | 01:35:18 | 00:00:00 | |
| OM5KV | 2026-09-04 05:14:25 | 47.44901 | 11.59632 | 193° | 22km/h | 22588m | 5.7m/s | -53.4°C | 0.8% | 39.0hPa | 2.6V | 02:03:00 | 00:00:00 | 00:00:00 | |
| DO3MHA-11 | 2026-09-04 05:14:24 | 47.44912 | 11.59636 | 192° | 16km/h | 22578m | 4.2m/s | -53.4°C | 3.7% | 39.1hPa | 2.6V | 00:00:00 | 01:35:16 | 00:00:00 | |
| OE5DXL-15 | 2026-09-04 05:14:21 | 47.44926 | 11.59640 | 196° | 18km/h | 22563m | 4.8m/s | -53.4°C | 3.7% | 39.1hPa | 2.6V | 00:00:00 | 00:00:00 | 00:00:00 | |
| DM0DOS-11 | 2026-09-04 05:14:20 | 47.44940 | 11.59645 | 178° | 13km/h | 22541m | 5.6m/s | -53.8°C | 3.7% | 39.3hPa | 2.6V | 02:03:28 | 01:35:09 | 00:00:00 | |
| DF2AP-13 | 2026-09-04 05:14:20 | 47.44929 | 11.59642 | 199° | 18km/h | 22557m | 6.2m/s | -53.5°C | 3.7% | 39.2hPa | 2.6V | 02:03:00 | 01:35:12 | 00:00:00 | |
| NBG1-10 | 2026-09-04 05:14:19 | 47.44933 | 11.59643 | 195° | 18km/h | 22552m | 4.5m/s | -53.5°C | 3.7% | 39.2hPa | 2.6V | 00:00:00 | 01:35:11 | 00:00:00 | |
| OE9MKV-15 | 2026-09-04 05:14:18 | 47.44937 | 11.59645 | 189° | 18km/h | 22547m | 5.2m/s | -53.7°C | 3.7% | 39.3hPa | 2.6V | 02:03:00 | 01:35:10 | 00:00:00 | |
| DO3MHA-12 | 2026-09-04 05:14:17 | 47.44940 | 11.59645 | 179° | 15km/h | 22541m | 5.6m/s | -53.7°C | 3.7% | 39.3hPa | 2.7V | 00:00:00 | 01:35:09 | 00:00:00 | |
| OE5WHR-10 | 2026-09-04 05:14:16 | 47.44943 | 11.59644 | 172° | 20km/h | 22536m | 4.7m/s | -53.8°C | 3.8% | 39.3hPa | 2.7V | 00:00:00 | 01:35:08 | 00:00:00 | |
| DO3MHA-11 | 2026-09-04 05:14:14 | 47.44951 | 11.59643 | 179° | 15km/h | 22526m | 4.9m/s | -53.8°C | 3.7% | 39.4hPa | 2.7V | 02:03:00 | 01:35:06 | 00:00:00 | |
| PG1ADW-2 | 2026-09-04 05:14:13 | 47.44956 | 11.59643 | 184° | 20km/h | 22521m | 4.3m/s | -53.8°C | 3.7% | 39.4hPa | 2.6V | 00:00:00 | 00:00:00 | 00:00:00 | |
| DM0DOS-11 | 2026-09-04 05:14:10 | 47.44977 | 11.59645 | 176° | 13km/h | 22490m | 6.1m/s | -53.9°C | 3.7% | 39.6hPa | 2.6V | 02:03:38 | 01:34:59 | 00:00:00 | |
| DF7PN | 2026-09-04 05:14:09 | 47.44970 | 11.59645 | 188° | 13km/h | 22500m | 6.3m/s | -53.9°C | 0.8% | 39.6hPa | 2.6V | 00:00:00 | 00:00:00 | 00:00:00 | |
| OM5KV | 2026-09-04 05:14:08 | 47.44970 | 11.59645 | 189° | 15km/h | 22501m | 6.3m/s | -53.9°C | 0.8% | 39.6hPa | 2.6V | 02:04:00 | 00:00:00 | 00:00:00 | |
| DO3MHA-12 | 2026-09-04 05:14:07 | 47.44977 | 11.59645 | 177° | 22km/h | 22490m | 6.0m/s | -53.8°C | 3.7% | 39.6hPa | 2.6V | 00:00:00 | 01:34:59 | 00:00:00 | |
| OE5MMP-10 | 2026-09-04 05:14:06 | 47.44980 | 11.59645 | 167° | 24km/h | 22484m | 4.7m/s | -53.9°C | 3.8% | 39.6hPa | 2.6V | 00:00:00 | 01:34:58 | 00:00:00 | |
| OE3JTB-15 | 2026-09-04 05:14:05 | 47.44984 | 11.59643 | 164° | 18km/h | 22480m | 4.6m/s | -54.0°C | 3.8% | 39.7hPa | 2.6V | 00:00:00 | 00:00:00 | 00:00:00 | |
| DO3MHA-11 | 2026-09-04 05:14:04 | 47.44988 | 11.59641 | 166° | 24km/h | 22474m | 5.9m/s | -54.1°C | 3.8% | 39.7hPa | 2.6V | 00:00:00 | 01:34:56 | 00:00:00 | |
| DL1ZP-14 | 2026-09-04 05:14:03 | 47.44994 | 11.59639 | 164° | 24km/h | 22469m | 4.6m/s | -54.1°C | 0.8% | 39.8hPa | 2.6V | 00:00:00 | 00:00:00 | 00:00:00 | |
| DG1MJG | 2026-09-04 05:14:02 | 47.44994 | 11.59639 | 165° | 26km/h | 22469m | 4.6m/s | -54.1°C | 0.8% | 39.8hPa | 2.6V | 02:04:00 | 00:00:00 | 00:00:00 | |
| DM0DOS-11 | 2026-09-04 05:14:00 | 47.45033 | 11.59621 | 167° | 24km/h | 22438m | 6.1m/s | -54.6°C | 3.8% | 40hPa | 2.6V | 02:03:48 | 01:34:49 | 00:00:00 | |
| DL6DJ-15 | 2026-09-04 05:13:53 | 47.45057 | 11.59620 | 174° | 18km/h | 22413m | 4.5m/s | -54.7°C | 0.8% | 40.1hPa | 2.7V | 00:00:00 | 00:00:00 | 00:00:00 | |
| OM5KV | 2026-09-04 05:13:52 | 47.45052 | 11.59620 | 183° | 20km/h | 22418m | 4.7m/s | -54.7°C | 0.8% | 40.1hPa | 2.7V | 00:00:00 | 00:00:00 | 00:00:00 | |
| OE5DXL-15 | 2026-09-04 05:13:51 | 47.45062 | 11.59618 | 166° | 18km/h | 22408m | 5.6m/s | -54.7°C | 3.9% | 40.1hPa | 2.7V | 02:03:00 | 00:00:00 | 00:00:00 | |
| DM0DOS-11 | 2026-09-04 05:13:50 | 47.45080 | 11.59603 | 146° | 24km/h | 22386m | 5.4m/s | -55.1°C | 3.9% | 40.3hPa | 2.7V | 02:03:58 | 01:34:39 | 00:00:00 | |
| DF2AP-13 | 2026-09-04 05:13:50 | 47.45067 | 11.59616 | 154° | 18km/h | 22402m | 5.4m/s | -54.8°C | 3.8% | 40.1hPa | 2.7V | 00:00:00 | 01:34:42 | 00:00:00 | |
| OM5KV | 2026-09-04 05:13:49 | 47.45067 | 11.59616 | 155° | 20km/h | 22402m | 5.5m/s | -54.8°C | 0.8% | 40.2hPa | 2.7V | 00:00:00 | 00:00:00 | 00:00:00 | |
| OE9MKV-15 | 2026-09-04 05:13:48 | 47.45075 | 11.59607 | 145° | 16km/h | 22392m | 5.7m/s | -55.0°C | 3.9% | 40.2hPa | 2.7V | 00:00:00 | 01:34:40 | 00:00:00 | |
| DO3MHA-12 | 2026-09-04 05:13:47 | 47.45080 | 11.59603 | 147° | 16km/h | 22387m | 5.3m/s | -55.0°C | 3.9% | 40.2hPa | 2.7V | 00:00:00 | 01:34:39 | 00:00:00 | |
| NBG1-10 | 2026-09-04 05:13:46 | 47.45085 | 11.59598 | 145° | 16km/h | 22382m | 4.1m/s | -55.0°C | 4.0% | 40.3hPa | 2.7V | 02:03:00 | 01:34:38 | 00:00:00 | |
| DF1GD-15 | 2026-09-04 05:13:45 | 47.45085 | 11.59598 | 145° | 24km/h | 22382m | 4.2m/s | -55.1°C | 0.9% | 40.3hPa | 2.6V | 02:04:00 | 00:00:00 | 00:00:00 | |
| DO3MHA-11 | 2026-09-04 05:13:44 | 47.45093 | 11.59587 | 136° | 16km/h | 22371m | 4.7m/s | -55.1°C | 4.1% | 40.3hPa | 2.6V | 02:04:00 | 01:34:36 | 00:00:00 | |
| IN3IJJ | 2026-09-04 05:13:43 | 47.45093 | 11.59587 | 136° | 18km/h | 22371m | 4.8m/s | 0°C | 0% | 0hPa | 2.7V | 00:00:00 | 00:00:00 | 00:00:00 | |
| OM5KV | 2026-09-04 05:13:42 | 47.45097 | 11.59583 | 140° | 16km/h | 22367m | 5.0m/s | -55.2°C | 0.9% | 40.4hPa | 2.7V | 00:00:00 | 00:00:00 | 00:00:00 | |
| BAUMI2-15 | 2026-09-04 05:13:41 | 47.45102 | 11.59578 | 162° | 13km/h | 22356m | 3.9m/s | -55.3°C | 4.1% | 40.5hPa | 2.7V | 00:00:00 | 01:34:33 | 00:00:00 | |
| DM0DOS-11 | 2026-09-04 05:13:40 | 47.45113 | 11.59566 | 134° | 20km/h | 22335m | 5.3m/s | -55.3°C | 4% | 40.6hPa | 2.7V | 02:04:08 | 01:34:29 | 00:00:00 | |
| DF7PN | 2026-09-04 05:13:38 | 47.45110 | 11.59571 | 133° | 15km/h | 22341m | 5.2m/s | -55.3°C | 0.9% | 40.6hPa | 2.6V | 00:00:00 | 00:00:00 | 00:00:00 | |
| DO3MHA-12 | 2026-09-04 05:13:37 | 47.45113 | 11.59566 | 135° | 22km/h | 22336m | 5.3m/s | -55.3°C | 4.0% | 40.5hPa | 2.6V | 00:00:00 | 01:34:29 | 00:00:00 | |
| OE5MMP-10 | 2026-09-04 05:13:36 | 47.45117 | 11.59561 | 138° | 20km/h | 22330m | 5.8m/s | -55.3°C | 4.0% | 40.6hPa | 2.6V | 00:00:00 | 01:34:28 | 00:00:00 | |
| OM5KV | 2026-09-04 05:13:35 | 47.45117 | 11.59561 | 139° | 24km/h | 22330m | 5.8m/s | -55.3°C | 0.9% | 40.7hPa | 2.6V | 00:00:00 | 00:00:00 | 00:00:00 | |
| OE5WHR-10 | 2026-09-04 05:13:34 | 47.45126 | 11.59547 | 132° | 15km/h | 22319m | 6.0m/s | -55.5°C | 4.2% | 40.7hPa | 2.6V | 00:00:00 | 00:00:00 | 00:00:00 | |
| PG1ADW-2 | 2026-09-04 05:13:33 | 47.45130 | 11.59539 | 124° | 15km/h | 22314m | 4.9m/s | -55.6°C | 4.3% | 40.7hPa | 2.6V | 00:00:00 | 01:34:25 | 00:00:00 | |
| DL1ZP-14 | 2026-09-04 05:13:32 | 47.45136 | 11.59524 | 120° | 22km/h | 22304m | 6.0m/s | -55.6°C | 0.9% | 40.8hPa | 2.6V | 00:00:00 | 00:00:00 | 00:00:00 | |
| BAUMI2-15 | 2026-09-04 05:13:31 | 47.45136 | 11.59524 | 121° | 15km/h | 22304m | 5.9m/s | -55.6°C | 4.3% | 40.8hPa | 2.6V | 02:04:00 | 01:34:23 | 00:00:00 | |
| DM0DOS-11 | 2026-09-04 05:13:30 | 47.45142 | 11.59503 | 84° | 11km/h | 22283m | 5.1m/s | -55.5°C | 4.3% | 40.9hPa | 2.6V | 02:04:18 | 01:34:19 | 00:00:00 | |
| DK5PH-5 | 2026-09-04 05:13:30 | 47.45139 | 11.59517 | 121° | 11km/h | 22299m | 4.4m/s | -55.5°C | 4.3% | 40.8hPa | 2.7V | 02:04:00 | 01:34:22 | 00:00:00 | |
| DG1MFX-10 | 2026-09-04 05:13:28 | 47.45141 | 11.59512 | 115° | 13km/h | 22294m | 4.1m/s | -55.6°C | 1.0% | 40.9hPa | 2.6V | 02:04:00 | 00:00:00 | 00:00:00 | |
| DO3MHA-12 | 2026-09-04 05:13:27 | 47.45142 | 11.59503 | 85° | 11km/h | 22284m | 5.0m/s | -55.5°C | 4.3% | 40.9hPa | 2.6V | 02:04:00 | 01:34:19 | 00:00:00 | |
| OE5MMP-10 | 2026-09-04 05:13:26 | 47.45142 | 11.59499 | 86° | 13km/h | 22278m | 4.8m/s | -55.5°C | 4.2% | 40.9hPa | 2.6V | 00:00:00 | 01:34:18 | 00:00:00 | |
| OM5KV | 2026-09-04 05:13:25 | 47.45142 | 11.59499 | 86° | 9km/h | 22278m | 4.9m/s | -55.5°C | 0.9% | 41.0hPa | 2.6V | 02:05:00 | 00:00:00 | 00:00:00 | |
| DO3MHA-11 | 2026-09-04 05:13:24 | 47.45143 | 11.59493 | 128° | 13km/h | 22268m | 4.0m/s | -55.3°C | 4.1% | 41.0hPa | 2.6V | 00:00:00 | 01:34:16 | 00:00:00 | |
| OE5DXL-15 | 2026-09-04 05:13:21 | 47.45148 | 11.59483 | 128° | 11km/h | 22253m | 4.5m/s | -55.3°C | 4.1% | 41.1hPa | 2.6V | 00:00:00 | 00:00:00 | 00:00:00 | |
| DM0DOS-11 | 2026-09-04 05:13:21 | 47.45158 | 11.59469 | 129° | 13km/h | 22231m | 6.1m/s | -55.2°C | 4.1% | 41.3hPa | 2.6V | 02:04:28 | 01:34:09 | 00:00:00 | |
| OM5KV | 2026-09-04 05:13:20 | 47.45151 | 11.59479 | 137° | 15km/h | 22248m | 6.2m/s | -55.3°C | 0.9% | 41.2hPa | 2.6V | 02:05:00 | 00:00:00 | 00:00:00 | |
| OE9MKV-15 | 2026-09-04 05:13:18 | 47.45156 | 11.59473 | 137° | 11km/h | 22237m | 5.0m/s | -55.2°C | 4.1% | 41.2hPa | 2.6V | 00:00:00 | 01:34:10 | 00:00:00 | |
| DO3MHA-12 | 2026-09-04 05:13:17 | 47.45158 | 11.59469 | 130° | 11km/h | 22231m | 6.0m/s | -55.2°C | 4.1% | 41.2hPa | 2.6V | 00:00:00 | 01:34:09 | 00:00:00 | |
| OE5MMP-10 | 2026-09-04 05:13:16 | 47.45159 | 11.59466 | 126° | 11km/h | 22226m | 4.2m/s | -55.2°C | 4.2% | 41.3hPa | 2.6V | 02:04:00 | 01:34:08 | 00:00:00 | |
| DO3MHA-11 | 2026-09-04 05:13:14 | 47.45163 | 11.59460 | 148° | 11km/h | 22215m | 5.1m/s | -55.2°C | 4.1% | 41.3hPa | 2.7V | 02:04:00 | 01:34:06 | 00:00:00 | |
| OM5KV | 2026-09-04 05:13:13 | 47.45165 | 11.59458 | 146° | 9km/h | 22210m | 5.0m/s | -55.2°C | 0.9% | 41.4hPa | 2.7V | 02:05:00 | 00:00:00 | 00:00:00 | |
| OM5KV | 2026-09-04 05:13:12 | 47.45165 | 11.59458 | 146° | 9km/h | 22210m | 5.0m/s | -55.2°C | 0.9% | 41.4hPa | 2.7V | 02:05:00 | 00:00:00 | 00:00:00 | |
| BAUMI2-15 | 2026-09-04 05:13:11 | 47.45169 | 11.59454 | 146° | 11km/h | 22199m | 4.5m/s | -55.1°C | 4.1% | 41.4hPa | 2.7V | 00:00:00 | 01:34:03 | 00:00:00 | |
| DM0DOS-11 | 2026-09-04 05:13:10 | 47.45179 | 11.59451 | 169° | 11km/h | 22177m | 6.4m/s | -55°C | 4.2% | 41.6hPa | 2.7V | 02:04:38 | 01:33:59 | 00:00:00 | |
| OM5KV | 2026-09-04 05:13:08 | 47.45177 | 11.59451 | 179° | 13km/h | 22183m | 4.9m/s | -55.0°C | 0.9% | 41.6hPa | 2.7V | 02:05:00 | 00:00:00 | 00:00:00 | |
| DO3MHA-12 | 2026-09-04 05:13:07 | 47.45179 | 11.59451 | 170° | 7km/h | 22178m | 6.4m/s | -55.0°C | 4.2% | 41.5hPa | 2.7V | 00:00:00 | 01:33:59 | 00:00:00 | |
| OE5MMP-10 | 2026-09-04 05:13:06 | 47.45182 | 11.59450 | 158° | 7km/h | 22172m | 4.8m/s | -54.9°C | 4.2% | 41.6hPa | 2.7V | 00:00:00 | 01:33:58 | 00:00:00 | |
| OE3JTB-15 | 2026-09-04 05:13:05 | 47.45184 | 11.59449 | 160° | 11km/h | 22167m | 5.2m/s | -54.9°C | 4.2% | 41.7hPa | 2.7V | 02:04:00 | 00:00:00 | 00:00:00 | |
| DO3MHA-11 | 2026-09-04 05:13:04 | 47.45186 | 11.59448 | 170° | 7km/h | 22161m | 6.3m/s | -54.9°C | 4.2% | 41.7hPa | 2.7V | 00:00:00 | 01:33:56 | 00:00:00 | |
| DL1ZP-14 | 2026-09-04 05:13:01 | 47.45194 | 11.59447 | 164° | 4km/h | 22140m | 4.8m/s | -54.9°C | 0.9% | 41.9hPa | 2.7V | 00:00:00 | 00:00:00 | 00:00:00 | |
| DM0DOS-11 | 2026-09-04 05:13:00 | 47.45198 | 11.59449 | 214° | 9km/h | 22124m | 4.5m/s | -54.8°C | 4% | 42hPa | 2.6V | 02:04:48 | 01:33:49 | 00:00:00 | |
| DB0ND-19 | 2026-09-04 05:12:56 | 47.45202 | 11.59452 | 188° | 9km/h | 22114m | 5.6m/s | -54.8°C | 0.9% | 42.0hPa | 2.6V | 00:00:00 | 00:00:00 | 00:00:00 | |
| DL6DJ-15 | 2026-09-04 05:12:51 | 47.45221 | 11.59455 | 184° | 16km/h | 22088m | 5.6m/s | -54.6°C | 0.9% | 42.2hPa | 2.6V | 00:00:00 | 00:00:00 | 00:00:00 | |
| DM0DOS-11 | 2026-09-04 05:12:50 | 47.45231 | 11.59455 | 187° | 11km/h | 22071m | 6.5m/s | -54.5°C | 4% | 42.3hPa | 2.6V | 02:04:58 | 01:33:39 | 00:00:00 | |
| OE9MKV-15 | 2026-09-04 05:12:48 | 47.45228 | 11.59455 | 180° | 16km/h | 22077m | 4.5m/s | 0°C | 0% | 0hPa | 2.6V | 02:04:00 | 01:33:40 | 00:00:00 | |
| DO3MHA-12 | 2026-09-04 05:12:47 | 47.45231 | 11.59455 | 188° | 13km/h | 22071m | 6.5m/s | -54.5°C | 4.0% | 0hPa | 2.6V | 00:00:00 | 01:33:39 | 00:00:00 | |
| OE5MMP-10 | 2026-09-04 05:12:46 | 47.45234 | 11.59456 | 199° | 15km/h | 22066m | 4.6m/s | -54.4°C | 3.9% | 42.3hPa | 2.6V | 02:04:00 | 01:33:38 | 00:00:00 | |
| OM5KV | 2026-09-04 05:12:45 | 47.45234 | 11.59456 | 199° | 11km/h | 22066m | 4.7m/s | -54.5°C | 0.9% | 42.4hPa | 2.7V | 02:05:00 | 00:00:00 | 00:00:00 | |
| DO3MHA-11 | 2026-09-04 05:12:44 | 47.45239 | 11.59458 | 183° | 16km/h | 22056m | 6.1m/s | -54.5°C | 3.9% | 42.4hPa | 2.7V | 02:05:00 | 01:33:36 | 00:00:00 | |
| BAUMI2-15 | 2026-09-04 05:12:41 | 47.45247 | 11.59456 | 177° | 18km/h | 22039m | 5.9m/s | -54.4°C | 4.0% | 42.5hPa | 2.6V | 00:00:00 | 01:33:33 | 00:00:00 | |
| DM0DOS-11 | 2026-09-04 05:12:40 | 47.45265 | 11.59454 | 168° | 22km/h | 22018m | 4.9m/s | -54.4°C | 4% | 42.7hPa | 2.6V | 02:05:08 | 01:33:29 | 00:00:00 | |
| OM5KV | 2026-09-04 05:12:39 | 47.45251 | 11.59456 | 181° | 15km/h | 22034m | 4.5m/s | -54.5°C | 0.9% | 42.6hPa | 2.6V | 02:05:00 | 00:00:00 | 00:00:00 | |
| OE5DRO-10 | 2026-09-04 05:12:38 | 47.45260 | 11.59455 | 171° | 18km/h | 22024m | 5.8m/s | -54.4°C | 3.9% | 42.5hPa | 2.6V | 00:00:00 | 00:00:00 | 00:00:00 | |
| DO3MHA-12 | 2026-09-04 05:12:37 | 47.45265 | 11.59454 | 169° | 15km/h | 22018m | 4.8m/s | -54.4°C | 4.0% | 42.6hPa | 2.6V | 00:00:00 | 01:33:29 | 00:00:00 | |
| OE3JTB-15 | 2026-09-04 05:12:36 | 47.45271 | 11.59452 | 172° | 20km/h | 22013m | 5.6m/s | -54.4°C | 3.9% | 42.7hPa | 2.6V | 00:00:00 | 00:00:00 | 00:00:00 | |
| NBG1-10 | 2026-09-04 05:12:35 | 47.45276 | 11.59451 | 178° | 20km/h | 22008m | 5.4m/s | -54.4°C | 4.0% | 42.7hPa | 2.6V | 00:00:00 | 01:33:27 | 00:00:00 | |
| DO3MHA-11 | 2026-09-04 05:12:34 | 47.45280 | 11.59451 | 177° | 15km/h | 22003m | 4.4m/s | -54.4°C | 3.9% | 42.8hPa | 2.6V | 00:00:00 | 01:33:26 | 00:00:00 | |
| PG1ADW-2 | 2026-09-04 05:12:33 | 47.45284 | 11.59450 | 168° | 18km/h | 21998m | 5.8m/s | -54.5°C | 4.0% | 42.8hPa | 2.6V | 00:00:00 | 00:00:00 | 00:00:00 | |
| OM5KV | 2026-09-04 05:12:32 | 47.45284 | 11.59450 | 169° | 15km/h | 21998m | 5.8m/s | -54.5°C | 0.9% | 42.8hPa | 2.6V | 02:05:00 | 00:00:00 | 00:00:00 | |
| OE5WHR-10 | 2026-09-04 05:12:31 | 47.45289 | 11.59447 | 138° | 20km/h | 21986m | 5.0m/s | -54.5°C | 3.9% | 42.9hPa | 2.6V | 00:00:00 | 00:00:00 | 00:00:00 | |
| DM0DOS-11 | 2026-09-04 05:12:30 | 47.45307 | 11.59429 | 156° | 22km/h | 21954m | 6m/s | -54.6°C | 3.9% | 43.1hPa | 2.6V | 02:05:20 | 01:33:17 | 00:00:00 | |
| DK5PH-5 | 2026-09-04 05:12:30 | 47.45291 | 11.59444 | 138° | 22km/h | 21981m | 5.8m/s | -54.5°C | 4.0% | 42.9hPa | 2.7V | 00:00:00 | 01:33:22 | 00:00:00 | |
| OM5KV | 2026-09-04 05:12:29 | 47.45291 | 11.59444 | 138° | 9km/h | 21981m | 5.8m/s | -54.6°C | 0.9% | 42.9hPa | 2.7V | 02:05:00 | 00:00:00 | 00:00:00 | |
| DO3MHA-12 | 2026-09-04 05:12:27 | 47.45298 | 11.59437 | 148° | 22km/h | 21966m | 6.3m/s | -54.5°C | 3.9% | 43.0hPa | 2.7V | 02:05:00 | 01:33:19 | 00:00:00 | |
| OE5MMP-10 | 2026-09-04 05:12:26 | 47.45302 | 11.59433 | 150° | 22km/h | 21960m | 5.0m/s | -54.6°C | 3.9% | 43.0hPa | 2.7V | 00:00:00 | 01:33:18 | 00:00:00 | |
| DB0ND-19 | 2026-09-04 05:12:25 | 47.45313 | 11.59426 | 161° | 22km/h | 21949m | 5.5m/s | -54.6°C | 0.8% | 43.1hPa | 2.7V | 00:00:00 | 00:00:00 | 00:00:00 | |
| DO3MHA-11 | 2026-09-04 05:12:24 | 47.45313 | 11.59426 | 162° | 20km/h | 21949m | 5.4m/s | -54.5°C | 3.8% | 43.1hPa | 2.7V | 00:00:00 | 01:33:16 | 00:00:00 | |
| DF1GD-15 | 2026-09-04 05:12:23 | 47.45313 | 11.59426 | 162° | 24km/h | 21949m | 5.5m/s | -54.6°C | 0.9% | 43.1hPa | 2.7V | 02:05:00 | 00:00:00 | 00:00:00 | |
| OE5DXL-15 | 2026-09-04 05:12:21 | 47.45331 | 11.59417 | 159° | 24km/h | 21932m | 4.6m/s | -54.6°C | 3.9% | 43.2hPa | 2.7V | 02:05:00 | 00:00:00 | 00:00:00 | |
| DM0DOS-11 | 2026-09-04 05:12:20 | 47.45355 | 11.59398 | 133° | 18km/h | 21899m | 5.8m/s | -54.9°C | 4.1% | 43.5hPa | 2.7V | 02:05:30 | 01:33:07 | 00:00:00 | |
| DF2AP-13 | 2026-09-04 05:12:20 | 47.45336 | 11.59414 | 162° | 18km/h | 21927m | 5.7m/s | 0°C | 0% | 0hPa | 2.6V | 00:00:00 | 01:33:12 | 00:00:00 | |
| OE5DRO-10 | 2026-09-04 05:12:19 | 47.45341 | 11.59412 | 164° | 24km/h | 21921m | 5.3m/s | -54.7°C | 4.1% | 43.3hPa | 2.6V | 00:00:00 | 00:00:00 | 00:00:00 | |
| OE9MKV-15 | 2026-09-04 05:12:18 | 47.45345 | 11.59410 | 157° | 22km/h | 21916m | 4.3m/s | 0°C | 0% | 0hPa | 2.6V | 00:00:00 | 01:33:10 | 00:00:00 | |
| DO3MHA-12 | 2026-09-04 05:12:17 | 47.45349 | 11.59407 | 146° | 24km/h | 21911m | 6.7m/s | -54.8°C | 4.1% | 43.4hPa | 2.6V | 00:00:00 | 01:33:09 | 00:00:00 | |
| OE5MMP-10 | 2026-09-04 05:12:16 | 47.45352 | 11.59403 | 135° | 26km/h | 21905m | 5.0m/s | -54.8°C | 4.1% | 43.4hPa | 2.6V | 02:05:00 | 01:33:08 | 00:00:00 | |
| DB0NH | 2026-09-04 05:12:15 | 47.45355 | 11.59398 | 134° | 16km/h | 21900m | 5.8m/s | -54.8°C | 4.1% | 43.5hPa | 2.7V | 00:00:00 | 01:33:07 | 00:00:00 | |
| DO3MHA-11 | 2026-09-04 05:12:14 | 47.45358 | 11.59393 | 133° | 27km/h | 21894m | 5.1m/s | -54.8°C | 4.0% | 43.5hPa | 2.7V | 02:05:00 | 01:33:06 | 00:00:00 | |
| PG1ADW-2 | 2026-09-04 05:12:13 | 47.45362 | 11.59387 | 132° | 26km/h | 21889m | 4.4m/s | -54.8°C | 4.0% | 43.5hPa | 2.7V | 00:00:00 | 01:33:05 | 00:00:00 | |
| BAUMI2-15 | 2026-09-04 05:12:11 | 47.45371 | 11.59372 | 135° | 29km/h | 21878m | 4.8m/s | -54.9°C | 3.9% | 43.6hPa | 2.7V | 00:00:00 | 01:33:03 | 00:00:00 | |
| DM0DOS-11 | 2026-09-04 05:12:10 | 47.45408 | 11.59338 | 152° | 27km/h | 21846m | 4.9m/s | -55.1°C | 4% | 43.8hPa | 2.7V | 02:05:40 | 01:32:57 | 00:00:00 | |
| OE5WHR-10 | 2026-09-04 05:12:10 | 47.45377 | 11.59365 | 140° | 24km/h | 21873m | 4.8m/s | -54.9°C | 3.9% | 43.6hPa | 2.6V | 00:00:00 | 01:33:02 | 00:00:00 | |
| OM5KV | 2026-09-04 05:12:09 | 47.45377 | 11.59365 | 141° | 31km/h | 21873m | 4.8m/s | -55.0°C | 0.9% | 43.7hPa | 2.6V | 02:05:00 | 00:00:00 | 00:00:00 | |
| OM5KV | 2026-09-04 05:12:08 | 47.45383 | 11.59358 | 147° | 29km/h | 21868m | 5.9m/s | -55.0°C | 0.9% | 43.7hPa | 2.6V | 02:05:00 | 00:00:00 | 00:00:00 | |
| DO3MHA-12 | 2026-09-04 05:12:07 | 47.45395 | 11.59347 | 154° | 24km/h | 21857m | 5.9m/s | -55.0°C | 4.0% | 43.7hPa | 2.6V | 00:00:00 | 01:32:59 | 00:00:00 | |
| OE5MMP-10 | 2026-09-04 05:12:06 | 47.45402 | 11.59343 | 153° | 24km/h | 21851m | 5.3m/s | -55.0°C | 4.0% | 43.7hPa | 2.6V | 00:00:00 | 01:32:58 | 00:00:00 | |
| DO3MHA-11 | 2026-09-04 05:12:04 | 47.45414 | 11.59334 | 152° | 22km/h | 21841m | 6.3m/s | -55.0°C | 4.1% | 43.8hPa | 2.6V | 00:00:00 | 01:32:56 | 00:00:00 | |
| DF1GD-15 | 2026-09-04 05:12:03 | 47.45414 | 11.59334 | 153° | 24km/h | 21841m | 6.4m/s | -55.1°C | 1.0% | 43.9hPa | 2.6V | 02:05:00 | 00:00:00 | 00:00:00 | |
| NBG1-10 | 2026-09-04 05:12:02 | 47.45423 | 11.59324 | 135° | 16km/h | 21830m | 6.4m/s | -55.0°C | 4.2% | 43.9hPa | 2.6V | 02:05:00 | 01:32:54 | 00:00:00 | |
| BAUMI2-15 | 2026-09-04 05:12:01 | 47.45426 | 11.59318 | 123° | 22km/h | 21824m | 5.2m/s | -55.0°C | 4.1% | 44.0hPa | 2.6V | 02:05:00 | 01:32:53 | 00:00:00 | |
| DM0DOS-11 | 2026-09-04 05:12:00 | 47.45444 | 11.59274 | 130° | 24km/h | 21791m | 5.2m/s | -55.2°C | 4.1% | 44.2hPa | 2.6V | 02:05:50 | 01:32:47 | 00:00:00 | |
| DL1ZP-14 | 2026-09-04 05:11:58 | 47.45434 | 11.59296 | 117° | 22km/h | 21808m | 4.7m/s | -55.2°C | 0.9% | 44.1hPa | 2.7V | 00:00:00 | 00:00:00 | 00:00:00 | |
| DB0ND-19 | 2026-09-04 05:11:54 | 47.45452 | 11.59263 | 142° | 16km/h | 21781m | 4.6m/s | -55.2°C | 0.9% | 44.3hPa | 2.6V | 00:00:00 | 00:00:00 | 00:00:00 | |
| PG1ADW-2 | 2026-09-04 05:11:53 | 47.45452 | 11.59263 | 143° | 15km/h | 21781m | 4.6m/s | -55.2°C | 4.1% | 44.2hPa | 2.6V | 02:05:00 | 00:00:00 | 00:00:00 | |
| OE5DXL-15 | 2026-09-04 05:11:51 | 47.45458 | 11.59256 | 140° | 13km/h | 21771m | 5.7m/s | -55.2°C | 4.1% | 44.3hPa | 2.7V | 00:00:00 | 00:00:00 | 00:00:00 | |
| DM0DOS-11 | 2026-09-04 05:11:50 | 47.45472 | 11.59239 | 133° | 13km/h | 21740m | 5.9m/s | -55.2°C | 4.1% | 44.6hPa | 2.7V | 02:06:00 | 01:32:37 | 00:00:00 | |
| OE5WHR-10 | 2026-09-04 05:11:49 | 47.45464 | 11.59249 | 141° | 15km/h | 21761m | 5.1m/s | -55.2°C | 4.1% | 44.4hPa | 2.7V | 02:05:00 | 00:00:00 | 00:00:00 | |
| OE9MKV-15 | 2026-09-04 05:11:48 | 47.45466 | 11.59246 | 145° | 13km/h | 21755m | 6.0m/s | 0°C | 0% | 0hPa | 2.6V | 00:00:00 | 01:32:40 | 00:00:00 | |
| DO3MHA-12 | 2026-09-04 05:11:47 | 47.45468 | 11.59244 | 145° | 13km/h | 21750m | 4.2m/s | -55.2°C | 4.1% | 44.5hPa | 2.6V | 00:00:00 | 01:32:39 | 00:00:00 | |
| OE5MMP-10 | 2026-09-04 05:11:46 | 47.45470 | 11.59242 | 140° | 13km/h | 21745m | 4.7m/s | -55.2°C | 4.1% | 44.5hPa | 2.6V | 02:05:00 | 01:32:38 | 00:00:00 | |
| DG1MFX-10 | 2026-09-04 05:11:45 | 47.45470 | 11.59242 | 140° | 9km/h | 21745m | 4.8m/s | -55.2°C | 0.9% | 44.5hPa | 2.7V | 02:06:00 | 00:00:00 | 00:00:00 | |
| DO3MHA-11 | 2026-09-04 05:11:44 | 47.45474 | 11.59235 | 132° | 15km/h | 21735m | 4.6m/s | -55.2°C | 4.2% | 44.6hPa | 2.7V | 02:06:00 | 01:32:36 | 00:00:00 | |
| DF1GD-15 | 2026-09-04 05:11:43 | 47.45474 | 11.59235 | 133° | 15km/h | 21735m | 4.6m/s | -55.3°C | 1.0% | 44.7hPa | 2.7V | 02:06:00 | 00:00:00 | 00:00:00 | |
| OE5DRO-10 | 2026-09-04 05:11:41 | 47.45482 | 11.59224 | 139° | 15km/h | 21719m | 5.2m/s | -55.2°C | 4.1% | 44.7hPa | 2.7V | 00:00:00 | 00:00:00 | 00:00:00 | |
| DM0DOS-11 | 2026-09-04 05:11:40 | 47.45494 | 11.59197 | 114° | 18km/h | 21687m | 5.8m/s | -55.6°C | 4.2% | 45hPa | 2.7V | 02:06:10 | 01:32:27 | 00:00:00 | |
| OE3JTB-15 | 2026-09-04 05:11:38 | 47.45488 | 11.59213 | 120° | 13km/h | 21703m | 4.6m/s | -55.4°C | 4.2% | 44.8hPa | 2.6V | 02:06:00 | 00:00:00 | 00:00:00 | |
| DO3MHA-12 | 2026-09-04 05:11:37 | 47.45490 | 11.59207 | 117° | 16km/h | 21697m | 6.5m/s | -55.5°C | 4.2% | 44.9hPa | 2.6V | 00:00:00 | 01:32:29 | 00:00:00 | |
| OE5MMP-10 | 2026-09-04 05:11:36 | 47.45492 | 11.59202 | 116° | 15km/h | 21692m | 4.6m/s | -55.5°C | 4.2% | 44.9hPa | 2.6V | 00:00:00 | 01:32:28 | 00:00:00 | |
| DO3MHA-11 | 2026-09-04 05:11:34 | 47.45496 | 11.59190 | 118° | 13km/h | 21681m | 5.5m/s | -55.5°C | 4.2% | 45.0hPa | 2.6V | 00:00:00 | 01:32:26 | 00:00:00 | |
| PG1ADW-2 | 2026-09-04 05:11:33 | 47.45498 | 11.59184 | 124° | 13km/h | 21676m | 4.6m/s | -55.4°C | 4.2% | 45.0hPa | 2.6V | 00:00:00 | 00:00:00 | 00:00:00 | |
| OM5KV | 2026-09-04 05:11:31 | 47.45501 | 11.59179 | 129° | 16km/h | 21671m | 6.1m/s | -55.4°C | 0.9% | 45.1hPa | 2.6V | 02:06:00 | 00:00:00 | 00:00:00 | |
| DM0DOS-11 | 2026-09-04 05:11:29 | 47.45515 | 11.59156 | 120° | 9km/h | 21633m | 4.9m/s | -55.4°C | 4.2% | 45.3hPa | 2.6V | 02:06:20 | 01:32:17 | 00:00:00 | |
| NBG1-10 | 2026-09-04 05:11:29 | 47.45508 | 11.59167 | 135° | 11km/h | 21654m | 4.5m/s | -55.3°C | 4.1% | 45.1hPa | 2.7V | 00:00:00 | 01:32:21 | 00:00:00 | |
| OE5WHR-10 | 2026-09-04 05:11:28 | 47.45511 | 11.59164 | 135° | 11km/h | 21649m | 4.0m/s | -55.3°C | 4.1% | 45.2hPa | 2.7V | 00:00:00 | 00:00:00 | 00:00:00 | |
| DO3MHA-12 | 2026-09-04 05:11:27 | 47.45513 | 11.59161 | 136° | 13km/h | 21644m | 6.0m/s | -55.3°C | 4.1% | 45.2hPa | 2.7V | 02:06:00 | 01:32:19 | 00:00:00 | |
| OE5MMP-10 | 2026-09-04 05:11:26 | 47.45514 | 11.59158 | 131° | 13km/h | 21639m | 5.2m/s | -55.3°C | 4.1% | 45.2hPa | 2.7V | 00:00:00 | 01:32:18 | 00:00:00 | |
| DO3MHA-11 | 2026-09-04 05:11:24 | 47.45517 | 11.59152 | 114° | 13km/h | 21628m | 6.1m/s | -55.3°C | 4.1% | 45.3hPa | 2.7V | 00:00:00 | 01:32:16 | 00:00:00 | |
| OM5KV | 2026-09-04 05:11:23 | 47.45517 | 11.59152 | 115° | 11km/h | 21628m | 6.1m/s | -55.3°C | 0.9% | 45.4hPa | 2.7V | 02:06:00 | 00:00:00 | 00:00:00 | |
| OE5DRO-10 | 2026-09-04 05:11:22 | 47.45519 | 11.59142 | 104° | 13km/h | 21618m | 5.0m/s | -55.2°C | 4.1% | 45.4hPa | 2.7V | 00:00:00 | 00:00:00 | 00:00:00 | |
| DB0UT-7 | 2026-09-04 05:11:21 | 47.45520 | 11.59137 | 104° | 11km/h | 21612m | 6.1m/s | -55.3°C | 4.1% | 45.4hPa | 2.7V | 00:00:00 | 01:32:13 | 00:00:00 | |
| DM0DOS-11 | 2026-09-04 05:11:20 | 47.45528 | 11.59113 | 136° | 7km/h | 21581m | 5.5m/s | -55.3°C | 4.2% | 45.7hPa | 2.7V | 02:06:30 | 01:32:07 | 00:00:00 | |
| DO3MHA-12 | 2026-09-04 05:11:17 | 47.45525 | 11.59119 | 124° | 11km/h | 21592m | 3.8m/s | -55.2°C | 4.1% | 45.6hPa | 2.6V | 00:00:00 | 01:32:09 | 00:00:00 | |
| OE5MMP-10 | 2026-09-04 05:11:16 | 47.45527 | 11.59116 | 130° | 11km/h | 21587m | 5.7m/s | -55.2°C | 4.1% | 45.6hPa | 2.6V | 02:06:00 | 01:32:08 | 00:00:00 | |
| DO3MHA-11 | 2026-09-04 05:11:14 | 47.45530 | 11.59112 | 146° | 13km/h | 21577m | 4.5m/s | -55.2°C | 4.2% | 45.7hPa | 2.7V | 02:06:00 | 01:32:06 | 00:00:00 | |
| DF2AP-13 | 2026-09-04 05:11:13 | 47.45531 | 11.59110 | 139° | 11km/h | 21572m | 4.8m/s | 0°C | 0% | 0hPa | 2.7V | 02:06:00 | 01:32:05 | 00:00:00 | |
| IN3HCDX | 2026-09-04 05:11:12 | 47.45531 | 11.59110 | 139° | 5km/h | 21572m | 4.9m/s | -55.4°C | 1.0% | 45.8hPa | 2.7V | 02:06:00 | 00:00:00 | 00:00:00 | |
| OM5KV | 2026-09-04 05:11:11 | 47.45532 | 11.59108 | 133° | 9km/h | 21567m | 5.4m/s | -55.4°C | 1.0% | 45.8hPa | 2.7V | 02:06:00 | 00:00:00 | 00:00:00 | |
| OE3JTB-15 | 2026-09-04 05:11:09 | 47.45538 | 11.59101 | 152° | 11km/h | 21551m | 4.5m/s | -55.4°C | 4.2% | 45.9hPa | 2.7V | 00:00:00 | 00:00:00 | 00:00:00 | |
| DM0DOS-11 | 2026-09-04 05:11:07 | 47.45550 | 11.59085 | 127° | 18km/h | 21531m | 4.7m/s | -55.2°C | 3.9% | 46.1hPa | 2.7V | 02:06:40 | 01:31:57 | 00:00:00 | |
| OE5WHR-10 | 2026-09-04 05:11:07 | 47.45544 | 11.59095 | 137° | 11km/h | 21542m | 5.6m/s | -55.3°C | 4.1% | 46.0hPa | 2.7V | 00:00:00 | 01:31:59 | 00:00:00 | |
| OM5KV | 2026-09-04 05:11:06 | 47.45547 | 11.59090 | 130° | 18km/h | 21536m | 5.0m/s | -55.2°C | 0.9% | 46.1hPa | 2.7V | 02:06:00 | 00:00:00 | 00:00:00 | |
| DO3MHA-11 | 2026-09-04 05:11:04 | 47.45553 | 11.59080 | 130° | 9km/h | 21526m | 6.0m/s | -55.1°C | 4.0% | 46.1hPa | 2.7V | 00:00:00 | 01:31:56 | 00:00:00 | |
| OE5DRO-10 | 2026-09-04 05:11:03 | 47.45555 | 11.59075 | 133° | 9km/h | 21521m | 4.5m/s | -55.1°C | 3.9% | 46.1hPa | 2.7V | 02:06:00 | 00:00:00 | 00:00:00 | |
| DF1GD-15 | 2026-09-04 05:11:02 | 47.45555 | 11.59075 | 134° | 13km/h | 21521m | 4.6m/s | -55.1°C | 0.9% | 46.2hPa | 2.6V | 02:06:00 | 00:00:00 | 00:00:00 | |
| DK5PH-5 | 2026-09-04 05:11:00 | 47.45559 | 11.59066 | 102° | 9km/h | 21506m | 5.1m/s | -55.1°C | 4.0% | 46.2hPa | 2.6V | 00:00:00 | 01:31:52 | 00:00:00 | |
| DG1MJG | 2026-09-04 05:10:58 | 47.45560 | 11.59063 | 101° | 9km/h | 21501m | 5.3m/s | -55.3°C | 0.9% | 46.3hPa | 2.6V | 02:06:00 | 00:00:00 | 00:00:00 | |
| DM0DOS-11 | 2026-09-04 05:10:57 | 47.45562 | 11.59053 | 113° | 7km/h | 21480m | 5.4m/s | -55.6°C | 4.2% | 46.4hPa | 2.6V | 02:06:50 | 01:31:47 | 00:00:00 | |
| DO3MHA-12 | 2026-09-04 05:10:57 | 47.45561 | 11.59058 | 122° | 7km/h | 21490m | 4.4m/s | -55.4°C | 4.1% | 46.3hPa | 2.7V | 02:06:00 | 01:31:49 | 00:00:00 | |
| OE5MMP-10 | 2026-09-04 05:10:56 | 47.45562 | 11.59056 | 120° | 9km/h | 21485m | 5.0m/s | -55.6°C | 4.1% | 46.3hPa | 2.6V | 00:00:00 | 01:31:48 | 00:00:00 | |
| DO3MHA-11 | 2026-09-04 05:10:54 | 47.45563 | 11.59051 | 123° | 9km/h | 21475m | 4.3m/s | -55.6°C | 4.2% | 46.5hPa | 2.6V | 00:00:00 | 01:31:46 | 00:00:00 | |
| PG1ADW-2 | 2026-09-04 05:10:53 | 47.45564 | 11.59049 | 146° | 11km/h | 21470m | 6.1m/s | -55.7°C | 4.2% | 46.5hPa | 2.6V | 02:06:00 | 01:31:45 | 00:00:00 | |
| DB0UT-7 | 2026-09-04 05:10:51 | 47.45569 | 11.59047 | 168° | 11km/h | 21460m | 4.5m/s | -55.7°C | 4.2% | 46.6hPa | 2.6V | 00:00:00 | 00:00:00 | 00:00:00 | |
| DM0DOS-11 | 2026-09-04 05:10:47 | 47.45583 | 11.59040 | 165° | 11km/h | 21430m | 4.6m/s | -55.7°C | 4.2% | 46.8hPa | 2.6V | 02:07:00 | 01:31:37 | 00:00:00 | |
| DO3MHA-12 | 2026-09-04 05:10:47 | 47.45577 | 11.59042 | 166° | 11km/h | 21439m | 5.9m/s | -55.6°C | 4.2% | 46.7hPa | 2.6V | 00:00:00 | 01:31:39 | 00:00:00 | |
| OE5WHR-10 | 2026-09-04 05:10:46 | 47.45580 | 11.59041 | 171° | 11km/h | 21434m | 4.2m/s | -55.6°C | 4.2% | 46.7hPa | 2.6V | 02:06:00 | 00:00:00 | 00:00:00 | |
| DB0NH | 2026-09-04 05:10:45 | 47.45583 | 11.59040 | 166° | 20km/h | 21430m | 4.6m/s | -55.6°C | 4.2% | 46.8hPa | 2.7V | 00:00:00 | 01:31:37 | 00:00:00 | |
| DO3MHA-11 | 2026-09-04 05:10:44 | 47.45586 | 11.59038 | 152° | 11km/h | 21424m | 6.0m/s | -55.6°C | 4.2% | 46.8hPa | 2.7V | 02:07:00 | 01:31:36 | 00:00:00 | |
| DF2AP-13 | 2026-09-04 05:10:43 | 47.45588 | 11.59035 | 126° | 13km/h | 21419m | 5.0m/s | 0°C | 0% | 0hPa | 2.7V | 00:00:00 | 01:31:35 | 00:00:00 | |
| DG1MFX-10 | 2026-09-04 05:10:42 | 47.45588 | 11.59035 | 127° | 13km/h | 21419m | 5.1m/s | -55.6°C | 1.0% | 46.9hPa | 2.7V | 02:07:00 | 00:00:00 | 00:00:00 | |
| DF1GD-15 | 2026-09-04 05:10:41 | 47.45589 | 11.59031 | 115° | 13km/h | 21414m | 3.9m/s | -55.6°C | 1.0% | 47.0hPa | 2.7V | 02:07:00 | 00:00:00 | 00:00:00 | |
| OE3JTB-15 | 2026-09-04 05:10:40 | 47.45592 | 11.59023 | 122° | 13km/h | 21405m | 5.2m/s | -55.6°C | 4.2% | 46.9hPa | 2.7V | 00:00:00 | 01:31:32 | 00:00:00 | |
| DM0DOS-11 | 2026-09-04 05:10:37 | 47.45598 | 11.59005 | 100° | 7km/h | 21379m | 5.3m/s | -55.6°C | 4.2% | 47.2hPa | 2.7V | 02:07:10 | 01:31:27 | 00:00:00 | |
| DO3MHA-12 | 2026-09-04 05:10:37 | 47.45597 | 11.59012 | 111° | 9km/h | 21390m | 5.2m/s | -55.6°C | 4.2% | 47.1hPa | 2.7V | 00:00:00 | 01:31:29 | 00:00:00 | |
| OE5MMP-10 | 2026-09-04 05:10:36 | 47.45597 | 11.59009 | 102° | 9km/h | 21385m | 5.2m/s | -55.6°C | 4.2% | 47.1hPa | 2.7V | 00:00:00 | 01:31:28 | 00:00:00 | |
| DO3MHA-11 | 2026-09-04 05:10:34 | 47.45598 | 11.59003 | 105° | 11km/h | 21374m | 5.4m/s | -55.5°C | 4.2% | 47.2hPa | 2.7V | 00:00:00 | 01:31:26 | 00:00:00 | |
| PG1ADW-2 | 2026-09-04 05:10:33 | 47.45599 | 11.59001 | 94° | 13km/h | 21369m | 3.8m/s | -55.5°C | 4.2% | 47.2hPa | 2.7V | 00:00:00 | 00:00:00 | 00:00:00 | |
| DF7PN | 2026-09-04 05:10:32 | 47.45598 | 11.58996 | 79° | 7km/h | 21359m | 4.9m/s | -55.5°C | 0.9% | 47.3hPa | 2.7V | 00:00:00 | 00:00:00 | 00:00:00 | |
| DK5PH-5 | 2026-09-04 05:10:30 | 47.45598 | 11.58992 | 92° | 18km/h | 21354m | 4.8m/s | -55.4°C | 4.3% | 47.3hPa | 2.7V | 02:07:00 | 01:31:22 | 00:00:00 | |
| DM0DOS-11 | 2026-09-04 05:10:27 | 47.45604 | 11.58965 | 103° | 18km/h | 21329m | 4.3m/s | -55.4°C | 4.1% | 47.6hPa | 2.7V | 02:07:20 | 01:31:17 | 00:00:00 | |
| S52SK | 2026-09-04 05:10:27 | 47.45601 | 11.58978 | 112° | 16km/h | 21340m | 5.4m/s | 0°C | 0% | 0hPa | 2.6V | 00:00:00 | 00:00:00 | 00:00:00 | |
| OE5MMP-10 | 2026-09-04 05:10:26 | 47.45603 | 11.58972 | 104° | 13km/h | 21334m | 5.1m/s | -55.3°C | 4.1% | 47.5hPa | 2.6V | 00:00:00 | 01:31:18 | 00:00:00 | |
| OE5WHR-10 | 2026-09-04 05:10:25 | 47.45603 | 11.58965 | 104° | 18km/h | 21330m | 4.3m/s | -55.3°C | 4.1% | 47.5hPa | 2.6V | 00:00:00 | 00:00:00 | 00:00:00 | |
| DO3MHA-11 | 2026-09-04 05:10:24 | 47.45605 | 11.58960 | 108° | 15km/h | 21325m | 6.1m/s | -55.4°C | 4.1% | 47.6hPa | 2.6V | 00:00:00 | 01:31:16 | 00:00:00 | |
| NBG1-10 | 2026-09-04 05:10:23 | 47.45606 | 11.58954 | 106° | 20km/h | 21319m | 4.5m/s | -55.4°C | 4.1% | 47.6hPa | 2.6V | 02:07:00 | 01:31:15 | 00:00:00 | |
| DG1MFX-10 | 2026-09-04 05:10:22 | 47.45606 | 11.58954 | 106° | 13km/h | 21319m | 4.5m/s | -55.4°C | 1.0% | 47.7hPa | 2.7V | 02:07:00 | 00:00:00 | 00:00:00 | |
| DB0ND-19 | 2026-09-04 05:10:21 | 47.45607 | 11.58941 | 88° | 9km/h | 21304m | 4.3m/s | -55.5°C | 0.9% | 47.7hPa | 2.7V | 00:00:00 | 00:00:00 | 00:00:00 | |
| DM0DOS-11 | 2026-09-04 05:10:19 | 47.45607 | 11.58907 | 93° | 27km/h | 21274m | 5m/s | -55.7°C | 4.3% | 48hPa | 2.7V | 02:07:31 | 01:31:06 | 00:00:00 | |
| DO3MHA-12 | 2026-09-04 05:10:17 | 47.45607 | 11.58929 | 93° | 24km/h | 21290m | 4.7m/s | -55.6°C | 4.2% | 47.8hPa | 2.6V | 00:00:00 | 01:31:09 | 00:00:00 | |
| OE5MMP-10 | 2026-09-04 05:10:16 | 47.45607 | 11.58924 | 91° | 24km/h | 21285m | 5.4m/s | -55.6°C | 4.3% | 47.9hPa | 2.6V | 02:07:00 | 01:31:08 | 00:00:00 | |
| DL6DJ-15 | 2026-09-04 05:10:15 | 47.45607 | 11.58916 | 89° | 22km/h | 21279m | 5.4m/s | -55.7°C | 1.0% | 47.9hPa | 2.7V | 00:00:00 | 00:00:00 | 00:00:00 | |
| DO3MHA-11 | 2026-09-04 05:10:14 | 47.45607 | 11.58906 | 94° | 24km/h | 21274m | 5.0m/s | -55.7°C | 4.3% | 47.9hPa | 2.7V | 02:07:00 | 01:31:06 | 00:00:00 | |
| PG1ADW-2 | 2026-09-04 05:10:13 | 47.45608 | 11.58897 | 98° | 22km/h | 21269m | 5.9m/s | -55.6°C | 4.3% | 48.0hPa | 2.6V | 00:00:00 | 00:00:00 | 00:00:00 | |
| OE3JTB-15 | 2026-09-04 05:10:11 | 47.45610 | 11.58877 | 101° | 20km/h | 21259m | 3.8m/s | -55.6°C | 4.4% | 48.1hPa | 2.6V | 02:07:00 | 00:00:00 | 00:00:00 | |
| IN3HCDX | 2026-09-04 05:10:10 | 47.45610 | 11.58877 | 102° | 26km/h | 21259m | 3.9m/s | -55.6°C | 1.0% | 48.1hPa | 2.6V | 02:07:00 | 00:00:00 | 00:00:00 | |
| OM5KV | 2026-09-04 05:10:09 | 47.45611 | 11.58868 | 97° | 24km/h | 21254m | 5.6m/s | -55.6°C | 1.0% | 48.2hPa | 2.6V | 02:07:00 | 00:00:00 | 00:00:00 | |
| DM0DOS-11 | 2026-09-04 05:10:07 | 47.45605 | 11.58807 | 69° | 22km/h | 21216m | 4.5m/s | -55.3°C | 4.2% | 48.4hPa | 2.6V | 02:07:43 | 01:30:54 | 00:00:00 | |
| DO3MHA-12 | 2026-09-04 05:10:07 | 47.45611 | 11.58842 | 86° | 20km/h | 21241m | 5.5m/s | -55.5°C | 4.2% | 48.2hPa | 2.7V | 00:00:00 | 01:30:59 | 00:00:00 | |
| OE5MMP-10 | 2026-09-04 05:10:06 | 47.45610 | 11.58835 | 88° | 20km/h | 21235m | 5.0m/s | -55.4°C | 4.2% | 48.2hPa | 2.7V | 00:00:00 | 01:30:58 | 00:00:00 | |
| OM5KV | 2026-09-04 05:10:02 | 47.45607 | 11.58814 | 70° | 20km/h | 21221m | 5.3m/s | -55.4°C | 0.9% | 48.4hPa | 2.7V | 02:08:00 | 00:00:00 | 00:00:00 | |
| DF7PN | 2026-09-04 05:10:01 | 47.45603 | 11.58791 | 84° | 22km/h | 21206m | 4.5m/s | -55.2°C | 0.9% | 48.5hPa | 2.7V | 00:00:00 | 00:00:00 | 00:00:00 | |
| DK5PH-5 | 2026-09-04 05:10:00 | 47.45603 | 11.58791 | 85° | 16km/h | 21206m | 4.4m/s | -55.2°C | 4.1% | 48.5hPa | 2.7V | 00:00:00 | 01:30:52 | 00:00:00 | |
| OM5KV | 2026-09-04 05:09:59 | 47.45603 | 11.58783 | 89° | 22km/h | 21202m | 4.0m/s | -55.2°C | 1.0% | 48.5hPa | 2.7V | 02:08:00 | 00:00:00 | 00:00:00 | |
| DM0DOS-11 | 2026-09-04 05:09:57 | 47.45600 | 11.58730 | 73° | 18km/h | 21166m | 5.6m/s | -54.9°C | 4% | 48.8hPa | 2.7V | 02:07:53 | 01:30:44 | 00:00:00 | |
| DO3MHA-12 | 2026-09-04 05:09:57 | 47.45602 | 11.58766 | 83° | 18km/h | 21192m | 4.7m/s | -55.1°C | 4.1% | 48.6hPa | 2.6V | 02:07:00 | 01:30:49 | 00:00:00 | |
| BAUMI2-15 | 2026-09-04 05:09:56 | 47.45601 | 11.58758 | 85° | 18km/h | 21187m | 4.8m/s | -55.0°C | 4.1% | 48.6hPa | 2.7V | 00:00:00 | 01:30:48 | 00:00:00 | |
| DO3MHA-11 | 2026-09-04 05:09:54 | 47.45601 | 11.58743 | 91° | 18km/h | 21177m | 4.2m/s | -54.9°C | 4.0% | 48.7hPa | 2.7V | 00:00:00 | 01:30:46 | 00:00:00 | |
| PG1ADW-2 | 2026-09-04 05:09:53 | 47.45601 | 11.58736 | 85° | 16km/h | 21172m | 4.8m/s | -54.9°C | 4.1% | 48.7hPa | 2.7V | 02:07:00 | 00:00:00 | 00:00:00 | |
| OM5KV | 2026-09-04 05:09:52 | 47.45601 | 11.58736 | 85° | 18km/h | 21172m | 4.9m/s | -55.0°C | 0.9% | 48.8hPa | 2.6V | 02:08:00 | 00:00:00 | 00:00:00 | |
| OE5DXL-15 | 2026-09-04 05:09:51 | 47.45598 | 11.58724 | 65° | 15km/h | 21162m | 3.6m/s | -54.8°C | 4.0% | 48.8hPa | 2.6V | 00:00:00 | 01:30:43 | 00:00:00 | |
| NBG1-10 | 2026-09-04 05:09:50 | 47.45596 | 11.58718 | 65° | 15km/h | 21158m | 4.9m/s | -54.8°C | 4.0% | 48.8hPa | 2.6V | 00:00:00 | 01:30:42 | 00:00:00 | |
| IN3HCDX | 2026-09-04 05:09:49 | 47.45596 | 11.58718 | 65° | 16km/h | 21158m | 5.0m/s | -54.9°C | 0.9% | 48.9hPa | 2.6V | 02:08:00 | 00:00:00 | 00:00:00 | |
| DM0DOS-11 | 2026-09-04 05:09:48 | 47.45590 | 11.58664 | 87° | 18km/h | 21117m | 3.5m/s | -54.9°C | 4% | 49.2hPa | 2.6V | 02:08:03 | 01:30:34 | 00:00:00 | |
| DB0NH | 2026-09-04 05:09:47 | 47.45593 | 11.58700 | 84° | 13km/h | 21143m | 4.8m/s | -54.8°C | 3.9% | 48.9hPa | 2.6V | 02:07:00 | 01:30:39 | 00:00:00 | |
| OE5MMP-10 | 2026-09-04 05:09:46 | 47.45592 | 11.58693 | 80° | 18km/h | 21137m | 6.0m/s | -54.8°C | 4.0% | 49.0hPa | 2.7V | 02:07:00 | 01:30:38 | 00:00:00 | |
| DO3MHA-11 | 2026-09-04 05:09:44 | 47.45591 | 11.58678 | 81° | 15km/h | 21128m | 4.8m/s | -54.8°C | 3.9% | 49.0hPa | 2.7V | 02:08:00 | 01:30:36 | 00:00:00 | |
| OE5WHR-10 | 2026-09-04 05:09:43 | 47.45590 | 11.58670 | 87° | 15km/h | 21122m | 5.6m/s | -54.8°C | 3.9% | 49.1hPa | 2.6V | 02:08:00 | 00:00:00 | 00:00:00 | |
| OE3JTB-15 | 2026-09-04 05:09:42 | 47.45590 | 11.58664 | 88° | 13km/h | 21118m | 3.5m/s | -54.9°C | 4.0% | 49.1hPa | 2.7V | 00:00:00 | 00:00:00 | 00:00:00 | |
| BAUMI2-15 | 2026-09-04 05:09:41 | 47.45590 | 11.58657 | 84° | 15km/h | 21114m | 4.4m/s | -54.9°C | 4.0% | 49.2hPa | 2.7V | 00:00:00 | 01:30:33 | 00:00:00 | |
| OM5KV | 2026-09-04 05:09:40 | 47.45589 | 11.58651 | 75° | 16km/h | 21109m | 5.7m/s | -55.0°C | 0.9% | 49.3hPa | 2.7V | 02:08:00 | 00:00:00 | 00:00:00 | |
| DM0DOS-11 | 2026-09-04 05:09:38 | 47.45578 | 11.58618 | 76° | 13km/h | 21069m | 6.3m/s | -55.3°C | 4.1% | 49.5hPa | 2.7V | 02:08:13 | 01:30:24 | 00:00:00 | |
| DO3MHA-12 | 2026-09-04 05:09:37 | 47.45583 | 11.58636 | 60° | 13km/h | 21094m | 5.5m/s | -55.2°C | 4.1% | 49.3hPa | 2.7V | 00:00:00 | 01:30:29 | 00:00:00 | |
| OE5MMP-10 | 2026-09-04 05:09:36 | 47.45582 | 11.58633 | 67° | 15km/h | 21089m | 5.0m/s | -55.1°C | 4.1% | 49.4hPa | 2.7V | 00:00:00 | 01:30:28 | 00:00:00 | |
| DO3MHA-11 | 2026-09-04 05:09:34 | 47.45580 | 11.58626 | 64° | 15km/h | 21079m | 5.9m/s | -55.2°C | 4.1% | 49.4hPa | 2.7V | 00:00:00 | 01:30:26 | 00:00:00 | |
| PG1ADW-2 | 2026-09-04 05:09:33 | 47.45579 | 11.58622 | 68° | 13km/h | 21074m | 4.2m/s | -55.2°C | 4.1% | 49.5hPa | 2.7V | 00:00:00 | 01:30:25 | 00:00:00 | |
| OM5KV | 2026-09-04 05:09:32 | 47.45579 | 11.58622 | 68° | 13km/h | 21074m | 4.3m/s | -55.2°C | 1.0% | 49.5hPa | 2.7V | 02:08:00 | 00:00:00 | 00:00:00 | |
| BAUMI2-15 | 2026-09-04 05:09:31 | 47.45577 | 11.58612 | 83° | 16km/h | 21064m | 4.5m/s | -55.2°C | 4.1% | 49.6hPa | 2.7V | 02:08:00 | 01:30:23 | 00:00:00 | |
| DF7PN | 2026-09-04 05:09:30 | 47.45575 | 11.58601 | 69° | 16km/h | 21054m | 6.0m/s | -55.3°C | -1.0% | 49.7hPa | 2.6V | 00:00:00 | 00:00:00 | 00:00:00 | |
| OE5DRO-10 | 2026-09-04 05:09:28 | 47.45573 | 11.58595 | 60° | 11km/h | 21049m | 4.2m/s | -55.3°C | 4.1% | 49.7hPa | 2.6V | 00:00:00 | 00:00:00 | 00:00:00 | |
| DM0DOS-11 | 2026-09-04 05:09:27 | 47.45562 | 11.58572 | 52° | 7km/h | 21018m | 4.1m/s | -55.3°C | 4.1% | 49.9hPa | 2.6V | 02:08:23 | 01:30:14 | 00:00:00 | |
| DO3MHA-12 | 2026-09-04 05:09:27 | 47.45571 | 11.58589 | 55° | 9km/h | 21045m | 4.2m/s | -55.2°C | 4.1% | 49.7hPa | 2.6V | 02:08:00 | 01:30:19 | 00:00:00 | |
| OE5MMP-10 | 2026-09-04 05:09:26 | 47.45568 | 11.58584 | 52° | 9km/h | 21040m | 5.4m/s | -55.3°C | 4.2% | 49.7hPa | 2.7V | 00:00:00 | 01:30:18 | 00:00:00 | |
| DO3MHA-11 | 2026-09-04 05:09:24 | 47.45564 | 11.58577 | 52° | 9km/h | 21029m | 4.6m/s | -55.3°C | 4.2% | 49.8hPa | 2.7V | 00:00:00 | 01:30:16 | 00:00:00 | |
| DL1ZP-14 | 2026-09-04 05:09:23 | 47.45563 | 11.58574 | 50° | 7km/h | 21024m | 6.3m/s | -55.3°C | 1.0% | 49.9hPa | 2.7V | 00:00:00 | 00:00:00 | 00:00:00 | |
| OM5KV | 2026-09-04 05:09:22 | 47.45562 | 11.58572 | 54° | 7km/h | 21019m | 4.1m/s | -55.3°C | 0.9% | 49.9hPa | 2.6V | 02:08:00 | 00:00:00 | 00:00:00 | |
| DB0UT-7 | 2026-09-04 05:09:21 | 47.45561 | 11.58570 | 71° | 16km/h | 21014m | 5.0m/s | -55.4°C | 4.2% | 49.9hPa | 2.6V | 00:00:00 | 01:30:13 | 00:00:00 | |
| OM5KV | 2026-09-04 05:09:20 | 47.45561 | 11.58570 | 71° | 4km/h | 21014m | 5.1m/s | -55.4°C | 1.0% | 50.0hPa | 2.6V | 02:08:00 | 00:00:00 | 00:00:00 | |
| DF1GD-15 | 2026-09-04 05:09:19 | 47.45561 | 11.58569 | 121° | 4km/h | 21009m | 5.8m/s | -55.4°C | 1.0% | 50.0hPa | 2.6V | 02:08:00 | 00:00:00 | 00:00:00 | |
| DB0ND-19 | 2026-09-04 05:09:18 | 47.45562 | 11.58565 | 112° | 7km/h | 21000m | 4.7m/s | -55.6°C | 1.0% | 50.1hPa | 2.6V | 00:00:00 | 00:00:00 | 00:00:00 | |
| DM0DOS-11 | 2026-09-04 05:09:17 | 47.45559 | 11.58536 | 104° | 11km/h | 20969m | 4.5m/s | -55.6°C | 4.2% | 50.3hPa | 2.6V | 02:08:33 | 01:30:04 | 00:00:00 | |
| DO3MHA-12 | 2026-09-04 05:09:17 | 47.45563 | 11.58562 | 89° | 13km/h | 20995m | 5.8m/s | -55.5°C | 4.2% | 50.1hPa | 2.7V | 00:00:00 | 01:30:09 | 00:00:00 | |
| BAUMI2-15 | 2026-09-04 05:09:16 | 47.45562 | 11.58557 | 75° | 15km/h | 20989m | 5.0m/s | -55.5°C | 4.1% | 50.1hPa | 2.7V | 02:08:00 | 01:30:08 | 00:00:00 | |
| OM5KV | 2026-09-04 05:09:15 | 47.45562 | 11.58557 | 76° | 15km/h | 20989m | 5.0m/s | -55.5°C | 1.0% | 50.2hPa | 2.6V | 02:08:00 | 00:00:00 | 00:00:00 | |
| DO3MHA-11 | 2026-09-04 05:09:14 | 47.45560 | 11.58546 | 74° | 15km/h | 20980m | 5.1m/s | -55.5°C | 4.1% | 50.2hPa | 2.6V | 02:08:00 | 01:30:06 | 00:00:00 | |
| DB0NH | 2026-09-04 05:09:13 | 47.45559 | 11.58541 | 86° | 20km/h | 20975m | 5.5m/s | -55.6°C | 4.2% | 50.2hPa | 2.7V | 00:00:00 | 01:30:05 | 00:00:00 | |
| BAUMI2-15 | 2026-09-04 05:09:11 | 47.45560 | 11.58532 | 125° | 11km/h | 20965m | 5.1m/s | -55.6°C | 4.2% | 50.3hPa | 2.7V | 00:00:00 | 01:30:03 | 00:00:00 | |
| OE5DRO-10 | 2026-09-04 05:09:09 | 47.45564 | 11.58528 | 150° | 20km/h | 20954m | 4.0m/s | -55.5°C | 4.2% | 50.4hPa | 2.7V | 02:08:00 | 00:00:00 | 00:00:00 | |
| DM0DOS-11 | 2026-09-04 05:09:07 | 47.45595 | 11.58516 | 154° | 18km/h | 20919m | 4.8m/s | -55.5°C | 4.2% | 50.7hPa | 2.7V | 02:08:43 | 01:29:54 | 00:00:00 | |
| DO3MHA-12 | 2026-09-04 05:09:07 | 47.45570 | 11.58525 | 165° | 20km/h | 20945m | 6.1m/s | -55.5°C | 4.2% | 50.5hPa | 2.7V | 00:00:00 | 01:29:59 | 00:00:00 | |
| OE5MMP-10 | 2026-09-04 05:09:06 | 47.45575 | 11.58523 | 170° | 20km/h | 20939m | 5.7m/s | -55.4°C | 4.2% | 50.5hPa | 2.7V | 00:00:00 | 01:29:58 | 00:00:00 | |
| DO3MHA-11 | 2026-09-04 05:09:04 | 47.45586 | 11.58520 | 171° | 20km/h | 20929m | 5.8m/s | -55.5°C | 4.2% | 50.6hPa | 2.7V | 00:00:00 | 01:29:56 | 00:00:00 | |
| OM5KV | 2026-09-04 05:09:03 | 47.45586 | 11.58520 | 171° | 20km/h | 20929m | 5.9m/s | -55.5°C | 1.0% | 50.7hPa | 2.7V | 02:09:00 | 00:00:00 | 00:00:00 | |
| DF7PN | 2026-09-04 05:08:59 | 47.45609 | 11.58498 | 126° | 15km/h | 20898m | 5.3m/s | 0°C | -1.0% | -1.0hPa | 2.7V | 00:00:00 | 00:00:00 | 00:00:00 | |
| DF1GD-15 | 2026-09-04 05:08:58 | 47.45606 | 11.58503 | 133° | 18km/h | 20903m | 5.9m/s | -55.4°C | 1.0% | 50.9hPa | 2.7V | 02:09:00 | 00:00:00 | 00:00:00 | |
| DM0DOS-11 | 2026-09-04 05:08:57 | 47.45636 | 11.58468 | 157° | 26km/h | 20869m | 5.8m/s | -55.8°C | 4.1% | 51.1hPa | 2.7V | 02:08:53 | 01:29:44 | 00:00:00 | |
| DL1ZP-14 | 2026-09-04 05:08:52 | 47.45662 | 11.58453 | 145° | 24km/h | 20844m | 4.2m/s | -55.9°C | 1.0% | 51.3hPa | 2.7V | 00:00:00 | 00:00:00 | 00:00:00 | |
| OE5DXL-15 | 2026-09-04 05:08:51 | 47.45642 | 11.58465 | 166° | 31km/h | 20864m | 5.3m/s | -55.8°C | 4.1% | 51.1hPa | 2.7V | 00:00:00 | 00:00:00 | 00:00:00 | |
| OE5DRO-10 | 2026-09-04 05:08:50 | 47.45647 | 11.58463 | 167° | 29km/h | 20859m | 4.5m/s | -55.8°C | 4.2% | 51.2hPa | 2.7V | 00:00:00 | 00:00:00 | 00:00:00 | |
| DO3MHA-12 | 2026-09-04 05:08:47 | 47.45662 | 11.58453 | 146° | 31km/h | 20844m | 4.1m/s | -55.8°C | 4.2% | 51.3hPa | 2.7V | 00:00:00 | 01:29:39 | 00:00:00 | |
| OE5MMP-10 | 2026-09-04 05:08:46 | 47.45667 | 11.58447 | 147° | 33km/h | 20839m | 5.8m/s | -55.9°C | 4.2% | 51.3hPa | 2.7V | 02:08:00 | 01:29:38 | 00:00:00 | |
| DO3MHA-11 | 2026-09-04 05:08:44 | 47.45679 | 11.58437 | 150° | 33km/h | 20828m | 4.7m/s | -55.8°C | 4.2% | 51.4hPa | 2.6V | 02:09:00 | 01:29:36 | 00:00:00 | |
| DB0NH | 2026-09-04 05:08:43 | 47.45686 | 11.58430 | 146° | 33km/h | 20823m | 4.5m/s | -55.8°C | 4.2% | 51.4hPa | 2.7V | 00:00:00 | 01:29:35 | 00:00:00 | |
| DF2AP-13 | 2026-09-04 05:08:42 | 47.45692 | 11.58423 | 140° | 31km/h | 20818m | 5.5m/s | 0°C | 0% | 0hPa | 2.7V | 00:00:00 | 01:29:34 | 00:00:00 | |
| BAUMI2-15 | 2026-09-04 05:08:41 | 47.45699 | 11.58414 | 138° | 35km/h | 20813m | 4.6m/s | -55.8°C | 4.2% | 51.5hPa | 2.7V | 00:00:00 | 01:29:33 | 00:00:00 | |
| OE5WHR-10 | 2026-09-04 05:08:40 | 47.45706 | 11.58405 | 139° | 33km/h | 20808m | 5.9m/s | -55.7°C | 4.1% | 51.6hPa | 2.7V | 02:09:00 | 00:00:00 | 00:00:00 | |
| IW2NTF | 2026-09-04 05:08:38 | 47.45749 | 11.58352 | 146° | 27km/h | 20774m | 5.2m/s | 0°C | 0% | 0hPa | 2.7V | 00:00:00 | 01:29:25 | 00:00:00 | |
| DO3MHA-12 | 2026-09-04 05:08:37 | 47.45727 | 11.58380 | 140° | 31km/h | 20794m | 5.6m/s | -55.7°C | 4.2% | 51.7hPa | 2.7V | 00:00:00 | 01:29:29 | 00:00:00 | |
| OE5MMP-10 | 2026-09-04 05:08:36 | 47.45732 | 11.58373 | 137° | 31km/h | 20789m | 4.7m/s | -55.8°C | 4.2% | 51.7hPa | 2.7V | 00:00:00 | 01:29:28 | 00:00:00 | |
| OM5KV | 2026-09-04 05:08:35 | 47.45732 | 11.58373 | 137° | 31km/h | 20789m | 4.7m/s | -55.8°C | 1.0% | 51.8hPa | 2.7V | 02:09:00 | 00:00:00 | 00:00:00 | |
| DO3MHA-11 | 2026-09-04 05:08:34 | 47.45743 | 11.58358 | 141° | 31km/h | 20780m | 5.2m/s | -55.9°C | 4.2% | 51.8hPa | 2.7V | 00:00:00 | 01:29:26 | 00:00:00 | |
| PG1ADW-2 | 2026-09-04 05:08:33 | 47.45749 | 11.58352 | 147° | 31km/h | 20774m | 5.2m/s | -56.0°C | 4.2% | 51.8hPa | 2.7V | 00:00:00 | 00:00:00 | 00:00:00 | |
| OE5DRO-10 | 2026-09-04 05:08:31 | 47.45761 | 11.58340 | 145° | 31km/h | 20765m | 5.2m/s | -56.0°C | 4.1% | 51.9hPa | 2.7V | 00:00:00 | 00:00:00 | 00:00:00 | |
| DK5PH-5 | 2026-09-04 05:08:30 | 47.45767 | 11.58333 | 139° | 31km/h | 20759m | 5.4m/s | -56.0°C | 4.1% | 52.0hPa | 2.7V | 00:00:00 | 01:29:22 | 00:00:00 | |
| OM5KV | 2026-09-04 05:08:29 | 47.45767 | 11.58333 | 139° | 31km/h | 20759m | 5.5m/s | -56.1°C | 1.0% | 52.0hPa | 2.7V | 02:09:00 | 00:00:00 | 00:00:00 | |
| DO3MHA-12 | 2026-09-04 05:08:27 | 47.45785 | 11.58307 | 133° | 33km/h | 20744m | 4.6m/s | -56.3°C | 4.2% | 52.1hPa | 2.7V | 02:09:00 | 01:29:19 | 00:00:00 | |
| OE5MMP-10 | 2026-09-04 05:08:26 | 47.45790 | 11.58297 | 127° | 33km/h | 20739m | 6.0m/s | -56.3°C | 4.2% | 52.2hPa | 2.6V | 00:00:00 | 01:29:18 | 00:00:00 | |
| IN3HCDX | 2026-09-04 05:08:25 | 47.45790 | 11.58297 | 127° | 35km/h | 20739m | 6.1m/s | -56.4°C | 1.0% | 52.2hPa | 2.6V | 00:00:00 | 00:00:00 | 00:00:00 | |
| DO3MHA-11 | 2026-09-04 05:08:24 | 47.45800 | 11.58276 | 123° | 31km/h | 20728m | 5.3m/s | -56.4°C | 4.2% | 52.2hPa | 2.6V | 00:00:00 | 01:29:16 | 00:00:00 | |
| OM5KV | 2026-09-04 05:08:23 | 47.45800 | 11.58276 | 124° | 35km/h | 20728m | 5.4m/s | -56.4°C | 1.0% | 52.3hPa | 2.6V | 02:09:00 | 00:00:00 | 00:00:00 | |
| S52SK | 2026-09-04 05:08:22 | 47.45810 | 11.58256 | 130° | 33km/h | 20718m | 4.0m/s | 0°C | 0% | 0hPa | 2.6V | 00:00:00 | 00:00:00 | 00:00:00 | |
| DB0UT-7 | 2026-09-04 05:08:21 | 47.45815 | 11.58246 | 128° | 29km/h | 20714m | 5.0m/s | -56.5°C | 4.3% | 52.4hPa | 2.6V | 00:00:00 | 01:29:13 | 00:00:00 | |
| DG1MFX-10 | 2026-09-04 05:08:20 | 47.45815 | 11.58246 | 128° | 33km/h | 20714m | 5.0m/s | -56.5°C | 1.1% | 52.4hPa | 2.6V | 02:10:00 | 00:00:00 | 00:00:00 | |
| OE5WHR-10 | 2026-09-04 05:08:19 | 47.45824 | 11.58226 | 123° | 29km/h | 20704m | 4.5m/s | -56.8°C | 4.4% | 52.4hPa | 2.6V | 00:00:00 | 00:00:00 | 00:00:00 | |
| DF1GD-15 | 2026-09-04 05:08:18 | 47.45824 | 11.58226 | 124° | 31km/h | 20704m | 4.5m/s | -56.8°C | 1.1% | 52.5hPa | 2.6V | 02:10:00 | 00:00:00 | 00:00:00 | |
| DO3MHA-12 | 2026-09-04 05:08:17 | 47.45834 | 11.58208 | 132° | 31km/h | 20693m | 5.5m/s | -57.0°C | 4.6% | 52.5hPa | 2.6V | 00:00:00 | 01:29:09 | 00:00:00 | |
| OE5MMP-10 | 2026-09-04 05:08:16 | 47.45838 | 11.58200 | 131° | 31km/h | 20688m | 4.3m/s | -57.0°C | 4.5% | 52.6hPa | 2.6V | 02:09:00 | 01:29:08 | 00:00:00 | |
| OE3JTB-15 | 2026-09-04 05:08:15 | 47.45843 | 11.58191 | 128° | 27km/h | 20683m | 5.7m/s | -57.1°C | 4.6% | 52.6hPa | 2.6V | 00:00:00 | 00:00:00 | 00:00:00 | |
| DO3MHA-11 | 2026-09-04 05:08:14 | 47.45848 | 11.58183 | 127° | 31km/h | 20678m | 3.9m/s | -57.1°C | 4.6% | 52.6hPa | 2.6V | 02:09:00 | 01:29:06 | 00:00:00 | |
| PG1ADW-2 | 2026-09-04 05:08:13 | 47.45852 | 11.58174 | 129° | 29km/h | 20673m | 6.1m/s | -57.0°C | 4.5% | 52.7hPa | 2.7V | 00:00:00 | 01:29:05 | 00:00:00 | |
| OE5DRO-10 | 2026-09-04 05:08:12 | 47.45857 | 11.58165 | 129° | 29km/h | 20668m | 4.5m/s | -57.0°C | 4.5% | 52.7hPa | 2.7V | 02:09:00 | 00:00:00 | 00:00:00 | |
| NBG1-10 | 2026-09-04 05:08:11 | 47.45862 | 11.58156 | 123° | 27km/h | 20663m | 5.6m/s | -57.0°C | 4.5% | 52.8hPa | 2.7V | 00:00:00 | 01:29:03 | 00:00:00 | |
| DM0DOS-11 | 2026-09-04 05:08:10 | 47.45880 | 11.58101 | 118° | 31km/h | 20637m | 4.9m/s | -56.9°C | 4.6% | 53hPa | 2.7V | 02:09:39 | 01:28:58 | 00:00:00 | |
| DO3MHA-12 | 2026-09-04 05:08:07 | 47.45876 | 11.58111 | 118° | 27km/h | 20642m | 5.2m/s | -56.8°C | 4.5% | 53.0hPa | 2.6V | 00:00:00 | 01:28:59 | 00:00:00 | |
| OM5KV | 2026-09-04 05:08:06 | 47.45880 | 11.58101 | 120° | 31km/h | 20637m | 4.9m/s | -56.9°C | 1.1% | 53.1hPa | 2.6V | 00:00:00 | 00:00:00 | 00:00:00 | |
| DO3MHA-11 | 2026-09-04 05:08:04 | 47.45886 | 11.58081 | 113° | 27km/h | 20626m | 5.4m/s | -56.8°C | 4.6% | 53.1hPa | 2.6V | 00:00:00 | 01:28:56 | 00:00:00 | |
| BAUMI2-15 | 2026-09-04 05:08:01 | 47.45894 | 11.58054 | 116° | 18km/h | 20610m | 4.5m/s | -56.7°C | 4.6% | 53.2hPa | 2.6V | 02:09:00 | 01:28:53 | 00:00:00 | |
| OM5KV | 2026-09-04 05:08:00 | 47.45897 | 11.58046 | 112° | 24km/h | 20605m | 5.5m/s | -56.7°C | 1.1% | 53.3hPa | 2.7V | 00:00:00 | 00:00:00 | 00:00:00 | |
| DG1MFX-10 | 2026-09-04 05:07:59 | 47.45897 | 11.58046 | 112° | 24km/h | 20605m | 5.5m/s | -56.7°C | 1.1% | 53.3hPa | 2.7V | 02:10:00 | 00:00:00 | 00:00:00 | |
| OE5WHR-10 | 2026-09-04 05:07:58 | 47.45900 | 11.58028 | 106° | 26km/h | 20594m | 4.5m/s | -56.5°C | 4.3% | 53.3hPa | 2.7V | 00:00:00 | 01:28:50 | 00:00:00 | |
| DO3MHA-12 | 2026-09-04 05:07:57 | 47.45902 | 11.58018 | 110° | 27km/h | 20589m | 6.2m/s | -56.5°C | 4.4% | 53.4hPa | 2.7V | 02:09:00 | 01:28:49 | 00:00:00 | |
| OE5MMP-10 | 2026-09-04 05:07:56 | 47.45904 | 11.58008 | 110° | 26km/h | 20583m | 4.3m/s | -56.5°C | 4.3% | 53.4hPa | 2.7V | 00:00:00 | 01:28:48 | 00:00:00 | |
| DM0DOS-11 | 2026-09-04 05:07:54 | 47.45917 | 11.57948 | 101° | 24km/h | 20550m | 6.3m/s | -56.3°C | 4.3% | 53.8hPa | 2.7V | 02:09:55 | 01:28:42 | 00:00:00 | |
| DL1ZP-14 | 2026-09-04 05:07:50 | 47.45917 | 11.57948 | 101° | 24km/h | 20550m | 6.3m/s | -56.3°C | 1.0% | 53.8hPa | 2.7V | 00:00:00 | 00:00:00 | 00:00:00 | |
| DB0ND-19 | 2026-09-04 05:07:45 | 47.45920 | 11.57908 | 100° | 22km/h | 20522m | 6.2m/s | -56.5°C | 1.0% | 54.0hPa | 2.7V | 00:00:00 | 00:00:00 | 00:00:00 | |
| DO3MHA-11 | 2026-09-04 05:07:44 | 47.45921 | 11.57899 | 99° | 26km/h | 20517m | 5.8m/s | -56.6°C | 4.4% | 54.0hPa | 2.7V | 02:10:00 | 01:28:36 | 00:00:00 | |
| DB0NH | 2026-09-04 05:07:43 | 47.45923 | 11.57890 | 103° | 22km/h | 20511m | 5.5m/s | -56.6°C | 4.4% | 54.1hPa | 2.7V | 00:00:00 | 01:28:35 | 00:00:00 | |
| OM5KV | 2026-09-04 05:07:41 | 47.45924 | 11.57880 | 108° | 27km/h | 20505m | 6.5m/s | -56.7°C | 0% | 0hPa | 2.7V | 00:00:00 | 00:00:00 | 00:00:00 | |
| OM5KV | 2026-09-04 05:07:40 | 47.45927 | 11.57871 | 110° | 27km/h | 20500m | 4.5m/s | -56.7°C | 0% | 0hPa | 2.7V | 00:00:00 | 00:00:00 | 00:00:00 | |
| DM0DOS-11 | 2026-09-04 05:07:39 | 47.45931 | 11.57841 | 96° | 26km/h | 20484m | 4.5m/s | -56.7°C | 4.4% | 54.3hPa | 2.7V | 02:10:07 | 01:28:30 | 00:00:00 | |
| NBG1-10 | 2026-09-04 05:07:38 | 47.45931 | 11.57841 | 97° | 20km/h | 20484m | 4.5m/s | -56.7°C | 4.4% | 54.3hPa | 2.6V | 00:00:00 | 01:28:30 | 00:00:00 | |
| DO3MHA-12 | 2026-09-04 05:07:37 | 47.45932 | 11.57832 | 99° | 20km/h | 20479m | 6.1m/s | -56.7°C | 4.4% | 54.3hPa | 2.6V | 00:00:00 | 01:28:29 | 00:00:00 | |
| OE5MMP-10 | 2026-09-04 05:07:36 | 47.45933 | 11.57825 | 102° | 20km/h | 20473m | 5.8m/s | -56.7°C | 4.5% | 54.4hPa | 2.6V | 00:00:00 | 01:28:28 | 00:00:00 | |
| DO3MHA-11 | 2026-09-04 05:07:34 | 47.45934 | 11.57810 | 93° | 22km/h | 20462m | 6.2m/s | -56.6°C | 4.5% | 54.5hPa | 2.6V | 00:00:00 | 01:28:26 | 00:00:00 | |
| DM0DOS-11 | 2026-09-04 05:07:33 | 47.45929 | 11.57765 | 69° | 22km/h | 20429m | 6.5m/s | -56.4°C | 4.4% | 54.8hPa | 2.6V | 02:10:17 | 01:28:20 | 00:00:00 | |
| PG1ADW-2 | 2026-09-04 05:07:33 | 47.45934 | 11.57803 | 83° | 22km/h | 20456m | 5.5m/s | -56.6°C | 4.5% | 54.5hPa | 2.7V | 00:00:00 | 00:00:00 | 00:00:00 | |
| DK5PH-5 | 2026-09-04 05:07:30 | 47.45931 | 11.57780 | 81° | 20km/h | 20440m | 4.8m/s | -56.4°C | 4.5% | 54.7hPa | 2.7V | 02:10:00 | 01:28:22 | 00:00:00 | |
| DO3MHA-12 | 2026-09-04 05:07:27 | 47.45926 | 11.57756 | 62° | 20km/h | 20424m | 5.3m/s | -56.4°C | 4.5% | 54.8hPa | 2.6V | 02:10:00 | 01:28:19 | 00:00:00 | |
| OE5MMP-10 | 2026-09-04 05:07:26 | 47.45923 | 11.57749 | 58° | 20km/h | 20419m | 5.1m/s | -56.4°C | 4.5% | 54.9hPa | 2.6V | 00:00:00 | 01:28:18 | 00:00:00 | |
| DO3MHA-11 | 2026-09-04 05:07:24 | 47.45918 | 11.57735 | 64° | 20km/h | 20407m | 5.6m/s | -56.3°C | 4.4% | 54.9hPa | 2.6V | 00:00:00 | 01:28:16 | 00:00:00 | |
| DG1MJG | 2026-09-04 05:07:23 | 47.45918 | 11.57735 | 65° | 18km/h | 20407m | 5.6m/s | -56.3°C | 1.0% | 55.0hPa | 2.6V | 02:11:00 | 00:00:00 | 00:00:00 | |
| DB0UT-7 | 2026-09-04 05:07:21 | 47.45912 | 11.57717 | 65° | 18km/h | 20391m | 4.1m/s | -56.2°C | 4.4% | 55.1hPa | 2.6V | 02:10:00 | 01:28:13 | 00:00:00 | |
| DM0DOS-11 | 2026-09-04 05:07:19 | 47.45907 | 11.57695 | 74° | 24km/h | 20375m | 5.3m/s | -56.1°C | 4.3% | 55.3hPa | 2.6V | 02:10:27 | 01:28:10 | 00:00:00 | |
| DL1ZP-14 | 2026-09-04 05:07:19 | 47.45909 | 11.57703 | 78° | 20km/h | 20380m | 4.8m/s | -56.3°C | 1.0% | 55.2hPa | 2.6V | 00:00:00 | 00:00:00 | 00:00:00 | |
| IW2NTF | 2026-09-04 05:07:18 | 47.45895 | 11.57657 | 58° | 18km/h | 20349m | 4.8m/s | 0°C | 0% | 0hPa | 2.6V | 00:00:00 | 01:28:05 | 00:00:00 | |
| DG1MFX-10 | 2026-09-04 05:07:18 | 47.45909 | 11.57703 | 79° | 22km/h | 20380m | 4.8m/s | -56.3°C | 1.1% | 55.2hPa | 2.7V | 00:00:00 | 00:00:00 | 00:00:00 | |
| DO3MHA-12 | 2026-09-04 05:07:17 | 47.45905 | 11.57687 | 69° | 18km/h | 20370m | 5.7m/s | -56.0°C | 4.3% | 55.3hPa | 2.7V | 00:00:00 | 01:28:09 | 00:00:00 | |
| OE5WHR-10 | 2026-09-04 05:07:16 | 47.45903 | 11.57679 | 63° | 18km/h | 20365m | 4.0m/s | -55.9°C | 4.3% | 55.3hPa | 2.7V | 00:00:00 | 00:00:00 | 00:00:00 | |
| OE5DRO-10 | 2026-09-04 05:07:15 | 47.45900 | 11.57671 | 62° | 18km/h | 20360m | 5.4m/s | -55.9°C | 4.3% | 55.3hPa | 2.7V | 02:10:00 | 00:00:00 | 00:00:00 | |
| DO3MHA-11 | 2026-09-04 05:07:14 | 47.45897 | 11.57664 | 63° | 16km/h | 20355m | 5.8m/s | -55.9°C | 4.3% | 55.4hPa | 2.6V | 02:10:00 | 01:28:06 | 00:00:00 | |
| PG1ADW-2 | 2026-09-04 05:07:13 | 47.45895 | 11.57657 | 59° | 16km/h | 20349m | 4.7m/s | -55.8°C | 4.3% | 55.4hPa | 2.7V | 00:00:00 | 00:00:00 | 00:00:00 | |
| OM5KV | 2026-09-04 05:07:11 | 47.45893 | 11.57652 | 54° | 16km/h | 20344m | 6.2m/s | -55.8°C | 1.0% | 55.6hPa | 2.7V | 02:11:00 | 00:00:00 | 00:00:00 | |
| OM5KV | 2026-09-04 05:07:10 | 47.45890 | 11.57647 | 47° | 16km/h | 20338m | 5.3m/s | -55.8°C | 0% | 0hPa | 2.7V | 02:11:00 | 00:00:00 | 00:00:00 | |
| DM0DOS-11 | 2026-09-04 05:07:09 | 47.45884 | 11.57634 | 72° | 15km/h | 20322m | 5.2m/s | -55.6°C | 4.2% | 55.7hPa | 2.7V | 02:10:37 | 01:28:00 | 00:00:00 | |
| DL6DJ-15 | 2026-09-04 05:07:09 | 47.45883 | 11.57634 | 72° | 13km/h | 20322m | 5.2m/s | -55.7°C | 1.0% | 55.7hPa | 2.6V | 00:00:00 | 00:00:00 | 00:00:00 | |
| DO3MHA-12 | 2026-09-04 05:07:07 | 47.45882 | 11.57628 | 78° | 18km/h | 20317m | 4.9m/s | -55.6°C | 4.2% | 55.8hPa | 2.6V | 00:00:00 | 01:27:59 | 00:00:00 | |
| OE5MMP-10 | 2026-09-04 05:07:06 | 47.45881 | 11.57622 | 74° | 18km/h | 20311m | 6.4m/s | -55.5°C | 4.2% | 55.8hPa | 2.6V | 00:00:00 | 01:27:58 | 00:00:00 | |
| NBG1-10 | 2026-09-04 05:07:05 | 47.45880 | 11.57616 | 74° | 15km/h | 20305m | 4.8m/s | -55.5°C | 4.2% | 55.8hPa | 2.6V | 02:10:00 | 01:27:57 | 00:00:00 | |
| DO3MHA-11 | 2026-09-04 05:07:04 | 47.45879 | 11.57608 | 79° | 16km/h | 20300m | 6.5m/s | -55.5°C | 4.2% | 55.9hPa | 2.6V | 00:00:00 | 01:27:56 | 00:00:00 | |
| IN3HCDX | 2026-09-04 05:07:02 | 47.45878 | 11.57601 | 79° | 20km/h | 20294m | 4.4m/s | -55.5°C | 1.0% | 56.0hPa | 2.6V | 00:00:00 | 00:00:00 | 00:00:00 | |
| DM0DOS-11 | 2026-09-04 05:06:59 | 47.45867 | 11.57573 | 50° | 13km/h | 20270m | 5.4m/s | -55.6°C | 4.3% | 56.2hPa | 2.6V | 02:10:47 | 01:27:50 | 00:00:00 | |
| DO3MHA-12 | 2026-09-04 05:06:57 | 47.45865 | 11.57569 | 60° | 15km/h | 20265m | 4.8m/s | -55.6°C | 4.3% | 56.2hPa | 2.6V | 02:10:00 | 01:27:49 | 00:00:00 | |
| OE5MMP-10 | 2026-09-04 05:06:56 | 47.45863 | 11.57564 | 62° | 15km/h | 20260m | 5.1m/s | -55.6°C | 4.2% | 56.2hPa | 2.7V | 00:00:00 | 01:27:48 | 00:00:00 | |
| OE5WHR-10 | 2026-09-04 05:06:55 | 47.45861 | 11.57560 | 61° | 15km/h | 20254m | 6.4m/s | -55.7°C | 4.3% | 56.3hPa | 2.7V | 00:00:00 | 01:27:47 | 00:00:00 | |
| DM0DOS-11 | 2026-09-04 05:06:54 | 47.45854 | 11.57523 | 72° | 13km/h | 20217m | 4.4m/s | -55.6°C | 4.2% | 56.6hPa | 2.7V | 02:10:57 | 01:27:40 | 00:00:00 | |
| PG1ADW-2 | 2026-09-04 05:06:53 | 47.45857 | 11.57548 | 66° | 13km/h | 20244m | 4.4m/s | -55.7°C | 4.3% | 56.4hPa | 2.6V | 02:10:00 | 01:27:45 | 00:00:00 | |
| OE5DXL-15 | 2026-09-04 05:06:51 | 47.45855 | 11.57537 | 85° | 11km/h | 20234m | 4.5m/s | -55.6°C | 4.3% | 56.5hPa | 2.6V | 00:00:00 | 00:00:00 | 00:00:00 | |
| OE3JTB-15 | 2026-09-04 05:06:48 | 47.45853 | 11.57523 | 73° | 11km/h | 20218m | 4.4m/s | -55.6°C | 4.2% | 56.6hPa | 2.6V | 00:00:00 | 00:00:00 | 00:00:00 | |
| DO3MHA-12 | 2026-09-04 05:06:47 | 47.45853 | 11.57518 | 74° | 15km/h | 20213m | 4.1m/s | -55.6°C | 4.2% | 56.7hPa | 2.6V | 00:00:00 | 01:27:39 | 00:00:00 | |
| OE5MMP-10 | 2026-09-04 05:06:46 | 47.45852 | 11.57513 | 85° | 15km/h | 20208m | 5.7m/s | -55.6°C | 4.2% | 56.7hPa | 2.6V | 02:10:00 | 01:27:38 | 00:00:00 | |
| DO3MHA-11 | 2026-09-04 05:06:44 | 47.45852 | 11.57502 | 97° | 13km/h | 20198m | 4.5m/s | -55.5°C | 4.1% | 56.8hPa | 2.6V | 02:11:00 | 01:27:36 | 00:00:00 | |
| DM0DOS-11 | 2026-09-04 05:06:43 | 47.45855 | 11.57466 | 95° | 9km/h | 20169m | 5.1m/s | -55.5°C | 4.3% | 57.1hPa | 2.6V | 02:11:07 | 01:27:30 | 00:00:00 | |
| DB0NH | 2026-09-04 05:06:43 | 47.45853 | 11.57495 | 94° | 11km/h | 20193m | 5.5m/s | -55.5°C | 4.2% | 56.8hPa | 2.6V | 02:11:00 | 01:27:35 | 00:00:00 | |
| OM5KV | 2026-09-04 05:06:41 | 47.45853 | 11.57488 | 91° | 18km/h | 20188m | 4.6m/s | 0°C | 0% | 56.9hPa | 2.7V | 02:11:00 | 00:00:00 | 00:00:00 | |
| OM5KV | 2026-09-04 05:06:40 | 47.45853 | 11.57482 | 93° | 18km/h | 20184m | 4.3m/s | 0°C | 0% | 0hPa | 2.7V | 02:11:00 | 00:00:00 | 00:00:00 | |
| DL6DJ-15 | 2026-09-04 05:06:38 | 47.45854 | 11.57463 | 77° | 7km/h | 20163m | 5.6m/s | -55.4°C | 1.0% | 57.1hPa | 2.7V | 00:00:00 | 00:00:00 | 00:00:00 | |
| DO3MHA-12 | 2026-09-04 05:06:37 | 47.45854 | 11.57463 | 78° | 5km/h | 20164m | 5.6m/s | -55.4°C | 4.3% | 57.1hPa | 2.7V | 00:00:00 | 01:27:29 | 00:00:00 | |
| OE5MMP-10 | 2026-09-04 05:06:36 | 47.45854 | 11.57460 | 68° | 7km/h | 20159m | 4.5m/s | -55.3°C | 4.3% | 57.1hPa | 2.7V | 00:00:00 | 01:27:28 | 00:00:00 | |
| DF1GD-15 | 2026-09-04 05:06:35 | 47.45854 | 11.57460 | 68° | 7km/h | 20159m | 4.6m/s | -55.4°C | 1.0% | 57.2hPa | 2.7V | 02:11:00 | 00:00:00 | 00:00:00 | |
| DO3MHA-11 | 2026-09-04 05:06:34 | 47.45853 | 11.57456 | 99° | 7km/h | 20148m | 4.8m/s | -55.3°C | 4.2% | 57.2hPa | 2.7V | 00:00:00 | 01:27:26 | 00:00:00 | |
| DM0DOS-11 | 2026-09-04 05:06:33 | 47.45854 | 11.57443 | 98° | 9km/h | 20115m | 5.6m/s | -55.2°C | 4.1% | 57.6hPa | 2.7V | 02:11:17 | 01:27:20 | 00:00:00 | |
| PG1ADW-2 | 2026-09-04 05:06:33 | 47.45853 | 11.57455 | 88° | 9km/h | 20142m | 5.5m/s | -55.3°C | 4.2% | 57.3hPa | 2.7V | 00:00:00 | 00:00:00 | 00:00:00 | |
| NBG1-10 | 2026-09-04 05:06:32 | 47.45853 | 11.57453 | 79° | 9km/h | 20137m | 5.7m/s | -55.4°C | 4.2% | 57.3hPa | 2.7V | 00:00:00 | 01:27:24 | 00:00:00 | |
| DK5PH-5 | 2026-09-04 05:06:30 | 47.45853 | 11.57449 | 105° | 9km/h | 20127m | 6.1m/s | -55.3°C | 4.1% | 57.4hPa | 2.7V | 00:00:00 | 01:27:22 | 00:00:00 | |
| DO3MHA-12 | 2026-09-04 05:06:27 | 47.45854 | 11.57439 | 83° | 11km/h | 20110m | 5.3m/s | -55.1°C | 4.1% | 57.6hPa | 2.7V | 02:11:00 | 01:27:19 | 00:00:00 | |
| OE5MMP-10 | 2026-09-04 05:06:26 | 47.45853 | 11.57435 | 78° | 11km/h | 20105m | 4.7m/s | -55.1°C | 4.1% | 57.6hPa | 2.7V | 00:00:00 | 01:27:18 | 00:00:00 | |
| DO3MHA-11 | 2026-09-04 05:06:24 | 47.45852 | 11.57428 | 74° | 11km/h | 20095m | 4.1m/s | -55.0°C | 4.2% | 57.7hPa | 2.7V | 00:00:00 | 01:27:16 | 00:00:00 | |
| DG1MJG | 2026-09-04 05:06:22 | 47.45851 | 11.57424 | 63° | 11km/h | 20090m | 5.5m/s | -55.0°C | 1.0% | 57.8hPa | 2.7V | 02:11:00 | 00:00:00 | 00:00:00 | |
| OE5DXL-15 | 2026-09-04 05:06:21 | 47.45847 | 11.57416 | 49° | 11km/h | 20079m | 4.5m/s | -55.0°C | 4.2% | 57.9hPa | 2.7V | 02:11:00 | 00:00:00 | 00:00:00 | |
| IN3HCDX | 2026-09-04 05:06:20 | 47.45847 | 11.57416 | 49° | 15km/h | 20079m | 4.5m/s | -55.0°C | 1.0% | 57.9hPa | 2.6V | 02:11:00 | 00:00:00 | 00:00:00 | |
| OE3JTB-15 | 2026-09-04 05:06:19 | 47.45843 | 11.57409 | 64° | 11km/h | 20069m | 5.4m/s | -54.9°C | 4.1% | 58.0hPa | 2.6V | 00:00:00 | 01:27:11 | 00:00:00 | |
| DM0DOS-11 | 2026-09-04 05:06:18 | 47.45841 | 11.57398 | 72° | 9km/h | 20053m | 5.3m/s | -54.9°C | 4% | 58.1hPa | 2.6V | 02:11:29 | 01:27:08 | 00:00:00 | |
| OE5DRO-10 | 2026-09-04 05:06:18 | 47.45842 | 11.57405 | 76° | 9km/h | 20064m | 4.2m/s | -54.9°C | 4.1% | 58.0hPa | 2.6V | 02:11:00 | 00:00:00 | 00:00:00 | |
| DO3MHA-12 | 2026-09-04 05:06:17 | 47.45842 | 11.57402 | 74° | 9km/h | 20059m | 5.7m/s | -54.8°C | 4.0% | 58.1hPa | 2.6V | 00:00:00 | 01:27:09 | 00:00:00 | |
| OE5MMP-10 | 2026-09-04 05:06:16 | 47.45841 | 11.57398 | 73° | 9km/h | 20053m | 5.2m/s | -54.8°C | 4.0% | 58.1hPa | 2.6V | 02:11:00 | 01:27:08 | 00:00:00 | |
| DO3MHA-11 | 2026-09-04 05:06:14 | 47.45840 | 11.57391 | 93° | 9km/h | 20043m | 6.3m/s | -54.8°C | 4.0% | 58.2hPa | 2.7V | 02:11:00 | 01:27:06 | 00:00:00 | |
| DB0NH | 2026-09-04 05:06:13 | 47.45841 | 11.57387 | 99° | 26km/h | 20038m | 4.4m/s | -54.8°C | 4.0% | 58.2hPa | 2.7V | 00:00:00 | 01:27:05 | 00:00:00 | |
| PG1ADW-2 | 2026-09-04 05:06:12 | 47.45841 | 11.57384 | 89° | 9km/h | 20033m | 5.9m/s | -54.8°C | 4.1% | 58.3hPa | 2.7V | 00:00:00 | 00:00:00 | 00:00:00 | |
| S52SK | 2026-09-04 05:06:11 | 47.45841 | 11.57384 | 90° | 9km/h | 20033m | 5.9m/s | 0°C | 0% | 0hPa | 2.7V | 00:00:00 | 00:00:00 | 00:00:00 | |
| OM5KV | 2026-09-04 05:06:10 | 47.45841 | 11.57381 | 76° | 7km/h | 20027m | 5.1m/s | 0°C | 0% | 0hPa | 2.7V | 00:00:00 | 00:00:00 | 00:00:00 | |
| DF3TZ-5 | 2026-09-04 05:06:09 | 47.45840 | 11.57376 | 81° | 5km/h | 20017m | 5.5m/s | -55.0°C | 1.0% | 58.5hPa | 2.7V | 00:00:00 | 00:00:00 | 00:00:00 | |
| DM0DOS-11 | 2026-09-04 05:06:08 | 47.45837 | 11.57367 | 56° | 9km/h | 20001m | 4.3m/s | -55°C | 4% | 58.6hPa | 2.7V | 02:11:39 | 01:26:58 | 00:00:00 | |
| DO3MHA-12 | 2026-09-04 05:06:07 | 47.45838 | 11.57370 | 59° | 11km/h | 20006m | 5.7m/s | -54.9°C | 4.0% | 58.5hPa | 2.7V | 00:00:00 | 01:26:59 | 00:00:00 | |
| OE5MMP-10 | 2026-09-04 05:06:06 | 47.45837 | 11.57367 | 57° | 11km/h | 20001m | 4.3m/s | -54.9°C | 4.0% | 58.6hPa | 2.7V | 00:00:00 | 01:26:58 | 00:00:00 | |
| DO3MHA-11 | 2026-09-04 05:06:04 | 47.45836 | 11.57360 | 91° | 11km/h | 19991m | 5.4m/s | -55.0°C | 4.1% | 58.7hPa | 2.7V | 00:00:00 | 01:26:56 | 00:00:00 | |
| DK5PH-5 | 2026-09-04 05:06:00 | 47.45839 | 11.57347 | 133° | 15km/h | 19969m | 5.9m/s | -55.3°C | 4.2% | 58.9hPa | 2.7V | 02:11:00 | 01:26:52 | 00:00:00 | |
| NBG1-10 | 2026-09-04 05:05:59 | 47.45841 | 11.57344 | 143° | 15km/h | 19963m | 5.4m/s | -55.3°C | 4.1% | 58.9hPa | 2.6V | 00:00:00 | 01:26:51 | 00:00:00 | |
| DM0DOS-11 | 2026-09-04 05:05:58 | 47.45848 | 11.57337 | 143° | 9km/h | 19948m | 4.2m/s | -55.3°C | 4.1% | 59.1hPa | 2.6V | 02:11:49 | 01:26:48 | 00:00:00 | |
| DO3MHA-12 | 2026-09-04 05:05:57 | 47.45846 | 11.57339 | 152° | 11km/h | 19953m | 5.7m/s | -55.3°C | 4.2% | 59.0hPa | 2.6V | 02:11:00 | 01:26:49 | 00:00:00 | |
| OE5MMP-10 | 2026-09-04 05:05:56 | 47.45849 | 11.57337 | 144° | 11km/h | 19949m | 4.2m/s | -55.2°C | 4.1% | 59.1hPa | 2.6V | 00:00:00 | 01:26:48 | 00:00:00 | |
| DO3MHA-11 | 2026-09-04 05:05:54 | 47.45852 | 11.57331 | 115° | 11km/h | 19938m | 5.4m/s | -55.2°C | 4.2% | 59.1hPa | 2.6V | 00:00:00 | 01:26:46 | 00:00:00 | |
| DF1GD-15 | 2026-09-04 05:05:53 | 47.45852 | 11.57331 | 115° | 13km/h | 19938m | 5.4m/s | -55.3°C | 1.0% | 59.2hPa | 2.6V | 02:11:00 | 00:00:00 | 00:00:00 | |
| OE5WHR-10 | 2026-09-04 05:05:52 | 47.45853 | 11.57322 | 92° | 15km/h | 19929m | 5.4m/s | -55.2°C | 4.1% | 59.3hPa | 2.6V | 00:00:00 | 01:26:44 | 00:00:00 | |
| OE5DXL-15 | 2026-09-04 05:05:51 | 47.45853 | 11.57317 | 82° | 15km/h | 19924m | 5.5m/s | -55.2°C | 4.1% | 59.3hPa | 2.6V | 00:00:00 | 00:00:00 | 00:00:00 | |
| OE3JTB-15 | 2026-09-04 05:05:50 | 47.45853 | 11.57313 | 84° | 15km/h | 19919m | 4.6m/s | -55.2°C | 4.2% | 59.3hPa | 2.6V | 02:11:00 | 00:00:00 | 00:00:00 | |
| DM0DOS-11 | 2026-09-04 05:05:48 | 47.45853 | 11.57297 | 98° | 9km/h | 19897m | 4.4m/s | 0°C | 0% | 0hPa | 2.7V | 02:11:59 | 01:26:38 | 00:00:00 | |
| DL1ZP-14 | 2026-09-04 05:05:46 | 47.45854 | 11.57293 | 103° | 9km/h | 19893m | 5.1m/s | -55.5°C | 1.0% | 59.6hPa | 2.7V | 00:00:00 | 00:00:00 | 00:00:00 | |
| DO3MHA-11 | 2026-09-04 05:05:44 | 47.45855 | 11.57289 | 107° | 18km/h | 19887m | 6.2m/s | -55.5°C | 4.3% | 59.6hPa | 2.7V | 02:12:00 | 01:26:36 | 00:00:00 | |
| BAUMI2-15 | 2026-09-04 05:05:42 | 47.45856 | 11.57277 | 101° | 20km/h | 19878m | 5.1m/s | -55.5°C | 4.3% | 59.7hPa | 2.6V | 02:12:00 | 01:26:34 | 00:00:00 | |
| DB0ND-19 | 2026-09-04 05:05:41 | 47.45857 | 11.57271 | 94° | 16km/h | 19872m | 5.4m/s | -55.5°C | 1.0% | 59.8hPa | 2.6V | 00:00:00 | 00:00:00 | 00:00:00 | |
| OE5DRO-10 | 2026-09-04 05:05:40 | 47.45857 | 11.57264 | 90° | 16km/h | 19867m | 4.8m/s | -55.5°C | 4.3% | 59.8hPa | 2.6V | 00:00:00 | 00:00:00 | 00:00:00 | |
| DM0DOS-11 | 2026-09-04 05:05:38 | 47.45855 | 11.57233 | 72° | 16km/h | 19846m | 5.2m/s | 0°C | 0% | 0hPa | 2.6V | 02:12:09 | 01:26:28 | 00:00:00 | |
| DO3MHA-12 | 2026-09-04 05:05:37 | 47.45856 | 11.57240 | 81° | 15km/h | 19852m | 6.0m/s | -55.4°C | 4.3% | 60.0hPa | 2.7V | 00:00:00 | 01:26:29 | 00:00:00 | |
| OE5MMP-10 | 2026-09-04 05:05:36 | 47.45855 | 11.57233 | 73° | 15km/h | 19846m | 5.2m/s | -55.4°C | 4.2% | 60.0hPa | 2.7V | 00:00:00 | 01:26:28 | 00:00:00 | |
| DL6DJ-15 | 2026-09-04 05:05:35 | 47.45854 | 11.57228 | 69° | 15km/h | 19841m | 4.3m/s | -55.4°C | 1.0% | 60.1hPa | 2.7V | 00:00:00 | 00:00:00 | 00:00:00 | |
| DO3MHA-11 | 2026-09-04 05:05:34 | 47.45853 | 11.57222 | 72° | 15km/h | 19836m | 5.5m/s | -55.3°C | 4.1% | 60.1hPa | 2.7V | 00:00:00 | 01:26:26 | 00:00:00 | |
| DF1GD-15 | 2026-09-04 05:05:33 | 47.45853 | 11.57222 | 72° | 15km/h | 19836m | 5.5m/s | -55.4°C | 1.0% | 60.2hPa | 2.7V | 02:12:00 | 00:00:00 | 00:00:00 | |
| BAUMI2-15 | 2026-09-04 05:05:32 | 47.45851 | 11.57211 | 80° | 13km/h | 19827m | 4.2m/s | -55.2°C | 4.1% | 60.2hPa | 2.7V | 00:00:00 | 01:26:24 | 00:00:00 | |
| OE5WHR-10 | 2026-09-04 05:05:31 | 47.45850 | 11.57206 | 80° | 11km/h | 19822m | 5.8m/s | -55.2°C | 4.1% | 60.2hPa | 2.7V | 02:12:00 | 00:00:00 | 00:00:00 | |
| DK5PH-5 | 2026-09-04 05:05:30 | 47.45850 | 11.57202 | 86° | 11km/h | 19817m | 4.8m/s | -55.1°C | 4.2% | 60.3hPa | 2.6V | 00:00:00 | 01:26:22 | 00:00:00 | |
| DM0DOS-11 | 2026-09-04 05:05:28 | 47.45853 | 11.57183 | 120° | 15km/h | 19796m | 6m/s | 0°C | 0% | 0hPa | 2.6V | 02:12:19 | 01:26:18 | 00:00:00 | |
| DO3MHA-12 | 2026-09-04 05:05:27 | 47.45852 | 11.57188 | 115° | 11km/h | 19801m | 4.2m/s | -55.1°C | 4.2% | 60.5hPa | 2.6V | 02:12:00 | 01:26:19 | 00:00:00 | |
| OE5MMP-10 | 2026-09-04 05:05:26 | 47.45853 | 11.57183 | 121° | 11km/h | 19796m | 5.9m/s | -55.1°C | 4.3% | 60.5hPa | 2.7V | 00:00:00 | 01:26:18 | 00:00:00 | |
| DO3MHA-11 | 2026-09-04 05:05:24 | 47.45857 | 11.57174 | 122° | 9km/h | 19785m | 6.0m/s | -55.1°C | 4.3% | 60.6hPa | 2.7V | 00:00:00 | 01:26:16 | 00:00:00 | |
| BAUMI2-15 | 2026-09-04 05:05:22 | 47.45861 | 11.57165 | 115° | 7km/h | 19776m | 3.6m/s | -55.1°C | 4.2% | 60.7hPa | 2.7V | 00:00:00 | 01:26:14 | 00:00:00 | |
| OE5DXL-15 | 2026-09-04 05:05:21 | 47.45862 | 11.57161 | 111° | 15km/h | 19771m | 5.9m/s | -55.1°C | 4.1% | 60.7hPa | 2.7V | 00:00:00 | 00:00:00 | 00:00:00 | |
| DG1MJG | 2026-09-04 05:05:20 | 47.45862 | 11.57161 | 111° | 9km/h | 19771m | 5.9m/s | -55.1°C | 1.0% | 60.8hPa | 2.7V | 02:12:00 | 00:00:00 | 00:00:00 | |
| DM0DOS-11 | 2026-09-04 05:05:18 | 47.45859 | 11.57149 | 59° | 7km/h | 19746m | 5.5m/s | 0°C | 0% | 0hPa | 2.7V | 02:12:29 | 01:26:08 | 00:00:00 | |
| DO3MHA-12 | 2026-09-04 05:05:17 | 47.45860 | 11.57152 | 62° | 11km/h | 19751m | 4.7m/s | -54.9°C | 4.0% | 60.9hPa | 2.7V | 00:00:00 | 01:26:09 | 00:00:00 | |
| OE5MMP-10 | 2026-09-04 05:05:16 | 47.45859 | 11.57149 | 60° | 13km/h | 19746m | 5.4m/s | -54.9°C | 4.1% | 61.0hPa | 2.7V | 02:12:00 | 01:26:08 | 00:00:00 | |
| DL1ZP-14 | 2026-09-04 05:05:15 | 47.45858 | 11.57144 | 98° | 7km/h | 19737m | 3.5m/s | -54.9°C | 1.0% | 61.1hPa | 2.6V | 00:00:00 | 00:00:00 | 00:00:00 | |
| DO3MHA-11 | 2026-09-04 05:05:14 | 47.45858 | 11.57143 | 99° | 13km/h | 19737m | 3.4m/s | -54.9°C | 4.1% | 61.1hPa | 2.6V | 02:12:00 | 01:26:06 | 00:00:00 | |
| DF1GD-15 | 2026-09-04 05:05:13 | 47.45858 | 11.57144 | 100° | 7km/h | 19737m | 3.5m/s | -54.9°C | 1.0% | 61.1hPa | 2.6V | 02:12:00 | 00:00:00 | 00:00:00 | |
| BAUMI2-15 | 2026-09-04 05:05:12 | 47.45860 | 11.57136 | 129° | 15km/h | 19727m | 4.4m/s | -54.8°C | 4.1% | 61.2hPa | 2.6V | 02:12:00 | 01:26:04 | 00:00:00 | |
| OE5WHR-10 | 2026-09-04 05:05:10 | 47.45866 | 11.57129 | 150° | 18km/h | 19717m | 4.9m/s | -54.8°C | 4.0% | 61.3hPa | 2.6V | 00:00:00 | 00:00:00 | 00:00:00 | |
| DM0DOS-11 | 2026-09-04 05:05:08 | 47.45879 | 11.57118 | 144° | 13km/h | 19697m | 3.7m/s | 0°C | 0% | 0hPa | 2.6V | 02:12:39 | 01:25:58 | 00:00:00 | |
| DO3MHA-12 | 2026-09-04 05:05:07 | 47.45876 | 11.57121 | 144° | 13km/h | 19702m | 5.1m/s | -54.8°C | 4.0% | 61.4hPa | 2.6V | 00:00:00 | 01:25:59 | 00:00:00 | |
| OE5MMP-10 | 2026-09-04 05:05:06 | 47.45879 | 11.57118 | 145° | 13km/h | 19698m | 3.7m/s | -54.8°C | 4.0% | 61.4hPa | 2.6V | 00:00:00 | 01:25:58 | 00:00:00 | |
| DO3MHA-11 | 2026-09-04 05:05:04 | 47.45884 | 11.57113 | 153° | 16km/h | 19687m | 4.5m/s | -54.8°C | 4.0% | 61.5hPa | 2.6V | 00:00:00 | 01:25:56 | 00:00:00 | |
| BAUMI2-15 | 2026-09-04 05:05:02 | 47.45888 | 11.57108 | 134° | 13km/h | 19677m | 4.3m/s | -54.9°C | 3.9% | 61.6hPa | 2.6V | 00:00:00 | 01:25:54 | 00:00:00 | |
| DK5PH-5 | 2026-09-04 05:05:00 | 47.45892 | 11.57104 | 152° | 22km/h | 19668m | 5.6m/s | -55.2°C | 4.1% | 61.7hPa | 2.6V | 00:00:00 | 01:25:52 | 00:00:00 | |
| DM0DOS-11 | 2026-09-04 05:04:58 | 47.45909 | 11.57094 | 156° | 26km/h | 19648m | 4.8m/s | 0°C | 0% | 0hPa | 2.6V | 02:12:49 | 01:25:48 | 00:00:00 | |
| DO3MHA-12 | 2026-09-04 05:04:57 | 47.45903 | 11.57097 | 156° | 26km/h | 19653m | 5.0m/s | -55.6°C | 4.2% | 61.8hPa | 2.6V | 02:12:00 | 01:25:49 | 00:00:00 | |
| OE5MMP-10 | 2026-09-04 05:04:56 | 47.45909 | 11.57093 | 157° | 26km/h | 19648m | 4.7m/s | -55.6°C | 4.2% | 61.9hPa | 2.6V | 00:00:00 | 01:25:48 | 00:00:00 | |
| DO3MHA-11 | 2026-09-04 05:04:54 | 47.45922 | 11.57087 | 164° | 24km/h | 19638m | 3.9m/s | -55.5°C | 4.2% | 62.0hPa | 2.6V | 00:00:00 | 01:25:46 | 00:00:00 | |
| NBG1-10 | 2026-09-04 05:04:53 | 47.45930 | 11.57083 | 161° | 20km/h | 19634m | 4.8m/s | -55.5°C | 4.2% | 62.1hPa | 2.6V | 00:00:00 | 01:25:45 | 00:00:00 | |
| BAUMI2-15 | 2026-09-04 05:04:52 | 47.45936 | 11.57079 | 155° | 24km/h | 19629m | 4.9m/s | -55.5°C | 4.2% | 62.1hPa | 2.6V | 00:00:00 | 01:25:44 | 00:00:00 | |
| DB0UT-7 | 2026-09-04 05:04:51 | 47.45943 | 11.57074 | 151° | 20km/h | 19624m | 4.6m/s | -55.5°C | 4.3% | 62.1hPa | 2.6V | 00:00:00 | 00:00:00 | 00:00:00 | |
| DG1MFX-10 | 2026-09-04 05:04:50 | 47.45943 | 11.57074 | 152° | 27km/h | 19624m | 4.6m/s | -55.6°C | 1.1% | 62.2hPa | 2.6V | 02:13:00 | 00:00:00 | 00:00:00 | |
| OE5WHR-10 | 2026-09-04 05:04:49 | 47.45954 | 11.57065 | 153° | 20km/h | 19614m | 4.7m/s | -55.4°C | 4.3% | 62.2hPa | 2.6V | 00:00:00 | 01:25:41 | 00:00:00 | |
| DM0DOS-11 | 2026-09-04 05:04:48 | 47.45966 | 11.57053 | 137° | 18km/h | 19600m | 3.9m/s | 0°C | 0% | 0hPa | 2.6V | 02:12:59 | 01:25:38 | 00:00:00 | |
| DO3MHA-12 | 2026-09-04 05:04:47 | 47.45962 | 11.57057 | 144° | 22km/h | 19605m | 6.0m/s | -55.5°C | 4.3% | 62.3hPa | 2.6V | 00:00:00 | 01:25:39 | 00:00:00 | |
| OE5MMP-10 | 2026-09-04 05:04:46 | 47.45966 | 11.57053 | 138° | 22km/h | 19600m | 3.8m/s | -55.5°C | 4.3% | 62.4hPa | 2.6V | 02:12:00 | 01:25:38 | 00:00:00 | |
| DL1ZP-14 | 2026-09-04 05:04:44 | 47.45978 | 11.57040 | 143° | 20km/h | 19586m | 4.2m/s | -55.5°C | 1.1% | 62.6hPa | 2.7V | 00:00:00 | 00:00:00 | 00:00:00 | |
| OE5DRO-10 | 2026-09-04 05:04:43 | 47.45978 | 11.57040 | 144° | 20km/h | 19586m | 4.1m/s | -55.4°C | 4.3% | 62.5hPa | 2.6V | 00:00:00 | 00:00:00 | 00:00:00 | |
| BAUMI2-15 | 2026-09-04 05:04:42 | 47.45982 | 11.57035 | 141° | 24km/h | 19581m | 5.7m/s | -55.4°C | 4.2% | 62.6hPa | 2.6V | 02:13:00 | 01:25:34 | 00:00:00 | |
| DB0ND-19 | 2026-09-04 05:04:39 | 47.45996 | 11.57019 | 145° | 22km/h | 19565m | 4.0m/s | -55.3°C | 1.0% | 62.8hPa | 2.6V | 00:00:00 | 00:00:00 | 00:00:00 | |
| IN3HCDX | 2026-09-04 05:04:37 | 47.46004 | 11.57009 | 133° | 20km/h | 19557m | 4.9m/s | -55.2°C | 1.0% | 62.8hPa | 2.6V | 02:13:00 | 00:00:00 | 00:00:00 | |
| OE5MMP-10 | 2026-09-04 05:04:36 | 47.46008 | 11.57003 | 127° | 18km/h | 19552m | 3.7m/s | -55.2°C | 4.1% | 62.8hPa | 2.6V | 00:00:00 | 01:25:28 | 00:00:00 | |
| DM0DOS-11 | 2026-09-04 05:04:35 | 47.46021 | 11.56968 | 110° | 20km/h | 19525m | 4.4m/s | 0°C | 0% | 0hPa | 2.6V | 02:13:15 | 01:25:22 | 00:00:00 | |
| DO3MHA-11 | 2026-09-04 05:04:34 | 47.46013 | 11.56992 | 127° | 18km/h | 19543m | 3.8m/s | -55.0°C | 4.0% | 62.9hPa | 2.6V | 00:00:00 | 01:25:26 | 00:00:00 | |
| DL6DJ-15 | 2026-09-04 05:04:33 | 47.46016 | 11.56987 | 121° | 16km/h | 19539m | 3.3m/s | -55.0°C | 1.0% | 63.0hPa | 2.6V | 00:00:00 | 00:00:00 | 00:00:00 | |
| BAUMI2-15 | 2026-09-04 05:04:32 | 47.46018 | 11.56982 | 114° | 18km/h | 19535m | 5.4m/s | -55.0°C | 4.0% | 63.0hPa | 2.6V | 00:00:00 | 01:25:24 | 00:00:00 | |
| DF1GD-15 | 2026-09-04 05:04:31 | 47.46018 | 11.56982 | 115° | 18km/h | 19535m | 5.5m/s | -55.0°C | 1.0% | 63.0hPa | 2.6V | 02:13:00 | 00:00:00 | 00:00:00 | |
| DK5PH-5 | 2026-09-04 05:04:30 | 47.46021 | 11.56969 | 111° | 18km/h | 19525m | 4.4m/s | -55.0°C | 4.0% | 63.1hPa | 2.6V | 02:13:00 | 01:25:22 | 00:00:00 | |
| OE5WHR-10 | 2026-09-04 05:04:28 | 47.46025 | 11.56956 | 120° | 22km/h | 19516m | 3.5m/s | -55.0°C | 3.9% | 63.2hPa | 2.7V | 02:13:00 | 00:00:00 | 00:00:00 | |
| DO3MHA-12 | 2026-09-04 05:04:27 | 47.46027 | 11.56950 | 116° | 20km/h | 19512m | 5.5m/s | -55.0°C | 3.9% | 63.3hPa | 2.6V | 02:13:00 | 01:25:19 | 00:00:00 | |
| OE5MMP-10 | 2026-09-04 05:04:26 | 47.46029 | 11.56944 | 112° | 20km/h | 19507m | 4.4m/s | -55.1°C | 4.0% | 63.3hPa | 2.6V | 00:00:00 | 01:25:18 | 00:00:00 | |
| DO3MHA-11 | 2026-09-04 05:04:24 | 47.46033 | 11.56932 | 122° | 22km/h | 19497m | 4.8m/s | -55.7°C | 4.2% | 63.4hPa | 2.6V | 00:00:00 | 01:25:16 | 00:00:00 | |
| OE3JTB-15 | 2026-09-04 05:04:23 | 47.46035 | 11.56927 | 124° | 18km/h | 19493m | 3.4m/s | -55.7°C | 4.2% | 63.4hPa | 2.6V | 02:13:00 | 00:00:00 | 00:00:00 | |
| DB0UT-7 | 2026-09-04 05:04:21 | 47.46039 | 11.56915 | 113° | 18km/h | 19484m | 4.3m/s | -55.8°C | 4.1% | 63.5hPa | 2.6V | 02:13:00 | 01:25:13 | 00:00:00 | |
| NBG1-10 | 2026-09-04 05:04:20 | 47.46042 | 11.56908 | 114° | 13km/h | 19479m | 4.5m/s | -55.8°C | 4.2% | 63.5hPa | 2.6V | 00:00:00 | 01:25:12 | 00:00:00 | |
| DF7PN | 2026-09-04 05:04:19 | 47.46047 | 11.56893 | 122° | 24km/h | 19469m | 3.9m/s | -55.9°C | -1.0% | 63.7hPa | 2.6V | 00:00:00 | 00:00:00 | 00:00:00 | |
| DO3MHA-12 | 2026-09-04 05:04:17 | 47.46050 | 11.56884 | 118° | 24km/h | 19465m | 4.9m/s | -55.9°C | 4.1% | 63.7hPa | 2.6V | 00:00:00 | 01:25:09 | 00:00:00 | |
| OE5MMP-10 | 2026-09-04 05:04:16 | 47.46053 | 11.56875 | 114° | 22km/h | 19460m | 4.9m/s | -55.9°C | 4.2% | 63.8hPa | 2.6V | 02:13:00 | 01:25:08 | 00:00:00 | |
| IN3HCDX | 2026-09-04 05:04:15 | 47.46053 | 11.56875 | 115° | 26km/h | 19460m | 4.9m/s | -56.0°C | 1.0% | 63.8hPa | 2.6V | 02:13:00 | 00:00:00 | 00:00:00 | |
| DO3MHA-11 | 2026-09-04 05:04:14 | 47.46059 | 11.56858 | 118° | 20km/h | 19451m | 5.1m/s | -55.9°C | 4.2% | 63.9hPa | 2.6V | 02:13:00 | 01:25:06 | 00:00:00 | |
| DL1ZP-14 | 2026-09-04 05:04:13 | 47.46065 | 11.56842 | 121° | 22km/h | 19442m | 4.0m/s | -56.0°C | 1.0% | 64.0hPa | 2.7V | 00:00:00 | 00:00:00 | 00:00:00 | |
| BAUMI2-15 | 2026-09-04 05:04:12 | 47.46065 | 11.56842 | 122° | 20km/h | 19442m | 4.0m/s | -55.9°C | 4.3% | 63.9hPa | 2.7V | 02:13:00 | 01:25:04 | 00:00:00 | |
| DF1GD-15 | 2026-09-04 05:04:11 | 47.46065 | 11.56842 | 122° | 22km/h | 19442m | 4.0m/s | -56.0°C | 1.1% | 64.0hPa | 2.6V | 02:13:00 | 00:00:00 | 00:00:00 | |
| DG1MFX-10 | 2026-09-04 05:04:09 | 47.46070 | 11.56828 | 121° | 20km/h | 19434m | 3.4m/s | -56.0°C | 1.1% | 64.1hPa | 2.6V | 02:13:00 | 00:00:00 | 00:00:00 | |
| DM0DOS-11 | 2026-09-04 05:04:08 | 47.46082 | 11.56809 | 124° | 15km/h | 19416m | 5.2m/s | 0°C | 0% | 0hPa | 2.6V | 00:00:00 | 01:24:58 | 00:00:00 | |
| DO3MHA-12 | 2026-09-04 05:04:07 | 47.46079 | 11.56813 | 134° | 13km/h | 19421m | 3.9m/s | -56.0°C | 4.2% | 64.1hPa | 2.7V | 00:00:00 | 01:24:59 | 00:00:00 | |
| OE5MMP-10 | 2026-09-04 05:04:06 | 47.46082 | 11.56808 | 125° | 13km/h | 19416m | 5.2m/s | -56.0°C | 4.2% | 64.2hPa | 2.7V | 00:00:00 | 01:24:58 | 00:00:00 | |
| OE5DRO-10 | 2026-09-04 05:04:05 | 47.46083 | 11.56804 | 119° | 11km/h | 19411m | 4.3m/s | -56.0°C | 4.2% | 64.3hPa | 2.7V | 00:00:00 | 00:00:00 | 00:00:00 | |
| DO3MHA-11 | 2026-09-04 05:04:04 | 47.46085 | 11.56800 | 122° | 13km/h | 19407m | 5.4m/s | -56.1°C | 4.2% | 64.3hPa | 2.7V | 00:00:00 | 01:24:56 | 00:00:00 | |
| DL6DJ-15 | 2026-09-04 05:04:02 | 47.46088 | 11.56793 | 114° | 11km/h | 19397m | 4.0m/s | -56.2°C | 1.1% | 64.4hPa | 2.7V | 00:00:00 | 00:00:00 | 00:00:00 | |
| DF7PN | 2026-09-04 05:03:48 | 47.46093 | 11.56736 | 96° | 5km/h | 19332m | 3.4m/s | -56.4°C | -1.0% | -1.0hPa | 2.7V | 00:00:00 | 00:00:00 | 00:00:00 | |
| DO3MHA-12 | 2026-09-04 05:03:47 | 47.46093 | 11.56734 | 95° | 5km/h | 19328m | 4.5m/s | -56.4°C | 4.5% | 65.1hPa | 2.7V | 00:00:00 | 01:24:39 | 00:00:00 | |
| OE5WHR-10 | 2026-09-04 05:03:46 | 47.46093 | 11.56732 | 82° | 4km/h | 19323m | 5.2m/s | -56.3°C | 4.5% | 65.1hPa | 2.7V | 00:00:00 | 01:24:38 | 00:00:00 | |
| S52SK | 2026-09-04 05:03:45 | 47.46093 | 11.56732 | 82° | 5km/h | 19323m | 5.3m/s | 0°C | 0% | 0hPa | 2.7V | 00:00:00 | 00:00:00 | 00:00:00 | |
| DO3MHA-11 | 2026-09-04 05:03:44 | 47.46093 | 11.56727 | 100° | 4km/h | 19314m | 5.5m/s | -56.2°C | 4.5% | 65.2hPa | 2.7V | 02:14:00 | 01:24:36 | 00:00:00 | |
| S52SK | 2026-09-04 05:03:40 | 47.46095 | 11.56719 | 93° | 4km/h | 19299m | 4.8m/s | 0°C | 0% | 0hPa | 2.6V | 00:00:00 | 00:00:00 | 00:00:00 | |
| DO3MHA-12 | 2026-09-04 05:03:37 | 47.46095 | 11.56718 | 175° | 2km/h | 19281m | 3.9m/s | -56.0°C | 4.3% | 65.6hPa | 2.6V | 00:00:00 | 01:24:29 | 00:00:00 | |
| OE5MMP-10 | 2026-09-04 05:03:36 | 47.46095 | 11.56718 | 111° | 4km/h | 19276m | 5.8m/s | -56.0°C | 4.4% | 65.6hPa | 2.6V | 00:00:00 | 01:24:28 | 00:00:00 | |
| DO3MHA-11 | 2026-09-04 05:03:34 | 47.46095 | 11.56717 | 88° | 4km/h | 19266m | 4.6m/s | -55.9°C | 4.4% | 65.7hPa | 2.6V | 00:00:00 | 01:24:26 | 00:00:00 | |
| IN3HCDX | 2026-09-04 05:03:33 | 47.46095 | 11.56717 | 88° | 4km/h | 19266m | 4.6m/s | -55.9°C | 1.1% | 65.8hPa | 2.6V | 02:14:00 | 00:00:00 | 00:00:00 | |
| DL6DJ-15 | 2026-09-04 05:03:31 | 47.46096 | 11.56715 | 190° | 0km/h | 19252m | 5.7m/s | -55.8°C | 1.1% | 66.0hPa | 2.6V | 00:00:00 | 00:00:00 | 00:00:00 | |
| DK5PH-5 | 2026-09-04 05:03:30 | 47.46097 | 11.56715 | 256° | 7km/h | 19247m | 4.2m/s | -55.7°C | 4.4% | 65.9hPa | 2.6V | 00:00:00 | 01:24:22 | 00:00:00 | |
| DG1MFX-10 | 2026-09-04 05:03:28 | 47.46097 | 11.56716 | 234° | 4km/h | 19243m | 4.2m/s | -55.7°C | 1.1% | 66.0hPa | 2.6V | 02:14:00 | 00:00:00 | 00:00:00 | |
| DO3MHA-12 | 2026-09-04 05:03:27 | 47.46099 | 11.56718 | 216° | 5km/h | 19234m | 4.3m/s | -55.6°C | 4.3% | 66.1hPa | 2.6V | 02:14:00 | 01:24:19 | 00:00:00 | |
| OE5MMP-10 | 2026-09-04 05:03:26 | 47.46100 | 11.56719 | 228° | 5km/h | 19229m | 5.5m/s | -55.6°C | 4.3% | 66.1hPa | 2.7V | 00:00:00 | 01:24:18 | 00:00:00 | |
| OE3JTB-15 | 2026-09-04 05:03:25 | 47.46100 | 11.56721 | 242° | 9km/h | 19224m | 4.2m/s | -55.5°C | 4.2% | 66.2hPa | 2.7V | 00:00:00 | 01:24:17 | 00:00:00 | |
| DO3MHA-11 | 2026-09-04 05:03:24 | 47.46101 | 11.56722 | 228° | 5km/h | 19219m | 4.3m/s | -55.5°C | 4.3% | 66.2hPa | 2.7V | 00:00:00 | 01:24:16 | 00:00:00 | |
| OE5DXL-15 | 2026-09-04 05:03:21 | 47.46105 | 11.56724 | 193° | 11km/h | 19205m | 5.0m/s | -55.4°C | 4.2% | 66.4hPa | 2.7V | 02:14:00 | 00:00:00 | 00:00:00 | |
| DG1MJG | 2026-09-04 05:03:19 | 47.46106 | 11.56725 | 212° | 4km/h | 19199m | 5.1m/s | -55.5°C | 1.0% | 66.5hPa | 2.6V | 02:14:00 | 00:00:00 | 00:00:00 | |
| DO3MHA-12 | 2026-09-04 05:03:17 | 47.46109 | 11.56729 | 219° | 9km/h | 19185m | 4.8m/s | -55.4°C | 4.1% | 66.6hPa | 2.6V | 00:00:00 | 01:24:09 | 00:00:00 | |
| OE5MMP-10 | 2026-09-04 05:03:16 | 47.46111 | 11.56731 | 214° | 9km/h | 19180m | 3.8m/s | -55.4°C | 4.1% | 66.6hPa | 2.6V | 02:14:00 | 01:24:08 | 00:00:00 | |
| DO3MHA-11 | 2026-09-04 05:03:14 | 47.46114 | 11.56734 | 203° | 9km/h | 19171m | 4.3m/s | -55.3°C | 4.1% | 66.7hPa | 2.7V | 02:14:00 | 01:24:06 | 00:00:00 | |
| NBG1-10 | 2026-09-04 05:03:13 | 47.46115 | 11.56734 | 187° | 15km/h | 19166m | 4.6m/s | -55.3°C | 4.2% | 66.8hPa | 2.6V | 00:00:00 | 01:24:05 | 00:00:00 | |
| IN3HCDX | 2026-09-04 05:03:12 | 47.46115 | 11.56734 | 188° | 7km/h | 19166m | 4.6m/s | -55.4°C | 1.0% | 66.8hPa | 2.6V | 02:15:00 | 00:00:00 | 00:00:00 | |
| DF1GD-15 | 2026-09-04 05:03:09 | 47.46123 | 11.56734 | 178° | 11km/h | 19152m | 5.8m/s | -55.3°C | 1.0% | 67.0hPa | 2.6V | 02:15:00 | 00:00:00 | 00:00:00 | |
| OE5DRO-10 | 2026-09-04 05:03:08 | 47.46127 | 11.56734 | 185° | 15km/h | 19142m | 4.3m/s | -55.2°C | 4.1% | 67.0hPa | 2.6V | 00:00:00 | 00:00:00 | 00:00:00 | |
| DO3MHA-12 | 2026-09-04 05:03:07 | 47.46130 | 11.56734 | 189° | 13km/h | 19137m | 5.9m/s | -55.2°C | 4.1% | 67.1hPa | 2.6V | 00:00:00 | 01:23:59 | 00:00:00 | |
| OE5MMP-10 | 2026-09-04 05:03:06 | 47.46133 | 11.56735 | 196° | 13km/h | 19132m | 4.8m/s | -55.2°C | 4.1% | 67.1hPa | 2.6V | 00:00:00 | 01:23:58 | 00:00:00 | |
| OE5WHR-10 | 2026-09-04 05:03:04 | 47.46138 | 11.56738 | 205° | 16km/h | 19122m | 5.4m/s | -55.2°C | 4.1% | 67.3hPa | 2.6V | 00:00:00 | 00:00:00 | 00:00:00 | |
| DF3TZ-5 | 2026-09-04 05:03:03 | 47.46144 | 11.56741 | 197° | 11km/h | 19113m | 5.1m/s | -55.3°C | 1.0% | 67.4hPa | 2.6V | 00:00:00 | 00:00:00 | 00:00:00 | |
| DK5PH-5 | 2026-09-04 05:03:00 | 47.46151 | 11.56743 | 189° | 20km/h | 19103m | 5.1m/s | -55.3°C | 4.1% | 67.4hPa | 2.6V | 02:14:00 | 01:23:52 | 00:00:00 | |
| DO3MHA-12 | 2026-09-04 05:02:57 | 47.46161 | 11.56742 | 169° | 18km/h | 19089m | 5.9m/s | -55.3°C | 4.0% | 67.6hPa | 2.6V | 02:14:00 | 01:23:49 | 00:00:00 | |
| OE5MMP-10 | 2026-09-04 05:02:56 | 47.46165 | 11.56741 | 167° | 18km/h | 19084m | 4.3m/s | -55.3°C | 4.0% | 67.7hPa | 2.6V | 00:00:00 | 01:23:48 | 00:00:00 | |
| DO3MHA-11 | 2026-09-04 05:02:54 | 47.46173 | 11.56739 | 177° | 18km/h | 19074m | 5.4m/s | -55.4°C | 4.0% | 67.7hPa | 2.6V | 00:00:00 | 01:23:46 | 00:00:00 | |
| OE5DXL-15 | 2026-09-04 05:02:51 | 47.46185 | 11.56742 | 197° | 22km/h | 19061m | 5.1m/s | -55.7°C | 4.0% | 67.9hPa | 2.6V | 00:00:00 | 00:00:00 | 00:00:00 | |
| OE5DRO-10 | 2026-09-04 05:02:49 | 47.46195 | 11.56745 | 187° | 22km/h | 19051m | 4.5m/s | -56.1°C | 4.1% | 68.0hPa | 2.6V | 00:00:00 | 00:00:00 | 00:00:00 | |
| DF1GD-15 | 2026-09-04 05:02:48 | 47.46195 | 11.56745 | 187° | 22km/h | 19051m | 4.6m/s | -56.1°C | 1.1% | 68.1hPa | 2.6V | 02:15:00 | 00:00:00 | 00:00:00 | |
| DO3MHA-12 | 2026-09-04 05:02:47 | 47.46205 | 11.56745 | 168° | 20km/h | 19041m | 4.9m/s | -56.4°C | 4.3% | 68.1hPa | 2.6V | 00:00:00 | 01:23:39 | 00:00:00 | |
| OE5MMP-10 | 2026-09-04 05:02:46 | 47.46209 | 11.56743 | 159° | 24km/h | 19036m | 4.6m/s | -56.6°C | 4.3% | 68.1hPa | 2.6V | 02:14:00 | 01:23:38 | 00:00:00 | |
| DO3MHA-11 | 2026-09-04 05:02:44 | 47.46219 | 11.56735 | 146° | 24km/h | 19025m | 4.2m/s | -56.6°C | 4.4% | 68.3hPa | 2.7V | 02:15:00 | 01:23:36 | 00:00:00 | |
| OE5WHR-10 | 2026-09-04 05:02:43 | 47.46224 | 11.56729 | 141° | 22km/h | 19020m | 6.2m/s | -56.7°C | 4.4% | 68.3hPa | 2.7V | 00:00:00 | 01:23:35 | 00:00:00 | |
| NBG1-10 | 2026-09-04 05:02:40 | 47.46239 | 11.56712 | 149° | 20km/h | 19005m | 4.6m/s | -56.7°C | 4.4% | 68.5hPa | 2.7V | 00:00:00 | 01:23:32 | 00:00:00 | |
| OE5MMP-10 | 2026-09-04 05:02:36 | 47.46260 | 11.56699 | 165° | 22km/h | 18986m | 5.5m/s | -56.9°C | 4.5% | 68.7hPa | 2.7V | 00:00:00 | 01:23:28 | 00:00:00 | |
| DB0ND-19 | 2026-09-04 05:02:35 | 47.46266 | 11.56697 | 159° | 22km/h | 18981m | 4.4m/s | -57.0°C | 1.1% | 68.8hPa | 2.7V | 00:00:00 | 00:00:00 | 00:00:00 | |
| DF3TZ-5 | 2026-09-04 05:02:32 | 47.46281 | 11.56684 | 139° | 22km/h | 18966m | 4.0m/s | -57.1°C | 1.1% | 69.0hPa | 2.7V | 00:00:00 | 00:00:00 | 00:00:00 | |
| DK5PH-5 | 2026-09-04 05:02:30 | 47.46290 | 11.56672 | 137° | 20km/h | 18957m | 4.9m/s | -57.1°C | 4.5% | 69.0hPa | 2.7V | 00:00:00 | 01:23:22 | 00:00:00 | |
| DO3MHA-11 | 2026-09-04 05:02:29 | 47.46294 | 11.56666 | 137° | 18km/h | 18953m | 4.4m/s | -57.1°C | 4.4% | 69.1hPa | 2.7V | 00:00:00 | 01:23:21 | 00:00:00 | |
| OE3JTB-15 | 2026-09-04 05:02:27 | 47.46302 | 11.56654 | 133° | 22km/h | 18942m | 4.3m/s | -57.0°C | 4.5% | 69.2hPa | 2.7V | 00:00:00 | 00:00:00 | 00:00:00 | |
| OE5MMP-10 | 2026-09-04 05:02:26 | 47.46305 | 11.56649 | 139° | 18km/h | 18938m | 3.7m/s | -57.0°C | 4.5% | 69.2hPa | 2.7V | 00:00:00 | 01:23:18 | 00:00:00 | |
| S52SK | 2026-09-04 05:02:24 | 47.46308 | 11.56646 | 148° | 16km/h | 18934m | 5.6m/s | 0°C | 0% | 0hPa | 2.7V | 00:00:00 | 00:00:00 | 00:00:00 | |
| OE5WHR-10 | 2026-09-04 05:02:22 | 47.46321 | 11.56638 | 157° | 20km/h | 18920m | 5.6m/s | -57.1°C | 4.6% | 69.4hPa | 2.7V | 02:15:00 | 00:00:00 | 00:00:00 | |
| DB0UT-7 | 2026-09-04 05:02:21 | 47.46325 | 11.56635 | 156° | 22km/h | 18915m | 4.4m/s | -57.1°C | 4.6% | 69.5hPa | 2.7V | 00:00:00 | 01:23:13 | 00:00:00 | |
| DO3MHA-12 | 2026-09-04 05:02:20 | 47.46329 | 11.56632 | 159° | 16km/h | 18910m | 4.7m/s | -57.2°C | 4.6% | 69.5hPa | 2.7V | 00:00:00 | 01:23:12 | 00:00:00 | |
| DO3MHA-11 | 2026-09-04 05:02:19 | 47.46334 | 11.56630 | 164° | 16km/h | 18905m | 5.1m/s | -57.1°C | 4.5% | 69.6hPa | 2.7V | 00:00:00 | 01:23:11 | 00:00:00 | |
| S52SK | 2026-09-04 05:02:18 | 47.46334 | 11.56630 | 164° | 20km/h | 18905m | 5.1m/s | 0°C | 0% | 0hPa | 2.7V | 00:00:00 | 00:00:00 | 00:00:00 | |
| OE5MMP-10 | 2026-09-04 05:02:16 | 47.46347 | 11.56624 | 159° | 16km/h | 18890m | 4.5m/s | -57.4°C | 4.7% | 69.7hPa | 2.7V | 02:15:00 | 01:23:08 | 00:00:00 | |
| OE5DRO-10 | 2026-09-04 05:02:11 | 47.46365 | 11.56614 | 154° | 24km/h | 18866m | 4.9m/s | -57.4°C | 4.6% | 70.0hPa | 2.7V | 00:00:00 | 00:00:00 | 00:00:00 | |
| IN3HCDX | 2026-09-04 05:02:10 | 47.46365 | 11.56615 | 155° | 15km/h | 18866m | 4.9m/s | -57.5°C | 1.2% | 70.1hPa | 2.7V | 02:16:00 | 00:00:00 | 00:00:00 | |
| DO3MHA-11 | 2026-09-04 05:02:09 | 47.46372 | 11.56610 | 162° | 27km/h | 18856m | 5.8m/s | -57.3°C | 4.5% | 70.1hPa | 2.7V | 02:15:00 | 01:23:01 | 00:00:00 | |
| DO3MHA-12 | 2026-09-04 05:02:07 | 47.46381 | 11.56606 | 159° | 29km/h | 18847m | 4.6m/s | -57.3°C | 4.6% | 70.3hPa | 2.6V | 02:15:00 | 01:22:59 | 00:00:00 | |
| OE5MMP-10 | 2026-09-04 05:02:06 | 47.46386 | 11.56602 | 152° | 29km/h | 18842m | 5.9m/s | -57.2°C | 4.5% | 70.3hPa | 2.7V | 00:00:00 | 01:22:58 | 00:00:00 | |
| DG1MFX-10 | 2026-09-04 05:02:05 | 47.46387 | 11.56602 | 152° | 24km/h | 18842m | 5.9m/s | -57.3°C | 1.2% | 70.3hPa | 2.7V | 02:16:00 | 00:00:00 | 00:00:00 | |
| DB0ND-19 | 2026-09-04 05:02:04 | 47.46399 | 11.56591 | 145° | 31km/h | 18831m | 4.5m/s | -57.3°C | 1.2% | 70.5hPa | 2.7V | 00:00:00 | 00:00:00 | 00:00:00 | |
| DF3TZ-5 | 2026-09-04 05:02:01 | 47.46433 | 11.56558 | 144° | 27km/h | 18807m | 4.9m/s | -57.4°C | 1.2% | 70.7hPa | 2.7V | 00:00:00 | 00:00:00 | 00:00:00 | |
| DK5PH-5 | 2026-09-04 05:02:00 | 47.46427 | 11.56564 | 146° | 31km/h | 18812m | 5.1m/s | -57.4°C | 4.5% | 70.6hPa | 2.7V | 00:00:00 | 01:22:52 | 00:00:00 | |
| DO3MHA-11 | 2026-09-04 05:01:59 | 47.46433 | 11.56558 | 145° | 24km/h | 18807m | 4.9m/s | -57.4°C | 4.5% | 70.7hPa | 2.7V | 00:00:00 | 01:22:51 | 00:00:00 | |
| OE3JTB-15 | 2026-09-04 05:01:58 | 47.46439 | 11.56553 | 149° | 29km/h | 18802m | 5.7m/s | -57.4°C | 4.5% | 70.8hPa | 2.7V | 00:00:00 | 01:22:50 | 00:00:00 | |
| DO3MHA-12 | 2026-09-04 05:01:57 | 47.46444 | 11.56549 | 154° | 26km/h | 18796m | 4.7m/s | -57.4°C | 4.5% | 70.8hPa | 2.7V | 00:00:00 | 01:22:49 | 00:00:00 | |
| OE5MMP-10 | 2026-09-04 05:01:56 | 47.46449 | 11.56545 | 152° | 27km/h | 18792m | 4.5m/s | -57.4°C | 4.5% | 70.8hPa | 2.7V | 00:00:00 | 01:22:48 | 00:00:00 | |
| OE5DRO-10 | 2026-09-04 05:01:52 | 47.46467 | 11.56526 | 147° | 33km/h | 18771m | 5.1m/s | -57.4°C | 4.4% | 71.1hPa | 2.7V | 00:00:00 | 00:00:00 | 00:00:00 | |
| OE5DXL-15 | 2026-09-04 05:01:51 | 47.46472 | 11.56521 | 149° | 29km/h | 18767m | 4.3m/s | -57.6°C | 4.5% | 71.1hPa | 2.7V | 02:15:00 | 00:00:00 | 00:00:00 | |
| DO3MHA-11 | 2026-09-04 05:01:49 | 47.46485 | 11.56507 | 144° | 37km/h | 18756m | 5.1m/s | -58.0°C | 4.7% | 71.2hPa | 2.6V | 00:00:00 | 01:22:41 | 00:00:00 | |
| DG1MJG | 2026-09-04 05:01:48 | 47.46485 | 11.56507 | 144° | 33km/h | 18756m | 5.1m/s | -58.1°C | 1.2% | 71.3hPa | 2.6V | 02:16:00 | 00:00:00 | 00:00:00 | |
| DO3MHA-12 | 2026-09-04 05:01:47 | 47.46500 | 11.56492 | 147° | 35km/h | 18746m | 5.5m/s | -58.2°C | 4.8% | 71.4hPa | 2.6V | 00:00:00 | 01:22:39 | 00:00:00 | |
| OE5MMP-10 | 2026-09-04 05:01:46 | 47.46508 | 11.56484 | 146° | 35km/h | 18741m | 4.6m/s | -58.2°C | 4.7% | 71.4hPa | 2.6V | 02:15:00 | 01:22:38 | 00:00:00 | |
| DG1MFX-10 | 2026-09-04 05:01:44 | 47.46516 | 11.56475 | 145° | 42km/h | 18735m | 6.4m/s | -58.3°C | 1.3% | 71.5hPa | 2.6V | 02:16:00 | 00:00:00 | 00:00:00 | |
| BAUMI2-15 | 2026-09-04 05:01:41 | 47.46546 | 11.56438 | 141° | 29km/h | 18715m | 4.5m/s | -58.2°C | 4.8% | 71.7hPa | 2.6V | 02:16:00 | 01:22:33 | 00:00:00 | |
| OE5WHR-10 | 2026-09-04 05:01:40 | 47.46552 | 11.56431 | 138° | 26km/h | 18710m | 5.9m/s | -58.3°C | 4.8% | 71.8hPa | 2.6V | 00:00:00 | 01:22:32 | 00:00:00 | |
| DO3MHA-11 | 2026-09-04 05:01:39 | 47.46558 | 11.56423 | 137° | 29km/h | 18704m | 5.0m/s | -58.4°C | 4.9% | 71.8hPa | 2.6V | 02:16:00 | 01:22:31 | 00:00:00 | |
| DO3MHA-12 | 2026-09-04 05:01:37 | 47.46569 | 11.56410 | 143° | 27km/h | 18693m | 5.1m/s | -58.4°C | 4.8% | 72.0hPa | 2.7V | 02:16:00 | 01:22:29 | 00:00:00 | |
| OE5MMP-10 | 2026-09-04 05:01:36 | 47.46574 | 11.56403 | 142° | 26km/h | 18688m | 4.6m/s | -58.4°C | 4.8% | 72.0hPa | 2.6V | 00:00:00 | 01:22:28 | 00:00:00 | |
| NBG1-10 | 2026-09-04 05:01:34 | 47.46585 | 11.56388 | 134° | 22km/h | 18678m | 4.6m/s | -58.5°C | 4.8% | 72.2hPa | 2.6V | 00:00:00 | 01:22:26 | 00:00:00 | |
| OE5DRO-10 | 2026-09-04 05:01:33 | 47.46591 | 11.56379 | 135° | 22km/h | 18673m | 5.2m/s | -58.5°C | 4.8% | 72.2hPa | 2.6V | 02:16:00 | 00:00:00 | 00:00:00 | |
| BAUMI2-15 | 2026-09-04 05:01:31 | 47.46601 | 11.56364 | 134° | 22km/h | 18662m | 4.7m/s | -58.4°C | 4.9% | 72.3hPa | 2.6V | 00:00:00 | 01:22:23 | 00:00:00 | |
| DK5PH-5 | 2026-09-04 05:01:30 | 47.46605 | 11.56357 | 129° | 22km/h | 18657m | 6.1m/s | -58.4°C | 5.0% | 72.4hPa | 2.6V | 02:16:00 | 01:22:22 | 00:00:00 | |
| DO3MHA-11 | 2026-09-04 05:01:29 | 47.46609 | 11.56350 | 126° | 22km/h | 18652m | 4.1m/s | -58.4°C | 5.0% | 72.5hPa | 2.6V | 00:00:00 | 01:22:21 | 00:00:00 | |
| IN3HCDX | 2026-09-04 05:01:28 | 47.46609 | 11.56350 | 127° | 22km/h | 18652m | 4.1m/s | -58.5°C | 1.3% | 72.5hPa | 2.6V | 00:00:00 | 00:00:00 | 00:00:00 | |
| DO3MHA-12 | 2026-09-04 05:01:27 | 47.46616 | 11.56338 | 140° | 22km/h | 18642m | 5.5m/s | -58.3°C | 4.9% | 72.6hPa | 2.6V | 00:00:00 | 01:22:19 | 00:00:00 | |
| OE5MMP-10 | 2026-09-04 05:01:26 | 47.46620 | 11.56334 | 151° | 22km/h | 18637m | 4.5m/s | -58.3°C | 5.0% | 72.6hPa | 2.6V | 00:00:00 | 01:22:18 | 00:00:00 | |
| DG1MFX-10 | 2026-09-04 05:01:23 | 47.46630 | 11.56327 | 154° | 22km/h | 18628m | 5.7m/s | -58.3°C | 1.3% | 72.7hPa | 2.6V | 02:17:00 | 00:00:00 | 00:00:00 | |
| BAUMI2-15 | 2026-09-04 05:01:21 | 47.46644 | 11.56314 | 151° | 22km/h | 18613m | 5.8m/s | -58.1°C | 4.9% | 72.9hPa | 2.6V | 00:00:00 | 01:22:13 | 00:00:00 | |
| DO3MHA-11 | 2026-09-04 05:01:19 | 47.46654 | 11.56306 | 151° | 20km/h | 18603m | 4.3m/s | -58.0°C | 4.9% | 73.0hPa | 2.6V | 00:00:00 | 01:22:11 | 00:00:00 | |
| DO3MHA-12 | 2026-09-04 05:01:17 | 47.46663 | 11.56297 | 142° | 20km/h | 18593m | 4.5m/s | -58.0°C | 4.9% | 73.1hPa | 2.6V | 00:00:00 | 01:22:09 | 00:00:00 | |
| OE5MMP-10 | 2026-09-04 05:01:16 | 47.46667 | 11.56292 | 144° | 20km/h | 18588m | 5.7m/s | -57.9°C | 4.8% | 73.1hPa | 2.6V | 02:16:00 | 01:22:08 | 00:00:00 | |
| OE5DRO-10 | 2026-09-04 05:01:14 | 47.46675 | 11.56286 | 154° | 20km/h | 18578m | 4.6m/s | -57.9°C | 4.8% | 73.3hPa | 2.6V | 00:00:00 | 00:00:00 | 00:00:00 | |
| BAUMI2-15 | 2026-09-04 05:01:11 | 47.46687 | 11.56275 | 152° | 22km/h | 18563m | 4.4m/s | -57.8°C | 4.6% | 73.5hPa | 2.6V | 02:16:00 | 01:22:03 | 00:00:00 | |
| DO3MHA-11 | 2026-09-04 05:01:09 | 47.46697 | 11.56269 | 160° | 22km/h | 18552m | 4.6m/s | -57.8°C | 4.7% | 73.6hPa | 2.6V | 02:16:00 | 01:22:01 | 00:00:00 | |
| DO3MHA-12 | 2026-09-04 05:01:07 | 47.46707 | 11.56262 | 153° | 20km/h | 18542m | 4.7m/s | -57.8°C | 4.7% | 73.7hPa | 2.7V | 02:16:00 | 01:21:59 | 00:00:00 | |
| OE5MMP-10 | 2026-09-04 05:01:06 | 47.46713 | 11.56258 | 151° | 20km/h | 18537m | 4.7m/s | -57.7°C | 4.7% | 73.8hPa | 2.7V | 00:00:00 | 01:21:58 | 00:00:00 | |
| DB0ND-19 | 2026-09-04 05:01:02 | 47.46732 | 11.56244 | 152° | 20km/h | 18515m | 5.7m/s | -57.9°C | 1.3% | 74.1hPa | 2.7V | 00:00:00 | 00:00:00 | 00:00:00 | |
| NBG1-10 | 2026-09-04 05:01:01 | 47.46737 | 11.56240 | 152° | 22km/h | 18511m | 3.6m/s | -57.9°C | 5.0% | 74.1hPa | 2.7V | 00:00:00 | 01:21:53 | 00:00:00 | |
| OE3JTB-15 | 2026-09-04 05:01:00 | 47.46742 | 11.56236 | 155° | 22km/h | 18506m | 5.5m/s | -57.9°C | 4.9% | 74.1hPa | 2.7V | 00:00:00 | 00:00:00 | 00:00:00 | |
| DO3MHA-11 | 2026-09-04 05:00:59 | 47.46746 | 11.56234 | 159° | 16km/h | 18501m | 5.3m/s | -57.9°C | 4.9% | 74.2hPa | 2.7V | 00:00:00 | 01:21:51 | 00:00:00 | |
| OE5WHR-10 | 2026-09-04 05:00:58 | 47.46749 | 11.56232 | 159° | 20km/h | 18496m | 4.8m/s | -57.8°C | 4.8% | 74.2hPa | 2.7V | 00:00:00 | 00:00:00 | 00:00:00 | |
| DO3MHA-12 | 2026-09-04 05:00:57 | 47.46753 | 11.56229 | 152° | 18km/h | 18490m | 6.1m/s | -57.8°C | 4.9% | 74.3hPa | 2.7V | 00:00:00 | 01:21:49 | 00:00:00 | |
| OE5MMP-10 | 2026-09-04 05:00:56 | 47.46756 | 11.56226 | 144° | 18km/h | 18485m | 4.2m/s | -57.8°C | 4.9% | 74.4hPa | 2.7V | 00:00:00 | 01:21:48 | 00:00:00 | |
| OE5DRO-10 | 2026-09-04 05:00:55 | 47.46759 | 11.56223 | 146° | 20km/h | 18481m | 4.0m/s | -57.7°C | 4.8% | 74.5hPa | 2.7V | 00:00:00 | 00:00:00 | 00:00:00 | |
| DB0UT-7 | 2026-09-04 05:00:51 | 47.46774 | 11.56213 | 156° | 26km/h | 18461m | 5.4m/s | -57.6°C | 4.7% | 74.7hPa | 2.7V | 00:00:00 | 00:00:00 | 00:00:00 | |
| DO3MHA-11 | 2026-09-04 05:00:49 | 47.46785 | 11.56206 | 159° | 20km/h | 18451m | 5.3m/s | -57.5°C | 4.6% | 74.8hPa | 2.7V | 00:00:00 | 01:21:41 | 00:00:00 | |
| DO3MHA-12 | 2026-09-04 05:00:47 | 47.46795 | 11.56201 | 162° | 22km/h | 18442m | 4.4m/s | -57.5°C | 4.6% | 74.9hPa | 2.7V | 00:00:00 | 01:21:39 | 00:00:00 | |
| OE5MMP-10 | 2026-09-04 05:00:46 | 47.46800 | 11.56198 | 156° | 22km/h | 18436m | 5.8m/s | -57.4°C | 4.7% | 74.9hPa | 2.7V | 02:16:00 | 01:21:38 | 00:00:00 | |
| DF1GD-15 | 2026-09-04 05:00:45 | 47.46800 | 11.56198 | 156° | 20km/h | 18436m | 5.9m/s | -57.5°C | 1.3% | 75.0hPa | 2.7V | 02:17:00 | 00:00:00 | 00:00:00 | |
| BAUMI2-15 | 2026-09-04 05:00:41 | 47.46821 | 11.56179 | 147° | 24km/h | 18411m | 5.8m/s | -57.3°C | 4.7% | 75.2hPa | 2.7V | 02:17:00 | 01:21:33 | 00:00:00 | |
| DO3MHA-11 | 2026-09-04 05:00:39 | 47.46832 | 11.56170 | 152° | 26km/h | 18401m | 5.7m/s | -57.4°C | 4.7% | 75.4hPa | 2.6V | 02:17:00 | 01:21:31 | 00:00:00 | |
| DO3MHA-12 | 2026-09-04 05:00:37 | 47.46843 | 11.56161 | 156° | 26km/h | 18391m | 5.1m/s | -57.3°C | 4.6% | 75.5hPa | 2.7V | 02:17:00 | 01:21:29 | 00:00:00 | |
| BAUMI2-15 | 2026-09-04 05:00:36 | 47.46849 | 11.56157 | 154° | 27km/h | 18386m | 5.2m/s | -57.4°C | 4.7% | 75.5hPa | 2.6V | 00:00:00 | 01:21:28 | 00:00:00 | |
| IN3IJJ | 2026-09-04 05:00:33 | 47.46862 | 11.56147 | 155° | 27km/h | 18376m | 5.7m/s | 0°C | 0% | 0hPa | 2.6V | 00:00:00 | 00:00:00 | 00:00:00 | |
| OE3JTB-15 | 2026-09-04 05:00:31 | 47.46879 | 11.56134 | 151° | 35km/h | 18361m | 5.0m/s | -57.8°C | 4.7% | 75.9hPa | 2.6V | 00:00:00 | 01:21:23 | 00:00:00 | |
| DK5PH-5 | 2026-09-04 05:00:30 | 47.46885 | 11.56130 | 154° | 35km/h | 18356m | 4.8m/s | -57.8°C | 4.7% | 75.9hPa | 2.6V | 00:00:00 | 01:21:22 | 00:00:00 | |
| DO3MHA-11 | 2026-09-04 05:00:29 | 47.46890 | 11.56126 | 157° | 31km/h | 18351m | 4.7m/s | -57.8°C | 4.7% | 76.0hPa | 2.6V | 00:00:00 | 01:21:21 | 00:00:00 | |
| NBG1-10 | 2026-09-04 05:00:28 | 47.46896 | 11.56122 | 156° | 37km/h | 18347m | 3.1m/s | -57.9°C | 4.8% | 76.0hPa | 2.6V | 02:17:00 | 01:21:20 | 00:00:00 | |
| DO3MHA-12 | 2026-09-04 05:00:27 | 47.46902 | 11.56118 | 153° | 35km/h | 18343m | 5.8m/s | -57.9°C | 4.7% | 76.1hPa | 2.7V | 00:00:00 | 01:21:19 | 00:00:00 | |
| OE5MMP-10 | 2026-09-04 05:00:26 | 47.46908 | 11.56112 | 150° | 35km/h | 18337m | 5.1m/s | -57.9°C | 4.8% | 76.2hPa | 2.7V | 00:00:00 | 01:21:18 | 00:00:00 | |
| DL6DJ-15 | 2026-09-04 05:00:25 | 47.46916 | 11.56106 | 148° | 33km/h | 18333m | 4.4m/s | -58.0°C | 1.3% | 76.3hPa | 2.7V | 00:00:00 | 00:00:00 | 00:00:00 | |
| DF1GD-15 | 2026-09-04 05:00:24 | 47.46916 | 11.56106 | 149° | 35km/h | 18333m | 4.4m/s | -58.0°C | 1.4% | 76.3hPa | 2.7V | 02:17:00 | 00:00:00 | 00:00:00 | |
| DB0UT-7 | 2026-09-04 05:00:21 | 47.46944 | 11.56078 | 145° | 38km/h | 18314m | 5.6m/s | -57.9°C | 4.8% | 76.4hPa | 2.7V | 00:00:00 | 01:21:13 | 00:00:00 | |
| DO3MHA-11 | 2026-09-04 05:00:19 | 47.46960 | 11.56062 | 143° | 37km/h | 18304m | 4.6m/s | -57.9°C | 4.9% | 76.6hPa | 2.7V | 00:00:00 | 01:21:11 | 00:00:00 | |
| S52SK | 2026-09-04 05:00:18 | 47.46960 | 11.56062 | 144° | 37km/h | 18304m | 4.6m/s | 0°C | 0% | 0hPa | 2.7V | 00:00:00 | 00:00:00 | 00:00:00 | |
| DO3MHA-12 | 2026-09-04 05:00:17 | 47.46974 | 11.56045 | 143° | 38km/h | 18294m | 4.0m/s | -57.9°C | 4.9% | 76.7hPa | 2.7V | 00:00:00 | 01:21:09 | 00:00:00 | |
| OE5MMP-10 | 2026-09-04 05:00:16 | 47.46981 | 11.56037 | 142° | 38km/h | 18290m | 5.3m/s | -57.9°C | 4.9% | 76.7hPa | 2.7V | 02:17:00 | 01:21:08 | 00:00:00 | |
| DG1MJG | 2026-09-04 05:00:15 | 47.46981 | 11.56037 | 142° | 37km/h | 18290m | 5.4m/s | -58.0°C | 1.3% | 76.8hPa | 2.7V | 02:17:00 | 00:00:00 | 00:00:00 | |
| S52SK | 2026-09-04 05:00:12 | 47.47002 | 11.56012 | 144° | 35km/h | 18275m | 5.5m/s | 0°C | 0% | 0hPa | 2.7V | 00:00:00 | 00:00:00 | 00:00:00 | |
| BAUMI2-15 | 2026-09-04 05:00:11 | 47.47018 | 11.55995 | 145° | 40km/h | 18265m | 5.7m/s | -57.8°C | 4.8% | 77.0hPa | 2.7V | 02:17:00 | 01:21:03 | 00:00:00 | |
| DO3MHA-11 | 2026-09-04 05:00:09 | 47.47034 | 11.55978 | 143° | 38km/h | 18256m | 5.2m/s | -57.8°C | 4.8% | 77.1hPa | 2.6V | 02:17:00 | 01:21:01 | 00:00:00 | |
| DO3MHA-12 | 2026-09-04 05:00:07 | 47.47049 | 11.55960 | 139° | 38km/h | 18246m | 4.3m/s | -57.7°C | 4.7% | 77.3hPa | 2.6V | 02:17:00 | 01:20:59 | 00:00:00 | |
| OE5MMP-10 | 2026-09-04 05:00:06 | 47.47056 | 11.55949 | 135° | 38km/h | 18241m | 5.9m/s | -57.7°C | 4.8% | 77.3hPa | 2.7V | 00:00:00 | 01:20:58 | 00:00:00 | |
| IN3HCDX | 2026-09-04 05:00:05 | 47.47056 | 11.55949 | 136° | 40km/h | 18241m | 6.0m/s | -57.7°C | 1.3% | 77.4hPa | 2.7V | 02:17:00 | 00:00:00 | 00:00:00 | |
| DF1GD-15 | 2026-09-04 05:00:03 | 47.47070 | 11.55927 | 130° | 40km/h | 18231m | 5.2m/s | -57.7°C | 1.4% | 77.5hPa | 2.7V | 02:17:00 | 00:00:00 | 00:00:00 | |
| DB0ND-19 | 2026-09-04 05:00:00 | 47.47093 | 11.55882 | 128° | 38km/h | 18212m | 5.1m/s | -57.7°C | 1.3% | 77.7hPa | 2.7V | 00:00:00 | 00:00:00 | 00:00:00 | |
| DF3TZ-5 | 2026-09-04 04:59:57 | 47.47112 | 11.55850 | 134° | 35km/h | 18197m | 4.7m/s | -57.6°C | 1.3% | 77.9hPa | 2.7V | 00:00:00 | 00:00:00 | 00:00:00 | |
| DL6DJ-15 | 2026-09-04 04:59:54 | 47.47133 | 11.55819 | 133° | 40km/h | 18184m | 3.9m/s | -57.6°C | 1.3% | 78.1hPa | 2.7V | 00:00:00 | 00:00:00 | 00:00:00 | |
| OE5DXL-15 | 2026-09-04 04:59:51 | 47.47153 | 11.55784 | 127° | 47km/h | 18171m | 3.4m/s | -57.6°C | 4.7% | 78.2hPa | 2.7V | 00:00:00 | 00:00:00 | 00:00:00 | |
| DO3MHA-11 | 2026-09-04 04:59:49 | 47.47166 | 11.55756 | 123° | 42km/h | 18161m | 4.7m/s | -57.6°C | 4.7% | 78.3hPa | 2.7V | 00:00:00 | 01:20:41 | 00:00:00 | |
| DO3MHA-12 | 2026-09-04 04:59:47 | 47.47178 | 11.55727 | 121° | 44km/h | 18151m | 5.8m/s | -57.8°C | 4.8% | 78.4hPa | 2.7V | 00:00:00 | 01:20:39 | 00:00:00 | |
| OE5MMP-10 | 2026-09-04 04:59:46 | 47.47183 | 11.55714 | 120° | 44km/h | 18146m | 4.4m/s | -57.9°C | 4.9% | 78.5hPa | 2.7V | 02:17:00 | 01:20:38 | 00:00:00 | |
| DG1MJG | 2026-09-04 04:59:45 | 47.47183 | 11.55714 | 120° | 40km/h | 18146m | 4.4m/s | -57.9°C | 1.4% | 78.5hPa | 2.6V | 02:18:00 | 00:00:00 | 00:00:00 | |
| IN3HCDX | 2026-09-04 04:59:44 | 47.47188 | 11.55701 | 120° | 38km/h | 18141m | 3.9m/s | -58.0°C | 1.3% | 78.6hPa | 2.6V | 02:18:00 | 00:00:00 | 00:00:00 | |
| DF1GD-15 | 2026-09-04 04:59:42 | 47.47198 | 11.55675 | 123° | 42km/h | 18132m | 3.9m/s | -58.0°C | 1.4% | 78.7hPa | 2.6V | 02:18:00 | 00:00:00 | 00:00:00 | |
| DG1MFX-10 | 2026-09-04 04:59:39 | 47.47217 | 11.55636 | 126° | 44km/h | 18119m | 4.3m/s | -58.2°C | 1.4% | 78.9hPa | 2.6V | 02:18:00 | 00:00:00 | 00:00:00 | |
| DO3MHA-12 | 2026-09-04 04:59:37 | 47.47236 | 11.55590 | 119° | 51km/h | 18105m | 5.1m/s | -58.1°C | 4.7% | 79.0hPa | 2.6V | 02:18:00 | 01:20:29 | 00:00:00 | |
| OE5MMP-10 | 2026-09-04 04:59:36 | 47.47242 | 11.55573 | 116° | 51km/h | 18100m | 4.7m/s | -58.0°C | 4.7% | 79.1hPa | 2.6V | 00:00:00 | 01:20:28 | 00:00:00 | |
| OE5WHR-10 | 2026-09-04 04:59:34 | 47.47252 | 11.55538 | 111° | 51km/h | 18090m | 5.0m/s | -58.0°C | 4.9% | 79.2hPa | 2.6V | 00:00:00 | 01:20:26 | 00:00:00 | |
| OE3JTB-15 | 2026-09-04 04:59:33 | 47.47256 | 11.55521 | 109° | 47km/h | 18085m | 4.2m/s | -58.1°C | 5.0% | 79.3hPa | 2.6V | 00:00:00 | 00:00:00 | 00:00:00 | |
| DK5PH-5 | 2026-09-04 04:59:30 | 47.47266 | 11.55467 | 106° | 46km/h | 18071m | 5.5m/s | -58.1°C | 4.9% | 79.4hPa | 2.6V | 00:00:00 | 01:20:22 | 00:00:00 | |
| DO3MHA-11 | 2026-09-04 04:59:29 | 47.47270 | 11.55449 | 108° | 53km/h | 18066m | 4.3m/s | -58.0°C | 4.9% | 79.5hPa | 2.6V | 00:00:00 | 01:20:21 | 00:00:00 | |
| DO3MHA-12 | 2026-09-04 04:59:27 | 47.47279 | 11.55412 | 112° | 51km/h | 18057m | 5.2m/s | -58.1°C | 5.0% | 79.6hPa | 2.6V | 00:00:00 | 01:20:19 | 00:00:00 | |
| OE5MMP-10 | 2026-09-04 04:59:26 | 47.47284 | 11.55393 | 113° | 51km/h | 18053m | 3.6m/s | -58.2°C | 5.0% | 79.7hPa | 2.6V | 00:00:00 | 01:20:18 | 00:00:00 | |
| DL6DJ-15 | 2026-09-04 04:59:23 | 47.47301 | 11.55339 | 115° | 53km/h | 18040m | 3.7m/s | -58.3°C | 1.4% | 79.9hPa | 2.6V | 00:00:00 | 00:00:00 | 00:00:00 | |
| NBG1-10 | 2026-09-04 04:59:22 | 47.47307 | 11.55321 | 117° | 40km/h | 18035m | 5.4m/s | -58.2°C | 5.0% | 79.9hPa | 2.6V | 00:00:00 | 01:20:14 | 00:00:00 | |
| OE5DXL-15 | 2026-09-04 04:59:21 | 47.47312 | 11.55304 | 117° | 40km/h | 18030m | 4.5m/s | -58.2°C | 4.9% | 79.9hPa | 2.6V | 00:00:00 | 00:00:00 | 00:00:00 | |
| DB0UT-7 | 2026-09-04 04:59:18 | 47.47325 | 11.55254 | 105° | 38km/h | 18016m | 4.4m/s | -58.2°C | 4.9% | 80.1hPa | 2.6V | 00:00:00 | 01:20:10 | 00:00:00 | |
| DO3MHA-12 | 2026-09-04 04:59:17 | 47.47328 | 11.55236 | 102° | 44km/h | 18012m | 5.4m/s | -58.2°C | 4.8% | 80.2hPa | 2.6V | 00:00:00 | 01:20:09 | 00:00:00 | |
| OE5MMP-10 | 2026-09-04 04:59:16 | 47.47330 | 11.55219 | 100° | 42km/h | 18006m | 4.9m/s | -58.2°C | 4.9% | 80.3hPa | 2.6V | 02:18:00 | 01:20:08 | 00:00:00 | |
| DG1MJG | 2026-09-04 04:59:14 | 47.47332 | 11.55202 | 98° | 46km/h | 18002m | 4.0m/s | -58.2°C | 1.4% | 80.4hPa | 2.7V | 02:18:00 | 00:00:00 | 00:00:00 | |
| OE5WHR-10 | 2026-09-04 04:59:13 | 47.47334 | 11.55169 | 96° | 38km/h | 17992m | 4.1m/s | -58.2°C | 5.0% | 80.4hPa | 2.7V | 02:18:00 | 00:00:00 | 00:00:00 | |
| DO3MHA-11 | 2026-09-04 04:59:09 | 47.47342 | 11.55108 | 107° | 40km/h | 17974m | 4.0m/s | -58.1°C | 5.0% | 80.6hPa | 2.7V | 02:18:00 | 01:20:01 | 00:00:00 | |
| DF7PN | 2026-09-04 04:59:08 | 47.47349 | 11.55079 | 113° | 38km/h | 17966m | 5.0m/s | -58.1°C | 1.4% | 80.8hPa | 2.6V | 00:00:00 | 00:00:00 | 00:00:00 | |
| DO3MHA-12 | 2026-09-04 04:59:07 | 47.47349 | 11.55079 | 114° | 40km/h | 17966m | 5.0m/s | -58.1°C | 5.0% | 80.7hPa | 2.6V | 02:18:00 | 01:19:59 | 00:00:00 | |
| OE5MMP-10 | 2026-09-04 04:59:06 | 47.47353 | 11.55066 | 116° | 38km/h | 17962m | 4.1m/s | -58.0°C | 4.9% | 80.8hPa | 2.6V | 00:00:00 | 01:19:58 | 00:00:00 | |
| OE3JTB-15 | 2026-09-04 04:59:04 | 47.47361 | 11.55040 | 113° | 35km/h | 17953m | 5.0m/s | -58.1°C | 4.9% | 80.9hPa | 2.6V | 00:00:00 | 01:19:56 | 00:00:00 | |
| S52SK | 2026-09-04 04:59:03 | 47.47361 | 11.55040 | 114° | 40km/h | 17953m | 5.1m/s | 0°C | 0% | 0hPa | 2.6V | 02:18:00 | 00:00:00 | 00:00:00 | |
| DL1ZP-14 | 2026-09-04 04:59:02 | 47.47373 | 11.54983 | 98° | 40km/h | 17935m | 5.8m/s | -58.4°C | 1.4% | 81.2hPa | 2.6V | 00:00:00 | 00:00:00 | 00:00:00 | |
| DB0ND-19 | 2026-09-04 04:58:58 | 47.47375 | 11.54939 | 90° | 35km/h | 17921m | 4.7m/s | -58.3°C | 1.5% | 81.4hPa | 2.6V | 00:00:00 | 00:00:00 | 00:00:00 | |
| DF3TZ-5 | 2026-09-04 04:58:55 | 47.47376 | 11.54903 | 98° | 29km/h | 17908m | 4.6m/s | -58.1°C | 1.5% | 81.6hPa | 2.6V | 00:00:00 | 00:00:00 | 00:00:00 | |
| DL6DJ-15 | 2026-09-04 04:58:52 | 47.47382 | 11.54872 | 108° | 27km/h | 17895m | 4.1m/s | -58.1°C | 1.4% | 81.8hPa | 2.6V | 00:00:00 | 00:00:00 | 00:00:00 | |
| OE5DXL-15 | 2026-09-04 04:58:51 | 47.47382 | 11.54871 | 109° | 33km/h | 17895m | 4.1m/s | -58.0°C | 5.0% | 81.7hPa | 2.6V | 02:18:00 | 00:00:00 | 00:00:00 | |
| DO3MHA-11 | 2026-09-04 04:58:49 | 47.47386 | 11.54850 | 104° | 35km/h | 17886m | 4.9m/s | -58.0°C | 4.8% | 81.8hPa | 2.6V | 00:00:00 | 01:19:41 | 00:00:00 | |
| DO3MHA-12 | 2026-09-04 04:58:47 | 47.47389 | 11.54825 | 102° | 33km/h | 17877m | 5.9m/s | -57.9°C | 4.8% | 81.9hPa | 2.6V | 00:00:00 | 01:19:39 | 00:00:00 | |
| OE5MMP-10 | 2026-09-04 04:58:46 | 47.47391 | 11.54812 | 102° | 33km/h | 17871m | 4.3m/s | -57.8°C | 4.8% | 82.0hPa | 2.6V | 02:18:00 | 01:19:38 | 00:00:00 | |
| DG1MJG | 2026-09-04 04:58:43 | 47.47395 | 11.54786 | 104° | 38km/h | 17862m | 4.9m/s | -57.8°C | 1.4% | 82.2hPa | 2.6V | 02:19:00 | 00:00:00 | 00:00:00 | |
| OE5DRO-10 | 2026-09-04 04:58:42 | 47.47400 | 11.54760 | 109° | 33km/h | 17854m | 5.4m/s | -57.7°C | 4.8% | 82.2hPa | 2.6V | 02:19:00 | 00:00:00 | 00:00:00 | |
| IN3HCDX | 2026-09-04 04:58:41 | 47.47400 | 11.54760 | 109° | 33km/h | 17854m | 5.5m/s | -57.7°C | 1.4% | 82.3hPa | 2.7V | 02:19:00 | 00:00:00 | 00:00:00 | |
| DF1GD-15 | 2026-09-04 04:58:40 | 47.47403 | 11.54749 | 116° | 29km/h | 17849m | 4.6m/s | -57.7°C | 1.4% | 82.3hPa | 2.7V | 02:19:00 | 00:00:00 | 00:00:00 | |
| DO3MHA-11 | 2026-09-04 04:58:39 | 47.47409 | 11.54730 | 119° | 33km/h | 17840m | 5.3m/s | -57.6°C | 4.8% | 82.4hPa | 2.7V | 02:19:00 | 01:19:31 | 00:00:00 | |
| DO3MHA-12 | 2026-09-04 04:58:37 | 47.47415 | 11.54711 | 112° | 35km/h | 17831m | 4.6m/s | -57.8°C | 4.9% | 82.5hPa | 2.6V | 02:19:00 | 01:19:29 | 00:00:00 | |
| OE5MMP-10 | 2026-09-04 04:58:36 | 47.47418 | 11.54701 | 108° | 35km/h | 17826m | 5.0m/s | -57.9°C | 5.0% | 82.6hPa | 2.7V | 00:00:00 | 01:19:28 | 00:00:00 | |
| OE3JTB-15 | 2026-09-04 04:58:35 | 47.47420 | 11.54691 | 106° | 31km/h | 17822m | 3.1m/s | -57.9°C | 5.0% | 82.6hPa | 2.7V | 02:19:00 | 00:00:00 | 00:00:00 | |
| OE5WHR-10 | 2026-09-04 04:58:31 | 47.47430 | 11.54639 | 108° | 31km/h | 17805m | 5.0m/s | -58.1°C | 4.8% | 82.8hPa | 2.7V | 00:00:00 | 01:19:23 | 00:00:00 | |
| DK5PH-5 | 2026-09-04 04:58:30 | 47.47433 | 11.54626 | 111° | 31km/h | 17801m | 4.5m/s | -58.1°C | 0% | 82.9hPa | 2.7V | 02:19:00 | 01:19:22 | 00:00:00 | |
| DO3MHA-11 | 2026-09-04 04:58:29 | 47.47437 | 11.54613 | 115° | 31km/h | 17796m | 3.9m/s | -58.2°C | 4.9% | 83.0hPa | 2.7V | 00:00:00 | 01:19:21 | 00:00:00 | |
| DB0ND-19 | 2026-09-04 04:58:27 | 47.47450 | 11.54579 | 124° | 33km/h | 17783m | 3.5m/s | -58.5°C | 1.5% | 83.2hPa | 2.7V | 00:00:00 | 00:00:00 | 00:00:00 | |
| OE5MMP-10 | 2026-09-04 04:58:26 | 47.47450 | 11.54579 | 125° | 29km/h | 17783m | 3.4m/s | -58.4°C | 5.1% | 83.2hPa | 2.7V | 00:00:00 | 01:19:18 | 00:00:00 | |
| OE5DRO-10 | 2026-09-04 04:58:23 | 47.47463 | 11.54553 | 125° | 29km/h | 17770m | 3.8m/s | -58.4°C | 5.1% | 83.3hPa | 2.7V | 00:00:00 | 00:00:00 | 00:00:00 | |
| DL6DJ-15 | 2026-09-04 04:58:21 | 47.47474 | 11.54528 | 123° | 24km/h | 17756m | 5.6m/s | -58.4°C | 1.5% | 83.6hPa | 2.7V | 00:00:00 | 00:00:00 | 00:00:00 | |
| OE5DXL-15 | 2026-09-04 04:58:20 | 47.47474 | 11.54528 | 124° | 31km/h | 17756m | 5.6m/s | -58.3°C | 5.1% | 83.6hPa | 2.7V | 00:00:00 | 00:00:00 | 00:00:00 | |
| DO3MHA-11 | 2026-09-04 04:58:19 | 47.47477 | 11.54520 | 123° | 31km/h | 17752m | 3.8m/s | -58.2°C | 5.1% | 83.6hPa | 2.7V | 00:00:00 | 01:19:11 | 00:00:00 | |
| DB0UT-7 | 2026-09-04 04:58:18 | 47.47481 | 11.54511 | 122° | 31km/h | 17747m | 4.9m/s | -58.2°C | 5.1% | 83.6hPa | 2.7V | 02:19:00 | 01:19:10 | 00:00:00 | |
| DO3MHA-12 | 2026-09-04 04:58:17 | 47.47485 | 11.54502 | 123° | 29km/h | 17742m | 4.8m/s | -58.2°C | 5.1% | 83.7hPa | 2.6V | 00:00:00 | 01:19:09 | 00:00:00 | |
| OE5MMP-10 | 2026-09-04 04:58:16 | 47.47489 | 11.54492 | 124° | 29km/h | 17738m | 2.9m/s | -58.2°C | 5.1% | 83.7hPa | 2.6V | 02:19:00 | 01:19:08 | 00:00:00 | |
| DG1MJG | 2026-09-04 04:58:13 | 47.47498 | 11.54472 | 122° | 31km/h | 17730m | 4.6m/s | -58.3°C | 1.5% | 83.9hPa | 2.6V | 02:19:00 | 00:00:00 | 00:00:00 | |
| OE5WHR-10 | 2026-09-04 04:58:10 | 47.47513 | 11.54432 | 118° | 31km/h | 17713m | 4.1m/s | -58.3°C | 4.9% | 84.1hPa | 2.6V | 02:19:00 | 00:00:00 | 00:00:00 | |
| DO3MHA-11 | 2026-09-04 04:58:09 | 47.47516 | 11.54423 | 118° | 31km/h | 17708m | 4.9m/s | -58.2°C | 4.9% | 84.2hPa | 2.6V | 02:19:00 | 01:19:01 | 00:00:00 | |
| DO3MHA-12 | 2026-09-04 04:58:07 | 47.47522 | 11.54407 | 123° | 33km/h | 17699m | 4.8m/s | -58.4°C | 4.9% | 84.3hPa | 2.6V | 02:19:00 | 01:18:59 | 00:00:00 | |
| OE5MMP-10 | 2026-09-04 04:58:06 | 47.47526 | 11.54398 | 128° | 33km/h | 17694m | 5.0m/s | -58.4°C | 5.0% | 84.3hPa | 2.6V | 00:00:00 | 01:18:58 | 00:00:00 | |
| OE5DRO-10 | 2026-09-04 04:58:04 | 47.47535 | 11.54381 | 128° | 35km/h | 17685m | 5.6m/s | -58.4°C | 5.0% | 84.5hPa | 2.6V | 00:00:00 | 00:00:00 | 00:00:00 | |
| DB0ND-19 | 2026-09-04 04:57:56 | 47.47569 | 11.54278 | 110° | 31km/h | 17646m | 4.5m/s | -58.5°C | 1.5% | 85.0hPa | 2.6V | 00:00:00 | 00:00:00 | 00:00:00 | |
| DF3TZ-5 | 2026-09-04 04:57:53 | 47.47578 | 11.54244 | 109° | 33km/h | 17633m | 4.2m/s | -58.6°C | 1.5% | 85.2hPa | 2.6V | 00:00:00 | 00:00:00 | 00:00:00 | |
| DL6DJ-15 | 2026-09-04 04:57:50 | 47.47589 | 11.54209 | 116° | 35km/h | 17619m | 4.4m/s | -58.8°C | 1.5% | 85.4hPa | 2.6V | 00:00:00 | 00:00:00 | 00:00:00 | |
| DO3MHA-11 | 2026-09-04 04:57:49 | 47.47589 | 11.54209 | 117° | 35km/h | 17619m | 4.4m/s | -58.7°C | 5.2% | 85.3hPa | 2.6V | 00:00:00 | 01:18:41 | 00:00:00 | |
| DB0UT-7 | 2026-09-04 04:57:48 | 47.47592 | 11.54197 | 114° | 37km/h | 17614m | 5.0m/s | -58.7°C | 5.2% | 85.4hPa | 2.6V | 00:00:00 | 00:00:00 | 00:00:00 | |
| DO3MHA-12 | 2026-09-04 04:57:47 | 47.47596 | 11.54184 | 112° | 35km/h | 17610m | 3.5m/s | -58.7°C | 5.2% | 85.5hPa | 2.6V | 00:00:00 | 01:18:39 | 00:00:00 | |
| OE5MMP-10 | 2026-09-04 04:57:46 | 47.47600 | 11.54172 | 114° | 35km/h | 17606m | 4.9m/s | -58.7°C | 5.1% | 85.5hPa | 2.6V | 02:19:00 | 01:18:38 | 00:00:00 | |
| OE5DRO-10 | 2026-09-04 04:57:45 | 47.47603 | 11.54160 | 115° | 37km/h | 17601m | 3.9m/s | -58.7°C | 5.1% | 85.6hPa | 2.6V | 02:20:00 | 00:00:00 | 00:00:00 | |
| NBG1-10 | 2026-09-04 04:57:43 | 47.47609 | 11.54136 | 106° | 38km/h | 17592m | 5.3m/s | -58.7°C | 5.3% | 85.7hPa | 2.7V | 00:00:00 | 01:18:35 | 00:00:00 | |
| DG1MJG | 2026-09-04 04:57:42 | 47.47609 | 11.54136 | 106° | 33km/h | 17592m | 5.3m/s | -58.7°C | 1.6% | 85.8hPa | 2.7V | 02:20:00 | 00:00:00 | 00:00:00 | |
| BAUMI2-15 | 2026-09-04 04:57:41 | 47.47612 | 11.54112 | 101° | 37km/h | 17583m | 4.9m/s | -58.6°C | 5.2% | 85.8hPa | 2.7V | 02:20:00 | 01:18:33 | 00:00:00 | |
| DO3MHA-11 | 2026-09-04 04:57:39 | 47.47616 | 11.54086 | 100° | 37km/h | 17574m | 4.3m/s | -58.5°C | 5.2% | 86.0hPa | 2.6V | 02:20:00 | 01:18:31 | 00:00:00 | |
| IN3HCDX | 2026-09-04 04:57:38 | 47.47616 | 11.54086 | 100° | 37km/h | 17574m | 4.4m/s | -58.6°C | 1.5% | 86.0hPa | 2.6V | 02:20:00 | 00:00:00 | 00:00:00 | |
| DO3MHA-12 | 2026-09-04 04:57:37 | 47.47618 | 11.54059 | 95° | 38km/h | 17565m | 3.7m/s | -58.5°C | 5.3% | 86.1hPa | 2.6V | 02:20:00 | 01:18:29 | 00:00:00 | |
| OE5MMP-10 | 2026-09-04 04:57:36 | 47.47619 | 11.54045 | 96° | 38km/h | 17560m | 5.0m/s | -58.5°C | 5.3% | 86.1hPa | 2.6V | 00:00:00 | 01:18:28 | 00:00:00 | |
| DF7PN | 2026-09-04 04:57:35 | 47.47620 | 11.54031 | 99° | 37km/h | 17556m | 4.3m/s | -58.5°C | 1.6% | 86.3hPa | 2.6V | 00:00:00 | 00:00:00 | 00:00:00 | |
| BAUMI2-15 | 2026-09-04 04:57:31 | 47.47623 | 11.53976 | 91° | 38km/h | 17539m | 4.1m/s | -58.3°C | 5.0% | 86.4hPa | 2.6V | 00:00:00 | 01:18:23 | 00:00:00 | |
| DK5PH-5 | 2026-09-04 04:57:30 | 47.47623 | 11.53962 | 93° | 40km/h | 17534m | 5.5m/s | 0°C | 0% | 0hPa | 2.6V | 00:00:00 | 01:18:22 | 00:00:00 | |
| DO3MHA-11 | 2026-09-04 04:57:29 | 47.47624 | 11.53947 | 94° | 38km/h | 17529m | 4.1m/s | -58.3°C | 4.9% | 86.6hPa | 2.6V | 00:00:00 | 01:18:21 | 00:00:00 | |
| OE5WHR-10 | 2026-09-04 04:57:28 | 47.47624 | 11.53932 | 94° | 40km/h | 17525m | 3.4m/s | -58.3°C | 4.9% | 86.6hPa | 2.6V | 00:00:00 | 01:18:20 | 00:00:00 | |
| DO3MHA-12 | 2026-09-04 04:57:27 | 47.47625 | 11.53918 | 91° | 38km/h | 17521m | 5.0m/s | -58.4°C | 5.0% | 86.7hPa | 2.6V | 00:00:00 | 01:18:19 | 00:00:00 | |
| OE5MMP-10 | 2026-09-04 04:57:26 | 47.47625 | 11.53903 | 90° | 40km/h | 17517m | 3.9m/s | -58.4°C | 5.0% | 86.7hPa | 2.6V | 00:00:00 | 01:18:18 | 00:00:00 | |
| DB0ND-19 | 2026-09-04 04:57:25 | 47.47627 | 11.53836 | 89° | 38km/h | 17493m | 2.7m/s | -58.5°C | 1.6% | 87.1hPa | 2.6V | 00:00:00 | 00:00:00 | 00:00:00 | |
| DF3TZ-5 | 2026-09-04 04:57:22 | 47.47627 | 11.53836 | 89° | 38km/h | 17493m | 2.7m/s | -58.5°C | 1.6% | 87.1hPa | 2.6V | 00:00:00 | 00:00:00 | 00:00:00 | |
| BAUMI2-15 | 2026-09-04 04:57:21 | 47.47627 | 11.53836 | 90° | 44km/h | 17494m | 2.6m/s | -58.4°C | 5.3% | 87.1hPa | 2.6V | 00:00:00 | 01:18:13 | 00:00:00 | |
| DO3MHA-11 | 2026-09-04 04:57:19 | 47.47627 | 11.53805 | 91° | 44km/h | 17485m | 4.1m/s | -58.5°C | 5.2% | 87.2hPa | 2.6V | 00:00:00 | 01:18:11 | 00:00:00 | |
| DB0UT-7 | 2026-09-04 04:57:18 | 47.47627 | 11.53788 | 89° | 38km/h | 17481m | 3.3m/s | -58.5°C | 5.1% | 87.2hPa | 2.6V | 00:00:00 | 01:18:10 | 00:00:00 | |
| DO3MHA-12 | 2026-09-04 04:57:17 | 47.47626 | 11.53771 | 86° | 42km/h | 17477m | 4.7m/s | -58.5°C | 5.1% | 87.3hPa | 2.6V | 00:00:00 | 01:18:09 | 00:00:00 | |
| BAUMI2-15 | 2026-09-04 04:57:16 | 47.47625 | 11.53753 | 84° | 44km/h | 17472m | 4.4m/s | -58.6°C | 5.2% | 87.4hPa | 2.6V | 00:00:00 | 01:18:08 | 00:00:00 | |
| DG1MFX-10 | 2026-09-04 04:57:14 | 47.47624 | 11.53736 | 86° | 46km/h | 17468m | 4.1m/s | -58.6°C | 1.6% | 87.5hPa | 2.6V | 02:21:00 | 00:00:00 | 00:00:00 | |
| DG1MJG | 2026-09-04 04:57:12 | 47.47623 | 11.53704 | 88° | 42km/h | 17460m | 3.6m/s | -58.6°C | 1.6% | 87.6hPa | 2.6V | 02:21:00 | 00:00:00 | 00:00:00 | |
| BAUMI2-15 | 2026-09-04 04:57:11 | 47.47621 | 11.53673 | 84° | 40km/h | 17451m | 3.6m/s | -58.5°C | 5.2% | 87.7hPa | 2.6V | 02:20:00 | 01:18:03 | 00:00:00 | |
| NBG1-10 | 2026-09-04 04:57:10 | 47.47619 | 11.53658 | 85° | 33km/h | 17447m | 4.3m/s | -58.5°C | 5.2% | 87.7hPa | 2.7V | 02:20:00 | 01:18:02 | 00:00:00 | |
| DO3MHA-11 | 2026-09-04 04:57:09 | 47.47619 | 11.53643 | 89° | 40km/h | 17442m | 4.9m/s | -58.5°C | 5.2% | 87.8hPa | 2.7V | 02:20:00 | 01:18:01 | 00:00:00 | |
| OE3JTB-15 | 2026-09-04 04:57:08 | 47.47619 | 11.53629 | 92° | 33km/h | 17437m | 4.5m/s | -58.4°C | 5.1% | 87.8hPa | 2.6V | 02:20:00 | 00:00:00 | 00:00:00 | |
| OE5WHR-10 | 2026-09-04 04:57:07 | 47.47619 | 11.53614 | 91° | 35km/h | 17432m | 4.9m/s | -58.4°C | 5.1% | 87.9hPa | 2.6V | 02:20:00 | 00:00:00 | 00:00:00 | |
| OE5MMP-10 | 2026-09-04 04:57:06 | 47.47619 | 11.53599 | 92° | 38km/h | 17428m | 4.2m/s | -58.4°C | 5.1% | 88.0hPa | 2.6V | 00:00:00 | 01:17:58 | 00:00:00 | |
| DF7PN | 2026-09-04 04:57:04 | 47.47621 | 11.53568 | 96° | 40km/h | 17419m | 4.6m/s | -58.5°C | 1.5% | 88.2hPa | 2.6V | 00:00:00 | 00:00:00 | 00:00:00 | |
| DB0ND-19 | 2026-09-04 04:56:54 | 47.47625 | 11.53428 | 90° | 27km/h | 17368m | 4.3m/s | -58.7°C | 1.6% | 88.9hPa | 2.6V | 00:00:00 | 00:00:00 | 00:00:00 | |
| DF3TZ-5 | 2026-09-04 04:56:51 | 47.47627 | 11.53394 | 99° | 33km/h | 17354m | 3.6m/s | -58.7°C | 1.6% | 89.1hPa | 2.6V | 00:00:00 | 00:00:00 | 00:00:00 | |
| OE5DXL-15 | 2026-09-04 04:56:50 | 47.47627 | 11.53394 | 100° | 29km/h | 17354m | 3.5m/s | -58.7°C | 5.2% | 89.0hPa | 2.6V | 00:00:00 | 00:00:00 | 00:00:00 | |
| DO3MHA-11 | 2026-09-04 04:56:49 | 47.47629 | 11.53381 | 99° | 29km/h | 17350m | 5.0m/s | -58.8°C | 5.2% | 89.0hPa | 2.6V | 00:00:00 | 01:17:41 | 00:00:00 | |
| DB0UT-7 | 2026-09-04 04:56:48 | 47.47630 | 11.53368 | 101° | 29km/h | 17346m | 2.7m/s | -58.8°C | 5.3% | 89.1hPa | 2.6V | 02:20:00 | 00:00:00 | 00:00:00 | |
| DO3MHA-12 | 2026-09-04 04:56:47 | 47.47632 | 11.53356 | 104° | 27km/h | 17343m | 4.0m/s | -58.8°C | 5.3% | 89.2hPa | 2.6V | 00:00:00 | 01:17:39 | 00:00:00 | |
| OE5MMP-10 | 2026-09-04 04:56:46 | 47.47634 | 11.53343 | 108° | 27km/h | 17339m | 4.6m/s | -58.8°C | 5.3% | 89.3hPa | 2.6V | 02:20:00 | 01:17:38 | 00:00:00 | |
| S52SK | 2026-09-04 04:56:43 | 47.47639 | 11.53322 | 109° | 27km/h | 17329m | 4.5m/s | 0°C | 0% | 0hPa | 2.6V | 00:00:00 | 00:00:00 | 00:00:00 | |
| BAUMI2-15 | 2026-09-04 04:56:41 | 47.47645 | 11.53296 | 114° | 27km/h | 17317m | 5.0m/s | -58.7°C | 5.3% | 89.6hPa | 2.6V | 02:21:00 | 01:17:33 | 00:00:00 | |
| OE3JTB-15 | 2026-09-04 04:56:39 | 47.47650 | 11.53277 | 109° | 29km/h | 17308m | 5.4m/s | -58.7°C | 5.3% | 89.7hPa | 2.6V | 00:00:00 | 00:00:00 | 00:00:00 | |
| S52SK | 2026-09-04 04:56:38 | 47.47651 | 11.53277 | 110° | 27km/h | 17308m | 5.4m/s | 0°C | 0% | 0hPa | 2.6V | 00:00:00 | 00:00:00 | 00:00:00 | |
| DO3MHA-12 | 2026-09-04 04:56:37 | 47.47655 | 11.53258 | 110° | 29km/h | 17299m | 5.2m/s | -58.7°C | 5.3% | 89.8hPa | 2.6V | 02:21:00 | 01:17:29 | 00:00:00 | |
| OE5MMP-10 | 2026-09-04 04:56:36 | 47.47658 | 11.53247 | 112° | 27km/h | 17294m | 4.2m/s | -58.7°C | 5.3% | 89.9hPa | 2.6V | 00:00:00 | 01:17:28 | 00:00:00 | |
| DF1GD-15 | 2026-09-04 04:56:35 | 47.47657 | 11.53247 | 112° | 31km/h | 17294m | 4.2m/s | -58.7°C | 1.6% | 89.9hPa | 2.6V | 02:21:00 | 00:00:00 | 00:00:00 | |
| DG1MFX-10 | 2026-09-04 04:56:34 | 47.47660 | 11.53236 | 111° | 31km/h | 17290m | 4.8m/s | -58.6°C | 1.6% | 90.0hPa | 2.6V | 02:21:00 | 00:00:00 | 00:00:00 | |
| BAUMI2-15 | 2026-09-04 04:56:31 | 47.47672 | 11.53196 | 122° | 27km/h | 17272m | 4.2m/s | -58.5°C | 5.1% | 90.2hPa | 2.6V | 00:00:00 | 01:17:23 | 00:00:00 | |
| DK5PH-5 | 2026-09-04 04:56:30 | 47.47676 | 11.53187 | 123° | 29km/h | 17268m | 4.7m/s | 0°C | 0% | 0hPa | 2.6V | 00:00:00 | 01:17:22 | 00:00:00 | |
| DO3MHA-11 | 2026-09-04 04:56:29 | 47.47679 | 11.53179 | 122° | 29km/h | 17263m | 4.5m/s | -58.6°C | 5.1% | 90.4hPa | 2.6V | 00:00:00 | 01:17:21 | 00:00:00 | |
| DO3MHA-12 | 2026-09-04 04:56:27 | 47.47686 | 11.53163 | 126° | 31km/h | 17254m | 5.3m/s | -58.8°C | 5.2% | 90.5hPa | 2.6V | 00:00:00 | 01:17:19 | 00:00:00 | |
| OE5WHR-10 | 2026-09-04 04:56:25 | 47.47694 | 11.53146 | 124° | 31km/h | 17244m | 5.3m/s | -58.8°C | 5.2% | 90.6hPa | 2.6V | 00:00:00 | 01:17:17 | 00:00:00 | |
| DB0ND-19 | 2026-09-04 04:56:23 | 47.47706 | 11.53119 | 123° | 31km/h | 17231m | 5.6m/s | -58.8°C | 1.6% | 90.8hPa | 2.6V | 00:00:00 | 00:00:00 | 00:00:00 | |
| OE5DXL-15 | 2026-09-04 04:56:21 | 47.47710 | 11.53108 | 126° | 29km/h | 17226m | 3.5m/s | -58.7°C | 5.3% | 90.9hPa | 2.6V | 00:00:00 | 00:00:00 | 00:00:00 | |
| DF3TZ-5 | 2026-09-04 04:56:20 | 47.47721 | 11.53087 | 124° | 33km/h | 17217m | 4.6m/s | -58.7°C | 1.6% | 91.0hPa | 2.6V | 00:00:00 | 00:00:00 | 00:00:00 | |
| DO3MHA-11 | 2026-09-04 04:56:19 | 47.47721 | 11.53087 | 125° | 31km/h | 17217m | 4.6m/s | -58.7°C | 5.3% | 91.0hPa | 2.6V | 00:00:00 | 01:17:11 | 00:00:00 | |
| DB0UT-7 | 2026-09-04 04:56:18 | 47.47726 | 11.53076 | 126° | 29km/h | 17212m | 4.8m/s | -58.6°C | 5.2% | 91.0hPa | 2.6V | 00:00:00 | 01:17:10 | 00:00:00 | |
| DO3MHA-12 | 2026-09-04 04:56:17 | 47.47731 | 11.53066 | 130° | 29km/h | 17207m | 4.7m/s | -58.7°C | 5.2% | 91.1hPa | 2.6V | 00:00:00 | 01:17:09 | 00:00:00 | |
| OE5MMP-10 | 2026-09-04 04:56:16 | 47.47736 | 11.53056 | 132° | 29km/h | 17203m | 3.5m/s | -58.6°C | 5.2% | 91.2hPa | 2.6V | 02:21:00 | 01:17:08 | 00:00:00 | |
| IN3HCDX | 2026-09-04 04:56:15 | 47.47736 | 11.53056 | 132° | 33km/h | 17203m | 3.5m/s | -58.7°C | 1.6% | 91.3hPa | 2.6V | 02:22:00 | 00:00:00 | 00:00:00 | |
| DG1MFX-10 | 2026-09-04 04:56:14 | 47.47742 | 11.53048 | 134° | 29km/h | 17199m | 5.2m/s | -58.6°C | 1.6% | 91.3hPa | 2.6V | 02:22:00 | 00:00:00 | 00:00:00 | |
| DF1GD-15 | 2026-09-04 04:56:12 | 47.47752 | 11.53032 | 139° | 29km/h | 17190m | 5.1m/s | -58.6°C | 1.6% | 91.4hPa | 2.6V | 02:22:00 | 00:00:00 | 00:00:00 | |
| BAUMI2-15 | 2026-09-04 04:56:11 | 47.47762 | 11.53018 | 136° | 27km/h | 17181m | 4.9m/s | -58.5°C | 5.2% | 91.5hPa | 2.6V | 02:21:00 | 01:17:03 | 00:00:00 | |
| OE3JTB-15 | 2026-09-04 04:56:10 | 47.47767 | 11.53011 | 131° | 27km/h | 17177m | 4.2m/s | -58.4°C | 5.2% | 91.6hPa | 2.6V | 00:00:00 | 01:17:02 | 00:00:00 | |
| DO3MHA-11 | 2026-09-04 04:56:09 | 47.47771 | 11.53003 | 125° | 29km/h | 17172m | 3.7m/s | -58.5°C | 5.2% | 91.6hPa | 2.6V | 02:21:00 | 01:17:01 | 00:00:00 | |
| DO3MHA-12 | 2026-09-04 04:56:07 | 47.47779 | 11.52985 | 120° | 29km/h | 17164m | 3.9m/s | -58.4°C | 5.2% | 91.8hPa | 2.7V | 02:21:00 | 01:16:59 | 00:00:00 | |
| OE5MMP-10 | 2026-09-04 04:56:06 | 47.47783 | 11.52974 | 117° | 29km/h | 17159m | 4.7m/s | -58.3°C | 5.1% | 91.8hPa | 2.6V | 00:00:00 | 01:16:58 | 00:00:00 | |
| OE5WHR-10 | 2026-09-04 04:56:04 | 47.47789 | 11.52953 | 114° | 27km/h | 17150m | 3.9m/s | -58.3°C | 5.2% | 92.0hPa | 2.6V | 02:21:00 | 00:00:00 | 00:00:00 | |
| DF3TZ-5 | 2026-09-04 04:55:48 | 47.47835 | 11.52806 | 112° | 26km/h | 17077m | 4.1m/s | -58.2°C | 1.5% | 93.1hPa | 2.6V | 00:00:00 | 00:00:00 | 00:00:00 | |
| DL6DJ-15 | 2026-09-04 04:55:45 | 47.47841 | 11.52779 | 100° | 26km/h | 17064m | 3.5m/s | -58.4°C | 1.5% | 93.3hPa | 2.6V | 00:00:00 | 00:00:00 | 00:00:00 | |
| OE5WHR-10 | 2026-09-04 04:55:43 | 47.47843 | 11.52759 | 100° | 26km/h | 17055m | 4.0m/s | -58.3°C | 5.2% | 93.4hPa | 2.6V | 00:00:00 | 00:00:00 | 00:00:00 | |
| DG1MJG | 2026-09-04 04:55:40 | 47.47845 | 11.52738 | 96° | 26km/h | 17047m | 4.8m/s | -58.3°C | 1.5% | 93.5hPa | 2.6V | 02:22:00 | 00:00:00 | 00:00:00 | |
| DO3MHA-11 | 2026-09-04 04:55:39 | 47.47846 | 11.52719 | 94° | 26km/h | 17038m | 5.4m/s | -58.2°C | 5.2% | 93.6hPa | 2.6V | 02:22:00 | 01:16:31 | 00:00:00 | |
| DO3MHA-12 | 2026-09-04 04:55:37 | 47.47847 | 11.52700 | 95° | 26km/h | 17029m | 4.0m/s | -58.1°C | 5.2% | 93.7hPa | 2.7V | 02:22:00 | 01:16:29 | 00:00:00 | |
| OE5MMP-10 | 2026-09-04 04:55:36 | 47.47847 | 11.52691 | 91° | 26km/h | 17024m | 5.8m/s | -58.0°C | 5.2% | 93.8hPa | 2.7V | 00:00:00 | 01:16:28 | 00:00:00 | |
| S52SK | 2026-09-04 04:55:33 | 47.47847 | 11.52673 | 89° | 26km/h | 17014m | 5.8m/s | 0°C | 0% | 0hPa | 2.7V | 00:00:00 | 00:00:00 | 00:00:00 | |
| OE5DRO-10 | 2026-09-04 04:55:32 | 47.47846 | 11.52653 | 86° | 24km/h | 17004m | 4.4m/s | -57.8°C | 5.1% | 94.1hPa | 2.7V | 00:00:00 | 00:00:00 | 00:00:00 | |
| NBG1-10 | 2026-09-04 04:55:31 | 47.47846 | 11.52643 | 84° | 22km/h | 17000m | 5.0m/s | -57.8°C | 5.1% | 94.2hPa | 2.7V | 02:22:00 | 01:16:23 | 00:00:00 | |
| DO3MHA-11 | 2026-09-04 04:55:29 | 47.47845 | 11.52624 | 90° | 26km/h | 16991m | 5.8m/s | -57.7°C | 5.0% | 94.3hPa | 2.6V | 00:00:00 | 01:16:21 | 00:00:00 | |
| S52SK | 2026-09-04 04:55:28 | 47.47845 | 11.52624 | 91° | 27km/h | 16991m | 5.8m/s | 0°C | 0% | 0hPa | 2.6V | 00:00:00 | 00:00:00 | 00:00:00 | |
| DO3MHA-12 | 2026-09-04 04:55:27 | 47.47846 | 11.52604 | 97° | 24km/h | 16981m | 5.2m/s | -57.6°C | 5.0% | 94.5hPa | 2.6V | 00:00:00 | 01:16:19 | 00:00:00 | |
| OE5MMP-10 | 2026-09-04 04:55:26 | 47.47847 | 11.52595 | 97° | 24km/h | 16976m | 4.7m/s | -57.6°C | 5.0% | 94.5hPa | 2.6V | 00:00:00 | 01:16:18 | 00:00:00 | |
| OE5WHR-10 | 2026-09-04 04:55:22 | 47.47851 | 11.52559 | 101° | 22km/h | 16958m | 4.1m/s | -57.4°C | 4.9% | 94.8hPa | 2.6V | 00:00:00 | 01:16:14 | 00:00:00 | |
| OE5DXL-15 | 2026-09-04 04:55:20 | 47.47852 | 11.52542 | 90° | 20km/h | 16948m | 4.0m/s | -57.4°C | 4.9% | 95.0hPa | 2.6V | 00:00:00 | 00:00:00 | 00:00:00 | |
| DO3MHA-11 | 2026-09-04 04:55:19 | 47.47852 | 11.52533 | 90° | 22km/h | 16944m | 5.6m/s | -57.4°C | 4.9% | 95.0hPa | 2.6V | 00:00:00 | 01:16:11 | 00:00:00 | |
| DB0UT-7 | 2026-09-04 04:55:18 | 47.47852 | 11.52524 | 89° | 20km/h | 16938m | 4.4m/s | -57.3°C | 4.9% | 95.1hPa | 2.6V | 02:22:00 | 01:16:10 | 00:00:00 | |
| DO3MHA-12 | 2026-09-04 04:55:17 | 47.47852 | 11.52516 | 87° | 22km/h | 16933m | 5.6m/s | -57.3°C | 4.9% | 95.1hPa | 2.6V | 00:00:00 | 01:16:09 | 00:00:00 | |
| OE5MMP-10 | 2026-09-04 04:55:16 | 47.47851 | 11.52508 | 87° | 22km/h | 16928m | 4.1m/s | -57.3°C | 5.0% | 95.2hPa | 2.6V | 02:22:00 | 01:16:08 | 00:00:00 | |
| DL6DJ-15 | 2026-09-04 04:55:14 | 47.47852 | 11.52494 | 97° | 20km/h | 16919m | 4.8m/s | -57.3°C | 1.5% | 95.4hPa | 2.6V | 00:00:00 | 00:00:00 | 00:00:00 | |
| OE5DRO-10 | 2026-09-04 04:55:13 | 47.47853 | 11.52486 | 101° | 20km/h | 16915m | 4.3m/s | -57.2°C | 5.0% | 95.5hPa | 2.6V | 00:00:00 | 00:00:00 | 00:00:00 | |
| OE3JTB-15 | 2026-09-04 04:55:12 | 47.47854 | 11.52478 | 99° | 20km/h | 16910m | 5.5m/s | -57.1°C | 5.0% | 95.5hPa | 2.6V | 00:00:00 | 00:00:00 | 00:00:00 | |
| DG1MFX-10 | 2026-09-04 04:55:11 | 47.47854 | 11.52478 | 100° | 22km/h | 16910m | 5.5m/s | -57.2°C | 1.6% | 95.6hPa | 2.6V | 02:22:00 | 00:00:00 | 00:00:00 | |
| DO3MHA-11 | 2026-09-04 04:55:09 | 47.47858 | 11.52452 | 108° | 20km/h | 16895m | 3.6m/s | -57.0°C | 4.9% | 95.8hPa | 2.6V | 02:22:00 | 01:16:01 | 00:00:00 | |
| DO3MHA-12 | 2026-09-04 04:55:07 | 47.47861 | 11.52436 | 102° | 18km/h | 16886m | 5.8m/s | -57.0°C | 4.8% | 95.9hPa | 2.7V | 02:22:00 | 01:15:59 | 00:00:00 | |
| OE5MMP-10 | 2026-09-04 04:55:06 | 47.47862 | 11.52428 | 97° | 18km/h | 16881m | 4.3m/s | -57.0°C | 4.9% | 96.0hPa | 2.6V | 00:00:00 | 01:15:58 | 00:00:00 | |
| DF7PN | 2026-09-04 04:55:00 | 47.47865 | 11.52389 | 110° | 11km/h | 16852m | 4.5m/s | -56.9°C | 1.5% | 96.4hPa | 2.6V | 00:00:00 | 00:00:00 | 00:00:00 | |
| DO3MHA-11 | 2026-09-04 04:54:59 | 47.47866 | 11.52384 | 118° | 22km/h | 16847m | 5.7m/s | -56.8°C | 4.9% | 96.5hPa | 2.6V | 00:00:00 | 01:15:51 | 00:00:00 | |
| DK5PH-5 | 2026-09-04 04:54:58 | 47.47868 | 11.52378 | 122° | 38km/h | 16842m | 5.0m/s | 0°C | 0% | 0hPa | 2.6V | 02:22:00 | 01:15:50 | 00:00:00 | |
| DO3MHA-12 | 2026-09-04 04:54:57 | 47.47871 | 11.52371 | 120° | 22km/h | 16837m | 4.5m/s | -56.7°C | 4.8% | 96.6hPa | 2.6V | 00:00:00 | 01:15:49 | 00:00:00 | |
| OE5MMP-10 | 2026-09-04 04:54:56 | 47.47874 | 11.52363 | 116° | 20km/h | 16832m | 5.9m/s | -56.7°C | 4.9% | 96.7hPa | 2.6V | 00:00:00 | 01:15:48 | 00:00:00 | |
| OE5DRO-10 | 2026-09-04 04:54:54 | 47.47879 | 11.52348 | 120° | 22km/h | 16821m | 4.7m/s | -56.6°C | 4.9% | 96.9hPa | 2.6V | 02:22:00 | 00:00:00 | 00:00:00 | |
| IN3HCDX | 2026-09-04 04:54:51 | 47.47885 | 11.52336 | 137° | 20km/h | 16811m | 4.5m/s | -56.5°C | 1.5% | 97.1hPa | 2.6V | 00:00:00 | 00:00:00 | 00:00:00 | |
| OE5DXL-15 | 2026-09-04 04:54:50 | 47.47892 | 11.52325 | 130° | 26km/h | 16801m | 5.9m/s | -56.4°C | 4.8% | 97.2hPa | 2.6V | 00:00:00 | 00:00:00 | 00:00:00 | |
| DO3MHA-11 | 2026-09-04 04:54:49 | 47.47896 | 11.52319 | 129° | 22km/h | 16795m | 6.8m/s | -56.4°C | 4.8% | 97.3hPa | 2.6V | 00:00:00 | 01:15:41 | 00:00:00 | |
| DB0UT-7 | 2026-09-04 04:54:48 | 47.47899 | 11.52313 | 130° | 26km/h | 16789m | 5.2m/s | -56.3°C | 4.9% | 97.4hPa | 2.6V | 00:00:00 | 00:00:00 | 00:00:00 | |
| DO3MHA-12 | 2026-09-04 04:54:47 | 47.47902 | 11.52308 | 129° | 24km/h | 16783m | 5.4m/s | -56.3°C | 4.9% | 97.5hPa | 2.6V | 00:00:00 | 01:15:39 | 00:00:00 | |
| OE5MMP-10 | 2026-09-04 04:54:46 | 47.47905 | 11.52301 | 127° | 24km/h | 16778m | 5.4m/s | -56.2°C | 4.9% | 97.5hPa | 2.6V | 02:22:00 | 01:15:38 | 00:00:00 | |
| OE3JTB-15 | 2026-09-04 04:54:43 | 47.47917 | 11.52282 | 139° | 27km/h | 16762m | 5.0m/s | -56.2°C | 4.8% | 97.8hPa | 2.6V | 00:00:00 | 01:15:35 | 00:00:00 | |
| OE5WHR-10 | 2026-09-04 04:54:40 | 47.47929 | 11.52263 | 128° | 27km/h | 16746m | 4.7m/s | -56.0°C | 4.6% | 98.0hPa | 2.6V | 00:00:00 | 00:00:00 | 00:00:00 | |
| DO3MHA-11 | 2026-09-04 04:54:39 | 47.47933 | 11.52256 | 125° | 26km/h | 16742m | 3.9m/s | -56.0°C | 4.6% | 98.1hPa | 2.6V | 02:23:00 | 01:15:31 | 00:00:00 | |
| DO3MHA-12 | 2026-09-04 04:54:37 | 47.47940 | 11.52242 | 131° | 27km/h | 16731m | 4.6m/s | -56.0°C | 4.6% | 98.2hPa | 2.7V | 02:23:00 | 01:15:29 | 00:00:00 | |
| OE5MMP-10 | 2026-09-04 04:54:36 | 47.47943 | 11.52236 | 131° | 27km/h | 16727m | 3.9m/s | -55.9°C | 4.5% | 98.3hPa | 2.7V | 00:00:00 | 01:15:28 | 00:00:00 | |
| OE5DRO-10 | 2026-09-04 04:54:35 | 47.47947 | 11.52230 | 129° | 29km/h | 16722m | 5.9m/s | -55.9°C | 4.5% | 98.4hPa | 2.7V | 00:00:00 | 00:00:00 | 00:00:00 | |
| DG1MFX-10 | 2026-09-04 04:54:30 | 47.47964 | 11.52199 | 139° | 29km/h | 16699m | 4.8m/s | -55.8°C | 1.5% | 98.8hPa | 2.7V | 02:23:00 | 00:00:00 | 00:00:00 | |
| DO3MHA-11 | 2026-09-04 04:54:29 | 47.47976 | 11.52184 | 137° | 31km/h | 16689m | 4.7m/s | -55.7°C | 4.7% | 98.9hPa | 2.7V | 00:00:00 | 01:15:21 | 00:00:00 | |
| DO3MHA-12 | 2026-09-04 04:54:27 | 47.47988 | 11.52168 | 140° | 31km/h | 16679m | 4.8m/s | -55.8°C | 4.5% | 99.1hPa | 2.7V | 00:00:00 | 01:15:19 | 00:00:00 | |
| OE5MMP-10 | 2026-09-04 04:54:26 | 47.47993 | 11.52161 | 137° | 37km/h | 16674m | 4.7m/s | -55.8°C | 4.5% | 99.1hPa | 2.7V | 00:00:00 | 01:15:18 | 00:00:00 | |
| IW2NTF | 2026-09-04 04:54:25 | 47.48026 | 11.52113 | 136° | 31km/h | 16645m | 3.9m/s | 0°C | 0% | 0hPa | 2.7V | 00:00:00 | 01:15:12 | 00:00:00 | |
| NBG1-10 | 2026-09-04 04:54:25 | 47.47999 | 11.52153 | 134° | 38km/h | 16669m | 4.9m/s | -55.9°C | 4.6% | 99.3hPa | 2.7V | 00:00:00 | 01:15:17 | 00:00:00 | |
| DM7RM-13 | 2026-09-04 04:54:23 | 47.48004 | 11.52145 | 135° | 29km/h | 16664m | 4.2m/s | -56.0°C | 1.5% | 99.3hPa | 2.7V | 00:00:00 | 00:00:00 | 00:00:00 | |
| OE5WHR-10 | 2026-09-04 04:54:19 | 47.48032 | 11.52105 | 138° | 38km/h | 16641m | 5.4m/s | -56.1°C | 4.5% | 99.7hPa | 2.7V | 00:00:00 | 01:15:11 | 00:00:00 | |
| DB0UT-7 | 2026-09-04 04:54:18 | 47.48037 | 11.52097 | 139° | 42km/h | 16636m | 4.2m/s | -56.2°C | 4.5% | 99.7hPa | 2.7V | 00:00:00 | 01:15:10 | 00:00:00 | |
| DO3MHA-12 | 2026-09-04 04:54:17 | 47.48043 | 11.52090 | 137° | 37km/h | 16630m | 5.7m/s | -56.4°C | 4.6% | 99.8hPa | 2.7V | 00:00:00 | 01:15:09 | 00:00:00 | |
| OE5DRO-10 | 2026-09-04 04:54:16 | 47.48049 | 11.52081 | 137° | 40km/h | 16625m | 4.4m/s | -56.5°C | 4.7% | 99.9hPa | 2.7V | 00:00:00 | 00:00:00 | 00:00:00 | |
| OE3JTB-15 | 2026-09-04 04:54:14 | 47.48062 | 11.52064 | 143° | 46km/h | 16616m | 4.6m/s | -56.6°C | 4.7% | 100.1hPa | 2.7V | 02:23:00 | 00:00:00 | 00:00:00 | |
| DL6DJ-15 | 2026-09-04 04:54:12 | 47.48077 | 11.52048 | 142° | 37km/h | 16606m | 5.2m/s | -56.7°C | 1.5% | 100.2hPa | 2.7V | 00:00:00 | 00:00:00 | 00:00:00 | |
| DG1MFX-10 | 2026-09-04 04:54:10 | 47.48084 | 11.52040 | 143° | 38km/h | 16601m | 5.0m/s | -56.7°C | 1.6% | 100.3hPa | 2.7V | 02:23:00 | 00:00:00 | 00:00:00 | |
| DO3MHA-11 | 2026-09-04 04:54:09 | 47.48099 | 11.52023 | 144° | 42km/h | 16591m | 4.5m/s | -56.8°C | 4.9% | 100.4hPa | 2.7V | 02:23:00 | 01:15:01 | 00:00:00 | |
| DG1MJG | 2026-09-04 04:54:08 | 47.48099 | 11.52023 | 145° | 37km/h | 16591m | 4.6m/s | -56.9°C | 1.6% | 100.5hPa | 2.7V | 02:23:00 | 00:00:00 | 00:00:00 | |
| DO3MHA-12 | 2026-09-04 04:54:07 | 47.48115 | 11.52005 | 141° | 44km/h | 16581m | 5.5m/s | -56.9°C | 4.9% | 100.6hPa | 2.7V | 02:23:00 | 01:14:59 | 00:00:00 | |
| DF1GD-15 | 2026-09-04 04:54:06 | 47.48115 | 11.52005 | 141° | 40km/h | 16581m | 5.6m/s | -56.9°C | 1.6% | 100.7hPa | 2.6V | 02:23:00 | 00:00:00 | 00:00:00 | |
| DM7RM-13 | 2026-09-04 04:54:00 | 47.48165 | 11.51944 | 139° | 47km/h | 16551m | 4.5m/s | -57.0°C | 1.7% | 101.1hPa | 2.6V | 00:00:00 | 00:00:00 | 00:00:00 | |
| DO3MHA-11 | 2026-09-04 04:53:59 | 47.48183 | 11.51921 | 138° | 49km/h | 16541m | 4.1m/s | -56.9°C | 5.0% | 101.2hPa | 2.6V | 00:00:00 | 01:14:51 | 00:00:00 | |
| OE5WHR-10 | 2026-09-04 04:53:58 | 47.48192 | 11.51909 | 137° | 53km/h | 16535m | 5.5m/s | -56.9°C | 5.0% | 101.3hPa | 2.6V | 02:23:00 | 00:00:00 | 00:00:00 | |
| DO3MHA-12 | 2026-09-04 04:53:57 | 47.48201 | 11.51897 | 137° | 51km/h | 16530m | 5.0m/s | -56.9°C | 5.1% | 101.4hPa | 2.7V | 00:00:00 | 01:14:49 | 00:00:00 | |
| BAUMI2-15 | 2026-09-04 04:53:56 | 47.48210 | 11.51884 | 137° | 49km/h | 16525m | 4.9m/s | -56.9°C | 5.1% | 101.5hPa | 2.7V | 02:23:00 | 01:14:48 | 00:00:00 | |
| NBG1-10 | 2026-09-04 04:53:52 | 47.48245 | 11.51831 | 133° | 51km/h | 16505m | 4.5m/s | -57.0°C | 5.2% | 101.8hPa | 2.6V | 02:23:00 | 01:14:44 | 00:00:00 | |
| BAUMI2-15 | 2026-09-04 04:53:51 | 47.48253 | 11.51817 | 132° | 53km/h | 16500m | 5.6m/s | -56.9°C | 5.2% | 101.9hPa | 2.6V | 00:00:00 | 01:14:43 | 00:00:00 | |
| OE5DXL-15 | 2026-09-04 04:53:50 | 47.48262 | 11.51803 | 131° | 51km/h | 16495m | 3.8m/s | -56.9°C | 5.1% | 102.0hPa | 2.6V | 00:00:00 | 00:00:00 | 00:00:00 | |
| DO3MHA-11 | 2026-09-04 04:53:49 | 47.48270 | 11.51788 | 130° | 55km/h | 16490m | 5.4m/s | -56.8°C | 5.0% | 102.1hPa | 2.6V | 00:00:00 | 01:14:41 | 00:00:00 | |
| DB0UT-7 | 2026-09-04 04:53:48 | 47.48279 | 11.51773 | 130° | 51km/h | 16485m | 5.4m/s | -56.8°C | 5.0% | 102.1hPa | 2.6V | 02:23:00 | 00:00:00 | 00:00:00 | |
| IW2NTF | 2026-09-04 04:53:47 | 47.48340 | 11.51661 | 127° | 55km/h | 16450m | 4.8m/s | 0°C | 0% | 0hPa | 2.6V | 00:00:00 | 01:14:33 | 00:00:00 | |
| OE5MMP-10 | 2026-09-04 04:53:47 | 47.48288 | 11.51756 | 129° | 55km/h | 16480m | 4.5m/s | -56.8°C | 5.0% | 102.2hPa | 2.6V | 00:00:00 | 01:14:39 | 00:00:00 | |
| BAUMI2-15 | 2026-09-04 04:53:46 | 47.48297 | 11.51740 | 129° | 55km/h | 16475m | 5.1m/s | -56.8°C | 5.0% | 102.3hPa | 2.6V | 00:00:00 | 01:14:38 | 00:00:00 | |
| OE3JTB-15 | 2026-09-04 04:53:45 | 47.48306 | 11.51723 | 129° | 51km/h | 16470m | 5.2m/s | -56.8°C | 5.0% | 102.4hPa | 2.6V | 00:00:00 | 00:00:00 | 00:00:00 | |
| DF3TZ-5 | 2026-09-04 04:53:44 | 47.48314 | 11.51708 | 129° | 53km/h | 16465m | 4.3m/s | -56.8°C | 1.7% | 102.5hPa | 2.6V | 00:00:00 | 00:00:00 | 00:00:00 | |
| BAUMI2-15 | 2026-09-04 04:53:41 | 47.48340 | 11.51660 | 128° | 53km/h | 16450m | 4.7m/s | -56.7°C | 5.0% | 102.7hPa | 2.6V | 02:24:00 | 01:14:33 | 00:00:00 | |
| DO3MHA-11 | 2026-09-04 04:53:39 | 47.48356 | 11.51628 | 124° | 51km/h | 16440m | 4.6m/s | -56.7°C | 5.1% | 102.9hPa | 2.7V | 02:24:00 | 01:14:31 | 00:00:00 | |
| OE5DRO-10 | 2026-09-04 04:53:38 | 47.48363 | 11.51612 | 123° | 49km/h | 16435m | 5.6m/s | -56.7°C | 5.2% | 103.0hPa | 2.6V | 00:00:00 | 00:00:00 | 00:00:00 | |
| DO3MHA-12 | 2026-09-04 04:53:37 | 47.48371 | 11.51595 | 123° | 51km/h | 16429m | 4.2m/s | -56.7°C | 5.1% | 103.1hPa | 2.6V | 02:24:00 | 01:14:29 | 00:00:00 | |
| IW2NTF | 2026-09-04 04:53:36 | 47.48415 | 11.51500 | 127° | 47km/h | 16399m | 5.1m/s | 0°C | 0% | 0hPa | 2.7V | 00:00:00 | 01:14:23 | 00:00:00 | |
| BAUMI2-15 | 2026-09-04 04:53:36 | 47.48378 | 11.51578 | 123° | 51km/h | 16424m | 5.7m/s | -56.7°C | 5.2% | 103.1hPa | 2.7V | 00:00:00 | 01:14:28 | 00:00:00 | |
| BAUMI2-15 | 2026-09-04 04:53:31 | 47.48415 | 11.51500 | 128° | 49km/h | 16399m | 5.1m/s | -56.8°C | 5.2% | 103.6hPa | 2.7V | 00:00:00 | 01:14:23 | 00:00:00 | |
| DG1MFX-10 | 2026-09-04 04:53:29 | 47.48423 | 11.51486 | 129° | 47km/h | 16394m | 4.0m/s | -56.8°C | 1.9% | 103.6hPa | 2.7V | 02:24:00 | 00:00:00 | 00:00:00 | |
| DO3MHA-12 | 2026-09-04 04:53:28 | 47.48445 | 11.51442 | 128° | 49km/h | 16379m | 6.0m/s | -56.8°C | 5.1% | 103.9hPa | 2.7V | 00:00:00 | 01:14:19 | 00:00:00 | |
| DF7PN | 2026-09-04 04:53:27 | 47.48452 | 11.51428 | 128° | 47km/h | 16374m | 4.2m/s | -56.8°C | 1.8% | 104.0hPa | 2.7V | 00:00:00 | 00:00:00 | 00:00:00 | |
| BAUMI2-15 | 2026-09-04 04:53:26 | 47.48452 | 11.51428 | 129° | 49km/h | 16374m | 4.1m/s | -56.8°C | 5.1% | 104.0hPa | 2.7V | 02:24:00 | 01:14:18 | 00:00:00 | |
| DF1GD-15 | 2026-09-04 04:53:24 | 47.48460 | 11.51414 | 128° | 49km/h | 16370m | 4.7m/s | -56.9°C | 1.9% | 104.1hPa | 2.6V | 02:24:00 | 00:00:00 | 00:00:00 | |
| BAUMI2-15 | 2026-09-04 04:53:21 | 47.48489 | 11.51353 | 128° | 49km/h | 16350m | 5.3m/s | -57.0°C | 5.2% | 104.3hPa | 2.6V | 00:00:00 | 01:14:13 | 00:00:00 | |
| OE5DXL-15 | 2026-09-04 04:53:20 | 47.48496 | 11.51339 | 131° | 53km/h | 16345m | 5.5m/s | -57.1°C | 5.3% | 104.4hPa | 2.6V | 00:00:00 | 00:00:00 | 00:00:00 | |
| DO3MHA-11 | 2026-09-04 04:53:19 | 47.48505 | 11.51325 | 133° | 55km/h | 16340m | 5.2m/s | -57.1°C | 5.4% | 104.5hPa | 2.6V | 00:00:00 | 01:14:11 | 00:00:00 | |
| DB0UT-7 | 2026-09-04 04:53:18 | 47.48513 | 11.51312 | 136° | 51km/h | 16335m | 4.5m/s | -57.0°C | 5.5% | 104.6hPa | 2.6V | 00:00:00 | 01:14:10 | 00:00:00 | |
| DO3MHA-12 | 2026-09-04 04:53:17 | 47.48523 | 11.51300 | 141° | 57km/h | 16330m | 5.9m/s | -57.0°C | 5.4% | 104.7hPa | 2.6V | 00:00:00 | 01:14:09 | 00:00:00 | |
| BAUMI2-15 | 2026-09-04 04:53:16 | 47.48533 | 11.51289 | 146° | 57km/h | 16325m | 3.9m/s | -57.0°C | 5.4% | 104.8hPa | 2.6V | 00:00:00 | 01:14:08 | 00:00:00 | |
| BAUMI2-15 | 2026-09-04 04:53:11 | 47.48590 | 11.51225 | 140° | 57km/h | 16301m | 4.9m/s | -56.9°C | 5.4% | 105.2hPa | 2.6V | 02:24:00 | 01:14:03 | 00:00:00 | |
| DL6DJ-15 | 2026-09-04 04:53:10 | 47.48601 | 11.51211 | 138° | 55km/h | 16296m | 4.6m/s | -57.0°C | 1.9% | 105.3hPa | 2.7V | 00:00:00 | 00:00:00 | 00:00:00 | |
| DO3MHA-11 | 2026-09-04 04:53:09 | 47.48611 | 11.51197 | 139° | 51km/h | 16292m | 5.5m/s | -56.9°C | 5.3% | 105.3hPa | 2.7V | 02:24:00 | 01:14:01 | 00:00:00 | |
| DG1MFX-10 | 2026-09-04 04:53:08 | 47.48611 | 11.51197 | 139° | 57km/h | 16292m | 5.6m/s | -56.9°C | 2.0% | 105.4hPa | 2.6V | 02:24:00 | 00:00:00 | 00:00:00 | |
| OE5MMP-10 | 2026-09-04 04:53:07 | 47.48633 | 11.51170 | 140° | 49km/h | 16282m | 5.6m/s | -56.9°C | 5.3% | 105.5hPa | 2.6V | 02:24:00 | 01:13:59 | 00:00:00 | |
| BAUMI2-15 | 2026-09-04 04:53:06 | 47.48643 | 11.51157 | 140° | 49km/h | 16276m | 4.4m/s | -56.9°C | 5.2% | 105.6hPa | 2.6V | 00:00:00 | 01:13:58 | 00:00:00 | |
| DF1GD-15 | 2026-09-04 04:53:03 | 47.48662 | 11.51134 | 141° | 49km/h | 16267m | 5.3m/s | -56.9°C | 1.9% | 105.8hPa | 2.6V | 02:25:00 | 00:00:00 | 00:00:00 | |
| DF7PN | 2026-09-04 04:52:56 | 47.48745 | 11.51020 | 141° | 51km/h | 16222m | 5.7m/s | -57.3°C | 2.0% | 106.6hPa | 2.6V | 00:00:00 | 00:00:00 | 00:00:00 | |
| OE5WHR-10 | 2026-09-04 04:52:55 | 47.48745 | 11.51020 | 142° | 49km/h | 16222m | 5.7m/s | -57.3°C | 5.5% | 106.5hPa | 2.6V | 02:24:00 | 00:00:00 | 00:00:00 | |
| OE5DXL-15 | 2026-09-04 04:52:51 | 47.48787 | 11.50977 | 150° | 55km/h | 16203m | 4.1m/s | -57.4°C | 5.5% | 106.8hPa | 2.6V | 02:24:00 | 00:00:00 | 00:00:00 | |
| DO3MHA-11 | 2026-09-04 04:52:49 | 47.48808 | 11.50961 | 154° | 49km/h | 16194m | 5.0m/s | -57.4°C | 5.5% | 107.0hPa | 2.6V | 00:00:00 | 01:13:41 | 00:00:00 | |
| DB0UT-7 | 2026-09-04 04:52:48 | 47.48819 | 11.50953 | 153° | 55km/h | 16189m | 4.4m/s | -57.4°C | 5.4% | 107.0hPa | 2.6V | 00:00:00 | 00:00:00 | 00:00:00 | |
| DO3MHA-12 | 2026-09-04 04:52:47 | 47.48829 | 11.50944 | 151° | 49km/h | 16185m | 4.2m/s | -57.4°C | 5.5% | 107.1hPa | 2.6V | 00:00:00 | 01:13:39 | 00:00:00 | |
| BAUMI2-15 | 2026-09-04 04:52:46 | 47.48840 | 11.50935 | 148° | 49km/h | 16180m | 4.8m/s | 0°C | 0% | 0hPa | 2.6V | 00:00:00 | 01:13:38 | 00:00:00 | |
| DB0ND-19 | 2026-09-04 04:52:45 | 47.48860 | 11.50915 | 146° | 47km/h | 16171m | 4.5m/s | -57.4°C | 2.0% | 107.4hPa | 2.6V | 00:00:00 | 00:00:00 | 00:00:00 | |
| DF1GD-15 | 2026-09-04 04:52:43 | 47.48860 | 11.50915 | 147° | 49km/h | 16171m | 4.5m/s | -57.4°C | 2.0% | 107.4hPa | 2.6V | 02:25:00 | 00:00:00 | 00:00:00 | |
| DF3TZ-5 | 2026-09-04 04:52:42 | 47.48881 | 11.50894 | 146° | 51km/h | 16161m | 4.5m/s | -57.5°C | 1.9% | 107.5hPa | 2.6V | 00:00:00 | 00:00:00 | 00:00:00 | |
| DK5PH-5 | 2026-09-04 04:52:41 | 47.48892 | 11.50884 | 146° | 53km/h | 16156m | 5.5m/s | 0°C | 0% | 0hPa | 2.6V | 00:00:00 | 01:13:33 | 00:00:00 | |
| DO3MHA-11 | 2026-09-04 04:52:39 | 47.48912 | 11.50862 | 144° | 57km/h | 16147m | 4.5m/s | -57.5°C | 5.4% | 107.7hPa | 2.6V | 02:25:00 | 01:13:31 | 00:00:00 | |
| DO3MHA-12 | 2026-09-04 04:52:37 | 47.48934 | 11.50839 | 144° | 58km/h | 16138m | 4.0m/s | -57.5°C | 5.4% | 107.9hPa | 2.6V | 02:25:00 | 01:13:29 | 00:00:00 | |
| BAUMI2-15 | 2026-09-04 04:52:36 | 47.48944 | 11.50827 | 143° | 58km/h | 16133m | 5.8m/s | 0°C | 0% | 0hPa | 2.7V | 00:00:00 | 01:13:28 | 00:00:00 | |
| OE5WHR-10 | 2026-09-04 04:52:34 | 47.48966 | 11.50801 | 140° | 58km/h | 16123m | 4.2m/s | -57.6°C | 5.5% | 108.1hPa | 2.7V | 00:00:00 | 00:00:00 | 00:00:00 | |
| BAUMI2-15 | 2026-09-04 04:52:31 | 47.49001 | 11.50758 | 141° | 58km/h | 16109m | 5.7m/s | 0°C | 0% | 0hPa | 2.7V | 00:00:00 | 01:13:23 | 00:00:00 | |
| DO3MHA-11 | 2026-09-04 04:52:29 | 47.49024 | 11.50729 | 140° | 58km/h | 16099m | 4.9m/s | -57.7°C | 5.7% | 108.5hPa | 2.7V | 00:00:00 | 01:13:21 | 00:00:00 | |
| DO3MHA-12 | 2026-09-04 04:52:27 | 47.49047 | 11.50701 | 139° | 58km/h | 16089m | 4.6m/s | -57.7°C | 5.7% | 108.7hPa | 2.7V | 00:00:00 | 01:13:19 | 00:00:00 | |
| BAUMI2-15 | 2026-09-04 04:52:26 | 47.49057 | 11.50687 | 137° | 58km/h | 16084m | 4.8m/s | 0°C | 0% | 0hPa | 2.7V | 02:25:00 | 01:13:18 | 00:00:00 | |
| IN3HCDX | 2026-09-04 04:52:25 | 47.49057 | 11.50687 | 138° | 58km/h | 16084m | 4.8m/s | -57.8°C | 0% | 108.9hPa | 2.7V | 00:00:00 | 00:00:00 | 00:00:00 | |
| DF7PN | 2026-09-04 04:52:24 | 47.49079 | 11.50658 | 137° | 57km/h | 16075m | 4.8m/s | -57.8°C | -1.0% | 109.0hPa | 2.7V | 00:00:00 | 00:00:00 | 00:00:00 | |
| OE5MMP-10 | 2026-09-04 04:52:23 | 47.49090 | 11.50643 | 138° | 58km/h | 16070m | 4.5m/s | -57.8°C | 5.7% | 109.0hPa | 2.7V | 00:00:00 | 01:13:15 | 00:00:00 | |
| OE5DRO-10 | 2026-09-04 04:52:22 | 47.49100 | 11.50628 | 136° | 57km/h | 16065m | 5.1m/s | -57.8°C | 5.6% | 109.1hPa | 2.7V | 00:00:00 | 00:00:00 | 00:00:00 | |
| BAUMI2-15 | 2026-09-04 04:52:21 | 47.49111 | 11.50612 | 135° | 60km/h | 16061m | 3.8m/s | 0°C | 0% | 0hPa | 2.7V | 00:00:00 | 01:13:13 | 00:00:00 | |
| OE5DXL-15 | 2026-09-04 04:52:20 | 47.49121 | 11.50597 | 136° | 55km/h | 16057m | 5.1m/s | -57.7°C | 5.6% | 109.3hPa | 2.7V | 00:00:00 | 00:00:00 | 00:00:00 | |
| DO3MHA-11 | 2026-09-04 04:52:19 | 47.49132 | 11.50581 | 139° | 57km/h | 16052m | 4.7m/s | -57.7°C | 5.7% | 109.4hPa | 2.7V | 00:00:00 | 01:13:11 | 00:00:00 | |
| DB0UT-7 | 2026-09-04 04:52:18 | 47.49144 | 11.50567 | 139° | 53km/h | 16047m | 4.1m/s | -57.7°C | 5.7% | 109.5hPa | 2.7V | 02:25:00 | 01:13:10 | 00:00:00 | |
| DO3MHA-12 | 2026-09-04 04:52:17 | 47.49155 | 11.50552 | 138° | 55km/h | 16043m | 4.9m/s | -57.7°C | 5.6% | 109.5hPa | 2.6V | 00:00:00 | 01:13:09 | 00:00:00 | |
| BAUMI2-15 | 2026-09-04 04:52:16 | 47.49166 | 11.50537 | 138° | 57km/h | 16038m | 4.4m/s | 0°C | 0% | 0hPa | 2.6V | 00:00:00 | 01:13:08 | 00:00:00 | |
| OE3JTB-15 | 2026-09-04 04:52:14 | 47.49188 | 11.50510 | 143° | 78km/h | 16028m | 4.2m/s | -57.7°C | 5.7% | 109.8hPa | 2.6V | 00:00:00 | 00:00:00 | 00:00:00 | |
| NBG1-10 | 2026-09-04 04:52:13 | 47.49199 | 11.50497 | 142° | 53km/h | 16023m | 5.5m/s | -57.7°C | 5.6% | 109.9hPa | 2.6V | 02:25:00 | 01:13:05 | 00:00:00 | |
| DF3TZ-5 | 2026-09-04 04:52:11 | 47.49220 | 11.50471 | 140° | 53km/h | 16014m | 4.6m/s | -57.7°C | 2.1% | 110.1hPa | 2.6V | 00:00:00 | 00:00:00 | 00:00:00 | |
| DO3MHA-11 | 2026-09-04 04:52:09 | 47.49242 | 11.50446 | 143° | 53km/h | 16004m | 4.4m/s | -57.8°C | 5.6% | 110.2hPa | 2.6V | 02:25:00 | 01:13:01 | 00:00:00 | |
| DL6DJ-15 | 2026-09-04 04:52:08 | 47.49253 | 11.50434 | 141° | 53km/h | 15999m | 5.3m/s | -57.8°C | 0% | 110.3hPa | 2.6V | 00:00:00 | 00:00:00 | 00:00:00 | |
| DO3MHA-12 | 2026-09-04 04:52:07 | 47.49263 | 11.50421 | 141° | 51km/h | 15994m | 4.3m/s | -57.8°C | 5.7% | 110.4hPa | 2.6V | 02:25:00 | 01:12:59 | 00:00:00 | |
| BAUMI2-15 | 2026-09-04 04:52:06 | 47.49274 | 11.50408 | 141° | 53km/h | 15989m | 5.5m/s | 0°C | 0% | 0hPa | 2.6V | 00:00:00 | 01:12:58 | 00:00:00 | |
| IN3HCDX | 2026-09-04 04:52:04 | 47.49285 | 11.50395 | 141° | 55km/h | 15985m | 3.8m/s | 0°C | 0% | 110.6hPa | 2.6V | 02:26:00 | 00:00:00 | 00:00:00 | |
| OE5MMP-10 | 2026-09-04 04:52:03 | 47.49305 | 11.50369 | 137° | 51km/h | 15975m | 4.3m/s | -57.8°C | 5.6% | 110.7hPa | 2.6V | 02:25:00 | 01:12:55 | 00:00:00 | |
| DF1GD-15 | 2026-09-04 04:52:02 | 47.49305 | 11.50369 | 138° | 51km/h | 15975m | 4.4m/s | -57.9°C | 2.2% | 110.8hPa | 2.6V | 02:26:00 | 00:00:00 | 00:00:00 | |
| DF7PN | 2026-09-04 04:51:54 | 47.49401 | 11.50248 | 144° | 53km/h | 15927m | 5.6m/s | 0°C | -1.0% | -1.0hPa | 2.6V | 00:00:00 | 00:00:00 | 00:00:00 | |
| OE5MMP-10 | 2026-09-04 04:51:53 | 47.49401 | 11.50248 | 145° | 55km/h | 15928m | 5.6m/s | -58.4°C | 5.8% | 111.6hPa | 2.6V | 00:00:00 | 01:12:45 | 00:00:00 | |
| OE5WHR-10 | 2026-09-04 04:51:52 | 47.49412 | 11.50236 | 144° | 58km/h | 15922m | 4.4m/s | -58.4°C | 5.8% | 111.7hPa | 2.6V | 02:25:00 | 00:00:00 | 00:00:00 | |
| OE5DXL-15 | 2026-09-04 04:51:50 | 47.49434 | 11.50210 | 141° | 62km/h | 15913m | 4.3m/s | -58.5°C | 5.8% | 111.8hPa | 2.6V | 00:00:00 | 00:00:00 | 00:00:00 | |
| DO3MHA-12 | 2026-09-04 04:51:47 | 47.49466 | 11.50170 | 140° | 58km/h | 15899m | 4.4m/s | -58.6°C | 5.9% | 112.1hPa | 2.6V | 00:00:00 | 01:12:39 | 00:00:00 | |
| DB0NH | 2026-09-04 04:51:46 | 47.49477 | 11.50156 | 142° | 64km/h | 15895m | 3.9m/s | -58.6°C | 5.8% | 112.1hPa | 2.6V | 00:00:00 | 01:12:38 | 00:00:00 | |
| DM7RM-13 | 2026-09-04 04:51:45 | 47.49477 | 11.50156 | 142° | 58km/h | 15895m | 3.9m/s | -58.6°C | 2.3% | 112.2hPa | 2.6V | 00:00:00 | 00:00:00 | 00:00:00 | |
| OE5DRO-10 | 2026-09-04 04:51:44 | 47.49499 | 11.50130 | 142° | 62km/h | 15886m | 4.4m/s | -58.7°C | 5.9% | 112.3hPa | 2.6V | 00:00:00 | 00:00:00 | 00:00:00 | |
| OE5MMP-10 | 2026-09-04 04:51:43 | 47.49510 | 11.50117 | 141° | 60km/h | 15882m | 4.2m/s | -58.8°C | 6.0% | 112.4hPa | 2.6V | 00:00:00 | 01:12:35 | 00:00:00 | |
| DF1GD-15 | 2026-09-04 04:51:41 | 47.49521 | 11.50103 | 142° | 58km/h | 15877m | 5.1m/s | -58.8°C | 2.3% | 112.5hPa | 2.6V | 02:26:00 | 00:00:00 | 00:00:00 | |
| DO3MHA-11 | 2026-09-04 04:51:40 | 47.49556 | 11.50062 | 142° | 62km/h | 15863m | 3.4m/s | -58.9°C | 6.0% | 112.7hPa | 2.6V | 02:26:00 | 01:12:31 | 00:00:00 | |
| DO3MHA-12 | 2026-09-04 04:51:37 | 47.49580 | 11.50036 | 144° | 62km/h | 15854m | 4.9m/s | -59.0°C | 6.1% | 112.9hPa | 2.7V | 02:26:00 | 01:12:29 | 00:00:00 | |
| DG1MJG | 2026-09-04 04:51:35 | 47.49592 | 11.50021 | 145° | 64km/h | 15850m | 4.4m/s | -59.1°C | 2.4% | 113.0hPa | 2.6V | 02:26:00 | 00:00:00 | 00:00:00 | |
| OE5MMP-10 | 2026-09-04 04:51:33 | 47.49630 | 11.49980 | 144° | 66km/h | 15836m | 4.3m/s | -59.3°C | 6.3% | 113.2hPa | 2.6V | 02:26:00 | 01:12:25 | 00:00:00 | |
| OE5WHR-10 | 2026-09-04 04:51:31 | 47.49657 | 11.49953 | 147° | 69km/h | 15827m | 4.7m/s | -59.5°C | 6.4% | 113.4hPa | 2.7V | 00:00:00 | 00:00:00 | 00:00:00 | |
| DO3MHA-11 | 2026-09-04 04:51:29 | 47.49684 | 11.49928 | 149° | 68km/h | 15817m | 4.3m/s | -59.5°C | 6.6% | 113.5hPa | 2.7V | 00:00:00 | 01:12:21 | 00:00:00 | |
| DO3MHA-12 | 2026-09-04 04:51:27 | 47.49712 | 11.49903 | 150° | 69km/h | 15808m | 4.5m/s | -59.4°C | 6.7% | 113.8hPa | 2.7V | 00:00:00 | 01:12:19 | 00:00:00 | |
| OE5DRO-10 | 2026-09-04 04:51:25 | 47.49740 | 11.49877 | 145° | 69km/h | 15798m | 5.3m/s | -59.4°C | 6.5% | 113.9hPa | 2.7V | 00:00:00 | 00:00:00 | 00:00:00 | |
| OE5MMP-10 | 2026-09-04 04:51:23 | 47.49768 | 11.49846 | 143° | 71km/h | 15788m | 5.5m/s | -59.3°C | 6.4% | 114.1hPa | 2.7V | 00:00:00 | 01:12:15 | 00:00:00 | |
| DF1GD-15 | 2026-09-04 04:51:21 | 47.49782 | 11.49829 | 142° | 71km/h | 15783m | 4.5m/s | -59.4°C | 2.5% | 114.2hPa | 2.7V | 02:27:00 | 00:00:00 | 00:00:00 | |
| OE5DXL-15 | 2026-09-04 04:51:20 | 47.49809 | 11.49795 | 139° | 68km/h | 15773m | 4.2m/s | -59.3°C | 6.3% | 114.3hPa | 2.7V | 02:26:00 | 00:00:00 | 00:00:00 | |
| DO3MHA-11 | 2026-09-04 04:51:19 | 47.49823 | 11.49777 | 139° | 71km/h | 15769m | 4.1m/s | -59.3°C | 6.4% | 114.4hPa | 2.7V | 00:00:00 | 01:12:11 | 00:00:00 | |
| DB0UT-7 | 2026-09-04 04:51:18 | 47.49836 | 11.49760 | 141° | 66km/h | 15764m | 5.1m/s | -59.4°C | 6.3% | 114.5hPa | 2.7V | 00:00:00 | 01:12:10 | 00:00:00 | |
| DO3MHA-12 | 2026-09-04 04:51:17 | 47.49850 | 11.49743 | 142° | 69km/h | 15760m | 3.5m/s | -59.4°C | 6.3% | 114.6hPa | 2.7V | 00:00:00 | 01:12:09 | 00:00:00 | |
| DB0NH | 2026-09-04 04:51:15 | 47.49878 | 11.49710 | 140° | 68km/h | 15750m | 4.6m/s | -59.3°C | 6.3% | 114.8hPa | 2.7V | 00:00:00 | 01:12:07 | 00:00:00 | |
| OE5MMP-10 | 2026-09-04 04:51:13 | 47.49906 | 11.49675 | 140° | 68km/h | 15740m | 4.4m/s | -59.3°C | 6.4% | 115.0hPa | 2.7V | 00:00:00 | 01:12:05 | 00:00:00 | |
| DB0ND-19 | 2026-09-04 04:51:12 | 47.49920 | 11.49657 | 138° | 71km/h | 15734m | 5.5m/s | -59.3°C | 2.6% | 115.1hPa | 2.7V | 00:00:00 | 00:00:00 | 00:00:00 | |
| OE5WHR-10 | 2026-09-04 04:51:10 | 47.49945 | 11.49621 | 135° | 66km/h | 15725m | 4.3m/s | -59.2°C | 6.6% | 115.2hPa | 2.7V | 00:00:00 | 01:12:02 | 00:00:00 | |
| DO3MHA-11 | 2026-09-04 04:51:09 | 47.49956 | 11.49604 | 135° | 66km/h | 15720m | 4.9m/s | -59.2°C | 6.6% | 115.3hPa | 2.7V | 02:26:00 | 01:12:01 | 00:00:00 | |
| DO3MHA-12 | 2026-09-04 04:51:07 | 47.49979 | 11.49569 | 132° | 68km/h | 15710m | 5.3m/s | -59.2°C | 6.5% | 115.5hPa | 2.6V | 02:26:00 | 01:11:59 | 00:00:00 | |
| OE5DRO-10 | 2026-09-04 04:51:06 | 47.49990 | 11.49551 | 132° | 66km/h | 15706m | 4.0m/s | -59.2°C | 6.5% | 115.5hPa | 2.6V | 02:26:00 | 00:00:00 | 00:00:00 | |
| DG1MFX-10 | 2026-09-04 04:51:04 | 47.50001 | 11.49534 | 134° | 64km/h | 15701m | 5.1m/s | -59.2°C | 2.6% | 115.7hPa | 2.7V | 02:27:00 | 00:00:00 | 00:00:00 | |
| OE5MMP-10 | 2026-09-04 04:51:03 | 47.50024 | 11.49499 | 137° | 68km/h | 15692m | 3.8m/s | -59.1°C | 6.3% | 115.8hPa | 2.7V | 02:26:00 | 01:11:55 | 00:00:00 | |
| IN3HCDX | 2026-09-04 04:51:02 | 47.50024 | 11.49499 | 137° | 68km/h | 15692m | 3.8m/s | 0°C | 0% | 0hPa | 2.6V | 02:27:00 | 00:00:00 | 00:00:00 | |
| DF1GD-15 | 2026-09-04 04:51:00 | 47.50049 | 11.49463 | 136° | 69km/h | 15683m | 4.8m/s | -59.2°C | 2.6% | 116.0hPa | 2.6V | 02:27:00 | 00:00:00 | 00:00:00 | |
| DO3MHA-11 | 2026-09-04 04:50:59 | 47.50073 | 11.49427 | 136° | 66km/h | 15674m | 5.3m/s | -59.1°C | 6.3% | 116.1hPa | 2.6V | 00:00:00 | 01:11:51 | 00:00:00 | |
| DO3MHA-12 | 2026-09-04 04:50:57 | 47.50098 | 11.49391 | 135° | 64km/h | 15665m | 5.6m/s | -59.1°C | 6.4% | 116.3hPa | 2.6V | 00:00:00 | 01:11:49 | 00:00:00 | |
| OE5MMP-10 | 2026-09-04 04:50:53 | 47.50145 | 11.49322 | 136° | 64km/h | 15646m | 3.4m/s | -59.0°C | 6.5% | 116.7hPa | 2.6V | 00:00:00 | 01:11:45 | 00:00:00 | |
| DH7VM-15 | 2026-09-04 04:50:51 | 47.50156 | 11.49306 | 136° | 64km/h | 15642m | 5.3m/s | -59.0°C | 2.7% | 116.8hPa | 2.6V | 00:00:00 | 00:00:00 | 00:00:00 | |
| OE5DXL-15 | 2026-09-04 04:50:50 | 47.50179 | 11.49273 | 137° | 62km/h | 15633m | 4.3m/s | -59.0°C | 6.5% | 116.9hPa | 2.6V | 00:00:00 | 00:00:00 | 00:00:00 | |
| OE5WHR-10 | 2026-09-04 04:50:49 | 47.50190 | 11.49256 | 139° | 62km/h | 15628m | 5.0m/s | -59.0°C | 6.5% | 117.0hPa | 2.6V | 02:26:00 | 00:00:00 | 00:00:00 | |
| DO3MHA-12 | 2026-09-04 04:50:47 | 47.50215 | 11.49224 | 138° | 58km/h | 15618m | 5.8m/s | -59.0°C | 6.4% | 117.2hPa | 2.7V | 00:00:00 | 01:11:39 | 00:00:00 | |
| DB0NH | 2026-09-04 04:50:45 | 47.50239 | 11.49191 | 137° | 64km/h | 15609m | 4.8m/s | -59.0°C | 6.3% | 117.3hPa | 2.7V | 02:27:00 | 01:11:37 | 00:00:00 | |
| DB0UT-7 | 2026-09-04 04:50:44 | 47.50251 | 11.49175 | 139° | 64km/h | 15604m | 5.2m/s | -59.0°C | 6.4% | 117.5hPa | 2.7V | 02:27:00 | 00:00:00 | 00:00:00 | |
| OE5MMP-10 | 2026-09-04 04:50:43 | 47.50262 | 11.49160 | 139° | 58km/h | 15599m | 4.2m/s | -59.0°C | 6.4% | 117.5hPa | 2.7V | 00:00:00 | 01:11:35 | 00:00:00 | |
| IN3HCDX | 2026-09-04 04:50:42 | 47.50273 | 11.49146 | 137° | 55km/h | 15594m | 5.2m/s | 0°C | 0% | 0hPa | 2.7V | 02:27:00 | 00:00:00 | 00:00:00 | |
| DB0ND-19 | 2026-09-04 04:50:41 | 47.50282 | 11.49131 | 134° | 53km/h | 15589m | 4.4m/s | -59.1°C | 2.6% | 117.8hPa | 2.7V | 00:00:00 | 00:00:00 | 00:00:00 | |
| DO3MHA-11 | 2026-09-04 04:50:39 | 47.50301 | 11.49103 | 137° | 62km/h | 15581m | 5.2m/s | -59.1°C | 6.4% | 117.8hPa | 2.7V | 02:27:00 | 01:11:31 | 00:00:00 | |
| DF3TZ-5 | 2026-09-04 04:50:38 | 47.50323 | 11.49074 | 138° | 58km/h | 15573m | 5.0m/s | -59.2°C | 2.6% | 118.1hPa | 2.6V | 00:00:00 | 00:00:00 | 00:00:00 | |
| DO3MHA-12 | 2026-09-04 04:50:37 | 47.50323 | 11.49074 | 139° | 64km/h | 15573m | 4.9m/s | -59.1°C | 6.4% | 118.1hPa | 2.6V | 02:27:00 | 01:11:29 | 00:00:00 | |
| DL6DJ-15 | 2026-09-04 04:50:35 | 47.50360 | 11.49030 | 142° | 64km/h | 15558m | 4.7m/s | -59.4°C | 2.7% | 118.4hPa | 2.7V | 00:00:00 | 00:00:00 | 00:00:00 | |
| NBG1-10 | 2026-09-04 04:50:34 | 47.50360 | 11.49030 | 143° | 68km/h | 15558m | 4.7m/s | -59.4°C | 6.5% | 118.3hPa | 2.7V | 02:27:00 | 01:11:26 | 00:00:00 | |
| OE5MMP-10 | 2026-09-04 04:50:33 | 47.50373 | 11.49015 | 143° | 66km/h | 15552m | 6.0m/s | -59.5°C | 6.6% | 118.4hPa | 2.6V | 02:27:00 | 01:11:25 | 00:00:00 | |
| DO3MHA-11 | 2026-09-04 04:50:29 | 47.50425 | 11.48956 | 144° | 66km/h | 15534m | 3.9m/s | -59.5°C | 6.6% | 118.8hPa | 2.6V | 00:00:00 | 01:11:21 | 00:00:00 | |
| OE5WHR-10 | 2026-09-04 04:50:28 | 47.50438 | 11.48942 | 143° | 68km/h | 15529m | 5.0m/s | -59.5°C | 6.6% | 118.8hPa | 2.6V | 00:00:00 | 00:00:00 | 00:00:00 | |
| DO3MHA-12 | 2026-09-04 04:50:27 | 47.50451 | 11.48927 | 144° | 68km/h | 15525m | 4.5m/s | -59.6°C | 6.7% | 119.0hPa | 2.6V | 00:00:00 | 01:11:19 | 00:00:00 | |
| DG1MFX-10 | 2026-09-04 04:50:24 | 47.50478 | 11.48899 | 147° | 64km/h | 15515m | 3.8m/s | -59.7°C | 2.9% | 119.1hPa | 2.6V | 02:28:00 | 00:00:00 | 00:00:00 | |
| OE5MMP-10 | 2026-09-04 04:50:23 | 47.50505 | 11.48872 | 145° | 69km/h | 15505m | 4.7m/s | -59.6°C | 6.7% | 119.3hPa | 2.6V | 00:00:00 | 01:11:15 | 00:00:00 | |
| DO3MHA-11 | 2026-09-04 04:50:19 | 47.50562 | 11.48814 | 147° | 69km/h | 15486m | 5.4m/s | -59.7°C | 6.9% | 119.7hPa | 2.6V | 00:00:00 | 01:11:11 | 00:00:00 | |
| DF1GD-15 | 2026-09-04 04:50:18 | 47.50562 | 11.48815 | 147° | 69km/h | 15486m | 5.5m/s | -59.7°C | 3.0% | 119.7hPa | 2.6V | 02:28:00 | 00:00:00 | 00:00:00 | |
| DO3MHA-12 | 2026-09-04 04:50:17 | 47.50592 | 11.48786 | 149° | 69km/h | 15477m | 4.9m/s | -59.7°C | 7.0% | 119.8hPa | 2.6V | 00:00:00 | 01:11:09 | 00:00:00 | |
| IN3HCDX | 2026-09-04 04:50:16 | 47.50592 | 11.48786 | 149° | 71km/h | 15477m | 4.9m/s | 0°C | 0% | 0hPa | 2.6V | 02:28:00 | 00:00:00 | 00:00:00 | |
| DB0NH | 2026-09-04 04:50:15 | 47.50622 | 11.48759 | 151° | 82km/h | 15468m | 3.4m/s | -59.7°C | 7.0% | 120.1hPa | 2.6V | 00:00:00 | 01:11:07 | 00:00:00 | |
| DB0UT-7 | 2026-09-04 04:50:13 | 47.50653 | 11.48732 | 150° | 69km/h | 15459m | 4.8m/s | -59.7°C | 7.0% | 120.2hPa | 2.6V | 00:00:00 | 01:11:05 | 00:00:00 | |
| DO3MHA-11 | 2026-09-04 04:50:10 | 47.50712 | 11.48677 | 146° | 69km/h | 15441m | 3.5m/s | -60.0°C | 7.1% | 120.6hPa | 2.6V | 02:27:00 | 01:11:01 | 00:00:00 | |
| DO3MHA-12 | 2026-09-04 04:50:07 | 47.50740 | 11.48648 | 145° | 69km/h | 15432m | 3.7m/s | -60.1°C | 7.2% | 120.7hPa | 2.6V | 02:27:00 | 01:10:59 | 00:00:00 | |
| DL6DJ-15 | 2026-09-04 04:50:04 | 47.50801 | 11.48593 | 150° | 71km/h | 15413m | 4.1m/s | -60.2°C | 3.2% | 121.2hPa | 2.6V | 00:00:00 | 00:00:00 | 00:00:00 | |
| OE5MMP-10 | 2026-09-04 04:50:03 | 47.50801 | 11.48593 | 151° | 69km/h | 15413m | 4.1m/s | -60.2°C | 7.4% | 121.1hPa | 2.6V | 02:27:00 | 01:10:55 | 00:00:00 | |
| NBG1-10 | 2026-09-04 04:50:01 | 47.50832 | 11.48566 | 151° | 73km/h | 15405m | 5.2m/s | -60.2°C | 7.4% | 121.2hPa | 2.7V | 00:00:00 | 01:10:53 | 00:00:00 | |
| DO3MHA-11 | 2026-09-04 04:49:59 | 47.50862 | 11.48541 | 149° | 69km/h | 15395m | 4.7m/s | -60.1°C | 7.4% | 121.4hPa | 2.7V | 00:00:00 | 01:10:51 | 00:00:00 | |
| DF1GD-15 | 2026-09-04 04:49:58 | 47.50862 | 11.48541 | 150° | 66km/h | 15395m | 4.8m/s | -60.2°C | 3.3% | 121.5hPa | 2.7V | 02:28:00 | 00:00:00 | 00:00:00 | |
| DO3MHA-12 | 2026-09-04 04:49:57 | 47.50890 | 11.48515 | 148° | 71km/h | 15386m | 4.5m/s | -60.1°C | 7.5% | 121.6hPa | 2.7V | 00:00:00 | 01:10:49 | 00:00:00 | |
| IN3HCDX | 2026-09-04 04:49:55 | 47.50905 | 11.48501 | 149° | 66km/h | 15381m | 5.8m/s | 0°C | 0% | 0hPa | 2.7V | 02:28:00 | 00:00:00 | 00:00:00 | |
| OE5MMP-10 | 2026-09-04 04:49:53 | 47.50949 | 11.48460 | 148° | 73km/h | 15367m | 4.0m/s | -60.0°C | 7.6% | 122.0hPa | 2.7V | 00:00:00 | 01:10:45 | 00:00:00 | |
| OE5DRO-10 | 2026-09-04 04:49:50 | 47.50996 | 11.48418 | 150° | 75km/h | 15353m | 4.7m/s | -60.0°C | 7.5% | 122.2hPa | 2.7V | 00:00:00 | 00:00:00 | 00:00:00 | |
| BAUMI2-15 | 2026-09-04 04:49:49 | 47.51012 | 11.48403 | 149° | 73km/h | 15348m | 4.7m/s | 0°C | 0% | 0hPa | 2.7V | 02:27:00 | 01:10:41 | 00:00:00 | |
| OE5DXL-15 | 2026-09-04 04:49:48 | 47.51029 | 11.48389 | 149° | 77km/h | 15344m | 4.3m/s | -60.0°C | 7.7% | 122.5hPa | 2.7V | 02:27:00 | 00:00:00 | 00:00:00 | |
| DO3MHA-12 | 2026-09-04 04:49:47 | 47.51045 | 11.48375 | 150° | 71km/h | 15339m | 5.3m/s | -60.0°C | 7.7% | 122.5hPa | 2.6V | 00:00:00 | 01:10:39 | 00:00:00 | |
| OE5WHR-10 | 2026-09-04 04:49:46 | 47.51060 | 11.48361 | 150° | 75km/h | 15334m | 3.7m/s | -60.0°C | 7.8% | 122.6hPa | 2.6V | 02:27:00 | 00:00:00 | 00:00:00 | |
| DG1MFX-10 | 2026-09-04 04:49:44 | 47.51076 | 11.48347 | 150° | 69km/h | 15331m | 4.5m/s | -60.0°C | 3.6% | 122.8hPa | 2.6V | 02:28:00 | 00:00:00 | 00:00:00 | |
| OE5MMP-10 | 2026-09-04 04:49:43 | 47.51106 | 11.48319 | 148° | 73km/h | 15322m | 4.2m/s | 0°C | 0% | 0hPa | 2.6V | 00:00:00 | 01:10:35 | 00:00:00 | |
| BAUMI2-15 | 2026-09-04 04:49:40 | 47.51152 | 11.48278 | 151° | 71km/h | 15308m | 4.0m/s | 0°C | 0% | 0hPa | 2.6V | 00:00:00 | 01:10:32 | 00:00:00 | |
| DB0ND-19 | 2026-09-04 04:49:39 | 47.51167 | 11.48265 | 149° | 71km/h | 15303m | 5.4m/s | -59.9°C | 3.7% | 123.3hPa | 2.6V | 00:00:00 | 00:00:00 | 00:00:00 | |
| DF3TZ-5 | 2026-09-04 04:49:37 | 47.51216 | 11.48221 | 147° | 75km/h | 15289m | 4.6m/s | 0°C | -1.0% | 123.5hPa | 2.6V | 00:00:00 | 00:00:00 | 00:00:00 | |
| BAUMI2-15 | 2026-09-04 04:49:35 | 47.51232 | 11.48205 | 148° | 78km/h | 15285m | 4.7m/s | 0°C | 0% | 0hPa | 2.6V | 00:00:00 | 01:10:27 | 00:00:00 | |
| IN3HCDX | 2026-09-04 04:49:34 | 47.51232 | 11.48205 | 149° | 77km/h | 15285m | 4.7m/s | 0°C | 0% | 0hPa | 2.6V | 00:00:00 | 00:00:00 | 00:00:00 | |
| DL6DJ-15 | 2026-09-04 04:49:33 | 47.51283 | 11.48159 | 149° | 77km/h | 15270m | 5.5m/s | -59.9°C | 3.8% | 123.9hPa | 2.6V | 00:00:00 | 00:00:00 | 00:00:00 | |
| OE5DRO-10 | 2026-09-04 04:49:31 | 47.51300 | 11.48145 | 151° | 82km/h | 15266m | 4.2m/s | -59.9°C | 8.0% | 123.9hPa | 2.6V | 00:00:00 | 00:00:00 | 00:00:00 | |
| BAUMI2-15 | 2026-09-04 04:49:30 | 47.51317 | 11.48130 | 151° | 78km/h | 15260m | 6.0m/s | 0°C | 0% | 0hPa | 2.6V | 02:28:00 | 01:10:22 | 00:00:00 | |
| DO3MHA-11 | 2026-09-04 04:49:29 | 47.51335 | 11.48116 | 150° | 78km/h | 15255m | 4.2m/s | -59.9°C | 8.1% | 124.1hPa | 2.6V | 00:00:00 | 01:10:21 | 00:00:00 | |
| NBG1-10 | 2026-09-04 04:49:28 | 47.51352 | 11.48101 | 150° | 86km/h | 15251m | 3.8m/s | -60.0°C | 8.2% | 124.2hPa | 2.6V | 00:00:00 | 01:10:20 | 00:00:00 | |
| DO3MHA-12 | 2026-09-04 04:49:27 | 47.51368 | 11.48086 | 150° | 80km/h | 15246m | 5.5m/s | -60.0°C | 8.2% | 124.3hPa | 2.6V | 00:00:00 | 01:10:19 | 00:00:00 | |
| OE5WHR-10 | 2026-09-04 04:49:25 | 47.51401 | 11.48058 | 150° | 86km/h | 15238m | 4.9m/s | -60.1°C | 8.4% | 124.5hPa | 2.6V | 00:00:00 | 00:00:00 | 00:00:00 | |
| OE5MMP-10 | 2026-09-04 04:49:23 | 47.51435 | 11.48027 | 148° | 84km/h | 15229m | 3.6m/s | -60.1°C | 8.4% | 124.7hPa | 2.6V | 00:00:00 | 01:10:15 | 00:00:00 | |
| DO3MHA-11 | 2026-09-04 04:49:19 | 47.51505 | 11.47960 | 148° | 86km/h | 15210m | 4.4m/s | -60.1°C | 8.4% | 125.0hPa | 2.6V | 00:00:00 | 01:10:11 | 00:00:00 | |
| BAUMI2-15 | 2026-09-04 04:49:18 | 47.51523 | 11.47943 | 148° | 86km/h | 15206m | 4.6m/s | 0°C | 0% | 0hPa | 2.6V | 00:00:00 | 01:10:10 | 00:00:00 | |
| OE5DXL-15 | 2026-09-04 04:49:17 | 47.51541 | 11.47926 | 147° | 91km/h | 15201m | 4.3m/s | -60.2°C | 8.5% | 125.2hPa | 2.6V | 00:00:00 | 00:00:00 | 00:00:00 | |
| OE5MMP-10 | 2026-09-04 04:49:13 | 47.51612 | 11.47850 | 143° | 89km/h | 15183m | 5.2m/s | -60.3°C | 8.5% | 125.6hPa | 2.6V | 00:00:00 | 01:10:05 | 00:00:00 | |
| OE5DRO-10 | 2026-09-04 04:49:12 | 47.51629 | 11.47830 | 143° | 91km/h | 15179m | 3.6m/s | -60.3°C | 8.6% | 125.7hPa | 2.6V | 02:28:00 | 00:00:00 | 00:00:00 | |
| DO3MHA-11 | 2026-09-04 04:49:09 | 47.51683 | 11.47771 | 145° | 91km/h | 15164m | 5.2m/s | -60.3°C | 8.8% | 125.9hPa | 2.7V | 02:28:00 | 01:10:01 | 00:00:00 | |
| DB0ND-19 | 2026-09-04 04:49:08 | 47.51701 | 11.47751 | 145° | 89km/h | 15160m | 3.7m/s | -60.5°C | 4.6% | 126.1hPa | 2.6V | 00:00:00 | 00:00:00 | 00:00:00 | |
| DO3MHA-12 | 2026-09-04 04:49:07 | 47.51721 | 11.47732 | 147° | 91km/h | 15156m | 3.6m/s | -60.6°C | 9.0% | 126.1hPa | 2.6V | 02:28:00 | 01:09:59 | 00:00:00 | |
| BAUMI2-15 | 2026-09-04 04:49:06 | 47.51740 | 11.47713 | 148° | 91km/h | 15152m | 4.8m/s | 0°C | 0% | 0hPa | 2.6V | 00:00:00 | 01:09:58 | 00:00:00 | |
| OE5WHR-10 | 2026-09-04 04:49:04 | 47.51781 | 11.47675 | 148° | 95km/h | 15144m | 4.4m/s | -60.6°C | 9.1% | 126.4hPa | 2.6V | 00:00:00 | 01:09:56 | 00:00:00 | |
| DG1MFX-10 | 2026-09-04 04:49:03 | 47.51781 | 11.47675 | 148° | 95km/h | 15144m | 4.5m/s | -60.7°C | 4.7% | 126.4hPa | 2.6V | 02:28:00 | 00:00:00 | 00:00:00 | |
| DL6DJ-15 | 2026-09-04 04:49:02 | 47.51838 | 11.47618 | 144° | 89km/h | 15131m | 4.7m/s | -61.0°C | 4.8% | 126.7hPa | 2.6V | 00:00:00 | 00:00:00 | 00:00:00 | |
| BAUMI2-15 | 2026-09-04 04:49:00 | 47.51857 | 11.47598 | 144° | 91km/h | 15127m | 3.9m/s | 0°C | 0% | 0hPa | 2.6V | 02:28:00 | 01:09:52 | 00:00:00 | |
| DO3MHA-11 | 2026-09-04 04:48:59 | 47.51875 | 11.47578 | 143° | 93km/h | 15122m | 4.6m/s | -61.2°C | 9.5% | 126.8hPa | 2.6V | 00:00:00 | 01:09:51 | 00:00:00 | |
| NBG1-10 | 2026-09-04 04:48:55 | 47.51946 | 11.47497 | 143° | 97km/h | 15106m | 4.2m/s | -61.4°C | 9.9% | 127.2hPa | 2.6V | 02:28:00 | 01:09:47 | 00:00:00 | |
| OE5MMP-10 | 2026-09-04 04:48:54 | 47.51965 | 11.47477 | 144° | 100km/h | 15101m | 5.4m/s | -61.5°C | 10.1% | 127.2hPa | 2.6V | 02:28:00 | 01:09:46 | 00:00:00 | |
| OE5DRO-10 | 2026-09-04 04:48:53 | 47.51984 | 11.47456 | 144° | 100km/h | 15096m | 3.6m/s | -61.5°C | 10.4% | 127.4hPa | 2.6V | 00:00:00 | 00:00:00 | 00:00:00 | |
| BAUMI2-15 | 2026-09-04 04:48:52 | 47.52003 | 11.47435 | 145° | 100km/h | 15092m | 5.1m/s | 0°C | 0% | 0hPa | 2.6V | 00:00:00 | 01:09:44 | 00:00:00 | |
| DO3MHA-11 | 2026-09-04 04:48:49 | 47.52065 | 11.47368 | 144° | 100km/h | 15078m | 4.3m/s | -61.6°C | 10.6% | 127.7hPa | 2.6V | 00:00:00 | 01:09:41 | 00:00:00 | |
| OE5DXL-15 | 2026-09-04 04:48:48 | 47.52086 | 11.47346 | 144° | 95km/h | 15074m | 3.8m/s | -61.6°C | 10.5% | 127.8hPa | 2.6V | 00:00:00 | 00:00:00 | 00:00:00 | |
| DO3MHA-12 | 2026-09-04 04:48:47 | 47.52106 | 11.47324 | 145° | 100km/h | 15070m | 5.2m/s | -61.6°C | 10.6% | 127.9hPa | 2.6V | 00:00:00 | 01:09:39 | 00:00:00 | |
| OE5MMP-10 | 2026-09-04 04:48:44 | 47.52169 | 11.47257 | 144° | 100km/h | 15056m | 3.7m/s | -61.7°C | 10.7% | 128.2hPa | 2.6V | 00:00:00 | 01:09:36 | 00:00:00 | |
| OE5WHR-10 | 2026-09-04 04:48:43 | 47.52189 | 11.47235 | 143° | 95km/h | 15052m | 4.3m/s | -61.7°C | 10.7% | 128.2hPa | 2.6V | 02:29:00 | 00:00:00 | 00:00:00 | |
| DG1MFX-10 | 2026-09-04 04:48:42 | 47.52189 | 11.47235 | 143° | 100km/h | 15052m | 4.3m/s | -61.8°C | 5.8% | 128.3hPa | 2.7V | 02:29:00 | 00:00:00 | 00:00:00 | |
| BAUMI2-15 | 2026-09-04 04:48:41 | 47.52228 | 11.47187 | 139° | 100km/h | 15043m | 4.7m/s | 0°C | 0% | 0hPa | 2.7V | 02:29:00 | 01:09:33 | 00:00:00 | |
| DO3MHA-11 | 2026-09-04 04:48:39 | 47.52266 | 11.47137 | 138° | 97km/h | 15034m | 3.5m/s | -61.7°C | 11.0% | 128.6hPa | 2.7V | 02:29:00 | 01:09:31 | 00:00:00 | |
| DO3MHA-12 | 2026-09-04 04:48:37 | 47.52303 | 11.47086 | 138° | 93km/h | 15025m | 3.3m/s | -61.8°C | 11.2% | 128.8hPa | 2.6V | 02:29:00 | 01:09:29 | 00:00:00 | |
| BAUMI2-15 | 2026-09-04 04:48:36 | 47.52322 | 11.47060 | 138° | 97km/h | 15021m | 5.2m/s | 0°C | 0% | 0hPa | 2.6V | 00:00:00 | 01:09:28 | 00:00:00 | |
| OE5MMP-10 | 2026-09-04 04:48:34 | 47.52359 | 11.47012 | 140° | 91km/h | 15012m | 4.7m/s | -61.9°C | 11.5% | 129.1hPa | 2.6V | 00:00:00 | 01:09:26 | 00:00:00 | |
| DG1MJG | 2026-09-04 04:48:32 | 47.52378 | 11.46989 | 141° | 97km/h | 15007m | 4.3m/s | -61.9°C | 6.3% | 129.2hPa | 2.6V | 02:29:00 | 00:00:00 | 00:00:00 | |
| DL6DJ-15 | 2026-09-04 04:48:31 | 47.52431 | 11.46922 | 139° | 88km/h | 14994m | 4.2m/s | -62.0°C | 6.6% | 129.5hPa | 2.6V | 00:00:00 | 00:00:00 | 00:00:00 | |
| DO3MHA-11 | 2026-09-04 04:48:29 | 47.52447 | 11.46900 | 139° | 91km/h | 14990m | 3.7m/s | -62.0°C | 11.8% | 129.6hPa | 2.6V | 00:00:00 | 01:09:21 | 00:00:00 | |
| DO3MHA-12 | 2026-09-04 04:48:27 | 47.52481 | 11.46856 | 138° | 91km/h | 14982m | 3.4m/s | -62.0°C | 12.2% | 129.7hPa | 2.6V | 00:00:00 | 01:09:19 | 00:00:00 | |
| BAUMI2-15 | 2026-09-04 04:48:25 | 47.52513 | 11.46810 | 135° | 93km/h | 14973m | 4.2m/s | 0°C | 0% | 0hPa | 2.6V | 02:29:00 | 01:09:17 | 00:00:00 | |
| OE5MMP-10 | 2026-09-04 04:48:24 | 47.52529 | 11.46786 | 134° | 91km/h | 14969m | 3.9m/s | -62.0°C | 12.6% | 130.0hPa | 2.6V | 02:29:00 | 01:09:16 | 00:00:00 | |
| OE5WHR-10 | 2026-09-04 04:48:22 | 47.52561 | 11.46736 | 134° | 89km/h | 14959m | 3.8m/s | -62.0°C | 12.8% | 130.2hPa | 2.6V | 00:00:00 | 00:00:00 | 00:00:00 | |
| BAUMI2-15 | 2026-09-04 04:48:20 | 47.52594 | 11.46685 | 135° | 93km/h | 14951m | 4.5m/s | 0°C | 0% | 0hPa | 2.6V | 00:00:00 | 01:09:12 | 00:00:00 | |
| DO3MHA-11 | 2026-09-04 04:48:19 | 47.52611 | 11.46660 | 136° | 89km/h | 14947m | 3.5m/s | -62.1°C | 13.3% | 130.5hPa | 2.6V | 00:00:00 | 01:09:11 | 00:00:00 | |
| OE5DXL-15 | 2026-09-04 04:48:18 | 47.52628 | 11.46636 | 137° | 86km/h | 14943m | 4.6m/s | -62.1°C | 13.4% | 130.5hPa | 2.6V | 02:29:00 | 00:00:00 | 00:00:00 | |
| DO3MHA-12 | 2026-09-04 04:48:17 | 47.52645 | 11.46613 | 138° | 89km/h | 14938m | 4.5m/s | -62.2°C | 13.5% | 130.7hPa | 2.7V | 00:00:00 | 01:09:09 | 00:00:00 | |
| OE5DRO-10 | 2026-09-04 04:48:15 | 47.52679 | 11.46568 | 138° | 86km/h | 14930m | 5.1m/s | -62.3°C | 13.5% | 130.8hPa | 2.7V | 02:29:00 | 00:00:00 | 00:00:00 | |
| OE5MMP-10 | 2026-09-04 04:48:14 | 47.52695 | 11.46546 | 138° | 89km/h | 14926m | 3.2m/s | -62.3°C | 13.4% | 130.9hPa | 2.7V | 00:00:00 | 01:09:06 | 00:00:00 | |
| DB0UT-7 | 2026-09-04 04:48:13 | 47.52711 | 11.46525 | 138° | 86km/h | 14922m | 4.9m/s | -62.3°C | 13.4% | 130.9hPa | 2.7V | 00:00:00 | 01:09:05 | 00:00:00 | |
| DO3MHA-11 | 2026-09-04 04:48:09 | 47.52775 | 11.46430 | 134° | 86km/h | 14905m | 4.3m/s | -62.4°C | 14.0% | 131.3hPa | 2.7V | 02:29:00 | 01:09:01 | 00:00:00 | |
| DO3MHA-12 | 2026-09-04 04:48:07 | 47.52807 | 11.46382 | 136° | 84km/h | 14896m | 3.9m/s | -62.5°C | 14.3% | 131.6hPa | 2.6V | 02:29:00 | 01:08:59 | 00:00:00 | |
| DB0ND-19 | 2026-09-04 04:48:06 | 47.52823 | 11.46358 | 135° | 88km/h | 14891m | 5.4m/s | -62.5°C | 8.7% | 131.7hPa | 2.6V | 00:00:00 | 00:00:00 | 00:00:00 | |
| OE5MMP-10 | 2026-09-04 04:48:04 | 47.52855 | 11.46314 | 139° | 82km/h | 14882m | 5.5m/s | -62.6°C | 14.9% | 131.8hPa | 2.6V | 00:00:00 | 01:08:56 | 00:00:00 | |
| OE5WHR-10 | 2026-09-04 04:48:01 | 47.52903 | 11.46254 | 140° | 84km/h | 14869m | 4.9m/s | -62.7°C | 15.5% | 132.1hPa | 2.6V | 00:00:00 | 01:08:53 | 00:00:00 | |
| DO3MHA-11 | 2026-09-04 04:47:59 | 47.52933 | 11.46214 | 139° | 86km/h | 14860m | 5.1m/s | -62.7°C | 15.5% | 132.3hPa | 2.6V | 00:00:00 | 01:08:51 | 00:00:00 | |
| OE5DRO-10 | 2026-09-04 04:47:57 | 47.52980 | 11.46152 | 137° | 84km/h | 14846m | 4.8m/s | -62.8°C | 15.4% | 132.6hPa | 2.6V | 00:00:00 | 00:00:00 | 00:00:00 | |
| OE5MMP-10 | 2026-09-04 04:47:54 | 47.53011 | 11.46107 | 137° | 84km/h | 14837m | 4.8m/s | -62.8°C | 15.3% | 132.8hPa | 2.6V | 02:29:00 | 01:08:46 | 00:00:00 | |
| OE3JTB-15 | 2026-09-04 04:47:51 | 47.53060 | 11.46040 | 137° | 88km/h | 14824m | 4.9m/s | -63.1°C | 15.9% | 133.1hPa | 2.7V | 00:00:00 | 01:08:43 | 00:00:00 | |
| DO3MHA-11 | 2026-09-04 04:47:49 | 47.53091 | 11.45997 | 138° | 82km/h | 14815m | 5.1m/s | -63.1°C | 15.9% | 133.3hPa | 2.7V | 00:00:00 | 01:08:41 | 00:00:00 | |
| OE5DXL-15 | 2026-09-04 04:47:48 | 47.53106 | 11.45976 | 139° | 88km/h | 14811m | 4.4m/s | -63.1°C | 16.1% | 133.4hPa | 2.7V | 00:00:00 | 01:08:40 | 00:00:00 | |
| DO3MHA-12 | 2026-09-04 04:47:47 | 47.53121 | 11.45956 | 138° | 84km/h | 14806m | 4.9m/s | -63.2°C | 16.5% | 133.5hPa | 2.7V | 00:00:00 | 01:08:39 | 00:00:00 | |
| OE5MMP-10 | 2026-09-04 04:47:44 | 47.53166 | 11.45895 | 138° | 84km/h | 14792m | 5.1m/s | -63.1°C | 16.8% | 133.8hPa | 2.7V | 00:00:00 | 01:08:36 | 00:00:00 | |
| DB0UT-7 | 2026-09-04 04:47:43 | 47.53182 | 11.45874 | 138° | 89km/h | 14788m | 3.6m/s | -63.1°C | 16.6% | 133.9hPa | 2.7V | 02:30:00 | 00:00:00 | 00:00:00 | |
| DG1MFX-10 | 2026-09-04 04:47:41 | 47.53197 | 11.45852 | 137° | 86km/h | 14783m | 5.3m/s | -63.2°C | 10.5% | 134.1hPa | 2.6V | 02:30:00 | 00:00:00 | 00:00:00 | |
| OE5WHR-10 | 2026-09-04 04:47:40 | 47.53229 | 11.45807 | 137° | 89km/h | 14774m | 5.4m/s | -63.3°C | 16.9% | 134.2hPa | 2.6V | 02:30:00 | 00:00:00 | 00:00:00 | |
| DL1ZP-14 | 2026-09-04 04:47:39 | 47.53261 | 11.45762 | 135° | 86km/h | 14765m | 5.6m/s | -63.6°C | -1.0% | -1.0hPa | 2.7V | 00:00:00 | 00:00:00 | 00:00:00 | |
| DO3MHA-12 | 2026-09-04 04:47:37 | 47.53276 | 11.45739 | 136° | 88km/h | 14760m | 4.3m/s | -63.8°C | 17.4% | 134.5hPa | 2.6V | 02:30:00 | 01:08:29 | 00:00:00 | |
| DB0ND-19 | 2026-09-04 04:47:35 | 47.53306 | 11.45697 | 137° | 80km/h | 14751m | 4.7m/s | -64.0°C | 11.0% | 134.7hPa | 2.6V | 00:00:00 | 00:00:00 | 00:00:00 | |
| OE5MMP-10 | 2026-09-04 04:47:34 | 47.53321 | 11.45677 | 140° | 91km/h | 14747m | 4.4m/s | -64.0°C | 17.8% | 134.8hPa | 2.6V | 00:00:00 | 01:08:26 | 00:00:00 | |
| DG1MJG | 2026-09-04 04:47:31 | 47.53355 | 11.45634 | 140° | 91km/h | 14737m | 5.2m/s | -64.2°C | 11.4% | 135.1hPa | 2.6V | 02:30:00 | 00:00:00 | 00:00:00 | |
| DO3MHA-11 | 2026-09-04 04:47:29 | 47.53406 | 11.45566 | 138° | 93km/h | 14722m | 5.2m/s | -64.4°C | 19.1% | 135.3hPa | 2.6V | 00:00:00 | 01:08:21 | 00:00:00 | |
| DL6DJ-15 | 2026-09-04 04:47:28 | 47.53422 | 11.45543 | 136° | 88km/h | 14717m | 4.8m/s | -64.4°C | 12.1% | 135.5hPa | 2.6V | 00:00:00 | 00:00:00 | 00:00:00 | |
| DO3MHA-12 | 2026-09-04 04:47:27 | 47.53439 | 11.45520 | 137° | 93km/h | 14712m | 5.7m/s | -64.3°C | 19.2% | 135.5hPa | 2.6V | 00:00:00 | 01:08:19 | 00:00:00 | |
| DO8TBO-1 | 2026-09-04 04:47:24 | 47.53489 | 11.45447 | 135° | 88km/h | 14697m | 5.4m/s | -64.2°C | 20.0% | 135.9hPa | 2.6V | 00:00:00 | 01:08:16 | 00:00:00 | |
| OE3JTB-15 | 2026-09-04 04:47:20 | 47.53555 | 11.45345 | 134° | 82km/h | 14679m | 4.3m/s | -64.1°C | 19.2% | 136.3hPa | 2.6V | 02:30:00 | 00:00:00 | 00:00:00 | |
| DO3MHA-11 | 2026-09-04 04:47:19 | 47.53571 | 11.45319 | 134° | 89km/h | 14673m | 5.6m/s | -64.1°C | 19.1% | 136.4hPa | 2.6V | 00:00:00 | 01:08:11 | 00:00:00 | |
| OE5DXL-15 | 2026-09-04 04:47:18 | 47.53588 | 11.45294 | 134° | 84km/h | 14668m | 6.5m/s | -64.0°C | 18.9% | 136.5hPa | 2.6V | 00:00:00 | 00:00:00 | 00:00:00 | |
| DO3MHA-12 | 2026-09-04 04:47:17 | 47.53605 | 11.45268 | 134° | 88km/h | 14662m | 4.3m/s | -64.1°C | 19.2% | 136.7hPa | 2.6V | 00:00:00 | 01:08:09 | 00:00:00 | |
| OE5MMP-10 | 2026-09-04 04:47:16 | 47.53621 | 11.45242 | 133° | 88km/h | 14657m | 5.4m/s | -64.1°C | 19.1% | 136.8hPa | 2.6V | 02:30:00 | 01:08:08 | 00:00:00 | |
| DF1GD-15 | 2026-09-04 04:47:13 | 47.53652 | 11.45192 | 133° | 88km/h | 14646m | 5.0m/s | -64.1°C | 12.5% | 137.1hPa | 2.6V | 02:30:00 | 00:00:00 | 00:00:00 | |
| DO3MHA-11 | 2026-09-04 04:47:09 | 47.53723 | 11.45070 | 132° | 84km/h | 14619m | 5.0m/s | -63.9°C | 19.7% | 137.6hPa | 2.6V | 02:30:00 | 01:08:01 | 00:00:00 | |
| DO3MHA-12 | 2026-09-04 04:47:07 | 47.53752 | 11.45023 | 133° | 84km/h | 14608m | 3.7m/s | -63.9°C | 20.0% | 137.9hPa | 2.6V | 02:30:00 | 01:07:59 | 00:00:00 | |
| OE5MMP-10 | 2026-09-04 04:47:06 | 47.53767 | 11.45000 | 134° | 82km/h | 14604m | 5.0m/s | -63.9°C | 20.0% | 138.0hPa | 2.6V | 00:00:00 | 01:07:58 | 00:00:00 | |
| DB0ND-19 | 2026-09-04 04:47:04 | 47.53796 | 11.44955 | 134° | 82km/h | 14593m | 4.9m/s | -64.0°C | 13.2% | 138.3hPa | 2.6V | 00:00:00 | 00:00:00 | 00:00:00 | |
| DL6DJ-15 | 2026-09-04 04:46:58 | 47.53890 | 11.44791 | 128° | 77km/h | 14558m | 5.5m/s | -64.6°C | 14.9% | 139.0hPa | 2.6V | 00:00:00 | 00:00:00 | 00:00:00 | |
| DO3MHA-12 | 2026-09-04 04:46:57 | 47.53890 | 11.44791 | 129° | 77km/h | 14559m | 5.4m/s | -64.5°C | 22.5% | 139.0hPa | 2.6V | 00:00:00 | 01:07:49 | 00:00:00 | |
| OE5MMP-10 | 2026-09-04 04:46:56 | 47.53903 | 11.44769 | 130° | 77km/h | 14554m | 4.4m/s | -64.5°C | 22.8% | 139.1hPa | 2.6V | 00:00:00 | 01:07:48 | 00:00:00 | |
| DO8TBO-1 | 2026-09-04 04:46:54 | 47.53928 | 11.44727 | 133° | 84km/h | 14544m | 4.9m/s | -64.5°C | 22.8% | 139.4hPa | 2.6V | 00:00:00 | 01:07:46 | 00:00:00 | |
| DF1GD-15 | 2026-09-04 04:46:52 | 47.53941 | 11.44706 | 135° | 77km/h | 14539m | 4.6m/s | -64.5°C | 15.2% | 139.5hPa | 2.6V | 02:31:00 | 00:00:00 | 00:00:00 | |
| OE3JTB-15 | 2026-09-04 04:46:51 | 47.53969 | 11.44666 | 136° | 82km/h | 14529m | 4.1m/s | -64.5°C | 23.4% | 139.7hPa | 2.6V | 00:00:00 | 00:00:00 | 00:00:00 | |
| DO3MHA-11 | 2026-09-04 04:46:49 | 47.53997 | 11.44624 | 134° | 80km/h | 14519m | 4.5m/s | -64.5°C | 24.0% | 139.9hPa | 2.6V | 00:00:00 | 01:07:41 | 00:00:00 | |
| DO3MHA-12 | 2026-09-04 04:46:47 | 47.54023 | 11.44580 | 132° | 82km/h | 14509m | 4.3m/s | -64.6°C | 24.9% | 140.1hPa | 2.6V | 00:00:00 | 01:07:39 | 00:00:00 | |
| OE5MMP-10 | 2026-09-04 04:46:46 | 47.54037 | 11.44558 | 132° | 82km/h | 14504m | 5.2m/s | -64.6°C | 25.3% | 140.2hPa | 2.6V | 02:30:00 | 01:07:38 | 00:00:00 | |
| NBG1-10 | 2026-09-04 04:46:43 | 47.54077 | 11.44490 | 132° | 84km/h | 14490m | 4.9m/s | -64.7°C | 26.2% | 140.6hPa | 2.6V | 00:00:00 | 01:07:35 | 00:00:00 | |
| OE5DRO-10 | 2026-09-04 04:46:40 | 47.54119 | 11.44423 | 135° | 84km/h | 14476m | 4.9m/s | -64.8°C | 27.6% | 140.9hPa | 2.6V | 00:00:00 | 00:00:00 | 00:00:00 | |
| DO3MHA-11 | 2026-09-04 04:46:39 | 47.54134 | 11.44401 | 136° | 82km/h | 14471m | 5.3m/s | -64.8°C | 27.8% | 141.0hPa | 2.6V | 02:31:00 | 01:07:31 | 00:00:00 | |
| DG1MFX-10 | 2026-09-04 04:46:38 | 47.54135 | 11.44401 | 136° | 84km/h | 14471m | 5.3m/s | -64.9°C | 19.2% | 141.1hPa | 2.7V | 02:31:00 | 00:00:00 | 00:00:00 | |
| DO3MHA-12 | 2026-09-04 04:46:37 | 47.54165 | 11.44357 | 136° | 82km/h | 14461m | 4.4m/s | -64.8°C | 28.2% | 141.2hPa | 2.7V | 02:31:00 | 01:07:29 | 00:00:00 | |
| PG1ADW-2 | 2026-09-04 04:46:36 | 47.54180 | 11.44335 | 136° | 84km/h | 14456m | 5.0m/s | -64.8°C | 28.7% | 141.4hPa | 2.6V | 00:00:00 | 00:00:00 | 00:00:00 | |
| DB0ND-19 | 2026-09-04 04:46:33 | 47.54224 | 11.44270 | 133° | 78km/h | 14442m | 4.2m/s | -64.8°C | 20.8% | 141.8hPa | 2.6V | 00:00:00 | 00:00:00 | 00:00:00 | |
| DF1GD-15 | 2026-09-04 04:46:32 | 47.54223 | 11.44269 | 135° | 80km/h | 14442m | 4.2m/s | -64.8°C | 20.8% | 141.8hPa | 2.6V | 02:31:00 | 00:00:00 | 00:00:00 | |
| DG1MJG | 2026-09-04 04:46:30 | 47.54251 | 11.44225 | 133° | 82km/h | 14433m | 4.1m/s | -64.8°C | 21.1% | 142.0hPa | 2.6V | 02:31:00 | 00:00:00 | 00:00:00 | |
| DO3MHA-11 | 2026-09-04 04:46:29 | 47.54279 | 11.44180 | 132° | 86km/h | 14422m | 4.9m/s | -64.8°C | 31.1% | 142.1hPa | 2.6V | 00:00:00 | 01:07:21 | 00:00:00 | |
| DO3MHA-12 | 2026-09-04 04:46:27 | 47.54306 | 11.44134 | 132° | 86km/h | 14412m | 4.4m/s | -64.7°C | 31.5% | 142.4hPa | 2.6V | 00:00:00 | 01:07:19 | 00:00:00 | |
| OE5MMP-10 | 2026-09-04 04:46:26 | 47.54321 | 11.44111 | 133° | 86km/h | 14407m | 4.6m/s | -64.7°C | 31.5% | 142.5hPa | 2.6V | 00:00:00 | 01:07:18 | 00:00:00 | |
| OE5DRO-10 | 2026-09-04 04:46:22 | 47.54397 | 11.43993 | 134° | 86km/h | 14383m | 5.7m/s | -64.7°C | 31.7% | 143.2hPa | 2.6V | 02:31:00 | 00:00:00 | 00:00:00 | |
| DO3MHA-11 | 2026-09-04 04:46:19 | 47.54427 | 11.43946 | 133° | 84km/h | 14373m | 5.8m/s | -64.7°C | 32.0% | 143.3hPa | 2.6V | 00:00:00 | 01:07:11 | 00:00:00 | |
| OE3JTB-15 | 2026-09-04 04:46:18 | 47.54441 | 11.43922 | 132° | 80km/h | 14368m | 4.2m/s | -64.8°C | 32.3% | 143.5hPa | 2.6V | 00:00:00 | 01:07:10 | 00:00:00 | |
| DO3MHA-12 | 2026-09-04 04:46:17 | 47.54455 | 11.43899 | 133° | 86km/h | 14363m | 5.5m/s | -64.9°C | 32.6% | 143.6hPa | 2.6V | 00:00:00 | 01:07:09 | 00:00:00 | |
| OE5WHR-10 | 2026-09-04 04:46:16 | 47.54469 | 11.43876 | 133° | 88km/h | 14358m | 4.9m/s | -65.0°C | 32.9% | 143.7hPa | 2.6V | 00:00:00 | 00:00:00 | 00:00:00 | |
| DF7PN | 2026-09-04 04:46:12 | 47.54525 | 11.43784 | 133° | 84km/h | 14337m | 4.7m/s | -65.1°C | 24.6% | 144.2hPa | 2.6V | 00:00:00 | 00:00:00 | 00:00:00 | |
| DF1GD-15 | 2026-09-04 04:46:11 | 47.54525 | 11.43784 | 134° | 84km/h | 14337m | 4.7m/s | -65.1°C | 24.7% | 144.2hPa | 2.6V | 02:32:00 | 00:00:00 | 00:00:00 | |
| NBG1-10 | 2026-09-04 04:46:10 | 47.54554 | 11.43737 | 132° | 89km/h | 14327m | 5.2m/s | -65.1°C | 34.7% | 144.4hPa | 2.6V | 00:00:00 | 01:07:02 | 00:00:00 | |
| DO3MHA-11 | 2026-09-04 04:46:09 | 47.54569 | 11.43712 | 132° | 89km/h | 14322m | 4.0m/s | -65.1°C | 34.9% | 144.5hPa | 2.6V | 02:31:00 | 01:07:01 | 00:00:00 | |
| DO3MHA-12 | 2026-09-04 04:46:07 | 47.54600 | 11.43662 | 134° | 89km/h | 14312m | 4.4m/s | -65.4°C | 36.6% | 144.8hPa | 2.7V | 02:31:00 | 01:06:59 | 00:00:00 | |
| DL1ZP-14 | 2026-09-04 04:46:05 | 47.54632 | 11.43613 | 132° | 89km/h | 14302m | 4.8m/s | 0°C | -1.0% | -1.0hPa | 2.7V | 00:00:00 | 00:00:00 | 00:00:00 | |
| DO3MHA-11 | 2026-09-04 04:45:59 | 47.54727 | 11.43470 | 135° | 91km/h | 14273m | 5.8m/s | -66.1°C | 42.2% | 145.7hPa | 2.7V | 00:00:00 | 01:06:51 | 00:00:00 | |
| DO3MHA-12 | 2026-09-04 04:45:57 | 47.54758 | 11.43423 | 135° | 91km/h | 14263m | 6.1m/s | -66.1°C | 43.0% | 145.9hPa | 2.7V | 00:00:00 | 01:06:49 | 00:00:00 | |
| OE5MMP-10 | 2026-09-04 04:45:56 | 47.54774 | 11.43399 | 135° | 91km/h | 14257m | 4.6m/s | -66.0°C | 43.3% | 146.1hPa | 2.7V | 00:00:00 | 01:06:48 | 00:00:00 | |
| OE5WHR-10 | 2026-09-04 04:45:55 | 47.54790 | 11.43374 | 136° | 89km/h | 14252m | 5.5m/s | -66.0°C | 43.2% | 146.2hPa | 2.7V | 00:00:00 | 01:06:47 | 00:00:00 | |
| BAUMI2-15 | 2026-09-04 04:45:54 | 47.54807 | 11.43351 | 137° | 89km/h | 14247m | 4.5m/s | 0°C | 0% | 0hPa | 2.7V | 00:00:00 | 01:06:46 | 00:00:00 | |
| DO3MHA-11 | 2026-09-04 04:45:49 | 47.54892 | 11.43237 | 140° | 88km/h | 14222m | 4.5m/s | -65.8°C | 43.3% | 146.9hPa | 2.7V | 00:00:00 | 01:06:41 | 00:00:00 | |
| DO8TBO-1 | 2026-09-04 04:45:48 | 47.54927 | 11.43192 | 139° | 84km/h | 14212m | 4.3m/s | -65.8°C | 44.3% | 147.2hPa | 2.7V | 00:00:00 | 01:06:39 | 00:00:00 | |
| DO3MHA-12 | 2026-09-04 04:45:47 | 47.54927 | 11.43192 | 139° | 88km/h | 14212m | 4.3m/s | -65.8°C | 44.3% | 147.2hPa | 2.7V | 00:00:00 | 01:06:39 | 00:00:00 | |
| OE5MMP-10 | 2026-09-04 04:45:46 | 47.54945 | 11.43170 | 140° | 86km/h | 14207m | 5.8m/s | -65.8°C | 44.9% | 147.3hPa | 2.7V | 02:31:00 | 01:06:38 | 00:00:00 | |
| BAUMI2-15 | 2026-09-04 04:45:44 | 47.54978 | 11.43128 | 139° | 86km/h | 14197m | 4.1m/s | 0°C | 0% | 0hPa | 2.6V | 00:00:00 | 01:06:36 | 00:00:00 | |
| OE5DRO-10 | 2026-09-04 04:45:43 | 47.54995 | 11.43106 | 138° | 82km/h | 14193m | 5.2m/s | -66.1°C | 47.2% | 147.6hPa | 2.6V | 00:00:00 | 00:00:00 | 00:00:00 | |
| DF7PN | 2026-09-04 04:45:41 | 47.55042 | 11.43041 | 137° | 84km/h | 14178m | 4.7m/s | -66.0°C | 35.6% | 148.1hPa | 2.6V | 00:00:00 | 00:00:00 | 00:00:00 | |
| DO3MHA-11 | 2026-09-04 04:45:39 | 47.55058 | 11.43020 | 137° | 84km/h | 14173m | 5.7m/s | -66.0°C | 48.2% | 148.1hPa | 2.6V | 02:32:00 | 01:06:31 | 00:00:00 | |
| DO3MHA-12 | 2026-09-04 04:45:37 | 47.55090 | 11.42975 | 138° | 82km/h | 14163m | 5.4m/s | -65.8°C | 48.2% | 148.4hPa | 2.7V | 02:32:00 | 01:06:29 | 00:00:00 | |
| OE5WHR-10 | 2026-09-04 04:45:34 | 47.55138 | 11.42913 | 139° | 82km/h | 14149m | 5.0m/s | -65.8°C | 50.5% | 148.8hPa | 2.6V | 02:32:00 | 00:00:00 | 00:00:00 | |
| DB0ND-19 | 2026-09-04 04:45:31 | 47.55185 | 11.42852 | 138° | 78km/h | 14134m | 4.2m/s | -66.0°C | 38.4% | 149.1hPa | 2.7V | 00:00:00 | 00:00:00 | 00:00:00 | |
| DF1GD-15 | 2026-09-04 04:45:30 | 47.55185 | 11.42852 | 140° | 80km/h | 14134m | 4.2m/s | -66.0°C | 38.5% | 149.1hPa | 2.7V | 02:32:00 | 00:00:00 | 00:00:00 | |
| DO3MHA-11 | 2026-09-04 04:45:29 | 47.55216 | 11.42812 | 138° | 80km/h | 14124m | 4.2m/s | -66.3°C | 51.5% | 149.3hPa | 2.7V | 00:00:00 | 01:06:21 | 00:00:00 | |
| DB0NH | 2026-09-04 04:45:28 | 47.55230 | 11.42791 | 139° | 88km/h | 14119m | 5.6m/s | -66.3°C | 51.6% | 149.5hPa | 2.7V | 02:32:00 | 01:06:20 | 00:00:00 | |
| DO3MHA-12 | 2026-09-04 04:45:27 | 47.55245 | 11.42772 | 139° | 80km/h | 14114m | 4.3m/s | -66.3°C | 51.6% | 149.6hPa | 2.6V | 00:00:00 | 01:06:19 | 00:00:00 | |
| BAUMI2-15 | 2026-09-04 04:45:25 | 47.55275 | 11.42733 | 139° | 82km/h | 14105m | 4.5m/s | 0°C | 0% | 0hPa | 2.6V | 00:00:00 | 01:06:17 | 00:00:00 | |
| OE5DRO-10 | 2026-09-04 04:45:24 | 47.55290 | 11.42713 | 140° | 88km/h | 14100m | 4.6m/s | -66.3°C | 50.6% | 149.9hPa | 2.6V | 02:32:00 | 00:00:00 | 00:00:00 | |
| DO3MHA-11 | 2026-09-04 04:45:19 | 47.55369 | 11.42617 | 142° | 91km/h | 14076m | 5.6m/s | -66.4°C | 51.6% | 150.5hPa | 2.7V | 00:00:00 | 01:06:11 | 00:00:00 | |
| DG1MFX-10 | 2026-09-04 04:45:17 | 47.55403 | 11.42577 | 143° | 86km/h | 14066m | 5.9m/s | -66.5°C | 40.0% | 150.8hPa | 2.7V | 02:33:00 | 00:00:00 | 00:00:00 | |
| PG1ADW-2 | 2026-09-04 04:45:16 | 47.55420 | 11.42557 | 143° | 93km/h | 14060m | 4.4m/s | -66.5°C | 53.5% | 150.9hPa | 2.7V | 02:32:00 | 00:00:00 | 00:00:00 | |
| OE5MMP-10 | 2026-09-04 04:45:15 | 47.55438 | 11.42537 | 143° | 91km/h | 14056m | 4.9m/s | -66.5°C | 53.3% | 151.0hPa | 2.6V | 00:00:00 | 01:06:07 | 00:00:00 | |
| OE5WHR-10 | 2026-09-04 04:45:13 | 47.55476 | 11.42496 | 144° | 91km/h | 14046m | 4.4m/s | -66.6°C | 53.8% | 151.3hPa | 2.6V | 00:00:00 | 00:00:00 | 00:00:00 | |
| DF7PN | 2026-09-04 04:45:10 | 47.55553 | 11.42411 | 144° | 91km/h | 14027m | 4.3m/s | -67.1°C | 43.4% | 151.8hPa | 2.6V | 00:00:00 | 00:00:00 | 00:00:00 | |
| DO3MHA-11 | 2026-09-04 04:45:09 | 47.55553 | 11.42411 | 145° | 89km/h | 14028m | 4.2m/s | -67.1°C | 57.0% | 151.7hPa | 2.6V | 02:32:00 | 01:06:01 | 00:00:00 | |
| DO3MHA-12 | 2026-09-04 04:45:07 | 47.55590 | 11.42371 | 143° | 89km/h | 14018m | 4.7m/s | -67.4°C | 61.2% | 152.0hPa | 2.6V | 02:32:00 | 01:05:59 | 00:00:00 | |
| OE5MMP-10 | 2026-09-04 04:45:05 | 47.55626 | 11.42332 | 145° | 91km/h | 14009m | 5.6m/s | -67.6°C | 62.4% | 152.2hPa | 2.7V | 02:32:00 | 01:05:57 | 00:00:00 | |
| NBG1-10 | 2026-09-04 04:45:04 | 47.55644 | 11.42313 | 145° | 88km/h | 14004m | 4.0m/s | -67.7°C | 62.7% | 152.3hPa | 2.6V | 00:00:00 | 01:05:56 | 00:00:00 | |
| DB0ND-19 | 2026-09-04 04:45:00 | 47.55716 | 11.42233 | 142° | 91km/h | 13985m | 5.9m/s | -68.1°C | 47.5% | 152.9hPa | 2.6V | 00:00:00 | 00:00:00 | 00:00:00 | |
| DL6DJ-15 | 2026-09-04 04:44:53 | 47.55846 | 11.42086 | 143° | 88km/h | 13952m | 5.7m/s | -67.9°C | 47.2% | 153.7hPa | 2.6V | 00:00:00 | 00:00:00 | 00:00:00 | |
| OE5MMP-10 | 2026-09-04 04:44:52 | 47.55864 | 11.42066 | 143° | 86km/h | 13947m | 4.2m/s | -67.7°C | 61.9% | 153.8hPa | 2.6V | 00:00:00 | 01:05:44 | 00:00:00 | |
| DO3MHA-11 | 2026-09-04 04:44:49 | 47.55913 | 11.42008 | 142° | 84km/h | 13932m | 5.2m/s | -67.6°C | 60.3% | 154.2hPa | 2.6V | 00:00:00 | 01:05:41 | 00:00:00 | |
| DF1GD-15 | 2026-09-04 04:44:48 | 47.55913 | 11.42008 | 143° | 82km/h | 13932m | 5.2m/s | -67.7°C | 45.9% | 154.2hPa | 2.6V | 02:33:00 | 00:00:00 | 00:00:00 | |
| DO3MHA-12 | 2026-09-04 04:44:47 | 47.55947 | 11.41970 | 143° | 84km/h | 13923m | 4.3m/s | -67.6°C | 61.2% | 154.4hPa | 2.6V | 00:00:00 | 01:05:39 | 00:00:00 | |
| OE5DRO-10 | 2026-09-04 04:44:46 | 47.55963 | 11.41951 | 143° | 84km/h | 13918m | 5.4m/s | -67.5°C | 61.8% | 154.6hPa | 2.6V | 00:00:00 | 00:00:00 | 00:00:00 | |
| BAUMI2-15 | 2026-09-04 04:44:44 | 47.55996 | 11.41914 | 142° | 86km/h | 13909m | 5.7m/s | 0°C | 0% | 0hPa | 2.6V | 00:00:00 | 01:05:36 | 00:00:00 | |
| DF7PN | 2026-09-04 04:44:39 | 47.56090 | 11.41785 | 135° | 84km/h | 13880m | 5.2m/s | -67.3°C | 45.6% | 155.6hPa | 2.6V | 00:00:00 | 00:00:00 | 00:00:00 | |
| DO3MHA-12 | 2026-09-04 04:44:37 | 47.56106 | 11.41762 | 137° | 86km/h | 13875m | 3.9m/s | -67.3°C | 60.0% | 155.6hPa | 2.6V | 02:33:00 | 01:05:29 | 00:00:00 | |
| PG1ADW-2 | 2026-09-04 04:44:36 | 47.56121 | 11.41741 | 138° | 84km/h | 13871m | 5.4m/s | -67.3°C | 60.4% | 155.7hPa | 2.7V | 00:00:00 | 00:00:00 | 00:00:00 | |
| DG1MFX-10 | 2026-09-04 04:44:35 | 47.56121 | 11.41741 | 138° | 86km/h | 13871m | 5.5m/s | -67.3°C | 46.2% | 155.8hPa | 2.7V | 02:33:00 | 00:00:00 | 00:00:00 | |
| NBG1-10 | 2026-09-04 04:44:31 | 47.56205 | 11.41640 | 142° | 80km/h | 13849m | 5.1m/s | -67.1°C | 61.8% | 156.3hPa | 2.7V | 00:00:00 | 01:05:23 | 00:00:00 | |
| DO3MHA-11 | 2026-09-04 04:44:29 | 47.56238 | 11.41599 | 138° | 84km/h | 13841m | 4.1m/s | -67.0°C | 62.3% | 156.5hPa | 2.7V | 00:00:00 | 01:05:21 | 00:00:00 | |
| DB0NH | 2026-09-04 04:44:28 | 47.56253 | 11.41577 | 136° | 75km/h | 13836m | 4.8m/s | -67.0°C | 63.2% | 156.6hPa | 2.7V | 00:00:00 | 01:05:20 | 00:00:00 | |
| DO3MHA-12 | 2026-09-04 04:44:27 | 47.56268 | 11.41555 | 135° | 82km/h | 13832m | 3.7m/s | -67.0°C | 62.7% | 156.8hPa | 2.7V | 00:00:00 | 01:05:19 | 00:00:00 | |
| BAUMI2-15 | 2026-09-04 04:44:24 | 47.56313 | 11.41488 | 136° | 78km/h | 13820m | 4.5m/s | 0°C | 0% | 0hPa | 2.7V | 00:00:00 | 01:05:16 | 00:00:00 | |
| DL6DJ-15 | 2026-09-04 04:44:22 | 47.56344 | 11.41446 | 138° | 82km/h | 13810m | 5.0m/s | -66.8°C | 47.6% | 157.4hPa | 2.7V | 00:00:00 | 00:00:00 | 00:00:00 | |
| OE5MMP-10 | 2026-09-04 04:44:19 | 47.56391 | 11.41385 | 140° | 78km/h | 13797m | 5.4m/s | -66.7°C | 62.5% | 157.6hPa | 2.7V | 00:00:00 | 01:05:11 | 00:00:00 | |
| DO3MHA-12 | 2026-09-04 04:44:17 | 47.56422 | 11.41346 | 139° | 80km/h | 13789m | 5.1m/s | -66.6°C | 61.0% | 157.9hPa | 2.7V | 00:00:00 | 01:05:09 | 00:00:00 | |
| PG1ADW-2 | 2026-09-04 04:44:16 | 47.56438 | 11.41326 | 139° | 78km/h | 13783m | 4.9m/s | -66.5°C | 60.9% | 158.0hPa | 2.7V | 02:33:00 | 00:00:00 | 00:00:00 | |
| DG1MFX-10 | 2026-09-04 04:44:14 | 47.56453 | 11.41305 | 139° | 82km/h | 13779m | 4.5m/s | -66.5°C | 46.9% | 158.2hPa | 2.7V | 02:34:00 | 00:00:00 | 00:00:00 | |
| OE5WHR-10 | 2026-09-04 04:44:10 | 47.56524 | 11.41204 | 137° | 78km/h | 13753m | 3.5m/s | -66.2°C | 61.1% | 158.9hPa | 2.7V | 00:00:00 | 00:00:00 | 00:00:00 | |
| DF1GD-15 | 2026-09-04 04:44:09 | 47.56554 | 11.41164 | 140° | 80km/h | 13743m | 6.8m/s | -66.3°C | 47.3% | 159.2hPa | 2.7V | 02:34:00 | 00:00:00 | 00:00:00 | |
| DB0UT-7 | 2026-09-04 04:44:08 | 47.56570 | 11.41144 | 140° | 77km/h | 13738m | 4.5m/s | -66.2°C | 61.5% | 159.2hPa | 2.7V | 00:00:00 | 01:04:59 | 00:00:00 | |
| DO3MHA-12 | 2026-09-04 04:44:07 | 47.56570 | 11.41144 | 140° | 84km/h | 13738m | 4.5m/s | -66.2°C | 61.5% | 159.2hPa | 2.7V | 02:33:00 | 01:04:59 | 00:00:00 | |
| DB0ND-19 | 2026-09-04 04:43:58 | 47.56716 | 11.40952 | 139° | 73km/h | 13692m | 3.6m/s | 0°C | -1.0% | -1.0hPa | 2.6V | 00:00:00 | 00:00:00 | 00:00:00 | |
| DL6DJ-15 | 2026-09-04 04:43:51 | 47.56806 | 11.40841 | 141° | 75km/h | 13662m | 5.4m/s | -66.2°C | 50.2% | 161.3hPa | 2.6V | 00:00:00 | 00:00:00 | 00:00:00 | |
| OE5WHR-10 | 2026-09-04 04:43:49 | 47.56836 | 11.40806 | 143° | 78km/h | 13654m | 5.0m/s | -66.1°C | 65.1% | 161.5hPa | 2.6V | 00:00:00 | 01:04:41 | 00:00:00 | |
| OE5DXL-15 | 2026-09-04 04:43:47 | 47.56866 | 11.40773 | 144° | 80km/h | 13645m | 5.2m/s | -66.2°C | 66.4% | 161.7hPa | 2.6V | 02:33:00 | 00:00:00 | 00:00:00 | |
| DF1GD-15 | 2026-09-04 04:43:46 | 47.56866 | 11.40773 | 145° | 75km/h | 13645m | 5.3m/s | -66.2°C | 51.9% | 161.8hPa | 2.7V | 02:34:00 | 00:00:00 | 00:00:00 | |
| OE5MMP-10 | 2026-09-04 04:43:39 | 47.56997 | 11.40644 | 147° | 77km/h | 13609m | 3.6m/s | 0°C | 0% | 0hPa | 2.7V | 00:00:00 | 01:04:31 | 00:00:00 | |
| DF7PN | 2026-09-04 04:43:37 | 47.57047 | 11.40594 | 145° | 77km/h | 13596m | 5.3m/s | -66.4°C | 52.1% | 163.0hPa | 2.7V | 00:00:00 | 00:00:00 | 00:00:00 | |
| DG1MFX-10 | 2026-09-04 04:43:33 | 47.57079 | 11.40564 | 150° | 75km/h | 13588m | 3.2m/s | -66.5°C | 52.6% | 163.3hPa | 2.7V | 02:34:00 | 00:00:00 | 00:00:00 | |
| OE5DRO-10 | 2026-09-04 04:43:30 | 47.57148 | 11.40507 | 153° | 84km/h | 13570m | 4.6m/s | -66.3°C | 65.9% | 163.7hPa | 2.7V | 02:34:00 | 00:00:00 | 00:00:00 | |
| OE5MMP-10 | 2026-09-04 04:43:28 | 47.57184 | 11.40479 | 152° | 84km/h | 13561m | 5.4m/s | 0°C | 0% | 0hPa | 2.6V | 02:34:00 | 01:04:20 | 00:00:00 | |
| DO3MHA-11 | 2026-09-04 04:43:27 | 47.57201 | 11.40464 | 151° | 84km/h | 13557m | 3.1m/s | -66.3°C | 66.0% | 164.1hPa | 2.6V | 00:00:00 | 01:04:19 | 00:00:00 | |
| NBG1-10 | 2026-09-04 04:43:25 | 47.57237 | 11.40435 | 152° | 88km/h | 13548m | 3.6m/s | -66.3°C | 67.0% | 164.3hPa | 2.6V | 00:00:00 | 01:04:17 | 00:00:00 | |
| DL6DJ-15 | 2026-09-04 04:43:20 | 47.57332 | 11.40363 | 155° | 84km/h | 13527m | 3.9m/s | -66.2°C | 52.2% | 164.9hPa | 2.6V | 00:00:00 | 00:00:00 | 00:00:00 | |
| OE5DXL-15 | 2026-09-04 04:43:17 | 47.57392 | 11.40325 | 157° | 89km/h | 13515m | 3.5m/s | -66.2°C | 67.0% | 165.2hPa | 2.6V | 00:00:00 | 00:00:00 | 00:00:00 | |
| DO3MHA-11 | 2026-09-04 04:43:16 | 47.57412 | 11.40312 | 157° | 86km/h | 13511m | 4.5m/s | -66.1°C | 66.7% | 165.3hPa | 2.6V | 00:00:00 | 01:04:08 | 00:00:00 | |
| DO3MHA-12 | 2026-09-04 04:43:14 | 47.57451 | 11.40286 | 155° | 88km/h | 13504m | 4.5m/s | -66.2°C | 66.1% | 165.5hPa | 2.6V | 00:00:00 | 01:04:06 | 00:00:00 | |
| DG1MFX-10 | 2026-09-04 04:43:12 | 47.57470 | 11.40272 | 154° | 86km/h | 13499m | 3.8m/s | -66.3°C | 52.3% | 165.7hPa | 2.6V | 02:34:00 | 00:00:00 | 00:00:00 | |
| OE5DRO-10 | 2026-09-04 04:43:11 | 47.57508 | 11.40243 | 153° | 89km/h | 13491m | 3.8m/s | -66.3°C | 67.3% | 165.9hPa | 2.6V | 00:00:00 | 00:00:00 | 00:00:00 | |
| OE5WHR-10 | 2026-09-04 04:43:07 | 47.57586 | 11.40184 | 154° | 91km/h | 13474m | 3.3m/s | -66.2°C | 67.8% | 166.3hPa | 2.6V | 00:00:00 | 00:00:00 | 00:00:00 | |
| DO3MHA-11 | 2026-09-04 04:43:06 | 47.57606 | 11.40169 | 154° | 89km/h | 13470m | 4.7m/s | -66.2°C | 67.5% | 166.4hPa | 2.6V | 02:34:00 | 01:03:58 | 00:00:00 | |
| DF1GD-15 | 2026-09-04 04:43:05 | 47.57606 | 11.40169 | 154° | 88km/h | 13470m | 4.7m/s | -66.3°C | 0% | 166.5hPa | 2.6V | 00:00:00 | 00:00:00 | 00:00:00 | |
| DO3MHA-12 | 2026-09-04 04:43:04 | 47.57646 | 11.40140 | 154° | 89km/h | 13462m | 4.9m/s | -66.2°C | 68.0% | 166.6hPa | 2.6V | 00:00:00 | 01:03:56 | 00:00:00 | |
| DL6DJ-15 | 2026-09-04 04:42:49 | 47.57982 | 11.39923 | 160° | 97km/h | 13397m | 3.7m/s | -66.8°C | 57.2% | 168.5hPa | 2.6V | 00:00:00 | 00:00:00 | 00:00:00 | |
| OE5DXL-15 | 2026-09-04 04:42:47 | 47.58005 | 11.39911 | 160° | 99km/h | 13393m | 4.9m/s | -66.8°C | 72.7% | 168.5hPa | 2.6V | 00:00:00 | 00:00:00 | 00:00:00 | |
| OE5WHR-10 | 2026-09-04 04:42:46 | 47.58027 | 11.39898 | 159° | 99km/h | 13389m | 3.4m/s | -66.7°C | 71.9% | 168.6hPa | 2.6V | 00:00:00 | 01:03:38 | 00:00:00 | |
| DF1GD-15 | 2026-09-04 04:42:45 | 47.58027 | 11.39898 | 160° | 97km/h | 13389m | 3.5m/s | 0°C | 0% | 168.7hPa | 2.6V | 00:00:00 | 00:00:00 | 00:00:00 | |
| OE5MMP-10 | 2026-09-04 04:42:40 | 47.58164 | 11.39812 | 156° | 99km/h | 13364m | 5.0m/s | 0°C | 0% | 0hPa | 2.6V | 02:35:00 | 01:03:32 | 00:00:00 | |
| DB0UT-7 | 2026-09-04 04:42:37 | 47.58231 | 11.39767 | 157° | 97km/h | 13353m | 3.1m/s | -66.4°C | 70.8% | 169.7hPa | 2.6V | 00:00:00 | 00:00:00 | 00:00:00 | |
| DO3MHA-11 | 2026-09-04 04:42:36 | 47.58254 | 11.39752 | 157° | 99km/h | 13348m | 5.2m/s | -66.4°C | 70.3% | 169.8hPa | 2.6V | 02:35:00 | 01:03:28 | 00:00:00 | |
| DO3MHA-12 | 2026-09-04 04:42:34 | 47.58299 | 11.39723 | 157° | 99km/h | 13340m | 5.0m/s | -66.4°C | 69.5% | 170.1hPa | 2.7V | 00:00:00 | 01:03:26 | 00:00:00 | |
| OE5DRO-10 | 2026-09-04 04:42:33 | 47.58322 | 11.39708 | 157° | 99km/h | 13336m | 4.4m/s | -66.4°C | 69.4% | 170.2hPa | 2.7V | 02:35:00 | 00:00:00 | 00:00:00 | |
| OE5MMP-10 | 2026-09-04 04:42:30 | 47.58391 | 11.39663 | 157° | 99km/h | 13322m | 5.3m/s | 0°C | 0% | 0hPa | 2.6V | 00:00:00 | 01:03:22 | 00:00:00 | |
| OE3JTB-15 | 2026-09-04 04:42:28 | 47.58437 | 11.39633 | 156° | 86km/h | 13314m | 4.2m/s | -66.6°C | 70.5% | 170.7hPa | 2.6V | 00:00:00 | 00:00:00 | 00:00:00 | |
| PG1ADW-2 | 2026-09-04 04:42:27 | 47.58460 | 11.39618 | 156° | 97km/h | 13310m | 3.8m/s | -66.6°C | 70.9% | 170.9hPa | 2.6V | 00:00:00 | 00:00:00 | 00:00:00 | |
| DO3MHA-11 | 2026-09-04 04:42:26 | 47.58483 | 11.39602 | 156° | 97km/h | 13306m | 4.1m/s | -66.7°C | 71.5% | 171.0hPa | 2.6V | 00:00:00 | 01:03:18 | 00:00:00 | |
| OE5WHR-10 | 2026-09-04 04:42:25 | 47.58506 | 11.39587 | 156° | 97km/h | 13301m | 4.3m/s | -66.7°C | 72.0% | 171.1hPa | 2.6V | 02:35:00 | 00:00:00 | 00:00:00 | |
| DO3MHA-12 | 2026-09-04 04:42:24 | 47.58528 | 11.39571 | 156° | 97km/h | 13298m | 3.9m/s | -66.7°C | 72.3% | 171.3hPa | 2.6V | 02:35:00 | 01:03:16 | 00:00:00 | |
| OE5MMP-10 | 2026-09-04 04:42:20 | 47.58617 | 11.39510 | 155° | 97km/h | 13282m | 3.6m/s | 0°C | 0% | 0hPa | 2.6V | 00:00:00 | 01:03:12 | 00:00:00 | |
| NBG1-10 | 2026-09-04 04:42:19 | 47.58638 | 11.39494 | 155° | 97km/h | 13277m | 4.9m/s | -66.6°C | 73.3% | 171.8hPa | 2.6V | 02:35:00 | 01:03:11 | 00:00:00 | |
| DL6DJ-15 | 2026-09-04 04:42:18 | 47.58682 | 11.39462 | 153° | 95km/h | 13270m | 4.0m/s | -66.6°C | 56.8% | 172.1hPa | 2.7V | 00:00:00 | 00:00:00 | 00:00:00 | |
| OE5DXL-15 | 2026-09-04 04:42:17 | 47.58682 | 11.39462 | 154° | 97km/h | 13270m | 3.9m/s | -66.5°C | 72.3% | 172.0hPa | 2.7V | 02:35:00 | 00:00:00 | 00:00:00 | |
| DO3MHA-11 | 2026-09-04 04:42:16 | 47.58704 | 11.39446 | 154° | 97km/h | 13266m | 4.1m/s | -66.5°C | 72.1% | 172.1hPa | 2.7V | 00:00:00 | 01:03:08 | 00:00:00 | |
| DO3MHA-12 | 2026-09-04 04:42:14 | 47.58747 | 11.39414 | 154° | 97km/h | 13258m | 4.7m/s | -66.4°C | 71.3% | 172.4hPa | 2.7V | 00:00:00 | 01:03:06 | 00:00:00 | |
| DG1MFX-10 | 2026-09-04 04:42:10 | 47.58813 | 11.39366 | 154° | 97km/h | 13245m | 3.3m/s | -66.4°C | 55.3% | 172.8hPa | 2.7V | 02:35:00 | 00:00:00 | 00:00:00 | |
| OE5MMP-10 | 2026-09-04 04:42:09 | 47.58858 | 11.39333 | 154° | 99km/h | 13237m | 3.8m/s | 0°C | 0% | 0hPa | 2.7V | 02:35:00 | 01:03:01 | 00:00:00 | |
| DB0UT-7 | 2026-09-04 04:42:07 | 47.58902 | 11.39301 | 155° | 97km/h | 13229m | 3.3m/s | -66.2°C | 69.2% | 173.2hPa | 2.7V | 00:00:00 | 01:02:59 | 00:00:00 | |
| DO3MHA-11 | 2026-09-04 04:42:06 | 47.58924 | 11.39285 | 155° | 97km/h | 13225m | 4.4m/s | -66.2°C | 68.2% | 173.3hPa | 2.7V | 02:35:00 | 01:02:58 | 00:00:00 | |
| DO3MHA-12 | 2026-09-04 04:42:04 | 47.58969 | 11.39254 | 154° | 97km/h | 13216m | 4.6m/s | -66.1°C | 68.4% | 173.5hPa | 2.7V | 00:00:00 | 01:02:56 | 00:00:00 | |
| DF7PN | 2026-09-04 04:42:03 | 47.58992 | 11.39237 | 153° | 97km/h | 13212m | 3.6m/s | 0°C | -1.0% | -1.0hPa | 2.7V | 00:00:00 | 00:00:00 | 00:00:00 | |
| DL6DJ-15 | 2026-09-04 04:41:47 | 47.59360 | 11.38950 | 152° | 97km/h | 13139m | 3.6m/s | -65.8°C | 54.4% | 175.8hPa | 2.7V | 00:00:00 | 00:00:00 | 00:00:00 | |
| DO3MHA-11 | 2026-09-04 04:41:46 | 47.59360 | 11.38950 | 153° | 99km/h | 13139m | 3.6m/s | -65.8°C | 69.2% | 175.8hPa | 2.7V | 00:00:00 | 01:02:38 | 00:00:00 | |
| DO3MHA-12 | 2026-09-04 04:41:44 | 47.59404 | 11.38916 | 153° | 99km/h | 13131m | 3.4m/s | -65.7°C | 68.0% | 176.0hPa | 2.7V | 00:00:00 | 01:02:36 | 00:00:00 | |
| OE5WHR-10 | 2026-09-04 04:41:43 | 47.59426 | 11.38899 | 152° | 93km/h | 13127m | 4.6m/s | -65.7°C | 67.4% | 176.1hPa | 2.7V | 00:00:00 | 01:02:35 | 00:00:00 | |
| OE5MMP-10 | 2026-09-04 04:41:37 | 47.59557 | 11.38792 | 153° | 93km/h | 13103m | 3.3m/s | 0°C | 0% | 0hPa | 2.7V | 02:36:00 | 01:02:29 | 00:00:00 | |
| DO3MHA-11 | 2026-09-04 04:41:36 | 47.59579 | 11.38776 | 155° | 93km/h | 13099m | 4.6m/s | -65.5°C | 68.3% | 177.0hPa | 2.7V | 02:36:00 | 01:02:28 | 00:00:00 | |
| DO3MHA-12 | 2026-09-04 04:41:34 | 47.59622 | 11.38745 | 155° | 91km/h | 13090m | 4.8m/s | -65.4°C | 68.9% | 177.2hPa | 2.7V | 00:00:00 | 01:02:26 | 00:00:00 | |
| DG1MFX-10 | 2026-09-04 04:41:28 | 47.59725 | 11.38663 | 151° | 91km/h | 13069m | 5.0m/s | -65.3°C | 54.2% | 177.8hPa | 2.7V | 02:36:00 | 00:00:00 | 00:00:00 | |
| OE5MMP-10 | 2026-09-04 04:41:27 | 47.59765 | 11.38630 | 151° | 91km/h | 13060m | 5.2m/s | 0°C | 0% | 0hPa | 2.7V | 00:00:00 | 01:02:19 | 00:00:00 | |
| DO3MHA-11 | 2026-09-04 04:41:26 | 47.59785 | 11.38614 | 152° | 91km/h | 13055m | 3.7m/s | -65.2°C | 68.5% | 178.2hPa | 2.7V | 00:00:00 | 01:02:18 | 00:00:00 | |
| DO3MHA-12 | 2026-09-04 04:41:24 | 47.59825 | 11.38582 | 153° | 93km/h | 13046m | 4.3m/s | -65.1°C | 68.2% | 178.4hPa | 2.7V | 02:36:00 | 01:02:16 | 00:00:00 | |
| OE5WHR-10 | 2026-09-04 04:41:22 | 47.59866 | 11.38553 | 155° | 93km/h | 13036m | 3.2m/s | -65.0°C | 67.9% | 178.7hPa | 2.6V | 02:36:00 | 00:00:00 | 00:00:00 | |
| OE5DXL-15 | 2026-09-04 04:41:17 | 47.59969 | 11.38474 | 152° | 91km/h | 13015m | 3.4m/s | -64.9°C | 66.7% | 179.4hPa | 2.6V | 00:00:00 | 00:00:00 | 00:00:00 | |
| DL6DJ-15 | 2026-09-04 04:41:16 | 47.60011 | 11.38439 | 148° | 95km/h | 13006m | 3.4m/s | -64.9°C | 52.1% | 179.7hPa | 2.6V | 00:00:00 | 00:00:00 | 00:00:00 | |
| DO3MHA-12 | 2026-09-04 04:41:14 | 47.60032 | 11.38420 | 149° | 93km/h | 13001m | 5.3m/s | -64.8°C | 65.9% | 179.7hPa | 2.6V | 00:00:00 | 01:02:06 | 00:00:00 | |
| NBG1-10 | 2026-09-04 04:41:13 | 47.60053 | 11.38401 | 149° | 89km/h | 12996m | 3.8m/s | -64.8°C | 66.2% | 179.8hPa | 2.6V | 00:00:00 | 01:02:05 | 00:00:00 | |
| OE5MMP-10 | 2026-09-04 04:41:07 | 47.60176 | 11.38297 | 153° | 88km/h | 12969m | 5.2m/s | 0°C | 0% | 0hPa | 2.6V | 02:36:00 | 01:01:59 | 00:00:00 | |
| DO3MHA-11 | 2026-09-04 04:41:06 | 47.60196 | 11.38282 | 153° | 91km/h | 12963m | 4.2m/s | -64.5°C | 65.2% | 180.8hPa | 2.6V | 02:36:00 | 01:01:58 | 00:00:00 | |
| DO3MHA-12 | 2026-09-04 04:41:04 | 47.60237 | 11.38250 | 152° | 91km/h | 12953m | 3.0m/s | -64.4°C | 65.6% | 181.0hPa | 2.6V | 00:00:00 | 01:01:56 | 00:00:00 | |
| DH7VM-15 | 2026-09-04 04:41:03 | 47.60237 | 11.38250 | 153° | 93km/h | 12953m | 3.1m/s | -64.5°C | 51.8% | 181.0hPa | 2.6V | 00:00:00 | 00:00:00 | 00:00:00 | |
| OE5WHR-10 | 2026-09-04 04:41:01 | 47.60297 | 11.38199 | 150° | 88km/h | 12938m | 4.3m/s | -64.3°C | 64.8% | 181.5hPa | 2.6V | 00:00:00 | 00:00:00 | 00:00:00 | |
| OE5DRO-10 | 2026-09-04 04:40:58 | 47.60357 | 11.38145 | 148° | 88km/h | 12922m | 4.4m/s | -64.2°C | 65.6% | 181.9hPa | 2.6V | 00:00:00 | 00:00:00 | 00:00:00 | |
| DO3MHA-11 | 2026-09-04 04:40:56 | 47.60396 | 11.38110 | 150° | 88km/h | 12912m | 4.4m/s | -64.2°C | 65.8% | 182.1hPa | 2.6V | 00:00:00 | 01:01:48 | 00:00:00 | |
| DO3MHA-12 | 2026-09-04 04:40:54 | 47.60435 | 11.38078 | 146° | 88km/h | 12903m | -8.6m/s | -64.1°C | 66.5% | 182.4hPa | 2.6V | 02:36:00 | 01:01:46 | 00:00:00 | |
| DO8TBO-1 | 2026-09-04 04:40:48 | 47.60568 | 11.37958 | 149° | 84km/h | 12885m | 4.8m/s | -63.9°C | 66.1% | 183.3hPa | 2.7V | 00:00:00 | 01:01:39 | 00:00:00 | |
| OE5MMP-10 | 2026-09-04 04:40:47 | 47.60568 | 11.37958 | 149° | 88km/h | 12885m | 4.8m/s | 0°C | 0% | 0hPa | 2.7V | 00:00:00 | 01:01:39 | 00:00:00 | |
| DO3MHA-11 | 2026-09-04 04:40:46 | 47.60587 | 11.37941 | 149° | 88km/h | 12881m | 3.8m/s | -63.9°C | 65.8% | 183.4hPa | 2.7V | 00:00:00 | 01:01:38 | 00:00:00 | |
| DH7VM-15 | 2026-09-04 04:40:44 | 47.60643 | 11.37886 | 148° | 89km/h | 12866m | 5.6m/s | -63.8°C | 52.0% | 183.9hPa | 2.7V | 00:00:00 | 00:00:00 | 00:00:00 | |
| OE5WHR-10 | 2026-09-04 04:40:40 | 47.60699 | 11.37832 | 146° | 82km/h | 12853m | 5.2m/s | -63.7°C | 65.2% | 184.2hPa | 2.7V | 00:00:00 | 01:01:32 | 00:00:00 | |
| OE5DRO-10 | 2026-09-04 04:40:39 | 47.60717 | 11.37813 | 145° | 82km/h | 12848m | 4.2m/s | -63.7°C | 65.5% | 184.4hPa | 2.7V | 02:37:00 | 00:00:00 | 00:00:00 | |
| DB0UT-7 | 2026-09-04 04:40:37 | 47.60753 | 11.37778 | 149° | 80km/h | 12838m | 4.8m/s | -63.7°C | 64.7% | 184.6hPa | 2.7V | 00:00:00 | 00:00:00 | 00:00:00 | |
| DO3MHA-11 | 2026-09-04 04:40:36 | 47.60771 | 11.37762 | 150° | 80km/h | 12834m | 3.7m/s | -63.6°C | 64.3% | 184.8hPa | 2.7V | 02:37:00 | 01:01:28 | 00:00:00 | |
| DO3MHA-12 | 2026-09-04 04:40:34 | 47.60806 | 11.37731 | 149° | 80km/h | 12824m | 4.5m/s | -63.6°C | 64.9% | 185.1hPa | 2.7V | 00:00:00 | 01:01:26 | 00:00:00 | |
| OE5MMP-10 | 2026-09-04 04:40:27 | 47.60928 | 11.37619 | 148° | 80km/h | 12794m | 4.1m/s | 0°C | 0% | 0hPa | 2.7V | 02:37:00 | 01:01:19 | 00:00:00 | |
| DO3MHA-11 | 2026-09-04 04:40:26 | 47.60945 | 11.37603 | 147° | 82km/h | 12791m | 2.7m/s | -63.3°C | 67.1% | 186.1hPa | 2.7V | 00:00:00 | 01:01:18 | 00:00:00 | |
| DO3MHA-12 | 2026-09-04 04:40:24 | 47.60977 | 11.37569 | 144° | 82km/h | 12782m | 4.2m/s | -63.2°C | 66.1% | 186.4hPa | 2.7V | 02:37:00 | 01:01:16 | 00:00:00 | |
| DG1MJG | 2026-09-04 04:40:23 | 47.60977 | 11.37569 | 144° | 82km/h | 12782m | 4.3m/s | -63.2°C | 52.6% | 186.4hPa | 2.7V | 02:37:00 | 00:00:00 | 00:00:00 | |
| PG1ADW-2 | 2026-09-04 04:40:21 | 47.61028 | 11.37515 | 147° | 80km/h | 12768m | 4.5m/s | 0°C | 0% | 0hPa | 2.7V | 00:00:00 | 00:00:00 | 00:00:00 | |
| OE5DRO-10 | 2026-09-04 04:40:20 | 47.61045 | 11.37498 | 147° | 80km/h | 12763m | 5.3m/s | -63.0°C | 64.8% | 186.9hPa | 2.7V | 00:00:00 | 00:00:00 | 00:00:00 | |
| OE5WHR-10 | 2026-09-04 04:40:18 | 47.61081 | 11.37463 | 148° | 78km/h | 12753m | 3.9m/s | -62.9°C | 65.2% | 187.3hPa | 2.7V | 02:37:00 | 00:00:00 | 00:00:00 | |
| OE5MMP-10 | 2026-09-04 04:40:17 | 47.61098 | 11.37447 | 148° | 78km/h | 12749m | 5.0m/s | 0°C | 0% | 0hPa | 2.6V | 00:00:00 | 01:01:09 | 00:00:00 | |
| DO3MHA-11 | 2026-09-04 04:40:16 | 47.61116 | 11.37431 | 148° | 78km/h | 12744m | 4.2m/s | -62.8°C | 65.5% | 187.5hPa | 2.6V | 00:00:00 | 01:01:08 | 00:00:00 | |
| DO3MHA-12 | 2026-09-04 04:40:15 | 47.61149 | 11.37397 | 145° | 78km/h | 12733m | 4.4m/s | -62.7°C | 65.7% | 187.8hPa | 2.6V | 00:00:00 | 01:01:06 | 00:00:00 | |
| DL6DJ-15 | 2026-09-04 04:40:13 | 47.61165 | 11.37380 | 143° | 77km/h | 12728m | 6.3m/s | -62.8°C | 52.2% | 188.0hPa | 2.6V | 00:00:00 | 00:00:00 | 00:00:00 | |
| OE5MMP-10 | 2026-09-04 04:40:07 | 47.61257 | 11.37273 | 142° | 80km/h | 12698m | 5.1m/s | 0°C | 0% | 0hPa | 2.6V | 00:00:00 | 01:00:59 | 00:00:00 | |
| DG1MFX-10 | 2026-09-04 04:40:06 | 47.61257 | 11.37273 | 143° | 80km/h | 12698m | 5.1m/s | -62.5°C | 52.4% | 188.9hPa | 2.6V | 02:38:00 | 00:00:00 | 00:00:00 | |
| DO3MHA-12 | 2026-09-04 04:40:04 | 47.61307 | 11.37219 | 147° | 77km/h | 12684m | 5.6m/s | -62.3°C | 64.9% | 189.3hPa | 2.6V | 00:00:00 | 01:00:56 | 00:00:00 | |
| DB0ND-19 | 2026-09-04 04:39:50 | 47.61542 | 11.36964 | 142° | 77km/h | 12614m | 5.6m/s | -61.7°C | 51.6% | 191.6hPa | 2.6V | 00:00:00 | 00:00:00 | 00:00:00 | |
| OE5MMP-10 | 2026-09-04 04:39:47 | 47.61573 | 11.36928 | 142° | 80km/h | 12605m | 4.8m/s | 0°C | 0% | 0hPa | 2.6V | 00:00:00 | 01:00:39 | 00:00:00 | |
| DO3MHA-11 | 2026-09-04 04:39:46 | 47.61588 | 11.36910 | 141° | 78km/h | 12600m | 4.2m/s | -61.6°C | 64.5% | 191.9hPa | 2.6V | 00:00:00 | 01:00:38 | 00:00:00 | |
| DG1MFX-10 | 2026-09-04 04:39:45 | 47.61588 | 11.36910 | 142° | 77km/h | 12600m | 4.3m/s | -61.6°C | 51.9% | 191.9hPa | 2.6V | 02:38:00 | 00:00:00 | 00:00:00 | |
| DO3MHA-12 | 2026-09-04 04:39:44 | 47.61619 | 11.36873 | 141° | 78km/h | 12592m | 4.3m/s | -61.5°C | 64.3% | 192.2hPa | 2.6V | 00:00:00 | 01:00:36 | 00:00:00 | |
| OE5DRO-10 | 2026-09-04 04:39:42 | 47.61649 | 11.36837 | 142° | 78km/h | 12583m | 4.2m/s | -61.4°C | 64.9% | 192.4hPa | 2.6V | 02:38:00 | 00:00:00 | 00:00:00 | |
| DB0UT-7 | 2026-09-04 04:39:37 | 47.61729 | 11.36751 | 146° | 80km/h | 12562m | 3.8m/s | 0°C | 0% | 0hPa | 2.7V | 00:00:00 | 00:00:00 | 00:00:00 | |
| DO3MHA-11 | 2026-09-04 04:39:36 | 47.61745 | 11.36734 | 146° | 78km/h | 12558m | 5.1m/s | -61.2°C | 63.8% | 193.2hPa | 2.7V | 02:38:00 | 01:00:28 | 00:00:00 | |
| DO3MHA-12 | 2026-09-04 04:39:34 | 47.61778 | 11.36699 | 144° | 78km/h | 12548m | 5.2m/s | -61.1°C | 64.0% | 193.5hPa | 2.7V | 00:00:00 | 01:00:26 | 00:00:00 | |
| DO3MHA-11 | 2026-09-04 04:39:26 | 47.61903 | 11.36554 | 145° | 80km/h | 12514m | 3.7m/s | -60.9°C | 65.7% | 194.6hPa | 2.7V | 00:00:00 | 01:00:18 | 00:00:00 | |
| DG1MFX-10 | 2026-09-04 04:39:25 | 47.61903 | 11.36554 | 145° | 82km/h | 12514m | 3.7m/s | -60.9°C | 53.2% | 194.6hPa | 2.7V | 02:39:00 | 00:00:00 | 00:00:00 | |
| DO3MHA-12 | 2026-09-04 04:39:24 | 47.61936 | 11.36519 | 146° | 78km/h | 12506m | 4.0m/s | -60.8°C | 65.9% | 194.8hPa | 2.7V | 02:38:00 | 01:00:16 | 00:00:00 | |
| OE5DRO-10 | 2026-09-04 04:39:23 | 47.61953 | 11.36502 | 146° | 78km/h | 12502m | 3.6m/s | -60.7°C | 65.6% | 195.0hPa | 2.6V | 00:00:00 | 00:00:00 | 00:00:00 | |
| DG1MJG | 2026-09-04 04:39:22 | 47.61953 | 11.36502 | 147° | 82km/h | 12502m | 3.7m/s | -60.8°C | 53.1% | 195.0hPa | 2.6V | 02:39:00 | 00:00:00 | 00:00:00 | |
| DB0ND-19 | 2026-09-04 04:39:18 | 47.62034 | 11.36415 | 142° | 77km/h | 12480m | 5.6m/s | -60.6°C | 54.6% | 195.7hPa | 2.6V | 00:00:00 | 00:00:00 | 00:00:00 | |
| OE5DXL-15 | 2026-09-04 04:39:17 | 47.62049 | 11.36397 | 142° | 80km/h | 12475m | 4.3m/s | -60.5°C | 67.4% | 195.8hPa | 2.6V | 02:38:00 | 00:00:00 | 00:00:00 | |
| DO3MHA-11 | 2026-09-04 04:39:16 | 47.62064 | 11.36380 | 140° | 80km/h | 12471m | 4.9m/s | -60.4°C | 67.6% | 195.9hPa | 2.7V | 00:00:00 | 01:00:08 | 00:00:00 | |
| OE5WHR-10 | 2026-09-04 04:39:15 | 47.62079 | 11.36361 | 140° | 80km/h | 12467m | 3.3m/s | -60.4°C | 67.6% | 196.0hPa | 2.7V | 02:38:00 | 00:00:00 | 00:00:00 | |
| DO3MHA-12 | 2026-09-04 04:39:14 | 47.62093 | 11.36343 | 140° | 80km/h | 12462m | 5.4m/s | -60.4°C | 66.8% | 196.3hPa | 2.6V | 00:00:00 | 01:00:06 | 00:00:00 | |
| DL6DJ-15 | 2026-09-04 04:39:11 | 47.62143 | 11.36285 | 143° | 84km/h | 12448m | 5.1m/s | -60.4°C | 53.2% | 196.7hPa | 2.6V | 00:00:00 | 00:00:00 | 00:00:00 | |
| DB0UT-7 | 2026-09-04 04:39:07 | 47.62210 | 11.36211 | 144° | 80km/h | 12429m | 5.9m/s | -60.2°C | 63.9% | 197.3hPa | 2.6V | 00:00:00 | 00:59:59 | 00:00:00 | |
| DO3MHA-11 | 2026-09-04 04:39:06 | 47.62226 | 11.36194 | 144° | 78km/h | 12424m | 4.4m/s | -60.1°C | 64.4% | 197.4hPa | 2.6V | 02:38:00 | 00:59:58 | 00:00:00 | |
| DO3MHA-12 | 2026-09-04 04:39:04 | 47.62255 | 11.36161 | 142° | 78km/h | 12414m | 5.0m/s | -60.0°C | 64.8% | 197.7hPa | 2.6V | 00:00:00 | 00:59:56 | 00:00:00 | |
| NBG1-10 | 2026-09-04 04:39:01 | 47.62300 | 11.36106 | 141° | 80km/h | 12400m | 4.3m/s | -59.9°C | 64.6% | 198.2hPa | 2.6V | 02:38:00 | 00:59:53 | 00:00:00 | |
| DO3MHA-11 | 2026-09-04 04:38:56 | 47.62376 | 11.36006 | 138° | 82km/h | 12377m | 5.0m/s | -59.8°C | 65.1% | 198.9hPa | 2.7V | 00:00:00 | 00:59:48 | 00:00:00 | |
| DO3MHA-12 | 2026-09-04 04:38:54 | 47.62407 | 11.35965 | 140° | 82km/h | 12368m | 5.1m/s | -59.7°C | 64.6% | 199.2hPa | 2.7V | 02:38:00 | 00:59:46 | 00:00:00 | |
| DG1MJG | 2026-09-04 04:38:52 | 47.62423 | 11.35945 | 140° | 82km/h | 12363m | 4.1m/s | -59.7°C | 52.5% | 199.4hPa | 2.7V | 02:39:00 | 00:00:00 | 00:00:00 | |
| OE5WHR-10 | 2026-09-04 04:38:50 | 47.62471 | 11.35884 | 141° | 80km/h | 12350m | 4.9m/s | 0°C | 0% | 0hPa | 2.7V | 00:00:00 | 00:00:00 | 00:00:00 | |
| OE5DXL-15 | 2026-09-04 04:38:47 | 47.62518 | 11.35826 | 141° | 80km/h | 12336m | 4.6m/s | -59.4°C | 63.0% | 200.2hPa | 2.7V | 00:00:00 | 00:00:00 | 00:00:00 | |
| DO3MHA-11 | 2026-09-04 04:38:46 | 47.62534 | 11.35806 | 141° | 80km/h | 12331m | 4.9m/s | -59.4°C | 63.6% | 200.4hPa | 2.7V | 00:00:00 | 00:59:38 | 00:00:00 | |
| OE5DRO-10 | 2026-09-04 04:38:45 | 47.62550 | 11.35786 | 140° | 80km/h | 12327m | 3.0m/s | -59.4°C | 63.4% | 200.5hPa | 2.7V | 02:39:00 | 00:00:00 | 00:00:00 | |
| DO3MHA-12 | 2026-09-04 04:38:44 | 47.62565 | 11.35783 | 138° | 80km/h | 12322m | 5.9m/s | -59.3°C | 63.0% | 200.6hPa | 2.7V | 00:00:00 | 00:59:36 | 00:00:00 | |
| OE3JTB-15 | 2026-09-04 04:38:43 | 47.62580 | 11.35746 | 137° | 78km/h | 12317m | 4.5m/s | -59.3°C | 63.4% | 200.8hPa | 2.7V | 02:39:00 | 00:00:00 | 00:00:00 | |
| DL6DJ-15 | 2026-09-04 04:38:40 | 47.62625 | 11.35684 | 136° | 78km/h | 12303m | 5.2m/s | -59.2°C | 51.4% | 201.2hPa | 2.7V | 00:00:00 | 00:00:00 | 00:00:00 | |
| DB0UT-7 | 2026-09-04 04:38:37 | 47.62667 | 11.35622 | 136° | 78km/h | 12289m | 5.0m/s | -59.0°C | 63.7% | 201.7hPa | 2.7V | 02:39:00 | 00:00:00 | 00:00:00 | |
| DO3MHA-11 | 2026-09-04 04:38:36 | 47.62682 | 11.35601 | 135° | 80km/h | 12285m | 4.0m/s | -59.0°C | 63.9% | 201.8hPa | 2.6V | 02:39:00 | 00:59:28 | 00:00:00 | |
| DO3MHA-12 | 2026-09-04 04:38:34 | 47.62710 | 11.35559 | 136° | 78km/h | 12276m | 3.4m/s | -58.9°C | 63.9% | 202.1hPa | 2.7V | 00:00:00 | 00:59:26 | 00:00:00 | |
| DH7VM-15 | 2026-09-04 04:38:32 | 47.62724 | 11.35538 | 137° | 80km/h | 12271m | 5.0m/s | -58.9°C | 51.9% | 202.3hPa | 2.7V | 00:00:00 | 00:00:00 | 00:00:00 | |
| OE5WHR-10 | 2026-09-04 04:38:29 | 47.62783 | 11.35455 | 137° | 78km/h | 12254m | 4.5m/s | 0°C | 0% | 0hPa | 2.7V | 00:00:00 | 00:59:21 | 00:00:00 | |
| NBG1-10 | 2026-09-04 04:38:28 | 47.62798 | 11.35435 | 138° | 78km/h | 12249m | 5.3m/s | -58.6°C | 64.0% | 203.0hPa | 2.7V | 00:00:00 | 00:59:20 | 00:00:00 | |
| DO3MHA-11 | 2026-09-04 04:38:26 | 47.62827 | 11.35395 | 137° | 78km/h | 12240m | 5.2m/s | -58.6°C | 64.0% | 203.3hPa | 2.7V | 00:00:00 | 00:59:18 | 00:00:00 | |
| OE5MMP-10 | 2026-09-04 04:38:23 | 47.62869 | 11.35333 | 133° | 78km/h | 12226m | 3.9m/s | 0°C | 0% | 0hPa | 2.7V | 00:00:00 | 00:59:15 | 00:00:00 | |
| DG1MJG | 2026-09-04 04:38:21 | 47.62882 | 11.35312 | 133° | 78km/h | 12222m | 4.4m/s | -58.4°C | 53.6% | 203.9hPa | 2.7V | 02:39:00 | 00:00:00 | 00:00:00 | |
| OE5DXL-15 | 2026-09-04 04:38:17 | 47.62950 | 11.35203 | 135° | 78km/h | 12200m | 4.1m/s | -58.2°C | 64.8% | 204.6hPa | 2.7V | 00:00:00 | 00:00:00 | 00:00:00 | |
| DO3MHA-11 | 2026-09-04 04:38:16 | 47.62964 | 11.35182 | 137° | 78km/h | 12195m | 4.7m/s | -58.1°C | 64.7% | 204.8hPa | 2.7V | 00:00:00 | 00:59:08 | 00:00:00 | |
| DO3MHA-12 | 2026-09-04 04:38:14 | 47.62994 | 11.35142 | 139° | 78km/h | 12186m | 5.9m/s | -58.0°C | 64.1% | 205.0hPa | 2.7V | 00:00:00 | 00:59:06 | 00:00:00 | |
| DL6DJ-15 | 2026-09-04 04:38:09 | 47.63066 | 11.35042 | 132° | 77km/h | 12162m | 4.5m/s | -57.9°C | 54.3% | 205.8hPa | 2.7V | 00:00:00 | 00:00:00 | 00:00:00 | |
| OE5WHR-10 | 2026-09-04 04:38:08 | 47.63079 | 11.35020 | 132° | 78km/h | 12158m | 4.7m/s | 0°C | 0% | 0hPa | 2.7V | 02:39:00 | 00:00:00 | 00:00:00 | |
| DB0UT-7 | 2026-09-04 04:38:07 | 47.63092 | 11.34998 | 131° | 77km/h | 12153m | 5.3m/s | -57.8°C | 66.7% | 206.1hPa | 2.7V | 00:00:00 | 00:58:59 | 00:00:00 | |
| DO3MHA-11 | 2026-09-04 04:38:06 | 47.63105 | 11.34977 | 132° | 77km/h | 12149m | 3.1m/s | -57.7°C | 67.1% | 206.2hPa | 2.7V | 02:39:00 | 00:58:58 | 00:00:00 | |
| DO3MHA-12 | 2026-09-04 04:38:05 | 47.63132 | 11.34933 | 134° | 77km/h | 12142m | 5.3m/s | -57.7°C | 65.2% | 206.4hPa | 2.7V | 00:00:00 | 00:58:56 | 00:00:00 | |
| DG1MFX-10 | 2026-09-04 04:38:03 | 47.63132 | 11.34933 | 134° | 80km/h | 12142m | 5.4m/s | -57.7°C | 53.9% | 206.5hPa | 2.7V | 02:39:00 | 00:00:00 | 00:00:00 | |
| DO3MHA-11 | 2026-09-04 04:37:56 | 47.63243 | 11.34773 | 137° | 78km/h | 12107m | 2.7m/s | -57.3°C | 65.1% | 207.7hPa | 2.7V | 00:00:00 | 00:58:48 | 00:00:00 | |
| NBG1-10 | 2026-09-04 04:37:55 | 47.63256 | 11.34753 | 136° | 75km/h | 12103m | 4.9m/s | -57.3°C | 63.7% | 207.8hPa | 2.7V | 00:00:00 | 00:58:47 | 00:00:00 | |
| DO3MHA-12 | 2026-09-04 04:37:54 | 47.63270 | 11.34733 | 135° | 78km/h | 12098m | 5.4m/s | -57.2°C | 63.6% | 208.0hPa | 2.7V | 02:39:00 | 00:58:46 | 00:00:00 | |
| DG1MJG | 2026-09-04 04:37:50 | 47.63312 | 11.34670 | 136° | 84km/h | 12083m | 5.8m/s | -57.1°C | 51.6% | 208.5hPa | 2.7V | 02:39:00 | 00:00:00 | 00:00:00 | |
| OE5DRO-10 | 2026-09-04 04:37:48 | 47.63357 | 11.34604 | 136° | 75km/h | 12070m | 3.0m/s | -57.0°C | 62.5% | 208.9hPa | 2.7V | 02:39:00 | 00:00:00 | 00:00:00 | |
| OE5WHR-10 | 2026-09-04 04:37:47 | 47.63371 | 11.34584 | 137° | 75km/h | 12067m | 4.2m/s | 0°C | 0% | 0hPa | 2.7V | 00:00:00 | 00:00:00 | 00:00:00 | |
| DO3MHA-11 | 2026-09-04 04:37:46 | 47.63385 | 11.34564 | 138° | 75km/h | 12062m | 5.5m/s | -56.9°C | 61.3% | 209.1hPa | 2.7V | 00:00:00 | 00:58:38 | 00:00:00 | |
| OE5MMP-10 | 2026-09-04 04:37:45 | 47.63399 | 11.34545 | 138° | 73km/h | 12057m | 4.6m/s | 0°C | 0% | 0hPa | 2.7V | 00:00:00 | 00:58:37 | 00:00:00 | |
| DO3MHA-12 | 2026-09-04 04:37:44 | 47.63414 | 11.34525 | 138° | 73km/h | 12052m | 5.2m/s | -56.8°C | 61.0% | 209.5hPa | 2.7V | 00:00:00 | 00:58:36 | 00:00:00 | |
| DG1MFX-10 | 2026-09-04 04:37:42 | 47.63427 | 11.34506 | 137° | 75km/h | 12048m | 3.7m/s | -56.8°C | 50.2% | 209.7hPa | 2.7V | 02:40:00 | 00:00:00 | 00:00:00 | |
| DL6DJ-15 | 2026-09-04 04:37:38 | 47.63493 | 11.34407 | 132° | 73km/h | 12025m | 5.2m/s | -56.7°C | 48.7% | 210.4hPa | 2.7V | 00:00:00 | 00:00:00 | 00:00:00 | |
| DB0UT-7 | 2026-09-04 04:37:37 | 47.63506 | 11.34387 | 133° | 73km/h | 12020m | 4.4m/s | -56.6°C | 59.1% | 210.5hPa | 2.7V | 00:00:00 | 00:00:00 | 00:00:00 | |
| DO3MHA-11 | 2026-09-04 04:37:36 | 47.63518 | 11.34368 | 134° | 73km/h | 12016m | 5.3m/s | -56.5°C | 58.6% | 210.7hPa | 2.7V | 02:40:00 | 00:58:28 | 00:00:00 | |
| Es werden nur die letzten 3500 von 4319 Frames angezeigt. GPX/KML und Diagramme bleiben verfügbar. | |||||||||||||||